<?xml version="1.0" encoding="UTF-8" standalone="no" ?>
<gpx xmlns="http://www.topografix.com/GPX/1/1" xmlns:xsi="http://www.w3.org/2001/XMLSchema-instance" xsi:schemaLocation="http://www.topografix.com/GPX/1/1 http://www.topografix.com/GPX/1/1/gpx.xsd" version="1.1" creator="VisuGPX - https://www.visugpx.com">
  <metadata>
    <name>Pergain Taillac 11.1 km</name>
  </metadata>
  <trk>
    <name><![CDATA[2025 07 24 Pergain Taillac 11]]></name>
    <extensions>
      <line xmlns="http://www.topografix.com/GPX/gpx_style/0/2">
        <color>0000FF</color>
        <width>4</width>
      </line>
    </extensions>
    <trkseg>
      <trkpt lat="44.05844" lon="0.58763">
        <ele>119</ele>
        <time>2025-07-24T12:08:46.289Z</time>
      </trkpt>
      <trkpt lat="44.05848" lon="0.58764">
        <ele>119</ele>
        <time>2025-07-24T12:08:47.289Z</time>
      </trkpt>
      <trkpt lat="44.0585" lon="0.58761">
        <ele>119</ele>
        <time>2025-07-24T12:08:48.289Z</time>
      </trkpt>
      <trkpt lat="44.05845" lon="0.58755">
        <ele>119</ele>
        <time>2025-07-24T12:08:49.289Z</time>
      </trkpt>
      <trkpt lat="44.05843" lon="0.58755">
        <ele>120</ele>
        <time>2025-07-24T12:08:50.289Z</time>
      </trkpt>
      <trkpt lat="44.05842" lon="0.58756">
        <ele>120</ele>
        <time>2025-07-24T12:08:51.289Z</time>
      </trkpt>
      <trkpt lat="44.0584" lon="0.58757">
        <ele>121</ele>
        <time>2025-07-24T12:08:52.289Z</time>
      </trkpt>
      <trkpt lat="44.05839" lon="0.58757">
        <ele>121</ele>
        <time>2025-07-24T12:08:53.289Z</time>
      </trkpt>
      <trkpt lat="44.05839" lon="0.58759">
        <ele>122</ele>
        <time>2025-07-24T12:08:54.289Z</time>
      </trkpt>
      <trkpt lat="44.05838" lon="0.58759">
        <ele>123</ele>
        <time>2025-07-24T12:08:55.289Z</time>
      </trkpt>
      <trkpt lat="44.05837" lon="0.58759">
        <ele>123</ele>
        <time>2025-07-24T12:08:56.289Z</time>
      </trkpt>
      <trkpt lat="44.05837" lon="0.58759">
        <ele>124</ele>
        <time>2025-07-24T12:08:57.289Z</time>
      </trkpt>
      <trkpt lat="44.05837" lon="0.58759">
        <ele>125</ele>
        <time>2025-07-24T12:08:58.289Z</time>
      </trkpt>
      <trkpt lat="44.05836" lon="0.58759">
        <ele>125</ele>
        <time>2025-07-24T12:08:59.289Z</time>
      </trkpt>
      <trkpt lat="44.05837" lon="0.58759">
        <ele>126</ele>
        <time>2025-07-24T12:09:00.289Z</time>
      </trkpt>
      <trkpt lat="44.05836" lon="0.58759">
        <ele>126</ele>
        <time>2025-07-24T12:09:01.289Z</time>
      </trkpt>
      <trkpt lat="44.05836" lon="0.58759">
        <ele>127</ele>
        <time>2025-07-24T12:09:02.289Z</time>
      </trkpt>
      <trkpt lat="44.05836" lon="0.58759">
        <ele>128</ele>
        <time>2025-07-24T12:09:03.289Z</time>
      </trkpt>
      <trkpt lat="44.05836" lon="0.58759">
        <ele>129</ele>
        <time>2025-07-24T12:09:04.289Z</time>
      </trkpt>
      <trkpt lat="44.05836" lon="0.58758">
        <ele>130</ele>
        <time>2025-07-24T12:09:05.289Z</time>
      </trkpt>
      <trkpt lat="44.05836" lon="0.58758">
        <ele>130</ele>
        <time>2025-07-24T12:09:06.289Z</time>
      </trkpt>
      <trkpt lat="44.05836" lon="0.58758">
        <ele>131</ele>
        <time>2025-07-24T12:09:07.289Z</time>
      </trkpt>
      <trkpt lat="44.05836" lon="0.58758">
        <ele>132</ele>
        <time>2025-07-24T12:09:08.289Z</time>
      </trkpt>
      <trkpt lat="44.05836" lon="0.58758">
        <ele>132</ele>
        <time>2025-07-24T12:09:09.289Z</time>
      </trkpt>
      <trkpt lat="44.05836" lon="0.58758">
        <ele>133</ele>
        <time>2025-07-24T12:09:10.289Z</time>
      </trkpt>
      <trkpt lat="44.05836" lon="0.58758">
        <ele>133</ele>
        <time>2025-07-24T12:09:11.289Z</time>
      </trkpt>
      <trkpt lat="44.05836" lon="0.58758">
        <ele>134</ele>
        <time>2025-07-24T12:09:12.289Z</time>
      </trkpt>
      <trkpt lat="44.05836" lon="0.58758">
        <ele>135</ele>
        <time>2025-07-24T12:09:13.289Z</time>
      </trkpt>
      <trkpt lat="44.05836" lon="0.58757">
        <ele>135</ele>
        <time>2025-07-24T12:09:14.289Z</time>
      </trkpt>
      <trkpt lat="44.05836" lon="0.58758">
        <ele>136</ele>
        <time>2025-07-24T12:09:15.289Z</time>
      </trkpt>
      <trkpt lat="44.05836" lon="0.58759">
        <ele>136</ele>
        <time>2025-07-24T12:09:16.289Z</time>
      </trkpt>
      <trkpt lat="44.05836" lon="0.5876">
        <ele>137</ele>
        <time>2025-07-24T12:09:17.289Z</time>
      </trkpt>
      <trkpt lat="44.05836" lon="0.58761">
        <ele>137</ele>
        <time>2025-07-24T12:09:18.289Z</time>
      </trkpt>
      <trkpt lat="44.05836" lon="0.58763">
        <ele>137</ele>
        <time>2025-07-24T12:09:19.289Z</time>
      </trkpt>
      <trkpt lat="44.05836" lon="0.58765">
        <ele>137</ele>
        <time>2025-07-24T12:09:20.289Z</time>
      </trkpt>
      <trkpt lat="44.05835" lon="0.58766">
        <ele>137</ele>
        <time>2025-07-24T12:09:21.289Z</time>
      </trkpt>
      <trkpt lat="44.05835" lon="0.58768">
        <ele>137</ele>
        <time>2025-07-24T12:09:22.289Z</time>
      </trkpt>
      <trkpt lat="44.05835" lon="0.58769">
        <ele>137</ele>
        <time>2025-07-24T12:09:23.289Z</time>
      </trkpt>
      <trkpt lat="44.05835" lon="0.5877">
        <ele>137</ele>
        <time>2025-07-24T12:09:24.289Z</time>
      </trkpt>
      <trkpt lat="44.05834" lon="0.58772">
        <ele>137</ele>
        <time>2025-07-24T12:09:25.289Z</time>
      </trkpt>
      <trkpt lat="44.05834" lon="0.58774">
        <ele>137</ele>
        <time>2025-07-24T12:09:26.289Z</time>
      </trkpt>
      <trkpt lat="44.05833" lon="0.58775">
        <ele>138</ele>
        <time>2025-07-24T12:09:27.289Z</time>
      </trkpt>
      <trkpt lat="44.05833" lon="0.58777">
        <ele>138</ele>
        <time>2025-07-24T12:09:28.289Z</time>
      </trkpt>
      <trkpt lat="44.05832" lon="0.58778">
        <ele>139</ele>
        <time>2025-07-24T12:09:29.289Z</time>
      </trkpt>
      <trkpt lat="44.05831" lon="0.58779">
        <ele>140</ele>
        <time>2025-07-24T12:09:30.289Z</time>
      </trkpt>
      <trkpt lat="44.05831" lon="0.5878">
        <ele>141</ele>
        <time>2025-07-24T12:09:31.289Z</time>
      </trkpt>
      <trkpt lat="44.0583" lon="0.58781">
        <ele>141</ele>
        <time>2025-07-24T12:09:32.289Z</time>
      </trkpt>
      <trkpt lat="44.05829" lon="0.58783">
        <ele>142</ele>
        <time>2025-07-24T12:09:33.289Z</time>
      </trkpt>
      <trkpt lat="44.05829" lon="0.58783">
        <ele>142</ele>
        <time>2025-07-24T12:09:34.289Z</time>
      </trkpt>
      <trkpt lat="44.05829" lon="0.58784">
        <ele>142</ele>
        <time>2025-07-24T12:09:35.289Z</time>
      </trkpt>
      <trkpt lat="44.05828" lon="0.58785">
        <ele>143</ele>
        <time>2025-07-24T12:09:36.289Z</time>
      </trkpt>
      <trkpt lat="44.05829" lon="0.58786">
        <ele>143</ele>
        <time>2025-07-24T12:09:37.289Z</time>
      </trkpt>
      <trkpt lat="44.05828" lon="0.58787">
        <ele>143</ele>
        <time>2025-07-24T12:09:38.289Z</time>
      </trkpt>
      <trkpt lat="44.05828" lon="0.58789">
        <ele>143</ele>
        <time>2025-07-24T12:09:39.289Z</time>
      </trkpt>
      <trkpt lat="44.05827" lon="0.5879">
        <ele>144</ele>
        <time>2025-07-24T12:09:40.289Z</time>
      </trkpt>
      <trkpt lat="44.05826" lon="0.58791">
        <ele>144</ele>
        <time>2025-07-24T12:09:41.290Z</time>
      </trkpt>
      <trkpt lat="44.05825" lon="0.58791">
        <ele>145</ele>
        <time>2025-07-24T12:09:42.289Z</time>
      </trkpt>
      <trkpt lat="44.05823" lon="0.58789">
        <ele>145</ele>
        <time>2025-07-24T12:09:43.290Z</time>
      </trkpt>
      <trkpt lat="44.05822" lon="0.58789">
        <ele>145</ele>
        <time>2025-07-24T12:09:44.289Z</time>
      </trkpt>
      <trkpt lat="44.05821" lon="0.58788">
        <ele>146</ele>
        <time>2025-07-24T12:09:45.289Z</time>
      </trkpt>
      <trkpt lat="44.0582" lon="0.58787">
        <ele>146</ele>
        <time>2025-07-24T12:09:46.289Z</time>
      </trkpt>
      <trkpt lat="44.05819" lon="0.58787">
        <ele>146</ele>
        <time>2025-07-24T12:09:47.289Z</time>
      </trkpt>
      <trkpt lat="44.05818" lon="0.58787">
        <ele>146</ele>
        <time>2025-07-24T12:09:48.289Z</time>
      </trkpt>
      <trkpt lat="44.05817" lon="0.58786">
        <ele>146</ele>
        <time>2025-07-24T12:09:49.289Z</time>
      </trkpt>
      <trkpt lat="44.05816" lon="0.58786">
        <ele>146</ele>
        <time>2025-07-24T12:09:50.289Z</time>
      </trkpt>
      <trkpt lat="44.05815" lon="0.58787">
        <ele>147</ele>
        <time>2025-07-24T12:09:51.289Z</time>
      </trkpt>
      <trkpt lat="44.05814" lon="0.58787">
        <ele>147</ele>
        <time>2025-07-24T12:09:52.289Z</time>
      </trkpt>
      <trkpt lat="44.05813" lon="0.58787">
        <ele>147</ele>
        <time>2025-07-24T12:09:53.289Z</time>
      </trkpt>
      <trkpt lat="44.05812" lon="0.58786">
        <ele>147</ele>
        <time>2025-07-24T12:09:54.289Z</time>
      </trkpt>
      <trkpt lat="44.05812" lon="0.58785">
        <ele>147</ele>
        <time>2025-07-24T12:09:55.289Z</time>
      </trkpt>
      <trkpt lat="44.05811" lon="0.58783">
        <ele>147</ele>
        <time>2025-07-24T12:09:56.289Z</time>
      </trkpt>
      <trkpt lat="44.0581" lon="0.58783">
        <ele>148</ele>
        <time>2025-07-24T12:09:57.289Z</time>
      </trkpt>
      <trkpt lat="44.05809" lon="0.58782">
        <ele>148</ele>
        <time>2025-07-24T12:09:58.289Z</time>
      </trkpt>
      <trkpt lat="44.05809" lon="0.58781">
        <ele>147</ele>
        <time>2025-07-24T12:09:59.289Z</time>
      </trkpt>
      <trkpt lat="44.05808" lon="0.58781">
        <ele>147</ele>
        <time>2025-07-24T12:10:00.289Z</time>
      </trkpt>
      <trkpt lat="44.05807" lon="0.5878">
        <ele>147</ele>
        <time>2025-07-24T12:10:01.289Z</time>
      </trkpt>
      <trkpt lat="44.05806" lon="0.58779">
        <ele>146</ele>
        <time>2025-07-24T12:10:02.289Z</time>
      </trkpt>
      <trkpt lat="44.05806" lon="0.58779">
        <ele>146</ele>
        <time>2025-07-24T12:10:03.289Z</time>
      </trkpt>
      <trkpt lat="44.05806" lon="0.58778">
        <ele>146</ele>
        <time>2025-07-24T12:10:04.289Z</time>
      </trkpt>
      <trkpt lat="44.05806" lon="0.58778">
        <ele>145</ele>
        <time>2025-07-24T12:10:05.289Z</time>
      </trkpt>
      <trkpt lat="44.05806" lon="0.58777">
        <ele>145</ele>
        <time>2025-07-24T12:10:06.289Z</time>
      </trkpt>
      <trkpt lat="44.05806" lon="0.58777">
        <ele>144</ele>
        <time>2025-07-24T12:10:07.289Z</time>
      </trkpt>
      <trkpt lat="44.05805" lon="0.58776">
        <ele>144</ele>
        <time>2025-07-24T12:10:08.289Z</time>
      </trkpt>
      <trkpt lat="44.05804" lon="0.58776">
        <ele>143</ele>
        <time>2025-07-24T12:10:09.289Z</time>
      </trkpt>
      <trkpt lat="44.05803" lon="0.58775">
        <ele>143</ele>
        <time>2025-07-24T12:10:10.289Z</time>
      </trkpt>
      <trkpt lat="44.05802" lon="0.58775">
        <ele>142</ele>
        <time>2025-07-24T12:10:11.289Z</time>
      </trkpt>
      <trkpt lat="44.05801" lon="0.58774">
        <ele>142</ele>
        <time>2025-07-24T12:10:12.289Z</time>
      </trkpt>
      <trkpt lat="44.058" lon="0.58773">
        <ele>141</ele>
        <time>2025-07-24T12:10:13.289Z</time>
      </trkpt>
      <trkpt lat="44.05799" lon="0.58772">
        <ele>141</ele>
        <time>2025-07-24T12:10:14.289Z</time>
      </trkpt>
      <trkpt lat="44.05798" lon="0.58771">
        <ele>141</ele>
        <time>2025-07-24T12:10:15.289Z</time>
      </trkpt>
      <trkpt lat="44.05798" lon="0.58769">
        <ele>141</ele>
        <time>2025-07-24T12:10:16.289Z</time>
      </trkpt>
      <trkpt lat="44.05798" lon="0.58767">
        <ele>141</ele>
        <time>2025-07-24T12:10:17.289Z</time>
      </trkpt>
      <trkpt lat="44.05798" lon="0.58766">
        <ele>141</ele>
        <time>2025-07-24T12:10:18.289Z</time>
      </trkpt>
      <trkpt lat="44.05798" lon="0.58765">
        <ele>141</ele>
        <time>2025-07-24T12:10:19.289Z</time>
      </trkpt>
      <trkpt lat="44.05798" lon="0.58763">
        <ele>141</ele>
        <time>2025-07-24T12:10:20.289Z</time>
      </trkpt>
      <trkpt lat="44.05798" lon="0.58762">
        <ele>141</ele>
        <time>2025-07-24T12:10:21.289Z</time>
      </trkpt>
      <trkpt lat="44.05799" lon="0.5876">
        <ele>141</ele>
        <time>2025-07-24T12:10:22.289Z</time>
      </trkpt>
      <trkpt lat="44.05799" lon="0.58759">
        <ele>141</ele>
        <time>2025-07-24T12:10:23.289Z</time>
      </trkpt>
      <trkpt lat="44.05799" lon="0.58757">
        <ele>140</ele>
        <time>2025-07-24T12:10:24.289Z</time>
      </trkpt>
      <trkpt lat="44.05799" lon="0.58755">
        <ele>141</ele>
        <time>2025-07-24T12:10:25.289Z</time>
      </trkpt>
      <trkpt lat="44.05799" lon="0.58754">
        <ele>141</ele>
        <time>2025-07-24T12:10:26.289Z</time>
      </trkpt>
      <trkpt lat="44.05799" lon="0.58752">
        <ele>141</ele>
        <time>2025-07-24T12:10:27.289Z</time>
      </trkpt>
      <trkpt lat="44.05799" lon="0.58751">
        <ele>142</ele>
        <time>2025-07-24T12:10:28.289Z</time>
      </trkpt>
      <trkpt lat="44.058" lon="0.58749">
        <ele>142</ele>
        <time>2025-07-24T12:10:29.289Z</time>
      </trkpt>
      <trkpt lat="44.05801" lon="0.58748">
        <ele>142</ele>
        <time>2025-07-24T12:10:30.289Z</time>
      </trkpt>
      <trkpt lat="44.05801" lon="0.58746">
        <ele>142</ele>
        <time>2025-07-24T12:10:31.289Z</time>
      </trkpt>
      <trkpt lat="44.05802" lon="0.58745">
        <ele>142</ele>
        <time>2025-07-24T12:10:32.289Z</time>
      </trkpt>
      <trkpt lat="44.05803" lon="0.58743">
        <ele>142</ele>
        <time>2025-07-24T12:10:33.289Z</time>
      </trkpt>
      <trkpt lat="44.05803" lon="0.58742">
        <ele>142</ele>
        <time>2025-07-24T12:10:34.289Z</time>
      </trkpt>
      <trkpt lat="44.05804" lon="0.5874">
        <ele>141</ele>
        <time>2025-07-24T12:10:35.289Z</time>
      </trkpt>
      <trkpt lat="44.05805" lon="0.58739">
        <ele>141</ele>
        <time>2025-07-24T12:10:36.289Z</time>
      </trkpt>
      <trkpt lat="44.05806" lon="0.58738">
        <ele>141</ele>
        <time>2025-07-24T12:10:37.289Z</time>
      </trkpt>
      <trkpt lat="44.05807" lon="0.58736">
        <ele>141</ele>
        <time>2025-07-24T12:10:38.289Z</time>
      </trkpt>
      <trkpt lat="44.05807" lon="0.58735">
        <ele>141</ele>
        <time>2025-07-24T12:10:39.289Z</time>
      </trkpt>
      <trkpt lat="44.05808" lon="0.58734">
        <ele>141</ele>
        <time>2025-07-24T12:10:40.289Z</time>
      </trkpt>
      <trkpt lat="44.05808" lon="0.58732">
        <ele>141</ele>
        <time>2025-07-24T12:10:41.290Z</time>
      </trkpt>
      <trkpt lat="44.05809" lon="0.58731">
        <ele>141</ele>
        <time>2025-07-24T12:10:42.289Z</time>
      </trkpt>
      <trkpt lat="44.0581" lon="0.5873">
        <ele>141</ele>
        <time>2025-07-24T12:10:43.289Z</time>
      </trkpt>
      <trkpt lat="44.0581" lon="0.58728">
        <ele>142</ele>
        <time>2025-07-24T12:10:44.289Z</time>
      </trkpt>
      <trkpt lat="44.05811" lon="0.58727">
        <ele>142</ele>
        <time>2025-07-24T12:10:45.289Z</time>
      </trkpt>
      <trkpt lat="44.05811" lon="0.58725">
        <ele>142</ele>
        <time>2025-07-24T12:10:46.289Z</time>
      </trkpt>
      <trkpt lat="44.05812" lon="0.58724">
        <ele>142</ele>
        <time>2025-07-24T12:10:47.289Z</time>
      </trkpt>
      <trkpt lat="44.05813" lon="0.58722">
        <ele>142</ele>
        <time>2025-07-24T12:10:48.289Z</time>
      </trkpt>
      <trkpt lat="44.05813" lon="0.58721">
        <ele>142</ele>
        <time>2025-07-24T12:10:49.289Z</time>
      </trkpt>
      <trkpt lat="44.05814" lon="0.5872">
        <ele>142</ele>
        <time>2025-07-24T12:10:50.289Z</time>
      </trkpt>
      <trkpt lat="44.05815" lon="0.58718">
        <ele>142</ele>
        <time>2025-07-24T12:10:51.289Z</time>
      </trkpt>
      <trkpt lat="44.05815" lon="0.58717">
        <ele>142</ele>
        <time>2025-07-24T12:10:52.289Z</time>
      </trkpt>
      <trkpt lat="44.05816" lon="0.58715">
        <ele>142</ele>
        <time>2025-07-24T12:10:53.289Z</time>
      </trkpt>
      <trkpt lat="44.05816" lon="0.58714">
        <ele>142</ele>
        <time>2025-07-24T12:10:54.289Z</time>
      </trkpt>
      <trkpt lat="44.05817" lon="0.58713">
        <ele>142</ele>
        <time>2025-07-24T12:10:55.289Z</time>
      </trkpt>
      <trkpt lat="44.05817" lon="0.58712">
        <ele>142</ele>
        <time>2025-07-24T12:10:56.289Z</time>
      </trkpt>
      <trkpt lat="44.05818" lon="0.58711">
        <ele>142</ele>
        <time>2025-07-24T12:10:57.289Z</time>
      </trkpt>
      <trkpt lat="44.05818" lon="0.58709">
        <ele>143</ele>
        <time>2025-07-24T12:10:58.289Z</time>
      </trkpt>
      <trkpt lat="44.05819" lon="0.58708">
        <ele>143</ele>
        <time>2025-07-24T12:10:59.289Z</time>
      </trkpt>
      <trkpt lat="44.05819" lon="0.58706">
        <ele>143</ele>
        <time>2025-07-24T12:11:00.289Z</time>
      </trkpt>
      <trkpt lat="44.0582" lon="0.58705">
        <ele>143</ele>
        <time>2025-07-24T12:11:01.289Z</time>
      </trkpt>
      <trkpt lat="44.0582" lon="0.58703">
        <ele>143</ele>
        <time>2025-07-24T12:11:02.289Z</time>
      </trkpt>
      <trkpt lat="44.05821" lon="0.58702">
        <ele>143</ele>
        <time>2025-07-24T12:11:03.289Z</time>
      </trkpt>
      <trkpt lat="44.05822" lon="0.587">
        <ele>143</ele>
        <time>2025-07-24T12:11:04.289Z</time>
      </trkpt>
      <trkpt lat="44.05822" lon="0.58699">
        <ele>143</ele>
        <time>2025-07-24T12:11:05.289Z</time>
      </trkpt>
      <trkpt lat="44.05823" lon="0.58697">
        <ele>144</ele>
        <time>2025-07-24T12:11:06.289Z</time>
      </trkpt>
      <trkpt lat="44.05823" lon="0.58696">
        <ele>144</ele>
        <time>2025-07-24T12:11:07.289Z</time>
      </trkpt>
      <trkpt lat="44.05824" lon="0.58695">
        <ele>145</ele>
        <time>2025-07-24T12:11:08.289Z</time>
      </trkpt>
      <trkpt lat="44.05824" lon="0.58694">
        <ele>145</ele>
        <time>2025-07-24T12:11:09.289Z</time>
      </trkpt>
      <trkpt lat="44.05825" lon="0.58692">
        <ele>145</ele>
        <time>2025-07-24T12:11:10.289Z</time>
      </trkpt>
      <trkpt lat="44.05825" lon="0.58691">
        <ele>145</ele>
        <time>2025-07-24T12:11:11.289Z</time>
      </trkpt>
      <trkpt lat="44.05826" lon="0.5869">
        <ele>145</ele>
        <time>2025-07-24T12:11:12.289Z</time>
      </trkpt>
      <trkpt lat="44.05827" lon="0.58688">
        <ele>145</ele>
        <time>2025-07-24T12:11:13.289Z</time>
      </trkpt>
      <trkpt lat="44.05827" lon="0.58686">
        <ele>145</ele>
        <time>2025-07-24T12:11:14.289Z</time>
      </trkpt>
      <trkpt lat="44.05828" lon="0.58685">
        <ele>146</ele>
        <time>2025-07-24T12:11:15.289Z</time>
      </trkpt>
      <trkpt lat="44.05828" lon="0.58683">
        <ele>146</ele>
        <time>2025-07-24T12:11:16.289Z</time>
      </trkpt>
      <trkpt lat="44.05829" lon="0.58682">
        <ele>146</ele>
        <time>2025-07-24T12:11:17.289Z</time>
      </trkpt>
      <trkpt lat="44.0583" lon="0.58681">
        <ele>146</ele>
        <time>2025-07-24T12:11:18.289Z</time>
      </trkpt>
      <trkpt lat="44.0583" lon="0.5868">
        <ele>146</ele>
        <time>2025-07-24T12:11:19.289Z</time>
      </trkpt>
      <trkpt lat="44.05831" lon="0.58678">
        <ele>146</ele>
        <time>2025-07-24T12:11:20.289Z</time>
      </trkpt>
      <trkpt lat="44.05832" lon="0.58677">
        <ele>145</ele>
        <time>2025-07-24T12:11:21.289Z</time>
      </trkpt>
      <trkpt lat="44.05833" lon="0.58676">
        <ele>145</ele>
        <time>2025-07-24T12:11:22.289Z</time>
      </trkpt>
      <trkpt lat="44.05834" lon="0.58674">
        <ele>145</ele>
        <time>2025-07-24T12:11:23.289Z</time>
      </trkpt>
      <trkpt lat="44.05835" lon="0.58673">
        <ele>145</ele>
        <time>2025-07-24T12:11:24.289Z</time>
      </trkpt>
      <trkpt lat="44.05836" lon="0.58672">
        <ele>146</ele>
        <time>2025-07-24T12:11:25.289Z</time>
      </trkpt>
      <trkpt lat="44.05837" lon="0.58671">
        <ele>146</ele>
        <time>2025-07-24T12:11:26.289Z</time>
      </trkpt>
      <trkpt lat="44.05838" lon="0.5867">
        <ele>146</ele>
        <time>2025-07-24T12:11:27.290Z</time>
      </trkpt>
      <trkpt lat="44.0584" lon="0.58669">
        <ele>146</ele>
        <time>2025-07-24T12:11:28.289Z</time>
      </trkpt>
      <trkpt lat="44.05841" lon="0.58668">
        <ele>146</ele>
        <time>2025-07-24T12:11:29.289Z</time>
      </trkpt>
      <trkpt lat="44.05842" lon="0.58668">
        <ele>146</ele>
        <time>2025-07-24T12:11:30.289Z</time>
      </trkpt>
      <trkpt lat="44.05843" lon="0.58667">
        <ele>146</ele>
        <time>2025-07-24T12:11:31.289Z</time>
      </trkpt>
      <trkpt lat="44.05844" lon="0.58667">
        <ele>146</ele>
        <time>2025-07-24T12:11:32.289Z</time>
      </trkpt>
      <trkpt lat="44.05846" lon="0.58667">
        <ele>146</ele>
        <time>2025-07-24T12:11:33.289Z</time>
      </trkpt>
      <trkpt lat="44.05847" lon="0.58666">
        <ele>146</ele>
        <time>2025-07-24T12:11:34.289Z</time>
      </trkpt>
      <trkpt lat="44.05848" lon="0.58666">
        <ele>146</ele>
        <time>2025-07-24T12:11:35.289Z</time>
      </trkpt>
      <trkpt lat="44.05849" lon="0.58666">
        <ele>146</ele>
        <time>2025-07-24T12:11:36.289Z</time>
      </trkpt>
      <trkpt lat="44.0585" lon="0.58667">
        <ele>146</ele>
        <time>2025-07-24T12:11:37.289Z</time>
      </trkpt>
      <trkpt lat="44.05852" lon="0.58668">
        <ele>146</ele>
        <time>2025-07-24T12:11:38.289Z</time>
      </trkpt>
      <trkpt lat="44.05853" lon="0.58668">
        <ele>146</ele>
        <time>2025-07-24T12:11:39.289Z</time>
      </trkpt>
      <trkpt lat="44.05854" lon="0.58669">
        <ele>146</ele>
        <time>2025-07-24T12:11:40.289Z</time>
      </trkpt>
      <trkpt lat="44.05855" lon="0.5867">
        <ele>146</ele>
        <time>2025-07-24T12:11:41.289Z</time>
      </trkpt>
      <trkpt lat="44.05856" lon="0.58671">
        <ele>146</ele>
        <time>2025-07-24T12:11:42.289Z</time>
      </trkpt>
      <trkpt lat="44.05857" lon="0.58671">
        <ele>146</ele>
        <time>2025-07-24T12:11:43.289Z</time>
      </trkpt>
      <trkpt lat="44.05858" lon="0.58672">
        <ele>146</ele>
        <time>2025-07-24T12:11:44.289Z</time>
      </trkpt>
      <trkpt lat="44.05859" lon="0.58673">
        <ele>146</ele>
        <time>2025-07-24T12:11:45.289Z</time>
      </trkpt>
      <trkpt lat="44.0586" lon="0.58674">
        <ele>146</ele>
        <time>2025-07-24T12:11:46.289Z</time>
      </trkpt>
      <trkpt lat="44.05861" lon="0.58675">
        <ele>146</ele>
        <time>2025-07-24T12:11:47.289Z</time>
      </trkpt>
      <trkpt lat="44.05862" lon="0.58676">
        <ele>145</ele>
        <time>2025-07-24T12:11:48.289Z</time>
      </trkpt>
      <trkpt lat="44.05863" lon="0.58676">
        <ele>145</ele>
        <time>2025-07-24T12:11:49.289Z</time>
      </trkpt>
      <trkpt lat="44.05864" lon="0.58677">
        <ele>145</ele>
        <time>2025-07-24T12:11:50.289Z</time>
      </trkpt>
      <trkpt lat="44.05865" lon="0.58678">
        <ele>145</ele>
        <time>2025-07-24T12:11:51.289Z</time>
      </trkpt>
      <trkpt lat="44.05866" lon="0.58679">
        <ele>145</ele>
        <time>2025-07-24T12:11:52.289Z</time>
      </trkpt>
      <trkpt lat="44.05867" lon="0.58679">
        <ele>145</ele>
        <time>2025-07-24T12:11:53.289Z</time>
      </trkpt>
      <trkpt lat="44.05868" lon="0.5868">
        <ele>145</ele>
        <time>2025-07-24T12:11:54.289Z</time>
      </trkpt>
      <trkpt lat="44.05869" lon="0.58681">
        <ele>144</ele>
        <time>2025-07-24T12:11:55.289Z</time>
      </trkpt>
      <trkpt lat="44.0587" lon="0.58682">
        <ele>144</ele>
        <time>2025-07-24T12:11:56.289Z</time>
      </trkpt>
      <trkpt lat="44.05871" lon="0.58683">
        <ele>144</ele>
        <time>2025-07-24T12:11:57.289Z</time>
      </trkpt>
      <trkpt lat="44.05872" lon="0.58684">
        <ele>144</ele>
        <time>2025-07-24T12:11:58.289Z</time>
      </trkpt>
      <trkpt lat="44.05873" lon="0.58685">
        <ele>145</ele>
        <time>2025-07-24T12:11:59.289Z</time>
      </trkpt>
      <trkpt lat="44.05874" lon="0.58685">
        <ele>145</ele>
        <time>2025-07-24T12:12:00.289Z</time>
      </trkpt>
      <trkpt lat="44.05875" lon="0.58686">
        <ele>145</ele>
        <time>2025-07-24T12:12:01.289Z</time>
      </trkpt>
      <trkpt lat="44.05876" lon="0.58687">
        <ele>145</ele>
        <time>2025-07-24T12:12:02.289Z</time>
      </trkpt>
      <trkpt lat="44.05877" lon="0.58688">
        <ele>146</ele>
        <time>2025-07-24T12:12:03.289Z</time>
      </trkpt>
      <trkpt lat="44.05878" lon="0.58688">
        <ele>146</ele>
        <time>2025-07-24T12:12:04.289Z</time>
      </trkpt>
      <trkpt lat="44.05878" lon="0.5869">
        <ele>146</ele>
        <time>2025-07-24T12:12:05.289Z</time>
      </trkpt>
      <trkpt lat="44.05879" lon="0.58691">
        <ele>146</ele>
        <time>2025-07-24T12:12:06.289Z</time>
      </trkpt>
      <trkpt lat="44.0588" lon="0.58692">
        <ele>146</ele>
        <time>2025-07-24T12:12:07.289Z</time>
      </trkpt>
      <trkpt lat="44.05881" lon="0.58693">
        <ele>146</ele>
        <time>2025-07-24T12:12:08.289Z</time>
      </trkpt>
      <trkpt lat="44.05881" lon="0.58694">
        <ele>146</ele>
        <time>2025-07-24T12:12:09.289Z</time>
      </trkpt>
      <trkpt lat="44.05882" lon="0.58695">
        <ele>146</ele>
        <time>2025-07-24T12:12:10.289Z</time>
      </trkpt>
      <trkpt lat="44.05883" lon="0.58696">
        <ele>147</ele>
        <time>2025-07-24T12:12:11.289Z</time>
      </trkpt>
      <trkpt lat="44.05884" lon="0.58697">
        <ele>147</ele>
        <time>2025-07-24T12:12:12.289Z</time>
      </trkpt>
      <trkpt lat="44.05885" lon="0.58698">
        <ele>147</ele>
        <time>2025-07-24T12:12:13.289Z</time>
      </trkpt>
      <trkpt lat="44.05886" lon="0.58699">
        <ele>147</ele>
        <time>2025-07-24T12:12:14.289Z</time>
      </trkpt>
      <trkpt lat="44.05886" lon="0.587">
        <ele>147</ele>
        <time>2025-07-24T12:12:15.289Z</time>
      </trkpt>
      <trkpt lat="44.05887" lon="0.58702">
        <ele>147</ele>
        <time>2025-07-24T12:12:16.289Z</time>
      </trkpt>
      <trkpt lat="44.05888" lon="0.58703">
        <ele>147</ele>
        <time>2025-07-24T12:12:17.289Z</time>
      </trkpt>
      <trkpt lat="44.05889" lon="0.58704">
        <ele>147</ele>
        <time>2025-07-24T12:12:18.289Z</time>
      </trkpt>
      <trkpt lat="44.05889" lon="0.58705">
        <ele>148</ele>
        <time>2025-07-24T12:12:19.289Z</time>
      </trkpt>
      <trkpt lat="44.0589" lon="0.58706">
        <ele>148</ele>
        <time>2025-07-24T12:12:20.289Z</time>
      </trkpt>
      <trkpt lat="44.05891" lon="0.58707">
        <ele>148</ele>
        <time>2025-07-24T12:12:21.289Z</time>
      </trkpt>
      <trkpt lat="44.05891" lon="0.58709">
        <ele>148</ele>
        <time>2025-07-24T12:12:22.289Z</time>
      </trkpt>
      <trkpt lat="44.05892" lon="0.5871">
        <ele>148</ele>
        <time>2025-07-24T12:12:23.289Z</time>
      </trkpt>
      <trkpt lat="44.05893" lon="0.58712">
        <ele>148</ele>
        <time>2025-07-24T12:12:24.289Z</time>
      </trkpt>
      <trkpt lat="44.05894" lon="0.58713">
        <ele>148</ele>
        <time>2025-07-24T12:12:25.289Z</time>
      </trkpt>
      <trkpt lat="44.05894" lon="0.58714">
        <ele>148</ele>
        <time>2025-07-24T12:12:26.289Z</time>
      </trkpt>
      <trkpt lat="44.05895" lon="0.58716">
        <ele>147</ele>
        <time>2025-07-24T12:12:27.289Z</time>
      </trkpt>
      <trkpt lat="44.05895" lon="0.58717">
        <ele>147</ele>
        <time>2025-07-24T12:12:28.289Z</time>
      </trkpt>
      <trkpt lat="44.05896" lon="0.58718">
        <ele>147</ele>
        <time>2025-07-24T12:12:29.289Z</time>
      </trkpt>
      <trkpt lat="44.05896" lon="0.58719">
        <ele>147</ele>
        <time>2025-07-24T12:12:30.289Z</time>
      </trkpt>
      <trkpt lat="44.05897" lon="0.5872">
        <ele>147</ele>
        <time>2025-07-24T12:12:31.289Z</time>
      </trkpt>
      <trkpt lat="44.05897" lon="0.58721">
        <ele>147</ele>
        <time>2025-07-24T12:12:32.289Z</time>
      </trkpt>
      <trkpt lat="44.05898" lon="0.58723">
        <ele>147</ele>
        <time>2025-07-24T12:12:33.289Z</time>
      </trkpt>
      <trkpt lat="44.05898" lon="0.58724">
        <ele>147</ele>
        <time>2025-07-24T12:12:34.289Z</time>
      </trkpt>
      <trkpt lat="44.05899" lon="0.58725">
        <ele>147</ele>
        <time>2025-07-24T12:12:35.289Z</time>
      </trkpt>
      <trkpt lat="44.05899" lon="0.58725">
        <ele>147</ele>
        <time>2025-07-24T12:12:36.289Z</time>
      </trkpt>
      <trkpt lat="44.059" lon="0.58726">
        <ele>146</ele>
        <time>2025-07-24T12:12:37.289Z</time>
      </trkpt>
      <trkpt lat="44.05901" lon="0.58727">
        <ele>146</ele>
        <time>2025-07-24T12:12:38.289Z</time>
      </trkpt>
      <trkpt lat="44.05902" lon="0.58728">
        <ele>146</ele>
        <time>2025-07-24T12:12:39.289Z</time>
      </trkpt>
      <trkpt lat="44.05903" lon="0.58729">
        <ele>145</ele>
        <time>2025-07-24T12:12:40.289Z</time>
      </trkpt>
      <trkpt lat="44.05903" lon="0.5873">
        <ele>145</ele>
        <time>2025-07-24T12:12:41.289Z</time>
      </trkpt>
      <trkpt lat="44.05905" lon="0.58732">
        <ele>145</ele>
        <time>2025-07-24T12:12:42.289Z</time>
      </trkpt>
      <trkpt lat="44.05906" lon="0.58733">
        <ele>146</ele>
        <time>2025-07-24T12:12:43.289Z</time>
      </trkpt>
      <trkpt lat="44.05906" lon="0.58734">
        <ele>146</ele>
        <time>2025-07-24T12:12:44.289Z</time>
      </trkpt>
      <trkpt lat="44.05907" lon="0.58735">
        <ele>146</ele>
        <time>2025-07-24T12:12:45.289Z</time>
      </trkpt>
      <trkpt lat="44.05908" lon="0.58736">
        <ele>145</ele>
        <time>2025-07-24T12:12:46.289Z</time>
      </trkpt>
      <trkpt lat="44.05909" lon="0.58737">
        <ele>146</ele>
        <time>2025-07-24T12:12:47.289Z</time>
      </trkpt>
      <trkpt lat="44.0591" lon="0.58738">
        <ele>145</ele>
        <time>2025-07-24T12:12:48.289Z</time>
      </trkpt>
      <trkpt lat="44.05911" lon="0.58739">
        <ele>145</ele>
        <time>2025-07-24T12:12:49.289Z</time>
      </trkpt>
      <trkpt lat="44.05911" lon="0.5874">
        <ele>146</ele>
        <time>2025-07-24T12:12:50.289Z</time>
      </trkpt>
      <trkpt lat="44.05913" lon="0.58742">
        <ele>146</ele>
        <time>2025-07-24T12:12:51.289Z</time>
      </trkpt>
      <trkpt lat="44.05913" lon="0.58742">
        <ele>146</ele>
        <time>2025-07-24T12:12:52.289Z</time>
      </trkpt>
      <trkpt lat="44.05914" lon="0.58743">
        <ele>146</ele>
        <time>2025-07-24T12:12:53.289Z</time>
      </trkpt>
      <trkpt lat="44.05915" lon="0.58743">
        <ele>146</ele>
        <time>2025-07-24T12:12:54.289Z</time>
      </trkpt>
      <trkpt lat="44.05917" lon="0.58743">
        <ele>146</ele>
        <time>2025-07-24T12:12:55.289Z</time>
      </trkpt>
      <trkpt lat="44.05918" lon="0.58743">
        <ele>146</ele>
        <time>2025-07-24T12:12:56.289Z</time>
      </trkpt>
      <trkpt lat="44.05919" lon="0.58743">
        <ele>146</ele>
        <time>2025-07-24T12:12:57.289Z</time>
      </trkpt>
      <trkpt lat="44.0592" lon="0.58744">
        <ele>146</ele>
        <time>2025-07-24T12:12:58.289Z</time>
      </trkpt>
      <trkpt lat="44.05921" lon="0.58745">
        <ele>146</ele>
        <time>2025-07-24T12:12:59.289Z</time>
      </trkpt>
      <trkpt lat="44.05922" lon="0.58745">
        <ele>146</ele>
        <time>2025-07-24T12:13:00.289Z</time>
      </trkpt>
      <trkpt lat="44.05923" lon="0.58746">
        <ele>146</ele>
        <time>2025-07-24T12:13:01.289Z</time>
      </trkpt>
      <trkpt lat="44.05924" lon="0.58747">
        <ele>146</ele>
        <time>2025-07-24T12:13:02.289Z</time>
      </trkpt>
      <trkpt lat="44.05924" lon="0.58748">
        <ele>146</ele>
        <time>2025-07-24T12:13:03.289Z</time>
      </trkpt>
      <trkpt lat="44.05925" lon="0.58749">
        <ele>146</ele>
        <time>2025-07-24T12:13:04.289Z</time>
      </trkpt>
      <trkpt lat="44.05925" lon="0.5875">
        <ele>145</ele>
        <time>2025-07-24T12:13:05.289Z</time>
      </trkpt>
      <trkpt lat="44.05926" lon="0.58751">
        <ele>145</ele>
        <time>2025-07-24T12:13:06.289Z</time>
      </trkpt>
      <trkpt lat="44.05927" lon="0.58752">
        <ele>145</ele>
        <time>2025-07-24T12:13:07.289Z</time>
      </trkpt>
      <trkpt lat="44.05927" lon="0.58752">
        <ele>145</ele>
        <time>2025-07-24T12:13:08.289Z</time>
      </trkpt>
      <trkpt lat="44.05928" lon="0.58753">
        <ele>145</ele>
        <time>2025-07-24T12:13:09.289Z</time>
      </trkpt>
      <trkpt lat="44.05928" lon="0.58754">
        <ele>144</ele>
        <time>2025-07-24T12:13:10.289Z</time>
      </trkpt>
      <trkpt lat="44.05929" lon="0.58755">
        <ele>144</ele>
        <time>2025-07-24T12:13:11.289Z</time>
      </trkpt>
      <trkpt lat="44.05929" lon="0.58757">
        <ele>143</ele>
        <time>2025-07-24T12:13:12.289Z</time>
      </trkpt>
      <trkpt lat="44.0593" lon="0.58758">
        <ele>143</ele>
        <time>2025-07-24T12:13:13.289Z</time>
      </trkpt>
      <trkpt lat="44.05931" lon="0.58759">
        <ele>143</ele>
        <time>2025-07-24T12:13:14.289Z</time>
      </trkpt>
      <trkpt lat="44.05932" lon="0.5876">
        <ele>143</ele>
        <time>2025-07-24T12:13:15.289Z</time>
      </trkpt>
      <trkpt lat="44.05932" lon="0.58761">
        <ele>143</ele>
        <time>2025-07-24T12:13:16.289Z</time>
      </trkpt>
      <trkpt lat="44.05933" lon="0.58762">
        <ele>143</ele>
        <time>2025-07-24T12:13:17.289Z</time>
      </trkpt>
      <trkpt lat="44.05935" lon="0.58763">
        <ele>144</ele>
        <time>2025-07-24T12:13:18.289Z</time>
      </trkpt>
      <trkpt lat="44.05936" lon="0.58764">
        <ele>144</ele>
        <time>2025-07-24T12:13:19.289Z</time>
      </trkpt>
      <trkpt lat="44.05937" lon="0.58765">
        <ele>144</ele>
        <time>2025-07-24T12:13:20.289Z</time>
      </trkpt>
      <trkpt lat="44.05938" lon="0.58767">
        <ele>145</ele>
        <time>2025-07-24T12:13:21.289Z</time>
      </trkpt>
      <trkpt lat="44.05939" lon="0.58768">
        <ele>145</ele>
        <time>2025-07-24T12:13:22.289Z</time>
      </trkpt>
      <trkpt lat="44.0594" lon="0.58769">
        <ele>145</ele>
        <time>2025-07-24T12:13:23.289Z</time>
      </trkpt>
      <trkpt lat="44.05941" lon="0.58771">
        <ele>145</ele>
        <time>2025-07-24T12:13:24.289Z</time>
      </trkpt>
      <trkpt lat="44.05941" lon="0.58772">
        <ele>145</ele>
        <time>2025-07-24T12:13:25.289Z</time>
      </trkpt>
      <trkpt lat="44.05942" lon="0.58773">
        <ele>145</ele>
        <time>2025-07-24T12:13:26.289Z</time>
      </trkpt>
      <trkpt lat="44.05943" lon="0.58774">
        <ele>145</ele>
        <time>2025-07-24T12:13:27.289Z</time>
      </trkpt>
      <trkpt lat="44.05944" lon="0.58775">
        <ele>144</ele>
        <time>2025-07-24T12:13:28.289Z</time>
      </trkpt>
      <trkpt lat="44.05944" lon="0.58776">
        <ele>144</ele>
        <time>2025-07-24T12:13:29.289Z</time>
      </trkpt>
      <trkpt lat="44.05945" lon="0.58777">
        <ele>144</ele>
        <time>2025-07-24T12:13:30.289Z</time>
      </trkpt>
      <trkpt lat="44.05946" lon="0.58778">
        <ele>144</ele>
        <time>2025-07-24T12:13:31.289Z</time>
      </trkpt>
      <trkpt lat="44.05947" lon="0.5878">
        <ele>144</ele>
        <time>2025-07-24T12:13:32.289Z</time>
      </trkpt>
      <trkpt lat="44.05947" lon="0.58781">
        <ele>144</ele>
        <time>2025-07-24T12:13:33.289Z</time>
      </trkpt>
      <trkpt lat="44.05948" lon="0.58782">
        <ele>144</ele>
        <time>2025-07-24T12:13:34.289Z</time>
      </trkpt>
      <trkpt lat="44.05949" lon="0.58782">
        <ele>144</ele>
        <time>2025-07-24T12:13:35.289Z</time>
      </trkpt>
      <trkpt lat="44.0595" lon="0.58783">
        <ele>144</ele>
        <time>2025-07-24T12:13:36.289Z</time>
      </trkpt>
      <trkpt lat="44.05951" lon="0.58784">
        <ele>144</ele>
        <time>2025-07-24T12:13:37.289Z</time>
      </trkpt>
      <trkpt lat="44.05952" lon="0.58785">
        <ele>144</ele>
        <time>2025-07-24T12:13:38.289Z</time>
      </trkpt>
      <trkpt lat="44.05953" lon="0.58786">
        <ele>144</ele>
        <time>2025-07-24T12:13:39.289Z</time>
      </trkpt>
      <trkpt lat="44.05954" lon="0.58787">
        <ele>144</ele>
        <time>2025-07-24T12:13:40.289Z</time>
      </trkpt>
      <trkpt lat="44.05955" lon="0.58789">
        <ele>144</ele>
        <time>2025-07-24T12:13:41.289Z</time>
      </trkpt>
      <trkpt lat="44.05955" lon="0.5879">
        <ele>144</ele>
        <time>2025-07-24T12:13:42.289Z</time>
      </trkpt>
      <trkpt lat="44.05956" lon="0.58791">
        <ele>144</ele>
        <time>2025-07-24T12:13:43.289Z</time>
      </trkpt>
      <trkpt lat="44.05956" lon="0.58792">
        <ele>145</ele>
        <time>2025-07-24T12:13:44.289Z</time>
      </trkpt>
      <trkpt lat="44.05957" lon="0.58794">
        <ele>145</ele>
        <time>2025-07-24T12:13:45.289Z</time>
      </trkpt>
      <trkpt lat="44.05958" lon="0.58794">
        <ele>145</ele>
        <time>2025-07-24T12:13:46.289Z</time>
      </trkpt>
      <trkpt lat="44.05958" lon="0.58795">
        <ele>146</ele>
        <time>2025-07-24T12:13:47.289Z</time>
      </trkpt>
      <trkpt lat="44.05959" lon="0.58796">
        <ele>146</ele>
        <time>2025-07-24T12:13:48.289Z</time>
      </trkpt>
      <trkpt lat="44.05959" lon="0.58797">
        <ele>146</ele>
        <time>2025-07-24T12:13:49.289Z</time>
      </trkpt>
      <trkpt lat="44.0596" lon="0.58798">
        <ele>146</ele>
        <time>2025-07-24T12:13:50.289Z</time>
      </trkpt>
      <trkpt lat="44.05961" lon="0.58799">
        <ele>146</ele>
        <time>2025-07-24T12:13:51.289Z</time>
      </trkpt>
      <trkpt lat="44.05962" lon="0.588">
        <ele>146</ele>
        <time>2025-07-24T12:13:52.289Z</time>
      </trkpt>
      <trkpt lat="44.05962" lon="0.58802">
        <ele>146</ele>
        <time>2025-07-24T12:13:53.289Z</time>
      </trkpt>
      <trkpt lat="44.05963" lon="0.58802">
        <ele>145</ele>
        <time>2025-07-24T12:13:54.289Z</time>
      </trkpt>
      <trkpt lat="44.05964" lon="0.58804">
        <ele>145</ele>
        <time>2025-07-24T12:13:55.289Z</time>
      </trkpt>
      <trkpt lat="44.05964" lon="0.58805">
        <ele>145</ele>
        <time>2025-07-24T12:13:56.289Z</time>
      </trkpt>
      <trkpt lat="44.05965" lon="0.58806">
        <ele>145</ele>
        <time>2025-07-24T12:13:57.289Z</time>
      </trkpt>
      <trkpt lat="44.05966" lon="0.58807">
        <ele>144</ele>
        <time>2025-07-24T12:13:58.289Z</time>
      </trkpt>
      <trkpt lat="44.05966" lon="0.58808">
        <ele>144</ele>
        <time>2025-07-24T12:13:59.289Z</time>
      </trkpt>
      <trkpt lat="44.05967" lon="0.58809">
        <ele>144</ele>
        <time>2025-07-24T12:14:00.289Z</time>
      </trkpt>
      <trkpt lat="44.05968" lon="0.5881">
        <ele>143</ele>
        <time>2025-07-24T12:14:01.289Z</time>
      </trkpt>
      <trkpt lat="44.05968" lon="0.58811">
        <ele>143</ele>
        <time>2025-07-24T12:14:02.289Z</time>
      </trkpt>
      <trkpt lat="44.05969" lon="0.58812">
        <ele>143</ele>
        <time>2025-07-24T12:14:03.289Z</time>
      </trkpt>
      <trkpt lat="44.0597" lon="0.58813">
        <ele>142</ele>
        <time>2025-07-24T12:14:04.289Z</time>
      </trkpt>
      <trkpt lat="44.05971" lon="0.58814">
        <ele>142</ele>
        <time>2025-07-24T12:14:05.289Z</time>
      </trkpt>
      <trkpt lat="44.05971" lon="0.58815">
        <ele>141</ele>
        <time>2025-07-24T12:14:06.289Z</time>
      </trkpt>
      <trkpt lat="44.05972" lon="0.58817">
        <ele>141</ele>
        <time>2025-07-24T12:14:07.289Z</time>
      </trkpt>
      <trkpt lat="44.05972" lon="0.58818">
        <ele>141</ele>
        <time>2025-07-24T12:14:08.289Z</time>
      </trkpt>
      <trkpt lat="44.05973" lon="0.58819">
        <ele>141</ele>
        <time>2025-07-24T12:14:09.289Z</time>
      </trkpt>
      <trkpt lat="44.05973" lon="0.5882">
        <ele>140</ele>
        <time>2025-07-24T12:14:10.289Z</time>
      </trkpt>
      <trkpt lat="44.05974" lon="0.58821">
        <ele>140</ele>
        <time>2025-07-24T12:14:11.289Z</time>
      </trkpt>
      <trkpt lat="44.05975" lon="0.58822">
        <ele>140</ele>
        <time>2025-07-24T12:14:12.289Z</time>
      </trkpt>
      <trkpt lat="44.05976" lon="0.58823">
        <ele>140</ele>
        <time>2025-07-24T12:14:13.289Z</time>
      </trkpt>
      <trkpt lat="44.05976" lon="0.58824">
        <ele>140</ele>
        <time>2025-07-24T12:14:14.289Z</time>
      </trkpt>
      <trkpt lat="44.05977" lon="0.58825">
        <ele>140</ele>
        <time>2025-07-24T12:14:15.289Z</time>
      </trkpt>
      <trkpt lat="44.05977" lon="0.58826">
        <ele>140</ele>
        <time>2025-07-24T12:14:16.289Z</time>
      </trkpt>
      <trkpt lat="44.05978" lon="0.58827">
        <ele>140</ele>
        <time>2025-07-24T12:14:17.289Z</time>
      </trkpt>
      <trkpt lat="44.05978" lon="0.58828">
        <ele>140</ele>
        <time>2025-07-24T12:14:18.289Z</time>
      </trkpt>
      <trkpt lat="44.05979" lon="0.58829">
        <ele>140</ele>
        <time>2025-07-24T12:14:19.289Z</time>
      </trkpt>
      <trkpt lat="44.0598" lon="0.5883">
        <ele>140</ele>
        <time>2025-07-24T12:14:20.289Z</time>
      </trkpt>
      <trkpt lat="44.05981" lon="0.58831">
        <ele>140</ele>
        <time>2025-07-24T12:14:21.289Z</time>
      </trkpt>
      <trkpt lat="44.05981" lon="0.58833">
        <ele>140</ele>
        <time>2025-07-24T12:14:22.289Z</time>
      </trkpt>
      <trkpt lat="44.05982" lon="0.58834">
        <ele>140</ele>
        <time>2025-07-24T12:14:23.289Z</time>
      </trkpt>
      <trkpt lat="44.05983" lon="0.58835">
        <ele>139</ele>
        <time>2025-07-24T12:14:24.289Z</time>
      </trkpt>
      <trkpt lat="44.05983" lon="0.58836">
        <ele>139</ele>
        <time>2025-07-24T12:14:25.289Z</time>
      </trkpt>
      <trkpt lat="44.05984" lon="0.58837">
        <ele>138</ele>
        <time>2025-07-24T12:14:26.289Z</time>
      </trkpt>
      <trkpt lat="44.05984" lon="0.58838">
        <ele>138</ele>
        <time>2025-07-24T12:14:27.289Z</time>
      </trkpt>
      <trkpt lat="44.05985" lon="0.5884">
        <ele>137</ele>
        <time>2025-07-24T12:14:28.289Z</time>
      </trkpt>
      <trkpt lat="44.05986" lon="0.58841">
        <ele>137</ele>
        <time>2025-07-24T12:14:29.289Z</time>
      </trkpt>
      <trkpt lat="44.05987" lon="0.58842">
        <ele>137</ele>
        <time>2025-07-24T12:14:30.289Z</time>
      </trkpt>
      <trkpt lat="44.05988" lon="0.58843">
        <ele>137</ele>
        <time>2025-07-24T12:14:31.289Z</time>
      </trkpt>
      <trkpt lat="44.05989" lon="0.58844">
        <ele>136</ele>
        <time>2025-07-24T12:14:32.289Z</time>
      </trkpt>
      <trkpt lat="44.05989" lon="0.58846">
        <ele>136</ele>
        <time>2025-07-24T12:14:33.289Z</time>
      </trkpt>
      <trkpt lat="44.0599" lon="0.58847">
        <ele>136</ele>
        <time>2025-07-24T12:14:34.289Z</time>
      </trkpt>
      <trkpt lat="44.05991" lon="0.58849">
        <ele>136</ele>
        <time>2025-07-24T12:14:35.289Z</time>
      </trkpt>
      <trkpt lat="44.05992" lon="0.5885">
        <ele>136</ele>
        <time>2025-07-24T12:14:36.289Z</time>
      </trkpt>
      <trkpt lat="44.05993" lon="0.58852">
        <ele>136</ele>
        <time>2025-07-24T12:14:37.289Z</time>
      </trkpt>
      <trkpt lat="44.05994" lon="0.58853">
        <ele>137</ele>
        <time>2025-07-24T12:14:38.289Z</time>
      </trkpt>
      <trkpt lat="44.05994" lon="0.58855">
        <ele>137</ele>
        <time>2025-07-24T12:14:39.289Z</time>
      </trkpt>
      <trkpt lat="44.05995" lon="0.58856">
        <ele>137</ele>
        <time>2025-07-24T12:14:40.289Z</time>
      </trkpt>
      <trkpt lat="44.05996" lon="0.58857">
        <ele>138</ele>
        <time>2025-07-24T12:14:41.289Z</time>
      </trkpt>
      <trkpt lat="44.05996" lon="0.58858">
        <ele>138</ele>
        <time>2025-07-24T12:14:42.289Z</time>
      </trkpt>
      <trkpt lat="44.05997" lon="0.58859">
        <ele>138</ele>
        <time>2025-07-24T12:14:43.289Z</time>
      </trkpt>
      <trkpt lat="44.05998" lon="0.5886">
        <ele>138</ele>
        <time>2025-07-24T12:14:44.289Z</time>
      </trkpt>
      <trkpt lat="44.05999" lon="0.5886">
        <ele>138</ele>
        <time>2025-07-24T12:14:45.289Z</time>
      </trkpt>
      <trkpt lat="44.06" lon="0.58861">
        <ele>137</ele>
        <time>2025-07-24T12:14:46.289Z</time>
      </trkpt>
      <trkpt lat="44.06001" lon="0.58862">
        <ele>137</ele>
        <time>2025-07-24T12:14:47.289Z</time>
      </trkpt>
      <trkpt lat="44.06002" lon="0.58863">
        <ele>137</ele>
        <time>2025-07-24T12:14:48.289Z</time>
      </trkpt>
      <trkpt lat="44.06003" lon="0.58864">
        <ele>137</ele>
        <time>2025-07-24T12:14:49.289Z</time>
      </trkpt>
      <trkpt lat="44.06005" lon="0.58865">
        <ele>137</ele>
        <time>2025-07-24T12:14:50.289Z</time>
      </trkpt>
      <trkpt lat="44.06006" lon="0.58866">
        <ele>137</ele>
        <time>2025-07-24T12:14:51.289Z</time>
      </trkpt>
      <trkpt lat="44.06007" lon="0.58866">
        <ele>137</ele>
        <time>2025-07-24T12:14:52.289Z</time>
      </trkpt>
      <trkpt lat="44.06008" lon="0.58867">
        <ele>137</ele>
        <time>2025-07-24T12:14:53.289Z</time>
      </trkpt>
      <trkpt lat="44.06009" lon="0.58867">
        <ele>136</ele>
        <time>2025-07-24T12:14:54.289Z</time>
      </trkpt>
      <trkpt lat="44.0601" lon="0.58868">
        <ele>136</ele>
        <time>2025-07-24T12:14:55.289Z</time>
      </trkpt>
      <trkpt lat="44.06011" lon="0.58868">
        <ele>135</ele>
        <time>2025-07-24T12:14:56.289Z</time>
      </trkpt>
      <trkpt lat="44.06012" lon="0.58868">
        <ele>135</ele>
        <time>2025-07-24T12:14:57.289Z</time>
      </trkpt>
      <trkpt lat="44.06013" lon="0.58868">
        <ele>135</ele>
        <time>2025-07-24T12:14:58.289Z</time>
      </trkpt>
      <trkpt lat="44.06014" lon="0.58868">
        <ele>134</ele>
        <time>2025-07-24T12:14:59.289Z</time>
      </trkpt>
      <trkpt lat="44.06015" lon="0.58868">
        <ele>134</ele>
        <time>2025-07-24T12:15:00.289Z</time>
      </trkpt>
      <trkpt lat="44.06016" lon="0.58868">
        <ele>135</ele>
        <time>2025-07-24T12:15:01.289Z</time>
      </trkpt>
      <trkpt lat="44.06017" lon="0.58868">
        <ele>135</ele>
        <time>2025-07-24T12:15:02.289Z</time>
      </trkpt>
      <trkpt lat="44.06018" lon="0.58868">
        <ele>135</ele>
        <time>2025-07-24T12:15:03.289Z</time>
      </trkpt>
      <trkpt lat="44.06019" lon="0.58867">
        <ele>134</ele>
        <time>2025-07-24T12:15:04.289Z</time>
      </trkpt>
      <trkpt lat="44.0602" lon="0.58868">
        <ele>134</ele>
        <time>2025-07-24T12:15:05.289Z</time>
      </trkpt>
      <trkpt lat="44.06021" lon="0.58868">
        <ele>134</ele>
        <time>2025-07-24T12:15:06.289Z</time>
      </trkpt>
      <trkpt lat="44.06022" lon="0.58867">
        <ele>133</ele>
        <time>2025-07-24T12:15:07.289Z</time>
      </trkpt>
      <trkpt lat="44.06024" lon="0.58867">
        <ele>133</ele>
        <time>2025-07-24T12:15:08.289Z</time>
      </trkpt>
      <trkpt lat="44.06025" lon="0.58868">
        <ele>132</ele>
        <time>2025-07-24T12:15:09.289Z</time>
      </trkpt>
      <trkpt lat="44.06026" lon="0.58868">
        <ele>132</ele>
        <time>2025-07-24T12:15:10.289Z</time>
      </trkpt>
      <trkpt lat="44.06027" lon="0.58868">
        <ele>132</ele>
        <time>2025-07-24T12:15:11.290Z</time>
      </trkpt>
      <trkpt lat="44.06028" lon="0.58868">
        <ele>131</ele>
        <time>2025-07-24T12:15:12.289Z</time>
      </trkpt>
      <trkpt lat="44.06029" lon="0.58869">
        <ele>131</ele>
        <time>2025-07-24T12:15:13.289Z</time>
      </trkpt>
      <trkpt lat="44.0603" lon="0.58869">
        <ele>131</ele>
        <time>2025-07-24T12:15:14.289Z</time>
      </trkpt>
      <trkpt lat="44.06031" lon="0.5887">
        <ele>130</ele>
        <time>2025-07-24T12:15:15.289Z</time>
      </trkpt>
      <trkpt lat="44.06033" lon="0.5887">
        <ele>130</ele>
        <time>2025-07-24T12:15:16.289Z</time>
      </trkpt>
      <trkpt lat="44.06034" lon="0.5887">
        <ele>129</ele>
        <time>2025-07-24T12:15:17.289Z</time>
      </trkpt>
      <trkpt lat="44.06035" lon="0.5887">
        <ele>129</ele>
        <time>2025-07-24T12:15:18.289Z</time>
      </trkpt>
      <trkpt lat="44.06036" lon="0.5887">
        <ele>129</ele>
        <time>2025-07-24T12:15:19.289Z</time>
      </trkpt>
      <trkpt lat="44.06037" lon="0.58871">
        <ele>129</ele>
        <time>2025-07-24T12:15:20.289Z</time>
      </trkpt>
      <trkpt lat="44.06037" lon="0.58872">
        <ele>128</ele>
        <time>2025-07-24T12:15:21.289Z</time>
      </trkpt>
      <trkpt lat="44.06038" lon="0.58873">
        <ele>128</ele>
        <time>2025-07-24T12:15:22.289Z</time>
      </trkpt>
      <trkpt lat="44.06039" lon="0.58873">
        <ele>128</ele>
        <time>2025-07-24T12:15:23.289Z</time>
      </trkpt>
      <trkpt lat="44.0604" lon="0.58873">
        <ele>127</ele>
        <time>2025-07-24T12:15:24.289Z</time>
      </trkpt>
      <trkpt lat="44.06041" lon="0.58873">
        <ele>127</ele>
        <time>2025-07-24T12:15:25.289Z</time>
      </trkpt>
      <trkpt lat="44.06042" lon="0.58873">
        <ele>126</ele>
        <time>2025-07-24T12:15:26.289Z</time>
      </trkpt>
      <trkpt lat="44.06043" lon="0.58873">
        <ele>126</ele>
        <time>2025-07-24T12:15:27.289Z</time>
      </trkpt>
      <trkpt lat="44.06044" lon="0.58873">
        <ele>127</ele>
        <time>2025-07-24T12:15:28.289Z</time>
      </trkpt>
      <trkpt lat="44.06045" lon="0.58874">
        <ele>127</ele>
        <time>2025-07-24T12:15:29.289Z</time>
      </trkpt>
      <trkpt lat="44.06046" lon="0.58874">
        <ele>128</ele>
        <time>2025-07-24T12:15:30.289Z</time>
      </trkpt>
      <trkpt lat="44.06047" lon="0.58875">
        <ele>129</ele>
        <time>2025-07-24T12:15:31.289Z</time>
      </trkpt>
      <trkpt lat="44.06048" lon="0.58875">
        <ele>129</ele>
        <time>2025-07-24T12:15:32.289Z</time>
      </trkpt>
      <trkpt lat="44.06049" lon="0.58875">
        <ele>130</ele>
        <time>2025-07-24T12:15:33.289Z</time>
      </trkpt>
      <trkpt lat="44.0605" lon="0.58875">
        <ele>131</ele>
        <time>2025-07-24T12:15:34.289Z</time>
      </trkpt>
      <trkpt lat="44.06051" lon="0.58875">
        <ele>131</ele>
        <time>2025-07-24T12:15:35.289Z</time>
      </trkpt>
      <trkpt lat="44.06052" lon="0.58876">
        <ele>131</ele>
        <time>2025-07-24T12:15:36.289Z</time>
      </trkpt>
      <trkpt lat="44.06053" lon="0.58876">
        <ele>132</ele>
        <time>2025-07-24T12:15:37.289Z</time>
      </trkpt>
      <trkpt lat="44.06054" lon="0.58876">
        <ele>132</ele>
        <time>2025-07-24T12:15:38.289Z</time>
      </trkpt>
      <trkpt lat="44.06055" lon="0.58877">
        <ele>131</ele>
        <time>2025-07-24T12:15:39.289Z</time>
      </trkpt>
      <trkpt lat="44.06055" lon="0.58877">
        <ele>131</ele>
        <time>2025-07-24T12:15:40.289Z</time>
      </trkpt>
      <trkpt lat="44.06056" lon="0.58878">
        <ele>131</ele>
        <time>2025-07-24T12:15:41.289Z</time>
      </trkpt>
      <trkpt lat="44.06057" lon="0.58878">
        <ele>131</ele>
        <time>2025-07-24T12:15:42.289Z</time>
      </trkpt>
      <trkpt lat="44.06058" lon="0.58879">
        <ele>131</ele>
        <time>2025-07-24T12:15:43.289Z</time>
      </trkpt>
      <trkpt lat="44.06059" lon="0.58879">
        <ele>131</ele>
        <time>2025-07-24T12:15:44.289Z</time>
      </trkpt>
      <trkpt lat="44.06059" lon="0.58879">
        <ele>131</ele>
        <time>2025-07-24T12:15:45.289Z</time>
      </trkpt>
      <trkpt lat="44.0606" lon="0.58879">
        <ele>131</ele>
        <time>2025-07-24T12:15:46.289Z</time>
      </trkpt>
      <trkpt lat="44.06061" lon="0.5888">
        <ele>131</ele>
        <time>2025-07-24T12:15:47.289Z</time>
      </trkpt>
      <trkpt lat="44.06062" lon="0.5888">
        <ele>131</ele>
        <time>2025-07-24T12:15:48.289Z</time>
      </trkpt>
      <trkpt lat="44.06063" lon="0.5888">
        <ele>131</ele>
        <time>2025-07-24T12:15:49.289Z</time>
      </trkpt>
      <trkpt lat="44.06064" lon="0.5888">
        <ele>131</ele>
        <time>2025-07-24T12:15:50.289Z</time>
      </trkpt>
      <trkpt lat="44.06065" lon="0.5888">
        <ele>131</ele>
        <time>2025-07-24T12:15:51.289Z</time>
      </trkpt>
      <trkpt lat="44.06066" lon="0.5888">
        <ele>131</ele>
        <time>2025-07-24T12:15:52.290Z</time>
      </trkpt>
      <trkpt lat="44.06067" lon="0.58879">
        <ele>132</ele>
        <time>2025-07-24T12:15:53.289Z</time>
      </trkpt>
      <trkpt lat="44.06068" lon="0.58879">
        <ele>132</ele>
        <time>2025-07-24T12:15:54.289Z</time>
      </trkpt>
      <trkpt lat="44.06069" lon="0.58879">
        <ele>131</ele>
        <time>2025-07-24T12:15:55.289Z</time>
      </trkpt>
      <trkpt lat="44.0607" lon="0.58879">
        <ele>131</ele>
        <time>2025-07-24T12:15:56.289Z</time>
      </trkpt>
      <trkpt lat="44.06071" lon="0.58878">
        <ele>131</ele>
        <time>2025-07-24T12:15:57.289Z</time>
      </trkpt>
      <trkpt lat="44.06073" lon="0.58878">
        <ele>131</ele>
        <time>2025-07-24T12:15:58.289Z</time>
      </trkpt>
      <trkpt lat="44.06074" lon="0.58878">
        <ele>131</ele>
        <time>2025-07-24T12:15:59.289Z</time>
      </trkpt>
      <trkpt lat="44.06075" lon="0.58878">
        <ele>131</ele>
        <time>2025-07-24T12:16:00.289Z</time>
      </trkpt>
      <trkpt lat="44.06077" lon="0.58878">
        <ele>130</ele>
        <time>2025-07-24T12:16:01.289Z</time>
      </trkpt>
      <trkpt lat="44.06078" lon="0.58878">
        <ele>130</ele>
        <time>2025-07-24T12:16:02.289Z</time>
      </trkpt>
      <trkpt lat="44.06079" lon="0.58878">
        <ele>130</ele>
        <time>2025-07-24T12:16:03.289Z</time>
      </trkpt>
      <trkpt lat="44.0608" lon="0.58878">
        <ele>129</ele>
        <time>2025-07-24T12:16:04.289Z</time>
      </trkpt>
      <trkpt lat="44.06082" lon="0.58878">
        <ele>129</ele>
        <time>2025-07-24T12:16:05.289Z</time>
      </trkpt>
      <trkpt lat="44.06083" lon="0.58878">
        <ele>129</ele>
        <time>2025-07-24T12:16:06.289Z</time>
      </trkpt>
      <trkpt lat="44.06084" lon="0.58878">
        <ele>129</ele>
        <time>2025-07-24T12:16:07.289Z</time>
      </trkpt>
      <trkpt lat="44.06085" lon="0.58878">
        <ele>128</ele>
        <time>2025-07-24T12:16:08.289Z</time>
      </trkpt>
      <trkpt lat="44.06086" lon="0.58879">
        <ele>128</ele>
        <time>2025-07-24T12:16:09.289Z</time>
      </trkpt>
      <trkpt lat="44.06087" lon="0.58879">
        <ele>127</ele>
        <time>2025-07-24T12:16:10.289Z</time>
      </trkpt>
      <trkpt lat="44.06088" lon="0.58879">
        <ele>127</ele>
        <time>2025-07-24T12:16:11.289Z</time>
      </trkpt>
      <trkpt lat="44.06089" lon="0.58879">
        <ele>127</ele>
        <time>2025-07-24T12:16:12.289Z</time>
      </trkpt>
      <trkpt lat="44.0609" lon="0.58879">
        <ele>126</ele>
        <time>2025-07-24T12:16:13.289Z</time>
      </trkpt>
      <trkpt lat="44.06091" lon="0.5888">
        <ele>126</ele>
        <time>2025-07-24T12:16:14.289Z</time>
      </trkpt>
      <trkpt lat="44.06093" lon="0.5888">
        <ele>125</ele>
        <time>2025-07-24T12:16:15.289Z</time>
      </trkpt>
      <trkpt lat="44.06094" lon="0.5888">
        <ele>125</ele>
        <time>2025-07-24T12:16:16.289Z</time>
      </trkpt>
      <trkpt lat="44.06095" lon="0.5888">
        <ele>125</ele>
        <time>2025-07-24T12:16:17.289Z</time>
      </trkpt>
      <trkpt lat="44.06097" lon="0.5888">
        <ele>125</ele>
        <time>2025-07-24T12:16:18.289Z</time>
      </trkpt>
      <trkpt lat="44.06097" lon="0.5888">
        <ele>124</ele>
        <time>2025-07-24T12:16:19.289Z</time>
      </trkpt>
      <trkpt lat="44.06098" lon="0.5888">
        <ele>124</ele>
        <time>2025-07-24T12:16:20.289Z</time>
      </trkpt>
      <trkpt lat="44.06099" lon="0.5888">
        <ele>124</ele>
        <time>2025-07-24T12:16:21.289Z</time>
      </trkpt>
      <trkpt lat="44.061" lon="0.5888">
        <ele>124</ele>
        <time>2025-07-24T12:16:22.289Z</time>
      </trkpt>
      <trkpt lat="44.061" lon="0.5888">
        <ele>124</ele>
        <time>2025-07-24T12:16:23.289Z</time>
      </trkpt>
      <trkpt lat="44.061" lon="0.5888">
        <ele>125</ele>
        <time>2025-07-24T12:16:24.290Z</time>
      </trkpt>
      <trkpt lat="44.06101" lon="0.5888">
        <ele>125</ele>
        <time>2025-07-24T12:16:25.289Z</time>
      </trkpt>
      <trkpt lat="44.06101" lon="0.58881">
        <ele>125</ele>
        <time>2025-07-24T12:16:26.289Z</time>
      </trkpt>
      <trkpt lat="44.06102" lon="0.58881">
        <ele>125</ele>
        <time>2025-07-24T12:16:27.289Z</time>
      </trkpt>
      <trkpt lat="44.06103" lon="0.58882">
        <ele>125</ele>
        <time>2025-07-24T12:16:28.289Z</time>
      </trkpt>
      <trkpt lat="44.06104" lon="0.58882">
        <ele>125</ele>
        <time>2025-07-24T12:16:29.289Z</time>
      </trkpt>
      <trkpt lat="44.06106" lon="0.58882">
        <ele>126</ele>
        <time>2025-07-24T12:16:30.289Z</time>
      </trkpt>
      <trkpt lat="44.06107" lon="0.58882">
        <ele>126</ele>
        <time>2025-07-24T12:16:31.289Z</time>
      </trkpt>
      <trkpt lat="44.06108" lon="0.58882">
        <ele>127</ele>
        <time>2025-07-24T12:16:32.289Z</time>
      </trkpt>
      <trkpt lat="44.06109" lon="0.58882">
        <ele>126</ele>
        <time>2025-07-24T12:16:33.289Z</time>
      </trkpt>
      <trkpt lat="44.0611" lon="0.58881">
        <ele>126</ele>
        <time>2025-07-24T12:16:34.289Z</time>
      </trkpt>
      <trkpt lat="44.06112" lon="0.58882">
        <ele>126</ele>
        <time>2025-07-24T12:16:35.289Z</time>
      </trkpt>
      <trkpt lat="44.06113" lon="0.58882">
        <ele>126</ele>
        <time>2025-07-24T12:16:36.289Z</time>
      </trkpt>
      <trkpt lat="44.06114" lon="0.58882">
        <ele>126</ele>
        <time>2025-07-24T12:16:37.289Z</time>
      </trkpt>
      <trkpt lat="44.06116" lon="0.58882">
        <ele>126</ele>
        <time>2025-07-24T12:16:38.289Z</time>
      </trkpt>
      <trkpt lat="44.06117" lon="0.58882">
        <ele>127</ele>
        <time>2025-07-24T12:16:39.289Z</time>
      </trkpt>
      <trkpt lat="44.06118" lon="0.58883">
        <ele>127</ele>
        <time>2025-07-24T12:16:40.289Z</time>
      </trkpt>
      <trkpt lat="44.06119" lon="0.58883">
        <ele>127</ele>
        <time>2025-07-24T12:16:41.289Z</time>
      </trkpt>
      <trkpt lat="44.0612" lon="0.58883">
        <ele>127</ele>
        <time>2025-07-24T12:16:42.289Z</time>
      </trkpt>
      <trkpt lat="44.06121" lon="0.58883">
        <ele>126</ele>
        <time>2025-07-24T12:16:43.289Z</time>
      </trkpt>
      <trkpt lat="44.06122" lon="0.58883">
        <ele>126</ele>
        <time>2025-07-24T12:16:44.289Z</time>
      </trkpt>
      <trkpt lat="44.06123" lon="0.58883">
        <ele>125</ele>
        <time>2025-07-24T12:16:45.289Z</time>
      </trkpt>
      <trkpt lat="44.06124" lon="0.58884">
        <ele>124</ele>
        <time>2025-07-24T12:16:46.289Z</time>
      </trkpt>
      <trkpt lat="44.06126" lon="0.58884">
        <ele>124</ele>
        <time>2025-07-24T12:16:47.289Z</time>
      </trkpt>
      <trkpt lat="44.06127" lon="0.58884">
        <ele>123</ele>
        <time>2025-07-24T12:16:48.289Z</time>
      </trkpt>
      <trkpt lat="44.06128" lon="0.58884">
        <ele>123</ele>
        <time>2025-07-24T12:16:49.289Z</time>
      </trkpt>
      <trkpt lat="44.06129" lon="0.58885">
        <ele>122</ele>
        <time>2025-07-24T12:16:50.289Z</time>
      </trkpt>
      <trkpt lat="44.0613" lon="0.58885">
        <ele>122</ele>
        <time>2025-07-24T12:16:51.289Z</time>
      </trkpt>
      <trkpt lat="44.06131" lon="0.58885">
        <ele>122</ele>
        <time>2025-07-24T12:16:52.289Z</time>
      </trkpt>
      <trkpt lat="44.06132" lon="0.58886">
        <ele>122</ele>
        <time>2025-07-24T12:16:53.289Z</time>
      </trkpt>
      <trkpt lat="44.06133" lon="0.58886">
        <ele>122</ele>
        <time>2025-07-24T12:16:54.289Z</time>
      </trkpt>
      <trkpt lat="44.06134" lon="0.58886">
        <ele>122</ele>
        <time>2025-07-24T12:16:55.289Z</time>
      </trkpt>
      <trkpt lat="44.06135" lon="0.58886">
        <ele>122</ele>
        <time>2025-07-24T12:16:56.289Z</time>
      </trkpt>
      <trkpt lat="44.06137" lon="0.58886">
        <ele>121</ele>
        <time>2025-07-24T12:16:57.289Z</time>
      </trkpt>
      <trkpt lat="44.06138" lon="0.58886">
        <ele>121</ele>
        <time>2025-07-24T12:16:58.289Z</time>
      </trkpt>
      <trkpt lat="44.06139" lon="0.58887">
        <ele>121</ele>
        <time>2025-07-24T12:16:59.289Z</time>
      </trkpt>
      <trkpt lat="44.0614" lon="0.58887">
        <ele>121</ele>
        <time>2025-07-24T12:17:00.289Z</time>
      </trkpt>
      <trkpt lat="44.06141" lon="0.58887">
        <ele>120</ele>
        <time>2025-07-24T12:17:01.289Z</time>
      </trkpt>
      <trkpt lat="44.06142" lon="0.58888">
        <ele>120</ele>
        <time>2025-07-24T12:17:02.289Z</time>
      </trkpt>
      <trkpt lat="44.06143" lon="0.58888">
        <ele>120</ele>
        <time>2025-07-24T12:17:03.289Z</time>
      </trkpt>
      <trkpt lat="44.06144" lon="0.58889">
        <ele>120</ele>
        <time>2025-07-24T12:17:04.289Z</time>
      </trkpt>
      <trkpt lat="44.06146" lon="0.58889">
        <ele>119</ele>
        <time>2025-07-24T12:17:05.289Z</time>
      </trkpt>
      <trkpt lat="44.06147" lon="0.5889">
        <ele>119</ele>
        <time>2025-07-24T12:17:06.289Z</time>
      </trkpt>
      <trkpt lat="44.06148" lon="0.5889">
        <ele>118</ele>
        <time>2025-07-24T12:17:07.289Z</time>
      </trkpt>
      <trkpt lat="44.06149" lon="0.5889">
        <ele>118</ele>
        <time>2025-07-24T12:17:08.289Z</time>
      </trkpt>
      <trkpt lat="44.06151" lon="0.58891">
        <ele>118</ele>
        <time>2025-07-24T12:17:09.289Z</time>
      </trkpt>
      <trkpt lat="44.06152" lon="0.58891">
        <ele>118</ele>
        <time>2025-07-24T12:17:10.289Z</time>
      </trkpt>
      <trkpt lat="44.06153" lon="0.58892">
        <ele>118</ele>
        <time>2025-07-24T12:17:11.289Z</time>
      </trkpt>
      <trkpt lat="44.06154" lon="0.58892">
        <ele>118</ele>
        <time>2025-07-24T12:17:12.289Z</time>
      </trkpt>
      <trkpt lat="44.06155" lon="0.58892">
        <ele>117</ele>
        <time>2025-07-24T12:17:13.289Z</time>
      </trkpt>
      <trkpt lat="44.06157" lon="0.58893">
        <ele>117</ele>
        <time>2025-07-24T12:17:14.289Z</time>
      </trkpt>
      <trkpt lat="44.06158" lon="0.58893">
        <ele>117</ele>
        <time>2025-07-24T12:17:15.289Z</time>
      </trkpt>
      <trkpt lat="44.06159" lon="0.58893">
        <ele>117</ele>
        <time>2025-07-24T12:17:16.289Z</time>
      </trkpt>
      <trkpt lat="44.0616" lon="0.58893">
        <ele>117</ele>
        <time>2025-07-24T12:17:17.289Z</time>
      </trkpt>
      <trkpt lat="44.06161" lon="0.58893">
        <ele>117</ele>
        <time>2025-07-24T12:17:18.289Z</time>
      </trkpt>
      <trkpt lat="44.06162" lon="0.58893">
        <ele>117</ele>
        <time>2025-07-24T12:17:19.289Z</time>
      </trkpt>
      <trkpt lat="44.06164" lon="0.58894">
        <ele>117</ele>
        <time>2025-07-24T12:17:20.289Z</time>
      </trkpt>
      <trkpt lat="44.06165" lon="0.58894">
        <ele>117</ele>
        <time>2025-07-24T12:17:21.289Z</time>
      </trkpt>
      <trkpt lat="44.06166" lon="0.58895">
        <ele>117</ele>
        <time>2025-07-24T12:17:22.289Z</time>
      </trkpt>
      <trkpt lat="44.06168" lon="0.58895">
        <ele>117</ele>
        <time>2025-07-24T12:17:23.289Z</time>
      </trkpt>
      <trkpt lat="44.06169" lon="0.58895">
        <ele>116</ele>
        <time>2025-07-24T12:17:24.289Z</time>
      </trkpt>
      <trkpt lat="44.0617" lon="0.58895">
        <ele>117</ele>
        <time>2025-07-24T12:17:25.289Z</time>
      </trkpt>
      <trkpt lat="44.06172" lon="0.58895">
        <ele>117</ele>
        <time>2025-07-24T12:17:26.289Z</time>
      </trkpt>
      <trkpt lat="44.06173" lon="0.58895">
        <ele>116</ele>
        <time>2025-07-24T12:17:27.289Z</time>
      </trkpt>
      <trkpt lat="44.06174" lon="0.58894">
        <ele>116</ele>
        <time>2025-07-24T12:17:28.289Z</time>
      </trkpt>
      <trkpt lat="44.06175" lon="0.58894">
        <ele>116</ele>
        <time>2025-07-24T12:17:29.289Z</time>
      </trkpt>
      <trkpt lat="44.06176" lon="0.58894">
        <ele>115</ele>
        <time>2025-07-24T12:17:30.289Z</time>
      </trkpt>
      <trkpt lat="44.06177" lon="0.58894">
        <ele>115</ele>
        <time>2025-07-24T12:17:31.289Z</time>
      </trkpt>
      <trkpt lat="44.06178" lon="0.58894">
        <ele>114</ele>
        <time>2025-07-24T12:17:32.289Z</time>
      </trkpt>
      <trkpt lat="44.06179" lon="0.58893">
        <ele>114</ele>
        <time>2025-07-24T12:17:33.289Z</time>
      </trkpt>
      <trkpt lat="44.0618" lon="0.58893">
        <ele>113</ele>
        <time>2025-07-24T12:17:34.289Z</time>
      </trkpt>
      <trkpt lat="44.06181" lon="0.58892">
        <ele>113</ele>
        <time>2025-07-24T12:17:35.289Z</time>
      </trkpt>
      <trkpt lat="44.06183" lon="0.58892">
        <ele>112</ele>
        <time>2025-07-24T12:17:36.289Z</time>
      </trkpt>
      <trkpt lat="44.06184" lon="0.58892">
        <ele>112</ele>
        <time>2025-07-24T12:17:37.289Z</time>
      </trkpt>
      <trkpt lat="44.06185" lon="0.58891">
        <ele>112</ele>
        <time>2025-07-24T12:17:38.289Z</time>
      </trkpt>
      <trkpt lat="44.06186" lon="0.58891">
        <ele>112</ele>
        <time>2025-07-24T12:17:39.289Z</time>
      </trkpt>
      <trkpt lat="44.06187" lon="0.5889">
        <ele>111</ele>
        <time>2025-07-24T12:17:40.289Z</time>
      </trkpt>
      <trkpt lat="44.06188" lon="0.5889">
        <ele>111</ele>
        <time>2025-07-24T12:17:41.289Z</time>
      </trkpt>
      <trkpt lat="44.06189" lon="0.58889">
        <ele>110</ele>
        <time>2025-07-24T12:17:42.289Z</time>
      </trkpt>
      <trkpt lat="44.06191" lon="0.58889">
        <ele>110</ele>
        <time>2025-07-24T12:17:43.289Z</time>
      </trkpt>
      <trkpt lat="44.06192" lon="0.58888">
        <ele>110</ele>
        <time>2025-07-24T12:17:44.289Z</time>
      </trkpt>
      <trkpt lat="44.06193" lon="0.58887">
        <ele>110</ele>
        <time>2025-07-24T12:17:45.289Z</time>
      </trkpt>
      <trkpt lat="44.06194" lon="0.58887">
        <ele>110</ele>
        <time>2025-07-24T12:17:46.289Z</time>
      </trkpt>
      <trkpt lat="44.06195" lon="0.58886">
        <ele>110</ele>
        <time>2025-07-24T12:17:47.289Z</time>
      </trkpt>
      <trkpt lat="44.06196" lon="0.58886">
        <ele>110</ele>
        <time>2025-07-24T12:17:48.289Z</time>
      </trkpt>
      <trkpt lat="44.06197" lon="0.58885">
        <ele>109</ele>
        <time>2025-07-24T12:17:49.289Z</time>
      </trkpt>
      <trkpt lat="44.06199" lon="0.58885">
        <ele>109</ele>
        <time>2025-07-24T12:17:50.289Z</time>
      </trkpt>
      <trkpt lat="44.062" lon="0.58884">
        <ele>109</ele>
        <time>2025-07-24T12:17:51.289Z</time>
      </trkpt>
      <trkpt lat="44.06201" lon="0.58884">
        <ele>110</ele>
        <time>2025-07-24T12:17:52.289Z</time>
      </trkpt>
      <trkpt lat="44.06202" lon="0.58884">
        <ele>110</ele>
        <time>2025-07-24T12:17:53.289Z</time>
      </trkpt>
      <trkpt lat="44.06203" lon="0.58883">
        <ele>111</ele>
        <time>2025-07-24T12:17:54.289Z</time>
      </trkpt>
      <trkpt lat="44.06204" lon="0.58883">
        <ele>111</ele>
        <time>2025-07-24T12:17:55.289Z</time>
      </trkpt>
      <trkpt lat="44.06204" lon="0.58883">
        <ele>111</ele>
        <time>2025-07-24T12:17:56.289Z</time>
      </trkpt>
      <trkpt lat="44.06204" lon="0.58882">
        <ele>111</ele>
        <time>2025-07-24T12:17:57.289Z</time>
      </trkpt>
      <trkpt lat="44.06204" lon="0.58882">
        <ele>111</ele>
        <time>2025-07-24T12:17:58.289Z</time>
      </trkpt>
      <trkpt lat="44.06204" lon="0.58882">
        <ele>110</ele>
        <time>2025-07-24T12:17:59.289Z</time>
      </trkpt>
      <trkpt lat="44.06204" lon="0.58882">
        <ele>110</ele>
        <time>2025-07-24T12:18:00.289Z</time>
      </trkpt>
      <trkpt lat="44.06204" lon="0.58882">
        <ele>111</ele>
        <time>2025-07-24T12:18:01.289Z</time>
      </trkpt>
      <trkpt lat="44.06204" lon="0.58882">
        <ele>111</ele>
        <time>2025-07-24T12:18:02.289Z</time>
      </trkpt>
      <trkpt lat="44.06204" lon="0.58882">
        <ele>112</ele>
        <time>2025-07-24T12:18:03.289Z</time>
      </trkpt>
      <trkpt lat="44.06205" lon="0.58883">
        <ele>112</ele>
        <time>2025-07-24T12:18:04.289Z</time>
      </trkpt>
      <trkpt lat="44.06206" lon="0.58883">
        <ele>112</ele>
        <time>2025-07-24T12:18:05.289Z</time>
      </trkpt>
      <trkpt lat="44.06207" lon="0.58883">
        <ele>112</ele>
        <time>2025-07-24T12:18:06.289Z</time>
      </trkpt>
      <trkpt lat="44.06208" lon="0.58882">
        <ele>112</ele>
        <time>2025-07-24T12:18:07.289Z</time>
      </trkpt>
      <trkpt lat="44.06209" lon="0.58881">
        <ele>112</ele>
        <time>2025-07-24T12:18:08.289Z</time>
      </trkpt>
      <trkpt lat="44.0621" lon="0.58881">
        <ele>112</ele>
        <time>2025-07-24T12:18:09.289Z</time>
      </trkpt>
      <trkpt lat="44.06211" lon="0.5888">
        <ele>112</ele>
        <time>2025-07-24T12:18:10.289Z</time>
      </trkpt>
      <trkpt lat="44.06213" lon="0.58879">
        <ele>112</ele>
        <time>2025-07-24T12:18:11.289Z</time>
      </trkpt>
      <trkpt lat="44.06214" lon="0.58878">
        <ele>112</ele>
        <time>2025-07-24T12:18:12.289Z</time>
      </trkpt>
      <trkpt lat="44.06216" lon="0.58878">
        <ele>112</ele>
        <time>2025-07-24T12:18:13.289Z</time>
      </trkpt>
      <trkpt lat="44.06217" lon="0.58877">
        <ele>112</ele>
        <time>2025-07-24T12:18:14.289Z</time>
      </trkpt>
      <trkpt lat="44.06218" lon="0.58876">
        <ele>112</ele>
        <time>2025-07-24T12:18:15.289Z</time>
      </trkpt>
      <trkpt lat="44.0622" lon="0.58876">
        <ele>112</ele>
        <time>2025-07-24T12:18:16.289Z</time>
      </trkpt>
      <trkpt lat="44.06221" lon="0.58875">
        <ele>111</ele>
        <time>2025-07-24T12:18:17.289Z</time>
      </trkpt>
      <trkpt lat="44.06223" lon="0.58875">
        <ele>111</ele>
        <time>2025-07-24T12:18:18.289Z</time>
      </trkpt>
      <trkpt lat="44.06224" lon="0.58874">
        <ele>111</ele>
        <time>2025-07-24T12:18:19.289Z</time>
      </trkpt>
      <trkpt lat="44.06226" lon="0.58873">
        <ele>112</ele>
        <time>2025-07-24T12:18:20.289Z</time>
      </trkpt>
      <trkpt lat="44.06227" lon="0.58873">
        <ele>111</ele>
        <time>2025-07-24T12:18:21.289Z</time>
      </trkpt>
      <trkpt lat="44.06229" lon="0.58872">
        <ele>111</ele>
        <time>2025-07-24T12:18:22.289Z</time>
      </trkpt>
      <trkpt lat="44.0623" lon="0.58871">
        <ele>111</ele>
        <time>2025-07-24T12:18:23.289Z</time>
      </trkpt>
      <trkpt lat="44.06231" lon="0.58871">
        <ele>110</ele>
        <time>2025-07-24T12:18:24.289Z</time>
      </trkpt>
      <trkpt lat="44.06232" lon="0.5887">
        <ele>110</ele>
        <time>2025-07-24T12:18:25.289Z</time>
      </trkpt>
      <trkpt lat="44.06234" lon="0.58869">
        <ele>109</ele>
        <time>2025-07-24T12:18:26.289Z</time>
      </trkpt>
      <trkpt lat="44.06235" lon="0.58869">
        <ele>109</ele>
        <time>2025-07-24T12:18:27.289Z</time>
      </trkpt>
      <trkpt lat="44.06237" lon="0.58868">
        <ele>109</ele>
        <time>2025-07-24T12:18:28.289Z</time>
      </trkpt>
      <trkpt lat="44.06238" lon="0.58868">
        <ele>109</ele>
        <time>2025-07-24T12:18:29.289Z</time>
      </trkpt>
      <trkpt lat="44.06239" lon="0.58867">
        <ele>109</ele>
        <time>2025-07-24T12:18:30.289Z</time>
      </trkpt>
      <trkpt lat="44.06241" lon="0.58867">
        <ele>108</ele>
        <time>2025-07-24T12:18:31.289Z</time>
      </trkpt>
      <trkpt lat="44.06242" lon="0.58866">
        <ele>108</ele>
        <time>2025-07-24T12:18:32.289Z</time>
      </trkpt>
      <trkpt lat="44.06244" lon="0.58866">
        <ele>108</ele>
        <time>2025-07-24T12:18:33.289Z</time>
      </trkpt>
      <trkpt lat="44.06245" lon="0.58866">
        <ele>108</ele>
        <time>2025-07-24T12:18:34.289Z</time>
      </trkpt>
      <trkpt lat="44.06247" lon="0.58865">
        <ele>108</ele>
        <time>2025-07-24T12:18:35.289Z</time>
      </trkpt>
      <trkpt lat="44.06248" lon="0.58865">
        <ele>109</ele>
        <time>2025-07-24T12:18:36.289Z</time>
      </trkpt>
      <trkpt lat="44.06249" lon="0.58864">
        <ele>109</ele>
        <time>2025-07-24T12:18:37.289Z</time>
      </trkpt>
      <trkpt lat="44.06251" lon="0.58864">
        <ele>109</ele>
        <time>2025-07-24T12:18:38.289Z</time>
      </trkpt>
      <trkpt lat="44.06252" lon="0.58863">
        <ele>109</ele>
        <time>2025-07-24T12:18:39.289Z</time>
      </trkpt>
      <trkpt lat="44.06253" lon="0.58863">
        <ele>109</ele>
        <time>2025-07-24T12:18:40.289Z</time>
      </trkpt>
      <trkpt lat="44.06255" lon="0.58863">
        <ele>109</ele>
        <time>2025-07-24T12:18:41.289Z</time>
      </trkpt>
      <trkpt lat="44.06256" lon="0.58862">
        <ele>109</ele>
        <time>2025-07-24T12:18:42.289Z</time>
      </trkpt>
      <trkpt lat="44.06258" lon="0.58863">
        <ele>109</ele>
        <time>2025-07-24T12:18:43.289Z</time>
      </trkpt>
      <trkpt lat="44.06258" lon="0.58864">
        <ele>110</ele>
        <time>2025-07-24T12:18:44.289Z</time>
      </trkpt>
      <trkpt lat="44.06259" lon="0.58864">
        <ele>110</ele>
        <time>2025-07-24T12:18:45.289Z</time>
      </trkpt>
      <trkpt lat="44.06259" lon="0.58863">
        <ele>110</ele>
        <time>2025-07-24T12:18:46.289Z</time>
      </trkpt>
      <trkpt lat="44.0626" lon="0.58863">
        <ele>111</ele>
        <time>2025-07-24T12:18:47.289Z</time>
      </trkpt>
      <trkpt lat="44.06261" lon="0.58863">
        <ele>111</ele>
        <time>2025-07-24T12:18:48.289Z</time>
      </trkpt>
      <trkpt lat="44.06262" lon="0.58862">
        <ele>111</ele>
        <time>2025-07-24T12:18:49.289Z</time>
      </trkpt>
      <trkpt lat="44.06264" lon="0.58862">
        <ele>111</ele>
        <time>2025-07-24T12:18:50.289Z</time>
      </trkpt>
      <trkpt lat="44.06265" lon="0.58861">
        <ele>111</ele>
        <time>2025-07-24T12:18:51.289Z</time>
      </trkpt>
      <trkpt lat="44.06266" lon="0.58861">
        <ele>111</ele>
        <time>2025-07-24T12:18:52.289Z</time>
      </trkpt>
      <trkpt lat="44.06268" lon="0.58861">
        <ele>111</ele>
        <time>2025-07-24T12:18:53.289Z</time>
      </trkpt>
      <trkpt lat="44.06269" lon="0.58861">
        <ele>111</ele>
        <time>2025-07-24T12:18:54.289Z</time>
      </trkpt>
      <trkpt lat="44.0627" lon="0.58862">
        <ele>111</ele>
        <time>2025-07-24T12:18:55.289Z</time>
      </trkpt>
      <trkpt lat="44.06272" lon="0.58861">
        <ele>111</ele>
        <time>2025-07-24T12:18:56.289Z</time>
      </trkpt>
      <trkpt lat="44.06273" lon="0.58861">
        <ele>111</ele>
        <time>2025-07-24T12:18:57.289Z</time>
      </trkpt>
      <trkpt lat="44.06275" lon="0.58861">
        <ele>111</ele>
        <time>2025-07-24T12:18:58.289Z</time>
      </trkpt>
      <trkpt lat="44.06276" lon="0.58861">
        <ele>110</ele>
        <time>2025-07-24T12:18:59.289Z</time>
      </trkpt>
      <trkpt lat="44.06278" lon="0.58861">
        <ele>110</ele>
        <time>2025-07-24T12:19:00.289Z</time>
      </trkpt>
      <trkpt lat="44.06279" lon="0.58861">
        <ele>109</ele>
        <time>2025-07-24T12:19:01.289Z</time>
      </trkpt>
      <trkpt lat="44.06281" lon="0.58861">
        <ele>109</ele>
        <time>2025-07-24T12:19:02.289Z</time>
      </trkpt>
      <trkpt lat="44.06282" lon="0.58862">
        <ele>109</ele>
        <time>2025-07-24T12:19:03.289Z</time>
      </trkpt>
      <trkpt lat="44.06284" lon="0.58862">
        <ele>109</ele>
        <time>2025-07-24T12:19:04.289Z</time>
      </trkpt>
      <trkpt lat="44.06285" lon="0.58862">
        <ele>109</ele>
        <time>2025-07-24T12:19:05.289Z</time>
      </trkpt>
      <trkpt lat="44.06287" lon="0.58862">
        <ele>109</ele>
        <time>2025-07-24T12:19:06.289Z</time>
      </trkpt>
      <trkpt lat="44.06288" lon="0.58862">
        <ele>108</ele>
        <time>2025-07-24T12:19:07.289Z</time>
      </trkpt>
      <trkpt lat="44.06289" lon="0.58862">
        <ele>108</ele>
        <time>2025-07-24T12:19:08.289Z</time>
      </trkpt>
      <trkpt lat="44.06291" lon="0.58863">
        <ele>108</ele>
        <time>2025-07-24T12:19:09.289Z</time>
      </trkpt>
      <trkpt lat="44.06292" lon="0.58863">
        <ele>108</ele>
        <time>2025-07-24T12:19:10.289Z</time>
      </trkpt>
      <trkpt lat="44.06294" lon="0.58863">
        <ele>108</ele>
        <time>2025-07-24T12:19:11.289Z</time>
      </trkpt>
      <trkpt lat="44.06295" lon="0.58863">
        <ele>108</ele>
        <time>2025-07-24T12:19:12.289Z</time>
      </trkpt>
      <trkpt lat="44.06297" lon="0.58863">
        <ele>108</ele>
        <time>2025-07-24T12:19:13.289Z</time>
      </trkpt>
      <trkpt lat="44.06298" lon="0.58863">
        <ele>108</ele>
        <time>2025-07-24T12:19:14.289Z</time>
      </trkpt>
      <trkpt lat="44.063" lon="0.58863">
        <ele>108</ele>
        <time>2025-07-24T12:19:15.289Z</time>
      </trkpt>
      <trkpt lat="44.06302" lon="0.58863">
        <ele>108</ele>
        <time>2025-07-24T12:19:16.289Z</time>
      </trkpt>
      <trkpt lat="44.06303" lon="0.58863">
        <ele>108</ele>
        <time>2025-07-24T12:19:17.289Z</time>
      </trkpt>
      <trkpt lat="44.06304" lon="0.58863">
        <ele>109</ele>
        <time>2025-07-24T12:19:18.289Z</time>
      </trkpt>
      <trkpt lat="44.06306" lon="0.58864">
        <ele>109</ele>
        <time>2025-07-24T12:19:19.289Z</time>
      </trkpt>
      <trkpt lat="44.06307" lon="0.58864">
        <ele>110</ele>
        <time>2025-07-24T12:19:20.289Z</time>
      </trkpt>
      <trkpt lat="44.06308" lon="0.58864">
        <ele>109</ele>
        <time>2025-07-24T12:19:21.289Z</time>
      </trkpt>
      <trkpt lat="44.06309" lon="0.58864">
        <ele>109</ele>
        <time>2025-07-24T12:19:22.289Z</time>
      </trkpt>
      <trkpt lat="44.0631" lon="0.58864">
        <ele>109</ele>
        <time>2025-07-24T12:19:23.289Z</time>
      </trkpt>
      <trkpt lat="44.06312" lon="0.58864">
        <ele>109</ele>
        <time>2025-07-24T12:19:24.289Z</time>
      </trkpt>
      <trkpt lat="44.06313" lon="0.58864">
        <ele>109</ele>
        <time>2025-07-24T12:19:25.289Z</time>
      </trkpt>
      <trkpt lat="44.06314" lon="0.58864">
        <ele>109</ele>
        <time>2025-07-24T12:19:26.289Z</time>
      </trkpt>
      <trkpt lat="44.06315" lon="0.58864">
        <ele>108</ele>
        <time>2025-07-24T12:19:27.289Z</time>
      </trkpt>
      <trkpt lat="44.06317" lon="0.58864">
        <ele>108</ele>
        <time>2025-07-24T12:19:28.289Z</time>
      </trkpt>
      <trkpt lat="44.06318" lon="0.58864">
        <ele>108</ele>
        <time>2025-07-24T12:19:29.289Z</time>
      </trkpt>
      <trkpt lat="44.06319" lon="0.58864">
        <ele>108</ele>
        <time>2025-07-24T12:19:30.289Z</time>
      </trkpt>
      <trkpt lat="44.06321" lon="0.58864">
        <ele>108</ele>
        <time>2025-07-24T12:19:31.289Z</time>
      </trkpt>
      <trkpt lat="44.06322" lon="0.58864">
        <ele>107</ele>
        <time>2025-07-24T12:19:32.289Z</time>
      </trkpt>
      <trkpt lat="44.06324" lon="0.58864">
        <ele>107</ele>
        <time>2025-07-24T12:19:33.289Z</time>
      </trkpt>
      <trkpt lat="44.06325" lon="0.58864">
        <ele>106</ele>
        <time>2025-07-24T12:19:34.289Z</time>
      </trkpt>
      <trkpt lat="44.06326" lon="0.58864">
        <ele>105</ele>
        <time>2025-07-24T12:19:35.289Z</time>
      </trkpt>
      <trkpt lat="44.06327" lon="0.58864">
        <ele>105</ele>
        <time>2025-07-24T12:19:36.289Z</time>
      </trkpt>
      <trkpt lat="44.06329" lon="0.58864">
        <ele>104</ele>
        <time>2025-07-24T12:19:37.289Z</time>
      </trkpt>
      <trkpt lat="44.0633" lon="0.58864">
        <ele>104</ele>
        <time>2025-07-24T12:19:38.289Z</time>
      </trkpt>
      <trkpt lat="44.06331" lon="0.58864">
        <ele>104</ele>
        <time>2025-07-24T12:19:39.289Z</time>
      </trkpt>
      <trkpt lat="44.06332" lon="0.58864">
        <ele>104</ele>
        <time>2025-07-24T12:19:40.289Z</time>
      </trkpt>
      <trkpt lat="44.06334" lon="0.58863">
        <ele>104</ele>
        <time>2025-07-24T12:19:41.289Z</time>
      </trkpt>
      <trkpt lat="44.06334" lon="0.58863">
        <ele>103</ele>
        <time>2025-07-24T12:19:42.289Z</time>
      </trkpt>
      <trkpt lat="44.06336" lon="0.58863">
        <ele>103</ele>
        <time>2025-07-24T12:19:43.289Z</time>
      </trkpt>
      <trkpt lat="44.06337" lon="0.58863">
        <ele>103</ele>
        <time>2025-07-24T12:19:44.289Z</time>
      </trkpt>
      <trkpt lat="44.06339" lon="0.58863">
        <ele>102</ele>
        <time>2025-07-24T12:19:45.289Z</time>
      </trkpt>
      <trkpt lat="44.0634" lon="0.58862">
        <ele>102</ele>
        <time>2025-07-24T12:19:46.289Z</time>
      </trkpt>
      <trkpt lat="44.06341" lon="0.58862">
        <ele>102</ele>
        <time>2025-07-24T12:19:47.289Z</time>
      </trkpt>
      <trkpt lat="44.06343" lon="0.58862">
        <ele>102</ele>
        <time>2025-07-24T12:19:48.289Z</time>
      </trkpt>
      <trkpt lat="44.06344" lon="0.58862">
        <ele>102</ele>
        <time>2025-07-24T12:19:49.289Z</time>
      </trkpt>
      <trkpt lat="44.06346" lon="0.58861">
        <ele>102</ele>
        <time>2025-07-24T12:19:50.289Z</time>
      </trkpt>
      <trkpt lat="44.06347" lon="0.58861">
        <ele>102</ele>
        <time>2025-07-24T12:19:51.289Z</time>
      </trkpt>
      <trkpt lat="44.06348" lon="0.5886">
        <ele>102</ele>
        <time>2025-07-24T12:19:52.289Z</time>
      </trkpt>
      <trkpt lat="44.06349" lon="0.5886">
        <ele>102</ele>
        <time>2025-07-24T12:19:53.289Z</time>
      </trkpt>
      <trkpt lat="44.06351" lon="0.58859">
        <ele>103</ele>
        <time>2025-07-24T12:19:54.289Z</time>
      </trkpt>
      <trkpt lat="44.06352" lon="0.58859">
        <ele>103</ele>
        <time>2025-07-24T12:19:55.289Z</time>
      </trkpt>
      <trkpt lat="44.06353" lon="0.58859">
        <ele>103</ele>
        <time>2025-07-24T12:19:56.289Z</time>
      </trkpt>
      <trkpt lat="44.06354" lon="0.58859">
        <ele>104</ele>
        <time>2025-07-24T12:19:57.289Z</time>
      </trkpt>
      <trkpt lat="44.06356" lon="0.58858">
        <ele>104</ele>
        <time>2025-07-24T12:19:58.289Z</time>
      </trkpt>
      <trkpt lat="44.06357" lon="0.58858">
        <ele>104</ele>
        <time>2025-07-24T12:19:59.289Z</time>
      </trkpt>
      <trkpt lat="44.06358" lon="0.58858">
        <ele>103</ele>
        <time>2025-07-24T12:20:00.289Z</time>
      </trkpt>
      <trkpt lat="44.06359" lon="0.58858">
        <ele>103</ele>
        <time>2025-07-24T12:20:01.290Z</time>
      </trkpt>
      <trkpt lat="44.06361" lon="0.58858">
        <ele>103</ele>
        <time>2025-07-24T12:20:02.289Z</time>
      </trkpt>
      <trkpt lat="44.06362" lon="0.58858">
        <ele>104</ele>
        <time>2025-07-24T12:20:03.289Z</time>
      </trkpt>
      <trkpt lat="44.06363" lon="0.58857">
        <ele>104</ele>
        <time>2025-07-24T12:20:04.289Z</time>
      </trkpt>
      <trkpt lat="44.06365" lon="0.58857">
        <ele>104</ele>
        <time>2025-07-24T12:20:05.289Z</time>
      </trkpt>
      <trkpt lat="44.06366" lon="0.58856">
        <ele>104</ele>
        <time>2025-07-24T12:20:06.289Z</time>
      </trkpt>
      <trkpt lat="44.06367" lon="0.58855">
        <ele>105</ele>
        <time>2025-07-24T12:20:07.289Z</time>
      </trkpt>
      <trkpt lat="44.06368" lon="0.58855">
        <ele>104</ele>
        <time>2025-07-24T12:20:08.289Z</time>
      </trkpt>
      <trkpt lat="44.06369" lon="0.58855">
        <ele>104</ele>
        <time>2025-07-24T12:20:09.289Z</time>
      </trkpt>
      <trkpt lat="44.06371" lon="0.58855">
        <ele>104</ele>
        <time>2025-07-24T12:20:10.289Z</time>
      </trkpt>
      <trkpt lat="44.06372" lon="0.58855">
        <ele>104</ele>
        <time>2025-07-24T12:20:11.289Z</time>
      </trkpt>
      <trkpt lat="44.06373" lon="0.58854">
        <ele>104</ele>
        <time>2025-07-24T12:20:12.289Z</time>
      </trkpt>
      <trkpt lat="44.06374" lon="0.58854">
        <ele>104</ele>
        <time>2025-07-24T12:20:13.289Z</time>
      </trkpt>
      <trkpt lat="44.06375" lon="0.58853">
        <ele>104</ele>
        <time>2025-07-24T12:20:14.289Z</time>
      </trkpt>
      <trkpt lat="44.06377" lon="0.58853">
        <ele>104</ele>
        <time>2025-07-24T12:20:15.289Z</time>
      </trkpt>
      <trkpt lat="44.06378" lon="0.58852">
        <ele>104</ele>
        <time>2025-07-24T12:20:16.289Z</time>
      </trkpt>
      <trkpt lat="44.06379" lon="0.58852">
        <ele>104</ele>
        <time>2025-07-24T12:20:17.289Z</time>
      </trkpt>
      <trkpt lat="44.0638" lon="0.58851">
        <ele>105</ele>
        <time>2025-07-24T12:20:18.289Z</time>
      </trkpt>
      <trkpt lat="44.06382" lon="0.58851">
        <ele>105</ele>
        <time>2025-07-24T12:20:19.289Z</time>
      </trkpt>
      <trkpt lat="44.06383" lon="0.5885">
        <ele>105</ele>
        <time>2025-07-24T12:20:20.289Z</time>
      </trkpt>
      <trkpt lat="44.06384" lon="0.58849">
        <ele>105</ele>
        <time>2025-07-24T12:20:21.289Z</time>
      </trkpt>
      <trkpt lat="44.06385" lon="0.58849">
        <ele>105</ele>
        <time>2025-07-24T12:20:22.289Z</time>
      </trkpt>
      <trkpt lat="44.06387" lon="0.58848">
        <ele>105</ele>
        <time>2025-07-24T12:20:23.289Z</time>
      </trkpt>
      <trkpt lat="44.06388" lon="0.58848">
        <ele>104</ele>
        <time>2025-07-24T12:20:24.289Z</time>
      </trkpt>
      <trkpt lat="44.06389" lon="0.58847">
        <ele>104</ele>
        <time>2025-07-24T12:20:25.289Z</time>
      </trkpt>
      <trkpt lat="44.0639" lon="0.58847">
        <ele>104</ele>
        <time>2025-07-24T12:20:26.289Z</time>
      </trkpt>
      <trkpt lat="44.06391" lon="0.58847">
        <ele>104</ele>
        <time>2025-07-24T12:20:27.289Z</time>
      </trkpt>
      <trkpt lat="44.06392" lon="0.58846">
        <ele>104</ele>
        <time>2025-07-24T12:20:28.289Z</time>
      </trkpt>
      <trkpt lat="44.06394" lon="0.58846">
        <ele>104</ele>
        <time>2025-07-24T12:20:29.289Z</time>
      </trkpt>
      <trkpt lat="44.06395" lon="0.58845">
        <ele>104</ele>
        <time>2025-07-24T12:20:30.289Z</time>
      </trkpt>
      <trkpt lat="44.06396" lon="0.58844">
        <ele>104</ele>
        <time>2025-07-24T12:20:31.289Z</time>
      </trkpt>
      <trkpt lat="44.06398" lon="0.58843">
        <ele>104</ele>
        <time>2025-07-24T12:20:32.289Z</time>
      </trkpt>
      <trkpt lat="44.06399" lon="0.58842">
        <ele>104</ele>
        <time>2025-07-24T12:20:33.289Z</time>
      </trkpt>
      <trkpt lat="44.064" lon="0.58841">
        <ele>104</ele>
        <time>2025-07-24T12:20:34.289Z</time>
      </trkpt>
      <trkpt lat="44.064" lon="0.5884">
        <ele>104</ele>
        <time>2025-07-24T12:20:35.289Z</time>
      </trkpt>
      <trkpt lat="44.06402" lon="0.58839">
        <ele>105</ele>
        <time>2025-07-24T12:20:36.289Z</time>
      </trkpt>
      <trkpt lat="44.06403" lon="0.58839">
        <ele>105</ele>
        <time>2025-07-24T12:20:37.289Z</time>
      </trkpt>
      <trkpt lat="44.06404" lon="0.58838">
        <ele>105</ele>
        <time>2025-07-24T12:20:38.289Z</time>
      </trkpt>
      <trkpt lat="44.06405" lon="0.58838">
        <ele>106</ele>
        <time>2025-07-24T12:20:39.289Z</time>
      </trkpt>
      <trkpt lat="44.06407" lon="0.58838">
        <ele>106</ele>
        <time>2025-07-24T12:20:40.289Z</time>
      </trkpt>
      <trkpt lat="44.06408" lon="0.58837">
        <ele>106</ele>
        <time>2025-07-24T12:20:41.289Z</time>
      </trkpt>
      <trkpt lat="44.06409" lon="0.58837">
        <ele>106</ele>
        <time>2025-07-24T12:20:42.289Z</time>
      </trkpt>
      <trkpt lat="44.0641" lon="0.58836">
        <ele>106</ele>
        <time>2025-07-24T12:20:43.289Z</time>
      </trkpt>
      <trkpt lat="44.06411" lon="0.58836">
        <ele>106</ele>
        <time>2025-07-24T12:20:44.289Z</time>
      </trkpt>
      <trkpt lat="44.06412" lon="0.58836">
        <ele>107</ele>
        <time>2025-07-24T12:20:45.289Z</time>
      </trkpt>
      <trkpt lat="44.06414" lon="0.58836">
        <ele>107</ele>
        <time>2025-07-24T12:20:46.289Z</time>
      </trkpt>
      <trkpt lat="44.06415" lon="0.58836">
        <ele>108</ele>
        <time>2025-07-24T12:20:47.289Z</time>
      </trkpt>
      <trkpt lat="44.06417" lon="0.58836">
        <ele>108</ele>
        <time>2025-07-24T12:20:48.289Z</time>
      </trkpt>
      <trkpt lat="44.06418" lon="0.58835">
        <ele>108</ele>
        <time>2025-07-24T12:20:49.289Z</time>
      </trkpt>
      <trkpt lat="44.0642" lon="0.58835">
        <ele>108</ele>
        <time>2025-07-24T12:20:50.289Z</time>
      </trkpt>
      <trkpt lat="44.06421" lon="0.58835">
        <ele>108</ele>
        <time>2025-07-24T12:20:51.289Z</time>
      </trkpt>
      <trkpt lat="44.06422" lon="0.58834">
        <ele>107</ele>
        <time>2025-07-24T12:20:52.289Z</time>
      </trkpt>
      <trkpt lat="44.06424" lon="0.58834">
        <ele>107</ele>
        <time>2025-07-24T12:20:53.289Z</time>
      </trkpt>
      <trkpt lat="44.06425" lon="0.58833">
        <ele>108</ele>
        <time>2025-07-24T12:20:54.289Z</time>
      </trkpt>
      <trkpt lat="44.06426" lon="0.58833">
        <ele>108</ele>
        <time>2025-07-24T12:20:55.289Z</time>
      </trkpt>
      <trkpt lat="44.06427" lon="0.58833">
        <ele>108</ele>
        <time>2025-07-24T12:20:56.289Z</time>
      </trkpt>
      <trkpt lat="44.06428" lon="0.58833">
        <ele>108</ele>
        <time>2025-07-24T12:20:57.289Z</time>
      </trkpt>
      <trkpt lat="44.0643" lon="0.58833">
        <ele>108</ele>
        <time>2025-07-24T12:20:58.290Z</time>
      </trkpt>
      <trkpt lat="44.06431" lon="0.58833">
        <ele>108</ele>
        <time>2025-07-24T12:20:59.289Z</time>
      </trkpt>
      <trkpt lat="44.06432" lon="0.58832">
        <ele>108</ele>
        <time>2025-07-24T12:21:00.289Z</time>
      </trkpt>
      <trkpt lat="44.06434" lon="0.58832">
        <ele>108</ele>
        <time>2025-07-24T12:21:01.289Z</time>
      </trkpt>
      <trkpt lat="44.06435" lon="0.58833">
        <ele>108</ele>
        <time>2025-07-24T12:21:02.289Z</time>
      </trkpt>
      <trkpt lat="44.06436" lon="0.58833">
        <ele>108</ele>
        <time>2025-07-24T12:21:03.289Z</time>
      </trkpt>
      <trkpt lat="44.06437" lon="0.58833">
        <ele>108</ele>
        <time>2025-07-24T12:21:04.289Z</time>
      </trkpt>
      <trkpt lat="44.06439" lon="0.58833">
        <ele>108</ele>
        <time>2025-07-24T12:21:05.289Z</time>
      </trkpt>
      <trkpt lat="44.0644" lon="0.58833">
        <ele>108</ele>
        <time>2025-07-24T12:21:06.289Z</time>
      </trkpt>
      <trkpt lat="44.06441" lon="0.58834">
        <ele>108</ele>
        <time>2025-07-24T12:21:07.289Z</time>
      </trkpt>
      <trkpt lat="44.06442" lon="0.58834">
        <ele>108</ele>
        <time>2025-07-24T12:21:08.289Z</time>
      </trkpt>
      <trkpt lat="44.06443" lon="0.58834">
        <ele>107</ele>
        <time>2025-07-24T12:21:09.289Z</time>
      </trkpt>
      <trkpt lat="44.06445" lon="0.58834">
        <ele>107</ele>
        <time>2025-07-24T12:21:10.289Z</time>
      </trkpt>
      <trkpt lat="44.06446" lon="0.58835">
        <ele>107</ele>
        <time>2025-07-24T12:21:11.289Z</time>
      </trkpt>
      <trkpt lat="44.06448" lon="0.58835">
        <ele>107</ele>
        <time>2025-07-24T12:21:12.289Z</time>
      </trkpt>
      <trkpt lat="44.06449" lon="0.58835">
        <ele>107</ele>
        <time>2025-07-24T12:21:13.289Z</time>
      </trkpt>
      <trkpt lat="44.06451" lon="0.58836">
        <ele>106</ele>
        <time>2025-07-24T12:21:14.289Z</time>
      </trkpt>
      <trkpt lat="44.06452" lon="0.58836">
        <ele>106</ele>
        <time>2025-07-24T12:21:15.289Z</time>
      </trkpt>
      <trkpt lat="44.06453" lon="0.58836">
        <ele>106</ele>
        <time>2025-07-24T12:21:16.289Z</time>
      </trkpt>
      <trkpt lat="44.06454" lon="0.58836">
        <ele>105</ele>
        <time>2025-07-24T12:21:17.289Z</time>
      </trkpt>
      <trkpt lat="44.06455" lon="0.58836">
        <ele>105</ele>
        <time>2025-07-24T12:21:18.289Z</time>
      </trkpt>
      <trkpt lat="44.06457" lon="0.58836">
        <ele>104</ele>
        <time>2025-07-24T12:21:19.289Z</time>
      </trkpt>
      <trkpt lat="44.06458" lon="0.58836">
        <ele>104</ele>
        <time>2025-07-24T12:21:20.289Z</time>
      </trkpt>
      <trkpt lat="44.06459" lon="0.58836">
        <ele>103</ele>
        <time>2025-07-24T12:21:21.289Z</time>
      </trkpt>
      <trkpt lat="44.0646" lon="0.58836">
        <ele>103</ele>
        <time>2025-07-24T12:21:22.289Z</time>
      </trkpt>
      <trkpt lat="44.06462" lon="0.58836">
        <ele>103</ele>
        <time>2025-07-24T12:21:23.289Z</time>
      </trkpt>
      <trkpt lat="44.06463" lon="0.58836">
        <ele>103</ele>
        <time>2025-07-24T12:21:24.289Z</time>
      </trkpt>
      <trkpt lat="44.06465" lon="0.58836">
        <ele>104</ele>
        <time>2025-07-24T12:21:25.289Z</time>
      </trkpt>
      <trkpt lat="44.06465" lon="0.58836">
        <ele>105</ele>
        <time>2025-07-24T12:21:26.289Z</time>
      </trkpt>
      <trkpt lat="44.06466" lon="0.58837">
        <ele>105</ele>
        <time>2025-07-24T12:21:27.289Z</time>
      </trkpt>
      <trkpt lat="44.06467" lon="0.58837">
        <ele>105</ele>
        <time>2025-07-24T12:21:28.289Z</time>
      </trkpt>
      <trkpt lat="44.06469" lon="0.58837">
        <ele>105</ele>
        <time>2025-07-24T12:21:29.289Z</time>
      </trkpt>
      <trkpt lat="44.0647" lon="0.58837">
        <ele>105</ele>
        <time>2025-07-24T12:21:30.289Z</time>
      </trkpt>
      <trkpt lat="44.06471" lon="0.58837">
        <ele>105</ele>
        <time>2025-07-24T12:21:31.289Z</time>
      </trkpt>
      <trkpt lat="44.06473" lon="0.58837">
        <ele>105</ele>
        <time>2025-07-24T12:21:32.289Z</time>
      </trkpt>
      <trkpt lat="44.06474" lon="0.58837">
        <ele>105</ele>
        <time>2025-07-24T12:21:33.289Z</time>
      </trkpt>
      <trkpt lat="44.06475" lon="0.58837">
        <ele>105</ele>
        <time>2025-07-24T12:21:34.289Z</time>
      </trkpt>
      <trkpt lat="44.06476" lon="0.58836">
        <ele>105</ele>
        <time>2025-07-24T12:21:35.289Z</time>
      </trkpt>
      <trkpt lat="44.06477" lon="0.58836">
        <ele>105</ele>
        <time>2025-07-24T12:21:36.289Z</time>
      </trkpt>
      <trkpt lat="44.06478" lon="0.58836">
        <ele>104</ele>
        <time>2025-07-24T12:21:37.289Z</time>
      </trkpt>
      <trkpt lat="44.06479" lon="0.58836">
        <ele>104</ele>
        <time>2025-07-24T12:21:38.289Z</time>
      </trkpt>
      <trkpt lat="44.0648" lon="0.58836">
        <ele>103</ele>
        <time>2025-07-24T12:21:39.289Z</time>
      </trkpt>
      <trkpt lat="44.06481" lon="0.58837">
        <ele>103</ele>
        <time>2025-07-24T12:21:40.289Z</time>
      </trkpt>
      <trkpt lat="44.06482" lon="0.58837">
        <ele>102</ele>
        <time>2025-07-24T12:21:41.289Z</time>
      </trkpt>
      <trkpt lat="44.06483" lon="0.58837">
        <ele>102</ele>
        <time>2025-07-24T12:21:42.289Z</time>
      </trkpt>
      <trkpt lat="44.06485" lon="0.58837">
        <ele>102</ele>
        <time>2025-07-24T12:21:43.289Z</time>
      </trkpt>
      <trkpt lat="44.06486" lon="0.58836">
        <ele>103</ele>
        <time>2025-07-24T12:21:44.289Z</time>
      </trkpt>
      <trkpt lat="44.06487" lon="0.58836">
        <ele>103</ele>
        <time>2025-07-24T12:21:45.289Z</time>
      </trkpt>
      <trkpt lat="44.06488" lon="0.58836">
        <ele>103</ele>
        <time>2025-07-24T12:21:46.289Z</time>
      </trkpt>
      <trkpt lat="44.06489" lon="0.58836">
        <ele>103</ele>
        <time>2025-07-24T12:21:47.289Z</time>
      </trkpt>
      <trkpt lat="44.0649" lon="0.58836">
        <ele>104</ele>
        <time>2025-07-24T12:21:48.289Z</time>
      </trkpt>
      <trkpt lat="44.06491" lon="0.58836">
        <ele>104</ele>
        <time>2025-07-24T12:21:49.289Z</time>
      </trkpt>
      <trkpt lat="44.06492" lon="0.58836">
        <ele>105</ele>
        <time>2025-07-24T12:21:50.289Z</time>
      </trkpt>
      <trkpt lat="44.06493" lon="0.58835">
        <ele>105</ele>
        <time>2025-07-24T12:21:51.289Z</time>
      </trkpt>
      <trkpt lat="44.06494" lon="0.58835">
        <ele>106</ele>
        <time>2025-07-24T12:21:52.289Z</time>
      </trkpt>
      <trkpt lat="44.06496" lon="0.58835">
        <ele>106</ele>
        <time>2025-07-24T12:21:53.289Z</time>
      </trkpt>
      <trkpt lat="44.06497" lon="0.58834">
        <ele>107</ele>
        <time>2025-07-24T12:21:54.289Z</time>
      </trkpt>
      <trkpt lat="44.06497" lon="0.58834">
        <ele>107</ele>
        <time>2025-07-24T12:21:55.289Z</time>
      </trkpt>
      <trkpt lat="44.06498" lon="0.58834">
        <ele>107</ele>
        <time>2025-07-24T12:21:56.289Z</time>
      </trkpt>
      <trkpt lat="44.065" lon="0.58834">
        <ele>107</ele>
        <time>2025-07-24T12:21:57.289Z</time>
      </trkpt>
      <trkpt lat="44.06501" lon="0.58834">
        <ele>107</ele>
        <time>2025-07-24T12:21:58.289Z</time>
      </trkpt>
      <trkpt lat="44.06502" lon="0.58833">
        <ele>107</ele>
        <time>2025-07-24T12:21:59.289Z</time>
      </trkpt>
      <trkpt lat="44.06503" lon="0.58833">
        <ele>107</ele>
        <time>2025-07-24T12:22:00.289Z</time>
      </trkpt>
      <trkpt lat="44.06504" lon="0.58833">
        <ele>107</ele>
        <time>2025-07-24T12:22:01.289Z</time>
      </trkpt>
      <trkpt lat="44.06506" lon="0.58833">
        <ele>108</ele>
        <time>2025-07-24T12:22:02.289Z</time>
      </trkpt>
      <trkpt lat="44.06507" lon="0.58833">
        <ele>108</ele>
        <time>2025-07-24T12:22:03.289Z</time>
      </trkpt>
      <trkpt lat="44.06508" lon="0.58832">
        <ele>108</ele>
        <time>2025-07-24T12:22:04.289Z</time>
      </trkpt>
      <trkpt lat="44.06509" lon="0.58832">
        <ele>108</ele>
        <time>2025-07-24T12:22:05.289Z</time>
      </trkpt>
      <trkpt lat="44.0651" lon="0.58832">
        <ele>108</ele>
        <time>2025-07-24T12:22:06.289Z</time>
      </trkpt>
      <trkpt lat="44.06511" lon="0.58832">
        <ele>108</ele>
        <time>2025-07-24T12:22:07.289Z</time>
      </trkpt>
      <trkpt lat="44.06512" lon="0.58832">
        <ele>108</ele>
        <time>2025-07-24T12:22:08.289Z</time>
      </trkpt>
      <trkpt lat="44.06513" lon="0.58831">
        <ele>108</ele>
        <time>2025-07-24T12:22:09.289Z</time>
      </trkpt>
      <trkpt lat="44.06515" lon="0.58831">
        <ele>108</ele>
        <time>2025-07-24T12:22:10.289Z</time>
      </trkpt>
      <trkpt lat="44.06516" lon="0.5883">
        <ele>109</ele>
        <time>2025-07-24T12:22:11.289Z</time>
      </trkpt>
      <trkpt lat="44.06517" lon="0.5883">
        <ele>109</ele>
        <time>2025-07-24T12:22:12.289Z</time>
      </trkpt>
      <trkpt lat="44.06518" lon="0.58829">
        <ele>110</ele>
        <time>2025-07-24T12:22:13.289Z</time>
      </trkpt>
      <trkpt lat="44.06519" lon="0.58828">
        <ele>110</ele>
        <time>2025-07-24T12:22:14.289Z</time>
      </trkpt>
      <trkpt lat="44.0652" lon="0.58827">
        <ele>110</ele>
        <time>2025-07-24T12:22:15.289Z</time>
      </trkpt>
      <trkpt lat="44.06521" lon="0.58827">
        <ele>111</ele>
        <time>2025-07-24T12:22:16.289Z</time>
      </trkpt>
      <trkpt lat="44.06522" lon="0.58826">
        <ele>111</ele>
        <time>2025-07-24T12:22:17.289Z</time>
      </trkpt>
      <trkpt lat="44.06523" lon="0.58826">
        <ele>111</ele>
        <time>2025-07-24T12:22:18.289Z</time>
      </trkpt>
      <trkpt lat="44.06524" lon="0.58825">
        <ele>111</ele>
        <time>2025-07-24T12:22:19.289Z</time>
      </trkpt>
      <trkpt lat="44.06525" lon="0.58825">
        <ele>111</ele>
        <time>2025-07-24T12:22:20.289Z</time>
      </trkpt>
      <trkpt lat="44.06525" lon="0.58824">
        <ele>111</ele>
        <time>2025-07-24T12:22:21.289Z</time>
      </trkpt>
      <trkpt lat="44.06526" lon="0.58824">
        <ele>111</ele>
        <time>2025-07-24T12:22:22.289Z</time>
      </trkpt>
      <trkpt lat="44.06527" lon="0.58823">
        <ele>111</ele>
        <time>2025-07-24T12:22:23.289Z</time>
      </trkpt>
      <trkpt lat="44.06528" lon="0.58822">
        <ele>111</ele>
        <time>2025-07-24T12:22:24.289Z</time>
      </trkpt>
      <trkpt lat="44.0653" lon="0.58822">
        <ele>111</ele>
        <time>2025-07-24T12:22:25.289Z</time>
      </trkpt>
      <trkpt lat="44.06531" lon="0.58821">
        <ele>112</ele>
        <time>2025-07-24T12:22:26.289Z</time>
      </trkpt>
      <trkpt lat="44.06531" lon="0.58821">
        <ele>112</ele>
        <time>2025-07-24T12:22:27.289Z</time>
      </trkpt>
      <trkpt lat="44.06532" lon="0.5882">
        <ele>112</ele>
        <time>2025-07-24T12:22:28.289Z</time>
      </trkpt>
      <trkpt lat="44.06533" lon="0.5882">
        <ele>112</ele>
        <time>2025-07-24T12:22:29.289Z</time>
      </trkpt>
      <trkpt lat="44.06534" lon="0.58819">
        <ele>112</ele>
        <time>2025-07-24T12:22:30.289Z</time>
      </trkpt>
      <trkpt lat="44.06535" lon="0.58818">
        <ele>113</ele>
        <time>2025-07-24T12:22:31.289Z</time>
      </trkpt>
      <trkpt lat="44.06536" lon="0.58818">
        <ele>113</ele>
        <time>2025-07-24T12:22:32.289Z</time>
      </trkpt>
      <trkpt lat="44.06538" lon="0.58817">
        <ele>113</ele>
        <time>2025-07-24T12:22:33.289Z</time>
      </trkpt>
      <trkpt lat="44.06539" lon="0.58817">
        <ele>113</ele>
        <time>2025-07-24T12:22:34.289Z</time>
      </trkpt>
      <trkpt lat="44.06539" lon="0.58816">
        <ele>113</ele>
        <time>2025-07-24T12:22:35.289Z</time>
      </trkpt>
      <trkpt lat="44.0654" lon="0.58815">
        <ele>113</ele>
        <time>2025-07-24T12:22:36.289Z</time>
      </trkpt>
      <trkpt lat="44.06541" lon="0.58815">
        <ele>113</ele>
        <time>2025-07-24T12:22:37.289Z</time>
      </trkpt>
      <trkpt lat="44.06542" lon="0.58814">
        <ele>113</ele>
        <time>2025-07-24T12:22:38.289Z</time>
      </trkpt>
      <trkpt lat="44.06543" lon="0.58813">
        <ele>113</ele>
        <time>2025-07-24T12:22:39.289Z</time>
      </trkpt>
      <trkpt lat="44.06544" lon="0.58812">
        <ele>114</ele>
        <time>2025-07-24T12:22:40.289Z</time>
      </trkpt>
      <trkpt lat="44.06544" lon="0.58812">
        <ele>114</ele>
        <time>2025-07-24T12:22:41.289Z</time>
      </trkpt>
      <trkpt lat="44.06545" lon="0.58811">
        <ele>114</ele>
        <time>2025-07-24T12:22:42.289Z</time>
      </trkpt>
      <trkpt lat="44.06546" lon="0.5881">
        <ele>115</ele>
        <time>2025-07-24T12:22:43.289Z</time>
      </trkpt>
      <trkpt lat="44.06547" lon="0.58809">
        <ele>115</ele>
        <time>2025-07-24T12:22:44.289Z</time>
      </trkpt>
      <trkpt lat="44.06548" lon="0.58809">
        <ele>116</ele>
        <time>2025-07-24T12:22:45.289Z</time>
      </trkpt>
      <trkpt lat="44.06549" lon="0.58808">
        <ele>116</ele>
        <time>2025-07-24T12:22:46.289Z</time>
      </trkpt>
      <trkpt lat="44.0655" lon="0.58807">
        <ele>117</ele>
        <time>2025-07-24T12:22:47.289Z</time>
      </trkpt>
      <trkpt lat="44.0655" lon="0.58807">
        <ele>117</ele>
        <time>2025-07-24T12:22:48.289Z</time>
      </trkpt>
      <trkpt lat="44.06551" lon="0.58806">
        <ele>118</ele>
        <time>2025-07-24T12:22:49.289Z</time>
      </trkpt>
      <trkpt lat="44.06552" lon="0.58805">
        <ele>118</ele>
        <time>2025-07-24T12:22:50.289Z</time>
      </trkpt>
      <trkpt lat="44.06553" lon="0.58805">
        <ele>118</ele>
        <time>2025-07-24T12:22:51.289Z</time>
      </trkpt>
      <trkpt lat="44.06554" lon="0.58804">
        <ele>119</ele>
        <time>2025-07-24T12:22:52.289Z</time>
      </trkpt>
      <trkpt lat="44.06555" lon="0.58803">
        <ele>119</ele>
        <time>2025-07-24T12:22:53.289Z</time>
      </trkpt>
      <trkpt lat="44.06556" lon="0.58802">
        <ele>119</ele>
        <time>2025-07-24T12:22:54.289Z</time>
      </trkpt>
      <trkpt lat="44.06557" lon="0.58801">
        <ele>118</ele>
        <time>2025-07-24T12:22:55.289Z</time>
      </trkpt>
      <trkpt lat="44.06558" lon="0.588">
        <ele>118</ele>
        <time>2025-07-24T12:22:56.289Z</time>
      </trkpt>
      <trkpt lat="44.06558" lon="0.588">
        <ele>118</ele>
        <time>2025-07-24T12:22:57.289Z</time>
      </trkpt>
      <trkpt lat="44.06559" lon="0.58799">
        <ele>118</ele>
        <time>2025-07-24T12:22:58.289Z</time>
      </trkpt>
      <trkpt lat="44.0656" lon="0.58799">
        <ele>118</ele>
        <time>2025-07-24T12:22:59.289Z</time>
      </trkpt>
      <trkpt lat="44.06561" lon="0.58799">
        <ele>118</ele>
        <time>2025-07-24T12:23:00.289Z</time>
      </trkpt>
      <trkpt lat="44.06562" lon="0.58799">
        <ele>118</ele>
        <time>2025-07-24T12:23:01.289Z</time>
      </trkpt>
      <trkpt lat="44.06563" lon="0.58799">
        <ele>118</ele>
        <time>2025-07-24T12:23:02.289Z</time>
      </trkpt>
      <trkpt lat="44.06564" lon="0.58799">
        <ele>118</ele>
        <time>2025-07-24T12:23:03.289Z</time>
      </trkpt>
      <trkpt lat="44.06565" lon="0.58798">
        <ele>118</ele>
        <time>2025-07-24T12:23:04.289Z</time>
      </trkpt>
      <trkpt lat="44.06565" lon="0.58797">
        <ele>118</ele>
        <time>2025-07-24T12:23:05.289Z</time>
      </trkpt>
      <trkpt lat="44.06566" lon="0.58796">
        <ele>118</ele>
        <time>2025-07-24T12:23:06.289Z</time>
      </trkpt>
      <trkpt lat="44.06567" lon="0.58795">
        <ele>118</ele>
        <time>2025-07-24T12:23:07.290Z</time>
      </trkpt>
      <trkpt lat="44.06568" lon="0.58794">
        <ele>118</ele>
        <time>2025-07-24T12:23:08.289Z</time>
      </trkpt>
      <trkpt lat="44.06569" lon="0.58793">
        <ele>119</ele>
        <time>2025-07-24T12:23:09.289Z</time>
      </trkpt>
      <trkpt lat="44.0657" lon="0.58792">
        <ele>119</ele>
        <time>2025-07-24T12:23:10.289Z</time>
      </trkpt>
      <trkpt lat="44.06571" lon="0.58791">
        <ele>119</ele>
        <time>2025-07-24T12:23:11.289Z</time>
      </trkpt>
      <trkpt lat="44.06572" lon="0.5879">
        <ele>120</ele>
        <time>2025-07-24T12:23:12.289Z</time>
      </trkpt>
      <trkpt lat="44.06573" lon="0.5879">
        <ele>120</ele>
        <time>2025-07-24T12:23:13.289Z</time>
      </trkpt>
      <trkpt lat="44.06574" lon="0.58789">
        <ele>120</ele>
        <time>2025-07-24T12:23:14.289Z</time>
      </trkpt>
      <trkpt lat="44.06575" lon="0.58788">
        <ele>120</ele>
        <time>2025-07-24T12:23:15.289Z</time>
      </trkpt>
      <trkpt lat="44.06577" lon="0.58787">
        <ele>120</ele>
        <time>2025-07-24T12:23:16.289Z</time>
      </trkpt>
      <trkpt lat="44.06578" lon="0.58787">
        <ele>120</ele>
        <time>2025-07-24T12:23:17.289Z</time>
      </trkpt>
      <trkpt lat="44.06579" lon="0.58786">
        <ele>120</ele>
        <time>2025-07-24T12:23:18.289Z</time>
      </trkpt>
      <trkpt lat="44.0658" lon="0.58786">
        <ele>120</ele>
        <time>2025-07-24T12:23:19.289Z</time>
      </trkpt>
      <trkpt lat="44.0658" lon="0.58785">
        <ele>121</ele>
        <time>2025-07-24T12:23:20.289Z</time>
      </trkpt>
      <trkpt lat="44.06581" lon="0.58785">
        <ele>121</ele>
        <time>2025-07-24T12:23:21.289Z</time>
      </trkpt>
      <trkpt lat="44.06583" lon="0.58785">
        <ele>121</ele>
        <time>2025-07-24T12:23:22.289Z</time>
      </trkpt>
      <trkpt lat="44.06583" lon="0.58784">
        <ele>121</ele>
        <time>2025-07-24T12:23:23.289Z</time>
      </trkpt>
      <trkpt lat="44.06585" lon="0.58784">
        <ele>122</ele>
        <time>2025-07-24T12:23:24.289Z</time>
      </trkpt>
      <trkpt lat="44.06586" lon="0.58783">
        <ele>122</ele>
        <time>2025-07-24T12:23:25.289Z</time>
      </trkpt>
      <trkpt lat="44.06587" lon="0.58782">
        <ele>121</ele>
        <time>2025-07-24T12:23:26.289Z</time>
      </trkpt>
      <trkpt lat="44.06587" lon="0.58782">
        <ele>121</ele>
        <time>2025-07-24T12:23:27.289Z</time>
      </trkpt>
      <trkpt lat="44.06589" lon="0.58782">
        <ele>121</ele>
        <time>2025-07-24T12:23:28.289Z</time>
      </trkpt>
      <trkpt lat="44.0659" lon="0.58782">
        <ele>121</ele>
        <time>2025-07-24T12:23:29.289Z</time>
      </trkpt>
      <trkpt lat="44.06591" lon="0.58782">
        <ele>121</ele>
        <time>2025-07-24T12:23:30.289Z</time>
      </trkpt>
      <trkpt lat="44.06592" lon="0.58781">
        <ele>122</ele>
        <time>2025-07-24T12:23:31.289Z</time>
      </trkpt>
      <trkpt lat="44.06593" lon="0.58781">
        <ele>122</ele>
        <time>2025-07-24T12:23:32.289Z</time>
      </trkpt>
      <trkpt lat="44.06594" lon="0.58781">
        <ele>123</ele>
        <time>2025-07-24T12:23:33.289Z</time>
      </trkpt>
      <trkpt lat="44.06596" lon="0.5878">
        <ele>123</ele>
        <time>2025-07-24T12:23:34.289Z</time>
      </trkpt>
      <trkpt lat="44.06596" lon="0.5878">
        <ele>122</ele>
        <time>2025-07-24T12:23:35.289Z</time>
      </trkpt>
      <trkpt lat="44.06598" lon="0.5878">
        <ele>123</ele>
        <time>2025-07-24T12:23:36.289Z</time>
      </trkpt>
      <trkpt lat="44.06599" lon="0.58779">
        <ele>123</ele>
        <time>2025-07-24T12:23:37.289Z</time>
      </trkpt>
      <trkpt lat="44.066" lon="0.58779">
        <ele>123</ele>
        <time>2025-07-24T12:23:38.289Z</time>
      </trkpt>
      <trkpt lat="44.06601" lon="0.58779">
        <ele>123</ele>
        <time>2025-07-24T12:23:39.289Z</time>
      </trkpt>
      <trkpt lat="44.06602" lon="0.58779">
        <ele>123</ele>
        <time>2025-07-24T12:23:40.289Z</time>
      </trkpt>
      <trkpt lat="44.06603" lon="0.5878">
        <ele>124</ele>
        <time>2025-07-24T12:23:41.289Z</time>
      </trkpt>
      <trkpt lat="44.06603" lon="0.5878">
        <ele>124</ele>
        <time>2025-07-24T12:23:42.289Z</time>
      </trkpt>
      <trkpt lat="44.06604" lon="0.5878">
        <ele>124</ele>
        <time>2025-07-24T12:23:43.289Z</time>
      </trkpt>
      <trkpt lat="44.06605" lon="0.5878">
        <ele>123</ele>
        <time>2025-07-24T12:23:44.289Z</time>
      </trkpt>
      <trkpt lat="44.06606" lon="0.5878">
        <ele>123</ele>
        <time>2025-07-24T12:23:45.289Z</time>
      </trkpt>
      <trkpt lat="44.06607" lon="0.58781">
        <ele>123</ele>
        <time>2025-07-24T12:23:46.289Z</time>
      </trkpt>
      <trkpt lat="44.06608" lon="0.58781">
        <ele>122</ele>
        <time>2025-07-24T12:23:47.289Z</time>
      </trkpt>
      <trkpt lat="44.06609" lon="0.58781">
        <ele>121</ele>
        <time>2025-07-24T12:23:48.289Z</time>
      </trkpt>
      <trkpt lat="44.0661" lon="0.58782">
        <ele>121</ele>
        <time>2025-07-24T12:23:49.289Z</time>
      </trkpt>
      <trkpt lat="44.0661" lon="0.58782">
        <ele>121</ele>
        <time>2025-07-24T12:23:50.289Z</time>
      </trkpt>
      <trkpt lat="44.06611" lon="0.58783">
        <ele>121</ele>
        <time>2025-07-24T12:23:51.289Z</time>
      </trkpt>
      <trkpt lat="44.06612" lon="0.58784">
        <ele>121</ele>
        <time>2025-07-24T12:23:52.289Z</time>
      </trkpt>
      <trkpt lat="44.06612" lon="0.58785">
        <ele>121</ele>
        <time>2025-07-24T12:23:53.289Z</time>
      </trkpt>
      <trkpt lat="44.06613" lon="0.58786">
        <ele>121</ele>
        <time>2025-07-24T12:23:54.289Z</time>
      </trkpt>
      <trkpt lat="44.06614" lon="0.58787">
        <ele>120</ele>
        <time>2025-07-24T12:23:55.289Z</time>
      </trkpt>
      <trkpt lat="44.06614" lon="0.58788">
        <ele>120</ele>
        <time>2025-07-24T12:23:56.289Z</time>
      </trkpt>
      <trkpt lat="44.06615" lon="0.5879">
        <ele>120</ele>
        <time>2025-07-24T12:23:57.289Z</time>
      </trkpt>
      <trkpt lat="44.06615" lon="0.58792">
        <ele>120</ele>
        <time>2025-07-24T12:23:58.289Z</time>
      </trkpt>
      <trkpt lat="44.06615" lon="0.58793">
        <ele>120</ele>
        <time>2025-07-24T12:23:59.289Z</time>
      </trkpt>
      <trkpt lat="44.06615" lon="0.58795">
        <ele>120</ele>
        <time>2025-07-24T12:24:00.289Z</time>
      </trkpt>
      <trkpt lat="44.06616" lon="0.58796">
        <ele>119</ele>
        <time>2025-07-24T12:24:01.289Z</time>
      </trkpt>
      <trkpt lat="44.06616" lon="0.58797">
        <ele>119</ele>
        <time>2025-07-24T12:24:02.289Z</time>
      </trkpt>
      <trkpt lat="44.06616" lon="0.58799">
        <ele>119</ele>
        <time>2025-07-24T12:24:03.289Z</time>
      </trkpt>
      <trkpt lat="44.06617" lon="0.588">
        <ele>119</ele>
        <time>2025-07-24T12:24:04.289Z</time>
      </trkpt>
      <trkpt lat="44.06617" lon="0.58802">
        <ele>119</ele>
        <time>2025-07-24T12:24:05.289Z</time>
      </trkpt>
      <trkpt lat="44.06618" lon="0.58803">
        <ele>119</ele>
        <time>2025-07-24T12:24:06.289Z</time>
      </trkpt>
      <trkpt lat="44.06619" lon="0.58805">
        <ele>119</ele>
        <time>2025-07-24T12:24:07.289Z</time>
      </trkpt>
      <trkpt lat="44.06619" lon="0.58806">
        <ele>119</ele>
        <time>2025-07-24T12:24:08.289Z</time>
      </trkpt>
      <trkpt lat="44.0662" lon="0.58808">
        <ele>120</ele>
        <time>2025-07-24T12:24:09.289Z</time>
      </trkpt>
      <trkpt lat="44.0662" lon="0.58809">
        <ele>120</ele>
        <time>2025-07-24T12:24:10.289Z</time>
      </trkpt>
      <trkpt lat="44.06621" lon="0.5881">
        <ele>120</ele>
        <time>2025-07-24T12:24:11.289Z</time>
      </trkpt>
      <trkpt lat="44.06621" lon="0.58812">
        <ele>120</ele>
        <time>2025-07-24T12:24:12.289Z</time>
      </trkpt>
      <trkpt lat="44.06622" lon="0.58813">
        <ele>120</ele>
        <time>2025-07-24T12:24:13.289Z</time>
      </trkpt>
      <trkpt lat="44.06622" lon="0.58815">
        <ele>121</ele>
        <time>2025-07-24T12:24:14.289Z</time>
      </trkpt>
      <trkpt lat="44.06623" lon="0.58816">
        <ele>121</ele>
        <time>2025-07-24T12:24:15.289Z</time>
      </trkpt>
      <trkpt lat="44.06624" lon="0.58818">
        <ele>121</ele>
        <time>2025-07-24T12:24:16.289Z</time>
      </trkpt>
      <trkpt lat="44.06624" lon="0.5882">
        <ele>120</ele>
        <time>2025-07-24T12:24:17.289Z</time>
      </trkpt>
      <trkpt lat="44.06625" lon="0.58821">
        <ele>120</ele>
        <time>2025-07-24T12:24:18.289Z</time>
      </trkpt>
      <trkpt lat="44.06625" lon="0.58822">
        <ele>119</ele>
        <time>2025-07-24T12:24:19.289Z</time>
      </trkpt>
      <trkpt lat="44.06625" lon="0.58823">
        <ele>119</ele>
        <time>2025-07-24T12:24:20.289Z</time>
      </trkpt>
      <trkpt lat="44.06625" lon="0.58825">
        <ele>119</ele>
        <time>2025-07-24T12:24:21.289Z</time>
      </trkpt>
      <trkpt lat="44.06626" lon="0.58826">
        <ele>119</ele>
        <time>2025-07-24T12:24:22.289Z</time>
      </trkpt>
      <trkpt lat="44.06626" lon="0.58828">
        <ele>119</ele>
        <time>2025-07-24T12:24:23.289Z</time>
      </trkpt>
      <trkpt lat="44.06627" lon="0.58829">
        <ele>118</ele>
        <time>2025-07-24T12:24:24.289Z</time>
      </trkpt>
      <trkpt lat="44.06628" lon="0.58831">
        <ele>118</ele>
        <time>2025-07-24T12:24:25.289Z</time>
      </trkpt>
      <trkpt lat="44.06628" lon="0.58832">
        <ele>118</ele>
        <time>2025-07-24T12:24:26.289Z</time>
      </trkpt>
      <trkpt lat="44.06628" lon="0.58834">
        <ele>117</ele>
        <time>2025-07-24T12:24:27.289Z</time>
      </trkpt>
      <trkpt lat="44.06629" lon="0.58835">
        <ele>117</ele>
        <time>2025-07-24T12:24:28.289Z</time>
      </trkpt>
      <trkpt lat="44.06629" lon="0.58836">
        <ele>117</ele>
        <time>2025-07-24T12:24:29.289Z</time>
      </trkpt>
      <trkpt lat="44.0663" lon="0.58838">
        <ele>117</ele>
        <time>2025-07-24T12:24:30.289Z</time>
      </trkpt>
      <trkpt lat="44.0663" lon="0.58839">
        <ele>118</ele>
        <time>2025-07-24T12:24:31.289Z</time>
      </trkpt>
      <trkpt lat="44.06631" lon="0.58841">
        <ele>118</ele>
        <time>2025-07-24T12:24:32.289Z</time>
      </trkpt>
      <trkpt lat="44.06631" lon="0.58843">
        <ele>118</ele>
        <time>2025-07-24T12:24:33.289Z</time>
      </trkpt>
      <trkpt lat="44.06632" lon="0.58845">
        <ele>118</ele>
        <time>2025-07-24T12:24:34.289Z</time>
      </trkpt>
      <trkpt lat="44.06632" lon="0.58846">
        <ele>118</ele>
        <time>2025-07-24T12:24:35.290Z</time>
      </trkpt>
      <trkpt lat="44.06633" lon="0.58848">
        <ele>118</ele>
        <time>2025-07-24T12:24:36.289Z</time>
      </trkpt>
      <trkpt lat="44.06634" lon="0.58849">
        <ele>118</ele>
        <time>2025-07-24T12:24:37.289Z</time>
      </trkpt>
      <trkpt lat="44.06634" lon="0.58851">
        <ele>118</ele>
        <time>2025-07-24T12:24:38.289Z</time>
      </trkpt>
      <trkpt lat="44.06635" lon="0.58852">
        <ele>118</ele>
        <time>2025-07-24T12:24:39.289Z</time>
      </trkpt>
      <trkpt lat="44.06635" lon="0.58853">
        <ele>118</ele>
        <time>2025-07-24T12:24:40.289Z</time>
      </trkpt>
      <trkpt lat="44.06635" lon="0.58855">
        <ele>118</ele>
        <time>2025-07-24T12:24:41.289Z</time>
      </trkpt>
      <trkpt lat="44.06636" lon="0.58856">
        <ele>117</ele>
        <time>2025-07-24T12:24:42.289Z</time>
      </trkpt>
      <trkpt lat="44.06636" lon="0.58858">
        <ele>117</ele>
        <time>2025-07-24T12:24:43.289Z</time>
      </trkpt>
      <trkpt lat="44.06637" lon="0.58859">
        <ele>117</ele>
        <time>2025-07-24T12:24:44.289Z</time>
      </trkpt>
      <trkpt lat="44.06638" lon="0.58861">
        <ele>117</ele>
        <time>2025-07-24T12:24:45.289Z</time>
      </trkpt>
      <trkpt lat="44.06638" lon="0.58862">
        <ele>118</ele>
        <time>2025-07-24T12:24:46.289Z</time>
      </trkpt>
      <trkpt lat="44.06639" lon="0.58863">
        <ele>118</ele>
        <time>2025-07-24T12:24:47.289Z</time>
      </trkpt>
      <trkpt lat="44.06639" lon="0.58864">
        <ele>118</ele>
        <time>2025-07-24T12:24:48.289Z</time>
      </trkpt>
      <trkpt lat="44.0664" lon="0.58866">
        <ele>118</ele>
        <time>2025-07-24T12:24:49.289Z</time>
      </trkpt>
      <trkpt lat="44.0664" lon="0.58867">
        <ele>118</ele>
        <time>2025-07-24T12:24:50.289Z</time>
      </trkpt>
      <trkpt lat="44.06641" lon="0.58868">
        <ele>118</ele>
        <time>2025-07-24T12:24:51.289Z</time>
      </trkpt>
      <trkpt lat="44.06641" lon="0.5887">
        <ele>118</ele>
        <time>2025-07-24T12:24:52.289Z</time>
      </trkpt>
      <trkpt lat="44.06642" lon="0.58871">
        <ele>118</ele>
        <time>2025-07-24T12:24:53.289Z</time>
      </trkpt>
      <trkpt lat="44.06642" lon="0.58872">
        <ele>118</ele>
        <time>2025-07-24T12:24:54.289Z</time>
      </trkpt>
      <trkpt lat="44.06643" lon="0.58874">
        <ele>118</ele>
        <time>2025-07-24T12:24:55.289Z</time>
      </trkpt>
      <trkpt lat="44.06643" lon="0.58875">
        <ele>119</ele>
        <time>2025-07-24T12:24:56.289Z</time>
      </trkpt>
      <trkpt lat="44.06644" lon="0.58877">
        <ele>119</ele>
        <time>2025-07-24T12:24:57.289Z</time>
      </trkpt>
      <trkpt lat="44.06645" lon="0.58879">
        <ele>119</ele>
        <time>2025-07-24T12:24:58.289Z</time>
      </trkpt>
      <trkpt lat="44.06645" lon="0.5888">
        <ele>119</ele>
        <time>2025-07-24T12:24:59.289Z</time>
      </trkpt>
      <trkpt lat="44.06646" lon="0.58882">
        <ele>119</ele>
        <time>2025-07-24T12:25:00.289Z</time>
      </trkpt>
      <trkpt lat="44.06646" lon="0.58883">
        <ele>119</ele>
        <time>2025-07-24T12:25:01.289Z</time>
      </trkpt>
      <trkpt lat="44.06646" lon="0.58884">
        <ele>119</ele>
        <time>2025-07-24T12:25:02.289Z</time>
      </trkpt>
      <trkpt lat="44.06647" lon="0.58885">
        <ele>118</ele>
        <time>2025-07-24T12:25:03.289Z</time>
      </trkpt>
      <trkpt lat="44.06647" lon="0.58887">
        <ele>118</ele>
        <time>2025-07-24T12:25:04.289Z</time>
      </trkpt>
      <trkpt lat="44.06648" lon="0.58888">
        <ele>118</ele>
        <time>2025-07-24T12:25:05.289Z</time>
      </trkpt>
      <trkpt lat="44.06648" lon="0.5889">
        <ele>117</ele>
        <time>2025-07-24T12:25:06.289Z</time>
      </trkpt>
      <trkpt lat="44.06649" lon="0.58891">
        <ele>116</ele>
        <time>2025-07-24T12:25:07.289Z</time>
      </trkpt>
      <trkpt lat="44.06649" lon="0.58893">
        <ele>116</ele>
        <time>2025-07-24T12:25:08.289Z</time>
      </trkpt>
      <trkpt lat="44.0665" lon="0.58894">
        <ele>116</ele>
        <time>2025-07-24T12:25:09.289Z</time>
      </trkpt>
      <trkpt lat="44.0665" lon="0.58896">
        <ele>116</ele>
        <time>2025-07-24T12:25:10.289Z</time>
      </trkpt>
      <trkpt lat="44.06651" lon="0.58897">
        <ele>116</ele>
        <time>2025-07-24T12:25:11.289Z</time>
      </trkpt>
      <trkpt lat="44.06651" lon="0.58898">
        <ele>116</ele>
        <time>2025-07-24T12:25:12.289Z</time>
      </trkpt>
      <trkpt lat="44.06652" lon="0.589">
        <ele>116</ele>
        <time>2025-07-24T12:25:13.289Z</time>
      </trkpt>
      <trkpt lat="44.06653" lon="0.58901">
        <ele>116</ele>
        <time>2025-07-24T12:25:14.289Z</time>
      </trkpt>
      <trkpt lat="44.06653" lon="0.58903">
        <ele>116</ele>
        <time>2025-07-24T12:25:15.289Z</time>
      </trkpt>
      <trkpt lat="44.06654" lon="0.58904">
        <ele>116</ele>
        <time>2025-07-24T12:25:16.289Z</time>
      </trkpt>
      <trkpt lat="44.06655" lon="0.58906">
        <ele>116</ele>
        <time>2025-07-24T12:25:17.289Z</time>
      </trkpt>
      <trkpt lat="44.06655" lon="0.58908">
        <ele>116</ele>
        <time>2025-07-24T12:25:18.289Z</time>
      </trkpt>
      <trkpt lat="44.06656" lon="0.5891">
        <ele>115</ele>
        <time>2025-07-24T12:25:19.289Z</time>
      </trkpt>
      <trkpt lat="44.06657" lon="0.58912">
        <ele>115</ele>
        <time>2025-07-24T12:25:20.289Z</time>
      </trkpt>
      <trkpt lat="44.06657" lon="0.58913">
        <ele>115</ele>
        <time>2025-07-24T12:25:21.289Z</time>
      </trkpt>
      <trkpt lat="44.06658" lon="0.58915">
        <ele>115</ele>
        <time>2025-07-24T12:25:22.289Z</time>
      </trkpt>
      <trkpt lat="44.06658" lon="0.58916">
        <ele>115</ele>
        <time>2025-07-24T12:25:23.289Z</time>
      </trkpt>
      <trkpt lat="44.06659" lon="0.58917">
        <ele>115</ele>
        <time>2025-07-24T12:25:24.289Z</time>
      </trkpt>
      <trkpt lat="44.06659" lon="0.58919">
        <ele>115</ele>
        <time>2025-07-24T12:25:25.289Z</time>
      </trkpt>
      <trkpt lat="44.0666" lon="0.5892">
        <ele>115</ele>
        <time>2025-07-24T12:25:26.289Z</time>
      </trkpt>
      <trkpt lat="44.0666" lon="0.58922">
        <ele>115</ele>
        <time>2025-07-24T12:25:27.289Z</time>
      </trkpt>
      <trkpt lat="44.06661" lon="0.58923">
        <ele>115</ele>
        <time>2025-07-24T12:25:28.289Z</time>
      </trkpt>
      <trkpt lat="44.06661" lon="0.58925">
        <ele>114</ele>
        <time>2025-07-24T12:25:29.289Z</time>
      </trkpt>
      <trkpt lat="44.06661" lon="0.58926">
        <ele>114</ele>
        <time>2025-07-24T12:25:30.289Z</time>
      </trkpt>
      <trkpt lat="44.06662" lon="0.58928">
        <ele>115</ele>
        <time>2025-07-24T12:25:31.289Z</time>
      </trkpt>
      <trkpt lat="44.06662" lon="0.58929">
        <ele>115</ele>
        <time>2025-07-24T12:25:32.289Z</time>
      </trkpt>
      <trkpt lat="44.06663" lon="0.58931">
        <ele>115</ele>
        <time>2025-07-24T12:25:33.289Z</time>
      </trkpt>
      <trkpt lat="44.06663" lon="0.58932">
        <ele>115</ele>
        <time>2025-07-24T12:25:34.289Z</time>
      </trkpt>
      <trkpt lat="44.06664" lon="0.58934">
        <ele>115</ele>
        <time>2025-07-24T12:25:35.289Z</time>
      </trkpt>
      <trkpt lat="44.06665" lon="0.58935">
        <ele>115</ele>
        <time>2025-07-24T12:25:36.289Z</time>
      </trkpt>
      <trkpt lat="44.06665" lon="0.58936">
        <ele>115</ele>
        <time>2025-07-24T12:25:37.289Z</time>
      </trkpt>
      <trkpt lat="44.06666" lon="0.58938">
        <ele>115</ele>
        <time>2025-07-24T12:25:38.289Z</time>
      </trkpt>
      <trkpt lat="44.06666" lon="0.58939">
        <ele>115</ele>
        <time>2025-07-24T12:25:39.289Z</time>
      </trkpt>
      <trkpt lat="44.06666" lon="0.5894">
        <ele>114</ele>
        <time>2025-07-24T12:25:40.289Z</time>
      </trkpt>
      <trkpt lat="44.06667" lon="0.58942">
        <ele>114</ele>
        <time>2025-07-24T12:25:41.289Z</time>
      </trkpt>
      <trkpt lat="44.06668" lon="0.58943">
        <ele>114</ele>
        <time>2025-07-24T12:25:42.289Z</time>
      </trkpt>
      <trkpt lat="44.06668" lon="0.58944">
        <ele>114</ele>
        <time>2025-07-24T12:25:43.289Z</time>
      </trkpt>
      <trkpt lat="44.06669" lon="0.58946">
        <ele>114</ele>
        <time>2025-07-24T12:25:44.289Z</time>
      </trkpt>
      <trkpt lat="44.06669" lon="0.58948">
        <ele>114</ele>
        <time>2025-07-24T12:25:45.289Z</time>
      </trkpt>
      <trkpt lat="44.0667" lon="0.58949">
        <ele>114</ele>
        <time>2025-07-24T12:25:46.289Z</time>
      </trkpt>
      <trkpt lat="44.0667" lon="0.5895">
        <ele>114</ele>
        <time>2025-07-24T12:25:47.289Z</time>
      </trkpt>
      <trkpt lat="44.06671" lon="0.58952">
        <ele>114</ele>
        <time>2025-07-24T12:25:48.289Z</time>
      </trkpt>
      <trkpt lat="44.06672" lon="0.58953">
        <ele>114</ele>
        <time>2025-07-24T12:25:49.289Z</time>
      </trkpt>
      <trkpt lat="44.06672" lon="0.58954">
        <ele>114</ele>
        <time>2025-07-24T12:25:50.289Z</time>
      </trkpt>
      <trkpt lat="44.06673" lon="0.58956">
        <ele>115</ele>
        <time>2025-07-24T12:25:51.289Z</time>
      </trkpt>
      <trkpt lat="44.06673" lon="0.58957">
        <ele>115</ele>
        <time>2025-07-24T12:25:52.289Z</time>
      </trkpt>
      <trkpt lat="44.06674" lon="0.58959">
        <ele>115</ele>
        <time>2025-07-24T12:25:53.289Z</time>
      </trkpt>
      <trkpt lat="44.06675" lon="0.58961">
        <ele>115</ele>
        <time>2025-07-24T12:25:54.289Z</time>
      </trkpt>
      <trkpt lat="44.06675" lon="0.58962">
        <ele>115</ele>
        <time>2025-07-24T12:25:55.289Z</time>
      </trkpt>
      <trkpt lat="44.06676" lon="0.58964">
        <ele>114</ele>
        <time>2025-07-24T12:25:56.289Z</time>
      </trkpt>
      <trkpt lat="44.06677" lon="0.58965">
        <ele>114</ele>
        <time>2025-07-24T12:25:57.289Z</time>
      </trkpt>
      <trkpt lat="44.06678" lon="0.58967">
        <ele>113</ele>
        <time>2025-07-24T12:25:58.289Z</time>
      </trkpt>
      <trkpt lat="44.06678" lon="0.58968">
        <ele>113</ele>
        <time>2025-07-24T12:25:59.289Z</time>
      </trkpt>
      <trkpt lat="44.06679" lon="0.5897">
        <ele>113</ele>
        <time>2025-07-24T12:26:00.289Z</time>
      </trkpt>
      <trkpt lat="44.06679" lon="0.58971">
        <ele>113</ele>
        <time>2025-07-24T12:26:01.289Z</time>
      </trkpt>
      <trkpt lat="44.0668" lon="0.58972">
        <ele>113</ele>
        <time>2025-07-24T12:26:02.289Z</time>
      </trkpt>
      <trkpt lat="44.0668" lon="0.58974">
        <ele>113</ele>
        <time>2025-07-24T12:26:03.289Z</time>
      </trkpt>
      <trkpt lat="44.06681" lon="0.58975">
        <ele>112</ele>
        <time>2025-07-24T12:26:04.289Z</time>
      </trkpt>
      <trkpt lat="44.06681" lon="0.58977">
        <ele>112</ele>
        <time>2025-07-24T12:26:05.289Z</time>
      </trkpt>
      <trkpt lat="44.06683" lon="0.58979">
        <ele>112</ele>
        <time>2025-07-24T12:26:06.289Z</time>
      </trkpt>
      <trkpt lat="44.06683" lon="0.5898">
        <ele>111</ele>
        <time>2025-07-24T12:26:07.289Z</time>
      </trkpt>
      <trkpt lat="44.06684" lon="0.58982">
        <ele>111</ele>
        <time>2025-07-24T12:26:08.289Z</time>
      </trkpt>
      <trkpt lat="44.06685" lon="0.58984">
        <ele>111</ele>
        <time>2025-07-24T12:26:09.289Z</time>
      </trkpt>
      <trkpt lat="44.06686" lon="0.58985">
        <ele>111</ele>
        <time>2025-07-24T12:26:10.289Z</time>
      </trkpt>
      <trkpt lat="44.06686" lon="0.58987">
        <ele>111</ele>
        <time>2025-07-24T12:26:11.289Z</time>
      </trkpt>
      <trkpt lat="44.06687" lon="0.58988">
        <ele>111</ele>
        <time>2025-07-24T12:26:12.289Z</time>
      </trkpt>
      <trkpt lat="44.06687" lon="0.58989">
        <ele>111</ele>
        <time>2025-07-24T12:26:13.289Z</time>
      </trkpt>
      <trkpt lat="44.06688" lon="0.5899">
        <ele>111</ele>
        <time>2025-07-24T12:26:14.289Z</time>
      </trkpt>
      <trkpt lat="44.06688" lon="0.58992">
        <ele>110</ele>
        <time>2025-07-24T12:26:15.289Z</time>
      </trkpt>
      <trkpt lat="44.06689" lon="0.58993">
        <ele>110</ele>
        <time>2025-07-24T12:26:16.289Z</time>
      </trkpt>
      <trkpt lat="44.0669" lon="0.58995">
        <ele>110</ele>
        <time>2025-07-24T12:26:17.289Z</time>
      </trkpt>
      <trkpt lat="44.0669" lon="0.58996">
        <ele>110</ele>
        <time>2025-07-24T12:26:18.290Z</time>
      </trkpt>
      <trkpt lat="44.06691" lon="0.58998">
        <ele>110</ele>
        <time>2025-07-24T12:26:19.289Z</time>
      </trkpt>
      <trkpt lat="44.06692" lon="0.58999">
        <ele>109</ele>
        <time>2025-07-24T12:26:20.289Z</time>
      </trkpt>
      <trkpt lat="44.06692" lon="0.59001">
        <ele>109</ele>
        <time>2025-07-24T12:26:21.289Z</time>
      </trkpt>
      <trkpt lat="44.06693" lon="0.59002">
        <ele>109</ele>
        <time>2025-07-24T12:26:22.289Z</time>
      </trkpt>
      <trkpt lat="44.06694" lon="0.59003">
        <ele>109</ele>
        <time>2025-07-24T12:26:23.289Z</time>
      </trkpt>
      <trkpt lat="44.06695" lon="0.59005">
        <ele>109</ele>
        <time>2025-07-24T12:26:24.289Z</time>
      </trkpt>
      <trkpt lat="44.06696" lon="0.59006">
        <ele>109</ele>
        <time>2025-07-24T12:26:25.289Z</time>
      </trkpt>
      <trkpt lat="44.06697" lon="0.59007">
        <ele>109</ele>
        <time>2025-07-24T12:26:26.289Z</time>
      </trkpt>
      <trkpt lat="44.06698" lon="0.59008">
        <ele>109</ele>
        <time>2025-07-24T12:26:27.289Z</time>
      </trkpt>
      <trkpt lat="44.06699" lon="0.59009">
        <ele>110</ele>
        <time>2025-07-24T12:26:28.289Z</time>
      </trkpt>
      <trkpt lat="44.067" lon="0.5901">
        <ele>110</ele>
        <time>2025-07-24T12:26:29.289Z</time>
      </trkpt>
      <trkpt lat="44.067" lon="0.59011">
        <ele>110</ele>
        <time>2025-07-24T12:26:30.289Z</time>
      </trkpt>
      <trkpt lat="44.06701" lon="0.59012">
        <ele>110</ele>
        <time>2025-07-24T12:26:31.289Z</time>
      </trkpt>
      <trkpt lat="44.06702" lon="0.59014">
        <ele>110</ele>
        <time>2025-07-24T12:26:32.289Z</time>
      </trkpt>
      <trkpt lat="44.06703" lon="0.59015">
        <ele>111</ele>
        <time>2025-07-24T12:26:33.289Z</time>
      </trkpt>
      <trkpt lat="44.06704" lon="0.59016">
        <ele>111</ele>
        <time>2025-07-24T12:26:34.289Z</time>
      </trkpt>
      <trkpt lat="44.06705" lon="0.59017">
        <ele>111</ele>
        <time>2025-07-24T12:26:35.289Z</time>
      </trkpt>
      <trkpt lat="44.06706" lon="0.59018">
        <ele>111</ele>
        <time>2025-07-24T12:26:36.289Z</time>
      </trkpt>
      <trkpt lat="44.06707" lon="0.59019">
        <ele>110</ele>
        <time>2025-07-24T12:26:37.289Z</time>
      </trkpt>
      <trkpt lat="44.06708" lon="0.59021">
        <ele>110</ele>
        <time>2025-07-24T12:26:38.290Z</time>
      </trkpt>
      <trkpt lat="44.06709" lon="0.59022">
        <ele>110</ele>
        <time>2025-07-24T12:26:39.289Z</time>
      </trkpt>
      <trkpt lat="44.06709" lon="0.59023">
        <ele>110</ele>
        <time>2025-07-24T12:26:40.289Z</time>
      </trkpt>
      <trkpt lat="44.0671" lon="0.59025">
        <ele>110</ele>
        <time>2025-07-24T12:26:41.289Z</time>
      </trkpt>
      <trkpt lat="44.06711" lon="0.59026">
        <ele>110</ele>
        <time>2025-07-24T12:26:42.289Z</time>
      </trkpt>
      <trkpt lat="44.06712" lon="0.59027">
        <ele>110</ele>
        <time>2025-07-24T12:26:43.289Z</time>
      </trkpt>
      <trkpt lat="44.06713" lon="0.59029">
        <ele>110</ele>
        <time>2025-07-24T12:26:44.289Z</time>
      </trkpt>
      <trkpt lat="44.06714" lon="0.5903">
        <ele>110</ele>
        <time>2025-07-24T12:26:45.289Z</time>
      </trkpt>
      <trkpt lat="44.06714" lon="0.59031">
        <ele>109</ele>
        <time>2025-07-24T12:26:46.289Z</time>
      </trkpt>
      <trkpt lat="44.06715" lon="0.59032">
        <ele>109</ele>
        <time>2025-07-24T12:26:47.289Z</time>
      </trkpt>
      <trkpt lat="44.06716" lon="0.59033">
        <ele>108</ele>
        <time>2025-07-24T12:26:48.289Z</time>
      </trkpt>
      <trkpt lat="44.06716" lon="0.59035">
        <ele>108</ele>
        <time>2025-07-24T12:26:49.289Z</time>
      </trkpt>
      <trkpt lat="44.06717" lon="0.59036">
        <ele>108</ele>
        <time>2025-07-24T12:26:50.289Z</time>
      </trkpt>
      <trkpt lat="44.06718" lon="0.59037">
        <ele>107</ele>
        <time>2025-07-24T12:26:51.289Z</time>
      </trkpt>
      <trkpt lat="44.06719" lon="0.59038">
        <ele>107</ele>
        <time>2025-07-24T12:26:52.289Z</time>
      </trkpt>
      <trkpt lat="44.0672" lon="0.5904">
        <ele>107</ele>
        <time>2025-07-24T12:26:53.289Z</time>
      </trkpt>
      <trkpt lat="44.06721" lon="0.59041">
        <ele>107</ele>
        <time>2025-07-24T12:26:54.289Z</time>
      </trkpt>
      <trkpt lat="44.06722" lon="0.59042">
        <ele>107</ele>
        <time>2025-07-24T12:26:55.289Z</time>
      </trkpt>
      <trkpt lat="44.06723" lon="0.59044">
        <ele>107</ele>
        <time>2025-07-24T12:26:56.289Z</time>
      </trkpt>
      <trkpt lat="44.06724" lon="0.59045">
        <ele>108</ele>
        <time>2025-07-24T12:26:57.289Z</time>
      </trkpt>
      <trkpt lat="44.06725" lon="0.59046">
        <ele>108</ele>
        <time>2025-07-24T12:26:58.289Z</time>
      </trkpt>
      <trkpt lat="44.06726" lon="0.59048">
        <ele>108</ele>
        <time>2025-07-24T12:26:59.289Z</time>
      </trkpt>
      <trkpt lat="44.06727" lon="0.59049">
        <ele>108</ele>
        <time>2025-07-24T12:27:00.289Z</time>
      </trkpt>
      <trkpt lat="44.06728" lon="0.59049">
        <ele>108</ele>
        <time>2025-07-24T12:27:01.289Z</time>
      </trkpt>
      <trkpt lat="44.06729" lon="0.5905">
        <ele>107</ele>
        <time>2025-07-24T12:27:02.289Z</time>
      </trkpt>
      <trkpt lat="44.0673" lon="0.59051">
        <ele>107</ele>
        <time>2025-07-24T12:27:03.289Z</time>
      </trkpt>
      <trkpt lat="44.06731" lon="0.59051">
        <ele>107</ele>
        <time>2025-07-24T12:27:04.289Z</time>
      </trkpt>
      <trkpt lat="44.06732" lon="0.59052">
        <ele>107</ele>
        <time>2025-07-24T12:27:05.289Z</time>
      </trkpt>
      <trkpt lat="44.06733" lon="0.59053">
        <ele>107</ele>
        <time>2025-07-24T12:27:06.289Z</time>
      </trkpt>
      <trkpt lat="44.06734" lon="0.59053">
        <ele>107</ele>
        <time>2025-07-24T12:27:07.289Z</time>
      </trkpt>
      <trkpt lat="44.06735" lon="0.59054">
        <ele>108</ele>
        <time>2025-07-24T12:27:08.289Z</time>
      </trkpt>
      <trkpt lat="44.06736" lon="0.59055">
        <ele>108</ele>
        <time>2025-07-24T12:27:09.289Z</time>
      </trkpt>
      <trkpt lat="44.06737" lon="0.59055">
        <ele>107</ele>
        <time>2025-07-24T12:27:10.289Z</time>
      </trkpt>
      <trkpt lat="44.06739" lon="0.59056">
        <ele>107</ele>
        <time>2025-07-24T12:27:11.289Z</time>
      </trkpt>
      <trkpt lat="44.0674" lon="0.59056">
        <ele>107</ele>
        <time>2025-07-24T12:27:12.289Z</time>
      </trkpt>
      <trkpt lat="44.06741" lon="0.59056">
        <ele>107</ele>
        <time>2025-07-24T12:27:13.289Z</time>
      </trkpt>
      <trkpt lat="44.06742" lon="0.59057">
        <ele>107</ele>
        <time>2025-07-24T12:27:14.289Z</time>
      </trkpt>
      <trkpt lat="44.06744" lon="0.59057">
        <ele>107</ele>
        <time>2025-07-24T12:27:15.289Z</time>
      </trkpt>
      <trkpt lat="44.06745" lon="0.59057">
        <ele>106</ele>
        <time>2025-07-24T12:27:16.289Z</time>
      </trkpt>
      <trkpt lat="44.06746" lon="0.59058">
        <ele>106</ele>
        <time>2025-07-24T12:27:17.289Z</time>
      </trkpt>
      <trkpt lat="44.06747" lon="0.59058">
        <ele>106</ele>
        <time>2025-07-24T12:27:18.289Z</time>
      </trkpt>
      <trkpt lat="44.06748" lon="0.59059">
        <ele>106</ele>
        <time>2025-07-24T12:27:19.289Z</time>
      </trkpt>
      <trkpt lat="44.06749" lon="0.59059">
        <ele>106</ele>
        <time>2025-07-24T12:27:20.289Z</time>
      </trkpt>
      <trkpt lat="44.0675" lon="0.5906">
        <ele>106</ele>
        <time>2025-07-24T12:27:21.289Z</time>
      </trkpt>
      <trkpt lat="44.06751" lon="0.5906">
        <ele>106</ele>
        <time>2025-07-24T12:27:22.289Z</time>
      </trkpt>
      <trkpt lat="44.06753" lon="0.59061">
        <ele>106</ele>
        <time>2025-07-24T12:27:23.289Z</time>
      </trkpt>
      <trkpt lat="44.06754" lon="0.59061">
        <ele>105</ele>
        <time>2025-07-24T12:27:24.289Z</time>
      </trkpt>
      <trkpt lat="44.06755" lon="0.59062">
        <ele>105</ele>
        <time>2025-07-24T12:27:25.289Z</time>
      </trkpt>
      <trkpt lat="44.06756" lon="0.59063">
        <ele>105</ele>
        <time>2025-07-24T12:27:26.289Z</time>
      </trkpt>
      <trkpt lat="44.06757" lon="0.59063">
        <ele>105</ele>
        <time>2025-07-24T12:27:27.289Z</time>
      </trkpt>
      <trkpt lat="44.06759" lon="0.59063">
        <ele>104</ele>
        <time>2025-07-24T12:27:28.289Z</time>
      </trkpt>
      <trkpt lat="44.0676" lon="0.59064">
        <ele>104</ele>
        <time>2025-07-24T12:27:29.289Z</time>
      </trkpt>
      <trkpt lat="44.06761" lon="0.59064">
        <ele>104</ele>
        <time>2025-07-24T12:27:30.289Z</time>
      </trkpt>
      <trkpt lat="44.06763" lon="0.59065">
        <ele>104</ele>
        <time>2025-07-24T12:27:31.289Z</time>
      </trkpt>
      <trkpt lat="44.06764" lon="0.59065">
        <ele>104</ele>
        <time>2025-07-24T12:27:32.289Z</time>
      </trkpt>
      <trkpt lat="44.06765" lon="0.59065">
        <ele>104</ele>
        <time>2025-07-24T12:27:33.289Z</time>
      </trkpt>
      <trkpt lat="44.06766" lon="0.59066">
        <ele>104</ele>
        <time>2025-07-24T12:27:34.289Z</time>
      </trkpt>
      <trkpt lat="44.06767" lon="0.59066">
        <ele>104</ele>
        <time>2025-07-24T12:27:35.289Z</time>
      </trkpt>
      <trkpt lat="44.06768" lon="0.59066">
        <ele>104</ele>
        <time>2025-07-24T12:27:36.289Z</time>
      </trkpt>
      <trkpt lat="44.0677" lon="0.59067">
        <ele>104</ele>
        <time>2025-07-24T12:27:37.289Z</time>
      </trkpt>
      <trkpt lat="44.06771" lon="0.59068">
        <ele>103</ele>
        <time>2025-07-24T12:27:38.289Z</time>
      </trkpt>
      <trkpt lat="44.06772" lon="0.59068">
        <ele>103</ele>
        <time>2025-07-24T12:27:39.289Z</time>
      </trkpt>
      <trkpt lat="44.06774" lon="0.59069">
        <ele>102</ele>
        <time>2025-07-24T12:27:40.289Z</time>
      </trkpt>
      <trkpt lat="44.06775" lon="0.5907">
        <ele>102</ele>
        <time>2025-07-24T12:27:41.289Z</time>
      </trkpt>
      <trkpt lat="44.06776" lon="0.5907">
        <ele>101</ele>
        <time>2025-07-24T12:27:42.289Z</time>
      </trkpt>
      <trkpt lat="44.06777" lon="0.5907">
        <ele>101</ele>
        <time>2025-07-24T12:27:43.289Z</time>
      </trkpt>
      <trkpt lat="44.06778" lon="0.5907">
        <ele>101</ele>
        <time>2025-07-24T12:27:44.289Z</time>
      </trkpt>
      <trkpt lat="44.06779" lon="0.59071">
        <ele>101</ele>
        <time>2025-07-24T12:27:45.289Z</time>
      </trkpt>
      <trkpt lat="44.0678" lon="0.59071">
        <ele>101</ele>
        <time>2025-07-24T12:27:46.289Z</time>
      </trkpt>
      <trkpt lat="44.06781" lon="0.59071">
        <ele>101</ele>
        <time>2025-07-24T12:27:47.289Z</time>
      </trkpt>
      <trkpt lat="44.06782" lon="0.59071">
        <ele>101</ele>
        <time>2025-07-24T12:27:48.289Z</time>
      </trkpt>
      <trkpt lat="44.06783" lon="0.59071">
        <ele>102</ele>
        <time>2025-07-24T12:27:49.289Z</time>
      </trkpt>
      <trkpt lat="44.06784" lon="0.59071">
        <ele>102</ele>
        <time>2025-07-24T12:27:50.289Z</time>
      </trkpt>
      <trkpt lat="44.06785" lon="0.59071">
        <ele>102</ele>
        <time>2025-07-24T12:27:51.289Z</time>
      </trkpt>
      <trkpt lat="44.06786" lon="0.59072">
        <ele>103</ele>
        <time>2025-07-24T12:27:52.289Z</time>
      </trkpt>
      <trkpt lat="44.06787" lon="0.59072">
        <ele>103</ele>
        <time>2025-07-24T12:27:53.289Z</time>
      </trkpt>
      <trkpt lat="44.06788" lon="0.59071">
        <ele>104</ele>
        <time>2025-07-24T12:27:54.289Z</time>
      </trkpt>
      <trkpt lat="44.06789" lon="0.59071">
        <ele>104</ele>
        <time>2025-07-24T12:27:55.289Z</time>
      </trkpt>
      <trkpt lat="44.0679" lon="0.59071">
        <ele>104</ele>
        <time>2025-07-24T12:27:56.289Z</time>
      </trkpt>
      <trkpt lat="44.06792" lon="0.59071">
        <ele>104</ele>
        <time>2025-07-24T12:27:57.289Z</time>
      </trkpt>
      <trkpt lat="44.06793" lon="0.59071">
        <ele>104</ele>
        <time>2025-07-24T12:27:58.289Z</time>
      </trkpt>
      <trkpt lat="44.06795" lon="0.59071">
        <ele>103</ele>
        <time>2025-07-24T12:27:59.289Z</time>
      </trkpt>
      <trkpt lat="44.06797" lon="0.5907">
        <ele>103</ele>
        <time>2025-07-24T12:28:00.289Z</time>
      </trkpt>
      <trkpt lat="44.06798" lon="0.5907">
        <ele>103</ele>
        <time>2025-07-24T12:28:01.289Z</time>
      </trkpt>
      <trkpt lat="44.06799" lon="0.5907">
        <ele>102</ele>
        <time>2025-07-24T12:28:02.289Z</time>
      </trkpt>
      <trkpt lat="44.068" lon="0.59069">
        <ele>102</ele>
        <time>2025-07-24T12:28:03.289Z</time>
      </trkpt>
      <trkpt lat="44.06801" lon="0.59069">
        <ele>102</ele>
        <time>2025-07-24T12:28:04.289Z</time>
      </trkpt>
      <trkpt lat="44.06802" lon="0.59068">
        <ele>102</ele>
        <time>2025-07-24T12:28:05.289Z</time>
      </trkpt>
      <trkpt lat="44.06803" lon="0.59066">
        <ele>103</ele>
        <time>2025-07-24T12:28:06.289Z</time>
      </trkpt>
      <trkpt lat="44.06804" lon="0.59065">
        <ele>103</ele>
        <time>2025-07-24T12:28:07.289Z</time>
      </trkpt>
      <trkpt lat="44.06805" lon="0.59064">
        <ele>103</ele>
        <time>2025-07-24T12:28:08.289Z</time>
      </trkpt>
      <trkpt lat="44.06806" lon="0.59062">
        <ele>103</ele>
        <time>2025-07-24T12:28:09.289Z</time>
      </trkpt>
      <trkpt lat="44.06806" lon="0.59061">
        <ele>103</ele>
        <time>2025-07-24T12:28:10.289Z</time>
      </trkpt>
      <trkpt lat="44.06807" lon="0.5906">
        <ele>103</ele>
        <time>2025-07-24T12:28:11.289Z</time>
      </trkpt>
      <trkpt lat="44.06808" lon="0.59058">
        <ele>103</ele>
        <time>2025-07-24T12:28:12.289Z</time>
      </trkpt>
      <trkpt lat="44.06808" lon="0.59056">
        <ele>103</ele>
        <time>2025-07-24T12:28:13.289Z</time>
      </trkpt>
      <trkpt lat="44.06809" lon="0.59054">
        <ele>104</ele>
        <time>2025-07-24T12:28:14.289Z</time>
      </trkpt>
      <trkpt lat="44.0681" lon="0.59052">
        <ele>103</ele>
        <time>2025-07-24T12:28:15.289Z</time>
      </trkpt>
      <trkpt lat="44.0681" lon="0.5905">
        <ele>104</ele>
        <time>2025-07-24T12:28:16.289Z</time>
      </trkpt>
      <trkpt lat="44.06811" lon="0.59049">
        <ele>104</ele>
        <time>2025-07-24T12:28:17.289Z</time>
      </trkpt>
      <trkpt lat="44.06811" lon="0.59047">
        <ele>104</ele>
        <time>2025-07-24T12:28:18.289Z</time>
      </trkpt>
      <trkpt lat="44.06812" lon="0.59046">
        <ele>104</ele>
        <time>2025-07-24T12:28:19.289Z</time>
      </trkpt>
      <trkpt lat="44.06812" lon="0.59044">
        <ele>104</ele>
        <time>2025-07-24T12:28:20.289Z</time>
      </trkpt>
      <trkpt lat="44.06813" lon="0.59043">
        <ele>104</ele>
        <time>2025-07-24T12:28:21.289Z</time>
      </trkpt>
      <trkpt lat="44.06813" lon="0.59042">
        <ele>104</ele>
        <time>2025-07-24T12:28:22.289Z</time>
      </trkpt>
      <trkpt lat="44.06814" lon="0.5904">
        <ele>104</ele>
        <time>2025-07-24T12:28:23.289Z</time>
      </trkpt>
      <trkpt lat="44.06814" lon="0.59039">
        <ele>104</ele>
        <time>2025-07-24T12:28:24.289Z</time>
      </trkpt>
      <trkpt lat="44.06815" lon="0.59037">
        <ele>104</ele>
        <time>2025-07-24T12:28:25.289Z</time>
      </trkpt>
      <trkpt lat="44.06815" lon="0.59036">
        <ele>104</ele>
        <time>2025-07-24T12:28:26.289Z</time>
      </trkpt>
      <trkpt lat="44.06815" lon="0.59034">
        <ele>104</ele>
        <time>2025-07-24T12:28:27.289Z</time>
      </trkpt>
      <trkpt lat="44.06816" lon="0.59033">
        <ele>105</ele>
        <time>2025-07-24T12:28:28.289Z</time>
      </trkpt>
      <trkpt lat="44.06817" lon="0.59031">
        <ele>105</ele>
        <time>2025-07-24T12:28:29.289Z</time>
      </trkpt>
      <trkpt lat="44.06817" lon="0.59029">
        <ele>105</ele>
        <time>2025-07-24T12:28:30.289Z</time>
      </trkpt>
      <trkpt lat="44.06818" lon="0.59027">
        <ele>105</ele>
        <time>2025-07-24T12:28:31.289Z</time>
      </trkpt>
      <trkpt lat="44.06819" lon="0.59026">
        <ele>106</ele>
        <time>2025-07-24T12:28:32.289Z</time>
      </trkpt>
      <trkpt lat="44.06819" lon="0.59024">
        <ele>106</ele>
        <time>2025-07-24T12:28:33.289Z</time>
      </trkpt>
      <trkpt lat="44.0682" lon="0.59023">
        <ele>106</ele>
        <time>2025-07-24T12:28:34.289Z</time>
      </trkpt>
      <trkpt lat="44.0682" lon="0.59021">
        <ele>106</ele>
        <time>2025-07-24T12:28:35.289Z</time>
      </trkpt>
      <trkpt lat="44.06821" lon="0.5902">
        <ele>106</ele>
        <time>2025-07-24T12:28:36.289Z</time>
      </trkpt>
      <trkpt lat="44.06822" lon="0.59018">
        <ele>106</ele>
        <time>2025-07-24T12:28:37.289Z</time>
      </trkpt>
      <trkpt lat="44.06822" lon="0.59017">
        <ele>106</ele>
        <time>2025-07-24T12:28:38.290Z</time>
      </trkpt>
      <trkpt lat="44.06823" lon="0.59015">
        <ele>106</ele>
        <time>2025-07-24T12:28:39.289Z</time>
      </trkpt>
      <trkpt lat="44.06824" lon="0.59014">
        <ele>106</ele>
        <time>2025-07-24T12:28:40.289Z</time>
      </trkpt>
      <trkpt lat="44.06824" lon="0.59012">
        <ele>106</ele>
        <time>2025-07-24T12:28:41.289Z</time>
      </trkpt>
      <trkpt lat="44.06825" lon="0.5901">
        <ele>106</ele>
        <time>2025-07-24T12:28:42.289Z</time>
      </trkpt>
      <trkpt lat="44.06826" lon="0.59009">
        <ele>106</ele>
        <time>2025-07-24T12:28:43.289Z</time>
      </trkpt>
      <trkpt lat="44.06826" lon="0.59007">
        <ele>106</ele>
        <time>2025-07-24T12:28:44.289Z</time>
      </trkpt>
      <trkpt lat="44.06827" lon="0.59005">
        <ele>106</ele>
        <time>2025-07-24T12:28:45.289Z</time>
      </trkpt>
      <trkpt lat="44.06828" lon="0.59004">
        <ele>106</ele>
        <time>2025-07-24T12:28:46.289Z</time>
      </trkpt>
      <trkpt lat="44.06828" lon="0.59002">
        <ele>106</ele>
        <time>2025-07-24T12:28:47.289Z</time>
      </trkpt>
      <trkpt lat="44.06829" lon="0.59001">
        <ele>106</ele>
        <time>2025-07-24T12:28:48.289Z</time>
      </trkpt>
      <trkpt lat="44.06829" lon="0.59">
        <ele>106</ele>
        <time>2025-07-24T12:28:49.289Z</time>
      </trkpt>
      <trkpt lat="44.0683" lon="0.58999">
        <ele>106</ele>
        <time>2025-07-24T12:28:50.289Z</time>
      </trkpt>
      <trkpt lat="44.06831" lon="0.58998">
        <ele>105</ele>
        <time>2025-07-24T12:28:51.289Z</time>
      </trkpt>
      <trkpt lat="44.06832" lon="0.58996">
        <ele>105</ele>
        <time>2025-07-24T12:28:52.289Z</time>
      </trkpt>
      <trkpt lat="44.06833" lon="0.58995">
        <ele>105</ele>
        <time>2025-07-24T12:28:53.289Z</time>
      </trkpt>
      <trkpt lat="44.06834" lon="0.58993">
        <ele>105</ele>
        <time>2025-07-24T12:28:54.289Z</time>
      </trkpt>
      <trkpt lat="44.06834" lon="0.58992">
        <ele>105</ele>
        <time>2025-07-24T12:28:55.289Z</time>
      </trkpt>
      <trkpt lat="44.06835" lon="0.5899">
        <ele>105</ele>
        <time>2025-07-24T12:28:56.289Z</time>
      </trkpt>
      <trkpt lat="44.06836" lon="0.58989">
        <ele>105</ele>
        <time>2025-07-24T12:28:57.289Z</time>
      </trkpt>
      <trkpt lat="44.06836" lon="0.58988">
        <ele>105</ele>
        <time>2025-07-24T12:28:58.289Z</time>
      </trkpt>
      <trkpt lat="44.06837" lon="0.58987">
        <ele>105</ele>
        <time>2025-07-24T12:28:59.289Z</time>
      </trkpt>
      <trkpt lat="44.06838" lon="0.58985">
        <ele>105</ele>
        <time>2025-07-24T12:29:00.289Z</time>
      </trkpt>
      <trkpt lat="44.06839" lon="0.58984">
        <ele>104</ele>
        <time>2025-07-24T12:29:01.289Z</time>
      </trkpt>
      <trkpt lat="44.06839" lon="0.58982">
        <ele>104</ele>
        <time>2025-07-24T12:29:02.289Z</time>
      </trkpt>
      <trkpt lat="44.0684" lon="0.58981">
        <ele>104</ele>
        <time>2025-07-24T12:29:03.289Z</time>
      </trkpt>
      <trkpt lat="44.06841" lon="0.58979">
        <ele>104</ele>
        <time>2025-07-24T12:29:04.289Z</time>
      </trkpt>
      <trkpt lat="44.06842" lon="0.58978">
        <ele>104</ele>
        <time>2025-07-24T12:29:05.289Z</time>
      </trkpt>
      <trkpt lat="44.06843" lon="0.58977">
        <ele>104</ele>
        <time>2025-07-24T12:29:06.289Z</time>
      </trkpt>
      <trkpt lat="44.06843" lon="0.58975">
        <ele>104</ele>
        <time>2025-07-24T12:29:07.289Z</time>
      </trkpt>
      <trkpt lat="44.06844" lon="0.58974">
        <ele>104</ele>
        <time>2025-07-24T12:29:08.289Z</time>
      </trkpt>
      <trkpt lat="44.06845" lon="0.58973">
        <ele>104</ele>
        <time>2025-07-24T12:29:09.289Z</time>
      </trkpt>
      <trkpt lat="44.06846" lon="0.58971">
        <ele>104</ele>
        <time>2025-07-24T12:29:10.289Z</time>
      </trkpt>
      <trkpt lat="44.06847" lon="0.5897">
        <ele>104</ele>
        <time>2025-07-24T12:29:11.289Z</time>
      </trkpt>
      <trkpt lat="44.06848" lon="0.58968">
        <ele>104</ele>
        <time>2025-07-24T12:29:12.289Z</time>
      </trkpt>
      <trkpt lat="44.06848" lon="0.58967">
        <ele>104</ele>
        <time>2025-07-24T12:29:13.289Z</time>
      </trkpt>
      <trkpt lat="44.06849" lon="0.58966">
        <ele>104</ele>
        <time>2025-07-24T12:29:14.289Z</time>
      </trkpt>
      <trkpt lat="44.0685" lon="0.58965">
        <ele>105</ele>
        <time>2025-07-24T12:29:15.289Z</time>
      </trkpt>
      <trkpt lat="44.06851" lon="0.58964">
        <ele>105</ele>
        <time>2025-07-24T12:29:16.289Z</time>
      </trkpt>
      <trkpt lat="44.06852" lon="0.58963">
        <ele>106</ele>
        <time>2025-07-24T12:29:17.289Z</time>
      </trkpt>
      <trkpt lat="44.06853" lon="0.58961">
        <ele>106</ele>
        <time>2025-07-24T12:29:18.289Z</time>
      </trkpt>
      <trkpt lat="44.06853" lon="0.5896">
        <ele>106</ele>
        <time>2025-07-24T12:29:19.289Z</time>
      </trkpt>
      <trkpt lat="44.06854" lon="0.58959">
        <ele>106</ele>
        <time>2025-07-24T12:29:20.289Z</time>
      </trkpt>
      <trkpt lat="44.06855" lon="0.58957">
        <ele>106</ele>
        <time>2025-07-24T12:29:21.289Z</time>
      </trkpt>
      <trkpt lat="44.06856" lon="0.58956">
        <ele>105</ele>
        <time>2025-07-24T12:29:22.289Z</time>
      </trkpt>
      <trkpt lat="44.06856" lon="0.58955">
        <ele>105</ele>
        <time>2025-07-24T12:29:23.289Z</time>
      </trkpt>
      <trkpt lat="44.06857" lon="0.58954">
        <ele>105</ele>
        <time>2025-07-24T12:29:24.289Z</time>
      </trkpt>
      <trkpt lat="44.06858" lon="0.58952">
        <ele>105</ele>
        <time>2025-07-24T12:29:25.289Z</time>
      </trkpt>
      <trkpt lat="44.06859" lon="0.58951">
        <ele>105</ele>
        <time>2025-07-24T12:29:26.289Z</time>
      </trkpt>
      <trkpt lat="44.0686" lon="0.5895">
        <ele>106</ele>
        <time>2025-07-24T12:29:27.289Z</time>
      </trkpt>
      <trkpt lat="44.06861" lon="0.58949">
        <ele>106</ele>
        <time>2025-07-24T12:29:28.289Z</time>
      </trkpt>
      <trkpt lat="44.06862" lon="0.58948">
        <ele>106</ele>
        <time>2025-07-24T12:29:29.290Z</time>
      </trkpt>
      <trkpt lat="44.06863" lon="0.58946">
        <ele>106</ele>
        <time>2025-07-24T12:29:30.289Z</time>
      </trkpt>
      <trkpt lat="44.06864" lon="0.58945">
        <ele>106</ele>
        <time>2025-07-24T12:29:31.289Z</time>
      </trkpt>
      <trkpt lat="44.06865" lon="0.58945">
        <ele>106</ele>
        <time>2025-07-24T12:29:32.289Z</time>
      </trkpt>
      <trkpt lat="44.06866" lon="0.58944">
        <ele>106</ele>
        <time>2025-07-24T12:29:33.289Z</time>
      </trkpt>
      <trkpt lat="44.06867" lon="0.58943">
        <ele>106</ele>
        <time>2025-07-24T12:29:34.289Z</time>
      </trkpt>
      <trkpt lat="44.06868" lon="0.58942">
        <ele>106</ele>
        <time>2025-07-24T12:29:35.289Z</time>
      </trkpt>
      <trkpt lat="44.06869" lon="0.58941">
        <ele>106</ele>
        <time>2025-07-24T12:29:36.289Z</time>
      </trkpt>
      <trkpt lat="44.06871" lon="0.58941">
        <ele>106</ele>
        <time>2025-07-24T12:29:37.289Z</time>
      </trkpt>
      <trkpt lat="44.06872" lon="0.5894">
        <ele>106</ele>
        <time>2025-07-24T12:29:38.289Z</time>
      </trkpt>
      <trkpt lat="44.06873" lon="0.5894">
        <ele>106</ele>
        <time>2025-07-24T12:29:39.289Z</time>
      </trkpt>
      <trkpt lat="44.06875" lon="0.58939">
        <ele>106</ele>
        <time>2025-07-24T12:29:40.289Z</time>
      </trkpt>
      <trkpt lat="44.06876" lon="0.58939">
        <ele>105</ele>
        <time>2025-07-24T12:29:41.289Z</time>
      </trkpt>
      <trkpt lat="44.06877" lon="0.58939">
        <ele>105</ele>
        <time>2025-07-24T12:29:42.289Z</time>
      </trkpt>
      <trkpt lat="44.06878" lon="0.58939">
        <ele>105</ele>
        <time>2025-07-24T12:29:43.289Z</time>
      </trkpt>
      <trkpt lat="44.06879" lon="0.58939">
        <ele>104</ele>
        <time>2025-07-24T12:29:44.289Z</time>
      </trkpt>
      <trkpt lat="44.0688" lon="0.58939">
        <ele>104</ele>
        <time>2025-07-24T12:29:45.289Z</time>
      </trkpt>
      <trkpt lat="44.06881" lon="0.58939">
        <ele>104</ele>
        <time>2025-07-24T12:29:46.289Z</time>
      </trkpt>
      <trkpt lat="44.06882" lon="0.58939">
        <ele>103</ele>
        <time>2025-07-24T12:29:47.289Z</time>
      </trkpt>
      <trkpt lat="44.06883" lon="0.58939">
        <ele>104</ele>
        <time>2025-07-24T12:29:48.289Z</time>
      </trkpt>
      <trkpt lat="44.06884" lon="0.58939">
        <ele>104</ele>
        <time>2025-07-24T12:29:49.289Z</time>
      </trkpt>
      <trkpt lat="44.06886" lon="0.58939">
        <ele>104</ele>
        <time>2025-07-24T12:29:50.289Z</time>
      </trkpt>
      <trkpt lat="44.06887" lon="0.5894">
        <ele>104</ele>
        <time>2025-07-24T12:29:51.289Z</time>
      </trkpt>
      <trkpt lat="44.06889" lon="0.5894">
        <ele>104</ele>
        <time>2025-07-24T12:29:52.289Z</time>
      </trkpt>
      <trkpt lat="44.0689" lon="0.58941">
        <ele>105</ele>
        <time>2025-07-24T12:29:53.289Z</time>
      </trkpt>
      <trkpt lat="44.06891" lon="0.58941">
        <ele>105</ele>
        <time>2025-07-24T12:29:54.289Z</time>
      </trkpt>
      <trkpt lat="44.06892" lon="0.58941">
        <ele>105</ele>
        <time>2025-07-24T12:29:55.289Z</time>
      </trkpt>
      <trkpt lat="44.06893" lon="0.58942">
        <ele>105</ele>
        <time>2025-07-24T12:29:56.289Z</time>
      </trkpt>
      <trkpt lat="44.06894" lon="0.58942">
        <ele>105</ele>
        <time>2025-07-24T12:29:57.289Z</time>
      </trkpt>
      <trkpt lat="44.06896" lon="0.58943">
        <ele>104</ele>
        <time>2025-07-24T12:29:58.289Z</time>
      </trkpt>
      <trkpt lat="44.06897" lon="0.58943">
        <ele>104</ele>
        <time>2025-07-24T12:29:59.289Z</time>
      </trkpt>
      <trkpt lat="44.06898" lon="0.58944">
        <ele>103</ele>
        <time>2025-07-24T12:30:00.289Z</time>
      </trkpt>
      <trkpt lat="44.06899" lon="0.58945">
        <ele>103</ele>
        <time>2025-07-24T12:30:01.289Z</time>
      </trkpt>
      <trkpt lat="44.069" lon="0.58945">
        <ele>103</ele>
        <time>2025-07-24T12:30:02.289Z</time>
      </trkpt>
      <trkpt lat="44.06901" lon="0.58946">
        <ele>103</ele>
        <time>2025-07-24T12:30:03.289Z</time>
      </trkpt>
      <trkpt lat="44.06902" lon="0.58947">
        <ele>103</ele>
        <time>2025-07-24T12:30:04.289Z</time>
      </trkpt>
      <trkpt lat="44.06903" lon="0.58948">
        <ele>102</ele>
        <time>2025-07-24T12:30:05.289Z</time>
      </trkpt>
      <trkpt lat="44.06905" lon="0.58949">
        <ele>102</ele>
        <time>2025-07-24T12:30:06.289Z</time>
      </trkpt>
      <trkpt lat="44.06906" lon="0.5895">
        <ele>101</ele>
        <time>2025-07-24T12:30:07.289Z</time>
      </trkpt>
      <trkpt lat="44.06907" lon="0.58951">
        <ele>101</ele>
        <time>2025-07-24T12:30:08.289Z</time>
      </trkpt>
      <trkpt lat="44.06909" lon="0.58952">
        <ele>101</ele>
        <time>2025-07-24T12:30:09.289Z</time>
      </trkpt>
      <trkpt lat="44.0691" lon="0.58952">
        <ele>101</ele>
        <time>2025-07-24T12:30:10.289Z</time>
      </trkpt>
      <trkpt lat="44.06911" lon="0.58953">
        <ele>102</ele>
        <time>2025-07-24T12:30:11.289Z</time>
      </trkpt>
      <trkpt lat="44.06912" lon="0.58954">
        <ele>102</ele>
        <time>2025-07-24T12:30:12.289Z</time>
      </trkpt>
      <trkpt lat="44.06913" lon="0.58955">
        <ele>102</ele>
        <time>2025-07-24T12:30:13.289Z</time>
      </trkpt>
      <trkpt lat="44.06914" lon="0.58955">
        <ele>102</ele>
        <time>2025-07-24T12:30:14.289Z</time>
      </trkpt>
      <trkpt lat="44.06915" lon="0.58956">
        <ele>103</ele>
        <time>2025-07-24T12:30:15.289Z</time>
      </trkpt>
      <trkpt lat="44.06916" lon="0.58957">
        <ele>102</ele>
        <time>2025-07-24T12:30:16.289Z</time>
      </trkpt>
      <trkpt lat="44.06917" lon="0.58958">
        <ele>102</ele>
        <time>2025-07-24T12:30:17.289Z</time>
      </trkpt>
      <trkpt lat="44.06918" lon="0.58958">
        <ele>101</ele>
        <time>2025-07-24T12:30:18.289Z</time>
      </trkpt>
      <trkpt lat="44.06919" lon="0.58959">
        <ele>101</ele>
        <time>2025-07-24T12:30:19.289Z</time>
      </trkpt>
      <trkpt lat="44.0692" lon="0.5896">
        <ele>100</ele>
        <time>2025-07-24T12:30:20.289Z</time>
      </trkpt>
      <trkpt lat="44.06921" lon="0.5896">
        <ele>100</ele>
        <time>2025-07-24T12:30:21.289Z</time>
      </trkpt>
      <trkpt lat="44.06923" lon="0.58961">
        <ele>99</ele>
        <time>2025-07-24T12:30:22.289Z</time>
      </trkpt>
      <trkpt lat="44.06924" lon="0.58962">
        <ele>99</ele>
        <time>2025-07-24T12:30:23.289Z</time>
      </trkpt>
      <trkpt lat="44.06925" lon="0.58963">
        <ele>99</ele>
        <time>2025-07-24T12:30:24.289Z</time>
      </trkpt>
      <trkpt lat="44.06926" lon="0.58964">
        <ele>98</ele>
        <time>2025-07-24T12:30:25.289Z</time>
      </trkpt>
      <trkpt lat="44.06928" lon="0.58965">
        <ele>98</ele>
        <time>2025-07-24T12:30:26.289Z</time>
      </trkpt>
      <trkpt lat="44.06928" lon="0.58966">
        <ele>98</ele>
        <time>2025-07-24T12:30:27.289Z</time>
      </trkpt>
      <trkpt lat="44.06929" lon="0.58966">
        <ele>99</ele>
        <time>2025-07-24T12:30:28.289Z</time>
      </trkpt>
      <trkpt lat="44.0693" lon="0.58967">
        <ele>99</ele>
        <time>2025-07-24T12:30:29.290Z</time>
      </trkpt>
      <trkpt lat="44.06932" lon="0.58968">
        <ele>100</ele>
        <time>2025-07-24T12:30:30.289Z</time>
      </trkpt>
      <trkpt lat="44.06933" lon="0.58968">
        <ele>100</ele>
        <time>2025-07-24T12:30:31.289Z</time>
      </trkpt>
      <trkpt lat="44.06934" lon="0.58969">
        <ele>100</ele>
        <time>2025-07-24T12:30:32.289Z</time>
      </trkpt>
      <trkpt lat="44.06935" lon="0.5897">
        <ele>101</ele>
        <time>2025-07-24T12:30:33.289Z</time>
      </trkpt>
      <trkpt lat="44.06936" lon="0.5897">
        <ele>101</ele>
        <time>2025-07-24T12:30:34.289Z</time>
      </trkpt>
      <trkpt lat="44.06937" lon="0.58971">
        <ele>100</ele>
        <time>2025-07-24T12:30:35.289Z</time>
      </trkpt>
      <trkpt lat="44.06938" lon="0.58972">
        <ele>100</ele>
        <time>2025-07-24T12:30:36.289Z</time>
      </trkpt>
      <trkpt lat="44.0694" lon="0.58973">
        <ele>100</ele>
        <time>2025-07-24T12:30:37.289Z</time>
      </trkpt>
      <trkpt lat="44.06941" lon="0.58973">
        <ele>99</ele>
        <time>2025-07-24T12:30:38.289Z</time>
      </trkpt>
      <trkpt lat="44.06942" lon="0.58974">
        <ele>99</ele>
        <time>2025-07-24T12:30:39.289Z</time>
      </trkpt>
      <trkpt lat="44.06944" lon="0.58975">
        <ele>98</ele>
        <time>2025-07-24T12:30:40.289Z</time>
      </trkpt>
      <trkpt lat="44.06945" lon="0.58976">
        <ele>98</ele>
        <time>2025-07-24T12:30:41.289Z</time>
      </trkpt>
      <trkpt lat="44.06946" lon="0.58977">
        <ele>98</ele>
        <time>2025-07-24T12:30:42.289Z</time>
      </trkpt>
      <trkpt lat="44.06948" lon="0.58977">
        <ele>97</ele>
        <time>2025-07-24T12:30:43.289Z</time>
      </trkpt>
      <trkpt lat="44.06948" lon="0.58978">
        <ele>97</ele>
        <time>2025-07-24T12:30:44.289Z</time>
      </trkpt>
      <trkpt lat="44.06949" lon="0.58979">
        <ele>97</ele>
        <time>2025-07-24T12:30:45.289Z</time>
      </trkpt>
      <trkpt lat="44.0695" lon="0.58979">
        <ele>97</ele>
        <time>2025-07-24T12:30:46.289Z</time>
      </trkpt>
      <trkpt lat="44.06951" lon="0.5898">
        <ele>98</ele>
        <time>2025-07-24T12:30:47.289Z</time>
      </trkpt>
      <trkpt lat="44.06952" lon="0.58981">
        <ele>98</ele>
        <time>2025-07-24T12:30:48.289Z</time>
      </trkpt>
      <trkpt lat="44.06954" lon="0.58981">
        <ele>98</ele>
        <time>2025-07-24T12:30:49.289Z</time>
      </trkpt>
      <trkpt lat="44.06955" lon="0.58982">
        <ele>98</ele>
        <time>2025-07-24T12:30:50.289Z</time>
      </trkpt>
      <trkpt lat="44.06956" lon="0.58983">
        <ele>98</ele>
        <time>2025-07-24T12:30:51.289Z</time>
      </trkpt>
      <trkpt lat="44.06957" lon="0.58984">
        <ele>97</ele>
        <time>2025-07-24T12:30:52.289Z</time>
      </trkpt>
      <trkpt lat="44.06959" lon="0.58984">
        <ele>97</ele>
        <time>2025-07-24T12:30:53.289Z</time>
      </trkpt>
      <trkpt lat="44.0696" lon="0.58985">
        <ele>97</ele>
        <time>2025-07-24T12:30:54.289Z</time>
      </trkpt>
      <trkpt lat="44.06961" lon="0.58985">
        <ele>97</ele>
        <time>2025-07-24T12:30:55.289Z</time>
      </trkpt>
      <trkpt lat="44.06963" lon="0.58986">
        <ele>97</ele>
        <time>2025-07-24T12:30:56.289Z</time>
      </trkpt>
      <trkpt lat="44.06964" lon="0.58986">
        <ele>97</ele>
        <time>2025-07-24T12:30:57.289Z</time>
      </trkpt>
      <trkpt lat="44.06965" lon="0.58987">
        <ele>98</ele>
        <time>2025-07-24T12:30:58.289Z</time>
      </trkpt>
      <trkpt lat="44.06966" lon="0.58987">
        <ele>98</ele>
        <time>2025-07-24T12:30:59.289Z</time>
      </trkpt>
      <trkpt lat="44.06967" lon="0.58987">
        <ele>98</ele>
        <time>2025-07-24T12:31:00.289Z</time>
      </trkpt>
      <trkpt lat="44.06969" lon="0.58988">
        <ele>98</ele>
        <time>2025-07-24T12:31:01.289Z</time>
      </trkpt>
      <trkpt lat="44.06969" lon="0.58988">
        <ele>98</ele>
        <time>2025-07-24T12:31:02.289Z</time>
      </trkpt>
      <trkpt lat="44.06971" lon="0.58988">
        <ele>98</ele>
        <time>2025-07-24T12:31:03.289Z</time>
      </trkpt>
      <trkpt lat="44.06972" lon="0.58989">
        <ele>98</ele>
        <time>2025-07-24T12:31:04.289Z</time>
      </trkpt>
      <trkpt lat="44.06973" lon="0.58989">
        <ele>98</ele>
        <time>2025-07-24T12:31:05.289Z</time>
      </trkpt>
      <trkpt lat="44.06974" lon="0.58989">
        <ele>98</ele>
        <time>2025-07-24T12:31:06.289Z</time>
      </trkpt>
      <trkpt lat="44.06976" lon="0.5899">
        <ele>98</ele>
        <time>2025-07-24T12:31:07.289Z</time>
      </trkpt>
      <trkpt lat="44.06977" lon="0.5899">
        <ele>98</ele>
        <time>2025-07-24T12:31:08.289Z</time>
      </trkpt>
      <trkpt lat="44.06978" lon="0.5899">
        <ele>97</ele>
        <time>2025-07-24T12:31:09.289Z</time>
      </trkpt>
      <trkpt lat="44.06979" lon="0.58991">
        <ele>97</ele>
        <time>2025-07-24T12:31:10.289Z</time>
      </trkpt>
      <trkpt lat="44.06981" lon="0.58991">
        <ele>97</ele>
        <time>2025-07-24T12:31:11.289Z</time>
      </trkpt>
      <trkpt lat="44.06982" lon="0.58991">
        <ele>97</ele>
        <time>2025-07-24T12:31:12.289Z</time>
      </trkpt>
      <trkpt lat="44.06983" lon="0.58991">
        <ele>97</ele>
        <time>2025-07-24T12:31:13.289Z</time>
      </trkpt>
      <trkpt lat="44.06985" lon="0.58992">
        <ele>97</ele>
        <time>2025-07-24T12:31:14.289Z</time>
      </trkpt>
      <trkpt lat="44.06986" lon="0.58992">
        <ele>97</ele>
        <time>2025-07-24T12:31:15.289Z</time>
      </trkpt>
      <trkpt lat="44.06987" lon="0.58993">
        <ele>97</ele>
        <time>2025-07-24T12:31:16.289Z</time>
      </trkpt>
      <trkpt lat="44.06988" lon="0.58993">
        <ele>98</ele>
        <time>2025-07-24T12:31:17.289Z</time>
      </trkpt>
      <trkpt lat="44.06989" lon="0.58994">
        <ele>98</ele>
        <time>2025-07-24T12:31:18.289Z</time>
      </trkpt>
      <trkpt lat="44.0699" lon="0.58994">
        <ele>98</ele>
        <time>2025-07-24T12:31:19.289Z</time>
      </trkpt>
      <trkpt lat="44.06992" lon="0.58995">
        <ele>98</ele>
        <time>2025-07-24T12:31:20.289Z</time>
      </trkpt>
      <trkpt lat="44.06993" lon="0.58995">
        <ele>99</ele>
        <time>2025-07-24T12:31:21.289Z</time>
      </trkpt>
      <trkpt lat="44.06994" lon="0.58995">
        <ele>99</ele>
        <time>2025-07-24T12:31:22.289Z</time>
      </trkpt>
      <trkpt lat="44.06996" lon="0.58996">
        <ele>99</ele>
        <time>2025-07-24T12:31:23.289Z</time>
      </trkpt>
      <trkpt lat="44.06997" lon="0.58996">
        <ele>100</ele>
        <time>2025-07-24T12:31:24.289Z</time>
      </trkpt>
      <trkpt lat="44.06998" lon="0.58996">
        <ele>100</ele>
        <time>2025-07-24T12:31:25.289Z</time>
      </trkpt>
      <trkpt lat="44.06999" lon="0.58996">
        <ele>100</ele>
        <time>2025-07-24T12:31:26.289Z</time>
      </trkpt>
      <trkpt lat="44.07001" lon="0.58996">
        <ele>100</ele>
        <time>2025-07-24T12:31:27.289Z</time>
      </trkpt>
      <trkpt lat="44.07002" lon="0.58997">
        <ele>101</ele>
        <time>2025-07-24T12:31:28.289Z</time>
      </trkpt>
      <trkpt lat="44.07003" lon="0.58997">
        <ele>101</ele>
        <time>2025-07-24T12:31:29.289Z</time>
      </trkpt>
      <trkpt lat="44.07004" lon="0.58997">
        <ele>101</ele>
        <time>2025-07-24T12:31:30.289Z</time>
      </trkpt>
      <trkpt lat="44.07005" lon="0.58998">
        <ele>102</ele>
        <time>2025-07-24T12:31:31.289Z</time>
      </trkpt>
      <trkpt lat="44.07006" lon="0.58997">
        <ele>102</ele>
        <time>2025-07-24T12:31:32.289Z</time>
      </trkpt>
      <trkpt lat="44.07007" lon="0.58997">
        <ele>102</ele>
        <time>2025-07-24T12:31:33.289Z</time>
      </trkpt>
      <trkpt lat="44.07008" lon="0.58997">
        <ele>103</ele>
        <time>2025-07-24T12:31:34.289Z</time>
      </trkpt>
      <trkpt lat="44.0701" lon="0.58997">
        <ele>103</ele>
        <time>2025-07-24T12:31:35.289Z</time>
      </trkpt>
      <trkpt lat="44.07011" lon="0.58997">
        <ele>103</ele>
        <time>2025-07-24T12:31:36.289Z</time>
      </trkpt>
      <trkpt lat="44.07012" lon="0.58997">
        <ele>102</ele>
        <time>2025-07-24T12:31:37.289Z</time>
      </trkpt>
      <trkpt lat="44.07013" lon="0.58997">
        <ele>102</ele>
        <time>2025-07-24T12:31:38.289Z</time>
      </trkpt>
      <trkpt lat="44.07015" lon="0.58996">
        <ele>102</ele>
        <time>2025-07-24T12:31:39.289Z</time>
      </trkpt>
      <trkpt lat="44.07016" lon="0.58996">
        <ele>102</ele>
        <time>2025-07-24T12:31:40.289Z</time>
      </trkpt>
      <trkpt lat="44.07017" lon="0.58996">
        <ele>101</ele>
        <time>2025-07-24T12:31:41.289Z</time>
      </trkpt>
      <trkpt lat="44.07019" lon="0.58997">
        <ele>101</ele>
        <time>2025-07-24T12:31:42.289Z</time>
      </trkpt>
      <trkpt lat="44.0702" lon="0.58997">
        <ele>101</ele>
        <time>2025-07-24T12:31:43.289Z</time>
      </trkpt>
      <trkpt lat="44.07021" lon="0.58997">
        <ele>101</ele>
        <time>2025-07-24T12:31:44.289Z</time>
      </trkpt>
      <trkpt lat="44.07023" lon="0.58997">
        <ele>101</ele>
        <time>2025-07-24T12:31:45.289Z</time>
      </trkpt>
      <trkpt lat="44.07024" lon="0.58997">
        <ele>101</ele>
        <time>2025-07-24T12:31:46.289Z</time>
      </trkpt>
      <trkpt lat="44.07025" lon="0.58997">
        <ele>101</ele>
        <time>2025-07-24T12:31:47.289Z</time>
      </trkpt>
      <trkpt lat="44.07026" lon="0.58997">
        <ele>101</ele>
        <time>2025-07-24T12:31:48.289Z</time>
      </trkpt>
      <trkpt lat="44.07027" lon="0.58998">
        <ele>101</ele>
        <time>2025-07-24T12:31:49.289Z</time>
      </trkpt>
      <trkpt lat="44.07028" lon="0.58999">
        <ele>101</ele>
        <time>2025-07-24T12:31:50.289Z</time>
      </trkpt>
      <trkpt lat="44.0703" lon="0.59">
        <ele>100</ele>
        <time>2025-07-24T12:31:51.289Z</time>
      </trkpt>
      <trkpt lat="44.07031" lon="0.59">
        <ele>100</ele>
        <time>2025-07-24T12:31:52.289Z</time>
      </trkpt>
      <trkpt lat="44.07032" lon="0.59001">
        <ele>99</ele>
        <time>2025-07-24T12:31:53.289Z</time>
      </trkpt>
      <trkpt lat="44.07033" lon="0.59003">
        <ele>99</ele>
        <time>2025-07-24T12:31:54.289Z</time>
      </trkpt>
      <trkpt lat="44.07034" lon="0.59004">
        <ele>98</ele>
        <time>2025-07-24T12:31:55.289Z</time>
      </trkpt>
      <trkpt lat="44.07035" lon="0.59005">
        <ele>98</ele>
        <time>2025-07-24T12:31:56.289Z</time>
      </trkpt>
      <trkpt lat="44.07036" lon="0.59006">
        <ele>97</ele>
        <time>2025-07-24T12:31:57.289Z</time>
      </trkpt>
      <trkpt lat="44.07037" lon="0.59007">
        <ele>97</ele>
        <time>2025-07-24T12:31:58.289Z</time>
      </trkpt>
      <trkpt lat="44.07039" lon="0.59008">
        <ele>97</ele>
        <time>2025-07-24T12:31:59.289Z</time>
      </trkpt>
      <trkpt lat="44.0704" lon="0.5901">
        <ele>96</ele>
        <time>2025-07-24T12:32:00.289Z</time>
      </trkpt>
      <trkpt lat="44.07041" lon="0.59011">
        <ele>96</ele>
        <time>2025-07-24T12:32:01.289Z</time>
      </trkpt>
      <trkpt lat="44.07042" lon="0.59012">
        <ele>96</ele>
        <time>2025-07-24T12:32:02.289Z</time>
      </trkpt>
      <trkpt lat="44.07043" lon="0.59013">
        <ele>96</ele>
        <time>2025-07-24T12:32:03.289Z</time>
      </trkpt>
      <trkpt lat="44.07044" lon="0.59014">
        <ele>96</ele>
        <time>2025-07-24T12:32:04.289Z</time>
      </trkpt>
      <trkpt lat="44.07046" lon="0.59015">
        <ele>96</ele>
        <time>2025-07-24T12:32:05.289Z</time>
      </trkpt>
      <trkpt lat="44.07046" lon="0.59016">
        <ele>96</ele>
        <time>2025-07-24T12:32:06.289Z</time>
      </trkpt>
      <trkpt lat="44.07047" lon="0.59017">
        <ele>96</ele>
        <time>2025-07-24T12:32:07.289Z</time>
      </trkpt>
      <trkpt lat="44.07048" lon="0.59018">
        <ele>96</ele>
        <time>2025-07-24T12:32:08.289Z</time>
      </trkpt>
      <trkpt lat="44.07049" lon="0.59019">
        <ele>97</ele>
        <time>2025-07-24T12:32:09.289Z</time>
      </trkpt>
      <trkpt lat="44.0705" lon="0.59021">
        <ele>97</ele>
        <time>2025-07-24T12:32:10.289Z</time>
      </trkpt>
      <trkpt lat="44.07052" lon="0.59022">
        <ele>97</ele>
        <time>2025-07-24T12:32:11.289Z</time>
      </trkpt>
      <trkpt lat="44.07053" lon="0.59023">
        <ele>97</ele>
        <time>2025-07-24T12:32:12.289Z</time>
      </trkpt>
      <trkpt lat="44.07054" lon="0.59024">
        <ele>96</ele>
        <time>2025-07-24T12:32:13.289Z</time>
      </trkpt>
      <trkpt lat="44.07055" lon="0.59025">
        <ele>96</ele>
        <time>2025-07-24T12:32:14.289Z</time>
      </trkpt>
      <trkpt lat="44.07056" lon="0.59026">
        <ele>96</ele>
        <time>2025-07-24T12:32:15.289Z</time>
      </trkpt>
      <trkpt lat="44.07057" lon="0.59027">
        <ele>95</ele>
        <time>2025-07-24T12:32:16.289Z</time>
      </trkpt>
      <trkpt lat="44.07058" lon="0.59028">
        <ele>95</ele>
        <time>2025-07-24T12:32:17.289Z</time>
      </trkpt>
      <trkpt lat="44.07059" lon="0.59029">
        <ele>95</ele>
        <time>2025-07-24T12:32:18.289Z</time>
      </trkpt>
      <trkpt lat="44.0706" lon="0.5903">
        <ele>95</ele>
        <time>2025-07-24T12:32:19.289Z</time>
      </trkpt>
      <trkpt lat="44.07061" lon="0.59031">
        <ele>96</ele>
        <time>2025-07-24T12:32:20.289Z</time>
      </trkpt>
      <trkpt lat="44.07062" lon="0.59032">
        <ele>96</ele>
        <time>2025-07-24T12:32:21.289Z</time>
      </trkpt>
      <trkpt lat="44.07063" lon="0.59033">
        <ele>96</ele>
        <time>2025-07-24T12:32:22.289Z</time>
      </trkpt>
      <trkpt lat="44.07064" lon="0.59035">
        <ele>97</ele>
        <time>2025-07-24T12:32:23.289Z</time>
      </trkpt>
      <trkpt lat="44.07065" lon="0.59036">
        <ele>97</ele>
        <time>2025-07-24T12:32:24.289Z</time>
      </trkpt>
      <trkpt lat="44.07066" lon="0.59037">
        <ele>96</ele>
        <time>2025-07-24T12:32:25.289Z</time>
      </trkpt>
      <trkpt lat="44.07068" lon="0.59038">
        <ele>96</ele>
        <time>2025-07-24T12:32:26.289Z</time>
      </trkpt>
      <trkpt lat="44.07069" lon="0.59039">
        <ele>96</ele>
        <time>2025-07-24T12:32:27.289Z</time>
      </trkpt>
      <trkpt lat="44.07069" lon="0.5904">
        <ele>96</ele>
        <time>2025-07-24T12:32:28.289Z</time>
      </trkpt>
      <trkpt lat="44.0707" lon="0.59041">
        <ele>95</ele>
        <time>2025-07-24T12:32:29.289Z</time>
      </trkpt>
      <trkpt lat="44.07071" lon="0.59042">
        <ele>95</ele>
        <time>2025-07-24T12:32:30.289Z</time>
      </trkpt>
      <trkpt lat="44.07073" lon="0.59043">
        <ele>96</ele>
        <time>2025-07-24T12:32:31.289Z</time>
      </trkpt>
      <trkpt lat="44.07074" lon="0.59044">
        <ele>96</ele>
        <time>2025-07-24T12:32:32.289Z</time>
      </trkpt>
      <trkpt lat="44.07075" lon="0.59045">
        <ele>96</ele>
        <time>2025-07-24T12:32:33.289Z</time>
      </trkpt>
      <trkpt lat="44.07076" lon="0.59046">
        <ele>96</ele>
        <time>2025-07-24T12:32:34.289Z</time>
      </trkpt>
      <trkpt lat="44.07077" lon="0.59047">
        <ele>96</ele>
        <time>2025-07-24T12:32:35.289Z</time>
      </trkpt>
      <trkpt lat="44.07078" lon="0.59048">
        <ele>96</ele>
        <time>2025-07-24T12:32:36.289Z</time>
      </trkpt>
      <trkpt lat="44.07079" lon="0.59049">
        <ele>96</ele>
        <time>2025-07-24T12:32:37.289Z</time>
      </trkpt>
      <trkpt lat="44.0708" lon="0.5905">
        <ele>96</ele>
        <time>2025-07-24T12:32:38.289Z</time>
      </trkpt>
      <trkpt lat="44.07081" lon="0.59051">
        <ele>96</ele>
        <time>2025-07-24T12:32:39.289Z</time>
      </trkpt>
      <trkpt lat="44.07082" lon="0.59052">
        <ele>96</ele>
        <time>2025-07-24T12:32:40.289Z</time>
      </trkpt>
      <trkpt lat="44.07083" lon="0.59053">
        <ele>96</ele>
        <time>2025-07-24T12:32:41.289Z</time>
      </trkpt>
      <trkpt lat="44.07084" lon="0.59054">
        <ele>97</ele>
        <time>2025-07-24T12:32:42.289Z</time>
      </trkpt>
      <trkpt lat="44.07085" lon="0.59055">
        <ele>96</ele>
        <time>2025-07-24T12:32:43.289Z</time>
      </trkpt>
      <trkpt lat="44.07086" lon="0.59056">
        <ele>96</ele>
        <time>2025-07-24T12:32:44.289Z</time>
      </trkpt>
      <trkpt lat="44.07087" lon="0.59057">
        <ele>96</ele>
        <time>2025-07-24T12:32:45.289Z</time>
      </trkpt>
      <trkpt lat="44.07089" lon="0.59059">
        <ele>97</ele>
        <time>2025-07-24T12:32:46.289Z</time>
      </trkpt>
      <trkpt lat="44.0709" lon="0.5906">
        <ele>97</ele>
        <time>2025-07-24T12:32:47.289Z</time>
      </trkpt>
      <trkpt lat="44.07091" lon="0.59061">
        <ele>97</ele>
        <time>2025-07-24T12:32:48.289Z</time>
      </trkpt>
      <trkpt lat="44.07092" lon="0.59062">
        <ele>98</ele>
        <time>2025-07-24T12:32:49.289Z</time>
      </trkpt>
      <trkpt lat="44.07092" lon="0.59063">
        <ele>98</ele>
        <time>2025-07-24T12:32:50.289Z</time>
      </trkpt>
      <trkpt lat="44.07093" lon="0.59063">
        <ele>98</ele>
        <time>2025-07-24T12:32:51.289Z</time>
      </trkpt>
      <trkpt lat="44.07094" lon="0.59064">
        <ele>98</ele>
        <time>2025-07-24T12:32:52.289Z</time>
      </trkpt>
      <trkpt lat="44.07095" lon="0.59065">
        <ele>98</ele>
        <time>2025-07-24T12:32:53.289Z</time>
      </trkpt>
      <trkpt lat="44.07096" lon="0.59066">
        <ele>98</ele>
        <time>2025-07-24T12:32:54.289Z</time>
      </trkpt>
      <trkpt lat="44.07097" lon="0.59068">
        <ele>98</ele>
        <time>2025-07-24T12:32:55.289Z</time>
      </trkpt>
      <trkpt lat="44.07097" lon="0.59069">
        <ele>98</ele>
        <time>2025-07-24T12:32:56.289Z</time>
      </trkpt>
      <trkpt lat="44.07098" lon="0.59069">
        <ele>99</ele>
        <time>2025-07-24T12:32:57.289Z</time>
      </trkpt>
      <trkpt lat="44.07099" lon="0.59071">
        <ele>99</ele>
        <time>2025-07-24T12:32:58.289Z</time>
      </trkpt>
      <trkpt lat="44.071" lon="0.59071">
        <ele>99</ele>
        <time>2025-07-24T12:32:59.289Z</time>
      </trkpt>
      <trkpt lat="44.07101" lon="0.59072">
        <ele>99</ele>
        <time>2025-07-24T12:33:00.289Z</time>
      </trkpt>
      <trkpt lat="44.07102" lon="0.59073">
        <ele>100</ele>
        <time>2025-07-24T12:33:01.289Z</time>
      </trkpt>
      <trkpt lat="44.07103" lon="0.59075">
        <ele>100</ele>
        <time>2025-07-24T12:33:02.289Z</time>
      </trkpt>
      <trkpt lat="44.07104" lon="0.59075">
        <ele>101</ele>
        <time>2025-07-24T12:33:03.289Z</time>
      </trkpt>
      <trkpt lat="44.07105" lon="0.59077">
        <ele>101</ele>
        <time>2025-07-24T12:33:04.289Z</time>
      </trkpt>
      <trkpt lat="44.07106" lon="0.59078">
        <ele>102</ele>
        <time>2025-07-24T12:33:05.289Z</time>
      </trkpt>
      <trkpt lat="44.07106" lon="0.59079">
        <ele>102</ele>
        <time>2025-07-24T12:33:06.289Z</time>
      </trkpt>
      <trkpt lat="44.07107" lon="0.59079">
        <ele>102</ele>
        <time>2025-07-24T12:33:07.289Z</time>
      </trkpt>
      <trkpt lat="44.07108" lon="0.59081">
        <ele>102</ele>
        <time>2025-07-24T12:33:08.289Z</time>
      </trkpt>
      <trkpt lat="44.07109" lon="0.59081">
        <ele>103</ele>
        <time>2025-07-24T12:33:09.289Z</time>
      </trkpt>
      <trkpt lat="44.0711" lon="0.59082">
        <ele>103</ele>
        <time>2025-07-24T12:33:10.289Z</time>
      </trkpt>
      <trkpt lat="44.07111" lon="0.59084">
        <ele>103</ele>
        <time>2025-07-24T12:33:11.289Z</time>
      </trkpt>
      <trkpt lat="44.07112" lon="0.59085">
        <ele>103</ele>
        <time>2025-07-24T12:33:12.289Z</time>
      </trkpt>
      <trkpt lat="44.07113" lon="0.59085">
        <ele>103</ele>
        <time>2025-07-24T12:33:13.289Z</time>
      </trkpt>
      <trkpt lat="44.07114" lon="0.59086">
        <ele>104</ele>
        <time>2025-07-24T12:33:14.289Z</time>
      </trkpt>
      <trkpt lat="44.07114" lon="0.59086">
        <ele>104</ele>
        <time>2025-07-24T12:33:15.289Z</time>
      </trkpt>
      <trkpt lat="44.07115" lon="0.59086">
        <ele>104</ele>
        <time>2025-07-24T12:33:16.289Z</time>
      </trkpt>
      <trkpt lat="44.07115" lon="0.59086">
        <ele>105</ele>
        <time>2025-07-24T12:33:17.289Z</time>
      </trkpt>
      <trkpt lat="44.07115" lon="0.59086">
        <ele>104</ele>
        <time>2025-07-24T12:33:18.289Z</time>
      </trkpt>
      <trkpt lat="44.07115" lon="0.59086">
        <ele>104</ele>
        <time>2025-07-24T12:33:19.289Z</time>
      </trkpt>
      <trkpt lat="44.07115" lon="0.59086">
        <ele>104</ele>
        <time>2025-07-24T12:33:20.289Z</time>
      </trkpt>
      <trkpt lat="44.07115" lon="0.59086">
        <ele>104</ele>
        <time>2025-07-24T12:33:21.289Z</time>
      </trkpt>
      <trkpt lat="44.07115" lon="0.59086">
        <ele>104</ele>
        <time>2025-07-24T12:33:22.289Z</time>
      </trkpt>
      <trkpt lat="44.07115" lon="0.59086">
        <ele>104</ele>
        <time>2025-07-24T12:33:23.289Z</time>
      </trkpt>
      <trkpt lat="44.07115" lon="0.59086">
        <ele>104</ele>
        <time>2025-07-24T12:33:24.289Z</time>
      </trkpt>
      <trkpt lat="44.07115" lon="0.59087">
        <ele>105</ele>
        <time>2025-07-24T12:33:25.289Z</time>
      </trkpt>
      <trkpt lat="44.07115" lon="0.59087">
        <ele>105</ele>
        <time>2025-07-24T12:33:26.289Z</time>
      </trkpt>
      <trkpt lat="44.07114" lon="0.59087">
        <ele>105</ele>
        <time>2025-07-24T12:33:27.289Z</time>
      </trkpt>
      <trkpt lat="44.07114" lon="0.59087">
        <ele>105</ele>
        <time>2025-07-24T12:33:28.289Z</time>
      </trkpt>
      <trkpt lat="44.07114" lon="0.59087">
        <ele>104</ele>
        <time>2025-07-24T12:33:29.289Z</time>
      </trkpt>
      <trkpt lat="44.07114" lon="0.59087">
        <ele>104</ele>
        <time>2025-07-24T12:33:30.289Z</time>
      </trkpt>
      <trkpt lat="44.07114" lon="0.59087">
        <ele>104</ele>
        <time>2025-07-24T12:33:31.289Z</time>
      </trkpt>
      <trkpt lat="44.07114" lon="0.59087">
        <ele>105</ele>
        <time>2025-07-24T12:33:32.289Z</time>
      </trkpt>
      <trkpt lat="44.07114" lon="0.59087">
        <ele>105</ele>
        <time>2025-07-24T12:33:33.289Z</time>
      </trkpt>
      <trkpt lat="44.07114" lon="0.59087">
        <ele>105</ele>
        <time>2025-07-24T12:33:34.289Z</time>
      </trkpt>
      <trkpt lat="44.07114" lon="0.59087">
        <ele>105</ele>
        <time>2025-07-24T12:33:35.289Z</time>
      </trkpt>
      <trkpt lat="44.07114" lon="0.59087">
        <ele>105</ele>
        <time>2025-07-24T12:33:36.289Z</time>
      </trkpt>
      <trkpt lat="44.07114" lon="0.59087">
        <ele>104</ele>
        <time>2025-07-24T12:33:37.289Z</time>
      </trkpt>
      <trkpt lat="44.07115" lon="0.59087">
        <ele>104</ele>
        <time>2025-07-24T12:33:38.289Z</time>
      </trkpt>
      <trkpt lat="44.07115" lon="0.59087">
        <ele>104</ele>
        <time>2025-07-24T12:33:39.289Z</time>
      </trkpt>
      <trkpt lat="44.07116" lon="0.59087">
        <ele>104</ele>
        <time>2025-07-24T12:33:40.289Z</time>
      </trkpt>
      <trkpt lat="44.07116" lon="0.59088">
        <ele>105</ele>
        <time>2025-07-24T12:33:41.289Z</time>
      </trkpt>
      <trkpt lat="44.07117" lon="0.59088">
        <ele>105</ele>
        <time>2025-07-24T12:33:42.289Z</time>
      </trkpt>
      <trkpt lat="44.07118" lon="0.59089">
        <ele>105</ele>
        <time>2025-07-24T12:33:43.289Z</time>
      </trkpt>
      <trkpt lat="44.07118" lon="0.5909">
        <ele>105</ele>
        <time>2025-07-24T12:33:44.289Z</time>
      </trkpt>
      <trkpt lat="44.07119" lon="0.59092">
        <ele>105</ele>
        <time>2025-07-24T12:33:45.289Z</time>
      </trkpt>
      <trkpt lat="44.0712" lon="0.59093">
        <ele>105</ele>
        <time>2025-07-24T12:33:46.289Z</time>
      </trkpt>
      <trkpt lat="44.0712" lon="0.59094">
        <ele>105</ele>
        <time>2025-07-24T12:33:47.289Z</time>
      </trkpt>
      <trkpt lat="44.07121" lon="0.59095">
        <ele>106</ele>
        <time>2025-07-24T12:33:48.289Z</time>
      </trkpt>
      <trkpt lat="44.07121" lon="0.59096">
        <ele>106</ele>
        <time>2025-07-24T12:33:49.289Z</time>
      </trkpt>
      <trkpt lat="44.07121" lon="0.59096">
        <ele>106</ele>
        <time>2025-07-24T12:33:50.289Z</time>
      </trkpt>
      <trkpt lat="44.07122" lon="0.59097">
        <ele>107</ele>
        <time>2025-07-24T12:33:51.289Z</time>
      </trkpt>
      <trkpt lat="44.07122" lon="0.59097">
        <ele>108</ele>
        <time>2025-07-24T12:33:52.290Z</time>
      </trkpt>
      <trkpt lat="44.07122" lon="0.59098">
        <ele>108</ele>
        <time>2025-07-24T12:33:53.289Z</time>
      </trkpt>
      <trkpt lat="44.07122" lon="0.59098">
        <ele>108</ele>
        <time>2025-07-24T12:33:54.289Z</time>
      </trkpt>
      <trkpt lat="44.07122" lon="0.59098">
        <ele>108</ele>
        <time>2025-07-24T12:33:55.289Z</time>
      </trkpt>
      <trkpt lat="44.07123" lon="0.59098">
        <ele>108</ele>
        <time>2025-07-24T12:33:56.289Z</time>
      </trkpt>
      <trkpt lat="44.07123" lon="0.59099">
        <ele>108</ele>
        <time>2025-07-24T12:33:57.289Z</time>
      </trkpt>
      <trkpt lat="44.07124" lon="0.591">
        <ele>108</ele>
        <time>2025-07-24T12:33:58.289Z</time>
      </trkpt>
      <trkpt lat="44.07124" lon="0.591">
        <ele>108</ele>
        <time>2025-07-24T12:33:59.289Z</time>
      </trkpt>
      <trkpt lat="44.07125" lon="0.59101">
        <ele>107</ele>
        <time>2025-07-24T12:34:00.289Z</time>
      </trkpt>
      <trkpt lat="44.07126" lon="0.59102">
        <ele>107</ele>
        <time>2025-07-24T12:34:01.289Z</time>
      </trkpt>
      <trkpt lat="44.07128" lon="0.59103">
        <ele>107</ele>
        <time>2025-07-24T12:34:02.289Z</time>
      </trkpt>
      <trkpt lat="44.07129" lon="0.59103">
        <ele>107</ele>
        <time>2025-07-24T12:34:03.289Z</time>
      </trkpt>
      <trkpt lat="44.0713" lon="0.59104">
        <ele>107</ele>
        <time>2025-07-24T12:34:04.289Z</time>
      </trkpt>
      <trkpt lat="44.07131" lon="0.59105">
        <ele>107</ele>
        <time>2025-07-24T12:34:05.289Z</time>
      </trkpt>
      <trkpt lat="44.07132" lon="0.59106">
        <ele>107</ele>
        <time>2025-07-24T12:34:06.289Z</time>
      </trkpt>
      <trkpt lat="44.07133" lon="0.59107">
        <ele>107</ele>
        <time>2025-07-24T12:34:07.289Z</time>
      </trkpt>
      <trkpt lat="44.07134" lon="0.59108">
        <ele>107</ele>
        <time>2025-07-24T12:34:08.289Z</time>
      </trkpt>
      <trkpt lat="44.07135" lon="0.59108">
        <ele>107</ele>
        <time>2025-07-24T12:34:09.289Z</time>
      </trkpt>
      <trkpt lat="44.07136" lon="0.59109">
        <ele>107</ele>
        <time>2025-07-24T12:34:10.289Z</time>
      </trkpt>
      <trkpt lat="44.07137" lon="0.5911">
        <ele>107</ele>
        <time>2025-07-24T12:34:11.289Z</time>
      </trkpt>
      <trkpt lat="44.07138" lon="0.59111">
        <ele>107</ele>
        <time>2025-07-24T12:34:12.289Z</time>
      </trkpt>
      <trkpt lat="44.07139" lon="0.59112">
        <ele>107</ele>
        <time>2025-07-24T12:34:13.289Z</time>
      </trkpt>
      <trkpt lat="44.0714" lon="0.59113">
        <ele>107</ele>
        <time>2025-07-24T12:34:14.289Z</time>
      </trkpt>
      <trkpt lat="44.07141" lon="0.59114">
        <ele>107</ele>
        <time>2025-07-24T12:34:15.289Z</time>
      </trkpt>
      <trkpt lat="44.07142" lon="0.59115">
        <ele>107</ele>
        <time>2025-07-24T12:34:16.289Z</time>
      </trkpt>
      <trkpt lat="44.07143" lon="0.59116">
        <ele>106</ele>
        <time>2025-07-24T12:34:17.289Z</time>
      </trkpt>
      <trkpt lat="44.07144" lon="0.59117">
        <ele>107</ele>
        <time>2025-07-24T12:34:18.289Z</time>
      </trkpt>
      <trkpt lat="44.07145" lon="0.59118">
        <ele>107</ele>
        <time>2025-07-24T12:34:19.289Z</time>
      </trkpt>
      <trkpt lat="44.07146" lon="0.59119">
        <ele>107</ele>
        <time>2025-07-24T12:34:20.289Z</time>
      </trkpt>
      <trkpt lat="44.07147" lon="0.5912">
        <ele>108</ele>
        <time>2025-07-24T12:34:21.289Z</time>
      </trkpt>
      <trkpt lat="44.07148" lon="0.5912">
        <ele>108</ele>
        <time>2025-07-24T12:34:22.289Z</time>
      </trkpt>
      <trkpt lat="44.07149" lon="0.59121">
        <ele>107</ele>
        <time>2025-07-24T12:34:23.289Z</time>
      </trkpt>
      <trkpt lat="44.07151" lon="0.59122">
        <ele>107</ele>
        <time>2025-07-24T12:34:24.289Z</time>
      </trkpt>
      <trkpt lat="44.07152" lon="0.59123">
        <ele>107</ele>
        <time>2025-07-24T12:34:25.289Z</time>
      </trkpt>
      <trkpt lat="44.07153" lon="0.59124">
        <ele>107</ele>
        <time>2025-07-24T12:34:26.289Z</time>
      </trkpt>
      <trkpt lat="44.07154" lon="0.59125">
        <ele>107</ele>
        <time>2025-07-24T12:34:27.289Z</time>
      </trkpt>
      <trkpt lat="44.07155" lon="0.59125">
        <ele>107</ele>
        <time>2025-07-24T12:34:28.289Z</time>
      </trkpt>
      <trkpt lat="44.07156" lon="0.59126">
        <ele>107</ele>
        <time>2025-07-24T12:34:29.289Z</time>
      </trkpt>
      <trkpt lat="44.07157" lon="0.59127">
        <ele>107</ele>
        <time>2025-07-24T12:34:30.289Z</time>
      </trkpt>
      <trkpt lat="44.07158" lon="0.59128">
        <ele>107</ele>
        <time>2025-07-24T12:34:31.289Z</time>
      </trkpt>
      <trkpt lat="44.07159" lon="0.59129">
        <ele>107</ele>
        <time>2025-07-24T12:34:32.289Z</time>
      </trkpt>
      <trkpt lat="44.0716" lon="0.5913">
        <ele>107</ele>
        <time>2025-07-24T12:34:33.289Z</time>
      </trkpt>
      <trkpt lat="44.07161" lon="0.5913">
        <ele>107</ele>
        <time>2025-07-24T12:34:34.289Z</time>
      </trkpt>
      <trkpt lat="44.07163" lon="0.59131">
        <ele>107</ele>
        <time>2025-07-24T12:34:35.289Z</time>
      </trkpt>
      <trkpt lat="44.07164" lon="0.59132">
        <ele>107</ele>
        <time>2025-07-24T12:34:36.289Z</time>
      </trkpt>
      <trkpt lat="44.07165" lon="0.59133">
        <ele>107</ele>
        <time>2025-07-24T12:34:37.289Z</time>
      </trkpt>
      <trkpt lat="44.07166" lon="0.59134">
        <ele>107</ele>
        <time>2025-07-24T12:34:38.289Z</time>
      </trkpt>
      <trkpt lat="44.07167" lon="0.59135">
        <ele>107</ele>
        <time>2025-07-24T12:34:39.289Z</time>
      </trkpt>
      <trkpt lat="44.07168" lon="0.59136">
        <ele>108</ele>
        <time>2025-07-24T12:34:40.289Z</time>
      </trkpt>
      <trkpt lat="44.07169" lon="0.59137">
        <ele>108</ele>
        <time>2025-07-24T12:34:41.289Z</time>
      </trkpt>
      <trkpt lat="44.0717" lon="0.59138">
        <ele>108</ele>
        <time>2025-07-24T12:34:42.289Z</time>
      </trkpt>
      <trkpt lat="44.07171" lon="0.59139">
        <ele>108</ele>
        <time>2025-07-24T12:34:43.289Z</time>
      </trkpt>
      <trkpt lat="44.07172" lon="0.5914">
        <ele>108</ele>
        <time>2025-07-24T12:34:44.289Z</time>
      </trkpt>
      <trkpt lat="44.07173" lon="0.59141">
        <ele>108</ele>
        <time>2025-07-24T12:34:45.289Z</time>
      </trkpt>
      <trkpt lat="44.07174" lon="0.59141">
        <ele>108</ele>
        <time>2025-07-24T12:34:46.289Z</time>
      </trkpt>
      <trkpt lat="44.07175" lon="0.59142">
        <ele>108</ele>
        <time>2025-07-24T12:34:47.289Z</time>
      </trkpt>
      <trkpt lat="44.07176" lon="0.59143">
        <ele>108</ele>
        <time>2025-07-24T12:34:48.289Z</time>
      </trkpt>
      <trkpt lat="44.07177" lon="0.59143">
        <ele>109</ele>
        <time>2025-07-24T12:34:49.289Z</time>
      </trkpt>
      <trkpt lat="44.07178" lon="0.59144">
        <ele>109</ele>
        <time>2025-07-24T12:34:50.289Z</time>
      </trkpt>
      <trkpt lat="44.07179" lon="0.59145">
        <ele>110</ele>
        <time>2025-07-24T12:34:51.289Z</time>
      </trkpt>
      <trkpt lat="44.0718" lon="0.59146">
        <ele>110</ele>
        <time>2025-07-24T12:34:52.289Z</time>
      </trkpt>
      <trkpt lat="44.07181" lon="0.59147">
        <ele>110</ele>
        <time>2025-07-24T12:34:53.289Z</time>
      </trkpt>
      <trkpt lat="44.07182" lon="0.59148">
        <ele>110</ele>
        <time>2025-07-24T12:34:54.289Z</time>
      </trkpt>
      <trkpt lat="44.07183" lon="0.59149">
        <ele>110</ele>
        <time>2025-07-24T12:34:55.289Z</time>
      </trkpt>
      <trkpt lat="44.07184" lon="0.59149">
        <ele>110</ele>
        <time>2025-07-24T12:34:56.289Z</time>
      </trkpt>
      <trkpt lat="44.07185" lon="0.5915">
        <ele>110</ele>
        <time>2025-07-24T12:34:57.289Z</time>
      </trkpt>
      <trkpt lat="44.07186" lon="0.59151">
        <ele>110</ele>
        <time>2025-07-24T12:34:58.290Z</time>
      </trkpt>
      <trkpt lat="44.07187" lon="0.59152">
        <ele>110</ele>
        <time>2025-07-24T12:34:59.289Z</time>
      </trkpt>
      <trkpt lat="44.07188" lon="0.59153">
        <ele>109</ele>
        <time>2025-07-24T12:35:00.289Z</time>
      </trkpt>
      <trkpt lat="44.07189" lon="0.59154">
        <ele>109</ele>
        <time>2025-07-24T12:35:01.289Z</time>
      </trkpt>
      <trkpt lat="44.0719" lon="0.59154">
        <ele>109</ele>
        <time>2025-07-24T12:35:02.289Z</time>
      </trkpt>
      <trkpt lat="44.07191" lon="0.59155">
        <ele>109</ele>
        <time>2025-07-24T12:35:03.289Z</time>
      </trkpt>
      <trkpt lat="44.07191" lon="0.59156">
        <ele>109</ele>
        <time>2025-07-24T12:35:04.289Z</time>
      </trkpt>
      <trkpt lat="44.07192" lon="0.59156">
        <ele>110</ele>
        <time>2025-07-24T12:35:05.289Z</time>
      </trkpt>
      <trkpt lat="44.07193" lon="0.59157">
        <ele>110</ele>
        <time>2025-07-24T12:35:06.289Z</time>
      </trkpt>
      <trkpt lat="44.07194" lon="0.59158">
        <ele>110</ele>
        <time>2025-07-24T12:35:07.289Z</time>
      </trkpt>
      <trkpt lat="44.07195" lon="0.59159">
        <ele>110</ele>
        <time>2025-07-24T12:35:08.289Z</time>
      </trkpt>
      <trkpt lat="44.07196" lon="0.5916">
        <ele>110</ele>
        <time>2025-07-24T12:35:09.289Z</time>
      </trkpt>
      <trkpt lat="44.07197" lon="0.5916">
        <ele>110</ele>
        <time>2025-07-24T12:35:10.289Z</time>
      </trkpt>
      <trkpt lat="44.07198" lon="0.59161">
        <ele>110</ele>
        <time>2025-07-24T12:35:11.289Z</time>
      </trkpt>
      <trkpt lat="44.07199" lon="0.59162">
        <ele>110</ele>
        <time>2025-07-24T12:35:12.289Z</time>
      </trkpt>
      <trkpt lat="44.072" lon="0.59162">
        <ele>111</ele>
        <time>2025-07-24T12:35:13.289Z</time>
      </trkpt>
      <trkpt lat="44.07201" lon="0.59163">
        <ele>111</ele>
        <time>2025-07-24T12:35:14.289Z</time>
      </trkpt>
      <trkpt lat="44.07202" lon="0.59164">
        <ele>111</ele>
        <time>2025-07-24T12:35:15.289Z</time>
      </trkpt>
      <trkpt lat="44.07203" lon="0.59164">
        <ele>111</ele>
        <time>2025-07-24T12:35:16.289Z</time>
      </trkpt>
      <trkpt lat="44.07204" lon="0.59165">
        <ele>111</ele>
        <time>2025-07-24T12:35:17.289Z</time>
      </trkpt>
      <trkpt lat="44.07205" lon="0.59166">
        <ele>111</ele>
        <time>2025-07-24T12:35:18.289Z</time>
      </trkpt>
      <trkpt lat="44.07206" lon="0.59167">
        <ele>112</ele>
        <time>2025-07-24T12:35:19.289Z</time>
      </trkpt>
      <trkpt lat="44.07207" lon="0.59168">
        <ele>112</ele>
        <time>2025-07-24T12:35:20.289Z</time>
      </trkpt>
      <trkpt lat="44.07208" lon="0.59168">
        <ele>112</ele>
        <time>2025-07-24T12:35:21.289Z</time>
      </trkpt>
      <trkpt lat="44.07208" lon="0.59169">
        <ele>113</ele>
        <time>2025-07-24T12:35:22.289Z</time>
      </trkpt>
      <trkpt lat="44.0721" lon="0.5917">
        <ele>113</ele>
        <time>2025-07-24T12:35:23.289Z</time>
      </trkpt>
      <trkpt lat="44.0721" lon="0.59171">
        <ele>113</ele>
        <time>2025-07-24T12:35:24.289Z</time>
      </trkpt>
      <trkpt lat="44.07211" lon="0.59172">
        <ele>113</ele>
        <time>2025-07-24T12:35:25.289Z</time>
      </trkpt>
      <trkpt lat="44.07212" lon="0.59173">
        <ele>113</ele>
        <time>2025-07-24T12:35:26.289Z</time>
      </trkpt>
      <trkpt lat="44.07213" lon="0.59173">
        <ele>113</ele>
        <time>2025-07-24T12:35:27.289Z</time>
      </trkpt>
      <trkpt lat="44.07214" lon="0.59174">
        <ele>113</ele>
        <time>2025-07-24T12:35:28.289Z</time>
      </trkpt>
      <trkpt lat="44.07215" lon="0.59175">
        <ele>113</ele>
        <time>2025-07-24T12:35:29.289Z</time>
      </trkpt>
      <trkpt lat="44.07215" lon="0.59176">
        <ele>113</ele>
        <time>2025-07-24T12:35:30.289Z</time>
      </trkpt>
      <trkpt lat="44.07216" lon="0.59177">
        <ele>113</ele>
        <time>2025-07-24T12:35:31.289Z</time>
      </trkpt>
      <trkpt lat="44.07217" lon="0.59178">
        <ele>114</ele>
        <time>2025-07-24T12:35:32.289Z</time>
      </trkpt>
      <trkpt lat="44.07218" lon="0.59178">
        <ele>114</ele>
        <time>2025-07-24T12:35:33.289Z</time>
      </trkpt>
      <trkpt lat="44.07219" lon="0.59179">
        <ele>114</ele>
        <time>2025-07-24T12:35:34.289Z</time>
      </trkpt>
      <trkpt lat="44.0722" lon="0.5918">
        <ele>114</ele>
        <time>2025-07-24T12:35:35.289Z</time>
      </trkpt>
      <trkpt lat="44.07221" lon="0.5918">
        <ele>114</ele>
        <time>2025-07-24T12:35:36.289Z</time>
      </trkpt>
      <trkpt lat="44.07222" lon="0.59181">
        <ele>114</ele>
        <time>2025-07-24T12:35:37.289Z</time>
      </trkpt>
      <trkpt lat="44.07223" lon="0.59182">
        <ele>115</ele>
        <time>2025-07-24T12:35:38.289Z</time>
      </trkpt>
      <trkpt lat="44.07224" lon="0.59183">
        <ele>115</ele>
        <time>2025-07-24T12:35:39.289Z</time>
      </trkpt>
      <trkpt lat="44.07225" lon="0.59184">
        <ele>115</ele>
        <time>2025-07-24T12:35:40.289Z</time>
      </trkpt>
      <trkpt lat="44.07226" lon="0.59185">
        <ele>115</ele>
        <time>2025-07-24T12:35:41.289Z</time>
      </trkpt>
      <trkpt lat="44.07227" lon="0.59186">
        <ele>115</ele>
        <time>2025-07-24T12:35:42.289Z</time>
      </trkpt>
      <trkpt lat="44.07227" lon="0.59186">
        <ele>115</ele>
        <time>2025-07-24T12:35:43.289Z</time>
      </trkpt>
      <trkpt lat="44.07228" lon="0.59187">
        <ele>115</ele>
        <time>2025-07-24T12:35:44.289Z</time>
      </trkpt>
      <trkpt lat="44.07229" lon="0.59188">
        <ele>115</ele>
        <time>2025-07-24T12:35:45.289Z</time>
      </trkpt>
      <trkpt lat="44.0723" lon="0.59189">
        <ele>114</ele>
        <time>2025-07-24T12:35:46.289Z</time>
      </trkpt>
      <trkpt lat="44.07231" lon="0.5919">
        <ele>114</ele>
        <time>2025-07-24T12:35:47.289Z</time>
      </trkpt>
      <trkpt lat="44.07232" lon="0.5919">
        <ele>114</ele>
        <time>2025-07-24T12:35:48.289Z</time>
      </trkpt>
      <trkpt lat="44.07233" lon="0.59191">
        <ele>115</ele>
        <time>2025-07-24T12:35:49.289Z</time>
      </trkpt>
      <trkpt lat="44.07234" lon="0.59192">
        <ele>115</ele>
        <time>2025-07-24T12:35:50.289Z</time>
      </trkpt>
      <trkpt lat="44.07235" lon="0.59193">
        <ele>115</ele>
        <time>2025-07-24T12:35:51.289Z</time>
      </trkpt>
      <trkpt lat="44.07236" lon="0.59194">
        <ele>116</ele>
        <time>2025-07-24T12:35:52.289Z</time>
      </trkpt>
      <trkpt lat="44.07237" lon="0.59195">
        <ele>116</ele>
        <time>2025-07-24T12:35:53.289Z</time>
      </trkpt>
      <trkpt lat="44.07237" lon="0.59195">
        <ele>116</ele>
        <time>2025-07-24T12:35:54.289Z</time>
      </trkpt>
      <trkpt lat="44.07238" lon="0.59196">
        <ele>116</ele>
        <time>2025-07-24T12:35:55.289Z</time>
      </trkpt>
      <trkpt lat="44.07239" lon="0.59197">
        <ele>116</ele>
        <time>2025-07-24T12:35:56.289Z</time>
      </trkpt>
      <trkpt lat="44.0724" lon="0.59198">
        <ele>116</ele>
        <time>2025-07-24T12:35:57.289Z</time>
      </trkpt>
      <trkpt lat="44.07241" lon="0.59199">
        <ele>116</ele>
        <time>2025-07-24T12:35:58.289Z</time>
      </trkpt>
      <trkpt lat="44.07242" lon="0.592">
        <ele>116</ele>
        <time>2025-07-24T12:35:59.289Z</time>
      </trkpt>
      <trkpt lat="44.07242" lon="0.592">
        <ele>116</ele>
        <time>2025-07-24T12:36:00.289Z</time>
      </trkpt>
      <trkpt lat="44.07243" lon="0.59201">
        <ele>116</ele>
        <time>2025-07-24T12:36:01.289Z</time>
      </trkpt>
      <trkpt lat="44.07244" lon="0.59202">
        <ele>116</ele>
        <time>2025-07-24T12:36:02.289Z</time>
      </trkpt>
      <trkpt lat="44.07245" lon="0.59203">
        <ele>116</ele>
        <time>2025-07-24T12:36:03.289Z</time>
      </trkpt>
      <trkpt lat="44.07246" lon="0.59204">
        <ele>116</ele>
        <time>2025-07-24T12:36:04.289Z</time>
      </trkpt>
      <trkpt lat="44.07247" lon="0.59205">
        <ele>117</ele>
        <time>2025-07-24T12:36:05.289Z</time>
      </trkpt>
      <trkpt lat="44.07248" lon="0.59205">
        <ele>117</ele>
        <time>2025-07-24T12:36:06.289Z</time>
      </trkpt>
      <trkpt lat="44.07249" lon="0.59206">
        <ele>117</ele>
        <time>2025-07-24T12:36:07.289Z</time>
      </trkpt>
      <trkpt lat="44.0725" lon="0.59207">
        <ele>117</ele>
        <time>2025-07-24T12:36:08.289Z</time>
      </trkpt>
      <trkpt lat="44.07251" lon="0.59208">
        <ele>117</ele>
        <time>2025-07-24T12:36:09.289Z</time>
      </trkpt>
      <trkpt lat="44.07252" lon="0.59209">
        <ele>117</ele>
        <time>2025-07-24T12:36:10.289Z</time>
      </trkpt>
      <trkpt lat="44.07252" lon="0.5921">
        <ele>118</ele>
        <time>2025-07-24T12:36:11.289Z</time>
      </trkpt>
      <trkpt lat="44.07253" lon="0.59211">
        <ele>118</ele>
        <time>2025-07-24T12:36:12.289Z</time>
      </trkpt>
      <trkpt lat="44.07254" lon="0.59212">
        <ele>118</ele>
        <time>2025-07-24T12:36:13.289Z</time>
      </trkpt>
      <trkpt lat="44.07255" lon="0.59213">
        <ele>119</ele>
        <time>2025-07-24T12:36:14.289Z</time>
      </trkpt>
      <trkpt lat="44.07256" lon="0.59214">
        <ele>119</ele>
        <time>2025-07-24T12:36:15.289Z</time>
      </trkpt>
      <trkpt lat="44.07257" lon="0.59215">
        <ele>119</ele>
        <time>2025-07-24T12:36:16.289Z</time>
      </trkpt>
      <trkpt lat="44.07258" lon="0.59215">
        <ele>118</ele>
        <time>2025-07-24T12:36:17.289Z</time>
      </trkpt>
      <trkpt lat="44.07259" lon="0.59216">
        <ele>118</ele>
        <time>2025-07-24T12:36:18.289Z</time>
      </trkpt>
      <trkpt lat="44.07259" lon="0.59217">
        <ele>118</ele>
        <time>2025-07-24T12:36:19.289Z</time>
      </trkpt>
      <trkpt lat="44.0726" lon="0.59218">
        <ele>118</ele>
        <time>2025-07-24T12:36:20.289Z</time>
      </trkpt>
      <trkpt lat="44.07261" lon="0.59219">
        <ele>119</ele>
        <time>2025-07-24T12:36:21.289Z</time>
      </trkpt>
      <trkpt lat="44.07262" lon="0.5922">
        <ele>119</ele>
        <time>2025-07-24T12:36:22.289Z</time>
      </trkpt>
      <trkpt lat="44.07263" lon="0.59221">
        <ele>119</ele>
        <time>2025-07-24T12:36:23.289Z</time>
      </trkpt>
      <trkpt lat="44.07264" lon="0.59222">
        <ele>119</ele>
        <time>2025-07-24T12:36:24.289Z</time>
      </trkpt>
      <trkpt lat="44.07265" lon="0.59223">
        <ele>119</ele>
        <time>2025-07-24T12:36:25.289Z</time>
      </trkpt>
      <trkpt lat="44.07266" lon="0.59223">
        <ele>119</ele>
        <time>2025-07-24T12:36:26.289Z</time>
      </trkpt>
      <trkpt lat="44.07267" lon="0.59224">
        <ele>119</ele>
        <time>2025-07-24T12:36:27.289Z</time>
      </trkpt>
      <trkpt lat="44.07268" lon="0.59225">
        <ele>119</ele>
        <time>2025-07-24T12:36:28.289Z</time>
      </trkpt>
      <trkpt lat="44.07269" lon="0.59226">
        <ele>119</ele>
        <time>2025-07-24T12:36:29.289Z</time>
      </trkpt>
      <trkpt lat="44.07269" lon="0.59227">
        <ele>119</ele>
        <time>2025-07-24T12:36:30.289Z</time>
      </trkpt>
      <trkpt lat="44.0727" lon="0.59228">
        <ele>119</ele>
        <time>2025-07-24T12:36:31.289Z</time>
      </trkpt>
      <trkpt lat="44.07271" lon="0.59228">
        <ele>119</ele>
        <time>2025-07-24T12:36:32.289Z</time>
      </trkpt>
      <trkpt lat="44.07272" lon="0.59229">
        <ele>119</ele>
        <time>2025-07-24T12:36:33.289Z</time>
      </trkpt>
      <trkpt lat="44.07273" lon="0.5923">
        <ele>120</ele>
        <time>2025-07-24T12:36:34.289Z</time>
      </trkpt>
      <trkpt lat="44.07274" lon="0.59231">
        <ele>120</ele>
        <time>2025-07-24T12:36:35.289Z</time>
      </trkpt>
      <trkpt lat="44.07274" lon="0.59232">
        <ele>120</ele>
        <time>2025-07-24T12:36:36.289Z</time>
      </trkpt>
      <trkpt lat="44.07275" lon="0.59233">
        <ele>120</ele>
        <time>2025-07-24T12:36:37.289Z</time>
      </trkpt>
      <trkpt lat="44.07276" lon="0.59234">
        <ele>120</ele>
        <time>2025-07-24T12:36:38.289Z</time>
      </trkpt>
      <trkpt lat="44.07277" lon="0.59234">
        <ele>120</ele>
        <time>2025-07-24T12:36:39.289Z</time>
      </trkpt>
      <trkpt lat="44.07277" lon="0.59235">
        <ele>120</ele>
        <time>2025-07-24T12:36:40.289Z</time>
      </trkpt>
      <trkpt lat="44.07278" lon="0.59236">
        <ele>120</ele>
        <time>2025-07-24T12:36:41.289Z</time>
      </trkpt>
      <trkpt lat="44.07279" lon="0.59237">
        <ele>120</ele>
        <time>2025-07-24T12:36:42.289Z</time>
      </trkpt>
      <trkpt lat="44.0728" lon="0.59238">
        <ele>120</ele>
        <time>2025-07-24T12:36:43.289Z</time>
      </trkpt>
      <trkpt lat="44.07281" lon="0.59239">
        <ele>120</ele>
        <time>2025-07-24T12:36:44.289Z</time>
      </trkpt>
      <trkpt lat="44.07282" lon="0.5924">
        <ele>120</ele>
        <time>2025-07-24T12:36:45.289Z</time>
      </trkpt>
      <trkpt lat="44.07282" lon="0.5924">
        <ele>120</ele>
        <time>2025-07-24T12:36:46.289Z</time>
      </trkpt>
      <trkpt lat="44.07283" lon="0.59241">
        <ele>121</ele>
        <time>2025-07-24T12:36:47.289Z</time>
      </trkpt>
      <trkpt lat="44.07284" lon="0.59241">
        <ele>121</ele>
        <time>2025-07-24T12:36:48.289Z</time>
      </trkpt>
      <trkpt lat="44.07285" lon="0.59242">
        <ele>121</ele>
        <time>2025-07-24T12:36:49.289Z</time>
      </trkpt>
      <trkpt lat="44.07286" lon="0.59243">
        <ele>121</ele>
        <time>2025-07-24T12:36:50.289Z</time>
      </trkpt>
      <trkpt lat="44.07287" lon="0.59243">
        <ele>120</ele>
        <time>2025-07-24T12:36:51.289Z</time>
      </trkpt>
      <trkpt lat="44.07288" lon="0.59244">
        <ele>121</ele>
        <time>2025-07-24T12:36:52.289Z</time>
      </trkpt>
      <trkpt lat="44.07289" lon="0.59245">
        <ele>121</ele>
        <time>2025-07-24T12:36:53.289Z</time>
      </trkpt>
      <trkpt lat="44.0729" lon="0.59246">
        <ele>121</ele>
        <time>2025-07-24T12:36:54.289Z</time>
      </trkpt>
      <trkpt lat="44.0729" lon="0.59247">
        <ele>122</ele>
        <time>2025-07-24T12:36:55.289Z</time>
      </trkpt>
      <trkpt lat="44.07291" lon="0.59247">
        <ele>122</ele>
        <time>2025-07-24T12:36:56.289Z</time>
      </trkpt>
      <trkpt lat="44.07292" lon="0.59248">
        <ele>122</ele>
        <time>2025-07-24T12:36:57.289Z</time>
      </trkpt>
      <trkpt lat="44.07293" lon="0.59249">
        <ele>122</ele>
        <time>2025-07-24T12:36:58.289Z</time>
      </trkpt>
      <trkpt lat="44.07293" lon="0.5925">
        <ele>123</ele>
        <time>2025-07-24T12:36:59.289Z</time>
      </trkpt>
      <trkpt lat="44.07294" lon="0.5925">
        <ele>123</ele>
        <time>2025-07-24T12:37:00.289Z</time>
      </trkpt>
      <trkpt lat="44.07295" lon="0.59251">
        <ele>123</ele>
        <time>2025-07-24T12:37:01.289Z</time>
      </trkpt>
      <trkpt lat="44.07296" lon="0.59252">
        <ele>123</ele>
        <time>2025-07-24T12:37:02.289Z</time>
      </trkpt>
      <trkpt lat="44.07297" lon="0.59253">
        <ele>123</ele>
        <time>2025-07-24T12:37:03.289Z</time>
      </trkpt>
      <trkpt lat="44.07298" lon="0.59254">
        <ele>123</ele>
        <time>2025-07-24T12:37:04.289Z</time>
      </trkpt>
      <trkpt lat="44.07299" lon="0.59254">
        <ele>123</ele>
        <time>2025-07-24T12:37:05.289Z</time>
      </trkpt>
      <trkpt lat="44.073" lon="0.59255">
        <ele>123</ele>
        <time>2025-07-24T12:37:06.289Z</time>
      </trkpt>
      <trkpt lat="44.07301" lon="0.59256">
        <ele>124</ele>
        <time>2025-07-24T12:37:07.289Z</time>
      </trkpt>
      <trkpt lat="44.07302" lon="0.59257">
        <ele>124</ele>
        <time>2025-07-24T12:37:08.289Z</time>
      </trkpt>
      <trkpt lat="44.07303" lon="0.59258">
        <ele>124</ele>
        <time>2025-07-24T12:37:09.289Z</time>
      </trkpt>
      <trkpt lat="44.07303" lon="0.59259">
        <ele>125</ele>
        <time>2025-07-24T12:37:10.289Z</time>
      </trkpt>
      <trkpt lat="44.07304" lon="0.59259">
        <ele>125</ele>
        <time>2025-07-24T12:37:11.289Z</time>
      </trkpt>
      <trkpt lat="44.07305" lon="0.5926">
        <ele>125</ele>
        <time>2025-07-24T12:37:12.289Z</time>
      </trkpt>
      <trkpt lat="44.07306" lon="0.59261">
        <ele>125</ele>
        <time>2025-07-24T12:37:13.289Z</time>
      </trkpt>
      <trkpt lat="44.07306" lon="0.59262">
        <ele>125</ele>
        <time>2025-07-24T12:37:14.289Z</time>
      </trkpt>
      <trkpt lat="44.07307" lon="0.59263">
        <ele>125</ele>
        <time>2025-07-24T12:37:15.289Z</time>
      </trkpt>
      <trkpt lat="44.07308" lon="0.59264">
        <ele>125</ele>
        <time>2025-07-24T12:37:16.289Z</time>
      </trkpt>
      <trkpt lat="44.07309" lon="0.59264">
        <ele>125</ele>
        <time>2025-07-24T12:37:17.289Z</time>
      </trkpt>
      <trkpt lat="44.0731" lon="0.59265">
        <ele>125</ele>
        <time>2025-07-24T12:37:18.289Z</time>
      </trkpt>
      <trkpt lat="44.07311" lon="0.59266">
        <ele>126</ele>
        <time>2025-07-24T12:37:19.289Z</time>
      </trkpt>
      <trkpt lat="44.07312" lon="0.59267">
        <ele>126</ele>
        <time>2025-07-24T12:37:20.289Z</time>
      </trkpt>
      <trkpt lat="44.07313" lon="0.59267">
        <ele>126</ele>
        <time>2025-07-24T12:37:21.289Z</time>
      </trkpt>
      <trkpt lat="44.07314" lon="0.59268">
        <ele>126</ele>
        <time>2025-07-24T12:37:22.289Z</time>
      </trkpt>
      <trkpt lat="44.07314" lon="0.59269">
        <ele>126</ele>
        <time>2025-07-24T12:37:23.289Z</time>
      </trkpt>
      <trkpt lat="44.07315" lon="0.59269">
        <ele>127</ele>
        <time>2025-07-24T12:37:24.289Z</time>
      </trkpt>
      <trkpt lat="44.07316" lon="0.5927">
        <ele>127</ele>
        <time>2025-07-24T12:37:25.289Z</time>
      </trkpt>
      <trkpt lat="44.07317" lon="0.59271">
        <ele>127</ele>
        <time>2025-07-24T12:37:26.289Z</time>
      </trkpt>
      <trkpt lat="44.07318" lon="0.59272">
        <ele>127</ele>
        <time>2025-07-24T12:37:27.289Z</time>
      </trkpt>
      <trkpt lat="44.07318" lon="0.59272">
        <ele>127</ele>
        <time>2025-07-24T12:37:28.289Z</time>
      </trkpt>
      <trkpt lat="44.07319" lon="0.59273">
        <ele>127</ele>
        <time>2025-07-24T12:37:29.289Z</time>
      </trkpt>
      <trkpt lat="44.0732" lon="0.59274">
        <ele>128</ele>
        <time>2025-07-24T12:37:30.289Z</time>
      </trkpt>
      <trkpt lat="44.0732" lon="0.59274">
        <ele>128</ele>
        <time>2025-07-24T12:37:31.289Z</time>
      </trkpt>
      <trkpt lat="44.07321" lon="0.59275">
        <ele>128</ele>
        <time>2025-07-24T12:37:32.289Z</time>
      </trkpt>
      <trkpt lat="44.07322" lon="0.59276">
        <ele>128</ele>
        <time>2025-07-24T12:37:33.289Z</time>
      </trkpt>
      <trkpt lat="44.07323" lon="0.59277">
        <ele>128</ele>
        <time>2025-07-24T12:37:34.289Z</time>
      </trkpt>
      <trkpt lat="44.07323" lon="0.59278">
        <ele>129</ele>
        <time>2025-07-24T12:37:35.289Z</time>
      </trkpt>
      <trkpt lat="44.07324" lon="0.59278">
        <ele>129</ele>
        <time>2025-07-24T12:37:36.289Z</time>
      </trkpt>
      <trkpt lat="44.07325" lon="0.59279">
        <ele>129</ele>
        <time>2025-07-24T12:37:37.289Z</time>
      </trkpt>
      <trkpt lat="44.07326" lon="0.5928">
        <ele>129</ele>
        <time>2025-07-24T12:37:38.289Z</time>
      </trkpt>
      <trkpt lat="44.07326" lon="0.59281">
        <ele>129</ele>
        <time>2025-07-24T12:37:39.289Z</time>
      </trkpt>
      <trkpt lat="44.07327" lon="0.59282">
        <ele>129</ele>
        <time>2025-07-24T12:37:40.289Z</time>
      </trkpt>
      <trkpt lat="44.07328" lon="0.59283">
        <ele>130</ele>
        <time>2025-07-24T12:37:41.289Z</time>
      </trkpt>
      <trkpt lat="44.07329" lon="0.59283">
        <ele>130</ele>
        <time>2025-07-24T12:37:42.289Z</time>
      </trkpt>
      <trkpt lat="44.07329" lon="0.59284">
        <ele>130</ele>
        <time>2025-07-24T12:37:43.289Z</time>
      </trkpt>
      <trkpt lat="44.0733" lon="0.59286">
        <ele>130</ele>
        <time>2025-07-24T12:37:44.289Z</time>
      </trkpt>
      <trkpt lat="44.07331" lon="0.59287">
        <ele>130</ele>
        <time>2025-07-24T12:37:45.289Z</time>
      </trkpt>
      <trkpt lat="44.07332" lon="0.59287">
        <ele>130</ele>
        <time>2025-07-24T12:37:46.289Z</time>
      </trkpt>
      <trkpt lat="44.07333" lon="0.59288">
        <ele>130</ele>
        <time>2025-07-24T12:37:47.289Z</time>
      </trkpt>
      <trkpt lat="44.07334" lon="0.59289">
        <ele>130</ele>
        <time>2025-07-24T12:37:48.289Z</time>
      </trkpt>
      <trkpt lat="44.07335" lon="0.5929">
        <ele>130</ele>
        <time>2025-07-24T12:37:49.289Z</time>
      </trkpt>
      <trkpt lat="44.07335" lon="0.59291">
        <ele>130</ele>
        <time>2025-07-24T12:37:50.289Z</time>
      </trkpt>
      <trkpt lat="44.07336" lon="0.59292">
        <ele>130</ele>
        <time>2025-07-24T12:37:51.289Z</time>
      </trkpt>
      <trkpt lat="44.07337" lon="0.59293">
        <ele>130</ele>
        <time>2025-07-24T12:37:52.289Z</time>
      </trkpt>
      <trkpt lat="44.07337" lon="0.59293">
        <ele>130</ele>
        <time>2025-07-24T12:37:53.289Z</time>
      </trkpt>
      <trkpt lat="44.07338" lon="0.59294">
        <ele>130</ele>
        <time>2025-07-24T12:37:54.289Z</time>
      </trkpt>
      <trkpt lat="44.07339" lon="0.59295">
        <ele>131</ele>
        <time>2025-07-24T12:37:55.289Z</time>
      </trkpt>
      <trkpt lat="44.0734" lon="0.59295">
        <ele>131</ele>
        <time>2025-07-24T12:37:56.289Z</time>
      </trkpt>
      <trkpt lat="44.0734" lon="0.59296">
        <ele>131</ele>
        <time>2025-07-24T12:37:57.289Z</time>
      </trkpt>
      <trkpt lat="44.07341" lon="0.59297">
        <ele>131</ele>
        <time>2025-07-24T12:37:58.289Z</time>
      </trkpt>
      <trkpt lat="44.07342" lon="0.59297">
        <ele>131</ele>
        <time>2025-07-24T12:37:59.289Z</time>
      </trkpt>
      <trkpt lat="44.07343" lon="0.59298">
        <ele>131</ele>
        <time>2025-07-24T12:38:00.289Z</time>
      </trkpt>
      <trkpt lat="44.07344" lon="0.59299">
        <ele>131</ele>
        <time>2025-07-24T12:38:01.289Z</time>
      </trkpt>
      <trkpt lat="44.07344" lon="0.593">
        <ele>131</ele>
        <time>2025-07-24T12:38:02.289Z</time>
      </trkpt>
      <trkpt lat="44.07345" lon="0.593">
        <ele>131</ele>
        <time>2025-07-24T12:38:03.289Z</time>
      </trkpt>
      <trkpt lat="44.07346" lon="0.59301">
        <ele>132</ele>
        <time>2025-07-24T12:38:04.289Z</time>
      </trkpt>
      <trkpt lat="44.07347" lon="0.59302">
        <ele>132</ele>
        <time>2025-07-24T12:38:05.289Z</time>
      </trkpt>
      <trkpt lat="44.07348" lon="0.59303">
        <ele>133</ele>
        <time>2025-07-24T12:38:06.289Z</time>
      </trkpt>
      <trkpt lat="44.07348" lon="0.59303">
        <ele>133</ele>
        <time>2025-07-24T12:38:07.289Z</time>
      </trkpt>
      <trkpt lat="44.07349" lon="0.59304">
        <ele>133</ele>
        <time>2025-07-24T12:38:08.289Z</time>
      </trkpt>
      <trkpt lat="44.0735" lon="0.59305">
        <ele>133</ele>
        <time>2025-07-24T12:38:09.289Z</time>
      </trkpt>
      <trkpt lat="44.07351" lon="0.59306">
        <ele>133</ele>
        <time>2025-07-24T12:38:10.289Z</time>
      </trkpt>
      <trkpt lat="44.07351" lon="0.59306">
        <ele>134</ele>
        <time>2025-07-24T12:38:11.289Z</time>
      </trkpt>
      <trkpt lat="44.07352" lon="0.59307">
        <ele>134</ele>
        <time>2025-07-24T12:38:12.289Z</time>
      </trkpt>
      <trkpt lat="44.07353" lon="0.59308">
        <ele>134</ele>
        <time>2025-07-24T12:38:13.289Z</time>
      </trkpt>
      <trkpt lat="44.07354" lon="0.59308">
        <ele>134</ele>
        <time>2025-07-24T12:38:14.289Z</time>
      </trkpt>
      <trkpt lat="44.07355" lon="0.59309">
        <ele>134</ele>
        <time>2025-07-24T12:38:15.289Z</time>
      </trkpt>
      <trkpt lat="44.07355" lon="0.59309">
        <ele>134</ele>
        <time>2025-07-24T12:38:16.289Z</time>
      </trkpt>
      <trkpt lat="44.07356" lon="0.5931">
        <ele>134</ele>
        <time>2025-07-24T12:38:17.289Z</time>
      </trkpt>
      <trkpt lat="44.07357" lon="0.5931">
        <ele>134</ele>
        <time>2025-07-24T12:38:18.289Z</time>
      </trkpt>
      <trkpt lat="44.07358" lon="0.59311">
        <ele>134</ele>
        <time>2025-07-24T12:38:19.289Z</time>
      </trkpt>
      <trkpt lat="44.07359" lon="0.59312">
        <ele>135</ele>
        <time>2025-07-24T12:38:20.289Z</time>
      </trkpt>
      <trkpt lat="44.0736" lon="0.59313">
        <ele>135</ele>
        <time>2025-07-24T12:38:21.289Z</time>
      </trkpt>
      <trkpt lat="44.07361" lon="0.59313">
        <ele>135</ele>
        <time>2025-07-24T12:38:22.289Z</time>
      </trkpt>
      <trkpt lat="44.07361" lon="0.59313">
        <ele>135</ele>
        <time>2025-07-24T12:38:23.289Z</time>
      </trkpt>
      <trkpt lat="44.07363" lon="0.59314">
        <ele>135</ele>
        <time>2025-07-24T12:38:24.289Z</time>
      </trkpt>
      <trkpt lat="44.07363" lon="0.59314">
        <ele>135</ele>
        <time>2025-07-24T12:38:25.289Z</time>
      </trkpt>
      <trkpt lat="44.07364" lon="0.59315">
        <ele>135</ele>
        <time>2025-07-24T12:38:26.289Z</time>
      </trkpt>
      <trkpt lat="44.07365" lon="0.59315">
        <ele>135</ele>
        <time>2025-07-24T12:38:27.289Z</time>
      </trkpt>
      <trkpt lat="44.07366" lon="0.59315">
        <ele>136</ele>
        <time>2025-07-24T12:38:28.289Z</time>
      </trkpt>
      <trkpt lat="44.07367" lon="0.59316">
        <ele>136</ele>
        <time>2025-07-24T12:38:29.289Z</time>
      </trkpt>
      <trkpt lat="44.07368" lon="0.59316">
        <ele>136</ele>
        <time>2025-07-24T12:38:30.289Z</time>
      </trkpt>
      <trkpt lat="44.07369" lon="0.59316">
        <ele>136</ele>
        <time>2025-07-24T12:38:31.289Z</time>
      </trkpt>
      <trkpt lat="44.0737" lon="0.59316">
        <ele>137</ele>
        <time>2025-07-24T12:38:32.289Z</time>
      </trkpt>
      <trkpt lat="44.0737" lon="0.59315">
        <ele>137</ele>
        <time>2025-07-24T12:38:33.289Z</time>
      </trkpt>
      <trkpt lat="44.07371" lon="0.59315">
        <ele>137</ele>
        <time>2025-07-24T12:38:34.289Z</time>
      </trkpt>
      <trkpt lat="44.07372" lon="0.59315">
        <ele>137</ele>
        <time>2025-07-24T12:38:35.289Z</time>
      </trkpt>
      <trkpt lat="44.07373" lon="0.59315">
        <ele>138</ele>
        <time>2025-07-24T12:38:36.289Z</time>
      </trkpt>
      <trkpt lat="44.07374" lon="0.59314">
        <ele>138</ele>
        <time>2025-07-24T12:38:37.289Z</time>
      </trkpt>
      <trkpt lat="44.07375" lon="0.59313">
        <ele>139</ele>
        <time>2025-07-24T12:38:38.289Z</time>
      </trkpt>
      <trkpt lat="44.07375" lon="0.59312">
        <ele>139</ele>
        <time>2025-07-24T12:38:39.289Z</time>
      </trkpt>
      <trkpt lat="44.07376" lon="0.59311">
        <ele>139</ele>
        <time>2025-07-24T12:38:40.289Z</time>
      </trkpt>
      <trkpt lat="44.07377" lon="0.5931">
        <ele>140</ele>
        <time>2025-07-24T12:38:41.289Z</time>
      </trkpt>
      <trkpt lat="44.07377" lon="0.5931">
        <ele>140</ele>
        <time>2025-07-24T12:38:42.289Z</time>
      </trkpt>
      <trkpt lat="44.07378" lon="0.59309">
        <ele>140</ele>
        <time>2025-07-24T12:38:43.289Z</time>
      </trkpt>
      <trkpt lat="44.07379" lon="0.59308">
        <ele>141</ele>
        <time>2025-07-24T12:38:44.289Z</time>
      </trkpt>
      <trkpt lat="44.07379" lon="0.59308">
        <ele>141</ele>
        <time>2025-07-24T12:38:45.289Z</time>
      </trkpt>
      <trkpt lat="44.0738" lon="0.59307">
        <ele>141</ele>
        <time>2025-07-24T12:38:46.289Z</time>
      </trkpt>
      <trkpt lat="44.0738" lon="0.59307">
        <ele>141</ele>
        <time>2025-07-24T12:38:47.289Z</time>
      </trkpt>
      <trkpt lat="44.07381" lon="0.59306">
        <ele>142</ele>
        <time>2025-07-24T12:38:48.289Z</time>
      </trkpt>
      <trkpt lat="44.07381" lon="0.59306">
        <ele>142</ele>
        <time>2025-07-24T12:38:49.289Z</time>
      </trkpt>
      <trkpt lat="44.07381" lon="0.59306">
        <ele>142</ele>
        <time>2025-07-24T12:38:50.289Z</time>
      </trkpt>
      <trkpt lat="44.07382" lon="0.59306">
        <ele>142</ele>
        <time>2025-07-24T12:38:51.289Z</time>
      </trkpt>
      <trkpt lat="44.07382" lon="0.59306">
        <ele>142</ele>
        <time>2025-07-24T12:38:52.289Z</time>
      </trkpt>
      <trkpt lat="44.07382" lon="0.59306">
        <ele>142</ele>
        <time>2025-07-24T12:38:53.289Z</time>
      </trkpt>
      <trkpt lat="44.07383" lon="0.59306">
        <ele>142</ele>
        <time>2025-07-24T12:38:54.289Z</time>
      </trkpt>
      <trkpt lat="44.07383" lon="0.59305">
        <ele>142</ele>
        <time>2025-07-24T12:38:55.289Z</time>
      </trkpt>
      <trkpt lat="44.07384" lon="0.59305">
        <ele>142</ele>
        <time>2025-07-24T12:38:56.289Z</time>
      </trkpt>
      <trkpt lat="44.07384" lon="0.59304">
        <ele>142</ele>
        <time>2025-07-24T12:38:57.289Z</time>
      </trkpt>
      <trkpt lat="44.07385" lon="0.59304">
        <ele>142</ele>
        <time>2025-07-24T12:38:58.289Z</time>
      </trkpt>
      <trkpt lat="44.07385" lon="0.59303">
        <ele>143</ele>
        <time>2025-07-24T12:38:59.289Z</time>
      </trkpt>
      <trkpt lat="44.07386" lon="0.59303">
        <ele>143</ele>
        <time>2025-07-24T12:39:00.289Z</time>
      </trkpt>
      <trkpt lat="44.07386" lon="0.59302">
        <ele>143</ele>
        <time>2025-07-24T12:39:01.289Z</time>
      </trkpt>
      <trkpt lat="44.07386" lon="0.59301">
        <ele>142</ele>
        <time>2025-07-24T12:39:02.289Z</time>
      </trkpt>
      <trkpt lat="44.07387" lon="0.59301">
        <ele>142</ele>
        <time>2025-07-24T12:39:03.289Z</time>
      </trkpt>
      <trkpt lat="44.07387" lon="0.593">
        <ele>142</ele>
        <time>2025-07-24T12:39:04.289Z</time>
      </trkpt>
      <trkpt lat="44.07387" lon="0.59299">
        <ele>142</ele>
        <time>2025-07-24T12:39:05.289Z</time>
      </trkpt>
      <trkpt lat="44.07387" lon="0.59298">
        <ele>142</ele>
        <time>2025-07-24T12:39:06.289Z</time>
      </trkpt>
      <trkpt lat="44.07388" lon="0.59297">
        <ele>142</ele>
        <time>2025-07-24T12:39:07.289Z</time>
      </trkpt>
      <trkpt lat="44.07388" lon="0.59296">
        <ele>142</ele>
        <time>2025-07-24T12:39:08.289Z</time>
      </trkpt>
      <trkpt lat="44.07387" lon="0.59296">
        <ele>142</ele>
        <time>2025-07-24T12:39:09.289Z</time>
      </trkpt>
      <trkpt lat="44.07387" lon="0.59296">
        <ele>142</ele>
        <time>2025-07-24T12:39:10.289Z</time>
      </trkpt>
      <trkpt lat="44.07387" lon="0.59295">
        <ele>142</ele>
        <time>2025-07-24T12:39:11.289Z</time>
      </trkpt>
      <trkpt lat="44.07387" lon="0.59295">
        <ele>142</ele>
        <time>2025-07-24T12:39:12.289Z</time>
      </trkpt>
      <trkpt lat="44.07387" lon="0.59295">
        <ele>142</ele>
        <time>2025-07-24T12:39:13.289Z</time>
      </trkpt>
      <trkpt lat="44.07387" lon="0.59295">
        <ele>142</ele>
        <time>2025-07-24T12:39:14.289Z</time>
      </trkpt>
      <trkpt lat="44.07387" lon="0.59295">
        <ele>142</ele>
        <time>2025-07-24T12:39:15.289Z</time>
      </trkpt>
      <trkpt lat="44.07387" lon="0.59295">
        <ele>141</ele>
        <time>2025-07-24T12:39:16.289Z</time>
      </trkpt>
      <trkpt lat="44.07387" lon="0.59295">
        <ele>141</ele>
        <time>2025-07-24T12:39:17.289Z</time>
      </trkpt>
      <trkpt lat="44.07387" lon="0.59295">
        <ele>141</ele>
        <time>2025-07-24T12:39:18.289Z</time>
      </trkpt>
      <trkpt lat="44.07387" lon="0.59295">
        <ele>141</ele>
        <time>2025-07-24T12:39:19.289Z</time>
      </trkpt>
      <trkpt lat="44.07387" lon="0.59295">
        <ele>141</ele>
        <time>2025-07-24T12:39:20.289Z</time>
      </trkpt>
      <trkpt lat="44.07387" lon="0.59295">
        <ele>142</ele>
        <time>2025-07-24T12:39:21.289Z</time>
      </trkpt>
      <trkpt lat="44.07387" lon="0.59295">
        <ele>142</ele>
        <time>2025-07-24T12:39:22.289Z</time>
      </trkpt>
      <trkpt lat="44.07387" lon="0.59295">
        <ele>142</ele>
        <time>2025-07-24T12:39:23.289Z</time>
      </trkpt>
      <trkpt lat="44.07387" lon="0.59295">
        <ele>142</ele>
        <time>2025-07-24T12:39:24.289Z</time>
      </trkpt>
      <trkpt lat="44.07387" lon="0.59295">
        <ele>142</ele>
        <time>2025-07-24T12:39:25.289Z</time>
      </trkpt>
      <trkpt lat="44.07387" lon="0.59294">
        <ele>142</ele>
        <time>2025-07-24T12:39:26.289Z</time>
      </trkpt>
      <trkpt lat="44.07387" lon="0.59294">
        <ele>142</ele>
        <time>2025-07-24T12:39:27.289Z</time>
      </trkpt>
      <trkpt lat="44.07387" lon="0.59294">
        <ele>143</ele>
        <time>2025-07-24T12:39:28.289Z</time>
      </trkpt>
      <trkpt lat="44.07387" lon="0.59294">
        <ele>143</ele>
        <time>2025-07-24T12:39:29.289Z</time>
      </trkpt>
      <trkpt lat="44.07387" lon="0.59294">
        <ele>143</ele>
        <time>2025-07-24T12:39:30.289Z</time>
      </trkpt>
      <trkpt lat="44.07387" lon="0.59294">
        <ele>143</ele>
        <time>2025-07-24T12:39:31.289Z</time>
      </trkpt>
      <trkpt lat="44.07387" lon="0.59294">
        <ele>143</ele>
        <time>2025-07-24T12:39:32.289Z</time>
      </trkpt>
      <trkpt lat="44.07387" lon="0.59295">
        <ele>143</ele>
        <time>2025-07-24T12:39:33.289Z</time>
      </trkpt>
      <trkpt lat="44.07387" lon="0.59295">
        <ele>143</ele>
        <time>2025-07-24T12:39:34.289Z</time>
      </trkpt>
      <trkpt lat="44.07387" lon="0.59295">
        <ele>143</ele>
        <time>2025-07-24T12:39:35.289Z</time>
      </trkpt>
      <trkpt lat="44.07387" lon="0.59295">
        <ele>143</ele>
        <time>2025-07-24T12:39:36.289Z</time>
      </trkpt>
      <trkpt lat="44.07387" lon="0.59295">
        <ele>143</ele>
        <time>2025-07-24T12:39:37.289Z</time>
      </trkpt>
      <trkpt lat="44.07387" lon="0.59295">
        <ele>143</ele>
        <time>2025-07-24T12:39:38.289Z</time>
      </trkpt>
      <trkpt lat="44.07387" lon="0.59295">
        <ele>143</ele>
        <time>2025-07-24T12:39:39.289Z</time>
      </trkpt>
      <trkpt lat="44.07386" lon="0.59295">
        <ele>143</ele>
        <time>2025-07-24T12:39:40.289Z</time>
      </trkpt>
      <trkpt lat="44.07386" lon="0.59295">
        <ele>143</ele>
        <time>2025-07-24T12:39:41.289Z</time>
      </trkpt>
      <trkpt lat="44.07386" lon="0.59295">
        <ele>144</ele>
        <time>2025-07-24T12:39:42.289Z</time>
      </trkpt>
      <trkpt lat="44.07386" lon="0.59295">
        <ele>144</ele>
        <time>2025-07-24T12:39:43.289Z</time>
      </trkpt>
      <trkpt lat="44.07386" lon="0.59294">
        <ele>144</ele>
        <time>2025-07-24T12:39:44.289Z</time>
      </trkpt>
      <trkpt lat="44.07386" lon="0.59294">
        <ele>144</ele>
        <time>2025-07-24T12:39:45.289Z</time>
      </trkpt>
      <trkpt lat="44.07386" lon="0.59294">
        <ele>145</ele>
        <time>2025-07-24T12:39:46.289Z</time>
      </trkpt>
      <trkpt lat="44.07386" lon="0.59294">
        <ele>145</ele>
        <time>2025-07-24T12:39:47.289Z</time>
      </trkpt>
      <trkpt lat="44.07385" lon="0.59294">
        <ele>145</ele>
        <time>2025-07-24T12:39:48.289Z</time>
      </trkpt>
      <trkpt lat="44.07385" lon="0.59294">
        <ele>145</ele>
        <time>2025-07-24T12:39:49.289Z</time>
      </trkpt>
      <trkpt lat="44.07385" lon="0.59294">
        <ele>145</ele>
        <time>2025-07-24T12:39:50.289Z</time>
      </trkpt>
      <trkpt lat="44.07385" lon="0.59294">
        <ele>145</ele>
        <time>2025-07-24T12:39:51.289Z</time>
      </trkpt>
      <trkpt lat="44.07385" lon="0.59294">
        <ele>145</ele>
        <time>2025-07-24T12:39:52.289Z</time>
      </trkpt>
      <trkpt lat="44.07385" lon="0.59294">
        <ele>145</ele>
        <time>2025-07-24T12:39:53.289Z</time>
      </trkpt>
      <trkpt lat="44.07385" lon="0.59294">
        <ele>145</ele>
        <time>2025-07-24T12:39:54.289Z</time>
      </trkpt>
      <trkpt lat="44.07385" lon="0.59294">
        <ele>145</ele>
        <time>2025-07-24T12:39:55.289Z</time>
      </trkpt>
      <trkpt lat="44.07385" lon="0.59294">
        <ele>145</ele>
        <time>2025-07-24T12:39:56.289Z</time>
      </trkpt>
      <trkpt lat="44.07385" lon="0.59294">
        <ele>145</ele>
        <time>2025-07-24T12:39:57.289Z</time>
      </trkpt>
      <trkpt lat="44.07385" lon="0.59293">
        <ele>145</ele>
        <time>2025-07-24T12:39:58.289Z</time>
      </trkpt>
      <trkpt lat="44.07385" lon="0.59293">
        <ele>145</ele>
        <time>2025-07-24T12:39:59.289Z</time>
      </trkpt>
      <trkpt lat="44.07385" lon="0.59293">
        <ele>144</ele>
        <time>2025-07-24T12:40:00.289Z</time>
      </trkpt>
      <trkpt lat="44.07385" lon="0.59293">
        <ele>144</ele>
        <time>2025-07-24T12:40:01.289Z</time>
      </trkpt>
      <trkpt lat="44.07385" lon="0.59293">
        <ele>144</ele>
        <time>2025-07-24T12:40:02.289Z</time>
      </trkpt>
      <trkpt lat="44.07385" lon="0.59293">
        <ele>145</ele>
        <time>2025-07-24T12:40:03.289Z</time>
      </trkpt>
      <trkpt lat="44.07385" lon="0.59293">
        <ele>145</ele>
        <time>2025-07-24T12:40:04.289Z</time>
      </trkpt>
      <trkpt lat="44.07385" lon="0.59293">
        <ele>145</ele>
        <time>2025-07-24T12:40:05.289Z</time>
      </trkpt>
      <trkpt lat="44.07385" lon="0.59293">
        <ele>144</ele>
        <time>2025-07-24T12:40:06.289Z</time>
      </trkpt>
      <trkpt lat="44.07386" lon="0.59293">
        <ele>144</ele>
        <time>2025-07-24T12:40:07.289Z</time>
      </trkpt>
      <trkpt lat="44.07386" lon="0.59293">
        <ele>145</ele>
        <time>2025-07-24T12:40:08.289Z</time>
      </trkpt>
      <trkpt lat="44.07386" lon="0.59293">
        <ele>145</ele>
        <time>2025-07-24T12:40:09.289Z</time>
      </trkpt>
      <trkpt lat="44.07386" lon="0.59293">
        <ele>145</ele>
        <time>2025-07-24T12:40:10.289Z</time>
      </trkpt>
      <trkpt lat="44.07386" lon="0.59293">
        <ele>145</ele>
        <time>2025-07-24T12:40:11.289Z</time>
      </trkpt>
      <trkpt lat="44.07386" lon="0.59293">
        <ele>145</ele>
        <time>2025-07-24T12:40:12.289Z</time>
      </trkpt>
      <trkpt lat="44.07386" lon="0.59293">
        <ele>145</ele>
        <time>2025-07-24T12:40:13.289Z</time>
      </trkpt>
      <trkpt lat="44.07386" lon="0.59293">
        <ele>145</ele>
        <time>2025-07-24T12:40:14.289Z</time>
      </trkpt>
      <trkpt lat="44.07386" lon="0.59293">
        <ele>145</ele>
        <time>2025-07-24T12:40:15.289Z</time>
      </trkpt>
      <trkpt lat="44.07386" lon="0.59293">
        <ele>145</ele>
        <time>2025-07-24T12:40:16.289Z</time>
      </trkpt>
      <trkpt lat="44.07386" lon="0.59293">
        <ele>145</ele>
        <time>2025-07-24T12:40:17.289Z</time>
      </trkpt>
      <trkpt lat="44.07386" lon="0.59294">
        <ele>145</ele>
        <time>2025-07-24T12:40:18.289Z</time>
      </trkpt>
      <trkpt lat="44.07386" lon="0.59294">
        <ele>145</ele>
        <time>2025-07-24T12:40:19.289Z</time>
      </trkpt>
      <trkpt lat="44.07386" lon="0.59294">
        <ele>144</ele>
        <time>2025-07-24T12:40:20.289Z</time>
      </trkpt>
      <trkpt lat="44.07386" lon="0.59294">
        <ele>144</ele>
        <time>2025-07-24T12:40:21.289Z</time>
      </trkpt>
      <trkpt lat="44.07386" lon="0.59294">
        <ele>144</ele>
        <time>2025-07-24T12:40:22.289Z</time>
      </trkpt>
      <trkpt lat="44.07386" lon="0.59295">
        <ele>144</ele>
        <time>2025-07-24T12:40:23.289Z</time>
      </trkpt>
      <trkpt lat="44.07386" lon="0.59295">
        <ele>144</ele>
        <time>2025-07-24T12:40:24.289Z</time>
      </trkpt>
      <trkpt lat="44.07386" lon="0.59295">
        <ele>144</ele>
        <time>2025-07-24T12:40:25.289Z</time>
      </trkpt>
      <trkpt lat="44.07386" lon="0.59295">
        <ele>144</ele>
        <time>2025-07-24T12:40:26.289Z</time>
      </trkpt>
      <trkpt lat="44.07386" lon="0.59295">
        <ele>144</ele>
        <time>2025-07-24T12:40:27.289Z</time>
      </trkpt>
      <trkpt lat="44.07386" lon="0.59295">
        <ele>144</ele>
        <time>2025-07-24T12:40:28.289Z</time>
      </trkpt>
      <trkpt lat="44.07386" lon="0.59294">
        <ele>144</ele>
        <time>2025-07-24T12:40:29.289Z</time>
      </trkpt>
      <trkpt lat="44.07386" lon="0.59294">
        <ele>144</ele>
        <time>2025-07-24T12:40:30.289Z</time>
      </trkpt>
      <trkpt lat="44.07386" lon="0.59294">
        <ele>144</ele>
        <time>2025-07-24T12:40:31.289Z</time>
      </trkpt>
      <trkpt lat="44.07386" lon="0.59294">
        <ele>144</ele>
        <time>2025-07-24T12:40:32.289Z</time>
      </trkpt>
      <trkpt lat="44.07386" lon="0.59294">
        <ele>144</ele>
        <time>2025-07-24T12:40:33.289Z</time>
      </trkpt>
      <trkpt lat="44.07386" lon="0.59294">
        <ele>144</ele>
        <time>2025-07-24T12:40:34.289Z</time>
      </trkpt>
      <trkpt lat="44.07386" lon="0.59294">
        <ele>144</ele>
        <time>2025-07-24T12:40:35.289Z</time>
      </trkpt>
      <trkpt lat="44.07387" lon="0.59294">
        <ele>144</ele>
        <time>2025-07-24T12:40:36.289Z</time>
      </trkpt>
      <trkpt lat="44.07387" lon="0.59293">
        <ele>144</ele>
        <time>2025-07-24T12:40:37.289Z</time>
      </trkpt>
      <trkpt lat="44.07386" lon="0.59293">
        <ele>144</ele>
        <time>2025-07-24T12:40:38.289Z</time>
      </trkpt>
      <trkpt lat="44.07386" lon="0.59293">
        <ele>143</ele>
        <time>2025-07-24T12:40:39.289Z</time>
      </trkpt>
      <trkpt lat="44.07386" lon="0.59294">
        <ele>143</ele>
        <time>2025-07-24T12:40:40.289Z</time>
      </trkpt>
      <trkpt lat="44.07387" lon="0.59294">
        <ele>143</ele>
        <time>2025-07-24T12:40:41.289Z</time>
      </trkpt>
      <trkpt lat="44.07387" lon="0.59294">
        <ele>143</ele>
        <time>2025-07-24T12:40:42.289Z</time>
      </trkpt>
      <trkpt lat="44.07387" lon="0.59294">
        <ele>144</ele>
        <time>2025-07-24T12:40:43.289Z</time>
      </trkpt>
      <trkpt lat="44.07387" lon="0.59294">
        <ele>143</ele>
        <time>2025-07-24T12:40:44.289Z</time>
      </trkpt>
      <trkpt lat="44.07387" lon="0.59295">
        <ele>143</ele>
        <time>2025-07-24T12:40:45.289Z</time>
      </trkpt>
      <trkpt lat="44.07386" lon="0.59295">
        <ele>143</ele>
        <time>2025-07-24T12:40:46.289Z</time>
      </trkpt>
      <trkpt lat="44.07386" lon="0.59295">
        <ele>143</ele>
        <time>2025-07-24T12:40:47.290Z</time>
      </trkpt>
      <trkpt lat="44.07386" lon="0.59295">
        <ele>143</ele>
        <time>2025-07-24T12:40:48.289Z</time>
      </trkpt>
      <trkpt lat="44.07386" lon="0.59296">
        <ele>143</ele>
        <time>2025-07-24T12:40:49.289Z</time>
      </trkpt>
      <trkpt lat="44.07385" lon="0.59296">
        <ele>143</ele>
        <time>2025-07-24T12:40:50.289Z</time>
      </trkpt>
      <trkpt lat="44.07385" lon="0.59297">
        <ele>144</ele>
        <time>2025-07-24T12:40:51.289Z</time>
      </trkpt>
      <trkpt lat="44.07385" lon="0.59297">
        <ele>144</ele>
        <time>2025-07-24T12:40:52.289Z</time>
      </trkpt>
      <trkpt lat="44.07385" lon="0.59297">
        <ele>144</ele>
        <time>2025-07-24T12:40:53.289Z</time>
      </trkpt>
      <trkpt lat="44.07385" lon="0.59297">
        <ele>144</ele>
        <time>2025-07-24T12:40:54.289Z</time>
      </trkpt>
      <trkpt lat="44.07385" lon="0.59297">
        <ele>144</ele>
        <time>2025-07-24T12:40:55.289Z</time>
      </trkpt>
      <trkpt lat="44.07384" lon="0.59297">
        <ele>144</ele>
        <time>2025-07-24T12:40:56.289Z</time>
      </trkpt>
      <trkpt lat="44.07384" lon="0.59297">
        <ele>143</ele>
        <time>2025-07-24T12:40:57.289Z</time>
      </trkpt>
      <trkpt lat="44.07384" lon="0.59297">
        <ele>143</ele>
        <time>2025-07-24T12:40:58.289Z</time>
      </trkpt>
      <trkpt lat="44.07384" lon="0.59297">
        <ele>143</ele>
        <time>2025-07-24T12:40:59.289Z</time>
      </trkpt>
      <trkpt lat="44.07384" lon="0.59297">
        <ele>143</ele>
        <time>2025-07-24T12:41:00.289Z</time>
      </trkpt>
      <trkpt lat="44.07384" lon="0.59297">
        <ele>143</ele>
        <time>2025-07-24T12:41:01.289Z</time>
      </trkpt>
      <trkpt lat="44.07384" lon="0.59297">
        <ele>142</ele>
        <time>2025-07-24T12:41:02.289Z</time>
      </trkpt>
      <trkpt lat="44.07384" lon="0.59297">
        <ele>142</ele>
        <time>2025-07-24T12:41:03.289Z</time>
      </trkpt>
      <trkpt lat="44.07384" lon="0.59297">
        <ele>142</ele>
        <time>2025-07-24T12:41:04.289Z</time>
      </trkpt>
      <trkpt lat="44.07384" lon="0.59297">
        <ele>142</ele>
        <time>2025-07-24T12:41:05.289Z</time>
      </trkpt>
      <trkpt lat="44.07384" lon="0.59297">
        <ele>142</ele>
        <time>2025-07-24T12:41:06.289Z</time>
      </trkpt>
      <trkpt lat="44.07384" lon="0.59298">
        <ele>142</ele>
        <time>2025-07-24T12:41:07.289Z</time>
      </trkpt>
      <trkpt lat="44.07384" lon="0.59298">
        <ele>142</ele>
        <time>2025-07-24T12:41:08.289Z</time>
      </trkpt>
      <trkpt lat="44.07384" lon="0.59298">
        <ele>142</ele>
        <time>2025-07-24T12:41:09.289Z</time>
      </trkpt>
      <trkpt lat="44.07384" lon="0.59298">
        <ele>143</ele>
        <time>2025-07-24T12:41:10.289Z</time>
      </trkpt>
      <trkpt lat="44.07384" lon="0.59298">
        <ele>143</ele>
        <time>2025-07-24T12:41:11.289Z</time>
      </trkpt>
      <trkpt lat="44.07384" lon="0.59297">
        <ele>143</ele>
        <time>2025-07-24T12:41:12.289Z</time>
      </trkpt>
      <trkpt lat="44.07384" lon="0.59298">
        <ele>143</ele>
        <time>2025-07-24T12:41:13.289Z</time>
      </trkpt>
      <trkpt lat="44.07384" lon="0.59298">
        <ele>143</ele>
        <time>2025-07-24T12:41:14.289Z</time>
      </trkpt>
      <trkpt lat="44.07384" lon="0.59298">
        <ele>143</ele>
        <time>2025-07-24T12:41:15.289Z</time>
      </trkpt>
      <trkpt lat="44.07384" lon="0.59298">
        <ele>143</ele>
        <time>2025-07-24T12:41:16.289Z</time>
      </trkpt>
      <trkpt lat="44.07384" lon="0.59297">
        <ele>143</ele>
        <time>2025-07-24T12:41:17.289Z</time>
      </trkpt>
      <trkpt lat="44.07384" lon="0.59297">
        <ele>143</ele>
        <time>2025-07-24T12:41:18.289Z</time>
      </trkpt>
      <trkpt lat="44.07385" lon="0.59297">
        <ele>143</ele>
        <time>2025-07-24T12:41:19.289Z</time>
      </trkpt>
      <trkpt lat="44.07385" lon="0.59297">
        <ele>143</ele>
        <time>2025-07-24T12:41:20.289Z</time>
      </trkpt>
      <trkpt lat="44.07385" lon="0.59297">
        <ele>143</ele>
        <time>2025-07-24T12:41:21.289Z</time>
      </trkpt>
      <trkpt lat="44.07385" lon="0.59297">
        <ele>143</ele>
        <time>2025-07-24T12:41:22.289Z</time>
      </trkpt>
      <trkpt lat="44.07385" lon="0.59297">
        <ele>144</ele>
        <time>2025-07-24T12:41:23.289Z</time>
      </trkpt>
      <trkpt lat="44.07385" lon="0.59297">
        <ele>144</ele>
        <time>2025-07-24T12:41:24.289Z</time>
      </trkpt>
      <trkpt lat="44.07385" lon="0.59297">
        <ele>143</ele>
        <time>2025-07-24T12:41:25.289Z</time>
      </trkpt>
      <trkpt lat="44.07385" lon="0.59296">
        <ele>143</ele>
        <time>2025-07-24T12:41:26.289Z</time>
      </trkpt>
      <trkpt lat="44.07386" lon="0.59296">
        <ele>143</ele>
        <time>2025-07-24T12:41:27.289Z</time>
      </trkpt>
      <trkpt lat="44.07386" lon="0.59296">
        <ele>142</ele>
        <time>2025-07-24T12:41:28.289Z</time>
      </trkpt>
      <trkpt lat="44.07386" lon="0.59296">
        <ele>142</ele>
        <time>2025-07-24T12:41:29.289Z</time>
      </trkpt>
      <trkpt lat="44.07386" lon="0.59296">
        <ele>143</ele>
        <time>2025-07-24T12:41:30.289Z</time>
      </trkpt>
      <trkpt lat="44.07386" lon="0.59296">
        <ele>143</ele>
        <time>2025-07-24T12:41:31.289Z</time>
      </trkpt>
      <trkpt lat="44.07386" lon="0.59296">
        <ele>144</ele>
        <time>2025-07-24T12:41:32.289Z</time>
      </trkpt>
      <trkpt lat="44.07386" lon="0.59296">
        <ele>144</ele>
        <time>2025-07-24T12:41:33.289Z</time>
      </trkpt>
      <trkpt lat="44.07386" lon="0.59296">
        <ele>145</ele>
        <time>2025-07-24T12:41:34.289Z</time>
      </trkpt>
      <trkpt lat="44.07386" lon="0.59296">
        <ele>145</ele>
        <time>2025-07-24T12:41:35.289Z</time>
      </trkpt>
      <trkpt lat="44.07386" lon="0.59296">
        <ele>145</ele>
        <time>2025-07-24T12:41:36.289Z</time>
      </trkpt>
      <trkpt lat="44.07386" lon="0.59296">
        <ele>145</ele>
        <time>2025-07-24T12:41:37.289Z</time>
      </trkpt>
      <trkpt lat="44.07386" lon="0.59296">
        <ele>145</ele>
        <time>2025-07-24T12:41:38.289Z</time>
      </trkpt>
      <trkpt lat="44.07386" lon="0.59296">
        <ele>145</ele>
        <time>2025-07-24T12:41:39.289Z</time>
      </trkpt>
      <trkpt lat="44.07386" lon="0.59296">
        <ele>145</ele>
        <time>2025-07-24T12:41:40.289Z</time>
      </trkpt>
      <trkpt lat="44.07386" lon="0.59296">
        <ele>145</ele>
        <time>2025-07-24T12:41:41.289Z</time>
      </trkpt>
      <trkpt lat="44.07386" lon="0.59296">
        <ele>145</ele>
        <time>2025-07-24T12:41:42.289Z</time>
      </trkpt>
      <trkpt lat="44.07386" lon="0.59296">
        <ele>145</ele>
        <time>2025-07-24T12:41:43.289Z</time>
      </trkpt>
      <trkpt lat="44.07386" lon="0.59296">
        <ele>145</ele>
        <time>2025-07-24T12:41:44.289Z</time>
      </trkpt>
      <trkpt lat="44.07386" lon="0.59296">
        <ele>145</ele>
        <time>2025-07-24T12:41:45.289Z</time>
      </trkpt>
      <trkpt lat="44.07386" lon="0.59296">
        <ele>145</ele>
        <time>2025-07-24T12:41:46.289Z</time>
      </trkpt>
      <trkpt lat="44.07386" lon="0.59296">
        <ele>145</ele>
        <time>2025-07-24T12:41:47.289Z</time>
      </trkpt>
      <trkpt lat="44.07386" lon="0.59296">
        <ele>144</ele>
        <time>2025-07-24T12:41:48.289Z</time>
      </trkpt>
      <trkpt lat="44.07386" lon="0.59296">
        <ele>144</ele>
        <time>2025-07-24T12:41:49.289Z</time>
      </trkpt>
      <trkpt lat="44.07386" lon="0.59296">
        <ele>144</ele>
        <time>2025-07-24T12:41:50.289Z</time>
      </trkpt>
      <trkpt lat="44.07386" lon="0.59296">
        <ele>144</ele>
        <time>2025-07-24T12:41:51.289Z</time>
      </trkpt>
      <trkpt lat="44.07386" lon="0.59296">
        <ele>143</ele>
        <time>2025-07-24T12:41:52.289Z</time>
      </trkpt>
      <trkpt lat="44.07386" lon="0.59296">
        <ele>143</ele>
        <time>2025-07-24T12:41:53.289Z</time>
      </trkpt>
      <trkpt lat="44.07386" lon="0.59296">
        <ele>143</ele>
        <time>2025-07-24T12:41:54.289Z</time>
      </trkpt>
      <trkpt lat="44.07386" lon="0.59296">
        <ele>143</ele>
        <time>2025-07-24T12:41:55.289Z</time>
      </trkpt>
      <trkpt lat="44.07386" lon="0.59296">
        <ele>142</ele>
        <time>2025-07-24T12:41:56.289Z</time>
      </trkpt>
      <trkpt lat="44.07386" lon="0.59296">
        <ele>142</ele>
        <time>2025-07-24T12:41:57.289Z</time>
      </trkpt>
      <trkpt lat="44.07386" lon="0.59296">
        <ele>142</ele>
        <time>2025-07-24T12:41:58.289Z</time>
      </trkpt>
      <trkpt lat="44.07386" lon="0.59296">
        <ele>142</ele>
        <time>2025-07-24T12:41:59.289Z</time>
      </trkpt>
      <trkpt lat="44.07386" lon="0.59296">
        <ele>142</ele>
        <time>2025-07-24T12:42:00.289Z</time>
      </trkpt>
      <trkpt lat="44.07386" lon="0.59296">
        <ele>141</ele>
        <time>2025-07-24T12:42:01.289Z</time>
      </trkpt>
      <trkpt lat="44.07386" lon="0.59296">
        <ele>141</ele>
        <time>2025-07-24T12:42:02.289Z</time>
      </trkpt>
      <trkpt lat="44.07386" lon="0.59296">
        <ele>141</ele>
        <time>2025-07-24T12:42:03.289Z</time>
      </trkpt>
      <trkpt lat="44.07386" lon="0.59296">
        <ele>141</ele>
        <time>2025-07-24T12:42:04.289Z</time>
      </trkpt>
      <trkpt lat="44.07386" lon="0.59296">
        <ele>142</ele>
        <time>2025-07-24T12:42:05.289Z</time>
      </trkpt>
      <trkpt lat="44.07386" lon="0.59296">
        <ele>142</ele>
        <time>2025-07-24T12:42:06.289Z</time>
      </trkpt>
      <trkpt lat="44.07386" lon="0.59296">
        <ele>142</ele>
        <time>2025-07-24T12:42:07.289Z</time>
      </trkpt>
      <trkpt lat="44.07386" lon="0.59296">
        <ele>142</ele>
        <time>2025-07-24T12:42:08.289Z</time>
      </trkpt>
      <trkpt lat="44.07386" lon="0.59296">
        <ele>143</ele>
        <time>2025-07-24T12:42:09.289Z</time>
      </trkpt>
      <trkpt lat="44.07386" lon="0.59296">
        <ele>142</ele>
        <time>2025-07-24T12:42:10.289Z</time>
      </trkpt>
      <trkpt lat="44.07386" lon="0.59296">
        <ele>142</ele>
        <time>2025-07-24T12:42:11.289Z</time>
      </trkpt>
      <trkpt lat="44.07386" lon="0.59296">
        <ele>143</ele>
        <time>2025-07-24T12:42:12.289Z</time>
      </trkpt>
      <trkpt lat="44.07386" lon="0.59296">
        <ele>143</ele>
        <time>2025-07-24T12:42:13.289Z</time>
      </trkpt>
      <trkpt lat="44.07386" lon="0.59296">
        <ele>143</ele>
        <time>2025-07-24T12:42:14.289Z</time>
      </trkpt>
      <trkpt lat="44.07386" lon="0.59296">
        <ele>143</ele>
        <time>2025-07-24T12:42:15.289Z</time>
      </trkpt>
      <trkpt lat="44.07386" lon="0.59295">
        <ele>143</ele>
        <time>2025-07-24T12:42:16.289Z</time>
      </trkpt>
      <trkpt lat="44.07386" lon="0.59295">
        <ele>143</ele>
        <time>2025-07-24T12:42:17.289Z</time>
      </trkpt>
      <trkpt lat="44.07386" lon="0.59295">
        <ele>143</ele>
        <time>2025-07-24T12:42:18.289Z</time>
      </trkpt>
      <trkpt lat="44.07386" lon="0.59295">
        <ele>142</ele>
        <time>2025-07-24T12:42:19.289Z</time>
      </trkpt>
      <trkpt lat="44.07386" lon="0.59295">
        <ele>142</ele>
        <time>2025-07-24T12:42:20.289Z</time>
      </trkpt>
      <trkpt lat="44.07386" lon="0.59295">
        <ele>142</ele>
        <time>2025-07-24T12:42:21.289Z</time>
      </trkpt>
      <trkpt lat="44.07386" lon="0.59295">
        <ele>141</ele>
        <time>2025-07-24T12:42:22.289Z</time>
      </trkpt>
      <trkpt lat="44.07386" lon="0.59295">
        <ele>141</ele>
        <time>2025-07-24T12:42:23.289Z</time>
      </trkpt>
      <trkpt lat="44.07386" lon="0.59295">
        <ele>141</ele>
        <time>2025-07-24T12:42:24.289Z</time>
      </trkpt>
      <trkpt lat="44.07386" lon="0.59295">
        <ele>140</ele>
        <time>2025-07-24T12:42:25.289Z</time>
      </trkpt>
      <trkpt lat="44.07386" lon="0.59295">
        <ele>140</ele>
        <time>2025-07-24T12:42:26.289Z</time>
      </trkpt>
      <trkpt lat="44.07386" lon="0.59295">
        <ele>140</ele>
        <time>2025-07-24T12:42:27.289Z</time>
      </trkpt>
      <trkpt lat="44.07386" lon="0.59295">
        <ele>140</ele>
        <time>2025-07-24T12:42:28.289Z</time>
      </trkpt>
      <trkpt lat="44.07386" lon="0.59295">
        <ele>139</ele>
        <time>2025-07-24T12:42:29.289Z</time>
      </trkpt>
      <trkpt lat="44.07386" lon="0.59295">
        <ele>139</ele>
        <time>2025-07-24T12:42:30.289Z</time>
      </trkpt>
      <trkpt lat="44.07386" lon="0.59295">
        <ele>139</ele>
        <time>2025-07-24T12:42:31.289Z</time>
      </trkpt>
      <trkpt lat="44.07387" lon="0.59295">
        <ele>139</ele>
        <time>2025-07-24T12:42:32.289Z</time>
      </trkpt>
      <trkpt lat="44.07387" lon="0.59295">
        <ele>139</ele>
        <time>2025-07-24T12:42:33.289Z</time>
      </trkpt>
      <trkpt lat="44.07387" lon="0.59295">
        <ele>139</ele>
        <time>2025-07-24T12:42:34.289Z</time>
      </trkpt>
      <trkpt lat="44.07387" lon="0.59295">
        <ele>139</ele>
        <time>2025-07-24T12:42:35.289Z</time>
      </trkpt>
      <trkpt lat="44.07387" lon="0.59295">
        <ele>139</ele>
        <time>2025-07-24T12:42:36.289Z</time>
      </trkpt>
      <trkpt lat="44.07387" lon="0.59295">
        <ele>138</ele>
        <time>2025-07-24T12:42:37.289Z</time>
      </trkpt>
      <trkpt lat="44.07387" lon="0.59295">
        <ele>138</ele>
        <time>2025-07-24T12:42:38.289Z</time>
      </trkpt>
      <trkpt lat="44.07387" lon="0.59295">
        <ele>138</ele>
        <time>2025-07-24T12:42:39.289Z</time>
      </trkpt>
      <trkpt lat="44.07387" lon="0.59295">
        <ele>138</ele>
        <time>2025-07-24T12:42:40.289Z</time>
      </trkpt>
      <trkpt lat="44.07387" lon="0.59295">
        <ele>138</ele>
        <time>2025-07-24T12:42:41.289Z</time>
      </trkpt>
      <trkpt lat="44.07387" lon="0.59295">
        <ele>139</ele>
        <time>2025-07-24T12:42:42.289Z</time>
      </trkpt>
      <trkpt lat="44.07387" lon="0.59295">
        <ele>140</ele>
        <time>2025-07-24T12:42:43.289Z</time>
      </trkpt>
      <trkpt lat="44.07387" lon="0.59295">
        <ele>140</ele>
        <time>2025-07-24T12:42:44.289Z</time>
      </trkpt>
      <trkpt lat="44.07387" lon="0.59295">
        <ele>140</ele>
        <time>2025-07-24T12:42:45.289Z</time>
      </trkpt>
      <trkpt lat="44.07387" lon="0.59295">
        <ele>140</ele>
        <time>2025-07-24T12:42:46.289Z</time>
      </trkpt>
      <trkpt lat="44.07387" lon="0.59294">
        <ele>141</ele>
        <time>2025-07-24T12:42:47.289Z</time>
      </trkpt>
      <trkpt lat="44.07387" lon="0.59295">
        <ele>141</ele>
        <time>2025-07-24T12:42:48.289Z</time>
      </trkpt>
      <trkpt lat="44.07387" lon="0.59294">
        <ele>141</ele>
        <time>2025-07-24T12:42:49.289Z</time>
      </trkpt>
      <trkpt lat="44.07387" lon="0.59295">
        <ele>142</ele>
        <time>2025-07-24T12:42:50.289Z</time>
      </trkpt>
      <trkpt lat="44.07387" lon="0.59295">
        <ele>142</ele>
        <time>2025-07-24T12:42:51.289Z</time>
      </trkpt>
      <trkpt lat="44.07387" lon="0.59295">
        <ele>142</ele>
        <time>2025-07-24T12:42:52.289Z</time>
      </trkpt>
      <trkpt lat="44.07387" lon="0.59295">
        <ele>142</ele>
        <time>2025-07-24T12:42:53.289Z</time>
      </trkpt>
      <trkpt lat="44.07387" lon="0.59295">
        <ele>142</ele>
        <time>2025-07-24T12:42:54.289Z</time>
      </trkpt>
      <trkpt lat="44.07387" lon="0.59294">
        <ele>142</ele>
        <time>2025-07-24T12:42:55.289Z</time>
      </trkpt>
      <trkpt lat="44.07387" lon="0.59294">
        <ele>142</ele>
        <time>2025-07-24T12:42:56.289Z</time>
      </trkpt>
      <trkpt lat="44.07388" lon="0.59294">
        <ele>142</ele>
        <time>2025-07-24T12:42:57.289Z</time>
      </trkpt>
      <trkpt lat="44.07388" lon="0.59294">
        <ele>142</ele>
        <time>2025-07-24T12:42:58.289Z</time>
      </trkpt>
      <trkpt lat="44.07389" lon="0.59293">
        <ele>142</ele>
        <time>2025-07-24T12:42:59.289Z</time>
      </trkpt>
      <trkpt lat="44.07389" lon="0.59292">
        <ele>142</ele>
        <time>2025-07-24T12:43:00.289Z</time>
      </trkpt>
      <trkpt lat="44.0739" lon="0.59291">
        <ele>142</ele>
        <time>2025-07-24T12:43:01.289Z</time>
      </trkpt>
      <trkpt lat="44.0739" lon="0.59291">
        <ele>142</ele>
        <time>2025-07-24T12:43:02.289Z</time>
      </trkpt>
      <trkpt lat="44.07391" lon="0.59289">
        <ele>142</ele>
        <time>2025-07-24T12:43:03.289Z</time>
      </trkpt>
      <trkpt lat="44.07391" lon="0.59288">
        <ele>142</ele>
        <time>2025-07-24T12:43:04.289Z</time>
      </trkpt>
      <trkpt lat="44.07391" lon="0.59287">
        <ele>142</ele>
        <time>2025-07-24T12:43:05.289Z</time>
      </trkpt>
      <trkpt lat="44.07392" lon="0.59286">
        <ele>143</ele>
        <time>2025-07-24T12:43:06.289Z</time>
      </trkpt>
      <trkpt lat="44.07392" lon="0.59285">
        <ele>143</ele>
        <time>2025-07-24T12:43:07.289Z</time>
      </trkpt>
      <trkpt lat="44.07392" lon="0.59284">
        <ele>143</ele>
        <time>2025-07-24T12:43:08.289Z</time>
      </trkpt>
      <trkpt lat="44.07392" lon="0.59283">
        <ele>144</ele>
        <time>2025-07-24T12:43:09.289Z</time>
      </trkpt>
      <trkpt lat="44.07392" lon="0.59282">
        <ele>144</ele>
        <time>2025-07-24T12:43:10.289Z</time>
      </trkpt>
      <trkpt lat="44.07393" lon="0.5928">
        <ele>145</ele>
        <time>2025-07-24T12:43:11.289Z</time>
      </trkpt>
      <trkpt lat="44.07393" lon="0.59279">
        <ele>145</ele>
        <time>2025-07-24T12:43:12.289Z</time>
      </trkpt>
      <trkpt lat="44.07394" lon="0.59278">
        <ele>145</ele>
        <time>2025-07-24T12:43:13.289Z</time>
      </trkpt>
      <trkpt lat="44.07395" lon="0.59276">
        <ele>145</ele>
        <time>2025-07-24T12:43:14.289Z</time>
      </trkpt>
      <trkpt lat="44.07395" lon="0.59275">
        <ele>144</ele>
        <time>2025-07-24T12:43:15.289Z</time>
      </trkpt>
      <trkpt lat="44.07395" lon="0.59274">
        <ele>144</ele>
        <time>2025-07-24T12:43:16.289Z</time>
      </trkpt>
      <trkpt lat="44.07396" lon="0.59274">
        <ele>144</ele>
        <time>2025-07-24T12:43:17.289Z</time>
      </trkpt>
      <trkpt lat="44.07396" lon="0.59274">
        <ele>144</ele>
        <time>2025-07-24T12:43:18.289Z</time>
      </trkpt>
      <trkpt lat="44.07396" lon="0.59273">
        <ele>144</ele>
        <time>2025-07-24T12:43:19.289Z</time>
      </trkpt>
      <trkpt lat="44.07396" lon="0.59273">
        <ele>145</ele>
        <time>2025-07-24T12:43:20.289Z</time>
      </trkpt>
      <trkpt lat="44.07396" lon="0.59272">
        <ele>144</ele>
        <time>2025-07-24T12:43:21.289Z</time>
      </trkpt>
      <trkpt lat="44.07397" lon="0.59271">
        <ele>144</ele>
        <time>2025-07-24T12:43:22.289Z</time>
      </trkpt>
      <trkpt lat="44.07397" lon="0.5927">
        <ele>143</ele>
        <time>2025-07-24T12:43:23.289Z</time>
      </trkpt>
      <trkpt lat="44.07397" lon="0.59269">
        <ele>143</ele>
        <time>2025-07-24T12:43:24.289Z</time>
      </trkpt>
      <trkpt lat="44.07398" lon="0.59268">
        <ele>142</ele>
        <time>2025-07-24T12:43:25.289Z</time>
      </trkpt>
      <trkpt lat="44.07398" lon="0.59267">
        <ele>142</ele>
        <time>2025-07-24T12:43:26.289Z</time>
      </trkpt>
      <trkpt lat="44.07399" lon="0.59265">
        <ele>142</ele>
        <time>2025-07-24T12:43:27.289Z</time>
      </trkpt>
      <trkpt lat="44.07399" lon="0.59263">
        <ele>142</ele>
        <time>2025-07-24T12:43:28.289Z</time>
      </trkpt>
      <trkpt lat="44.07399" lon="0.59262">
        <ele>143</ele>
        <time>2025-07-24T12:43:29.289Z</time>
      </trkpt>
      <trkpt lat="44.074" lon="0.5926">
        <ele>143</ele>
        <time>2025-07-24T12:43:30.289Z</time>
      </trkpt>
      <trkpt lat="44.074" lon="0.59259">
        <ele>142</ele>
        <time>2025-07-24T12:43:31.289Z</time>
      </trkpt>
      <trkpt lat="44.07401" lon="0.59258">
        <ele>142</ele>
        <time>2025-07-24T12:43:32.289Z</time>
      </trkpt>
      <trkpt lat="44.07401" lon="0.59257">
        <ele>141</ele>
        <time>2025-07-24T12:43:33.289Z</time>
      </trkpt>
      <trkpt lat="44.07402" lon="0.59255">
        <ele>141</ele>
        <time>2025-07-24T12:43:34.289Z</time>
      </trkpt>
      <trkpt lat="44.07402" lon="0.59254">
        <ele>140</ele>
        <time>2025-07-24T12:43:35.289Z</time>
      </trkpt>
      <trkpt lat="44.07402" lon="0.59252">
        <ele>140</ele>
        <time>2025-07-24T12:43:36.289Z</time>
      </trkpt>
      <trkpt lat="44.07403" lon="0.5925">
        <ele>140</ele>
        <time>2025-07-24T12:43:37.289Z</time>
      </trkpt>
      <trkpt lat="44.07404" lon="0.59249">
        <ele>140</ele>
        <time>2025-07-24T12:43:38.289Z</time>
      </trkpt>
      <trkpt lat="44.07404" lon="0.59247">
        <ele>140</ele>
        <time>2025-07-24T12:43:39.289Z</time>
      </trkpt>
      <trkpt lat="44.07405" lon="0.59246">
        <ele>140</ele>
        <time>2025-07-24T12:43:40.289Z</time>
      </trkpt>
      <trkpt lat="44.07405" lon="0.59244">
        <ele>140</ele>
        <time>2025-07-24T12:43:41.289Z</time>
      </trkpt>
      <trkpt lat="44.07405" lon="0.59243">
        <ele>140</ele>
        <time>2025-07-24T12:43:42.289Z</time>
      </trkpt>
      <trkpt lat="44.07406" lon="0.59242">
        <ele>140</ele>
        <time>2025-07-24T12:43:43.289Z</time>
      </trkpt>
      <trkpt lat="44.07406" lon="0.5924">
        <ele>140</ele>
        <time>2025-07-24T12:43:44.289Z</time>
      </trkpt>
      <trkpt lat="44.07407" lon="0.59239">
        <ele>140</ele>
        <time>2025-07-24T12:43:45.289Z</time>
      </trkpt>
      <trkpt lat="44.07408" lon="0.59237">
        <ele>140</ele>
        <time>2025-07-24T12:43:46.289Z</time>
      </trkpt>
      <trkpt lat="44.07408" lon="0.59236">
        <ele>140</ele>
        <time>2025-07-24T12:43:47.289Z</time>
      </trkpt>
      <trkpt lat="44.07409" lon="0.59234">
        <ele>140</ele>
        <time>2025-07-24T12:43:48.289Z</time>
      </trkpt>
      <trkpt lat="44.07409" lon="0.59232">
        <ele>141</ele>
        <time>2025-07-24T12:43:49.289Z</time>
      </trkpt>
      <trkpt lat="44.0741" lon="0.5923">
        <ele>141</ele>
        <time>2025-07-24T12:43:50.289Z</time>
      </trkpt>
      <trkpt lat="44.0741" lon="0.59229">
        <ele>141</ele>
        <time>2025-07-24T12:43:51.289Z</time>
      </trkpt>
      <trkpt lat="44.0741" lon="0.59227">
        <ele>141</ele>
        <time>2025-07-24T12:43:52.289Z</time>
      </trkpt>
      <trkpt lat="44.07411" lon="0.59226">
        <ele>141</ele>
        <time>2025-07-24T12:43:53.289Z</time>
      </trkpt>
      <trkpt lat="44.07411" lon="0.59224">
        <ele>141</ele>
        <time>2025-07-24T12:43:54.289Z</time>
      </trkpt>
      <trkpt lat="44.07412" lon="0.59223">
        <ele>141</ele>
        <time>2025-07-24T12:43:55.289Z</time>
      </trkpt>
      <trkpt lat="44.07412" lon="0.59222">
        <ele>141</ele>
        <time>2025-07-24T12:43:56.289Z</time>
      </trkpt>
      <trkpt lat="44.07413" lon="0.59221">
        <ele>141</ele>
        <time>2025-07-24T12:43:57.289Z</time>
      </trkpt>
      <trkpt lat="44.07413" lon="0.59219">
        <ele>141</ele>
        <time>2025-07-24T12:43:58.289Z</time>
      </trkpt>
      <trkpt lat="44.07413" lon="0.59219">
        <ele>141</ele>
        <time>2025-07-24T12:43:59.289Z</time>
      </trkpt>
      <trkpt lat="44.07414" lon="0.59218">
        <ele>142</ele>
        <time>2025-07-24T12:44:00.289Z</time>
      </trkpt>
      <trkpt lat="44.07414" lon="0.59218">
        <ele>142</ele>
        <time>2025-07-24T12:44:01.289Z</time>
      </trkpt>
      <trkpt lat="44.07414" lon="0.59217">
        <ele>142</ele>
        <time>2025-07-24T12:44:02.289Z</time>
      </trkpt>
      <trkpt lat="44.07414" lon="0.59217">
        <ele>142</ele>
        <time>2025-07-24T12:44:03.289Z</time>
      </trkpt>
      <trkpt lat="44.07414" lon="0.59217">
        <ele>142</ele>
        <time>2025-07-24T12:44:04.289Z</time>
      </trkpt>
      <trkpt lat="44.07414" lon="0.59217">
        <ele>142</ele>
        <time>2025-07-24T12:44:05.289Z</time>
      </trkpt>
      <trkpt lat="44.07414" lon="0.59217">
        <ele>142</ele>
        <time>2025-07-24T12:44:06.289Z</time>
      </trkpt>
      <trkpt lat="44.07414" lon="0.59217">
        <ele>142</ele>
        <time>2025-07-24T12:44:07.289Z</time>
      </trkpt>
      <trkpt lat="44.07414" lon="0.59217">
        <ele>142</ele>
        <time>2025-07-24T12:44:08.289Z</time>
      </trkpt>
      <trkpt lat="44.07414" lon="0.59217">
        <ele>142</ele>
        <time>2025-07-24T12:44:09.289Z</time>
      </trkpt>
      <trkpt lat="44.07414" lon="0.59216">
        <ele>142</ele>
        <time>2025-07-24T12:44:10.289Z</time>
      </trkpt>
      <trkpt lat="44.07414" lon="0.59215">
        <ele>142</ele>
        <time>2025-07-24T12:44:11.289Z</time>
      </trkpt>
      <trkpt lat="44.07415" lon="0.59214">
        <ele>142</ele>
        <time>2025-07-24T12:44:12.289Z</time>
      </trkpt>
      <trkpt lat="44.07415" lon="0.59212">
        <ele>142</ele>
        <time>2025-07-24T12:44:13.289Z</time>
      </trkpt>
      <trkpt lat="44.07416" lon="0.59211">
        <ele>142</ele>
        <time>2025-07-24T12:44:14.290Z</time>
      </trkpt>
      <trkpt lat="44.07416" lon="0.59209">
        <ele>142</ele>
        <time>2025-07-24T12:44:15.289Z</time>
      </trkpt>
      <trkpt lat="44.07417" lon="0.59207">
        <ele>142</ele>
        <time>2025-07-24T12:44:16.289Z</time>
      </trkpt>
      <trkpt lat="44.07417" lon="0.59206">
        <ele>142</ele>
        <time>2025-07-24T12:44:17.289Z</time>
      </trkpt>
      <trkpt lat="44.07418" lon="0.59204">
        <ele>142</ele>
        <time>2025-07-24T12:44:18.289Z</time>
      </trkpt>
      <trkpt lat="44.07418" lon="0.59203">
        <ele>143</ele>
        <time>2025-07-24T12:44:19.289Z</time>
      </trkpt>
      <trkpt lat="44.07419" lon="0.59201">
        <ele>143</ele>
        <time>2025-07-24T12:44:20.289Z</time>
      </trkpt>
      <trkpt lat="44.07419" lon="0.592">
        <ele>143</ele>
        <time>2025-07-24T12:44:21.289Z</time>
      </trkpt>
      <trkpt lat="44.0742" lon="0.59198">
        <ele>143</ele>
        <time>2025-07-24T12:44:22.289Z</time>
      </trkpt>
      <trkpt lat="44.0742" lon="0.59197">
        <ele>143</ele>
        <time>2025-07-24T12:44:23.289Z</time>
      </trkpt>
      <trkpt lat="44.07421" lon="0.59196">
        <ele>143</ele>
        <time>2025-07-24T12:44:24.289Z</time>
      </trkpt>
      <trkpt lat="44.07421" lon="0.59194">
        <ele>143</ele>
        <time>2025-07-24T12:44:25.289Z</time>
      </trkpt>
      <trkpt lat="44.07422" lon="0.59192">
        <ele>143</ele>
        <time>2025-07-24T12:44:26.289Z</time>
      </trkpt>
      <trkpt lat="44.07422" lon="0.5919">
        <ele>142</ele>
        <time>2025-07-24T12:44:27.289Z</time>
      </trkpt>
      <trkpt lat="44.07423" lon="0.59189">
        <ele>142</ele>
        <time>2025-07-24T12:44:28.289Z</time>
      </trkpt>
      <trkpt lat="44.07423" lon="0.59187">
        <ele>142</ele>
        <time>2025-07-24T12:44:29.289Z</time>
      </trkpt>
      <trkpt lat="44.07424" lon="0.59186">
        <ele>141</ele>
        <time>2025-07-24T12:44:30.289Z</time>
      </trkpt>
      <trkpt lat="44.07424" lon="0.59185">
        <ele>141</ele>
        <time>2025-07-24T12:44:31.289Z</time>
      </trkpt>
      <trkpt lat="44.07424" lon="0.59183">
        <ele>141</ele>
        <time>2025-07-24T12:44:32.289Z</time>
      </trkpt>
      <trkpt lat="44.07425" lon="0.59182">
        <ele>141</ele>
        <time>2025-07-24T12:44:33.289Z</time>
      </trkpt>
      <trkpt lat="44.07425" lon="0.59181">
        <ele>141</ele>
        <time>2025-07-24T12:44:34.289Z</time>
      </trkpt>
      <trkpt lat="44.07424" lon="0.5918">
        <ele>141</ele>
        <time>2025-07-24T12:44:35.289Z</time>
      </trkpt>
      <trkpt lat="44.07424" lon="0.5918">
        <ele>141</ele>
        <time>2025-07-24T12:44:36.289Z</time>
      </trkpt>
      <trkpt lat="44.07424" lon="0.59179">
        <ele>141</ele>
        <time>2025-07-24T12:44:37.289Z</time>
      </trkpt>
      <trkpt lat="44.07424" lon="0.59179">
        <ele>141</ele>
        <time>2025-07-24T12:44:38.289Z</time>
      </trkpt>
      <trkpt lat="44.07424" lon="0.59179">
        <ele>141</ele>
        <time>2025-07-24T12:44:39.289Z</time>
      </trkpt>
      <trkpt lat="44.07424" lon="0.59179">
        <ele>141</ele>
        <time>2025-07-24T12:44:40.289Z</time>
      </trkpt>
      <trkpt lat="44.07424" lon="0.59179">
        <ele>141</ele>
        <time>2025-07-24T12:44:41.289Z</time>
      </trkpt>
      <trkpt lat="44.07424" lon="0.59179">
        <ele>142</ele>
        <time>2025-07-24T12:44:42.289Z</time>
      </trkpt>
      <trkpt lat="44.07424" lon="0.59179">
        <ele>142</ele>
        <time>2025-07-24T12:44:43.289Z</time>
      </trkpt>
      <trkpt lat="44.07424" lon="0.59179">
        <ele>142</ele>
        <time>2025-07-24T12:44:44.289Z</time>
      </trkpt>
      <trkpt lat="44.07424" lon="0.59179">
        <ele>142</ele>
        <time>2025-07-24T12:44:45.289Z</time>
      </trkpt>
      <trkpt lat="44.07424" lon="0.59179">
        <ele>143</ele>
        <time>2025-07-24T12:44:46.289Z</time>
      </trkpt>
      <trkpt lat="44.07424" lon="0.59179">
        <ele>143</ele>
        <time>2025-07-24T12:44:47.289Z</time>
      </trkpt>
      <trkpt lat="44.07424" lon="0.59179">
        <ele>143</ele>
        <time>2025-07-24T12:44:48.289Z</time>
      </trkpt>
      <trkpt lat="44.07424" lon="0.59179">
        <ele>144</ele>
        <time>2025-07-24T12:44:49.289Z</time>
      </trkpt>
      <trkpt lat="44.07424" lon="0.59178">
        <ele>144</ele>
        <time>2025-07-24T12:44:50.289Z</time>
      </trkpt>
      <trkpt lat="44.07424" lon="0.59178">
        <ele>144</ele>
        <time>2025-07-24T12:44:51.290Z</time>
      </trkpt>
      <trkpt lat="44.07424" lon="0.59178">
        <ele>144</ele>
        <time>2025-07-24T12:44:52.289Z</time>
      </trkpt>
      <trkpt lat="44.07424" lon="0.59178">
        <ele>144</ele>
        <time>2025-07-24T12:44:53.289Z</time>
      </trkpt>
      <trkpt lat="44.07424" lon="0.59178">
        <ele>145</ele>
        <time>2025-07-24T12:44:54.289Z</time>
      </trkpt>
      <trkpt lat="44.07424" lon="0.59178">
        <ele>146</ele>
        <time>2025-07-24T12:44:55.289Z</time>
      </trkpt>
      <trkpt lat="44.07424" lon="0.59178">
        <ele>146</ele>
        <time>2025-07-24T12:44:56.289Z</time>
      </trkpt>
      <trkpt lat="44.07424" lon="0.59178">
        <ele>147</ele>
        <time>2025-07-24T12:44:57.289Z</time>
      </trkpt>
      <trkpt lat="44.07424" lon="0.59178">
        <ele>147</ele>
        <time>2025-07-24T12:44:58.289Z</time>
      </trkpt>
      <trkpt lat="44.07424" lon="0.59178">
        <ele>148</ele>
        <time>2025-07-24T12:44:59.289Z</time>
      </trkpt>
      <trkpt lat="44.07424" lon="0.59178">
        <ele>148</ele>
        <time>2025-07-24T12:45:00.289Z</time>
      </trkpt>
      <trkpt lat="44.07424" lon="0.59178">
        <ele>148</ele>
        <time>2025-07-24T12:45:01.289Z</time>
      </trkpt>
      <trkpt lat="44.07424" lon="0.59178">
        <ele>149</ele>
        <time>2025-07-24T12:45:02.289Z</time>
      </trkpt>
      <trkpt lat="44.07424" lon="0.59178">
        <ele>149</ele>
        <time>2025-07-24T12:45:03.289Z</time>
      </trkpt>
      <trkpt lat="44.07424" lon="0.59178">
        <ele>150</ele>
        <time>2025-07-24T12:45:04.289Z</time>
      </trkpt>
      <trkpt lat="44.07424" lon="0.59178">
        <ele>150</ele>
        <time>2025-07-24T12:45:05.289Z</time>
      </trkpt>
      <trkpt lat="44.07425" lon="0.59178">
        <ele>150</ele>
        <time>2025-07-24T12:45:06.289Z</time>
      </trkpt>
      <trkpt lat="44.07425" lon="0.59178">
        <ele>150</ele>
        <time>2025-07-24T12:45:07.289Z</time>
      </trkpt>
      <trkpt lat="44.07425" lon="0.59178">
        <ele>151</ele>
        <time>2025-07-24T12:45:08.289Z</time>
      </trkpt>
      <trkpt lat="44.07425" lon="0.59178">
        <ele>151</ele>
        <time>2025-07-24T12:45:09.289Z</time>
      </trkpt>
      <trkpt lat="44.07425" lon="0.59178">
        <ele>150</ele>
        <time>2025-07-24T12:45:10.289Z</time>
      </trkpt>
      <trkpt lat="44.07425" lon="0.59178">
        <ele>150</ele>
        <time>2025-07-24T12:45:11.289Z</time>
      </trkpt>
      <trkpt lat="44.07425" lon="0.59178">
        <ele>150</ele>
        <time>2025-07-24T12:45:12.289Z</time>
      </trkpt>
      <trkpt lat="44.07425" lon="0.59178">
        <ele>150</ele>
        <time>2025-07-24T12:45:13.289Z</time>
      </trkpt>
      <trkpt lat="44.07425" lon="0.59178">
        <ele>150</ele>
        <time>2025-07-24T12:45:14.289Z</time>
      </trkpt>
      <trkpt lat="44.07425" lon="0.59178">
        <ele>150</ele>
        <time>2025-07-24T12:45:15.289Z</time>
      </trkpt>
      <trkpt lat="44.07425" lon="0.59178">
        <ele>149</ele>
        <time>2025-07-24T12:45:16.289Z</time>
      </trkpt>
      <trkpt lat="44.07424" lon="0.59178">
        <ele>149</ele>
        <time>2025-07-24T12:45:17.289Z</time>
      </trkpt>
      <trkpt lat="44.07424" lon="0.59178">
        <ele>149</ele>
        <time>2025-07-24T12:45:18.289Z</time>
      </trkpt>
      <trkpt lat="44.07424" lon="0.59178">
        <ele>148</ele>
        <time>2025-07-24T12:45:19.289Z</time>
      </trkpt>
      <trkpt lat="44.07424" lon="0.59178">
        <ele>148</ele>
        <time>2025-07-24T12:45:20.289Z</time>
      </trkpt>
      <trkpt lat="44.07424" lon="0.59178">
        <ele>148</ele>
        <time>2025-07-24T12:45:21.289Z</time>
      </trkpt>
      <trkpt lat="44.07424" lon="0.59178">
        <ele>147</ele>
        <time>2025-07-24T12:45:22.289Z</time>
      </trkpt>
      <trkpt lat="44.07425" lon="0.59177">
        <ele>147</ele>
        <time>2025-07-24T12:45:23.289Z</time>
      </trkpt>
      <trkpt lat="44.07425" lon="0.59177">
        <ele>146</ele>
        <time>2025-07-24T12:45:24.289Z</time>
      </trkpt>
      <trkpt lat="44.07425" lon="0.59176">
        <ele>146</ele>
        <time>2025-07-24T12:45:25.289Z</time>
      </trkpt>
      <trkpt lat="44.07426" lon="0.59175">
        <ele>146</ele>
        <time>2025-07-24T12:45:26.289Z</time>
      </trkpt>
      <trkpt lat="44.07427" lon="0.59173">
        <ele>145</ele>
        <time>2025-07-24T12:45:27.289Z</time>
      </trkpt>
      <trkpt lat="44.07427" lon="0.59172">
        <ele>145</ele>
        <time>2025-07-24T12:45:28.289Z</time>
      </trkpt>
      <trkpt lat="44.07428" lon="0.59171">
        <ele>145</ele>
        <time>2025-07-24T12:45:29.289Z</time>
      </trkpt>
      <trkpt lat="44.07429" lon="0.59169">
        <ele>144</ele>
        <time>2025-07-24T12:45:30.289Z</time>
      </trkpt>
      <trkpt lat="44.07429" lon="0.59168">
        <ele>144</ele>
        <time>2025-07-24T12:45:31.289Z</time>
      </trkpt>
      <trkpt lat="44.0743" lon="0.59167">
        <ele>144</ele>
        <time>2025-07-24T12:45:32.289Z</time>
      </trkpt>
      <trkpt lat="44.0743" lon="0.59165">
        <ele>144</ele>
        <time>2025-07-24T12:45:33.289Z</time>
      </trkpt>
      <trkpt lat="44.07431" lon="0.59164">
        <ele>144</ele>
        <time>2025-07-24T12:45:34.289Z</time>
      </trkpt>
      <trkpt lat="44.07431" lon="0.59163">
        <ele>144</ele>
        <time>2025-07-24T12:45:35.289Z</time>
      </trkpt>
      <trkpt lat="44.07431" lon="0.59161">
        <ele>144</ele>
        <time>2025-07-24T12:45:36.289Z</time>
      </trkpt>
      <trkpt lat="44.07432" lon="0.59159">
        <ele>144</ele>
        <time>2025-07-24T12:45:37.289Z</time>
      </trkpt>
      <trkpt lat="44.07433" lon="0.59158">
        <ele>144</ele>
        <time>2025-07-24T12:45:38.289Z</time>
      </trkpt>
      <trkpt lat="44.07433" lon="0.59156">
        <ele>144</ele>
        <time>2025-07-24T12:45:39.289Z</time>
      </trkpt>
      <trkpt lat="44.07434" lon="0.59154">
        <ele>144</ele>
        <time>2025-07-24T12:45:40.289Z</time>
      </trkpt>
      <trkpt lat="44.07435" lon="0.59153">
        <ele>144</ele>
        <time>2025-07-24T12:45:41.289Z</time>
      </trkpt>
      <trkpt lat="44.07436" lon="0.59151">
        <ele>143</ele>
        <time>2025-07-24T12:45:42.289Z</time>
      </trkpt>
      <trkpt lat="44.07436" lon="0.59149">
        <ele>143</ele>
        <time>2025-07-24T12:45:43.289Z</time>
      </trkpt>
      <trkpt lat="44.07437" lon="0.59147">
        <ele>143</ele>
        <time>2025-07-24T12:45:44.289Z</time>
      </trkpt>
      <trkpt lat="44.07438" lon="0.59145">
        <ele>143</ele>
        <time>2025-07-24T12:45:45.289Z</time>
      </trkpt>
      <trkpt lat="44.07438" lon="0.59144">
        <ele>143</ele>
        <time>2025-07-24T12:45:46.289Z</time>
      </trkpt>
      <trkpt lat="44.07438" lon="0.59142">
        <ele>143</ele>
        <time>2025-07-24T12:45:47.289Z</time>
      </trkpt>
      <trkpt lat="44.07439" lon="0.5914">
        <ele>143</ele>
        <time>2025-07-24T12:45:48.289Z</time>
      </trkpt>
      <trkpt lat="44.07439" lon="0.59138">
        <ele>143</ele>
        <time>2025-07-24T12:45:49.289Z</time>
      </trkpt>
      <trkpt lat="44.0744" lon="0.59137">
        <ele>143</ele>
        <time>2025-07-24T12:45:50.289Z</time>
      </trkpt>
      <trkpt lat="44.07441" lon="0.59135">
        <ele>144</ele>
        <time>2025-07-24T12:45:51.289Z</time>
      </trkpt>
      <trkpt lat="44.07441" lon="0.59133">
        <ele>144</ele>
        <time>2025-07-24T12:45:52.289Z</time>
      </trkpt>
      <trkpt lat="44.07442" lon="0.59132">
        <ele>144</ele>
        <time>2025-07-24T12:45:53.289Z</time>
      </trkpt>
      <trkpt lat="44.07442" lon="0.5913">
        <ele>144</ele>
        <time>2025-07-24T12:45:54.289Z</time>
      </trkpt>
      <trkpt lat="44.07443" lon="0.59128">
        <ele>144</ele>
        <time>2025-07-24T12:45:55.289Z</time>
      </trkpt>
      <trkpt lat="44.07443" lon="0.59127">
        <ele>144</ele>
        <time>2025-07-24T12:45:56.289Z</time>
      </trkpt>
      <trkpt lat="44.07444" lon="0.59125">
        <ele>144</ele>
        <time>2025-07-24T12:45:57.289Z</time>
      </trkpt>
      <trkpt lat="44.07444" lon="0.59124">
        <ele>144</ele>
        <time>2025-07-24T12:45:58.289Z</time>
      </trkpt>
      <trkpt lat="44.07445" lon="0.59122">
        <ele>144</ele>
        <time>2025-07-24T12:45:59.289Z</time>
      </trkpt>
      <trkpt lat="44.07445" lon="0.5912">
        <ele>144</ele>
        <time>2025-07-24T12:46:00.289Z</time>
      </trkpt>
      <trkpt lat="44.07446" lon="0.59119">
        <ele>144</ele>
        <time>2025-07-24T12:46:01.289Z</time>
      </trkpt>
      <trkpt lat="44.07446" lon="0.59117">
        <ele>144</ele>
        <time>2025-07-24T12:46:02.289Z</time>
      </trkpt>
      <trkpt lat="44.07447" lon="0.59115">
        <ele>144</ele>
        <time>2025-07-24T12:46:03.289Z</time>
      </trkpt>
      <trkpt lat="44.07448" lon="0.59113">
        <ele>143</ele>
        <time>2025-07-24T12:46:04.289Z</time>
      </trkpt>
      <trkpt lat="44.07448" lon="0.59111">
        <ele>143</ele>
        <time>2025-07-24T12:46:05.289Z</time>
      </trkpt>
      <trkpt lat="44.07449" lon="0.5911">
        <ele>143</ele>
        <time>2025-07-24T12:46:06.289Z</time>
      </trkpt>
      <trkpt lat="44.0745" lon="0.59108">
        <ele>143</ele>
        <time>2025-07-24T12:46:07.289Z</time>
      </trkpt>
      <trkpt lat="44.0745" lon="0.59107">
        <ele>142</ele>
        <time>2025-07-24T12:46:08.289Z</time>
      </trkpt>
      <trkpt lat="44.07451" lon="0.59105">
        <ele>142</ele>
        <time>2025-07-24T12:46:09.289Z</time>
      </trkpt>
      <trkpt lat="44.07452" lon="0.59104">
        <ele>142</ele>
        <time>2025-07-24T12:46:10.289Z</time>
      </trkpt>
      <trkpt lat="44.07452" lon="0.59102">
        <ele>142</ele>
        <time>2025-07-24T12:46:11.289Z</time>
      </trkpt>
      <trkpt lat="44.07453" lon="0.59101">
        <ele>141</ele>
        <time>2025-07-24T12:46:12.289Z</time>
      </trkpt>
      <trkpt lat="44.07454" lon="0.59099">
        <ele>141</ele>
        <time>2025-07-24T12:46:13.289Z</time>
      </trkpt>
      <trkpt lat="44.07454" lon="0.59098">
        <ele>141</ele>
        <time>2025-07-24T12:46:14.289Z</time>
      </trkpt>
      <trkpt lat="44.07455" lon="0.59096">
        <ele>141</ele>
        <time>2025-07-24T12:46:15.289Z</time>
      </trkpt>
      <trkpt lat="44.07456" lon="0.59094">
        <ele>141</ele>
        <time>2025-07-24T12:46:16.289Z</time>
      </trkpt>
      <trkpt lat="44.07457" lon="0.59093">
        <ele>141</ele>
        <time>2025-07-24T12:46:17.289Z</time>
      </trkpt>
      <trkpt lat="44.07457" lon="0.59092">
        <ele>141</ele>
        <time>2025-07-24T12:46:18.289Z</time>
      </trkpt>
      <trkpt lat="44.07458" lon="0.5909">
        <ele>140</ele>
        <time>2025-07-24T12:46:19.289Z</time>
      </trkpt>
      <trkpt lat="44.07459" lon="0.59089">
        <ele>140</ele>
        <time>2025-07-24T12:46:20.289Z</time>
      </trkpt>
      <trkpt lat="44.0746" lon="0.59087">
        <ele>140</ele>
        <time>2025-07-24T12:46:21.289Z</time>
      </trkpt>
      <trkpt lat="44.07461" lon="0.59085">
        <ele>140</ele>
        <time>2025-07-24T12:46:22.289Z</time>
      </trkpt>
      <trkpt lat="44.07462" lon="0.59083">
        <ele>140</ele>
        <time>2025-07-24T12:46:23.289Z</time>
      </trkpt>
      <trkpt lat="44.07463" lon="0.59081">
        <ele>140</ele>
        <time>2025-07-24T12:46:24.289Z</time>
      </trkpt>
      <trkpt lat="44.07464" lon="0.59079">
        <ele>140</ele>
        <time>2025-07-24T12:46:25.289Z</time>
      </trkpt>
      <trkpt lat="44.07464" lon="0.59078">
        <ele>140</ele>
        <time>2025-07-24T12:46:26.289Z</time>
      </trkpt>
      <trkpt lat="44.07465" lon="0.59076">
        <ele>140</ele>
        <time>2025-07-24T12:46:27.289Z</time>
      </trkpt>
      <trkpt lat="44.07466" lon="0.59074">
        <ele>140</ele>
        <time>2025-07-24T12:46:28.289Z</time>
      </trkpt>
      <trkpt lat="44.07466" lon="0.59072">
        <ele>140</ele>
        <time>2025-07-24T12:46:29.289Z</time>
      </trkpt>
      <trkpt lat="44.07467" lon="0.59071">
        <ele>141</ele>
        <time>2025-07-24T12:46:30.289Z</time>
      </trkpt>
      <trkpt lat="44.07468" lon="0.59069">
        <ele>141</ele>
        <time>2025-07-24T12:46:31.289Z</time>
      </trkpt>
      <trkpt lat="44.07469" lon="0.59067">
        <ele>141</ele>
        <time>2025-07-24T12:46:32.289Z</time>
      </trkpt>
      <trkpt lat="44.0747" lon="0.59065">
        <ele>141</ele>
        <time>2025-07-24T12:46:33.289Z</time>
      </trkpt>
      <trkpt lat="44.0747" lon="0.59064">
        <ele>141</ele>
        <time>2025-07-24T12:46:34.289Z</time>
      </trkpt>
      <trkpt lat="44.07471" lon="0.59062">
        <ele>141</ele>
        <time>2025-07-24T12:46:35.289Z</time>
      </trkpt>
      <trkpt lat="44.07472" lon="0.5906">
        <ele>141</ele>
        <time>2025-07-24T12:46:36.289Z</time>
      </trkpt>
      <trkpt lat="44.07472" lon="0.59059">
        <ele>141</ele>
        <time>2025-07-24T12:46:37.289Z</time>
      </trkpt>
      <trkpt lat="44.07473" lon="0.59057">
        <ele>141</ele>
        <time>2025-07-24T12:46:38.289Z</time>
      </trkpt>
      <trkpt lat="44.07474" lon="0.59056">
        <ele>141</ele>
        <time>2025-07-24T12:46:39.289Z</time>
      </trkpt>
      <trkpt lat="44.07474" lon="0.59054">
        <ele>141</ele>
        <time>2025-07-24T12:46:40.289Z</time>
      </trkpt>
      <trkpt lat="44.07475" lon="0.59053">
        <ele>141</ele>
        <time>2025-07-24T12:46:41.289Z</time>
      </trkpt>
      <trkpt lat="44.07475" lon="0.59051">
        <ele>140</ele>
        <time>2025-07-24T12:46:42.289Z</time>
      </trkpt>
      <trkpt lat="44.07476" lon="0.59049">
        <ele>140</ele>
        <time>2025-07-24T12:46:43.289Z</time>
      </trkpt>
      <trkpt lat="44.07476" lon="0.59048">
        <ele>140</ele>
        <time>2025-07-24T12:46:44.289Z</time>
      </trkpt>
      <trkpt lat="44.07476" lon="0.59046">
        <ele>140</ele>
        <time>2025-07-24T12:46:45.289Z</time>
      </trkpt>
      <trkpt lat="44.07477" lon="0.59045">
        <ele>140</ele>
        <time>2025-07-24T12:46:46.289Z</time>
      </trkpt>
      <trkpt lat="44.07477" lon="0.59043">
        <ele>139</ele>
        <time>2025-07-24T12:46:47.289Z</time>
      </trkpt>
      <trkpt lat="44.07478" lon="0.59041">
        <ele>139</ele>
        <time>2025-07-24T12:46:48.289Z</time>
      </trkpt>
      <trkpt lat="44.07478" lon="0.59039">
        <ele>139</ele>
        <time>2025-07-24T12:46:49.289Z</time>
      </trkpt>
      <trkpt lat="44.07479" lon="0.59037">
        <ele>139</ele>
        <time>2025-07-24T12:46:50.289Z</time>
      </trkpt>
      <trkpt lat="44.0748" lon="0.59035">
        <ele>139</ele>
        <time>2025-07-24T12:46:51.289Z</time>
      </trkpt>
      <trkpt lat="44.0748" lon="0.59033">
        <ele>138</ele>
        <time>2025-07-24T12:46:52.289Z</time>
      </trkpt>
      <trkpt lat="44.0748" lon="0.59031">
        <ele>138</ele>
        <time>2025-07-24T12:46:53.289Z</time>
      </trkpt>
      <trkpt lat="44.0748" lon="0.59029">
        <ele>138</ele>
        <time>2025-07-24T12:46:54.289Z</time>
      </trkpt>
      <trkpt lat="44.0748" lon="0.59027">
        <ele>137</ele>
        <time>2025-07-24T12:46:55.289Z</time>
      </trkpt>
      <trkpt lat="44.07479" lon="0.59025">
        <ele>137</ele>
        <time>2025-07-24T12:46:56.289Z</time>
      </trkpt>
      <trkpt lat="44.07479" lon="0.59023">
        <ele>137</ele>
        <time>2025-07-24T12:46:57.289Z</time>
      </trkpt>
      <trkpt lat="44.07479" lon="0.59021">
        <ele>137</ele>
        <time>2025-07-24T12:46:58.289Z</time>
      </trkpt>
      <trkpt lat="44.07478" lon="0.59019">
        <ele>137</ele>
        <time>2025-07-24T12:46:59.289Z</time>
      </trkpt>
      <trkpt lat="44.07478" lon="0.59017">
        <ele>137</ele>
        <time>2025-07-24T12:47:00.289Z</time>
      </trkpt>
      <trkpt lat="44.07478" lon="0.59015">
        <ele>137</ele>
        <time>2025-07-24T12:47:01.289Z</time>
      </trkpt>
      <trkpt lat="44.07477" lon="0.59013">
        <ele>137</ele>
        <time>2025-07-24T12:47:02.289Z</time>
      </trkpt>
      <trkpt lat="44.07477" lon="0.59011">
        <ele>137</ele>
        <time>2025-07-24T12:47:03.289Z</time>
      </trkpt>
      <trkpt lat="44.07476" lon="0.5901">
        <ele>138</ele>
        <time>2025-07-24T12:47:04.289Z</time>
      </trkpt>
      <trkpt lat="44.07476" lon="0.59008">
        <ele>138</ele>
        <time>2025-07-24T12:47:05.289Z</time>
      </trkpt>
      <trkpt lat="44.07476" lon="0.59006">
        <ele>138</ele>
        <time>2025-07-24T12:47:06.289Z</time>
      </trkpt>
      <trkpt lat="44.07475" lon="0.59004">
        <ele>138</ele>
        <time>2025-07-24T12:47:07.289Z</time>
      </trkpt>
      <trkpt lat="44.07475" lon="0.59003">
        <ele>138</ele>
        <time>2025-07-24T12:47:08.289Z</time>
      </trkpt>
      <trkpt lat="44.07475" lon="0.59001">
        <ele>138</ele>
        <time>2025-07-24T12:47:09.289Z</time>
      </trkpt>
      <trkpt lat="44.07474" lon="0.58999">
        <ele>138</ele>
        <time>2025-07-24T12:47:10.289Z</time>
      </trkpt>
      <trkpt lat="44.07474" lon="0.58997">
        <ele>138</ele>
        <time>2025-07-24T12:47:11.289Z</time>
      </trkpt>
      <trkpt lat="44.07474" lon="0.58996">
        <ele>138</ele>
        <time>2025-07-24T12:47:12.289Z</time>
      </trkpt>
      <trkpt lat="44.07474" lon="0.58994">
        <ele>138</ele>
        <time>2025-07-24T12:47:13.289Z</time>
      </trkpt>
      <trkpt lat="44.07474" lon="0.58992">
        <ele>138</ele>
        <time>2025-07-24T12:47:14.289Z</time>
      </trkpt>
      <trkpt lat="44.07474" lon="0.5899">
        <ele>137</ele>
        <time>2025-07-24T12:47:15.289Z</time>
      </trkpt>
      <trkpt lat="44.07474" lon="0.58988">
        <ele>137</ele>
        <time>2025-07-24T12:47:16.289Z</time>
      </trkpt>
      <trkpt lat="44.07473" lon="0.58987">
        <ele>137</ele>
        <time>2025-07-24T12:47:17.289Z</time>
      </trkpt>
      <trkpt lat="44.07473" lon="0.58985">
        <ele>137</ele>
        <time>2025-07-24T12:47:18.289Z</time>
      </trkpt>
      <trkpt lat="44.07473" lon="0.58983">
        <ele>136</ele>
        <time>2025-07-24T12:47:19.289Z</time>
      </trkpt>
      <trkpt lat="44.07473" lon="0.58981">
        <ele>136</ele>
        <time>2025-07-24T12:47:20.289Z</time>
      </trkpt>
      <trkpt lat="44.07473" lon="0.58979">
        <ele>136</ele>
        <time>2025-07-24T12:47:21.289Z</time>
      </trkpt>
      <trkpt lat="44.07473" lon="0.58977">
        <ele>136</ele>
        <time>2025-07-24T12:47:22.289Z</time>
      </trkpt>
      <trkpt lat="44.07472" lon="0.58975">
        <ele>136</ele>
        <time>2025-07-24T12:47:23.289Z</time>
      </trkpt>
      <trkpt lat="44.07472" lon="0.58973">
        <ele>136</ele>
        <time>2025-07-24T12:47:24.289Z</time>
      </trkpt>
      <trkpt lat="44.07472" lon="0.5897">
        <ele>136</ele>
        <time>2025-07-24T12:47:25.289Z</time>
      </trkpt>
      <trkpt lat="44.07472" lon="0.58968">
        <ele>136</ele>
        <time>2025-07-24T12:47:26.289Z</time>
      </trkpt>
      <trkpt lat="44.07472" lon="0.58966">
        <ele>137</ele>
        <time>2025-07-24T12:47:27.289Z</time>
      </trkpt>
      <trkpt lat="44.07471" lon="0.58963">
        <ele>137</ele>
        <time>2025-07-24T12:47:28.289Z</time>
      </trkpt>
      <trkpt lat="44.07471" lon="0.58961">
        <ele>137</ele>
        <time>2025-07-24T12:47:29.289Z</time>
      </trkpt>
      <trkpt lat="44.07471" lon="0.58959">
        <ele>137</ele>
        <time>2025-07-24T12:47:30.289Z</time>
      </trkpt>
      <trkpt lat="44.07471" lon="0.58957">
        <ele>136</ele>
        <time>2025-07-24T12:47:31.289Z</time>
      </trkpt>
      <trkpt lat="44.07471" lon="0.58955">
        <ele>136</ele>
        <time>2025-07-24T12:47:32.289Z</time>
      </trkpt>
      <trkpt lat="44.07471" lon="0.58952">
        <ele>135</ele>
        <time>2025-07-24T12:47:33.289Z</time>
      </trkpt>
      <trkpt lat="44.07471" lon="0.5895">
        <ele>134</ele>
        <time>2025-07-24T12:47:34.289Z</time>
      </trkpt>
      <trkpt lat="44.07471" lon="0.58948">
        <ele>134</ele>
        <time>2025-07-24T12:47:35.289Z</time>
      </trkpt>
      <trkpt lat="44.07471" lon="0.58946">
        <ele>133</ele>
        <time>2025-07-24T12:47:36.289Z</time>
      </trkpt>
      <trkpt lat="44.07471" lon="0.58944">
        <ele>133</ele>
        <time>2025-07-24T12:47:37.289Z</time>
      </trkpt>
      <trkpt lat="44.07471" lon="0.58942">
        <ele>133</ele>
        <time>2025-07-24T12:47:38.289Z</time>
      </trkpt>
      <trkpt lat="44.07471" lon="0.5894">
        <ele>133</ele>
        <time>2025-07-24T12:47:39.289Z</time>
      </trkpt>
      <trkpt lat="44.07471" lon="0.58937">
        <ele>132</ele>
        <time>2025-07-24T12:47:40.289Z</time>
      </trkpt>
      <trkpt lat="44.0747" lon="0.58935">
        <ele>132</ele>
        <time>2025-07-24T12:47:41.289Z</time>
      </trkpt>
      <trkpt lat="44.0747" lon="0.58933">
        <ele>132</ele>
        <time>2025-07-24T12:47:42.289Z</time>
      </trkpt>
      <trkpt lat="44.0747" lon="0.58931">
        <ele>132</ele>
        <time>2025-07-24T12:47:43.289Z</time>
      </trkpt>
      <trkpt lat="44.0747" lon="0.58929">
        <ele>132</ele>
        <time>2025-07-24T12:47:44.289Z</time>
      </trkpt>
      <trkpt lat="44.0747" lon="0.58927">
        <ele>132</ele>
        <time>2025-07-24T12:47:45.289Z</time>
      </trkpt>
      <trkpt lat="44.0747" lon="0.58925">
        <ele>132</ele>
        <time>2025-07-24T12:47:46.289Z</time>
      </trkpt>
      <trkpt lat="44.07469" lon="0.58923">
        <ele>132</ele>
        <time>2025-07-24T12:47:47.289Z</time>
      </trkpt>
      <trkpt lat="44.07469" lon="0.58921">
        <ele>132</ele>
        <time>2025-07-24T12:47:48.289Z</time>
      </trkpt>
      <trkpt lat="44.07469" lon="0.58919">
        <ele>132</ele>
        <time>2025-07-24T12:47:49.289Z</time>
      </trkpt>
      <trkpt lat="44.07469" lon="0.58917">
        <ele>132</ele>
        <time>2025-07-24T12:47:50.289Z</time>
      </trkpt>
      <trkpt lat="44.07469" lon="0.58915">
        <ele>133</ele>
        <time>2025-07-24T12:47:51.289Z</time>
      </trkpt>
      <trkpt lat="44.07469" lon="0.58914">
        <ele>133</ele>
        <time>2025-07-24T12:47:52.289Z</time>
      </trkpt>
      <trkpt lat="44.07469" lon="0.58912">
        <ele>133</ele>
        <time>2025-07-24T12:47:53.289Z</time>
      </trkpt>
      <trkpt lat="44.07469" lon="0.5891">
        <ele>133</ele>
        <time>2025-07-24T12:47:54.289Z</time>
      </trkpt>
      <trkpt lat="44.07469" lon="0.58909">
        <ele>134</ele>
        <time>2025-07-24T12:47:55.289Z</time>
      </trkpt>
      <trkpt lat="44.07469" lon="0.58907">
        <ele>134</ele>
        <time>2025-07-24T12:47:56.289Z</time>
      </trkpt>
      <trkpt lat="44.07469" lon="0.58905">
        <ele>134</ele>
        <time>2025-07-24T12:47:57.289Z</time>
      </trkpt>
      <trkpt lat="44.0747" lon="0.58903">
        <ele>133</ele>
        <time>2025-07-24T12:47:58.290Z</time>
      </trkpt>
      <trkpt lat="44.0747" lon="0.58901">
        <ele>133</ele>
        <time>2025-07-24T12:47:59.289Z</time>
      </trkpt>
      <trkpt lat="44.0747" lon="0.58899">
        <ele>133</ele>
        <time>2025-07-24T12:48:00.289Z</time>
      </trkpt>
      <trkpt lat="44.07471" lon="0.58897">
        <ele>133</ele>
        <time>2025-07-24T12:48:01.289Z</time>
      </trkpt>
      <trkpt lat="44.07471" lon="0.58895">
        <ele>133</ele>
        <time>2025-07-24T12:48:02.289Z</time>
      </trkpt>
      <trkpt lat="44.07471" lon="0.58893">
        <ele>133</ele>
        <time>2025-07-24T12:48:03.289Z</time>
      </trkpt>
      <trkpt lat="44.07471" lon="0.58892">
        <ele>133</ele>
        <time>2025-07-24T12:48:04.289Z</time>
      </trkpt>
      <trkpt lat="44.07471" lon="0.5889">
        <ele>134</ele>
        <time>2025-07-24T12:48:05.289Z</time>
      </trkpt>
      <trkpt lat="44.07471" lon="0.58889">
        <ele>134</ele>
        <time>2025-07-24T12:48:06.289Z</time>
      </trkpt>
      <trkpt lat="44.0747" lon="0.58887">
        <ele>134</ele>
        <time>2025-07-24T12:48:07.289Z</time>
      </trkpt>
      <trkpt lat="44.0747" lon="0.58885">
        <ele>134</ele>
        <time>2025-07-24T12:48:08.289Z</time>
      </trkpt>
      <trkpt lat="44.0747" lon="0.58883">
        <ele>134</ele>
        <time>2025-07-24T12:48:09.289Z</time>
      </trkpt>
      <trkpt lat="44.07471" lon="0.58882">
        <ele>133</ele>
        <time>2025-07-24T12:48:10.289Z</time>
      </trkpt>
      <trkpt lat="44.07471" lon="0.5888">
        <ele>133</ele>
        <time>2025-07-24T12:48:11.289Z</time>
      </trkpt>
      <trkpt lat="44.07471" lon="0.58878">
        <ele>132</ele>
        <time>2025-07-24T12:48:12.289Z</time>
      </trkpt>
      <trkpt lat="44.07472" lon="0.58876">
        <ele>132</ele>
        <time>2025-07-24T12:48:13.289Z</time>
      </trkpt>
      <trkpt lat="44.07473" lon="0.58874">
        <ele>131</ele>
        <time>2025-07-24T12:48:14.289Z</time>
      </trkpt>
      <trkpt lat="44.07473" lon="0.58873">
        <ele>131</ele>
        <time>2025-07-24T12:48:15.289Z</time>
      </trkpt>
      <trkpt lat="44.07474" lon="0.58871">
        <ele>131</ele>
        <time>2025-07-24T12:48:16.289Z</time>
      </trkpt>
      <trkpt lat="44.07474" lon="0.5887">
        <ele>131</ele>
        <time>2025-07-24T12:48:17.289Z</time>
      </trkpt>
      <trkpt lat="44.07474" lon="0.58868">
        <ele>130</ele>
        <time>2025-07-24T12:48:18.289Z</time>
      </trkpt>
      <trkpt lat="44.07475" lon="0.58867">
        <ele>130</ele>
        <time>2025-07-24T12:48:19.289Z</time>
      </trkpt>
      <trkpt lat="44.07475" lon="0.58865">
        <ele>129</ele>
        <time>2025-07-24T12:48:20.289Z</time>
      </trkpt>
      <trkpt lat="44.07475" lon="0.58862">
        <ele>129</ele>
        <time>2025-07-24T12:48:21.289Z</time>
      </trkpt>
      <trkpt lat="44.07476" lon="0.58861">
        <ele>128</ele>
        <time>2025-07-24T12:48:22.289Z</time>
      </trkpt>
      <trkpt lat="44.07476" lon="0.58859">
        <ele>128</ele>
        <time>2025-07-24T12:48:23.289Z</time>
      </trkpt>
      <trkpt lat="44.07476" lon="0.58857">
        <ele>127</ele>
        <time>2025-07-24T12:48:24.289Z</time>
      </trkpt>
      <trkpt lat="44.07476" lon="0.58855">
        <ele>127</ele>
        <time>2025-07-24T12:48:25.289Z</time>
      </trkpt>
      <trkpt lat="44.07476" lon="0.58853">
        <ele>127</ele>
        <time>2025-07-24T12:48:26.289Z</time>
      </trkpt>
      <trkpt lat="44.07476" lon="0.58851">
        <ele>127</ele>
        <time>2025-07-24T12:48:27.289Z</time>
      </trkpt>
      <trkpt lat="44.07477" lon="0.58849">
        <ele>127</ele>
        <time>2025-07-24T12:48:28.289Z</time>
      </trkpt>
      <trkpt lat="44.07477" lon="0.58847">
        <ele>126</ele>
        <time>2025-07-24T12:48:29.289Z</time>
      </trkpt>
      <trkpt lat="44.07478" lon="0.58845">
        <ele>126</ele>
        <time>2025-07-24T12:48:30.289Z</time>
      </trkpt>
      <trkpt lat="44.07478" lon="0.58843">
        <ele>126</ele>
        <time>2025-07-24T12:48:31.289Z</time>
      </trkpt>
      <trkpt lat="44.07478" lon="0.58841">
        <ele>127</ele>
        <time>2025-07-24T12:48:32.289Z</time>
      </trkpt>
      <trkpt lat="44.07478" lon="0.5884">
        <ele>127</ele>
        <time>2025-07-24T12:48:33.289Z</time>
      </trkpt>
      <trkpt lat="44.07478" lon="0.58839">
        <ele>127</ele>
        <time>2025-07-24T12:48:34.289Z</time>
      </trkpt>
      <trkpt lat="44.07479" lon="0.58837">
        <ele>126</ele>
        <time>2025-07-24T12:48:35.289Z</time>
      </trkpt>
      <trkpt lat="44.07479" lon="0.58836">
        <ele>126</ele>
        <time>2025-07-24T12:48:36.289Z</time>
      </trkpt>
      <trkpt lat="44.07479" lon="0.58835">
        <ele>126</ele>
        <time>2025-07-24T12:48:37.289Z</time>
      </trkpt>
      <trkpt lat="44.07479" lon="0.58834">
        <ele>126</ele>
        <time>2025-07-24T12:48:38.289Z</time>
      </trkpt>
      <trkpt lat="44.07479" lon="0.58832">
        <ele>126</ele>
        <time>2025-07-24T12:48:39.289Z</time>
      </trkpt>
      <trkpt lat="44.07479" lon="0.5883">
        <ele>126</ele>
        <time>2025-07-24T12:48:40.289Z</time>
      </trkpt>
      <trkpt lat="44.0748" lon="0.58828">
        <ele>126</ele>
        <time>2025-07-24T12:48:41.289Z</time>
      </trkpt>
      <trkpt lat="44.0748" lon="0.58826">
        <ele>126</ele>
        <time>2025-07-24T12:48:42.289Z</time>
      </trkpt>
      <trkpt lat="44.0748" lon="0.58824">
        <ele>126</ele>
        <time>2025-07-24T12:48:43.289Z</time>
      </trkpt>
      <trkpt lat="44.07481" lon="0.58822">
        <ele>125</ele>
        <time>2025-07-24T12:48:44.289Z</time>
      </trkpt>
      <trkpt lat="44.07481" lon="0.5882">
        <ele>125</ele>
        <time>2025-07-24T12:48:45.289Z</time>
      </trkpt>
      <trkpt lat="44.07481" lon="0.58819">
        <ele>125</ele>
        <time>2025-07-24T12:48:46.289Z</time>
      </trkpt>
      <trkpt lat="44.07481" lon="0.58817">
        <ele>125</ele>
        <time>2025-07-24T12:48:47.289Z</time>
      </trkpt>
      <trkpt lat="44.07481" lon="0.58816">
        <ele>125</ele>
        <time>2025-07-24T12:48:48.289Z</time>
      </trkpt>
      <trkpt lat="44.07482" lon="0.58814">
        <ele>124</ele>
        <time>2025-07-24T12:48:49.289Z</time>
      </trkpt>
      <trkpt lat="44.07482" lon="0.58813">
        <ele>124</ele>
        <time>2025-07-24T12:48:50.289Z</time>
      </trkpt>
      <trkpt lat="44.07482" lon="0.58811">
        <ele>124</ele>
        <time>2025-07-24T12:48:51.289Z</time>
      </trkpt>
      <trkpt lat="44.07482" lon="0.58809">
        <ele>124</ele>
        <time>2025-07-24T12:48:52.289Z</time>
      </trkpt>
      <trkpt lat="44.07482" lon="0.58807">
        <ele>123</ele>
        <time>2025-07-24T12:48:53.289Z</time>
      </trkpt>
      <trkpt lat="44.07483" lon="0.58805">
        <ele>123</ele>
        <time>2025-07-24T12:48:54.289Z</time>
      </trkpt>
      <trkpt lat="44.07483" lon="0.58804">
        <ele>123</ele>
        <time>2025-07-24T12:48:55.289Z</time>
      </trkpt>
      <trkpt lat="44.07483" lon="0.58802">
        <ele>123</ele>
        <time>2025-07-24T12:48:56.289Z</time>
      </trkpt>
      <trkpt lat="44.07484" lon="0.588">
        <ele>123</ele>
        <time>2025-07-24T12:48:57.289Z</time>
      </trkpt>
      <trkpt lat="44.07484" lon="0.58799">
        <ele>123</ele>
        <time>2025-07-24T12:48:58.289Z</time>
      </trkpt>
      <trkpt lat="44.07485" lon="0.58797">
        <ele>123</ele>
        <time>2025-07-24T12:48:59.289Z</time>
      </trkpt>
      <trkpt lat="44.07485" lon="0.58795">
        <ele>123</ele>
        <time>2025-07-24T12:49:00.289Z</time>
      </trkpt>
      <trkpt lat="44.07486" lon="0.58795">
        <ele>123</ele>
        <time>2025-07-24T12:49:01.289Z</time>
      </trkpt>
      <trkpt lat="44.07486" lon="0.58794">
        <ele>123</ele>
        <time>2025-07-24T12:49:02.289Z</time>
      </trkpt>
      <trkpt lat="44.07487" lon="0.58794">
        <ele>123</ele>
        <time>2025-07-24T12:49:03.289Z</time>
      </trkpt>
      <trkpt lat="44.07487" lon="0.58793">
        <ele>122</ele>
        <time>2025-07-24T12:49:04.289Z</time>
      </trkpt>
      <trkpt lat="44.07487" lon="0.58792">
        <ele>122</ele>
        <time>2025-07-24T12:49:05.289Z</time>
      </trkpt>
      <trkpt lat="44.07487" lon="0.58791">
        <ele>122</ele>
        <time>2025-07-24T12:49:06.289Z</time>
      </trkpt>
      <trkpt lat="44.07488" lon="0.58789">
        <ele>121</ele>
        <time>2025-07-24T12:49:07.289Z</time>
      </trkpt>
      <trkpt lat="44.07488" lon="0.58788">
        <ele>121</ele>
        <time>2025-07-24T12:49:08.289Z</time>
      </trkpt>
      <trkpt lat="44.07488" lon="0.58787">
        <ele>121</ele>
        <time>2025-07-24T12:49:09.289Z</time>
      </trkpt>
      <trkpt lat="44.07488" lon="0.58785">
        <ele>121</ele>
        <time>2025-07-24T12:49:10.289Z</time>
      </trkpt>
      <trkpt lat="44.07488" lon="0.58783">
        <ele>122</ele>
        <time>2025-07-24T12:49:11.289Z</time>
      </trkpt>
      <trkpt lat="44.07488" lon="0.58782">
        <ele>122</ele>
        <time>2025-07-24T12:49:12.289Z</time>
      </trkpt>
      <trkpt lat="44.07488" lon="0.5878">
        <ele>122</ele>
        <time>2025-07-24T12:49:13.289Z</time>
      </trkpt>
      <trkpt lat="44.07488" lon="0.58778">
        <ele>122</ele>
        <time>2025-07-24T12:49:14.289Z</time>
      </trkpt>
      <trkpt lat="44.07489" lon="0.58776">
        <ele>122</ele>
        <time>2025-07-24T12:49:15.289Z</time>
      </trkpt>
      <trkpt lat="44.07489" lon="0.58774">
        <ele>122</ele>
        <time>2025-07-24T12:49:16.289Z</time>
      </trkpt>
      <trkpt lat="44.07489" lon="0.58773">
        <ele>122</ele>
        <time>2025-07-24T12:49:17.289Z</time>
      </trkpt>
      <trkpt lat="44.07489" lon="0.58771">
        <ele>122</ele>
        <time>2025-07-24T12:49:18.289Z</time>
      </trkpt>
      <trkpt lat="44.0749" lon="0.58769">
        <ele>121</ele>
        <time>2025-07-24T12:49:19.289Z</time>
      </trkpt>
      <trkpt lat="44.0749" lon="0.58767">
        <ele>121</ele>
        <time>2025-07-24T12:49:20.289Z</time>
      </trkpt>
      <trkpt lat="44.0749" lon="0.58764">
        <ele>121</ele>
        <time>2025-07-24T12:49:21.289Z</time>
      </trkpt>
      <trkpt lat="44.0749" lon="0.58762">
        <ele>121</ele>
        <time>2025-07-24T12:49:22.289Z</time>
      </trkpt>
      <trkpt lat="44.0749" lon="0.5876">
        <ele>121</ele>
        <time>2025-07-24T12:49:23.289Z</time>
      </trkpt>
      <trkpt lat="44.0749" lon="0.58758">
        <ele>121</ele>
        <time>2025-07-24T12:49:24.289Z</time>
      </trkpt>
      <trkpt lat="44.0749" lon="0.58756">
        <ele>121</ele>
        <time>2025-07-24T12:49:25.289Z</time>
      </trkpt>
      <trkpt lat="44.0749" lon="0.58755">
        <ele>121</ele>
        <time>2025-07-24T12:49:26.289Z</time>
      </trkpt>
      <trkpt lat="44.0749" lon="0.58753">
        <ele>121</ele>
        <time>2025-07-24T12:49:27.289Z</time>
      </trkpt>
      <trkpt lat="44.0749" lon="0.58752">
        <ele>121</ele>
        <time>2025-07-24T12:49:28.289Z</time>
      </trkpt>
      <trkpt lat="44.0749" lon="0.5875">
        <ele>121</ele>
        <time>2025-07-24T12:49:29.289Z</time>
      </trkpt>
      <trkpt lat="44.0749" lon="0.58748">
        <ele>121</ele>
        <time>2025-07-24T12:49:30.289Z</time>
      </trkpt>
      <trkpt lat="44.0749" lon="0.58747">
        <ele>121</ele>
        <time>2025-07-24T12:49:31.289Z</time>
      </trkpt>
      <trkpt lat="44.0749" lon="0.58745">
        <ele>121</ele>
        <time>2025-07-24T12:49:32.289Z</time>
      </trkpt>
      <trkpt lat="44.0749" lon="0.58744">
        <ele>121</ele>
        <time>2025-07-24T12:49:33.289Z</time>
      </trkpt>
      <trkpt lat="44.07491" lon="0.58742">
        <ele>121</ele>
        <time>2025-07-24T12:49:34.289Z</time>
      </trkpt>
      <trkpt lat="44.07491" lon="0.5874">
        <ele>121</ele>
        <time>2025-07-24T12:49:35.289Z</time>
      </trkpt>
      <trkpt lat="44.07491" lon="0.58739">
        <ele>121</ele>
        <time>2025-07-24T12:49:36.289Z</time>
      </trkpt>
      <trkpt lat="44.07491" lon="0.58737">
        <ele>121</ele>
        <time>2025-07-24T12:49:37.289Z</time>
      </trkpt>
      <trkpt lat="44.07491" lon="0.58735">
        <ele>121</ele>
        <time>2025-07-24T12:49:38.289Z</time>
      </trkpt>
      <trkpt lat="44.07491" lon="0.58733">
        <ele>121</ele>
        <time>2025-07-24T12:49:39.289Z</time>
      </trkpt>
      <trkpt lat="44.0749" lon="0.58732">
        <ele>121</ele>
        <time>2025-07-24T12:49:40.289Z</time>
      </trkpt>
      <trkpt lat="44.07491" lon="0.5873">
        <ele>121</ele>
        <time>2025-07-24T12:49:41.289Z</time>
      </trkpt>
      <trkpt lat="44.07491" lon="0.58728">
        <ele>121</ele>
        <time>2025-07-24T12:49:42.289Z</time>
      </trkpt>
      <trkpt lat="44.07491" lon="0.58726">
        <ele>121</ele>
        <time>2025-07-24T12:49:43.289Z</time>
      </trkpt>
      <trkpt lat="44.07491" lon="0.58725">
        <ele>121</ele>
        <time>2025-07-24T12:49:44.289Z</time>
      </trkpt>
      <trkpt lat="44.07491" lon="0.58723">
        <ele>120</ele>
        <time>2025-07-24T12:49:45.289Z</time>
      </trkpt>
      <trkpt lat="44.07491" lon="0.58721">
        <ele>120</ele>
        <time>2025-07-24T12:49:46.289Z</time>
      </trkpt>
      <trkpt lat="44.07492" lon="0.5872">
        <ele>120</ele>
        <time>2025-07-24T12:49:47.289Z</time>
      </trkpt>
      <trkpt lat="44.07492" lon="0.58718">
        <ele>120</ele>
        <time>2025-07-24T12:49:48.289Z</time>
      </trkpt>
      <trkpt lat="44.07492" lon="0.58716">
        <ele>120</ele>
        <time>2025-07-24T12:49:49.289Z</time>
      </trkpt>
      <trkpt lat="44.07492" lon="0.58715">
        <ele>120</ele>
        <time>2025-07-24T12:49:50.289Z</time>
      </trkpt>
      <trkpt lat="44.07492" lon="0.58713">
        <ele>120</ele>
        <time>2025-07-24T12:49:51.289Z</time>
      </trkpt>
      <trkpt lat="44.07492" lon="0.58712">
        <ele>120</ele>
        <time>2025-07-24T12:49:52.289Z</time>
      </trkpt>
      <trkpt lat="44.07492" lon="0.5871">
        <ele>120</ele>
        <time>2025-07-24T12:49:53.289Z</time>
      </trkpt>
      <trkpt lat="44.07492" lon="0.58708">
        <ele>119</ele>
        <time>2025-07-24T12:49:54.289Z</time>
      </trkpt>
      <trkpt lat="44.07492" lon="0.58707">
        <ele>119</ele>
        <time>2025-07-24T12:49:55.289Z</time>
      </trkpt>
      <trkpt lat="44.07492" lon="0.58704">
        <ele>119</ele>
        <time>2025-07-24T12:49:56.289Z</time>
      </trkpt>
      <trkpt lat="44.07492" lon="0.58702">
        <ele>119</ele>
        <time>2025-07-24T12:49:57.289Z</time>
      </trkpt>
      <trkpt lat="44.07492" lon="0.58701">
        <ele>119</ele>
        <time>2025-07-24T12:49:58.289Z</time>
      </trkpt>
      <trkpt lat="44.07492" lon="0.58699">
        <ele>118</ele>
        <time>2025-07-24T12:49:59.290Z</time>
      </trkpt>
      <trkpt lat="44.07492" lon="0.58697">
        <ele>118</ele>
        <time>2025-07-24T12:50:00.289Z</time>
      </trkpt>
      <trkpt lat="44.07493" lon="0.58695">
        <ele>118</ele>
        <time>2025-07-24T12:50:01.289Z</time>
      </trkpt>
      <trkpt lat="44.07493" lon="0.58694">
        <ele>119</ele>
        <time>2025-07-24T12:50:02.289Z</time>
      </trkpt>
      <trkpt lat="44.07493" lon="0.58692">
        <ele>119</ele>
        <time>2025-07-24T12:50:03.289Z</time>
      </trkpt>
      <trkpt lat="44.07493" lon="0.5869">
        <ele>119</ele>
        <time>2025-07-24T12:50:04.289Z</time>
      </trkpt>
      <trkpt lat="44.07493" lon="0.58688">
        <ele>120</ele>
        <time>2025-07-24T12:50:05.289Z</time>
      </trkpt>
      <trkpt lat="44.07493" lon="0.58686">
        <ele>120</ele>
        <time>2025-07-24T12:50:06.289Z</time>
      </trkpt>
      <trkpt lat="44.07493" lon="0.58684">
        <ele>120</ele>
        <time>2025-07-24T12:50:07.289Z</time>
      </trkpt>
      <trkpt lat="44.07493" lon="0.58683">
        <ele>120</ele>
        <time>2025-07-24T12:50:08.289Z</time>
      </trkpt>
      <trkpt lat="44.07494" lon="0.58681">
        <ele>120</ele>
        <time>2025-07-24T12:50:09.289Z</time>
      </trkpt>
      <trkpt lat="44.07494" lon="0.58679">
        <ele>120</ele>
        <time>2025-07-24T12:50:10.289Z</time>
      </trkpt>
      <trkpt lat="44.07494" lon="0.58677">
        <ele>120</ele>
        <time>2025-07-24T12:50:11.289Z</time>
      </trkpt>
      <trkpt lat="44.07494" lon="0.58675">
        <ele>120</ele>
        <time>2025-07-24T12:50:12.289Z</time>
      </trkpt>
      <trkpt lat="44.07494" lon="0.58673">
        <ele>119</ele>
        <time>2025-07-24T12:50:13.289Z</time>
      </trkpt>
      <trkpt lat="44.07494" lon="0.58671">
        <ele>119</ele>
        <time>2025-07-24T12:50:14.289Z</time>
      </trkpt>
      <trkpt lat="44.07494" lon="0.5867">
        <ele>119</ele>
        <time>2025-07-24T12:50:15.289Z</time>
      </trkpt>
      <trkpt lat="44.07494" lon="0.58668">
        <ele>118</ele>
        <time>2025-07-24T12:50:16.289Z</time>
      </trkpt>
      <trkpt lat="44.07494" lon="0.58666">
        <ele>118</ele>
        <time>2025-07-24T12:50:17.289Z</time>
      </trkpt>
      <trkpt lat="44.07494" lon="0.58665">
        <ele>118</ele>
        <time>2025-07-24T12:50:18.289Z</time>
      </trkpt>
      <trkpt lat="44.07494" lon="0.58663">
        <ele>118</ele>
        <time>2025-07-24T12:50:19.289Z</time>
      </trkpt>
      <trkpt lat="44.07495" lon="0.58661">
        <ele>117</ele>
        <time>2025-07-24T12:50:20.289Z</time>
      </trkpt>
      <trkpt lat="44.07495" lon="0.5866">
        <ele>117</ele>
        <time>2025-07-24T12:50:21.289Z</time>
      </trkpt>
      <trkpt lat="44.07495" lon="0.58658">
        <ele>116</ele>
        <time>2025-07-24T12:50:22.289Z</time>
      </trkpt>
      <trkpt lat="44.07495" lon="0.58656">
        <ele>116</ele>
        <time>2025-07-24T12:50:23.289Z</time>
      </trkpt>
      <trkpt lat="44.07496" lon="0.58654">
        <ele>116</ele>
        <time>2025-07-24T12:50:24.289Z</time>
      </trkpt>
      <trkpt lat="44.07496" lon="0.58652">
        <ele>116</ele>
        <time>2025-07-24T12:50:25.289Z</time>
      </trkpt>
      <trkpt lat="44.07496" lon="0.5865">
        <ele>115</ele>
        <time>2025-07-24T12:50:26.289Z</time>
      </trkpt>
      <trkpt lat="44.07496" lon="0.58648">
        <ele>115</ele>
        <time>2025-07-24T12:50:27.289Z</time>
      </trkpt>
      <trkpt lat="44.07496" lon="0.58647">
        <ele>115</ele>
        <time>2025-07-24T12:50:28.289Z</time>
      </trkpt>
      <trkpt lat="44.07496" lon="0.58645">
        <ele>115</ele>
        <time>2025-07-24T12:50:29.289Z</time>
      </trkpt>
      <trkpt lat="44.07497" lon="0.58643">
        <ele>115</ele>
        <time>2025-07-24T12:50:30.289Z</time>
      </trkpt>
      <trkpt lat="44.07497" lon="0.58641">
        <ele>115</ele>
        <time>2025-07-24T12:50:31.289Z</time>
      </trkpt>
      <trkpt lat="44.07497" lon="0.58639">
        <ele>115</ele>
        <time>2025-07-24T12:50:32.289Z</time>
      </trkpt>
      <trkpt lat="44.07497" lon="0.58638">
        <ele>116</ele>
        <time>2025-07-24T12:50:33.289Z</time>
      </trkpt>
      <trkpt lat="44.07497" lon="0.58636">
        <ele>116</ele>
        <time>2025-07-24T12:50:34.289Z</time>
      </trkpt>
      <trkpt lat="44.07497" lon="0.58634">
        <ele>116</ele>
        <time>2025-07-24T12:50:35.289Z</time>
      </trkpt>
      <trkpt lat="44.07498" lon="0.58632">
        <ele>116</ele>
        <time>2025-07-24T12:50:36.289Z</time>
      </trkpt>
      <trkpt lat="44.07498" lon="0.5863">
        <ele>116</ele>
        <time>2025-07-24T12:50:37.289Z</time>
      </trkpt>
      <trkpt lat="44.07498" lon="0.58629">
        <ele>116</ele>
        <time>2025-07-24T12:50:38.289Z</time>
      </trkpt>
      <trkpt lat="44.07499" lon="0.58627">
        <ele>116</ele>
        <time>2025-07-24T12:50:39.289Z</time>
      </trkpt>
      <trkpt lat="44.075" lon="0.58625">
        <ele>116</ele>
        <time>2025-07-24T12:50:40.289Z</time>
      </trkpt>
      <trkpt lat="44.075" lon="0.58624">
        <ele>116</ele>
        <time>2025-07-24T12:50:41.289Z</time>
      </trkpt>
      <trkpt lat="44.07501" lon="0.58623">
        <ele>117</ele>
        <time>2025-07-24T12:50:42.289Z</time>
      </trkpt>
      <trkpt lat="44.07501" lon="0.58621">
        <ele>116</ele>
        <time>2025-07-24T12:50:43.289Z</time>
      </trkpt>
      <trkpt lat="44.07502" lon="0.5862">
        <ele>116</ele>
        <time>2025-07-24T12:50:44.289Z</time>
      </trkpt>
      <trkpt lat="44.07502" lon="0.58618">
        <ele>116</ele>
        <time>2025-07-24T12:50:45.289Z</time>
      </trkpt>
      <trkpt lat="44.07502" lon="0.58617">
        <ele>116</ele>
        <time>2025-07-24T12:50:46.289Z</time>
      </trkpt>
      <trkpt lat="44.07503" lon="0.58616">
        <ele>116</ele>
        <time>2025-07-24T12:50:47.289Z</time>
      </trkpt>
      <trkpt lat="44.07503" lon="0.58615">
        <ele>116</ele>
        <time>2025-07-24T12:50:48.289Z</time>
      </trkpt>
      <trkpt lat="44.07504" lon="0.58613">
        <ele>116</ele>
        <time>2025-07-24T12:50:49.289Z</time>
      </trkpt>
      <trkpt lat="44.07504" lon="0.58611">
        <ele>116</ele>
        <time>2025-07-24T12:50:50.289Z</time>
      </trkpt>
      <trkpt lat="44.07505" lon="0.58609">
        <ele>117</ele>
        <time>2025-07-24T12:50:51.289Z</time>
      </trkpt>
      <trkpt lat="44.07505" lon="0.58607">
        <ele>117</ele>
        <time>2025-07-24T12:50:52.289Z</time>
      </trkpt>
      <trkpt lat="44.07505" lon="0.58606">
        <ele>117</ele>
        <time>2025-07-24T12:50:53.289Z</time>
      </trkpt>
      <trkpt lat="44.07506" lon="0.58605">
        <ele>117</ele>
        <time>2025-07-24T12:50:54.289Z</time>
      </trkpt>
      <trkpt lat="44.07506" lon="0.58604">
        <ele>117</ele>
        <time>2025-07-24T12:50:55.289Z</time>
      </trkpt>
      <trkpt lat="44.07507" lon="0.58602">
        <ele>117</ele>
        <time>2025-07-24T12:50:56.289Z</time>
      </trkpt>
      <trkpt lat="44.07508" lon="0.58601">
        <ele>117</ele>
        <time>2025-07-24T12:50:57.289Z</time>
      </trkpt>
      <trkpt lat="44.07508" lon="0.586">
        <ele>116</ele>
        <time>2025-07-24T12:50:58.289Z</time>
      </trkpt>
      <trkpt lat="44.07509" lon="0.58599">
        <ele>116</ele>
        <time>2025-07-24T12:50:59.289Z</time>
      </trkpt>
      <trkpt lat="44.0751" lon="0.58597">
        <ele>116</ele>
        <time>2025-07-24T12:51:00.289Z</time>
      </trkpt>
      <trkpt lat="44.07511" lon="0.58596">
        <ele>117</ele>
        <time>2025-07-24T12:51:01.289Z</time>
      </trkpt>
      <trkpt lat="44.07512" lon="0.58594">
        <ele>117</ele>
        <time>2025-07-24T12:51:02.290Z</time>
      </trkpt>
      <trkpt lat="44.07513" lon="0.58593">
        <ele>117</ele>
        <time>2025-07-24T12:51:03.289Z</time>
      </trkpt>
      <trkpt lat="44.07514" lon="0.58593">
        <ele>117</ele>
        <time>2025-07-24T12:51:04.289Z</time>
      </trkpt>
      <trkpt lat="44.07515" lon="0.58591">
        <ele>117</ele>
        <time>2025-07-24T12:51:05.289Z</time>
      </trkpt>
      <trkpt lat="44.07516" lon="0.58591">
        <ele>117</ele>
        <time>2025-07-24T12:51:06.289Z</time>
      </trkpt>
      <trkpt lat="44.07516" lon="0.5859">
        <ele>117</ele>
        <time>2025-07-24T12:51:07.289Z</time>
      </trkpt>
      <trkpt lat="44.07517" lon="0.5859">
        <ele>117</ele>
        <time>2025-07-24T12:51:08.289Z</time>
      </trkpt>
      <trkpt lat="44.07517" lon="0.58589">
        <ele>117</ele>
        <time>2025-07-24T12:51:09.289Z</time>
      </trkpt>
      <trkpt lat="44.07518" lon="0.58589">
        <ele>117</ele>
        <time>2025-07-24T12:51:10.289Z</time>
      </trkpt>
      <trkpt lat="44.07519" lon="0.58587">
        <ele>117</ele>
        <time>2025-07-24T12:51:11.289Z</time>
      </trkpt>
      <trkpt lat="44.07521" lon="0.58587">
        <ele>117</ele>
        <time>2025-07-24T12:51:12.289Z</time>
      </trkpt>
      <trkpt lat="44.07521" lon="0.58586">
        <ele>117</ele>
        <time>2025-07-24T12:51:13.289Z</time>
      </trkpt>
      <trkpt lat="44.07522" lon="0.58585">
        <ele>117</ele>
        <time>2025-07-24T12:51:14.289Z</time>
      </trkpt>
      <trkpt lat="44.07524" lon="0.58584">
        <ele>117</ele>
        <time>2025-07-24T12:51:15.289Z</time>
      </trkpt>
      <trkpt lat="44.07525" lon="0.58583">
        <ele>117</ele>
        <time>2025-07-24T12:51:16.289Z</time>
      </trkpt>
      <trkpt lat="44.07526" lon="0.58583">
        <ele>117</ele>
        <time>2025-07-24T12:51:17.289Z</time>
      </trkpt>
      <trkpt lat="44.07526" lon="0.58583">
        <ele>117</ele>
        <time>2025-07-24T12:51:18.289Z</time>
      </trkpt>
      <trkpt lat="44.07527" lon="0.58582">
        <ele>117</ele>
        <time>2025-07-24T12:51:19.289Z</time>
      </trkpt>
      <trkpt lat="44.07527" lon="0.58582">
        <ele>117</ele>
        <time>2025-07-24T12:51:20.289Z</time>
      </trkpt>
      <trkpt lat="44.07527" lon="0.58582">
        <ele>117</ele>
        <time>2025-07-24T12:51:21.289Z</time>
      </trkpt>
      <trkpt lat="44.07527" lon="0.58582">
        <ele>117</ele>
        <time>2025-07-24T12:51:22.289Z</time>
      </trkpt>
      <trkpt lat="44.07527" lon="0.58582">
        <ele>117</ele>
        <time>2025-07-24T12:51:23.289Z</time>
      </trkpt>
      <trkpt lat="44.07527" lon="0.58583">
        <ele>117</ele>
        <time>2025-07-24T12:51:24.289Z</time>
      </trkpt>
      <trkpt lat="44.07527" lon="0.58583">
        <ele>118</ele>
        <time>2025-07-24T12:51:25.289Z</time>
      </trkpt>
      <trkpt lat="44.07527" lon="0.58583">
        <ele>119</ele>
        <time>2025-07-24T12:51:26.289Z</time>
      </trkpt>
      <trkpt lat="44.07527" lon="0.58582">
        <ele>119</ele>
        <time>2025-07-24T12:51:27.289Z</time>
      </trkpt>
      <trkpt lat="44.07527" lon="0.58582">
        <ele>119</ele>
        <time>2025-07-24T12:51:28.289Z</time>
      </trkpt>
      <trkpt lat="44.07527" lon="0.58581">
        <ele>119</ele>
        <time>2025-07-24T12:51:29.289Z</time>
      </trkpt>
      <trkpt lat="44.07527" lon="0.5858">
        <ele>119</ele>
        <time>2025-07-24T12:51:30.289Z</time>
      </trkpt>
      <trkpt lat="44.07528" lon="0.58579">
        <ele>119</ele>
        <time>2025-07-24T12:51:31.289Z</time>
      </trkpt>
      <trkpt lat="44.07528" lon="0.58578">
        <ele>119</ele>
        <time>2025-07-24T12:51:32.289Z</time>
      </trkpt>
      <trkpt lat="44.07528" lon="0.58576">
        <ele>118</ele>
        <time>2025-07-24T12:51:33.289Z</time>
      </trkpt>
      <trkpt lat="44.07529" lon="0.58575">
        <ele>117</ele>
        <time>2025-07-24T12:51:34.289Z</time>
      </trkpt>
      <trkpt lat="44.0753" lon="0.58574">
        <ele>117</ele>
        <time>2025-07-24T12:51:35.289Z</time>
      </trkpt>
      <trkpt lat="44.0753" lon="0.58573">
        <ele>117</ele>
        <time>2025-07-24T12:51:36.289Z</time>
      </trkpt>
      <trkpt lat="44.07531" lon="0.58571">
        <ele>116</ele>
        <time>2025-07-24T12:51:37.289Z</time>
      </trkpt>
      <trkpt lat="44.07531" lon="0.5857">
        <ele>116</ele>
        <time>2025-07-24T12:51:38.289Z</time>
      </trkpt>
      <trkpt lat="44.07532" lon="0.58569">
        <ele>116</ele>
        <time>2025-07-24T12:51:39.289Z</time>
      </trkpt>
      <trkpt lat="44.07532" lon="0.58567">
        <ele>116</ele>
        <time>2025-07-24T12:51:40.289Z</time>
      </trkpt>
      <trkpt lat="44.07532" lon="0.58565">
        <ele>116</ele>
        <time>2025-07-24T12:51:41.289Z</time>
      </trkpt>
      <trkpt lat="44.07532" lon="0.58563">
        <ele>117</ele>
        <time>2025-07-24T12:51:42.289Z</time>
      </trkpt>
      <trkpt lat="44.07532" lon="0.58562">
        <ele>117</ele>
        <time>2025-07-24T12:51:43.289Z</time>
      </trkpt>
      <trkpt lat="44.07532" lon="0.58561">
        <ele>116</ele>
        <time>2025-07-24T12:51:44.289Z</time>
      </trkpt>
      <trkpt lat="44.07533" lon="0.58559">
        <ele>116</ele>
        <time>2025-07-24T12:51:45.289Z</time>
      </trkpt>
      <trkpt lat="44.07533" lon="0.58558">
        <ele>116</ele>
        <time>2025-07-24T12:51:46.289Z</time>
      </trkpt>
      <trkpt lat="44.07534" lon="0.58557">
        <ele>116</ele>
        <time>2025-07-24T12:51:47.289Z</time>
      </trkpt>
      <trkpt lat="44.07535" lon="0.58555">
        <ele>116</ele>
        <time>2025-07-24T12:51:48.289Z</time>
      </trkpt>
      <trkpt lat="44.07536" lon="0.58555">
        <ele>116</ele>
        <time>2025-07-24T12:51:49.289Z</time>
      </trkpt>
      <trkpt lat="44.07537" lon="0.58554">
        <ele>116</ele>
        <time>2025-07-24T12:51:50.289Z</time>
      </trkpt>
      <trkpt lat="44.07538" lon="0.58554">
        <ele>117</ele>
        <time>2025-07-24T12:51:51.289Z</time>
      </trkpt>
      <trkpt lat="44.07538" lon="0.58554">
        <ele>117</ele>
        <time>2025-07-24T12:51:52.289Z</time>
      </trkpt>
      <trkpt lat="44.07538" lon="0.58554">
        <ele>117</ele>
        <time>2025-07-24T12:51:53.289Z</time>
      </trkpt>
      <trkpt lat="44.07538" lon="0.58554">
        <ele>117</ele>
        <time>2025-07-24T12:51:54.289Z</time>
      </trkpt>
      <trkpt lat="44.07538" lon="0.58554">
        <ele>118</ele>
        <time>2025-07-24T12:51:55.289Z</time>
      </trkpt>
      <trkpt lat="44.07539" lon="0.58554">
        <ele>118</ele>
        <time>2025-07-24T12:51:56.289Z</time>
      </trkpt>
      <trkpt lat="44.07539" lon="0.58554">
        <ele>118</ele>
        <time>2025-07-24T12:51:57.289Z</time>
      </trkpt>
      <trkpt lat="44.07539" lon="0.58554">
        <ele>117</ele>
        <time>2025-07-24T12:51:58.289Z</time>
      </trkpt>
      <trkpt lat="44.07539" lon="0.58554">
        <ele>117</ele>
        <time>2025-07-24T12:51:59.289Z</time>
      </trkpt>
      <trkpt lat="44.07539" lon="0.58553">
        <ele>117</ele>
        <time>2025-07-24T12:52:00.289Z</time>
      </trkpt>
      <trkpt lat="44.07539" lon="0.58553">
        <ele>117</ele>
        <time>2025-07-24T12:52:01.289Z</time>
      </trkpt>
      <trkpt lat="44.07539" lon="0.58553">
        <ele>117</ele>
        <time>2025-07-24T12:52:02.289Z</time>
      </trkpt>
      <trkpt lat="44.07539" lon="0.58553">
        <ele>117</ele>
        <time>2025-07-24T12:52:03.289Z</time>
      </trkpt>
      <trkpt lat="44.07539" lon="0.58553">
        <ele>117</ele>
        <time>2025-07-24T12:52:04.289Z</time>
      </trkpt>
      <trkpt lat="44.07539" lon="0.58553">
        <ele>117</ele>
        <time>2025-07-24T12:52:05.289Z</time>
      </trkpt>
      <trkpt lat="44.07539" lon="0.58553">
        <ele>117</ele>
        <time>2025-07-24T12:52:06.289Z</time>
      </trkpt>
      <trkpt lat="44.07539" lon="0.58553">
        <ele>117</ele>
        <time>2025-07-24T12:52:07.289Z</time>
      </trkpt>
      <trkpt lat="44.07538" lon="0.58553">
        <ele>118</ele>
        <time>2025-07-24T12:52:08.289Z</time>
      </trkpt>
      <trkpt lat="44.07538" lon="0.58552">
        <ele>118</ele>
        <time>2025-07-24T12:52:09.289Z</time>
      </trkpt>
      <trkpt lat="44.07538" lon="0.58551">
        <ele>117</ele>
        <time>2025-07-24T12:52:10.289Z</time>
      </trkpt>
      <trkpt lat="44.07538" lon="0.5855">
        <ele>117</ele>
        <time>2025-07-24T12:52:11.289Z</time>
      </trkpt>
      <trkpt lat="44.07539" lon="0.58549">
        <ele>117</ele>
        <time>2025-07-24T12:52:12.289Z</time>
      </trkpt>
      <trkpt lat="44.0754" lon="0.58548">
        <ele>116</ele>
        <time>2025-07-24T12:52:13.289Z</time>
      </trkpt>
      <trkpt lat="44.0754" lon="0.58547">
        <ele>116</ele>
        <time>2025-07-24T12:52:14.289Z</time>
      </trkpt>
      <trkpt lat="44.07541" lon="0.58545">
        <ele>115</ele>
        <time>2025-07-24T12:52:15.289Z</time>
      </trkpt>
      <trkpt lat="44.07542" lon="0.58543">
        <ele>114</ele>
        <time>2025-07-24T12:52:16.289Z</time>
      </trkpt>
      <trkpt lat="44.07542" lon="0.58542">
        <ele>114</ele>
        <time>2025-07-24T12:52:17.289Z</time>
      </trkpt>
      <trkpt lat="44.07543" lon="0.5854">
        <ele>113</ele>
        <time>2025-07-24T12:52:18.289Z</time>
      </trkpt>
      <trkpt lat="44.07543" lon="0.58539">
        <ele>113</ele>
        <time>2025-07-24T12:52:19.289Z</time>
      </trkpt>
      <trkpt lat="44.07544" lon="0.58538">
        <ele>113</ele>
        <time>2025-07-24T12:52:20.289Z</time>
      </trkpt>
      <trkpt lat="44.07545" lon="0.58536">
        <ele>113</ele>
        <time>2025-07-24T12:52:21.289Z</time>
      </trkpt>
      <trkpt lat="44.07545" lon="0.58534">
        <ele>113</ele>
        <time>2025-07-24T12:52:22.289Z</time>
      </trkpt>
      <trkpt lat="44.07546" lon="0.58533">
        <ele>113</ele>
        <time>2025-07-24T12:52:23.289Z</time>
      </trkpt>
      <trkpt lat="44.07547" lon="0.58532">
        <ele>113</ele>
        <time>2025-07-24T12:52:24.289Z</time>
      </trkpt>
      <trkpt lat="44.07548" lon="0.58531">
        <ele>113</ele>
        <time>2025-07-24T12:52:25.289Z</time>
      </trkpt>
      <trkpt lat="44.07548" lon="0.58529">
        <ele>113</ele>
        <time>2025-07-24T12:52:26.289Z</time>
      </trkpt>
      <trkpt lat="44.0755" lon="0.58528">
        <ele>113</ele>
        <time>2025-07-24T12:52:27.289Z</time>
      </trkpt>
      <trkpt lat="44.0755" lon="0.58526">
        <ele>113</ele>
        <time>2025-07-24T12:52:28.289Z</time>
      </trkpt>
      <trkpt lat="44.07551" lon="0.58525">
        <ele>113</ele>
        <time>2025-07-24T12:52:29.289Z</time>
      </trkpt>
      <trkpt lat="44.07551" lon="0.58523">
        <ele>114</ele>
        <time>2025-07-24T12:52:30.289Z</time>
      </trkpt>
      <trkpt lat="44.07552" lon="0.58522">
        <ele>114</ele>
        <time>2025-07-24T12:52:31.289Z</time>
      </trkpt>
      <trkpt lat="44.07552" lon="0.5852">
        <ele>114</ele>
        <time>2025-07-24T12:52:32.289Z</time>
      </trkpt>
      <trkpt lat="44.07553" lon="0.58519">
        <ele>115</ele>
        <time>2025-07-24T12:52:33.289Z</time>
      </trkpt>
      <trkpt lat="44.07554" lon="0.58518">
        <ele>115</ele>
        <time>2025-07-24T12:52:34.289Z</time>
      </trkpt>
      <trkpt lat="44.07555" lon="0.58517">
        <ele>115</ele>
        <time>2025-07-24T12:52:35.289Z</time>
      </trkpt>
      <trkpt lat="44.07556" lon="0.58516">
        <ele>115</ele>
        <time>2025-07-24T12:52:36.289Z</time>
      </trkpt>
      <trkpt lat="44.07556" lon="0.58516">
        <ele>115</ele>
        <time>2025-07-24T12:52:37.289Z</time>
      </trkpt>
      <trkpt lat="44.07557" lon="0.58514">
        <ele>116</ele>
        <time>2025-07-24T12:52:38.289Z</time>
      </trkpt>
      <trkpt lat="44.07557" lon="0.58513">
        <ele>116</ele>
        <time>2025-07-24T12:52:39.289Z</time>
      </trkpt>
      <trkpt lat="44.07558" lon="0.58512">
        <ele>117</ele>
        <time>2025-07-24T12:52:40.289Z</time>
      </trkpt>
      <trkpt lat="44.07559" lon="0.5851">
        <ele>117</ele>
        <time>2025-07-24T12:52:41.289Z</time>
      </trkpt>
      <trkpt lat="44.0756" lon="0.58509">
        <ele>117</ele>
        <time>2025-07-24T12:52:42.289Z</time>
      </trkpt>
      <trkpt lat="44.07561" lon="0.58508">
        <ele>116</ele>
        <time>2025-07-24T12:52:43.289Z</time>
      </trkpt>
      <trkpt lat="44.07561" lon="0.58507">
        <ele>116</ele>
        <time>2025-07-24T12:52:44.289Z</time>
      </trkpt>
      <trkpt lat="44.07562" lon="0.58506">
        <ele>116</ele>
        <time>2025-07-24T12:52:45.289Z</time>
      </trkpt>
      <trkpt lat="44.07562" lon="0.58505">
        <ele>116</ele>
        <time>2025-07-24T12:52:46.289Z</time>
      </trkpt>
      <trkpt lat="44.07563" lon="0.58504">
        <ele>116</ele>
        <time>2025-07-24T12:52:47.289Z</time>
      </trkpt>
      <trkpt lat="44.07564" lon="0.58503">
        <ele>116</ele>
        <time>2025-07-24T12:52:48.290Z</time>
      </trkpt>
      <trkpt lat="44.07565" lon="0.58502">
        <ele>115</ele>
        <time>2025-07-24T12:52:49.289Z</time>
      </trkpt>
      <trkpt lat="44.07565" lon="0.58501">
        <ele>115</ele>
        <time>2025-07-24T12:52:50.289Z</time>
      </trkpt>
      <trkpt lat="44.07565" lon="0.585">
        <ele>115</ele>
        <time>2025-07-24T12:52:51.289Z</time>
      </trkpt>
      <trkpt lat="44.07566" lon="0.58499">
        <ele>115</ele>
        <time>2025-07-24T12:52:52.289Z</time>
      </trkpt>
      <trkpt lat="44.07567" lon="0.58498">
        <ele>115</ele>
        <time>2025-07-24T12:52:53.289Z</time>
      </trkpt>
      <trkpt lat="44.07567" lon="0.58498">
        <ele>115</ele>
        <time>2025-07-24T12:52:54.289Z</time>
      </trkpt>
      <trkpt lat="44.07568" lon="0.58497">
        <ele>115</ele>
        <time>2025-07-24T12:52:55.289Z</time>
      </trkpt>
      <trkpt lat="44.07569" lon="0.58496">
        <ele>116</ele>
        <time>2025-07-24T12:52:56.289Z</time>
      </trkpt>
      <trkpt lat="44.07569" lon="0.58494">
        <ele>116</ele>
        <time>2025-07-24T12:52:57.289Z</time>
      </trkpt>
      <trkpt lat="44.0757" lon="0.58493">
        <ele>116</ele>
        <time>2025-07-24T12:52:58.289Z</time>
      </trkpt>
      <trkpt lat="44.0757" lon="0.58492">
        <ele>117</ele>
        <time>2025-07-24T12:52:59.289Z</time>
      </trkpt>
      <trkpt lat="44.07571" lon="0.58491">
        <ele>117</ele>
        <time>2025-07-24T12:53:00.289Z</time>
      </trkpt>
      <trkpt lat="44.07572" lon="0.58489">
        <ele>117</ele>
        <time>2025-07-24T12:53:01.289Z</time>
      </trkpt>
      <trkpt lat="44.07572" lon="0.58488">
        <ele>118</ele>
        <time>2025-07-24T12:53:02.289Z</time>
      </trkpt>
      <trkpt lat="44.07573" lon="0.58488">
        <ele>118</ele>
        <time>2025-07-24T12:53:03.289Z</time>
      </trkpt>
      <trkpt lat="44.07574" lon="0.58487">
        <ele>118</ele>
        <time>2025-07-24T12:53:04.289Z</time>
      </trkpt>
      <trkpt lat="44.07574" lon="0.58486">
        <ele>118</ele>
        <time>2025-07-24T12:53:05.290Z</time>
      </trkpt>
      <trkpt lat="44.07575" lon="0.58485">
        <ele>118</ele>
        <time>2025-07-24T12:53:06.289Z</time>
      </trkpt>
      <trkpt lat="44.07576" lon="0.58483">
        <ele>118</ele>
        <time>2025-07-24T12:53:07.289Z</time>
      </trkpt>
      <trkpt lat="44.07576" lon="0.58483">
        <ele>118</ele>
        <time>2025-07-24T12:53:08.289Z</time>
      </trkpt>
      <trkpt lat="44.07576" lon="0.58482">
        <ele>118</ele>
        <time>2025-07-24T12:53:09.289Z</time>
      </trkpt>
      <trkpt lat="44.07577" lon="0.58481">
        <ele>119</ele>
        <time>2025-07-24T12:53:10.289Z</time>
      </trkpt>
      <trkpt lat="44.07577" lon="0.58479">
        <ele>119</ele>
        <time>2025-07-24T12:53:11.289Z</time>
      </trkpt>
      <trkpt lat="44.07578" lon="0.58477">
        <ele>119</ele>
        <time>2025-07-24T12:53:12.289Z</time>
      </trkpt>
      <trkpt lat="44.07579" lon="0.58475">
        <ele>119</ele>
        <time>2025-07-24T12:53:13.289Z</time>
      </trkpt>
      <trkpt lat="44.07579" lon="0.58474">
        <ele>119</ele>
        <time>2025-07-24T12:53:14.289Z</time>
      </trkpt>
      <trkpt lat="44.07579" lon="0.58473">
        <ele>119</ele>
        <time>2025-07-24T12:53:15.289Z</time>
      </trkpt>
      <trkpt lat="44.0758" lon="0.58472">
        <ele>119</ele>
        <time>2025-07-24T12:53:16.289Z</time>
      </trkpt>
      <trkpt lat="44.0758" lon="0.58471">
        <ele>119</ele>
        <time>2025-07-24T12:53:17.289Z</time>
      </trkpt>
      <trkpt lat="44.07581" lon="0.58469">
        <ele>119</ele>
        <time>2025-07-24T12:53:18.289Z</time>
      </trkpt>
      <trkpt lat="44.07581" lon="0.58468">
        <ele>120</ele>
        <time>2025-07-24T12:53:19.289Z</time>
      </trkpt>
      <trkpt lat="44.07582" lon="0.58467">
        <ele>120</ele>
        <time>2025-07-24T12:53:20.289Z</time>
      </trkpt>
      <trkpt lat="44.07583" lon="0.58466">
        <ele>120</ele>
        <time>2025-07-24T12:53:21.289Z</time>
      </trkpt>
      <trkpt lat="44.07583" lon="0.58464">
        <ele>120</ele>
        <time>2025-07-24T12:53:22.290Z</time>
      </trkpt>
      <trkpt lat="44.07584" lon="0.58463">
        <ele>120</ele>
        <time>2025-07-24T12:53:23.289Z</time>
      </trkpt>
      <trkpt lat="44.07584" lon="0.58462">
        <ele>120</ele>
        <time>2025-07-24T12:53:24.289Z</time>
      </trkpt>
      <trkpt lat="44.07584" lon="0.58461">
        <ele>120</ele>
        <time>2025-07-24T12:53:25.289Z</time>
      </trkpt>
      <trkpt lat="44.07585" lon="0.58459">
        <ele>120</ele>
        <time>2025-07-24T12:53:26.289Z</time>
      </trkpt>
      <trkpt lat="44.07585" lon="0.58458">
        <ele>120</ele>
        <time>2025-07-24T12:53:27.289Z</time>
      </trkpt>
      <trkpt lat="44.07585" lon="0.58456">
        <ele>121</ele>
        <time>2025-07-24T12:53:28.289Z</time>
      </trkpt>
      <trkpt lat="44.07585" lon="0.58455">
        <ele>121</ele>
        <time>2025-07-24T12:53:29.289Z</time>
      </trkpt>
      <trkpt lat="44.07586" lon="0.58453">
        <ele>121</ele>
        <time>2025-07-24T12:53:30.289Z</time>
      </trkpt>
      <trkpt lat="44.07586" lon="0.58452">
        <ele>120</ele>
        <time>2025-07-24T12:53:31.289Z</time>
      </trkpt>
      <trkpt lat="44.07587" lon="0.5845">
        <ele>120</ele>
        <time>2025-07-24T12:53:32.289Z</time>
      </trkpt>
      <trkpt lat="44.07587" lon="0.58448">
        <ele>120</ele>
        <time>2025-07-24T12:53:33.289Z</time>
      </trkpt>
      <trkpt lat="44.07587" lon="0.58447">
        <ele>120</ele>
        <time>2025-07-24T12:53:34.289Z</time>
      </trkpt>
      <trkpt lat="44.07588" lon="0.58446">
        <ele>120</ele>
        <time>2025-07-24T12:53:35.289Z</time>
      </trkpt>
      <trkpt lat="44.07589" lon="0.58444">
        <ele>120</ele>
        <time>2025-07-24T12:53:36.289Z</time>
      </trkpt>
      <trkpt lat="44.07589" lon="0.58443">
        <ele>120</ele>
        <time>2025-07-24T12:53:37.289Z</time>
      </trkpt>
      <trkpt lat="44.07589" lon="0.58442">
        <ele>120</ele>
        <time>2025-07-24T12:53:38.289Z</time>
      </trkpt>
      <trkpt lat="44.0759" lon="0.5844">
        <ele>121</ele>
        <time>2025-07-24T12:53:39.289Z</time>
      </trkpt>
      <trkpt lat="44.0759" lon="0.58439">
        <ele>121</ele>
        <time>2025-07-24T12:53:40.289Z</time>
      </trkpt>
      <trkpt lat="44.0759" lon="0.58437">
        <ele>121</ele>
        <time>2025-07-24T12:53:41.289Z</time>
      </trkpt>
      <trkpt lat="44.07591" lon="0.58436">
        <ele>121</ele>
        <time>2025-07-24T12:53:42.289Z</time>
      </trkpt>
      <trkpt lat="44.07591" lon="0.58435">
        <ele>121</ele>
        <time>2025-07-24T12:53:43.289Z</time>
      </trkpt>
      <trkpt lat="44.07591" lon="0.58433">
        <ele>121</ele>
        <time>2025-07-24T12:53:44.289Z</time>
      </trkpt>
      <trkpt lat="44.07592" lon="0.58432">
        <ele>121</ele>
        <time>2025-07-24T12:53:45.289Z</time>
      </trkpt>
      <trkpt lat="44.07592" lon="0.58431">
        <ele>122</ele>
        <time>2025-07-24T12:53:46.289Z</time>
      </trkpt>
      <trkpt lat="44.07593" lon="0.5843">
        <ele>122</ele>
        <time>2025-07-24T12:53:47.289Z</time>
      </trkpt>
      <trkpt lat="44.07593" lon="0.58428">
        <ele>122</ele>
        <time>2025-07-24T12:53:48.289Z</time>
      </trkpt>
      <trkpt lat="44.07594" lon="0.58427">
        <ele>122</ele>
        <time>2025-07-24T12:53:49.289Z</time>
      </trkpt>
      <trkpt lat="44.07594" lon="0.58426">
        <ele>122</ele>
        <time>2025-07-24T12:53:50.289Z</time>
      </trkpt>
      <trkpt lat="44.07594" lon="0.58425">
        <ele>122</ele>
        <time>2025-07-24T12:53:51.289Z</time>
      </trkpt>
      <trkpt lat="44.07595" lon="0.58424">
        <ele>123</ele>
        <time>2025-07-24T12:53:52.289Z</time>
      </trkpt>
      <trkpt lat="44.07595" lon="0.58423">
        <ele>123</ele>
        <time>2025-07-24T12:53:53.289Z</time>
      </trkpt>
      <trkpt lat="44.07596" lon="0.58421">
        <ele>123</ele>
        <time>2025-07-24T12:53:54.289Z</time>
      </trkpt>
      <trkpt lat="44.07596" lon="0.5842">
        <ele>123</ele>
        <time>2025-07-24T12:53:55.289Z</time>
      </trkpt>
      <trkpt lat="44.07597" lon="0.58419">
        <ele>123</ele>
        <time>2025-07-24T12:53:56.289Z</time>
      </trkpt>
      <trkpt lat="44.07598" lon="0.58417">
        <ele>123</ele>
        <time>2025-07-24T12:53:57.289Z</time>
      </trkpt>
      <trkpt lat="44.07599" lon="0.58416">
        <ele>123</ele>
        <time>2025-07-24T12:53:58.289Z</time>
      </trkpt>
      <trkpt lat="44.07599" lon="0.58415">
        <ele>122</ele>
        <time>2025-07-24T12:53:59.289Z</time>
      </trkpt>
      <trkpt lat="44.07599" lon="0.58413">
        <ele>122</ele>
        <time>2025-07-24T12:54:00.289Z</time>
      </trkpt>
      <trkpt lat="44.076" lon="0.58412">
        <ele>123</ele>
        <time>2025-07-24T12:54:01.289Z</time>
      </trkpt>
      <trkpt lat="44.076" lon="0.58411">
        <ele>123</ele>
        <time>2025-07-24T12:54:02.289Z</time>
      </trkpt>
      <trkpt lat="44.076" lon="0.58409">
        <ele>124</ele>
        <time>2025-07-24T12:54:03.289Z</time>
      </trkpt>
      <trkpt lat="44.07601" lon="0.58408">
        <ele>124</ele>
        <time>2025-07-24T12:54:04.289Z</time>
      </trkpt>
      <trkpt lat="44.07602" lon="0.58407">
        <ele>124</ele>
        <time>2025-07-24T12:54:05.290Z</time>
      </trkpt>
      <trkpt lat="44.07602" lon="0.58406">
        <ele>124</ele>
        <time>2025-07-24T12:54:06.289Z</time>
      </trkpt>
      <trkpt lat="44.07603" lon="0.58405">
        <ele>124</ele>
        <time>2025-07-24T12:54:07.289Z</time>
      </trkpt>
      <trkpt lat="44.07603" lon="0.58404">
        <ele>124</ele>
        <time>2025-07-24T12:54:08.289Z</time>
      </trkpt>
      <trkpt lat="44.07604" lon="0.58402">
        <ele>124</ele>
        <time>2025-07-24T12:54:09.289Z</time>
      </trkpt>
      <trkpt lat="44.07604" lon="0.58401">
        <ele>124</ele>
        <time>2025-07-24T12:54:10.289Z</time>
      </trkpt>
      <trkpt lat="44.07605" lon="0.584">
        <ele>124</ele>
        <time>2025-07-24T12:54:11.289Z</time>
      </trkpt>
      <trkpt lat="44.07605" lon="0.58398">
        <ele>124</ele>
        <time>2025-07-24T12:54:12.289Z</time>
      </trkpt>
      <trkpt lat="44.07606" lon="0.58397">
        <ele>124</ele>
        <time>2025-07-24T12:54:13.289Z</time>
      </trkpt>
      <trkpt lat="44.07607" lon="0.58396">
        <ele>124</ele>
        <time>2025-07-24T12:54:14.289Z</time>
      </trkpt>
      <trkpt lat="44.07607" lon="0.58395">
        <ele>125</ele>
        <time>2025-07-24T12:54:15.289Z</time>
      </trkpt>
      <trkpt lat="44.07607" lon="0.58394">
        <ele>125</ele>
        <time>2025-07-24T12:54:16.289Z</time>
      </trkpt>
      <trkpt lat="44.07608" lon="0.58393">
        <ele>126</ele>
        <time>2025-07-24T12:54:17.289Z</time>
      </trkpt>
      <trkpt lat="44.07608" lon="0.58392">
        <ele>126</ele>
        <time>2025-07-24T12:54:18.289Z</time>
      </trkpt>
      <trkpt lat="44.07609" lon="0.58391">
        <ele>127</ele>
        <time>2025-07-24T12:54:19.289Z</time>
      </trkpt>
      <trkpt lat="44.07609" lon="0.58389">
        <ele>127</ele>
        <time>2025-07-24T12:54:20.289Z</time>
      </trkpt>
      <trkpt lat="44.0761" lon="0.58388">
        <ele>127</ele>
        <time>2025-07-24T12:54:21.289Z</time>
      </trkpt>
      <trkpt lat="44.07611" lon="0.58387">
        <ele>127</ele>
        <time>2025-07-24T12:54:22.289Z</time>
      </trkpt>
      <trkpt lat="44.07611" lon="0.58386">
        <ele>127</ele>
        <time>2025-07-24T12:54:23.289Z</time>
      </trkpt>
      <trkpt lat="44.07612" lon="0.58385">
        <ele>127</ele>
        <time>2025-07-24T12:54:24.289Z</time>
      </trkpt>
      <trkpt lat="44.07612" lon="0.58384">
        <ele>127</ele>
        <time>2025-07-24T12:54:25.289Z</time>
      </trkpt>
      <trkpt lat="44.07613" lon="0.58382">
        <ele>127</ele>
        <time>2025-07-24T12:54:26.289Z</time>
      </trkpt>
      <trkpt lat="44.07613" lon="0.58381">
        <ele>127</ele>
        <time>2025-07-24T12:54:27.289Z</time>
      </trkpt>
      <trkpt lat="44.07614" lon="0.5838">
        <ele>127</ele>
        <time>2025-07-24T12:54:28.289Z</time>
      </trkpt>
      <trkpt lat="44.07614" lon="0.58379">
        <ele>127</ele>
        <time>2025-07-24T12:54:29.289Z</time>
      </trkpt>
      <trkpt lat="44.07615" lon="0.58378">
        <ele>127</ele>
        <time>2025-07-24T12:54:30.289Z</time>
      </trkpt>
      <trkpt lat="44.07615" lon="0.58376">
        <ele>127</ele>
        <time>2025-07-24T12:54:31.290Z</time>
      </trkpt>
      <trkpt lat="44.07615" lon="0.58375">
        <ele>126</ele>
        <time>2025-07-24T12:54:32.289Z</time>
      </trkpt>
      <trkpt lat="44.07616" lon="0.58374">
        <ele>126</ele>
        <time>2025-07-24T12:54:33.289Z</time>
      </trkpt>
      <trkpt lat="44.07616" lon="0.58372">
        <ele>126</ele>
        <time>2025-07-24T12:54:34.289Z</time>
      </trkpt>
      <trkpt lat="44.07617" lon="0.58371">
        <ele>126</ele>
        <time>2025-07-24T12:54:35.289Z</time>
      </trkpt>
      <trkpt lat="44.07617" lon="0.5837">
        <ele>126</ele>
        <time>2025-07-24T12:54:36.289Z</time>
      </trkpt>
      <trkpt lat="44.07618" lon="0.5837">
        <ele>127</ele>
        <time>2025-07-24T12:54:37.289Z</time>
      </trkpt>
      <trkpt lat="44.07619" lon="0.58369">
        <ele>127</ele>
        <time>2025-07-24T12:54:38.289Z</time>
      </trkpt>
      <trkpt lat="44.07619" lon="0.58367">
        <ele>127</ele>
        <time>2025-07-24T12:54:39.289Z</time>
      </trkpt>
      <trkpt lat="44.07619" lon="0.58366">
        <ele>127</ele>
        <time>2025-07-24T12:54:40.289Z</time>
      </trkpt>
      <trkpt lat="44.07619" lon="0.58365">
        <ele>127</ele>
        <time>2025-07-24T12:54:41.289Z</time>
      </trkpt>
      <trkpt lat="44.0762" lon="0.58363">
        <ele>127</ele>
        <time>2025-07-24T12:54:42.289Z</time>
      </trkpt>
      <trkpt lat="44.0762" lon="0.58362">
        <ele>126</ele>
        <time>2025-07-24T12:54:43.289Z</time>
      </trkpt>
      <trkpt lat="44.07621" lon="0.58361">
        <ele>126</ele>
        <time>2025-07-24T12:54:44.289Z</time>
      </trkpt>
      <trkpt lat="44.07621" lon="0.5836">
        <ele>126</ele>
        <time>2025-07-24T12:54:45.289Z</time>
      </trkpt>
      <trkpt lat="44.07622" lon="0.58359">
        <ele>126</ele>
        <time>2025-07-24T12:54:46.289Z</time>
      </trkpt>
      <trkpt lat="44.07623" lon="0.58357">
        <ele>126</ele>
        <time>2025-07-24T12:54:47.290Z</time>
      </trkpt>
      <trkpt lat="44.07623" lon="0.58356">
        <ele>125</ele>
        <time>2025-07-24T12:54:48.290Z</time>
      </trkpt>
      <trkpt lat="44.07624" lon="0.58354">
        <ele>125</ele>
        <time>2025-07-24T12:54:49.289Z</time>
      </trkpt>
      <trkpt lat="44.07624" lon="0.58353">
        <ele>125</ele>
        <time>2025-07-24T12:54:50.289Z</time>
      </trkpt>
      <trkpt lat="44.07625" lon="0.58352">
        <ele>125</ele>
        <time>2025-07-24T12:54:51.289Z</time>
      </trkpt>
      <trkpt lat="44.07625" lon="0.5835">
        <ele>125</ele>
        <time>2025-07-24T12:54:52.289Z</time>
      </trkpt>
      <trkpt lat="44.07626" lon="0.58348">
        <ele>125</ele>
        <time>2025-07-24T12:54:53.289Z</time>
      </trkpt>
      <trkpt lat="44.07627" lon="0.58347">
        <ele>126</ele>
        <time>2025-07-24T12:54:54.289Z</time>
      </trkpt>
      <trkpt lat="44.07627" lon="0.58345">
        <ele>126</ele>
        <time>2025-07-24T12:54:55.289Z</time>
      </trkpt>
      <trkpt lat="44.07627" lon="0.58344">
        <ele>126</ele>
        <time>2025-07-24T12:54:56.289Z</time>
      </trkpt>
      <trkpt lat="44.07628" lon="0.58343">
        <ele>127</ele>
        <time>2025-07-24T12:54:57.289Z</time>
      </trkpt>
      <trkpt lat="44.07628" lon="0.58341">
        <ele>127</ele>
        <time>2025-07-24T12:54:58.289Z</time>
      </trkpt>
      <trkpt lat="44.07629" lon="0.5834">
        <ele>127</ele>
        <time>2025-07-24T12:54:59.289Z</time>
      </trkpt>
      <trkpt lat="44.07629" lon="0.58339">
        <ele>127</ele>
        <time>2025-07-24T12:55:00.289Z</time>
      </trkpt>
      <trkpt lat="44.0763" lon="0.58337">
        <ele>127</ele>
        <time>2025-07-24T12:55:01.289Z</time>
      </trkpt>
      <trkpt lat="44.07631" lon="0.58335">
        <ele>127</ele>
        <time>2025-07-24T12:55:02.289Z</time>
      </trkpt>
      <trkpt lat="44.07631" lon="0.58334">
        <ele>128</ele>
        <time>2025-07-24T12:55:03.289Z</time>
      </trkpt>
      <trkpt lat="44.07631" lon="0.58333">
        <ele>128</ele>
        <time>2025-07-24T12:55:04.289Z</time>
      </trkpt>
      <trkpt lat="44.07632" lon="0.58331">
        <ele>128</ele>
        <time>2025-07-24T12:55:05.289Z</time>
      </trkpt>
      <trkpt lat="44.07632" lon="0.5833">
        <ele>128</ele>
        <time>2025-07-24T12:55:06.289Z</time>
      </trkpt>
      <trkpt lat="44.07633" lon="0.58328">
        <ele>128</ele>
        <time>2025-07-24T12:55:07.289Z</time>
      </trkpt>
      <trkpt lat="44.07634" lon="0.58327">
        <ele>128</ele>
        <time>2025-07-24T12:55:08.289Z</time>
      </trkpt>
      <trkpt lat="44.07634" lon="0.58325">
        <ele>128</ele>
        <time>2025-07-24T12:55:09.289Z</time>
      </trkpt>
      <trkpt lat="44.07635" lon="0.58324">
        <ele>128</ele>
        <time>2025-07-24T12:55:10.289Z</time>
      </trkpt>
      <trkpt lat="44.07635" lon="0.58322">
        <ele>128</ele>
        <time>2025-07-24T12:55:11.290Z</time>
      </trkpt>
      <trkpt lat="44.07635" lon="0.58321">
        <ele>128</ele>
        <time>2025-07-24T12:55:12.289Z</time>
      </trkpt>
      <trkpt lat="44.07636" lon="0.5832">
        <ele>128</ele>
        <time>2025-07-24T12:55:13.289Z</time>
      </trkpt>
      <trkpt lat="44.07636" lon="0.58319">
        <ele>129</ele>
        <time>2025-07-24T12:55:14.289Z</time>
      </trkpt>
      <trkpt lat="44.07637" lon="0.58318">
        <ele>129</ele>
        <time>2025-07-24T12:55:15.289Z</time>
      </trkpt>
      <trkpt lat="44.07637" lon="0.58317">
        <ele>129</ele>
        <time>2025-07-24T12:55:16.290Z</time>
      </trkpt>
      <trkpt lat="44.07638" lon="0.58315">
        <ele>129</ele>
        <time>2025-07-24T12:55:17.289Z</time>
      </trkpt>
      <trkpt lat="44.07638" lon="0.58314">
        <ele>129</ele>
        <time>2025-07-24T12:55:18.289Z</time>
      </trkpt>
      <trkpt lat="44.07638" lon="0.58313">
        <ele>130</ele>
        <time>2025-07-24T12:55:19.289Z</time>
      </trkpt>
      <trkpt lat="44.07639" lon="0.58311">
        <ele>130</ele>
        <time>2025-07-24T12:55:20.289Z</time>
      </trkpt>
      <trkpt lat="44.07639" lon="0.5831">
        <ele>130</ele>
        <time>2025-07-24T12:55:21.289Z</time>
      </trkpt>
      <trkpt lat="44.07639" lon="0.58308">
        <ele>130</ele>
        <time>2025-07-24T12:55:22.289Z</time>
      </trkpt>
      <trkpt lat="44.07639" lon="0.58307">
        <ele>130</ele>
        <time>2025-07-24T12:55:23.289Z</time>
      </trkpt>
      <trkpt lat="44.0764" lon="0.58306">
        <ele>130</ele>
        <time>2025-07-24T12:55:24.289Z</time>
      </trkpt>
      <trkpt lat="44.0764" lon="0.58304">
        <ele>130</ele>
        <time>2025-07-24T12:55:25.289Z</time>
      </trkpt>
      <trkpt lat="44.07641" lon="0.58302">
        <ele>130</ele>
        <time>2025-07-24T12:55:26.289Z</time>
      </trkpt>
      <trkpt lat="44.07641" lon="0.58301">
        <ele>130</ele>
        <time>2025-07-24T12:55:27.289Z</time>
      </trkpt>
      <trkpt lat="44.07641" lon="0.58299">
        <ele>130</ele>
        <time>2025-07-24T12:55:28.289Z</time>
      </trkpt>
      <trkpt lat="44.07642" lon="0.58298">
        <ele>130</ele>
        <time>2025-07-24T12:55:29.289Z</time>
      </trkpt>
      <trkpt lat="44.07642" lon="0.58297">
        <ele>130</ele>
        <time>2025-07-24T12:55:30.289Z</time>
      </trkpt>
      <trkpt lat="44.07642" lon="0.58296">
        <ele>130</ele>
        <time>2025-07-24T12:55:31.289Z</time>
      </trkpt>
      <trkpt lat="44.07642" lon="0.58294">
        <ele>130</ele>
        <time>2025-07-24T12:55:32.289Z</time>
      </trkpt>
      <trkpt lat="44.07642" lon="0.58293">
        <ele>131</ele>
        <time>2025-07-24T12:55:33.289Z</time>
      </trkpt>
      <trkpt lat="44.07642" lon="0.58292">
        <ele>131</ele>
        <time>2025-07-24T12:55:34.289Z</time>
      </trkpt>
      <trkpt lat="44.07642" lon="0.5829">
        <ele>131</ele>
        <time>2025-07-24T12:55:35.289Z</time>
      </trkpt>
      <trkpt lat="44.07643" lon="0.58289">
        <ele>131</ele>
        <time>2025-07-24T12:55:36.289Z</time>
      </trkpt>
      <trkpt lat="44.07643" lon="0.58288">
        <ele>131</ele>
        <time>2025-07-24T12:55:37.289Z</time>
      </trkpt>
      <trkpt lat="44.07643" lon="0.58286">
        <ele>131</ele>
        <time>2025-07-24T12:55:38.289Z</time>
      </trkpt>
      <trkpt lat="44.07643" lon="0.58285">
        <ele>131</ele>
        <time>2025-07-24T12:55:39.289Z</time>
      </trkpt>
      <trkpt lat="44.07643" lon="0.58283">
        <ele>130</ele>
        <time>2025-07-24T12:55:40.289Z</time>
      </trkpt>
      <trkpt lat="44.07643" lon="0.58282">
        <ele>130</ele>
        <time>2025-07-24T12:55:41.289Z</time>
      </trkpt>
      <trkpt lat="44.07643" lon="0.58281">
        <ele>130</ele>
        <time>2025-07-24T12:55:42.289Z</time>
      </trkpt>
      <trkpt lat="44.07643" lon="0.58279">
        <ele>131</ele>
        <time>2025-07-24T12:55:43.289Z</time>
      </trkpt>
      <trkpt lat="44.07643" lon="0.58278">
        <ele>131</ele>
        <time>2025-07-24T12:55:44.289Z</time>
      </trkpt>
      <trkpt lat="44.07644" lon="0.58277">
        <ele>131</ele>
        <time>2025-07-24T12:55:45.289Z</time>
      </trkpt>
      <trkpt lat="44.07644" lon="0.58276">
        <ele>131</ele>
        <time>2025-07-24T12:55:46.289Z</time>
      </trkpt>
      <trkpt lat="44.07644" lon="0.58275">
        <ele>131</ele>
        <time>2025-07-24T12:55:47.289Z</time>
      </trkpt>
      <trkpt lat="44.07644" lon="0.58274">
        <ele>131</ele>
        <time>2025-07-24T12:55:48.289Z</time>
      </trkpt>
      <trkpt lat="44.07644" lon="0.58274">
        <ele>131</ele>
        <time>2025-07-24T12:55:49.289Z</time>
      </trkpt>
      <trkpt lat="44.07644" lon="0.58274">
        <ele>131</ele>
        <time>2025-07-24T12:55:50.289Z</time>
      </trkpt>
      <trkpt lat="44.07644" lon="0.58274">
        <ele>130</ele>
        <time>2025-07-24T12:55:51.289Z</time>
      </trkpt>
      <trkpt lat="44.07644" lon="0.58273">
        <ele>130</ele>
        <time>2025-07-24T12:55:52.289Z</time>
      </trkpt>
      <trkpt lat="44.07644" lon="0.58273">
        <ele>130</ele>
        <time>2025-07-24T12:55:53.289Z</time>
      </trkpt>
      <trkpt lat="44.07644" lon="0.58273">
        <ele>130</ele>
        <time>2025-07-24T12:55:54.289Z</time>
      </trkpt>
      <trkpt lat="44.07644" lon="0.58272">
        <ele>131</ele>
        <time>2025-07-24T12:55:55.289Z</time>
      </trkpt>
      <trkpt lat="44.07644" lon="0.58271">
        <ele>131</ele>
        <time>2025-07-24T12:55:56.289Z</time>
      </trkpt>
      <trkpt lat="44.07645" lon="0.58271">
        <ele>132</ele>
        <time>2025-07-24T12:55:57.289Z</time>
      </trkpt>
      <trkpt lat="44.07645" lon="0.5827">
        <ele>132</ele>
        <time>2025-07-24T12:55:58.289Z</time>
      </trkpt>
      <trkpt lat="44.07645" lon="0.5827">
        <ele>133</ele>
        <time>2025-07-24T12:55:59.289Z</time>
      </trkpt>
      <trkpt lat="44.07645" lon="0.58269">
        <ele>132</ele>
        <time>2025-07-24T12:56:00.289Z</time>
      </trkpt>
      <trkpt lat="44.07645" lon="0.58269">
        <ele>133</ele>
        <time>2025-07-24T12:56:01.289Z</time>
      </trkpt>
      <trkpt lat="44.07644" lon="0.58268">
        <ele>133</ele>
        <time>2025-07-24T12:56:02.289Z</time>
      </trkpt>
      <trkpt lat="44.07644" lon="0.58267">
        <ele>133</ele>
        <time>2025-07-24T12:56:03.289Z</time>
      </trkpt>
      <trkpt lat="44.07644" lon="0.58266">
        <ele>134</ele>
        <time>2025-07-24T12:56:04.289Z</time>
      </trkpt>
      <trkpt lat="44.07644" lon="0.58265">
        <ele>134</ele>
        <time>2025-07-24T12:56:05.289Z</time>
      </trkpt>
      <trkpt lat="44.07645" lon="0.58264">
        <ele>134</ele>
        <time>2025-07-24T12:56:06.289Z</time>
      </trkpt>
      <trkpt lat="44.07645" lon="0.58264">
        <ele>134</ele>
        <time>2025-07-24T12:56:07.289Z</time>
      </trkpt>
      <trkpt lat="44.07646" lon="0.58264">
        <ele>134</ele>
        <time>2025-07-24T12:56:08.289Z</time>
      </trkpt>
      <trkpt lat="44.07646" lon="0.58264">
        <ele>134</ele>
        <time>2025-07-24T12:56:09.289Z</time>
      </trkpt>
      <trkpt lat="44.07646" lon="0.58264">
        <ele>134</ele>
        <time>2025-07-24T12:56:10.289Z</time>
      </trkpt>
      <trkpt lat="44.07646" lon="0.58264">
        <ele>134</ele>
        <time>2025-07-24T12:56:11.289Z</time>
      </trkpt>
      <trkpt lat="44.07646" lon="0.58264">
        <ele>134</ele>
        <time>2025-07-24T12:56:12.289Z</time>
      </trkpt>
      <trkpt lat="44.07646" lon="0.58264">
        <ele>134</ele>
        <time>2025-07-24T12:56:13.289Z</time>
      </trkpt>
      <trkpt lat="44.07646" lon="0.58264">
        <ele>133</ele>
        <time>2025-07-24T12:56:14.289Z</time>
      </trkpt>
      <trkpt lat="44.07646" lon="0.58263">
        <ele>133</ele>
        <time>2025-07-24T12:56:15.289Z</time>
      </trkpt>
      <trkpt lat="44.07646" lon="0.58263">
        <ele>133</ele>
        <time>2025-07-24T12:56:16.289Z</time>
      </trkpt>
      <trkpt lat="44.07646" lon="0.58263">
        <ele>133</ele>
        <time>2025-07-24T12:56:17.289Z</time>
      </trkpt>
      <trkpt lat="44.07646" lon="0.58263">
        <ele>133</ele>
        <time>2025-07-24T12:56:18.289Z</time>
      </trkpt>
      <trkpt lat="44.07646" lon="0.58263">
        <ele>133</ele>
        <time>2025-07-24T12:56:19.289Z</time>
      </trkpt>
      <trkpt lat="44.07646" lon="0.58263">
        <ele>133</ele>
        <time>2025-07-24T12:56:20.289Z</time>
      </trkpt>
      <trkpt lat="44.07646" lon="0.58263">
        <ele>133</ele>
        <time>2025-07-24T12:56:21.289Z</time>
      </trkpt>
      <trkpt lat="44.07646" lon="0.58263">
        <ele>133</ele>
        <time>2025-07-24T12:56:22.289Z</time>
      </trkpt>
      <trkpt lat="44.07646" lon="0.58263">
        <ele>133</ele>
        <time>2025-07-24T12:56:23.289Z</time>
      </trkpt>
      <trkpt lat="44.07646" lon="0.58263">
        <ele>133</ele>
        <time>2025-07-24T12:56:24.289Z</time>
      </trkpt>
      <trkpt lat="44.07646" lon="0.58263">
        <ele>133</ele>
        <time>2025-07-24T12:56:25.289Z</time>
      </trkpt>
      <trkpt lat="44.07646" lon="0.58263">
        <ele>132</ele>
        <time>2025-07-24T12:56:26.289Z</time>
      </trkpt>
      <trkpt lat="44.07646" lon="0.58264">
        <ele>132</ele>
        <time>2025-07-24T12:56:27.289Z</time>
      </trkpt>
      <trkpt lat="44.07646" lon="0.58264">
        <ele>132</ele>
        <time>2025-07-24T12:56:28.289Z</time>
      </trkpt>
      <trkpt lat="44.07646" lon="0.58264">
        <ele>132</ele>
        <time>2025-07-24T12:56:29.289Z</time>
      </trkpt>
      <trkpt lat="44.07647" lon="0.58264">
        <ele>132</ele>
        <time>2025-07-24T12:56:30.289Z</time>
      </trkpt>
      <trkpt lat="44.07647" lon="0.58264">
        <ele>132</ele>
        <time>2025-07-24T12:56:31.289Z</time>
      </trkpt>
      <trkpt lat="44.07647" lon="0.58264">
        <ele>132</ele>
        <time>2025-07-24T12:56:32.289Z</time>
      </trkpt>
      <trkpt lat="44.07647" lon="0.58264">
        <ele>132</ele>
        <time>2025-07-24T12:56:33.289Z</time>
      </trkpt>
      <trkpt lat="44.07647" lon="0.58264">
        <ele>132</ele>
        <time>2025-07-24T12:56:34.289Z</time>
      </trkpt>
      <trkpt lat="44.07647" lon="0.58264">
        <ele>131</ele>
        <time>2025-07-24T12:56:35.289Z</time>
      </trkpt>
      <trkpt lat="44.07647" lon="0.58264">
        <ele>131</ele>
        <time>2025-07-24T12:56:36.289Z</time>
      </trkpt>
      <trkpt lat="44.07647" lon="0.58264">
        <ele>131</ele>
        <time>2025-07-24T12:56:37.289Z</time>
      </trkpt>
      <trkpt lat="44.07647" lon="0.58264">
        <ele>131</ele>
        <time>2025-07-24T12:56:38.289Z</time>
      </trkpt>
      <trkpt lat="44.07647" lon="0.58264">
        <ele>131</ele>
        <time>2025-07-24T12:56:39.289Z</time>
      </trkpt>
      <trkpt lat="44.07647" lon="0.58264">
        <ele>132</ele>
        <time>2025-07-24T12:56:40.289Z</time>
      </trkpt>
      <trkpt lat="44.07647" lon="0.58264">
        <ele>132</ele>
        <time>2025-07-24T12:56:41.289Z</time>
      </trkpt>
      <trkpt lat="44.07647" lon="0.58264">
        <ele>132</ele>
        <time>2025-07-24T12:56:42.289Z</time>
      </trkpt>
      <trkpt lat="44.07647" lon="0.58265">
        <ele>133</ele>
        <time>2025-07-24T12:56:43.289Z</time>
      </trkpt>
      <trkpt lat="44.07647" lon="0.58265">
        <ele>132</ele>
        <time>2025-07-24T12:56:44.289Z</time>
      </trkpt>
      <trkpt lat="44.07647" lon="0.58265">
        <ele>132</ele>
        <time>2025-07-24T12:56:45.289Z</time>
      </trkpt>
      <trkpt lat="44.07647" lon="0.58265">
        <ele>132</ele>
        <time>2025-07-24T12:56:46.289Z</time>
      </trkpt>
      <trkpt lat="44.07647" lon="0.58265">
        <ele>132</ele>
        <time>2025-07-24T12:56:47.289Z</time>
      </trkpt>
      <trkpt lat="44.07647" lon="0.58265">
        <ele>133</ele>
        <time>2025-07-24T12:56:48.289Z</time>
      </trkpt>
      <trkpt lat="44.07647" lon="0.58265">
        <ele>133</ele>
        <time>2025-07-24T12:56:49.289Z</time>
      </trkpt>
      <trkpt lat="44.07647" lon="0.58265">
        <ele>133</ele>
        <time>2025-07-24T12:56:50.289Z</time>
      </trkpt>
      <trkpt lat="44.07647" lon="0.58265">
        <ele>133</ele>
        <time>2025-07-24T12:56:51.289Z</time>
      </trkpt>
      <trkpt lat="44.07647" lon="0.58265">
        <ele>133</ele>
        <time>2025-07-24T12:56:52.289Z</time>
      </trkpt>
      <trkpt lat="44.07647" lon="0.58265">
        <ele>133</ele>
        <time>2025-07-24T12:56:53.289Z</time>
      </trkpt>
      <trkpt lat="44.07647" lon="0.58265">
        <ele>133</ele>
        <time>2025-07-24T12:56:54.289Z</time>
      </trkpt>
      <trkpt lat="44.07647" lon="0.58265">
        <ele>133</ele>
        <time>2025-07-24T12:56:55.289Z</time>
      </trkpt>
      <trkpt lat="44.07647" lon="0.58265">
        <ele>133</ele>
        <time>2025-07-24T12:56:56.289Z</time>
      </trkpt>
      <trkpt lat="44.07647" lon="0.58265">
        <ele>134</ele>
        <time>2025-07-24T12:56:57.289Z</time>
      </trkpt>
      <trkpt lat="44.07647" lon="0.58265">
        <ele>134</ele>
        <time>2025-07-24T12:56:58.289Z</time>
      </trkpt>
      <trkpt lat="44.07647" lon="0.58265">
        <ele>134</ele>
        <time>2025-07-24T12:56:59.289Z</time>
      </trkpt>
      <trkpt lat="44.07647" lon="0.58265">
        <ele>134</ele>
        <time>2025-07-24T12:57:00.289Z</time>
      </trkpt>
      <trkpt lat="44.07647" lon="0.58265">
        <ele>135</ele>
        <time>2025-07-24T12:57:01.289Z</time>
      </trkpt>
      <trkpt lat="44.07647" lon="0.58264">
        <ele>135</ele>
        <time>2025-07-24T12:57:02.289Z</time>
      </trkpt>
      <trkpt lat="44.07647" lon="0.58264">
        <ele>135</ele>
        <time>2025-07-24T12:57:03.289Z</time>
      </trkpt>
      <trkpt lat="44.07647" lon="0.58264">
        <ele>135</ele>
        <time>2025-07-24T12:57:04.289Z</time>
      </trkpt>
      <trkpt lat="44.07647" lon="0.58264">
        <ele>135</ele>
        <time>2025-07-24T12:57:05.289Z</time>
      </trkpt>
      <trkpt lat="44.07647" lon="0.58264">
        <ele>135</ele>
        <time>2025-07-24T12:57:06.289Z</time>
      </trkpt>
      <trkpt lat="44.07647" lon="0.58264">
        <ele>134</ele>
        <time>2025-07-24T12:57:07.289Z</time>
      </trkpt>
      <trkpt lat="44.07647" lon="0.58264">
        <ele>134</ele>
        <time>2025-07-24T12:57:08.289Z</time>
      </trkpt>
      <trkpt lat="44.07647" lon="0.58264">
        <ele>134</ele>
        <time>2025-07-24T12:57:09.289Z</time>
      </trkpt>
      <trkpt lat="44.07647" lon="0.58264">
        <ele>134</ele>
        <time>2025-07-24T12:57:10.289Z</time>
      </trkpt>
      <trkpt lat="44.07647" lon="0.58264">
        <ele>134</ele>
        <time>2025-07-24T12:57:11.289Z</time>
      </trkpt>
      <trkpt lat="44.07647" lon="0.58264">
        <ele>135</ele>
        <time>2025-07-24T12:57:12.289Z</time>
      </trkpt>
      <trkpt lat="44.07647" lon="0.58264">
        <ele>134</ele>
        <time>2025-07-24T12:57:13.289Z</time>
      </trkpt>
      <trkpt lat="44.07648" lon="0.58264">
        <ele>134</ele>
        <time>2025-07-24T12:57:14.289Z</time>
      </trkpt>
      <trkpt lat="44.07648" lon="0.58264">
        <ele>134</ele>
        <time>2025-07-24T12:57:15.289Z</time>
      </trkpt>
      <trkpt lat="44.07648" lon="0.58264">
        <ele>134</ele>
        <time>2025-07-24T12:57:16.289Z</time>
      </trkpt>
      <trkpt lat="44.07648" lon="0.58264">
        <ele>133</ele>
        <time>2025-07-24T12:57:17.289Z</time>
      </trkpt>
      <trkpt lat="44.07648" lon="0.58264">
        <ele>133</ele>
        <time>2025-07-24T12:57:18.289Z</time>
      </trkpt>
      <trkpt lat="44.07648" lon="0.58264">
        <ele>133</ele>
        <time>2025-07-24T12:57:19.289Z</time>
      </trkpt>
      <trkpt lat="44.07648" lon="0.58264">
        <ele>132</ele>
        <time>2025-07-24T12:57:20.289Z</time>
      </trkpt>
      <trkpt lat="44.07648" lon="0.58264">
        <ele>132</ele>
        <time>2025-07-24T12:57:21.289Z</time>
      </trkpt>
      <trkpt lat="44.07648" lon="0.58263">
        <ele>132</ele>
        <time>2025-07-24T12:57:22.289Z</time>
      </trkpt>
      <trkpt lat="44.07648" lon="0.58263">
        <ele>131</ele>
        <time>2025-07-24T12:57:23.289Z</time>
      </trkpt>
      <trkpt lat="44.07648" lon="0.58263">
        <ele>131</ele>
        <time>2025-07-24T12:57:24.289Z</time>
      </trkpt>
      <trkpt lat="44.07648" lon="0.58263">
        <ele>132</ele>
        <time>2025-07-24T12:57:25.289Z</time>
      </trkpt>
      <trkpt lat="44.07648" lon="0.58263">
        <ele>132</ele>
        <time>2025-07-24T12:57:26.289Z</time>
      </trkpt>
      <trkpt lat="44.07648" lon="0.58263">
        <ele>132</ele>
        <time>2025-07-24T12:57:27.289Z</time>
      </trkpt>
      <trkpt lat="44.07648" lon="0.58263">
        <ele>132</ele>
        <time>2025-07-24T12:57:28.289Z</time>
      </trkpt>
      <trkpt lat="44.07648" lon="0.58263">
        <ele>132</ele>
        <time>2025-07-24T12:57:29.289Z</time>
      </trkpt>
      <trkpt lat="44.07648" lon="0.58263">
        <ele>132</ele>
        <time>2025-07-24T12:57:30.289Z</time>
      </trkpt>
      <trkpt lat="44.07648" lon="0.58262">
        <ele>132</ele>
        <time>2025-07-24T12:57:31.289Z</time>
      </trkpt>
      <trkpt lat="44.07648" lon="0.58262">
        <ele>132</ele>
        <time>2025-07-24T12:57:32.289Z</time>
      </trkpt>
      <trkpt lat="44.07648" lon="0.58262">
        <ele>132</ele>
        <time>2025-07-24T12:57:33.289Z</time>
      </trkpt>
      <trkpt lat="44.07648" lon="0.58262">
        <ele>132</ele>
        <time>2025-07-24T12:57:34.289Z</time>
      </trkpt>
      <trkpt lat="44.07648" lon="0.58262">
        <ele>133</ele>
        <time>2025-07-24T12:57:35.289Z</time>
      </trkpt>
      <trkpt lat="44.07648" lon="0.58262">
        <ele>133</ele>
        <time>2025-07-24T12:57:36.289Z</time>
      </trkpt>
      <trkpt lat="44.07648" lon="0.58262">
        <ele>133</ele>
        <time>2025-07-24T12:57:37.289Z</time>
      </trkpt>
      <trkpt lat="44.07648" lon="0.58262">
        <ele>133</ele>
        <time>2025-07-24T12:57:38.289Z</time>
      </trkpt>
      <trkpt lat="44.07648" lon="0.58262">
        <ele>133</ele>
        <time>2025-07-24T12:57:39.289Z</time>
      </trkpt>
      <trkpt lat="44.07648" lon="0.58262">
        <ele>132</ele>
        <time>2025-07-24T12:57:40.289Z</time>
      </trkpt>
      <trkpt lat="44.07648" lon="0.58262">
        <ele>132</ele>
        <time>2025-07-24T12:57:41.289Z</time>
      </trkpt>
      <trkpt lat="44.07648" lon="0.58262">
        <ele>132</ele>
        <time>2025-07-24T12:57:42.289Z</time>
      </trkpt>
      <trkpt lat="44.07648" lon="0.58262">
        <ele>132</ele>
        <time>2025-07-24T12:57:43.289Z</time>
      </trkpt>
      <trkpt lat="44.07648" lon="0.58262">
        <ele>132</ele>
        <time>2025-07-24T12:57:44.289Z</time>
      </trkpt>
      <trkpt lat="44.07648" lon="0.58262">
        <ele>132</ele>
        <time>2025-07-24T12:57:45.289Z</time>
      </trkpt>
      <trkpt lat="44.07648" lon="0.58262">
        <ele>132</ele>
        <time>2025-07-24T12:57:46.289Z</time>
      </trkpt>
      <trkpt lat="44.07648" lon="0.58262">
        <ele>132</ele>
        <time>2025-07-24T12:57:47.289Z</time>
      </trkpt>
      <trkpt lat="44.07648" lon="0.58262">
        <ele>132</ele>
        <time>2025-07-24T12:57:48.289Z</time>
      </trkpt>
      <trkpt lat="44.07648" lon="0.58262">
        <ele>132</ele>
        <time>2025-07-24T12:57:49.289Z</time>
      </trkpt>
      <trkpt lat="44.07648" lon="0.58262">
        <ele>132</ele>
        <time>2025-07-24T12:57:50.289Z</time>
      </trkpt>
      <trkpt lat="44.07648" lon="0.58262">
        <ele>131</ele>
        <time>2025-07-24T12:57:51.289Z</time>
      </trkpt>
      <trkpt lat="44.07648" lon="0.58262">
        <ele>131</ele>
        <time>2025-07-24T12:57:52.289Z</time>
      </trkpt>
      <trkpt lat="44.07648" lon="0.58262">
        <ele>131</ele>
        <time>2025-07-24T12:57:53.289Z</time>
      </trkpt>
      <trkpt lat="44.07648" lon="0.58262">
        <ele>130</ele>
        <time>2025-07-24T12:57:54.289Z</time>
      </trkpt>
      <trkpt lat="44.07648" lon="0.58262">
        <ele>130</ele>
        <time>2025-07-24T12:57:55.289Z</time>
      </trkpt>
      <trkpt lat="44.07648" lon="0.58262">
        <ele>130</ele>
        <time>2025-07-24T12:57:56.289Z</time>
      </trkpt>
      <trkpt lat="44.07648" lon="0.58262">
        <ele>130</ele>
        <time>2025-07-24T12:57:57.289Z</time>
      </trkpt>
      <trkpt lat="44.07648" lon="0.58262">
        <ele>130</ele>
        <time>2025-07-24T12:57:58.289Z</time>
      </trkpt>
      <trkpt lat="44.07648" lon="0.58262">
        <ele>130</ele>
        <time>2025-07-24T12:57:59.289Z</time>
      </trkpt>
      <trkpt lat="44.07648" lon="0.58262">
        <ele>130</ele>
        <time>2025-07-24T12:58:00.289Z</time>
      </trkpt>
      <trkpt lat="44.07648" lon="0.58262">
        <ele>131</ele>
        <time>2025-07-24T12:58:01.289Z</time>
      </trkpt>
      <trkpt lat="44.07648" lon="0.58262">
        <ele>131</ele>
        <time>2025-07-24T12:58:02.289Z</time>
      </trkpt>
      <trkpt lat="44.07648" lon="0.58262">
        <ele>131</ele>
        <time>2025-07-24T12:58:03.289Z</time>
      </trkpt>
      <trkpt lat="44.07648" lon="0.58261">
        <ele>131</ele>
        <time>2025-07-24T12:58:04.289Z</time>
      </trkpt>
      <trkpt lat="44.07648" lon="0.58261">
        <ele>131</ele>
        <time>2025-07-24T12:58:05.289Z</time>
      </trkpt>
      <trkpt lat="44.07648" lon="0.58261">
        <ele>131</ele>
        <time>2025-07-24T12:58:06.289Z</time>
      </trkpt>
      <trkpt lat="44.07648" lon="0.58261">
        <ele>131</ele>
        <time>2025-07-24T12:58:07.289Z</time>
      </trkpt>
      <trkpt lat="44.07648" lon="0.58261">
        <ele>131</ele>
        <time>2025-07-24T12:58:08.289Z</time>
      </trkpt>
      <trkpt lat="44.07648" lon="0.58261">
        <ele>131</ele>
        <time>2025-07-24T12:58:09.289Z</time>
      </trkpt>
      <trkpt lat="44.07648" lon="0.58261">
        <ele>131</ele>
        <time>2025-07-24T12:58:10.289Z</time>
      </trkpt>
      <trkpt lat="44.07648" lon="0.58261">
        <ele>131</ele>
        <time>2025-07-24T12:58:11.289Z</time>
      </trkpt>
      <trkpt lat="44.07648" lon="0.58261">
        <ele>131</ele>
        <time>2025-07-24T12:58:12.289Z</time>
      </trkpt>
      <trkpt lat="44.07648" lon="0.58261">
        <ele>131</ele>
        <time>2025-07-24T12:58:13.289Z</time>
      </trkpt>
      <trkpt lat="44.07648" lon="0.58261">
        <ele>131</ele>
        <time>2025-07-24T12:58:14.289Z</time>
      </trkpt>
      <trkpt lat="44.07648" lon="0.58261">
        <ele>131</ele>
        <time>2025-07-24T12:58:15.289Z</time>
      </trkpt>
      <trkpt lat="44.07648" lon="0.58261">
        <ele>131</ele>
        <time>2025-07-24T12:58:16.289Z</time>
      </trkpt>
      <trkpt lat="44.07648" lon="0.58261">
        <ele>130</ele>
        <time>2025-07-24T12:58:17.289Z</time>
      </trkpt>
      <trkpt lat="44.07648" lon="0.58261">
        <ele>130</ele>
        <time>2025-07-24T12:58:18.289Z</time>
      </trkpt>
      <trkpt lat="44.07648" lon="0.58261">
        <ele>129</ele>
        <time>2025-07-24T12:58:19.289Z</time>
      </trkpt>
      <trkpt lat="44.07648" lon="0.58261">
        <ele>129</ele>
        <time>2025-07-24T12:58:20.289Z</time>
      </trkpt>
      <trkpt lat="44.07648" lon="0.58261">
        <ele>129</ele>
        <time>2025-07-24T12:58:21.289Z</time>
      </trkpt>
      <trkpt lat="44.07648" lon="0.58261">
        <ele>129</ele>
        <time>2025-07-24T12:58:22.289Z</time>
      </trkpt>
      <trkpt lat="44.07648" lon="0.58261">
        <ele>129</ele>
        <time>2025-07-24T12:58:23.289Z</time>
      </trkpt>
      <trkpt lat="44.07648" lon="0.58261">
        <ele>129</ele>
        <time>2025-07-24T12:58:24.289Z</time>
      </trkpt>
      <trkpt lat="44.07648" lon="0.58261">
        <ele>129</ele>
        <time>2025-07-24T12:58:25.289Z</time>
      </trkpt>
      <trkpt lat="44.07648" lon="0.58261">
        <ele>129</ele>
        <time>2025-07-24T12:58:26.289Z</time>
      </trkpt>
      <trkpt lat="44.07648" lon="0.58261">
        <ele>129</ele>
        <time>2025-07-24T12:58:27.289Z</time>
      </trkpt>
      <trkpt lat="44.07648" lon="0.58261">
        <ele>129</ele>
        <time>2025-07-24T12:58:28.289Z</time>
      </trkpt>
      <trkpt lat="44.07648" lon="0.58261">
        <ele>129</ele>
        <time>2025-07-24T12:58:29.289Z</time>
      </trkpt>
      <trkpt lat="44.07648" lon="0.58261">
        <ele>129</ele>
        <time>2025-07-24T12:58:30.289Z</time>
      </trkpt>
      <trkpt lat="44.07648" lon="0.58261">
        <ele>129</ele>
        <time>2025-07-24T12:58:31.289Z</time>
      </trkpt>
      <trkpt lat="44.07648" lon="0.58261">
        <ele>129</ele>
        <time>2025-07-24T12:58:32.289Z</time>
      </trkpt>
      <trkpt lat="44.07648" lon="0.58261">
        <ele>130</ele>
        <time>2025-07-24T12:58:33.289Z</time>
      </trkpt>
      <trkpt lat="44.07648" lon="0.58261">
        <ele>130</ele>
        <time>2025-07-24T12:58:34.289Z</time>
      </trkpt>
      <trkpt lat="44.07648" lon="0.58261">
        <ele>130</ele>
        <time>2025-07-24T12:58:35.289Z</time>
      </trkpt>
      <trkpt lat="44.07648" lon="0.58261">
        <ele>131</ele>
        <time>2025-07-24T12:58:36.289Z</time>
      </trkpt>
      <trkpt lat="44.07648" lon="0.58261">
        <ele>131</ele>
        <time>2025-07-24T12:58:37.289Z</time>
      </trkpt>
      <trkpt lat="44.07648" lon="0.58261">
        <ele>131</ele>
        <time>2025-07-24T12:58:38.289Z</time>
      </trkpt>
      <trkpt lat="44.07648" lon="0.58261">
        <ele>131</ele>
        <time>2025-07-24T12:58:39.289Z</time>
      </trkpt>
      <trkpt lat="44.07648" lon="0.58261">
        <ele>132</ele>
        <time>2025-07-24T12:58:40.289Z</time>
      </trkpt>
      <trkpt lat="44.07648" lon="0.58261">
        <ele>132</ele>
        <time>2025-07-24T12:58:41.289Z</time>
      </trkpt>
      <trkpt lat="44.07648" lon="0.58261">
        <ele>132</ele>
        <time>2025-07-24T12:58:42.289Z</time>
      </trkpt>
      <trkpt lat="44.07648" lon="0.58261">
        <ele>132</ele>
        <time>2025-07-24T12:58:43.289Z</time>
      </trkpt>
      <trkpt lat="44.07648" lon="0.58261">
        <ele>132</ele>
        <time>2025-07-24T12:58:44.289Z</time>
      </trkpt>
      <trkpt lat="44.07648" lon="0.58261">
        <ele>133</ele>
        <time>2025-07-24T12:58:45.289Z</time>
      </trkpt>
      <trkpt lat="44.07648" lon="0.58261">
        <ele>133</ele>
        <time>2025-07-24T12:58:46.289Z</time>
      </trkpt>
      <trkpt lat="44.07648" lon="0.58261">
        <ele>133</ele>
        <time>2025-07-24T12:58:47.289Z</time>
      </trkpt>
      <trkpt lat="44.07648" lon="0.58261">
        <ele>133</ele>
        <time>2025-07-24T12:58:48.289Z</time>
      </trkpt>
      <trkpt lat="44.07648" lon="0.58261">
        <ele>133</ele>
        <time>2025-07-24T12:58:49.289Z</time>
      </trkpt>
      <trkpt lat="44.07648" lon="0.58261">
        <ele>133</ele>
        <time>2025-07-24T12:58:50.289Z</time>
      </trkpt>
      <trkpt lat="44.07648" lon="0.58261">
        <ele>132</ele>
        <time>2025-07-24T12:58:51.289Z</time>
      </trkpt>
      <trkpt lat="44.07648" lon="0.58261">
        <ele>132</ele>
        <time>2025-07-24T12:58:52.289Z</time>
      </trkpt>
      <trkpt lat="44.07648" lon="0.58261">
        <ele>132</ele>
        <time>2025-07-24T12:58:53.289Z</time>
      </trkpt>
      <trkpt lat="44.07648" lon="0.58261">
        <ele>132</ele>
        <time>2025-07-24T12:58:54.289Z</time>
      </trkpt>
      <trkpt lat="44.07648" lon="0.58261">
        <ele>132</ele>
        <time>2025-07-24T12:58:55.289Z</time>
      </trkpt>
      <trkpt lat="44.07648" lon="0.58261">
        <ele>132</ele>
        <time>2025-07-24T12:58:56.289Z</time>
      </trkpt>
      <trkpt lat="44.07648" lon="0.58261">
        <ele>132</ele>
        <time>2025-07-24T12:58:57.289Z</time>
      </trkpt>
      <trkpt lat="44.07648" lon="0.58261">
        <ele>132</ele>
        <time>2025-07-24T12:58:58.289Z</time>
      </trkpt>
      <trkpt lat="44.07648" lon="0.58261">
        <ele>132</ele>
        <time>2025-07-24T12:58:59.289Z</time>
      </trkpt>
      <trkpt lat="44.07648" lon="0.58261">
        <ele>132</ele>
        <time>2025-07-24T12:59:00.289Z</time>
      </trkpt>
      <trkpt lat="44.07648" lon="0.58261">
        <ele>132</ele>
        <time>2025-07-24T12:59:01.289Z</time>
      </trkpt>
      <trkpt lat="44.07648" lon="0.58261">
        <ele>132</ele>
        <time>2025-07-24T12:59:02.289Z</time>
      </trkpt>
      <trkpt lat="44.07648" lon="0.58261">
        <ele>131</ele>
        <time>2025-07-24T12:59:03.289Z</time>
      </trkpt>
      <trkpt lat="44.07648" lon="0.58261">
        <ele>131</ele>
        <time>2025-07-24T12:59:04.289Z</time>
      </trkpt>
      <trkpt lat="44.07648" lon="0.58261">
        <ele>131</ele>
        <time>2025-07-24T12:59:05.289Z</time>
      </trkpt>
      <trkpt lat="44.07648" lon="0.58261">
        <ele>131</ele>
        <time>2025-07-24T12:59:06.289Z</time>
      </trkpt>
      <trkpt lat="44.07648" lon="0.58261">
        <ele>131</ele>
        <time>2025-07-24T12:59:07.289Z</time>
      </trkpt>
      <trkpt lat="44.07648" lon="0.58261">
        <ele>131</ele>
        <time>2025-07-24T12:59:08.289Z</time>
      </trkpt>
      <trkpt lat="44.07648" lon="0.58261">
        <ele>131</ele>
        <time>2025-07-24T12:59:09.289Z</time>
      </trkpt>
      <trkpt lat="44.07648" lon="0.58261">
        <ele>131</ele>
        <time>2025-07-24T12:59:10.289Z</time>
      </trkpt>
      <trkpt lat="44.07648" lon="0.58261">
        <ele>131</ele>
        <time>2025-07-24T12:59:11.289Z</time>
      </trkpt>
      <trkpt lat="44.07648" lon="0.58261">
        <ele>130</ele>
        <time>2025-07-24T12:59:12.289Z</time>
      </trkpt>
      <trkpt lat="44.07648" lon="0.58261">
        <ele>130</ele>
        <time>2025-07-24T12:59:13.289Z</time>
      </trkpt>
      <trkpt lat="44.07648" lon="0.58261">
        <ele>130</ele>
        <time>2025-07-24T12:59:14.289Z</time>
      </trkpt>
      <trkpt lat="44.07648" lon="0.58261">
        <ele>130</ele>
        <time>2025-07-24T12:59:15.289Z</time>
      </trkpt>
      <trkpt lat="44.07648" lon="0.58261">
        <ele>130</ele>
        <time>2025-07-24T12:59:16.289Z</time>
      </trkpt>
      <trkpt lat="44.07648" lon="0.58261">
        <ele>130</ele>
        <time>2025-07-24T12:59:17.289Z</time>
      </trkpt>
      <trkpt lat="44.07648" lon="0.58261">
        <ele>131</ele>
        <time>2025-07-24T12:59:18.289Z</time>
      </trkpt>
      <trkpt lat="44.07649" lon="0.58261">
        <ele>131</ele>
        <time>2025-07-24T12:59:19.289Z</time>
      </trkpt>
      <trkpt lat="44.07649" lon="0.58261">
        <ele>131</ele>
        <time>2025-07-24T12:59:20.289Z</time>
      </trkpt>
      <trkpt lat="44.07649" lon="0.58261">
        <ele>131</ele>
        <time>2025-07-24T12:59:21.289Z</time>
      </trkpt>
      <trkpt lat="44.07648" lon="0.58261">
        <ele>131</ele>
        <time>2025-07-24T12:59:22.289Z</time>
      </trkpt>
      <trkpt lat="44.07648" lon="0.58261">
        <ele>131</ele>
        <time>2025-07-24T12:59:23.289Z</time>
      </trkpt>
      <trkpt lat="44.07648" lon="0.58261">
        <ele>131</ele>
        <time>2025-07-24T12:59:24.289Z</time>
      </trkpt>
      <trkpt lat="44.07648" lon="0.58261">
        <ele>131</ele>
        <time>2025-07-24T12:59:25.289Z</time>
      </trkpt>
      <trkpt lat="44.07648" lon="0.58262">
        <ele>131</ele>
        <time>2025-07-24T12:59:26.289Z</time>
      </trkpt>
      <trkpt lat="44.07648" lon="0.58262">
        <ele>131</ele>
        <time>2025-07-24T12:59:27.289Z</time>
      </trkpt>
      <trkpt lat="44.07648" lon="0.58262">
        <ele>130</ele>
        <time>2025-07-24T12:59:28.289Z</time>
      </trkpt>
      <trkpt lat="44.07648" lon="0.58262">
        <ele>130</ele>
        <time>2025-07-24T12:59:29.289Z</time>
      </trkpt>
      <trkpt lat="44.07648" lon="0.58262">
        <ele>131</ele>
        <time>2025-07-24T12:59:30.289Z</time>
      </trkpt>
      <trkpt lat="44.07648" lon="0.58262">
        <ele>131</ele>
        <time>2025-07-24T12:59:31.289Z</time>
      </trkpt>
      <trkpt lat="44.07648" lon="0.58262">
        <ele>131</ele>
        <time>2025-07-24T12:59:32.289Z</time>
      </trkpt>
      <trkpt lat="44.07648" lon="0.58262">
        <ele>131</ele>
        <time>2025-07-24T12:59:33.289Z</time>
      </trkpt>
      <trkpt lat="44.07648" lon="0.58262">
        <ele>131</ele>
        <time>2025-07-24T12:59:34.289Z</time>
      </trkpt>
      <trkpt lat="44.07648" lon="0.58262">
        <ele>131</ele>
        <time>2025-07-24T12:59:35.289Z</time>
      </trkpt>
      <trkpt lat="44.07648" lon="0.58262">
        <ele>131</ele>
        <time>2025-07-24T12:59:36.289Z</time>
      </trkpt>
      <trkpt lat="44.07649" lon="0.58262">
        <ele>131</ele>
        <time>2025-07-24T12:59:37.289Z</time>
      </trkpt>
      <trkpt lat="44.07648" lon="0.58262">
        <ele>131</ele>
        <time>2025-07-24T12:59:38.289Z</time>
      </trkpt>
      <trkpt lat="44.07648" lon="0.58262">
        <ele>131</ele>
        <time>2025-07-24T12:59:39.289Z</time>
      </trkpt>
      <trkpt lat="44.07648" lon="0.58262">
        <ele>131</ele>
        <time>2025-07-24T12:59:40.289Z</time>
      </trkpt>
      <trkpt lat="44.07648" lon="0.58262">
        <ele>131</ele>
        <time>2025-07-24T12:59:41.289Z</time>
      </trkpt>
      <trkpt lat="44.07648" lon="0.58262">
        <ele>131</ele>
        <time>2025-07-24T12:59:42.289Z</time>
      </trkpt>
      <trkpt lat="44.07648" lon="0.58262">
        <ele>131</ele>
        <time>2025-07-24T12:59:43.289Z</time>
      </trkpt>
      <trkpt lat="44.07648" lon="0.58262">
        <ele>131</ele>
        <time>2025-07-24T12:59:44.289Z</time>
      </trkpt>
      <trkpt lat="44.07648" lon="0.58262">
        <ele>131</ele>
        <time>2025-07-24T12:59:45.289Z</time>
      </trkpt>
      <trkpt lat="44.07648" lon="0.58262">
        <ele>131</ele>
        <time>2025-07-24T12:59:46.289Z</time>
      </trkpt>
      <trkpt lat="44.07648" lon="0.58262">
        <ele>131</ele>
        <time>2025-07-24T12:59:47.289Z</time>
      </trkpt>
      <trkpt lat="44.07648" lon="0.58262">
        <ele>131</ele>
        <time>2025-07-24T12:59:48.289Z</time>
      </trkpt>
      <trkpt lat="44.07648" lon="0.58263">
        <ele>131</ele>
        <time>2025-07-24T12:59:49.289Z</time>
      </trkpt>
      <trkpt lat="44.07648" lon="0.58263">
        <ele>131</ele>
        <time>2025-07-24T12:59:50.289Z</time>
      </trkpt>
      <trkpt lat="44.07648" lon="0.58263">
        <ele>131</ele>
        <time>2025-07-24T12:59:51.289Z</time>
      </trkpt>
      <trkpt lat="44.07648" lon="0.58263">
        <ele>131</ele>
        <time>2025-07-24T12:59:52.289Z</time>
      </trkpt>
      <trkpt lat="44.07648" lon="0.58263">
        <ele>131</ele>
        <time>2025-07-24T12:59:53.289Z</time>
      </trkpt>
      <trkpt lat="44.07648" lon="0.58263">
        <ele>131</ele>
        <time>2025-07-24T12:59:54.289Z</time>
      </trkpt>
      <trkpt lat="44.07648" lon="0.58263">
        <ele>131</ele>
        <time>2025-07-24T12:59:55.289Z</time>
      </trkpt>
      <trkpt lat="44.07648" lon="0.58263">
        <ele>131</ele>
        <time>2025-07-24T12:59:56.289Z</time>
      </trkpt>
      <trkpt lat="44.07648" lon="0.58263">
        <ele>131</ele>
        <time>2025-07-24T12:59:57.289Z</time>
      </trkpt>
      <trkpt lat="44.07648" lon="0.58263">
        <ele>131</ele>
        <time>2025-07-24T12:59:58.289Z</time>
      </trkpt>
      <trkpt lat="44.07648" lon="0.58263">
        <ele>130</ele>
        <time>2025-07-24T12:59:59.289Z</time>
      </trkpt>
      <trkpt lat="44.07648" lon="0.58263">
        <ele>130</ele>
        <time>2025-07-24T13:00:00.289Z</time>
      </trkpt>
      <trkpt lat="44.07648" lon="0.58263">
        <ele>130</ele>
        <time>2025-07-24T13:00:01.289Z</time>
      </trkpt>
      <trkpt lat="44.07648" lon="0.58263">
        <ele>130</ele>
        <time>2025-07-24T13:00:02.289Z</time>
      </trkpt>
      <trkpt lat="44.07648" lon="0.58263">
        <ele>130</ele>
        <time>2025-07-24T13:00:03.289Z</time>
      </trkpt>
      <trkpt lat="44.07648" lon="0.58263">
        <ele>130</ele>
        <time>2025-07-24T13:00:04.289Z</time>
      </trkpt>
      <trkpt lat="44.07648" lon="0.58263">
        <ele>130</ele>
        <time>2025-07-24T13:00:05.289Z</time>
      </trkpt>
      <trkpt lat="44.07648" lon="0.58263">
        <ele>130</ele>
        <time>2025-07-24T13:00:06.289Z</time>
      </trkpt>
      <trkpt lat="44.07648" lon="0.58263">
        <ele>130</ele>
        <time>2025-07-24T13:00:07.289Z</time>
      </trkpt>
      <trkpt lat="44.07648" lon="0.58263">
        <ele>131</ele>
        <time>2025-07-24T13:00:08.289Z</time>
      </trkpt>
      <trkpt lat="44.07648" lon="0.58263">
        <ele>131</ele>
        <time>2025-07-24T13:00:09.289Z</time>
      </trkpt>
      <trkpt lat="44.07648" lon="0.58263">
        <ele>131</ele>
        <time>2025-07-24T13:00:10.289Z</time>
      </trkpt>
      <trkpt lat="44.07648" lon="0.58263">
        <ele>131</ele>
        <time>2025-07-24T13:00:11.289Z</time>
      </trkpt>
      <trkpt lat="44.07648" lon="0.58263">
        <ele>131</ele>
        <time>2025-07-24T13:00:12.289Z</time>
      </trkpt>
      <trkpt lat="44.07648" lon="0.58264">
        <ele>131</ele>
        <time>2025-07-24T13:00:13.289Z</time>
      </trkpt>
      <trkpt lat="44.07648" lon="0.58264">
        <ele>131</ele>
        <time>2025-07-24T13:00:14.289Z</time>
      </trkpt>
      <trkpt lat="44.07648" lon="0.58264">
        <ele>131</ele>
        <time>2025-07-24T13:00:15.289Z</time>
      </trkpt>
      <trkpt lat="44.07648" lon="0.58264">
        <ele>131</ele>
        <time>2025-07-24T13:00:16.289Z</time>
      </trkpt>
      <trkpt lat="44.07648" lon="0.58264">
        <ele>131</ele>
        <time>2025-07-24T13:00:17.289Z</time>
      </trkpt>
      <trkpt lat="44.07648" lon="0.58264">
        <ele>131</ele>
        <time>2025-07-24T13:00:18.289Z</time>
      </trkpt>
      <trkpt lat="44.07648" lon="0.58264">
        <ele>131</ele>
        <time>2025-07-24T13:00:19.289Z</time>
      </trkpt>
      <trkpt lat="44.07648" lon="0.58264">
        <ele>131</ele>
        <time>2025-07-24T13:00:20.289Z</time>
      </trkpt>
      <trkpt lat="44.07648" lon="0.58263">
        <ele>132</ele>
        <time>2025-07-24T13:00:21.289Z</time>
      </trkpt>
      <trkpt lat="44.07648" lon="0.58263">
        <ele>132</ele>
        <time>2025-07-24T13:00:22.289Z</time>
      </trkpt>
      <trkpt lat="44.07648" lon="0.58263">
        <ele>132</ele>
        <time>2025-07-24T13:00:23.289Z</time>
      </trkpt>
      <trkpt lat="44.07648" lon="0.58263">
        <ele>132</ele>
        <time>2025-07-24T13:00:24.289Z</time>
      </trkpt>
      <trkpt lat="44.07648" lon="0.58263">
        <ele>132</ele>
        <time>2025-07-24T13:00:25.289Z</time>
      </trkpt>
      <trkpt lat="44.07648" lon="0.58263">
        <ele>132</ele>
        <time>2025-07-24T13:00:26.289Z</time>
      </trkpt>
      <trkpt lat="44.07648" lon="0.58263">
        <ele>132</ele>
        <time>2025-07-24T13:00:27.289Z</time>
      </trkpt>
      <trkpt lat="44.07648" lon="0.58263">
        <ele>132</ele>
        <time>2025-07-24T13:00:28.289Z</time>
      </trkpt>
      <trkpt lat="44.07649" lon="0.58263">
        <ele>132</ele>
        <time>2025-07-24T13:00:29.289Z</time>
      </trkpt>
      <trkpt lat="44.07649" lon="0.58263">
        <ele>132</ele>
        <time>2025-07-24T13:00:30.289Z</time>
      </trkpt>
      <trkpt lat="44.07649" lon="0.58263">
        <ele>132</ele>
        <time>2025-07-24T13:00:31.289Z</time>
      </trkpt>
      <trkpt lat="44.07649" lon="0.58263">
        <ele>132</ele>
        <time>2025-07-24T13:00:32.289Z</time>
      </trkpt>
      <trkpt lat="44.07649" lon="0.58263">
        <ele>132</ele>
        <time>2025-07-24T13:00:33.289Z</time>
      </trkpt>
      <trkpt lat="44.07649" lon="0.58263">
        <ele>132</ele>
        <time>2025-07-24T13:00:34.289Z</time>
      </trkpt>
      <trkpt lat="44.07649" lon="0.58263">
        <ele>132</ele>
        <time>2025-07-24T13:00:35.289Z</time>
      </trkpt>
      <trkpt lat="44.07649" lon="0.58262">
        <ele>132</ele>
        <time>2025-07-24T13:00:36.289Z</time>
      </trkpt>
      <trkpt lat="44.07649" lon="0.58262">
        <ele>132</ele>
        <time>2025-07-24T13:00:37.289Z</time>
      </trkpt>
      <trkpt lat="44.07649" lon="0.58262">
        <ele>132</ele>
        <time>2025-07-24T13:00:38.289Z</time>
      </trkpt>
      <trkpt lat="44.07649" lon="0.58262">
        <ele>132</ele>
        <time>2025-07-24T13:00:39.289Z</time>
      </trkpt>
      <trkpt lat="44.07649" lon="0.58262">
        <ele>132</ele>
        <time>2025-07-24T13:00:40.289Z</time>
      </trkpt>
      <trkpt lat="44.07649" lon="0.58262">
        <ele>132</ele>
        <time>2025-07-24T13:00:41.289Z</time>
      </trkpt>
      <trkpt lat="44.07649" lon="0.58263">
        <ele>132</ele>
        <time>2025-07-24T13:00:42.289Z</time>
      </trkpt>
      <trkpt lat="44.07649" lon="0.58263">
        <ele>133</ele>
        <time>2025-07-24T13:00:43.289Z</time>
      </trkpt>
      <trkpt lat="44.07649" lon="0.58263">
        <ele>133</ele>
        <time>2025-07-24T13:00:44.289Z</time>
      </trkpt>
      <trkpt lat="44.07649" lon="0.58263">
        <ele>133</ele>
        <time>2025-07-24T13:00:45.289Z</time>
      </trkpt>
      <trkpt lat="44.07649" lon="0.58263">
        <ele>133</ele>
        <time>2025-07-24T13:00:46.289Z</time>
      </trkpt>
      <trkpt lat="44.07649" lon="0.58263">
        <ele>133</ele>
        <time>2025-07-24T13:00:47.289Z</time>
      </trkpt>
      <trkpt lat="44.07649" lon="0.58263">
        <ele>133</ele>
        <time>2025-07-24T13:00:48.289Z</time>
      </trkpt>
      <trkpt lat="44.07649" lon="0.58263">
        <ele>133</ele>
        <time>2025-07-24T13:00:49.289Z</time>
      </trkpt>
      <trkpt lat="44.07649" lon="0.58262">
        <ele>133</ele>
        <time>2025-07-24T13:00:50.289Z</time>
      </trkpt>
      <trkpt lat="44.07649" lon="0.58262">
        <ele>132</ele>
        <time>2025-07-24T13:00:51.289Z</time>
      </trkpt>
      <trkpt lat="44.07649" lon="0.58262">
        <ele>132</ele>
        <time>2025-07-24T13:00:52.289Z</time>
      </trkpt>
      <trkpt lat="44.07649" lon="0.58262">
        <ele>132</ele>
        <time>2025-07-24T13:00:53.289Z</time>
      </trkpt>
      <trkpt lat="44.0765" lon="0.58262">
        <ele>132</ele>
        <time>2025-07-24T13:00:54.289Z</time>
      </trkpt>
      <trkpt lat="44.0765" lon="0.58262">
        <ele>132</ele>
        <time>2025-07-24T13:00:55.289Z</time>
      </trkpt>
      <trkpt lat="44.0765" lon="0.58262">
        <ele>132</ele>
        <time>2025-07-24T13:00:56.289Z</time>
      </trkpt>
      <trkpt lat="44.0765" lon="0.58262">
        <ele>132</ele>
        <time>2025-07-24T13:00:57.289Z</time>
      </trkpt>
      <trkpt lat="44.0765" lon="0.58262">
        <ele>132</ele>
        <time>2025-07-24T13:00:58.289Z</time>
      </trkpt>
      <trkpt lat="44.07649" lon="0.58262">
        <ele>132</ele>
        <time>2025-07-24T13:00:59.289Z</time>
      </trkpt>
      <trkpt lat="44.07649" lon="0.58262">
        <ele>132</ele>
        <time>2025-07-24T13:01:00.289Z</time>
      </trkpt>
      <trkpt lat="44.07649" lon="0.58261">
        <ele>133</ele>
        <time>2025-07-24T13:01:01.289Z</time>
      </trkpt>
      <trkpt lat="44.0765" lon="0.58261">
        <ele>133</ele>
        <time>2025-07-24T13:01:02.289Z</time>
      </trkpt>
      <trkpt lat="44.0765" lon="0.5826">
        <ele>132</ele>
        <time>2025-07-24T13:01:03.289Z</time>
      </trkpt>
      <trkpt lat="44.0765" lon="0.58259">
        <ele>132</ele>
        <time>2025-07-24T13:01:04.289Z</time>
      </trkpt>
      <trkpt lat="44.0765" lon="0.58258">
        <ele>132</ele>
        <time>2025-07-24T13:01:05.289Z</time>
      </trkpt>
      <trkpt lat="44.07649" lon="0.58257">
        <ele>132</ele>
        <time>2025-07-24T13:01:06.289Z</time>
      </trkpt>
      <trkpt lat="44.07649" lon="0.58255">
        <ele>132</ele>
        <time>2025-07-24T13:01:07.289Z</time>
      </trkpt>
      <trkpt lat="44.07649" lon="0.58254">
        <ele>132</ele>
        <time>2025-07-24T13:01:08.289Z</time>
      </trkpt>
      <trkpt lat="44.07649" lon="0.58253">
        <ele>132</ele>
        <time>2025-07-24T13:01:09.289Z</time>
      </trkpt>
      <trkpt lat="44.07649" lon="0.58251">
        <ele>132</ele>
        <time>2025-07-24T13:01:10.289Z</time>
      </trkpt>
      <trkpt lat="44.07649" lon="0.58249">
        <ele>133</ele>
        <time>2025-07-24T13:01:11.289Z</time>
      </trkpt>
      <trkpt lat="44.07649" lon="0.58247">
        <ele>133</ele>
        <time>2025-07-24T13:01:12.289Z</time>
      </trkpt>
      <trkpt lat="44.07649" lon="0.58246">
        <ele>133</ele>
        <time>2025-07-24T13:01:13.289Z</time>
      </trkpt>
      <trkpt lat="44.07649" lon="0.58244">
        <ele>133</ele>
        <time>2025-07-24T13:01:14.289Z</time>
      </trkpt>
      <trkpt lat="44.07648" lon="0.58243">
        <ele>133</ele>
        <time>2025-07-24T13:01:15.289Z</time>
      </trkpt>
      <trkpt lat="44.07648" lon="0.58242">
        <ele>133</ele>
        <time>2025-07-24T13:01:16.289Z</time>
      </trkpt>
      <trkpt lat="44.07648" lon="0.5824">
        <ele>134</ele>
        <time>2025-07-24T13:01:17.289Z</time>
      </trkpt>
      <trkpt lat="44.07648" lon="0.58239">
        <ele>134</ele>
        <time>2025-07-24T13:01:18.289Z</time>
      </trkpt>
      <trkpt lat="44.07648" lon="0.58237">
        <ele>134</ele>
        <time>2025-07-24T13:01:19.289Z</time>
      </trkpt>
      <trkpt lat="44.07648" lon="0.58236">
        <ele>134</ele>
        <time>2025-07-24T13:01:20.289Z</time>
      </trkpt>
      <trkpt lat="44.07648" lon="0.58234">
        <ele>134</ele>
        <time>2025-07-24T13:01:21.289Z</time>
      </trkpt>
      <trkpt lat="44.07648" lon="0.58233">
        <ele>134</ele>
        <time>2025-07-24T13:01:22.289Z</time>
      </trkpt>
      <trkpt lat="44.07648" lon="0.58232">
        <ele>134</ele>
        <time>2025-07-24T13:01:23.289Z</time>
      </trkpt>
      <trkpt lat="44.07648" lon="0.5823">
        <ele>134</ele>
        <time>2025-07-24T13:01:24.289Z</time>
      </trkpt>
      <trkpt lat="44.07648" lon="0.58229">
        <ele>133</ele>
        <time>2025-07-24T13:01:25.289Z</time>
      </trkpt>
      <trkpt lat="44.07648" lon="0.58227">
        <ele>134</ele>
        <time>2025-07-24T13:01:26.289Z</time>
      </trkpt>
      <trkpt lat="44.07648" lon="0.58225">
        <ele>134</ele>
        <time>2025-07-24T13:01:27.289Z</time>
      </trkpt>
      <trkpt lat="44.07649" lon="0.58224">
        <ele>134</ele>
        <time>2025-07-24T13:01:28.289Z</time>
      </trkpt>
      <trkpt lat="44.07649" lon="0.58222">
        <ele>134</ele>
        <time>2025-07-24T13:01:29.289Z</time>
      </trkpt>
      <trkpt lat="44.07649" lon="0.5822">
        <ele>134</ele>
        <time>2025-07-24T13:01:30.289Z</time>
      </trkpt>
      <trkpt lat="44.07649" lon="0.58219">
        <ele>134</ele>
        <time>2025-07-24T13:01:31.289Z</time>
      </trkpt>
      <trkpt lat="44.07649" lon="0.58218">
        <ele>135</ele>
        <time>2025-07-24T13:01:32.289Z</time>
      </trkpt>
      <trkpt lat="44.07649" lon="0.58216">
        <ele>135</ele>
        <time>2025-07-24T13:01:33.289Z</time>
      </trkpt>
      <trkpt lat="44.07649" lon="0.58214">
        <ele>135</ele>
        <time>2025-07-24T13:01:34.289Z</time>
      </trkpt>
      <trkpt lat="44.07649" lon="0.58212">
        <ele>135</ele>
        <time>2025-07-24T13:01:35.289Z</time>
      </trkpt>
      <trkpt lat="44.07649" lon="0.5821">
        <ele>135</ele>
        <time>2025-07-24T13:01:36.289Z</time>
      </trkpt>
      <trkpt lat="44.07649" lon="0.58209">
        <ele>136</ele>
        <time>2025-07-24T13:01:37.289Z</time>
      </trkpt>
      <trkpt lat="44.07649" lon="0.58207">
        <ele>136</ele>
        <time>2025-07-24T13:01:38.289Z</time>
      </trkpt>
      <trkpt lat="44.07649" lon="0.58206">
        <ele>137</ele>
        <time>2025-07-24T13:01:39.289Z</time>
      </trkpt>
      <trkpt lat="44.07649" lon="0.58204">
        <ele>137</ele>
        <time>2025-07-24T13:01:40.289Z</time>
      </trkpt>
      <trkpt lat="44.07649" lon="0.58203">
        <ele>137</ele>
        <time>2025-07-24T13:01:41.289Z</time>
      </trkpt>
      <trkpt lat="44.07649" lon="0.58201">
        <ele>137</ele>
        <time>2025-07-24T13:01:42.289Z</time>
      </trkpt>
      <trkpt lat="44.0765" lon="0.582">
        <ele>138</ele>
        <time>2025-07-24T13:01:43.289Z</time>
      </trkpt>
      <trkpt lat="44.0765" lon="0.58198">
        <ele>137</ele>
        <time>2025-07-24T13:01:44.289Z</time>
      </trkpt>
      <trkpt lat="44.0765" lon="0.58196">
        <ele>137</ele>
        <time>2025-07-24T13:01:45.289Z</time>
      </trkpt>
      <trkpt lat="44.07651" lon="0.58194">
        <ele>137</ele>
        <time>2025-07-24T13:01:46.289Z</time>
      </trkpt>
      <trkpt lat="44.07651" lon="0.58192">
        <ele>137</ele>
        <time>2025-07-24T13:01:47.289Z</time>
      </trkpt>
      <trkpt lat="44.07651" lon="0.58191">
        <ele>137</ele>
        <time>2025-07-24T13:01:48.289Z</time>
      </trkpt>
      <trkpt lat="44.07651" lon="0.58189">
        <ele>137</ele>
        <time>2025-07-24T13:01:49.290Z</time>
      </trkpt>
      <trkpt lat="44.07651" lon="0.58188">
        <ele>137</ele>
        <time>2025-07-24T13:01:50.289Z</time>
      </trkpt>
      <trkpt lat="44.07651" lon="0.58186">
        <ele>138</ele>
        <time>2025-07-24T13:01:51.289Z</time>
      </trkpt>
      <trkpt lat="44.07651" lon="0.58185">
        <ele>138</ele>
        <time>2025-07-24T13:01:52.289Z</time>
      </trkpt>
      <trkpt lat="44.07651" lon="0.58183">
        <ele>138</ele>
        <time>2025-07-24T13:01:53.289Z</time>
      </trkpt>
      <trkpt lat="44.07651" lon="0.58181">
        <ele>137</ele>
        <time>2025-07-24T13:01:54.289Z</time>
      </trkpt>
      <trkpt lat="44.07652" lon="0.58179">
        <ele>137</ele>
        <time>2025-07-24T13:01:55.289Z</time>
      </trkpt>
      <trkpt lat="44.07652" lon="0.58178">
        <ele>136</ele>
        <time>2025-07-24T13:01:56.289Z</time>
      </trkpt>
      <trkpt lat="44.07652" lon="0.58177">
        <ele>136</ele>
        <time>2025-07-24T13:01:57.289Z</time>
      </trkpt>
      <trkpt lat="44.07652" lon="0.58175">
        <ele>136</ele>
        <time>2025-07-24T13:01:58.289Z</time>
      </trkpt>
      <trkpt lat="44.07652" lon="0.58174">
        <ele>137</ele>
        <time>2025-07-24T13:01:59.289Z</time>
      </trkpt>
      <trkpt lat="44.07652" lon="0.58172">
        <ele>137</ele>
        <time>2025-07-24T13:02:00.289Z</time>
      </trkpt>
      <trkpt lat="44.07652" lon="0.5817">
        <ele>137</ele>
        <time>2025-07-24T13:02:01.289Z</time>
      </trkpt>
      <trkpt lat="44.07652" lon="0.58169">
        <ele>138</ele>
        <time>2025-07-24T13:02:02.289Z</time>
      </trkpt>
      <trkpt lat="44.07652" lon="0.58167">
        <ele>138</ele>
        <time>2025-07-24T13:02:03.289Z</time>
      </trkpt>
      <trkpt lat="44.07653" lon="0.58166">
        <ele>138</ele>
        <time>2025-07-24T13:02:04.289Z</time>
      </trkpt>
      <trkpt lat="44.07653" lon="0.58165">
        <ele>138</ele>
        <time>2025-07-24T13:02:05.289Z</time>
      </trkpt>
      <trkpt lat="44.07653" lon="0.58163">
        <ele>138</ele>
        <time>2025-07-24T13:02:06.289Z</time>
      </trkpt>
      <trkpt lat="44.07654" lon="0.58162">
        <ele>137</ele>
        <time>2025-07-24T13:02:07.289Z</time>
      </trkpt>
      <trkpt lat="44.07654" lon="0.5816">
        <ele>137</ele>
        <time>2025-07-24T13:02:08.289Z</time>
      </trkpt>
      <trkpt lat="44.07654" lon="0.58158">
        <ele>137</ele>
        <time>2025-07-24T13:02:09.289Z</time>
      </trkpt>
      <trkpt lat="44.07655" lon="0.58157">
        <ele>138</ele>
        <time>2025-07-24T13:02:10.289Z</time>
      </trkpt>
      <trkpt lat="44.07655" lon="0.58156">
        <ele>138</ele>
        <time>2025-07-24T13:02:11.289Z</time>
      </trkpt>
      <trkpt lat="44.07655" lon="0.58154">
        <ele>138</ele>
        <time>2025-07-24T13:02:12.289Z</time>
      </trkpt>
      <trkpt lat="44.07656" lon="0.58153">
        <ele>138</ele>
        <time>2025-07-24T13:02:13.289Z</time>
      </trkpt>
      <trkpt lat="44.07656" lon="0.58151">
        <ele>138</ele>
        <time>2025-07-24T13:02:14.289Z</time>
      </trkpt>
      <trkpt lat="44.07656" lon="0.5815">
        <ele>138</ele>
        <time>2025-07-24T13:02:15.289Z</time>
      </trkpt>
      <trkpt lat="44.07657" lon="0.58148">
        <ele>139</ele>
        <time>2025-07-24T13:02:16.289Z</time>
      </trkpt>
      <trkpt lat="44.07657" lon="0.58146">
        <ele>139</ele>
        <time>2025-07-24T13:02:17.289Z</time>
      </trkpt>
      <trkpt lat="44.07657" lon="0.58145">
        <ele>139</ele>
        <time>2025-07-24T13:02:18.289Z</time>
      </trkpt>
      <trkpt lat="44.07657" lon="0.58143">
        <ele>140</ele>
        <time>2025-07-24T13:02:19.289Z</time>
      </trkpt>
      <trkpt lat="44.07657" lon="0.58141">
        <ele>140</ele>
        <time>2025-07-24T13:02:20.289Z</time>
      </trkpt>
      <trkpt lat="44.07657" lon="0.5814">
        <ele>140</ele>
        <time>2025-07-24T13:02:21.289Z</time>
      </trkpt>
      <trkpt lat="44.07657" lon="0.58139">
        <ele>140</ele>
        <time>2025-07-24T13:02:22.289Z</time>
      </trkpt>
      <trkpt lat="44.07657" lon="0.58137">
        <ele>139</ele>
        <time>2025-07-24T13:02:23.289Z</time>
      </trkpt>
      <trkpt lat="44.07658" lon="0.58135">
        <ele>139</ele>
        <time>2025-07-24T13:02:24.289Z</time>
      </trkpt>
      <trkpt lat="44.07658" lon="0.58133">
        <ele>139</ele>
        <time>2025-07-24T13:02:25.289Z</time>
      </trkpt>
      <trkpt lat="44.07659" lon="0.58131">
        <ele>139</ele>
        <time>2025-07-24T13:02:26.289Z</time>
      </trkpt>
      <trkpt lat="44.07659" lon="0.5813">
        <ele>138</ele>
        <time>2025-07-24T13:02:27.289Z</time>
      </trkpt>
      <trkpt lat="44.07659" lon="0.58128">
        <ele>138</ele>
        <time>2025-07-24T13:02:28.289Z</time>
      </trkpt>
      <trkpt lat="44.07659" lon="0.58127">
        <ele>138</ele>
        <time>2025-07-24T13:02:29.289Z</time>
      </trkpt>
      <trkpt lat="44.07659" lon="0.58125">
        <ele>138</ele>
        <time>2025-07-24T13:02:30.289Z</time>
      </trkpt>
      <trkpt lat="44.0766" lon="0.58124">
        <ele>138</ele>
        <time>2025-07-24T13:02:31.289Z</time>
      </trkpt>
      <trkpt lat="44.0766" lon="0.58122">
        <ele>138</ele>
        <time>2025-07-24T13:02:32.289Z</time>
      </trkpt>
      <trkpt lat="44.0766" lon="0.58121">
        <ele>138</ele>
        <time>2025-07-24T13:02:33.289Z</time>
      </trkpt>
      <trkpt lat="44.0766" lon="0.58119">
        <ele>138</ele>
        <time>2025-07-24T13:02:34.289Z</time>
      </trkpt>
      <trkpt lat="44.0766" lon="0.58117">
        <ele>138</ele>
        <time>2025-07-24T13:02:35.289Z</time>
      </trkpt>
      <trkpt lat="44.07661" lon="0.58115">
        <ele>137</ele>
        <time>2025-07-24T13:02:36.289Z</time>
      </trkpt>
      <trkpt lat="44.07661" lon="0.58114">
        <ele>137</ele>
        <time>2025-07-24T13:02:37.289Z</time>
      </trkpt>
      <trkpt lat="44.07661" lon="0.58112">
        <ele>137</ele>
        <time>2025-07-24T13:02:38.289Z</time>
      </trkpt>
      <trkpt lat="44.07661" lon="0.58111">
        <ele>137</ele>
        <time>2025-07-24T13:02:39.289Z</time>
      </trkpt>
      <trkpt lat="44.07661" lon="0.5811">
        <ele>137</ele>
        <time>2025-07-24T13:02:40.289Z</time>
      </trkpt>
      <trkpt lat="44.07662" lon="0.58109">
        <ele>137</ele>
        <time>2025-07-24T13:02:41.289Z</time>
      </trkpt>
      <trkpt lat="44.07662" lon="0.58107">
        <ele>137</ele>
        <time>2025-07-24T13:02:42.289Z</time>
      </trkpt>
      <trkpt lat="44.07662" lon="0.58106">
        <ele>137</ele>
        <time>2025-07-24T13:02:43.289Z</time>
      </trkpt>
      <trkpt lat="44.07662" lon="0.58104">
        <ele>137</ele>
        <time>2025-07-24T13:02:44.290Z</time>
      </trkpt>
      <trkpt lat="44.07662" lon="0.58103">
        <ele>137</ele>
        <time>2025-07-24T13:02:45.289Z</time>
      </trkpt>
      <trkpt lat="44.07663" lon="0.58101">
        <ele>137</ele>
        <time>2025-07-24T13:02:46.289Z</time>
      </trkpt>
      <trkpt lat="44.07663" lon="0.58099">
        <ele>137</ele>
        <time>2025-07-24T13:02:47.289Z</time>
      </trkpt>
      <trkpt lat="44.07663" lon="0.58097">
        <ele>137</ele>
        <time>2025-07-24T13:02:48.289Z</time>
      </trkpt>
      <trkpt lat="44.07663" lon="0.58096">
        <ele>137</ele>
        <time>2025-07-24T13:02:49.289Z</time>
      </trkpt>
      <trkpt lat="44.07664" lon="0.58094">
        <ele>137</ele>
        <time>2025-07-24T13:02:50.289Z</time>
      </trkpt>
      <trkpt lat="44.07664" lon="0.58093">
        <ele>137</ele>
        <time>2025-07-24T13:02:51.289Z</time>
      </trkpt>
      <trkpt lat="44.07664" lon="0.58091">
        <ele>137</ele>
        <time>2025-07-24T13:02:52.289Z</time>
      </trkpt>
      <trkpt lat="44.07664" lon="0.5809">
        <ele>137</ele>
        <time>2025-07-24T13:02:53.289Z</time>
      </trkpt>
      <trkpt lat="44.07664" lon="0.58088">
        <ele>137</ele>
        <time>2025-07-24T13:02:54.289Z</time>
      </trkpt>
      <trkpt lat="44.07664" lon="0.58086">
        <ele>137</ele>
        <time>2025-07-24T13:02:55.289Z</time>
      </trkpt>
      <trkpt lat="44.07664" lon="0.58085">
        <ele>137</ele>
        <time>2025-07-24T13:02:56.289Z</time>
      </trkpt>
      <trkpt lat="44.07664" lon="0.58083">
        <ele>137</ele>
        <time>2025-07-24T13:02:57.289Z</time>
      </trkpt>
      <trkpt lat="44.07665" lon="0.58081">
        <ele>136</ele>
        <time>2025-07-24T13:02:58.289Z</time>
      </trkpt>
      <trkpt lat="44.07665" lon="0.58079">
        <ele>136</ele>
        <time>2025-07-24T13:02:59.289Z</time>
      </trkpt>
      <trkpt lat="44.07666" lon="0.58078">
        <ele>136</ele>
        <time>2025-07-24T13:03:00.289Z</time>
      </trkpt>
      <trkpt lat="44.07666" lon="0.58077">
        <ele>136</ele>
        <time>2025-07-24T13:03:01.289Z</time>
      </trkpt>
      <trkpt lat="44.07666" lon="0.58075">
        <ele>136</ele>
        <time>2025-07-24T13:03:02.289Z</time>
      </trkpt>
      <trkpt lat="44.07666" lon="0.58074">
        <ele>136</ele>
        <time>2025-07-24T13:03:03.289Z</time>
      </trkpt>
      <trkpt lat="44.07667" lon="0.58072">
        <ele>136</ele>
        <time>2025-07-24T13:03:04.289Z</time>
      </trkpt>
      <trkpt lat="44.07667" lon="0.58071">
        <ele>136</ele>
        <time>2025-07-24T13:03:05.289Z</time>
      </trkpt>
      <trkpt lat="44.07667" lon="0.58069">
        <ele>136</ele>
        <time>2025-07-24T13:03:06.289Z</time>
      </trkpt>
      <trkpt lat="44.07667" lon="0.58067">
        <ele>135</ele>
        <time>2025-07-24T13:03:07.289Z</time>
      </trkpt>
      <trkpt lat="44.07667" lon="0.58065">
        <ele>136</ele>
        <time>2025-07-24T13:03:08.289Z</time>
      </trkpt>
      <trkpt lat="44.07667" lon="0.58064">
        <ele>136</ele>
        <time>2025-07-24T13:03:09.289Z</time>
      </trkpt>
      <trkpt lat="44.07667" lon="0.58063">
        <ele>136</ele>
        <time>2025-07-24T13:03:10.289Z</time>
      </trkpt>
      <trkpt lat="44.07667" lon="0.58061">
        <ele>136</ele>
        <time>2025-07-24T13:03:11.289Z</time>
      </trkpt>
      <trkpt lat="44.07667" lon="0.5806">
        <ele>136</ele>
        <time>2025-07-24T13:03:12.289Z</time>
      </trkpt>
      <trkpt lat="44.07667" lon="0.58058">
        <ele>135</ele>
        <time>2025-07-24T13:03:13.289Z</time>
      </trkpt>
      <trkpt lat="44.07668" lon="0.58057">
        <ele>135</ele>
        <time>2025-07-24T13:03:14.289Z</time>
      </trkpt>
      <trkpt lat="44.07668" lon="0.58055">
        <ele>135</ele>
        <time>2025-07-24T13:03:15.289Z</time>
      </trkpt>
      <trkpt lat="44.07668" lon="0.58053">
        <ele>135</ele>
        <time>2025-07-24T13:03:16.289Z</time>
      </trkpt>
      <trkpt lat="44.07668" lon="0.58051">
        <ele>134</ele>
        <time>2025-07-24T13:03:17.289Z</time>
      </trkpt>
      <trkpt lat="44.07669" lon="0.5805">
        <ele>134</ele>
        <time>2025-07-24T13:03:18.289Z</time>
      </trkpt>
      <trkpt lat="44.07669" lon="0.58048">
        <ele>134</ele>
        <time>2025-07-24T13:03:19.289Z</time>
      </trkpt>
      <trkpt lat="44.07669" lon="0.58046">
        <ele>134</ele>
        <time>2025-07-24T13:03:20.289Z</time>
      </trkpt>
      <trkpt lat="44.07669" lon="0.58045">
        <ele>134</ele>
        <time>2025-07-24T13:03:21.289Z</time>
      </trkpt>
      <trkpt lat="44.07669" lon="0.58043">
        <ele>134</ele>
        <time>2025-07-24T13:03:22.289Z</time>
      </trkpt>
      <trkpt lat="44.07669" lon="0.58042">
        <ele>135</ele>
        <time>2025-07-24T13:03:23.289Z</time>
      </trkpt>
      <trkpt lat="44.07669" lon="0.5804">
        <ele>135</ele>
        <time>2025-07-24T13:03:24.289Z</time>
      </trkpt>
      <trkpt lat="44.07669" lon="0.58039">
        <ele>135</ele>
        <time>2025-07-24T13:03:25.289Z</time>
      </trkpt>
      <trkpt lat="44.07669" lon="0.58037">
        <ele>135</ele>
        <time>2025-07-24T13:03:26.289Z</time>
      </trkpt>
      <trkpt lat="44.07669" lon="0.58035">
        <ele>135</ele>
        <time>2025-07-24T13:03:27.289Z</time>
      </trkpt>
      <trkpt lat="44.07669" lon="0.58034">
        <ele>135</ele>
        <time>2025-07-24T13:03:28.289Z</time>
      </trkpt>
      <trkpt lat="44.07669" lon="0.58033">
        <ele>135</ele>
        <time>2025-07-24T13:03:29.289Z</time>
      </trkpt>
      <trkpt lat="44.07669" lon="0.58031">
        <ele>135</ele>
        <time>2025-07-24T13:03:30.289Z</time>
      </trkpt>
      <trkpt lat="44.07669" lon="0.5803">
        <ele>136</ele>
        <time>2025-07-24T13:03:31.289Z</time>
      </trkpt>
      <trkpt lat="44.07669" lon="0.58028">
        <ele>136</ele>
        <time>2025-07-24T13:03:32.289Z</time>
      </trkpt>
      <trkpt lat="44.07669" lon="0.58027">
        <ele>135</ele>
        <time>2025-07-24T13:03:33.289Z</time>
      </trkpt>
      <trkpt lat="44.07669" lon="0.58025">
        <ele>135</ele>
        <time>2025-07-24T13:03:34.289Z</time>
      </trkpt>
      <trkpt lat="44.07669" lon="0.58023">
        <ele>135</ele>
        <time>2025-07-24T13:03:35.289Z</time>
      </trkpt>
      <trkpt lat="44.07669" lon="0.58022">
        <ele>135</ele>
        <time>2025-07-24T13:03:36.290Z</time>
      </trkpt>
      <trkpt lat="44.07668" lon="0.5802">
        <ele>135</ele>
        <time>2025-07-24T13:03:37.289Z</time>
      </trkpt>
      <trkpt lat="44.07668" lon="0.58019">
        <ele>135</ele>
        <time>2025-07-24T13:03:38.289Z</time>
      </trkpt>
      <trkpt lat="44.07668" lon="0.58017">
        <ele>135</ele>
        <time>2025-07-24T13:03:39.289Z</time>
      </trkpt>
      <trkpt lat="44.07668" lon="0.58016">
        <ele>134</ele>
        <time>2025-07-24T13:03:40.289Z</time>
      </trkpt>
      <trkpt lat="44.07668" lon="0.58014">
        <ele>134</ele>
        <time>2025-07-24T13:03:41.289Z</time>
      </trkpt>
      <trkpt lat="44.07668" lon="0.58013">
        <ele>134</ele>
        <time>2025-07-24T13:03:42.289Z</time>
      </trkpt>
      <trkpt lat="44.07668" lon="0.58011">
        <ele>134</ele>
        <time>2025-07-24T13:03:43.289Z</time>
      </trkpt>
      <trkpt lat="44.07668" lon="0.58009">
        <ele>134</ele>
        <time>2025-07-24T13:03:44.289Z</time>
      </trkpt>
      <trkpt lat="44.07667" lon="0.58008">
        <ele>135</ele>
        <time>2025-07-24T13:03:45.289Z</time>
      </trkpt>
      <trkpt lat="44.07667" lon="0.58006">
        <ele>135</ele>
        <time>2025-07-24T13:03:46.289Z</time>
      </trkpt>
      <trkpt lat="44.07667" lon="0.58005">
        <ele>135</ele>
        <time>2025-07-24T13:03:47.289Z</time>
      </trkpt>
      <trkpt lat="44.07667" lon="0.58004">
        <ele>135</ele>
        <time>2025-07-24T13:03:48.289Z</time>
      </trkpt>
      <trkpt lat="44.07667" lon="0.58002">
        <ele>135</ele>
        <time>2025-07-24T13:03:49.289Z</time>
      </trkpt>
      <trkpt lat="44.07667" lon="0.58">
        <ele>134</ele>
        <time>2025-07-24T13:03:50.289Z</time>
      </trkpt>
      <trkpt lat="44.07666" lon="0.57999">
        <ele>134</ele>
        <time>2025-07-24T13:03:51.289Z</time>
      </trkpt>
      <trkpt lat="44.07666" lon="0.57997">
        <ele>134</ele>
        <time>2025-07-24T13:03:52.289Z</time>
      </trkpt>
      <trkpt lat="44.07665" lon="0.57995">
        <ele>135</ele>
        <time>2025-07-24T13:03:53.289Z</time>
      </trkpt>
      <trkpt lat="44.07665" lon="0.57994">
        <ele>135</ele>
        <time>2025-07-24T13:03:54.289Z</time>
      </trkpt>
      <trkpt lat="44.07665" lon="0.57992">
        <ele>135</ele>
        <time>2025-07-24T13:03:55.289Z</time>
      </trkpt>
      <trkpt lat="44.07664" lon="0.57991">
        <ele>135</ele>
        <time>2025-07-24T13:03:56.289Z</time>
      </trkpt>
      <trkpt lat="44.07664" lon="0.57989">
        <ele>135</ele>
        <time>2025-07-24T13:03:57.289Z</time>
      </trkpt>
      <trkpt lat="44.07664" lon="0.57988">
        <ele>135</ele>
        <time>2025-07-24T13:03:58.289Z</time>
      </trkpt>
      <trkpt lat="44.07664" lon="0.57986">
        <ele>135</ele>
        <time>2025-07-24T13:03:59.289Z</time>
      </trkpt>
      <trkpt lat="44.07664" lon="0.57985">
        <ele>134</ele>
        <time>2025-07-24T13:04:00.289Z</time>
      </trkpt>
      <trkpt lat="44.07664" lon="0.57983">
        <ele>134</ele>
        <time>2025-07-24T13:04:01.289Z</time>
      </trkpt>
      <trkpt lat="44.07664" lon="0.57982">
        <ele>134</ele>
        <time>2025-07-24T13:04:02.289Z</time>
      </trkpt>
      <trkpt lat="44.07663" lon="0.5798">
        <ele>134</ele>
        <time>2025-07-24T13:04:03.289Z</time>
      </trkpt>
      <trkpt lat="44.07663" lon="0.57979">
        <ele>134</ele>
        <time>2025-07-24T13:04:04.289Z</time>
      </trkpt>
      <trkpt lat="44.07663" lon="0.57977">
        <ele>135</ele>
        <time>2025-07-24T13:04:05.289Z</time>
      </trkpt>
      <trkpt lat="44.07663" lon="0.57976">
        <ele>135</ele>
        <time>2025-07-24T13:04:06.289Z</time>
      </trkpt>
      <trkpt lat="44.07663" lon="0.57975">
        <ele>135</ele>
        <time>2025-07-24T13:04:07.289Z</time>
      </trkpt>
      <trkpt lat="44.07663" lon="0.57974">
        <ele>135</ele>
        <time>2025-07-24T13:04:08.289Z</time>
      </trkpt>
      <trkpt lat="44.07662" lon="0.57972">
        <ele>135</ele>
        <time>2025-07-24T13:04:09.289Z</time>
      </trkpt>
      <trkpt lat="44.07662" lon="0.57971">
        <ele>135</ele>
        <time>2025-07-24T13:04:10.289Z</time>
      </trkpt>
      <trkpt lat="44.07662" lon="0.5797">
        <ele>135</ele>
        <time>2025-07-24T13:04:11.289Z</time>
      </trkpt>
      <trkpt lat="44.07662" lon="0.57968">
        <ele>135</ele>
        <time>2025-07-24T13:04:12.289Z</time>
      </trkpt>
      <trkpt lat="44.07662" lon="0.57967">
        <ele>134</ele>
        <time>2025-07-24T13:04:13.289Z</time>
      </trkpt>
      <trkpt lat="44.07662" lon="0.57966">
        <ele>133</ele>
        <time>2025-07-24T13:04:14.289Z</time>
      </trkpt>
      <trkpt lat="44.07662" lon="0.57964">
        <ele>133</ele>
        <time>2025-07-24T13:04:15.289Z</time>
      </trkpt>
      <trkpt lat="44.07661" lon="0.57963">
        <ele>133</ele>
        <time>2025-07-24T13:04:16.289Z</time>
      </trkpt>
      <trkpt lat="44.07661" lon="0.57961">
        <ele>133</ele>
        <time>2025-07-24T13:04:17.289Z</time>
      </trkpt>
      <trkpt lat="44.07661" lon="0.5796">
        <ele>133</ele>
        <time>2025-07-24T13:04:18.289Z</time>
      </trkpt>
      <trkpt lat="44.07661" lon="0.57959">
        <ele>134</ele>
        <time>2025-07-24T13:04:19.289Z</time>
      </trkpt>
      <trkpt lat="44.0766" lon="0.57958">
        <ele>134</ele>
        <time>2025-07-24T13:04:20.289Z</time>
      </trkpt>
      <trkpt lat="44.0766" lon="0.57956">
        <ele>134</ele>
        <time>2025-07-24T13:04:21.289Z</time>
      </trkpt>
      <trkpt lat="44.0766" lon="0.57955">
        <ele>134</ele>
        <time>2025-07-24T13:04:22.289Z</time>
      </trkpt>
      <trkpt lat="44.0766" lon="0.57953">
        <ele>134</ele>
        <time>2025-07-24T13:04:23.289Z</time>
      </trkpt>
      <trkpt lat="44.0766" lon="0.57951">
        <ele>133</ele>
        <time>2025-07-24T13:04:24.289Z</time>
      </trkpt>
      <trkpt lat="44.0766" lon="0.5795">
        <ele>133</ele>
        <time>2025-07-24T13:04:25.289Z</time>
      </trkpt>
      <trkpt lat="44.0766" lon="0.57949">
        <ele>133</ele>
        <time>2025-07-24T13:04:26.289Z</time>
      </trkpt>
      <trkpt lat="44.07659" lon="0.57947">
        <ele>133</ele>
        <time>2025-07-24T13:04:27.289Z</time>
      </trkpt>
      <trkpt lat="44.07659" lon="0.57946">
        <ele>133</ele>
        <time>2025-07-24T13:04:28.289Z</time>
      </trkpt>
      <trkpt lat="44.07659" lon="0.57945">
        <ele>133</ele>
        <time>2025-07-24T13:04:29.289Z</time>
      </trkpt>
      <trkpt lat="44.07659" lon="0.57944">
        <ele>133</ele>
        <time>2025-07-24T13:04:30.289Z</time>
      </trkpt>
      <trkpt lat="44.07659" lon="0.57942">
        <ele>132</ele>
        <time>2025-07-24T13:04:31.289Z</time>
      </trkpt>
      <trkpt lat="44.07658" lon="0.57941">
        <ele>132</ele>
        <time>2025-07-24T13:04:32.289Z</time>
      </trkpt>
      <trkpt lat="44.07658" lon="0.5794">
        <ele>132</ele>
        <time>2025-07-24T13:04:33.289Z</time>
      </trkpt>
      <trkpt lat="44.07657" lon="0.57939">
        <ele>132</ele>
        <time>2025-07-24T13:04:34.289Z</time>
      </trkpt>
      <trkpt lat="44.07657" lon="0.57937">
        <ele>132</ele>
        <time>2025-07-24T13:04:35.289Z</time>
      </trkpt>
      <trkpt lat="44.07657" lon="0.57936">
        <ele>132</ele>
        <time>2025-07-24T13:04:36.289Z</time>
      </trkpt>
      <trkpt lat="44.07657" lon="0.57935">
        <ele>132</ele>
        <time>2025-07-24T13:04:37.289Z</time>
      </trkpt>
      <trkpt lat="44.07656" lon="0.57934">
        <ele>132</ele>
        <time>2025-07-24T13:04:38.289Z</time>
      </trkpt>
      <trkpt lat="44.07656" lon="0.57933">
        <ele>132</ele>
        <time>2025-07-24T13:04:39.289Z</time>
      </trkpt>
      <trkpt lat="44.07656" lon="0.57932">
        <ele>132</ele>
        <time>2025-07-24T13:04:40.289Z</time>
      </trkpt>
      <trkpt lat="44.07656" lon="0.5793">
        <ele>132</ele>
        <time>2025-07-24T13:04:41.289Z</time>
      </trkpt>
      <trkpt lat="44.07656" lon="0.57929">
        <ele>133</ele>
        <time>2025-07-24T13:04:42.289Z</time>
      </trkpt>
      <trkpt lat="44.07655" lon="0.57927">
        <ele>133</ele>
        <time>2025-07-24T13:04:43.289Z</time>
      </trkpt>
      <trkpt lat="44.07655" lon="0.57926">
        <ele>133</ele>
        <time>2025-07-24T13:04:44.289Z</time>
      </trkpt>
      <trkpt lat="44.07654" lon="0.57924">
        <ele>133</ele>
        <time>2025-07-24T13:04:45.289Z</time>
      </trkpt>
      <trkpt lat="44.07654" lon="0.57923">
        <ele>134</ele>
        <time>2025-07-24T13:04:46.289Z</time>
      </trkpt>
      <trkpt lat="44.07654" lon="0.57922">
        <ele>134</ele>
        <time>2025-07-24T13:04:47.289Z</time>
      </trkpt>
      <trkpt lat="44.07654" lon="0.57921">
        <ele>134</ele>
        <time>2025-07-24T13:04:48.289Z</time>
      </trkpt>
      <trkpt lat="44.07654" lon="0.57919">
        <ele>134</ele>
        <time>2025-07-24T13:04:49.289Z</time>
      </trkpt>
      <trkpt lat="44.07654" lon="0.57917">
        <ele>134</ele>
        <time>2025-07-24T13:04:50.289Z</time>
      </trkpt>
      <trkpt lat="44.07654" lon="0.57916">
        <ele>134</ele>
        <time>2025-07-24T13:04:51.289Z</time>
      </trkpt>
      <trkpt lat="44.07654" lon="0.57914">
        <ele>134</ele>
        <time>2025-07-24T13:04:52.289Z</time>
      </trkpt>
      <trkpt lat="44.07653" lon="0.57913">
        <ele>133</ele>
        <time>2025-07-24T13:04:53.289Z</time>
      </trkpt>
      <trkpt lat="44.07653" lon="0.57911">
        <ele>134</ele>
        <time>2025-07-24T13:04:54.289Z</time>
      </trkpt>
      <trkpt lat="44.07653" lon="0.5791">
        <ele>134</ele>
        <time>2025-07-24T13:04:55.289Z</time>
      </trkpt>
      <trkpt lat="44.07652" lon="0.57909">
        <ele>134</ele>
        <time>2025-07-24T13:04:56.289Z</time>
      </trkpt>
      <trkpt lat="44.07652" lon="0.57907">
        <ele>134</ele>
        <time>2025-07-24T13:04:57.289Z</time>
      </trkpt>
      <trkpt lat="44.07652" lon="0.57906">
        <ele>134</ele>
        <time>2025-07-24T13:04:58.289Z</time>
      </trkpt>
      <trkpt lat="44.07652" lon="0.57904">
        <ele>134</ele>
        <time>2025-07-24T13:04:59.289Z</time>
      </trkpt>
      <trkpt lat="44.07652" lon="0.57903">
        <ele>134</ele>
        <time>2025-07-24T13:05:00.289Z</time>
      </trkpt>
      <trkpt lat="44.07652" lon="0.57901">
        <ele>133</ele>
        <time>2025-07-24T13:05:01.289Z</time>
      </trkpt>
      <trkpt lat="44.07652" lon="0.579">
        <ele>133</ele>
        <time>2025-07-24T13:05:02.289Z</time>
      </trkpt>
      <trkpt lat="44.07651" lon="0.57898">
        <ele>133</ele>
        <time>2025-07-24T13:05:03.289Z</time>
      </trkpt>
      <trkpt lat="44.07651" lon="0.57897">
        <ele>133</ele>
        <time>2025-07-24T13:05:04.289Z</time>
      </trkpt>
      <trkpt lat="44.07651" lon="0.57895">
        <ele>133</ele>
        <time>2025-07-24T13:05:05.289Z</time>
      </trkpt>
      <trkpt lat="44.07651" lon="0.57894">
        <ele>133</ele>
        <time>2025-07-24T13:05:06.289Z</time>
      </trkpt>
      <trkpt lat="44.0765" lon="0.57893">
        <ele>133</ele>
        <time>2025-07-24T13:05:07.289Z</time>
      </trkpt>
      <trkpt lat="44.0765" lon="0.57892">
        <ele>133</ele>
        <time>2025-07-24T13:05:08.289Z</time>
      </trkpt>
      <trkpt lat="44.0765" lon="0.57891">
        <ele>132</ele>
        <time>2025-07-24T13:05:09.289Z</time>
      </trkpt>
      <trkpt lat="44.0765" lon="0.5789">
        <ele>132</ele>
        <time>2025-07-24T13:05:10.289Z</time>
      </trkpt>
      <trkpt lat="44.07649" lon="0.57888">
        <ele>133</ele>
        <time>2025-07-24T13:05:11.289Z</time>
      </trkpt>
      <trkpt lat="44.07649" lon="0.57887">
        <ele>133</ele>
        <time>2025-07-24T13:05:12.289Z</time>
      </trkpt>
      <trkpt lat="44.07649" lon="0.57886">
        <ele>133</ele>
        <time>2025-07-24T13:05:13.289Z</time>
      </trkpt>
      <trkpt lat="44.07649" lon="0.57885">
        <ele>133</ele>
        <time>2025-07-24T13:05:14.289Z</time>
      </trkpt>
      <trkpt lat="44.07648" lon="0.57883">
        <ele>133</ele>
        <time>2025-07-24T13:05:15.289Z</time>
      </trkpt>
      <trkpt lat="44.07648" lon="0.57882">
        <ele>133</ele>
        <time>2025-07-24T13:05:16.289Z</time>
      </trkpt>
      <trkpt lat="44.07648" lon="0.5788">
        <ele>133</ele>
        <time>2025-07-24T13:05:17.289Z</time>
      </trkpt>
      <trkpt lat="44.07648" lon="0.57879">
        <ele>133</ele>
        <time>2025-07-24T13:05:18.289Z</time>
      </trkpt>
      <trkpt lat="44.07648" lon="0.57878">
        <ele>133</ele>
        <time>2025-07-24T13:05:19.289Z</time>
      </trkpt>
      <trkpt lat="44.07648" lon="0.57877">
        <ele>133</ele>
        <time>2025-07-24T13:05:20.289Z</time>
      </trkpt>
      <trkpt lat="44.07647" lon="0.57875">
        <ele>132</ele>
        <time>2025-07-24T13:05:21.289Z</time>
      </trkpt>
      <trkpt lat="44.07647" lon="0.57874">
        <ele>132</ele>
        <time>2025-07-24T13:05:22.289Z</time>
      </trkpt>
      <trkpt lat="44.07647" lon="0.57873">
        <ele>132</ele>
        <time>2025-07-24T13:05:23.289Z</time>
      </trkpt>
      <trkpt lat="44.07646" lon="0.57871">
        <ele>133</ele>
        <time>2025-07-24T13:05:24.289Z</time>
      </trkpt>
      <trkpt lat="44.07646" lon="0.5787">
        <ele>133</ele>
        <time>2025-07-24T13:05:25.289Z</time>
      </trkpt>
      <trkpt lat="44.07646" lon="0.57869">
        <ele>133</ele>
        <time>2025-07-24T13:05:26.289Z</time>
      </trkpt>
      <trkpt lat="44.07645" lon="0.57868">
        <ele>133</ele>
        <time>2025-07-24T13:05:27.289Z</time>
      </trkpt>
      <trkpt lat="44.07645" lon="0.57866">
        <ele>133</ele>
        <time>2025-07-24T13:05:28.289Z</time>
      </trkpt>
      <trkpt lat="44.07645" lon="0.57865">
        <ele>133</ele>
        <time>2025-07-24T13:05:29.289Z</time>
      </trkpt>
      <trkpt lat="44.07645" lon="0.57864">
        <ele>133</ele>
        <time>2025-07-24T13:05:30.290Z</time>
      </trkpt>
      <trkpt lat="44.07644" lon="0.57862">
        <ele>133</ele>
        <time>2025-07-24T13:05:31.289Z</time>
      </trkpt>
      <trkpt lat="44.07644" lon="0.57861">
        <ele>133</ele>
        <time>2025-07-24T13:05:32.289Z</time>
      </trkpt>
      <trkpt lat="44.07644" lon="0.57859">
        <ele>133</ele>
        <time>2025-07-24T13:05:33.289Z</time>
      </trkpt>
      <trkpt lat="44.07643" lon="0.57858">
        <ele>133</ele>
        <time>2025-07-24T13:05:34.289Z</time>
      </trkpt>
      <trkpt lat="44.07643" lon="0.57857">
        <ele>133</ele>
        <time>2025-07-24T13:05:35.289Z</time>
      </trkpt>
      <trkpt lat="44.07643" lon="0.57855">
        <ele>133</ele>
        <time>2025-07-24T13:05:36.289Z</time>
      </trkpt>
      <trkpt lat="44.07643" lon="0.57854">
        <ele>133</ele>
        <time>2025-07-24T13:05:37.289Z</time>
      </trkpt>
      <trkpt lat="44.07643" lon="0.57853">
        <ele>134</ele>
        <time>2025-07-24T13:05:38.289Z</time>
      </trkpt>
      <trkpt lat="44.07643" lon="0.57851">
        <ele>133</ele>
        <time>2025-07-24T13:05:39.289Z</time>
      </trkpt>
      <trkpt lat="44.07643" lon="0.5785">
        <ele>133</ele>
        <time>2025-07-24T13:05:40.289Z</time>
      </trkpt>
      <trkpt lat="44.07643" lon="0.57848">
        <ele>133</ele>
        <time>2025-07-24T13:05:41.289Z</time>
      </trkpt>
      <trkpt lat="44.07642" lon="0.57847">
        <ele>133</ele>
        <time>2025-07-24T13:05:42.289Z</time>
      </trkpt>
      <trkpt lat="44.07642" lon="0.57845">
        <ele>133</ele>
        <time>2025-07-24T13:05:43.289Z</time>
      </trkpt>
      <trkpt lat="44.07642" lon="0.57844">
        <ele>133</ele>
        <time>2025-07-24T13:05:44.289Z</time>
      </trkpt>
      <trkpt lat="44.07641" lon="0.57843">
        <ele>133</ele>
        <time>2025-07-24T13:05:45.289Z</time>
      </trkpt>
      <trkpt lat="44.07641" lon="0.57842">
        <ele>132</ele>
        <time>2025-07-24T13:05:46.289Z</time>
      </trkpt>
      <trkpt lat="44.07641" lon="0.5784">
        <ele>132</ele>
        <time>2025-07-24T13:05:47.289Z</time>
      </trkpt>
      <trkpt lat="44.0764" lon="0.57838">
        <ele>132</ele>
        <time>2025-07-24T13:05:48.289Z</time>
      </trkpt>
      <trkpt lat="44.0764" lon="0.57835">
        <ele>132</ele>
        <time>2025-07-24T13:05:49.289Z</time>
      </trkpt>
      <trkpt lat="44.07639" lon="0.57833">
        <ele>132</ele>
        <time>2025-07-24T13:05:50.289Z</time>
      </trkpt>
      <trkpt lat="44.07639" lon="0.57831">
        <ele>132</ele>
        <time>2025-07-24T13:05:51.289Z</time>
      </trkpt>
      <trkpt lat="44.07639" lon="0.5783">
        <ele>132</ele>
        <time>2025-07-24T13:05:52.289Z</time>
      </trkpt>
      <trkpt lat="44.07639" lon="0.57828">
        <ele>132</ele>
        <time>2025-07-24T13:05:53.289Z</time>
      </trkpt>
      <trkpt lat="44.07638" lon="0.57826">
        <ele>132</ele>
        <time>2025-07-24T13:05:54.289Z</time>
      </trkpt>
      <trkpt lat="44.07638" lon="0.57825">
        <ele>132</ele>
        <time>2025-07-24T13:05:55.289Z</time>
      </trkpt>
      <trkpt lat="44.07638" lon="0.57823">
        <ele>133</ele>
        <time>2025-07-24T13:05:56.289Z</time>
      </trkpt>
      <trkpt lat="44.07637" lon="0.57822">
        <ele>133</ele>
        <time>2025-07-24T13:05:57.289Z</time>
      </trkpt>
      <trkpt lat="44.07637" lon="0.57821">
        <ele>133</ele>
        <time>2025-07-24T13:05:58.289Z</time>
      </trkpt>
      <trkpt lat="44.07636" lon="0.5782">
        <ele>133</ele>
        <time>2025-07-24T13:05:59.289Z</time>
      </trkpt>
      <trkpt lat="44.07636" lon="0.57818">
        <ele>133</ele>
        <time>2025-07-24T13:06:00.289Z</time>
      </trkpt>
      <trkpt lat="44.07636" lon="0.57817">
        <ele>133</ele>
        <time>2025-07-24T13:06:01.289Z</time>
      </trkpt>
      <trkpt lat="44.07636" lon="0.57816">
        <ele>133</ele>
        <time>2025-07-24T13:06:02.289Z</time>
      </trkpt>
      <trkpt lat="44.07636" lon="0.57814">
        <ele>133</ele>
        <time>2025-07-24T13:06:03.289Z</time>
      </trkpt>
      <trkpt lat="44.07635" lon="0.57813">
        <ele>133</ele>
        <time>2025-07-24T13:06:04.289Z</time>
      </trkpt>
      <trkpt lat="44.07635" lon="0.57811">
        <ele>133</ele>
        <time>2025-07-24T13:06:05.289Z</time>
      </trkpt>
      <trkpt lat="44.07635" lon="0.57809">
        <ele>133</ele>
        <time>2025-07-24T13:06:06.289Z</time>
      </trkpt>
      <trkpt lat="44.07634" lon="0.57807">
        <ele>132</ele>
        <time>2025-07-24T13:06:07.289Z</time>
      </trkpt>
      <trkpt lat="44.07634" lon="0.57806">
        <ele>132</ele>
        <time>2025-07-24T13:06:08.289Z</time>
      </trkpt>
      <trkpt lat="44.07633" lon="0.57806">
        <ele>132</ele>
        <time>2025-07-24T13:06:09.289Z</time>
      </trkpt>
      <trkpt lat="44.07632" lon="0.57804">
        <ele>132</ele>
        <time>2025-07-24T13:06:10.289Z</time>
      </trkpt>
      <trkpt lat="44.07632" lon="0.57803">
        <ele>132</ele>
        <time>2025-07-24T13:06:11.289Z</time>
      </trkpt>
      <trkpt lat="44.07632" lon="0.57802">
        <ele>132</ele>
        <time>2025-07-24T13:06:12.289Z</time>
      </trkpt>
      <trkpt lat="44.07631" lon="0.578">
        <ele>132</ele>
        <time>2025-07-24T13:06:13.289Z</time>
      </trkpt>
      <trkpt lat="44.0763" lon="0.57798">
        <ele>132</ele>
        <time>2025-07-24T13:06:14.289Z</time>
      </trkpt>
      <trkpt lat="44.0763" lon="0.57796">
        <ele>133</ele>
        <time>2025-07-24T13:06:15.289Z</time>
      </trkpt>
      <trkpt lat="44.0763" lon="0.57794">
        <ele>133</ele>
        <time>2025-07-24T13:06:16.289Z</time>
      </trkpt>
      <trkpt lat="44.0763" lon="0.57793">
        <ele>133</ele>
        <time>2025-07-24T13:06:17.289Z</time>
      </trkpt>
      <trkpt lat="44.07629" lon="0.57792">
        <ele>132</ele>
        <time>2025-07-24T13:06:18.289Z</time>
      </trkpt>
      <trkpt lat="44.07629" lon="0.5779">
        <ele>132</ele>
        <time>2025-07-24T13:06:19.289Z</time>
      </trkpt>
      <trkpt lat="44.07629" lon="0.57789">
        <ele>132</ele>
        <time>2025-07-24T13:06:20.289Z</time>
      </trkpt>
      <trkpt lat="44.07629" lon="0.57789">
        <ele>131</ele>
        <time>2025-07-24T13:06:21.289Z</time>
      </trkpt>
      <trkpt lat="44.07628" lon="0.57788">
        <ele>131</ele>
        <time>2025-07-24T13:06:22.289Z</time>
      </trkpt>
      <trkpt lat="44.07628" lon="0.57786">
        <ele>131</ele>
        <time>2025-07-24T13:06:23.289Z</time>
      </trkpt>
      <trkpt lat="44.07628" lon="0.57785">
        <ele>131</ele>
        <time>2025-07-24T13:06:24.289Z</time>
      </trkpt>
      <trkpt lat="44.07627" lon="0.57783">
        <ele>130</ele>
        <time>2025-07-24T13:06:25.289Z</time>
      </trkpt>
      <trkpt lat="44.07627" lon="0.57782">
        <ele>131</ele>
        <time>2025-07-24T13:06:26.289Z</time>
      </trkpt>
      <trkpt lat="44.07627" lon="0.5778">
        <ele>131</ele>
        <time>2025-07-24T13:06:27.289Z</time>
      </trkpt>
      <trkpt lat="44.07626" lon="0.57779">
        <ele>131</ele>
        <time>2025-07-24T13:06:28.289Z</time>
      </trkpt>
      <trkpt lat="44.07626" lon="0.57778">
        <ele>131</ele>
        <time>2025-07-24T13:06:29.289Z</time>
      </trkpt>
      <trkpt lat="44.07626" lon="0.57776">
        <ele>131</ele>
        <time>2025-07-24T13:06:30.289Z</time>
      </trkpt>
      <trkpt lat="44.07625" lon="0.57775">
        <ele>131</ele>
        <time>2025-07-24T13:06:31.289Z</time>
      </trkpt>
      <trkpt lat="44.07625" lon="0.57774">
        <ele>131</ele>
        <time>2025-07-24T13:06:32.289Z</time>
      </trkpt>
      <trkpt lat="44.07625" lon="0.57772">
        <ele>131</ele>
        <time>2025-07-24T13:06:33.289Z</time>
      </trkpt>
      <trkpt lat="44.07624" lon="0.57771">
        <ele>131</ele>
        <time>2025-07-24T13:06:34.289Z</time>
      </trkpt>
      <trkpt lat="44.07624" lon="0.57769">
        <ele>131</ele>
        <time>2025-07-24T13:06:35.289Z</time>
      </trkpt>
      <trkpt lat="44.07623" lon="0.57768">
        <ele>132</ele>
        <time>2025-07-24T13:06:36.289Z</time>
      </trkpt>
      <trkpt lat="44.07623" lon="0.57766">
        <ele>132</ele>
        <time>2025-07-24T13:06:37.289Z</time>
      </trkpt>
      <trkpt lat="44.07623" lon="0.57765">
        <ele>132</ele>
        <time>2025-07-24T13:06:38.289Z</time>
      </trkpt>
      <trkpt lat="44.07624" lon="0.57763">
        <ele>131</ele>
        <time>2025-07-24T13:06:39.289Z</time>
      </trkpt>
      <trkpt lat="44.07624" lon="0.57762">
        <ele>132</ele>
        <time>2025-07-24T13:06:40.289Z</time>
      </trkpt>
      <trkpt lat="44.07624" lon="0.5776">
        <ele>132</ele>
        <time>2025-07-24T13:06:41.289Z</time>
      </trkpt>
      <trkpt lat="44.07624" lon="0.57758">
        <ele>132</ele>
        <time>2025-07-24T13:06:42.289Z</time>
      </trkpt>
      <trkpt lat="44.07623" lon="0.57757">
        <ele>132</ele>
        <time>2025-07-24T13:06:43.289Z</time>
      </trkpt>
      <trkpt lat="44.07623" lon="0.57755">
        <ele>132</ele>
        <time>2025-07-24T13:06:44.289Z</time>
      </trkpt>
      <trkpt lat="44.07623" lon="0.57754">
        <ele>132</ele>
        <time>2025-07-24T13:06:45.289Z</time>
      </trkpt>
      <trkpt lat="44.07622" lon="0.57753">
        <ele>132</ele>
        <time>2025-07-24T13:06:46.289Z</time>
      </trkpt>
      <trkpt lat="44.07622" lon="0.57752">
        <ele>133</ele>
        <time>2025-07-24T13:06:47.289Z</time>
      </trkpt>
      <trkpt lat="44.07622" lon="0.57751">
        <ele>133</ele>
        <time>2025-07-24T13:06:48.289Z</time>
      </trkpt>
      <trkpt lat="44.07622" lon="0.57749">
        <ele>132</ele>
        <time>2025-07-24T13:06:49.289Z</time>
      </trkpt>
      <trkpt lat="44.07622" lon="0.57748">
        <ele>132</ele>
        <time>2025-07-24T13:06:50.289Z</time>
      </trkpt>
      <trkpt lat="44.07622" lon="0.57747">
        <ele>132</ele>
        <time>2025-07-24T13:06:51.289Z</time>
      </trkpt>
      <trkpt lat="44.07621" lon="0.57746">
        <ele>131</ele>
        <time>2025-07-24T13:06:52.289Z</time>
      </trkpt>
      <trkpt lat="44.07621" lon="0.57745">
        <ele>131</ele>
        <time>2025-07-24T13:06:53.289Z</time>
      </trkpt>
      <trkpt lat="44.07621" lon="0.57744">
        <ele>131</ele>
        <time>2025-07-24T13:06:54.289Z</time>
      </trkpt>
      <trkpt lat="44.07621" lon="0.57743">
        <ele>130</ele>
        <time>2025-07-24T13:06:55.289Z</time>
      </trkpt>
      <trkpt lat="44.07621" lon="0.57742">
        <ele>130</ele>
        <time>2025-07-24T13:06:56.289Z</time>
      </trkpt>
      <trkpt lat="44.0762" lon="0.5774">
        <ele>129</ele>
        <time>2025-07-24T13:06:57.289Z</time>
      </trkpt>
      <trkpt lat="44.0762" lon="0.57738">
        <ele>129</ele>
        <time>2025-07-24T13:06:58.289Z</time>
      </trkpt>
      <trkpt lat="44.07621" lon="0.57736">
        <ele>129</ele>
        <time>2025-07-24T13:06:59.289Z</time>
      </trkpt>
      <trkpt lat="44.0762" lon="0.57735">
        <ele>129</ele>
        <time>2025-07-24T13:07:00.289Z</time>
      </trkpt>
      <trkpt lat="44.0762" lon="0.57733">
        <ele>129</ele>
        <time>2025-07-24T13:07:01.289Z</time>
      </trkpt>
      <trkpt lat="44.0762" lon="0.57731">
        <ele>129</ele>
        <time>2025-07-24T13:07:02.289Z</time>
      </trkpt>
      <trkpt lat="44.07619" lon="0.57728">
        <ele>130</ele>
        <time>2025-07-24T13:07:03.289Z</time>
      </trkpt>
      <trkpt lat="44.07619" lon="0.57725">
        <ele>130</ele>
        <time>2025-07-24T13:07:04.289Z</time>
      </trkpt>
      <trkpt lat="44.07618" lon="0.57724">
        <ele>130</ele>
        <time>2025-07-24T13:07:05.289Z</time>
      </trkpt>
      <trkpt lat="44.07619" lon="0.57722">
        <ele>130</ele>
        <time>2025-07-24T13:07:06.289Z</time>
      </trkpt>
      <trkpt lat="44.07619" lon="0.5772">
        <ele>130</ele>
        <time>2025-07-24T13:07:07.289Z</time>
      </trkpt>
      <trkpt lat="44.07618" lon="0.57719">
        <ele>130</ele>
        <time>2025-07-24T13:07:08.289Z</time>
      </trkpt>
      <trkpt lat="44.07618" lon="0.57717">
        <ele>130</ele>
        <time>2025-07-24T13:07:09.289Z</time>
      </trkpt>
      <trkpt lat="44.07617" lon="0.57716">
        <ele>130</ele>
        <time>2025-07-24T13:07:10.289Z</time>
      </trkpt>
      <trkpt lat="44.07617" lon="0.57713">
        <ele>129</ele>
        <time>2025-07-24T13:07:11.289Z</time>
      </trkpt>
      <trkpt lat="44.07617" lon="0.57711">
        <ele>129</ele>
        <time>2025-07-24T13:07:12.289Z</time>
      </trkpt>
      <trkpt lat="44.07617" lon="0.5771">
        <ele>129</ele>
        <time>2025-07-24T13:07:13.289Z</time>
      </trkpt>
      <trkpt lat="44.07617" lon="0.57707">
        <ele>129</ele>
        <time>2025-07-24T13:07:14.289Z</time>
      </trkpt>
      <trkpt lat="44.07617" lon="0.57706">
        <ele>128</ele>
        <time>2025-07-24T13:07:15.289Z</time>
      </trkpt>
      <trkpt lat="44.07617" lon="0.57704">
        <ele>128</ele>
        <time>2025-07-24T13:07:16.289Z</time>
      </trkpt>
      <trkpt lat="44.07618" lon="0.57703">
        <ele>128</ele>
        <time>2025-07-24T13:07:17.289Z</time>
      </trkpt>
      <trkpt lat="44.07618" lon="0.57702">
        <ele>128</ele>
        <time>2025-07-24T13:07:18.289Z</time>
      </trkpt>
      <trkpt lat="44.07618" lon="0.57701">
        <ele>127</ele>
        <time>2025-07-24T13:07:19.289Z</time>
      </trkpt>
      <trkpt lat="44.07618" lon="0.57699">
        <ele>127</ele>
        <time>2025-07-24T13:07:20.289Z</time>
      </trkpt>
      <trkpt lat="44.07617" lon="0.57698">
        <ele>127</ele>
        <time>2025-07-24T13:07:21.289Z</time>
      </trkpt>
      <trkpt lat="44.07618" lon="0.57697">
        <ele>127</ele>
        <time>2025-07-24T13:07:22.289Z</time>
      </trkpt>
      <trkpt lat="44.07617" lon="0.57696">
        <ele>127</ele>
        <time>2025-07-24T13:07:23.289Z</time>
      </trkpt>
      <trkpt lat="44.07617" lon="0.57695">
        <ele>127</ele>
        <time>2025-07-24T13:07:24.289Z</time>
      </trkpt>
      <trkpt lat="44.07617" lon="0.57694">
        <ele>127</ele>
        <time>2025-07-24T13:07:25.289Z</time>
      </trkpt>
      <trkpt lat="44.07616" lon="0.57692">
        <ele>127</ele>
        <time>2025-07-24T13:07:26.289Z</time>
      </trkpt>
      <trkpt lat="44.07616" lon="0.57691">
        <ele>126</ele>
        <time>2025-07-24T13:07:27.289Z</time>
      </trkpt>
      <trkpt lat="44.07616" lon="0.5769">
        <ele>126</ele>
        <time>2025-07-24T13:07:28.289Z</time>
      </trkpt>
      <trkpt lat="44.07616" lon="0.57689">
        <ele>126</ele>
        <time>2025-07-24T13:07:29.289Z</time>
      </trkpt>
      <trkpt lat="44.07615" lon="0.57687">
        <ele>126</ele>
        <time>2025-07-24T13:07:30.289Z</time>
      </trkpt>
      <trkpt lat="44.07615" lon="0.57686">
        <ele>126</ele>
        <time>2025-07-24T13:07:31.289Z</time>
      </trkpt>
      <trkpt lat="44.07615" lon="0.57684">
        <ele>126</ele>
        <time>2025-07-24T13:07:32.289Z</time>
      </trkpt>
      <trkpt lat="44.07615" lon="0.57683">
        <ele>126</ele>
        <time>2025-07-24T13:07:33.289Z</time>
      </trkpt>
      <trkpt lat="44.07614" lon="0.57682">
        <ele>126</ele>
        <time>2025-07-24T13:07:34.289Z</time>
      </trkpt>
      <trkpt lat="44.07614" lon="0.5768">
        <ele>126</ele>
        <time>2025-07-24T13:07:35.289Z</time>
      </trkpt>
      <trkpt lat="44.07614" lon="0.57679">
        <ele>126</ele>
        <time>2025-07-24T13:07:36.289Z</time>
      </trkpt>
      <trkpt lat="44.07613" lon="0.57677">
        <ele>125</ele>
        <time>2025-07-24T13:07:37.289Z</time>
      </trkpt>
      <trkpt lat="44.07613" lon="0.57675">
        <ele>125</ele>
        <time>2025-07-24T13:07:38.289Z</time>
      </trkpt>
      <trkpt lat="44.07612" lon="0.57673">
        <ele>125</ele>
        <time>2025-07-24T13:07:39.289Z</time>
      </trkpt>
      <trkpt lat="44.07612" lon="0.57672">
        <ele>125</ele>
        <time>2025-07-24T13:07:40.289Z</time>
      </trkpt>
      <trkpt lat="44.07611" lon="0.5767">
        <ele>125</ele>
        <time>2025-07-24T13:07:41.289Z</time>
      </trkpt>
      <trkpt lat="44.07611" lon="0.57669">
        <ele>125</ele>
        <time>2025-07-24T13:07:42.289Z</time>
      </trkpt>
      <trkpt lat="44.0761" lon="0.57667">
        <ele>125</ele>
        <time>2025-07-24T13:07:43.289Z</time>
      </trkpt>
      <trkpt lat="44.07609" lon="0.57666">
        <ele>125</ele>
        <time>2025-07-24T13:07:44.289Z</time>
      </trkpt>
      <trkpt lat="44.07609" lon="0.57664">
        <ele>125</ele>
        <time>2025-07-24T13:07:45.289Z</time>
      </trkpt>
      <trkpt lat="44.07609" lon="0.57663">
        <ele>125</ele>
        <time>2025-07-24T13:07:46.289Z</time>
      </trkpt>
      <trkpt lat="44.07608" lon="0.57662">
        <ele>125</ele>
        <time>2025-07-24T13:07:47.289Z</time>
      </trkpt>
      <trkpt lat="44.07608" lon="0.5766">
        <ele>125</ele>
        <time>2025-07-24T13:07:48.289Z</time>
      </trkpt>
      <trkpt lat="44.07607" lon="0.57659">
        <ele>124</ele>
        <time>2025-07-24T13:07:49.289Z</time>
      </trkpt>
      <trkpt lat="44.07606" lon="0.57658">
        <ele>124</ele>
        <time>2025-07-24T13:07:50.289Z</time>
      </trkpt>
      <trkpt lat="44.07606" lon="0.57656">
        <ele>125</ele>
        <time>2025-07-24T13:07:51.289Z</time>
      </trkpt>
      <trkpt lat="44.07605" lon="0.57656">
        <ele>125</ele>
        <time>2025-07-24T13:07:52.289Z</time>
      </trkpt>
      <trkpt lat="44.07604" lon="0.57655">
        <ele>125</ele>
        <time>2025-07-24T13:07:53.289Z</time>
      </trkpt>
      <trkpt lat="44.07603" lon="0.57654">
        <ele>125</ele>
        <time>2025-07-24T13:07:54.289Z</time>
      </trkpt>
      <trkpt lat="44.07603" lon="0.57652">
        <ele>125</ele>
        <time>2025-07-24T13:07:55.289Z</time>
      </trkpt>
      <trkpt lat="44.07602" lon="0.5765">
        <ele>126</ele>
        <time>2025-07-24T13:07:56.289Z</time>
      </trkpt>
      <trkpt lat="44.07602" lon="0.57648">
        <ele>126</ele>
        <time>2025-07-24T13:07:57.289Z</time>
      </trkpt>
      <trkpt lat="44.07601" lon="0.57647">
        <ele>125</ele>
        <time>2025-07-24T13:07:58.289Z</time>
      </trkpt>
      <trkpt lat="44.076" lon="0.57646">
        <ele>125</ele>
        <time>2025-07-24T13:07:59.289Z</time>
      </trkpt>
      <trkpt lat="44.07599" lon="0.57644">
        <ele>125</ele>
        <time>2025-07-24T13:08:00.289Z</time>
      </trkpt>
      <trkpt lat="44.076" lon="0.57642">
        <ele>125</ele>
        <time>2025-07-24T13:08:01.289Z</time>
      </trkpt>
      <trkpt lat="44.076" lon="0.57641">
        <ele>125</ele>
        <time>2025-07-24T13:08:02.289Z</time>
      </trkpt>
      <trkpt lat="44.076" lon="0.5764">
        <ele>126</ele>
        <time>2025-07-24T13:08:03.289Z</time>
      </trkpt>
      <trkpt lat="44.076" lon="0.57638">
        <ele>126</ele>
        <time>2025-07-24T13:08:04.289Z</time>
      </trkpt>
      <trkpt lat="44.076" lon="0.57637">
        <ele>126</ele>
        <time>2025-07-24T13:08:05.289Z</time>
      </trkpt>
      <trkpt lat="44.07601" lon="0.57635">
        <ele>126</ele>
        <time>2025-07-24T13:08:06.289Z</time>
      </trkpt>
      <trkpt lat="44.07601" lon="0.57634">
        <ele>126</ele>
        <time>2025-07-24T13:08:07.289Z</time>
      </trkpt>
      <trkpt lat="44.07601" lon="0.57632">
        <ele>126</ele>
        <time>2025-07-24T13:08:08.289Z</time>
      </trkpt>
      <trkpt lat="44.07601" lon="0.57629">
        <ele>126</ele>
        <time>2025-07-24T13:08:09.289Z</time>
      </trkpt>
      <trkpt lat="44.076" lon="0.57627">
        <ele>125</ele>
        <time>2025-07-24T13:08:10.289Z</time>
      </trkpt>
      <trkpt lat="44.07599" lon="0.57625">
        <ele>126</ele>
        <time>2025-07-24T13:08:11.289Z</time>
      </trkpt>
      <trkpt lat="44.07598" lon="0.57623">
        <ele>125</ele>
        <time>2025-07-24T13:08:12.289Z</time>
      </trkpt>
      <trkpt lat="44.07598" lon="0.57621">
        <ele>125</ele>
        <time>2025-07-24T13:08:13.289Z</time>
      </trkpt>
      <trkpt lat="44.07598" lon="0.5762">
        <ele>125</ele>
        <time>2025-07-24T13:08:14.289Z</time>
      </trkpt>
      <trkpt lat="44.07598" lon="0.57618">
        <ele>125</ele>
        <time>2025-07-24T13:08:15.289Z</time>
      </trkpt>
      <trkpt lat="44.07597" lon="0.57616">
        <ele>125</ele>
        <time>2025-07-24T13:08:16.289Z</time>
      </trkpt>
      <trkpt lat="44.07597" lon="0.57614">
        <ele>125</ele>
        <time>2025-07-24T13:08:17.289Z</time>
      </trkpt>
      <trkpt lat="44.07597" lon="0.57613">
        <ele>125</ele>
        <time>2025-07-24T13:08:18.289Z</time>
      </trkpt>
      <trkpt lat="44.07597" lon="0.57611">
        <ele>124</ele>
        <time>2025-07-24T13:08:19.289Z</time>
      </trkpt>
      <trkpt lat="44.07596" lon="0.5761">
        <ele>124</ele>
        <time>2025-07-24T13:08:20.289Z</time>
      </trkpt>
      <trkpt lat="44.07596" lon="0.57609">
        <ele>124</ele>
        <time>2025-07-24T13:08:21.289Z</time>
      </trkpt>
      <trkpt lat="44.07596" lon="0.57607">
        <ele>124</ele>
        <time>2025-07-24T13:08:22.289Z</time>
      </trkpt>
      <trkpt lat="44.07595" lon="0.57606">
        <ele>123</ele>
        <time>2025-07-24T13:08:23.289Z</time>
      </trkpt>
      <trkpt lat="44.07595" lon="0.57604">
        <ele>123</ele>
        <time>2025-07-24T13:08:24.289Z</time>
      </trkpt>
      <trkpt lat="44.07595" lon="0.57602">
        <ele>123</ele>
        <time>2025-07-24T13:08:25.289Z</time>
      </trkpt>
      <trkpt lat="44.07595" lon="0.57602">
        <ele>123</ele>
        <time>2025-07-24T13:08:26.289Z</time>
      </trkpt>
      <trkpt lat="44.07595" lon="0.57601">
        <ele>123</ele>
        <time>2025-07-24T13:08:27.289Z</time>
      </trkpt>
      <trkpt lat="44.07595" lon="0.576">
        <ele>123</ele>
        <time>2025-07-24T13:08:28.289Z</time>
      </trkpt>
      <trkpt lat="44.07595" lon="0.57599">
        <ele>123</ele>
        <time>2025-07-24T13:08:29.289Z</time>
      </trkpt>
      <trkpt lat="44.07595" lon="0.57598">
        <ele>123</ele>
        <time>2025-07-24T13:08:30.289Z</time>
      </trkpt>
      <trkpt lat="44.07595" lon="0.57598">
        <ele>123</ele>
        <time>2025-07-24T13:08:31.289Z</time>
      </trkpt>
      <trkpt lat="44.07595" lon="0.57596">
        <ele>123</ele>
        <time>2025-07-24T13:08:32.289Z</time>
      </trkpt>
      <trkpt lat="44.07595" lon="0.57594">
        <ele>123</ele>
        <time>2025-07-24T13:08:33.289Z</time>
      </trkpt>
      <trkpt lat="44.07594" lon="0.57591">
        <ele>124</ele>
        <time>2025-07-24T13:08:34.289Z</time>
      </trkpt>
      <trkpt lat="44.07592" lon="0.5759">
        <ele>124</ele>
        <time>2025-07-24T13:08:35.289Z</time>
      </trkpt>
      <trkpt lat="44.07591" lon="0.57588">
        <ele>124</ele>
        <time>2025-07-24T13:08:36.289Z</time>
      </trkpt>
      <trkpt lat="44.07591" lon="0.57586">
        <ele>125</ele>
        <time>2025-07-24T13:08:37.289Z</time>
      </trkpt>
      <trkpt lat="44.0759" lon="0.57586">
        <ele>125</ele>
        <time>2025-07-24T13:08:38.289Z</time>
      </trkpt>
      <trkpt lat="44.0759" lon="0.57584">
        <ele>125</ele>
        <time>2025-07-24T13:08:39.289Z</time>
      </trkpt>
      <trkpt lat="44.0759" lon="0.57583">
        <ele>125</ele>
        <time>2025-07-24T13:08:40.289Z</time>
      </trkpt>
      <trkpt lat="44.0759" lon="0.57582">
        <ele>125</ele>
        <time>2025-07-24T13:08:41.289Z</time>
      </trkpt>
      <trkpt lat="44.0759" lon="0.5758">
        <ele>125</ele>
        <time>2025-07-24T13:08:42.289Z</time>
      </trkpt>
      <trkpt lat="44.07589" lon="0.57579">
        <ele>125</ele>
        <time>2025-07-24T13:08:43.289Z</time>
      </trkpt>
      <trkpt lat="44.07589" lon="0.57577">
        <ele>125</ele>
        <time>2025-07-24T13:08:44.289Z</time>
      </trkpt>
      <trkpt lat="44.07589" lon="0.57576">
        <ele>125</ele>
        <time>2025-07-24T13:08:45.289Z</time>
      </trkpt>
      <trkpt lat="44.07589" lon="0.57574">
        <ele>124</ele>
        <time>2025-07-24T13:08:46.289Z</time>
      </trkpt>
      <trkpt lat="44.0759" lon="0.57573">
        <ele>124</ele>
        <time>2025-07-24T13:08:47.289Z</time>
      </trkpt>
      <trkpt lat="44.0759" lon="0.57572">
        <ele>124</ele>
        <time>2025-07-24T13:08:48.289Z</time>
      </trkpt>
      <trkpt lat="44.07589" lon="0.5757">
        <ele>124</ele>
        <time>2025-07-24T13:08:49.289Z</time>
      </trkpt>
      <trkpt lat="44.07589" lon="0.57568">
        <ele>124</ele>
        <time>2025-07-24T13:08:50.289Z</time>
      </trkpt>
      <trkpt lat="44.07589" lon="0.57567">
        <ele>124</ele>
        <time>2025-07-24T13:08:51.289Z</time>
      </trkpt>
      <trkpt lat="44.07588" lon="0.57565">
        <ele>124</ele>
        <time>2025-07-24T13:08:52.289Z</time>
      </trkpt>
      <trkpt lat="44.07587" lon="0.57563">
        <ele>124</ele>
        <time>2025-07-24T13:08:53.289Z</time>
      </trkpt>
      <trkpt lat="44.07588" lon="0.57562">
        <ele>124</ele>
        <time>2025-07-24T13:08:54.289Z</time>
      </trkpt>
      <trkpt lat="44.07588" lon="0.57561">
        <ele>124</ele>
        <time>2025-07-24T13:08:55.289Z</time>
      </trkpt>
      <trkpt lat="44.07588" lon="0.57559">
        <ele>125</ele>
        <time>2025-07-24T13:08:56.289Z</time>
      </trkpt>
      <trkpt lat="44.07588" lon="0.57558">
        <ele>125</ele>
        <time>2025-07-24T13:08:57.289Z</time>
      </trkpt>
      <trkpt lat="44.07587" lon="0.57557">
        <ele>125</ele>
        <time>2025-07-24T13:08:58.289Z</time>
      </trkpt>
      <trkpt lat="44.07587" lon="0.57556">
        <ele>125</ele>
        <time>2025-07-24T13:08:59.289Z</time>
      </trkpt>
      <trkpt lat="44.07587" lon="0.57554">
        <ele>126</ele>
        <time>2025-07-24T13:09:00.289Z</time>
      </trkpt>
      <trkpt lat="44.07587" lon="0.57553">
        <ele>126</ele>
        <time>2025-07-24T13:09:01.289Z</time>
      </trkpt>
      <trkpt lat="44.07587" lon="0.57551">
        <ele>126</ele>
        <time>2025-07-24T13:09:02.289Z</time>
      </trkpt>
      <trkpt lat="44.07587" lon="0.5755">
        <ele>127</ele>
        <time>2025-07-24T13:09:03.289Z</time>
      </trkpt>
      <trkpt lat="44.07587" lon="0.57548">
        <ele>127</ele>
        <time>2025-07-24T13:09:04.289Z</time>
      </trkpt>
      <trkpt lat="44.07586" lon="0.57547">
        <ele>127</ele>
        <time>2025-07-24T13:09:05.289Z</time>
      </trkpt>
      <trkpt lat="44.07586" lon="0.57545">
        <ele>127</ele>
        <time>2025-07-24T13:09:06.289Z</time>
      </trkpt>
      <trkpt lat="44.07586" lon="0.57543">
        <ele>127</ele>
        <time>2025-07-24T13:09:07.289Z</time>
      </trkpt>
      <trkpt lat="44.07587" lon="0.57541">
        <ele>127</ele>
        <time>2025-07-24T13:09:08.289Z</time>
      </trkpt>
      <trkpt lat="44.07587" lon="0.5754">
        <ele>127</ele>
        <time>2025-07-24T13:09:09.289Z</time>
      </trkpt>
      <trkpt lat="44.07587" lon="0.57539">
        <ele>127</ele>
        <time>2025-07-24T13:09:10.289Z</time>
      </trkpt>
      <trkpt lat="44.07587" lon="0.57537">
        <ele>128</ele>
        <time>2025-07-24T13:09:11.289Z</time>
      </trkpt>
      <trkpt lat="44.07586" lon="0.57536">
        <ele>128</ele>
        <time>2025-07-24T13:09:12.289Z</time>
      </trkpt>
      <trkpt lat="44.07585" lon="0.57535">
        <ele>129</ele>
        <time>2025-07-24T13:09:13.289Z</time>
      </trkpt>
      <trkpt lat="44.07585" lon="0.57534">
        <ele>129</ele>
        <time>2025-07-24T13:09:14.289Z</time>
      </trkpt>
      <trkpt lat="44.07585" lon="0.57533">
        <ele>129</ele>
        <time>2025-07-24T13:09:15.289Z</time>
      </trkpt>
      <trkpt lat="44.07585" lon="0.57532">
        <ele>129</ele>
        <time>2025-07-24T13:09:16.289Z</time>
      </trkpt>
      <trkpt lat="44.07584" lon="0.5753">
        <ele>129</ele>
        <time>2025-07-24T13:09:17.289Z</time>
      </trkpt>
      <trkpt lat="44.07584" lon="0.57529">
        <ele>128</ele>
        <time>2025-07-24T13:09:18.289Z</time>
      </trkpt>
      <trkpt lat="44.07584" lon="0.57527">
        <ele>127</ele>
        <time>2025-07-24T13:09:19.289Z</time>
      </trkpt>
      <trkpt lat="44.07584" lon="0.57525">
        <ele>127</ele>
        <time>2025-07-24T13:09:20.289Z</time>
      </trkpt>
      <trkpt lat="44.07584" lon="0.57524">
        <ele>126</ele>
        <time>2025-07-24T13:09:21.289Z</time>
      </trkpt>
      <trkpt lat="44.07583" lon="0.57522">
        <ele>125</ele>
        <time>2025-07-24T13:09:22.289Z</time>
      </trkpt>
      <trkpt lat="44.07583" lon="0.57521">
        <ele>125</ele>
        <time>2025-07-24T13:09:23.289Z</time>
      </trkpt>
      <trkpt lat="44.07583" lon="0.57519">
        <ele>125</ele>
        <time>2025-07-24T13:09:24.289Z</time>
      </trkpt>
      <trkpt lat="44.07582" lon="0.57518">
        <ele>124</ele>
        <time>2025-07-24T13:09:25.289Z</time>
      </trkpt>
      <trkpt lat="44.07582" lon="0.57517">
        <ele>124</ele>
        <time>2025-07-24T13:09:26.289Z</time>
      </trkpt>
      <trkpt lat="44.07582" lon="0.57515">
        <ele>125</ele>
        <time>2025-07-24T13:09:27.289Z</time>
      </trkpt>
      <trkpt lat="44.07582" lon="0.57514">
        <ele>125</ele>
        <time>2025-07-24T13:09:28.289Z</time>
      </trkpt>
      <trkpt lat="44.07582" lon="0.57512">
        <ele>125</ele>
        <time>2025-07-24T13:09:29.289Z</time>
      </trkpt>
      <trkpt lat="44.07581" lon="0.5751">
        <ele>125</ele>
        <time>2025-07-24T13:09:30.289Z</time>
      </trkpt>
      <trkpt lat="44.07581" lon="0.57509">
        <ele>125</ele>
        <time>2025-07-24T13:09:31.289Z</time>
      </trkpt>
      <trkpt lat="44.0758" lon="0.57507">
        <ele>126</ele>
        <time>2025-07-24T13:09:32.289Z</time>
      </trkpt>
      <trkpt lat="44.0758" lon="0.57506">
        <ele>126</ele>
        <time>2025-07-24T13:09:33.289Z</time>
      </trkpt>
      <trkpt lat="44.07581" lon="0.57504">
        <ele>126</ele>
        <time>2025-07-24T13:09:34.289Z</time>
      </trkpt>
      <trkpt lat="44.07581" lon="0.57504">
        <ele>126</ele>
        <time>2025-07-24T13:09:35.289Z</time>
      </trkpt>
      <trkpt lat="44.07581" lon="0.57503">
        <ele>126</ele>
        <time>2025-07-24T13:09:36.289Z</time>
      </trkpt>
      <trkpt lat="44.07581" lon="0.57502">
        <ele>127</ele>
        <time>2025-07-24T13:09:37.289Z</time>
      </trkpt>
      <trkpt lat="44.0758" lon="0.575">
        <ele>127</ele>
        <time>2025-07-24T13:09:38.289Z</time>
      </trkpt>
      <trkpt lat="44.07579" lon="0.57498">
        <ele>127</ele>
        <time>2025-07-24T13:09:39.289Z</time>
      </trkpt>
      <trkpt lat="44.07579" lon="0.57497">
        <ele>127</ele>
        <time>2025-07-24T13:09:40.289Z</time>
      </trkpt>
      <trkpt lat="44.07578" lon="0.57495">
        <ele>127</ele>
        <time>2025-07-24T13:09:41.289Z</time>
      </trkpt>
      <trkpt lat="44.07578" lon="0.57494">
        <ele>128</ele>
        <time>2025-07-24T13:09:42.289Z</time>
      </trkpt>
      <trkpt lat="44.07578" lon="0.57493">
        <ele>128</ele>
        <time>2025-07-24T13:09:43.289Z</time>
      </trkpt>
      <trkpt lat="44.07577" lon="0.57492">
        <ele>128</ele>
        <time>2025-07-24T13:09:44.289Z</time>
      </trkpt>
      <trkpt lat="44.07577" lon="0.57491">
        <ele>128</ele>
        <time>2025-07-24T13:09:45.289Z</time>
      </trkpt>
      <trkpt lat="44.07577" lon="0.5749">
        <ele>128</ele>
        <time>2025-07-24T13:09:46.289Z</time>
      </trkpt>
      <trkpt lat="44.07577" lon="0.57489">
        <ele>127</ele>
        <time>2025-07-24T13:09:47.289Z</time>
      </trkpt>
      <trkpt lat="44.07577" lon="0.57487">
        <ele>127</ele>
        <time>2025-07-24T13:09:48.289Z</time>
      </trkpt>
      <trkpt lat="44.07577" lon="0.57486">
        <ele>127</ele>
        <time>2025-07-24T13:09:49.289Z</time>
      </trkpt>
      <trkpt lat="44.07577" lon="0.57485">
        <ele>127</ele>
        <time>2025-07-24T13:09:50.289Z</time>
      </trkpt>
      <trkpt lat="44.07576" lon="0.57482">
        <ele>127</ele>
        <time>2025-07-24T13:09:51.289Z</time>
      </trkpt>
      <trkpt lat="44.07576" lon="0.5748">
        <ele>127</ele>
        <time>2025-07-24T13:09:52.289Z</time>
      </trkpt>
      <trkpt lat="44.07575" lon="0.57479">
        <ele>127</ele>
        <time>2025-07-24T13:09:53.289Z</time>
      </trkpt>
      <trkpt lat="44.07574" lon="0.57478">
        <ele>127</ele>
        <time>2025-07-24T13:09:54.290Z</time>
      </trkpt>
      <trkpt lat="44.07574" lon="0.57476">
        <ele>127</ele>
        <time>2025-07-24T13:09:55.289Z</time>
      </trkpt>
      <trkpt lat="44.07574" lon="0.57474">
        <ele>127</ele>
        <time>2025-07-24T13:09:56.289Z</time>
      </trkpt>
      <trkpt lat="44.07574" lon="0.57473">
        <ele>127</ele>
        <time>2025-07-24T13:09:57.289Z</time>
      </trkpt>
      <trkpt lat="44.07574" lon="0.57471">
        <ele>128</ele>
        <time>2025-07-24T13:09:58.289Z</time>
      </trkpt>
      <trkpt lat="44.07574" lon="0.5747">
        <ele>128</ele>
        <time>2025-07-24T13:09:59.289Z</time>
      </trkpt>
      <trkpt lat="44.07574" lon="0.57469">
        <ele>127</ele>
        <time>2025-07-24T13:10:00.289Z</time>
      </trkpt>
      <trkpt lat="44.07574" lon="0.57467">
        <ele>127</ele>
        <time>2025-07-24T13:10:01.289Z</time>
      </trkpt>
      <trkpt lat="44.07574" lon="0.57466">
        <ele>127</ele>
        <time>2025-07-24T13:10:02.289Z</time>
      </trkpt>
      <trkpt lat="44.07574" lon="0.57464">
        <ele>127</ele>
        <time>2025-07-24T13:10:03.289Z</time>
      </trkpt>
      <trkpt lat="44.07574" lon="0.57462">
        <ele>127</ele>
        <time>2025-07-24T13:10:04.289Z</time>
      </trkpt>
      <trkpt lat="44.07573" lon="0.57461">
        <ele>127</ele>
        <time>2025-07-24T13:10:05.289Z</time>
      </trkpt>
      <trkpt lat="44.07573" lon="0.57459">
        <ele>128</ele>
        <time>2025-07-24T13:10:06.289Z</time>
      </trkpt>
      <trkpt lat="44.07572" lon="0.57458">
        <ele>128</ele>
        <time>2025-07-24T13:10:07.289Z</time>
      </trkpt>
      <trkpt lat="44.07572" lon="0.57456">
        <ele>128</ele>
        <time>2025-07-24T13:10:08.289Z</time>
      </trkpt>
      <trkpt lat="44.07572" lon="0.57455">
        <ele>129</ele>
        <time>2025-07-24T13:10:09.289Z</time>
      </trkpt>
      <trkpt lat="44.07572" lon="0.57453">
        <ele>129</ele>
        <time>2025-07-24T13:10:10.289Z</time>
      </trkpt>
      <trkpt lat="44.07572" lon="0.57451">
        <ele>129</ele>
        <time>2025-07-24T13:10:11.289Z</time>
      </trkpt>
      <trkpt lat="44.07572" lon="0.5745">
        <ele>129</ele>
        <time>2025-07-24T13:10:12.289Z</time>
      </trkpt>
      <trkpt lat="44.07571" lon="0.57449">
        <ele>130</ele>
        <time>2025-07-24T13:10:13.289Z</time>
      </trkpt>
      <trkpt lat="44.07571" lon="0.57448">
        <ele>130</ele>
        <time>2025-07-24T13:10:14.289Z</time>
      </trkpt>
      <trkpt lat="44.07571" lon="0.57446">
        <ele>130</ele>
        <time>2025-07-24T13:10:15.289Z</time>
      </trkpt>
      <trkpt lat="44.0757" lon="0.57445">
        <ele>130</ele>
        <time>2025-07-24T13:10:16.289Z</time>
      </trkpt>
      <trkpt lat="44.0757" lon="0.57443">
        <ele>131</ele>
        <time>2025-07-24T13:10:17.289Z</time>
      </trkpt>
      <trkpt lat="44.0757" lon="0.57442">
        <ele>131</ele>
        <time>2025-07-24T13:10:18.289Z</time>
      </trkpt>
      <trkpt lat="44.07569" lon="0.5744">
        <ele>131</ele>
        <time>2025-07-24T13:10:19.289Z</time>
      </trkpt>
      <trkpt lat="44.07569" lon="0.57439">
        <ele>131</ele>
        <time>2025-07-24T13:10:20.289Z</time>
      </trkpt>
      <trkpt lat="44.07569" lon="0.57438">
        <ele>131</ele>
        <time>2025-07-24T13:10:21.289Z</time>
      </trkpt>
      <trkpt lat="44.07569" lon="0.57436">
        <ele>131</ele>
        <time>2025-07-24T13:10:22.289Z</time>
      </trkpt>
      <trkpt lat="44.07569" lon="0.57435">
        <ele>131</ele>
        <time>2025-07-24T13:10:23.289Z</time>
      </trkpt>
      <trkpt lat="44.07569" lon="0.57433">
        <ele>131</ele>
        <time>2025-07-24T13:10:24.289Z</time>
      </trkpt>
      <trkpt lat="44.07568" lon="0.57431">
        <ele>131</ele>
        <time>2025-07-24T13:10:25.289Z</time>
      </trkpt>
      <trkpt lat="44.07568" lon="0.5743">
        <ele>131</ele>
        <time>2025-07-24T13:10:26.289Z</time>
      </trkpt>
      <trkpt lat="44.07568" lon="0.57428">
        <ele>131</ele>
        <time>2025-07-24T13:10:27.289Z</time>
      </trkpt>
      <trkpt lat="44.07568" lon="0.57427">
        <ele>131</ele>
        <time>2025-07-24T13:10:28.289Z</time>
      </trkpt>
      <trkpt lat="44.07567" lon="0.57425">
        <ele>131</ele>
        <time>2025-07-24T13:10:29.289Z</time>
      </trkpt>
      <trkpt lat="44.07567" lon="0.57424">
        <ele>131</ele>
        <time>2025-07-24T13:10:30.289Z</time>
      </trkpt>
      <trkpt lat="44.07567" lon="0.57423">
        <ele>131</ele>
        <time>2025-07-24T13:10:31.289Z</time>
      </trkpt>
      <trkpt lat="44.07567" lon="0.57422">
        <ele>131</ele>
        <time>2025-07-24T13:10:32.289Z</time>
      </trkpt>
      <trkpt lat="44.07567" lon="0.57421">
        <ele>132</ele>
        <time>2025-07-24T13:10:33.289Z</time>
      </trkpt>
      <trkpt lat="44.07567" lon="0.5742">
        <ele>132</ele>
        <time>2025-07-24T13:10:34.289Z</time>
      </trkpt>
      <trkpt lat="44.07567" lon="0.57419">
        <ele>132</ele>
        <time>2025-07-24T13:10:35.289Z</time>
      </trkpt>
      <trkpt lat="44.07566" lon="0.57417">
        <ele>132</ele>
        <time>2025-07-24T13:10:36.289Z</time>
      </trkpt>
      <trkpt lat="44.07566" lon="0.57416">
        <ele>132</ele>
        <time>2025-07-24T13:10:37.289Z</time>
      </trkpt>
      <trkpt lat="44.07566" lon="0.57414">
        <ele>132</ele>
        <time>2025-07-24T13:10:38.289Z</time>
      </trkpt>
      <trkpt lat="44.07566" lon="0.57413">
        <ele>132</ele>
        <time>2025-07-24T13:10:39.289Z</time>
      </trkpt>
      <trkpt lat="44.07565" lon="0.57411">
        <ele>132</ele>
        <time>2025-07-24T13:10:40.289Z</time>
      </trkpt>
      <trkpt lat="44.07565" lon="0.5741">
        <ele>132</ele>
        <time>2025-07-24T13:10:41.289Z</time>
      </trkpt>
      <trkpt lat="44.07565" lon="0.57408">
        <ele>132</ele>
        <time>2025-07-24T13:10:42.289Z</time>
      </trkpt>
      <trkpt lat="44.07566" lon="0.57407">
        <ele>132</ele>
        <time>2025-07-24T13:10:43.289Z</time>
      </trkpt>
      <trkpt lat="44.07566" lon="0.57405">
        <ele>133</ele>
        <time>2025-07-24T13:10:44.289Z</time>
      </trkpt>
      <trkpt lat="44.07566" lon="0.57402">
        <ele>133</ele>
        <time>2025-07-24T13:10:45.289Z</time>
      </trkpt>
      <trkpt lat="44.07566" lon="0.57401">
        <ele>133</ele>
        <time>2025-07-24T13:10:46.289Z</time>
      </trkpt>
      <trkpt lat="44.07565" lon="0.574">
        <ele>132</ele>
        <time>2025-07-24T13:10:47.289Z</time>
      </trkpt>
      <trkpt lat="44.07565" lon="0.57399">
        <ele>132</ele>
        <time>2025-07-24T13:10:48.289Z</time>
      </trkpt>
      <trkpt lat="44.07565" lon="0.57397">
        <ele>132</ele>
        <time>2025-07-24T13:10:49.289Z</time>
      </trkpt>
      <trkpt lat="44.07564" lon="0.57396">
        <ele>132</ele>
        <time>2025-07-24T13:10:50.289Z</time>
      </trkpt>
      <trkpt lat="44.07564" lon="0.57394">
        <ele>132</ele>
        <time>2025-07-24T13:10:51.289Z</time>
      </trkpt>
      <trkpt lat="44.07564" lon="0.57392">
        <ele>132</ele>
        <time>2025-07-24T13:10:52.289Z</time>
      </trkpt>
      <trkpt lat="44.07564" lon="0.57391">
        <ele>132</ele>
        <time>2025-07-24T13:10:53.289Z</time>
      </trkpt>
      <trkpt lat="44.07563" lon="0.5739">
        <ele>132</ele>
        <time>2025-07-24T13:10:54.289Z</time>
      </trkpt>
      <trkpt lat="44.07562" lon="0.57388">
        <ele>133</ele>
        <time>2025-07-24T13:10:55.289Z</time>
      </trkpt>
      <trkpt lat="44.07562" lon="0.57387">
        <ele>133</ele>
        <time>2025-07-24T13:10:56.289Z</time>
      </trkpt>
      <trkpt lat="44.07562" lon="0.57386">
        <ele>133</ele>
        <time>2025-07-24T13:10:57.289Z</time>
      </trkpt>
      <trkpt lat="44.07562" lon="0.57384">
        <ele>133</ele>
        <time>2025-07-24T13:10:58.289Z</time>
      </trkpt>
      <trkpt lat="44.07561" lon="0.57383">
        <ele>133</ele>
        <time>2025-07-24T13:10:59.289Z</time>
      </trkpt>
      <trkpt lat="44.07561" lon="0.57381">
        <ele>133</ele>
        <time>2025-07-24T13:11:00.289Z</time>
      </trkpt>
      <trkpt lat="44.07561" lon="0.5738">
        <ele>133</ele>
        <time>2025-07-24T13:11:01.289Z</time>
      </trkpt>
      <trkpt lat="44.0756" lon="0.57378">
        <ele>134</ele>
        <time>2025-07-24T13:11:02.289Z</time>
      </trkpt>
      <trkpt lat="44.0756" lon="0.57377">
        <ele>134</ele>
        <time>2025-07-24T13:11:03.289Z</time>
      </trkpt>
      <trkpt lat="44.0756" lon="0.57376">
        <ele>134</ele>
        <time>2025-07-24T13:11:04.289Z</time>
      </trkpt>
      <trkpt lat="44.07559" lon="0.57374">
        <ele>134</ele>
        <time>2025-07-24T13:11:05.289Z</time>
      </trkpt>
      <trkpt lat="44.07559" lon="0.57373">
        <ele>133</ele>
        <time>2025-07-24T13:11:06.289Z</time>
      </trkpt>
      <trkpt lat="44.07559" lon="0.57371">
        <ele>133</ele>
        <time>2025-07-24T13:11:07.289Z</time>
      </trkpt>
      <trkpt lat="44.07559" lon="0.5737">
        <ele>133</ele>
        <time>2025-07-24T13:11:08.289Z</time>
      </trkpt>
      <trkpt lat="44.07559" lon="0.57369">
        <ele>133</ele>
        <time>2025-07-24T13:11:09.289Z</time>
      </trkpt>
      <trkpt lat="44.07559" lon="0.57367">
        <ele>133</ele>
        <time>2025-07-24T13:11:10.289Z</time>
      </trkpt>
      <trkpt lat="44.07558" lon="0.57366">
        <ele>133</ele>
        <time>2025-07-24T13:11:11.289Z</time>
      </trkpt>
      <trkpt lat="44.07558" lon="0.57364">
        <ele>133</ele>
        <time>2025-07-24T13:11:12.289Z</time>
      </trkpt>
      <trkpt lat="44.07558" lon="0.57363">
        <ele>133</ele>
        <time>2025-07-24T13:11:13.289Z</time>
      </trkpt>
      <trkpt lat="44.07558" lon="0.57361">
        <ele>133</ele>
        <time>2025-07-24T13:11:14.289Z</time>
      </trkpt>
      <trkpt lat="44.07557" lon="0.57359">
        <ele>134</ele>
        <time>2025-07-24T13:11:15.289Z</time>
      </trkpt>
      <trkpt lat="44.07557" lon="0.57358">
        <ele>134</ele>
        <time>2025-07-24T13:11:16.289Z</time>
      </trkpt>
      <trkpt lat="44.07556" lon="0.57357">
        <ele>134</ele>
        <time>2025-07-24T13:11:17.289Z</time>
      </trkpt>
      <trkpt lat="44.07556" lon="0.57355">
        <ele>134</ele>
        <time>2025-07-24T13:11:18.289Z</time>
      </trkpt>
      <trkpt lat="44.07555" lon="0.57354">
        <ele>134</ele>
        <time>2025-07-24T13:11:19.289Z</time>
      </trkpt>
      <trkpt lat="44.07555" lon="0.57352">
        <ele>135</ele>
        <time>2025-07-24T13:11:20.289Z</time>
      </trkpt>
      <trkpt lat="44.07554" lon="0.57351">
        <ele>135</ele>
        <time>2025-07-24T13:11:21.289Z</time>
      </trkpt>
      <trkpt lat="44.07553" lon="0.57349">
        <ele>135</ele>
        <time>2025-07-24T13:11:22.289Z</time>
      </trkpt>
      <trkpt lat="44.07552" lon="0.57348">
        <ele>135</ele>
        <time>2025-07-24T13:11:23.289Z</time>
      </trkpt>
      <trkpt lat="44.07551" lon="0.57347">
        <ele>136</ele>
        <time>2025-07-24T13:11:24.289Z</time>
      </trkpt>
      <trkpt lat="44.07551" lon="0.57346">
        <ele>136</ele>
        <time>2025-07-24T13:11:25.289Z</time>
      </trkpt>
      <trkpt lat="44.0755" lon="0.57345">
        <ele>136</ele>
        <time>2025-07-24T13:11:26.289Z</time>
      </trkpt>
      <trkpt lat="44.0755" lon="0.57343">
        <ele>136</ele>
        <time>2025-07-24T13:11:27.289Z</time>
      </trkpt>
      <trkpt lat="44.07549" lon="0.57342">
        <ele>136</ele>
        <time>2025-07-24T13:11:28.289Z</time>
      </trkpt>
      <trkpt lat="44.07548" lon="0.57341">
        <ele>136</ele>
        <time>2025-07-24T13:11:29.289Z</time>
      </trkpt>
      <trkpt lat="44.07548" lon="0.5734">
        <ele>136</ele>
        <time>2025-07-24T13:11:30.289Z</time>
      </trkpt>
      <trkpt lat="44.07547" lon="0.57339">
        <ele>136</ele>
        <time>2025-07-24T13:11:31.289Z</time>
      </trkpt>
      <trkpt lat="44.07547" lon="0.57338">
        <ele>136</ele>
        <time>2025-07-24T13:11:32.289Z</time>
      </trkpt>
      <trkpt lat="44.07547" lon="0.57338">
        <ele>136</ele>
        <time>2025-07-24T13:11:33.289Z</time>
      </trkpt>
      <trkpt lat="44.07546" lon="0.57336">
        <ele>136</ele>
        <time>2025-07-24T13:11:34.290Z</time>
      </trkpt>
      <trkpt lat="44.07546" lon="0.57335">
        <ele>136</ele>
        <time>2025-07-24T13:11:35.289Z</time>
      </trkpt>
      <trkpt lat="44.07546" lon="0.57334">
        <ele>136</ele>
        <time>2025-07-24T13:11:36.289Z</time>
      </trkpt>
      <trkpt lat="44.07545" lon="0.57333">
        <ele>136</ele>
        <time>2025-07-24T13:11:37.289Z</time>
      </trkpt>
      <trkpt lat="44.07545" lon="0.57332">
        <ele>136</ele>
        <time>2025-07-24T13:11:38.289Z</time>
      </trkpt>
      <trkpt lat="44.07544" lon="0.5733">
        <ele>136</ele>
        <time>2025-07-24T13:11:39.289Z</time>
      </trkpt>
      <trkpt lat="44.07544" lon="0.57328">
        <ele>136</ele>
        <time>2025-07-24T13:11:40.289Z</time>
      </trkpt>
      <trkpt lat="44.07544" lon="0.57327">
        <ele>136</ele>
        <time>2025-07-24T13:11:41.289Z</time>
      </trkpt>
      <trkpt lat="44.07543" lon="0.57325">
        <ele>136</ele>
        <time>2025-07-24T13:11:42.289Z</time>
      </trkpt>
      <trkpt lat="44.07543" lon="0.57324">
        <ele>136</ele>
        <time>2025-07-24T13:11:43.289Z</time>
      </trkpt>
      <trkpt lat="44.07542" lon="0.57322">
        <ele>136</ele>
        <time>2025-07-24T13:11:44.289Z</time>
      </trkpt>
      <trkpt lat="44.07542" lon="0.57321">
        <ele>136</ele>
        <time>2025-07-24T13:11:45.289Z</time>
      </trkpt>
      <trkpt lat="44.07541" lon="0.5732">
        <ele>136</ele>
        <time>2025-07-24T13:11:46.289Z</time>
      </trkpt>
      <trkpt lat="44.0754" lon="0.57318">
        <ele>137</ele>
        <time>2025-07-24T13:11:47.289Z</time>
      </trkpt>
      <trkpt lat="44.0754" lon="0.57317">
        <ele>137</ele>
        <time>2025-07-24T13:11:48.289Z</time>
      </trkpt>
      <trkpt lat="44.0754" lon="0.57316">
        <ele>137</ele>
        <time>2025-07-24T13:11:49.289Z</time>
      </trkpt>
      <trkpt lat="44.0754" lon="0.57314">
        <ele>136</ele>
        <time>2025-07-24T13:11:50.289Z</time>
      </trkpt>
      <trkpt lat="44.07539" lon="0.57313">
        <ele>137</ele>
        <time>2025-07-24T13:11:51.289Z</time>
      </trkpt>
      <trkpt lat="44.07539" lon="0.57312">
        <ele>137</ele>
        <time>2025-07-24T13:11:52.289Z</time>
      </trkpt>
      <trkpt lat="44.07539" lon="0.57311">
        <ele>137</ele>
        <time>2025-07-24T13:11:53.289Z</time>
      </trkpt>
      <trkpt lat="44.07538" lon="0.57309">
        <ele>136</ele>
        <time>2025-07-24T13:11:54.289Z</time>
      </trkpt>
      <trkpt lat="44.07538" lon="0.57308">
        <ele>136</ele>
        <time>2025-07-24T13:11:55.289Z</time>
      </trkpt>
      <trkpt lat="44.07537" lon="0.57307">
        <ele>136</ele>
        <time>2025-07-24T13:11:56.289Z</time>
      </trkpt>
      <trkpt lat="44.07537" lon="0.57306">
        <ele>136</ele>
        <time>2025-07-24T13:11:57.289Z</time>
      </trkpt>
      <trkpt lat="44.07536" lon="0.57305">
        <ele>137</ele>
        <time>2025-07-24T13:11:58.289Z</time>
      </trkpt>
      <trkpt lat="44.07535" lon="0.57303">
        <ele>137</ele>
        <time>2025-07-24T13:11:59.289Z</time>
      </trkpt>
      <trkpt lat="44.07535" lon="0.57302">
        <ele>137</ele>
        <time>2025-07-24T13:12:00.289Z</time>
      </trkpt>
      <trkpt lat="44.07534" lon="0.57301">
        <ele>137</ele>
        <time>2025-07-24T13:12:01.289Z</time>
      </trkpt>
      <trkpt lat="44.07533" lon="0.57299">
        <ele>137</ele>
        <time>2025-07-24T13:12:02.289Z</time>
      </trkpt>
      <trkpt lat="44.07533" lon="0.57298">
        <ele>137</ele>
        <time>2025-07-24T13:12:03.289Z</time>
      </trkpt>
      <trkpt lat="44.07532" lon="0.57297">
        <ele>137</ele>
        <time>2025-07-24T13:12:04.289Z</time>
      </trkpt>
      <trkpt lat="44.07532" lon="0.57296">
        <ele>137</ele>
        <time>2025-07-24T13:12:05.289Z</time>
      </trkpt>
      <trkpt lat="44.07531" lon="0.57295">
        <ele>137</ele>
        <time>2025-07-24T13:12:06.289Z</time>
      </trkpt>
      <trkpt lat="44.07531" lon="0.57295">
        <ele>137</ele>
        <time>2025-07-24T13:12:07.289Z</time>
      </trkpt>
      <trkpt lat="44.0753" lon="0.57293">
        <ele>137</ele>
        <time>2025-07-24T13:12:08.289Z</time>
      </trkpt>
      <trkpt lat="44.07529" lon="0.57292">
        <ele>138</ele>
        <time>2025-07-24T13:12:09.289Z</time>
      </trkpt>
      <trkpt lat="44.07529" lon="0.5729">
        <ele>138</ele>
        <time>2025-07-24T13:12:10.289Z</time>
      </trkpt>
      <trkpt lat="44.07528" lon="0.57289">
        <ele>138</ele>
        <time>2025-07-24T13:12:11.290Z</time>
      </trkpt>
      <trkpt lat="44.07528" lon="0.57288">
        <ele>138</ele>
        <time>2025-07-24T13:12:12.289Z</time>
      </trkpt>
      <trkpt lat="44.07527" lon="0.57287">
        <ele>139</ele>
        <time>2025-07-24T13:12:13.289Z</time>
      </trkpt>
      <trkpt lat="44.07527" lon="0.57286">
        <ele>139</ele>
        <time>2025-07-24T13:12:14.289Z</time>
      </trkpt>
      <trkpt lat="44.07526" lon="0.57285">
        <ele>139</ele>
        <time>2025-07-24T13:12:15.289Z</time>
      </trkpt>
      <trkpt lat="44.07525" lon="0.57283">
        <ele>139</ele>
        <time>2025-07-24T13:12:16.289Z</time>
      </trkpt>
      <trkpt lat="44.07525" lon="0.57282">
        <ele>139</ele>
        <time>2025-07-24T13:12:17.289Z</time>
      </trkpt>
      <trkpt lat="44.07524" lon="0.57281">
        <ele>139</ele>
        <time>2025-07-24T13:12:18.289Z</time>
      </trkpt>
      <trkpt lat="44.07523" lon="0.5728">
        <ele>139</ele>
        <time>2025-07-24T13:12:19.289Z</time>
      </trkpt>
      <trkpt lat="44.07523" lon="0.57279">
        <ele>139</ele>
        <time>2025-07-24T13:12:20.289Z</time>
      </trkpt>
      <trkpt lat="44.07523" lon="0.57277">
        <ele>138</ele>
        <time>2025-07-24T13:12:21.289Z</time>
      </trkpt>
      <trkpt lat="44.07522" lon="0.57275">
        <ele>138</ele>
        <time>2025-07-24T13:12:22.289Z</time>
      </trkpt>
      <trkpt lat="44.07522" lon="0.57274">
        <ele>138</ele>
        <time>2025-07-24T13:12:23.289Z</time>
      </trkpt>
      <trkpt lat="44.07522" lon="0.57272">
        <ele>138</ele>
        <time>2025-07-24T13:12:24.289Z</time>
      </trkpt>
      <trkpt lat="44.07522" lon="0.57271">
        <ele>138</ele>
        <time>2025-07-24T13:12:25.289Z</time>
      </trkpt>
      <trkpt lat="44.07521" lon="0.5727">
        <ele>138</ele>
        <time>2025-07-24T13:12:26.289Z</time>
      </trkpt>
      <trkpt lat="44.07521" lon="0.57268">
        <ele>138</ele>
        <time>2025-07-24T13:12:27.290Z</time>
      </trkpt>
      <trkpt lat="44.07521" lon="0.57267">
        <ele>138</ele>
        <time>2025-07-24T13:12:28.289Z</time>
      </trkpt>
      <trkpt lat="44.0752" lon="0.57266">
        <ele>138</ele>
        <time>2025-07-24T13:12:29.289Z</time>
      </trkpt>
      <trkpt lat="44.0752" lon="0.57265">
        <ele>138</ele>
        <time>2025-07-24T13:12:30.289Z</time>
      </trkpt>
      <trkpt lat="44.07519" lon="0.57263">
        <ele>138</ele>
        <time>2025-07-24T13:12:31.289Z</time>
      </trkpt>
      <trkpt lat="44.07519" lon="0.57262">
        <ele>138</ele>
        <time>2025-07-24T13:12:32.289Z</time>
      </trkpt>
      <trkpt lat="44.07518" lon="0.57261">
        <ele>138</ele>
        <time>2025-07-24T13:12:33.289Z</time>
      </trkpt>
      <trkpt lat="44.07517" lon="0.5726">
        <ele>138</ele>
        <time>2025-07-24T13:12:34.289Z</time>
      </trkpt>
      <trkpt lat="44.07517" lon="0.57259">
        <ele>138</ele>
        <time>2025-07-24T13:12:35.289Z</time>
      </trkpt>
      <trkpt lat="44.07517" lon="0.57257">
        <ele>138</ele>
        <time>2025-07-24T13:12:36.289Z</time>
      </trkpt>
      <trkpt lat="44.07516" lon="0.57255">
        <ele>138</ele>
        <time>2025-07-24T13:12:37.289Z</time>
      </trkpt>
      <trkpt lat="44.07516" lon="0.57254">
        <ele>139</ele>
        <time>2025-07-24T13:12:38.289Z</time>
      </trkpt>
      <trkpt lat="44.07515" lon="0.57252">
        <ele>139</ele>
        <time>2025-07-24T13:12:39.289Z</time>
      </trkpt>
      <trkpt lat="44.07515" lon="0.57251">
        <ele>140</ele>
        <time>2025-07-24T13:12:40.289Z</time>
      </trkpt>
      <trkpt lat="44.07515" lon="0.57249">
        <ele>140</ele>
        <time>2025-07-24T13:12:41.289Z</time>
      </trkpt>
      <trkpt lat="44.07515" lon="0.57248">
        <ele>140</ele>
        <time>2025-07-24T13:12:42.289Z</time>
      </trkpt>
      <trkpt lat="44.07514" lon="0.57246">
        <ele>141</ele>
        <time>2025-07-24T13:12:43.289Z</time>
      </trkpt>
      <trkpt lat="44.07514" lon="0.57245">
        <ele>141</ele>
        <time>2025-07-24T13:12:44.289Z</time>
      </trkpt>
      <trkpt lat="44.07514" lon="0.57244">
        <ele>141</ele>
        <time>2025-07-24T13:12:45.289Z</time>
      </trkpt>
      <trkpt lat="44.07513" lon="0.57243">
        <ele>141</ele>
        <time>2025-07-24T13:12:46.289Z</time>
      </trkpt>
      <trkpt lat="44.07513" lon="0.57242">
        <ele>141</ele>
        <time>2025-07-24T13:12:47.289Z</time>
      </trkpt>
      <trkpt lat="44.07513" lon="0.57241">
        <ele>141</ele>
        <time>2025-07-24T13:12:48.289Z</time>
      </trkpt>
      <trkpt lat="44.07513" lon="0.57239">
        <ele>141</ele>
        <time>2025-07-24T13:12:49.289Z</time>
      </trkpt>
      <trkpt lat="44.07513" lon="0.57238">
        <ele>141</ele>
        <time>2025-07-24T13:12:50.289Z</time>
      </trkpt>
      <trkpt lat="44.07513" lon="0.57236">
        <ele>141</ele>
        <time>2025-07-24T13:12:51.289Z</time>
      </trkpt>
      <trkpt lat="44.07514" lon="0.57235">
        <ele>141</ele>
        <time>2025-07-24T13:12:52.289Z</time>
      </trkpt>
      <trkpt lat="44.07514" lon="0.57234">
        <ele>141</ele>
        <time>2025-07-24T13:12:53.289Z</time>
      </trkpt>
      <trkpt lat="44.07514" lon="0.57233">
        <ele>141</ele>
        <time>2025-07-24T13:12:54.289Z</time>
      </trkpt>
      <trkpt lat="44.07513" lon="0.57231">
        <ele>141</ele>
        <time>2025-07-24T13:12:55.289Z</time>
      </trkpt>
      <trkpt lat="44.07513" lon="0.57229">
        <ele>140</ele>
        <time>2025-07-24T13:12:56.289Z</time>
      </trkpt>
      <trkpt lat="44.07513" lon="0.57227">
        <ele>140</ele>
        <time>2025-07-24T13:12:57.289Z</time>
      </trkpt>
      <trkpt lat="44.07512" lon="0.57225">
        <ele>139</ele>
        <time>2025-07-24T13:12:58.289Z</time>
      </trkpt>
      <trkpt lat="44.07512" lon="0.57223">
        <ele>139</ele>
        <time>2025-07-24T13:12:59.289Z</time>
      </trkpt>
      <trkpt lat="44.07512" lon="0.57221">
        <ele>138</ele>
        <time>2025-07-24T13:13:00.289Z</time>
      </trkpt>
      <trkpt lat="44.07512" lon="0.5722">
        <ele>138</ele>
        <time>2025-07-24T13:13:01.289Z</time>
      </trkpt>
      <trkpt lat="44.07512" lon="0.57218">
        <ele>138</ele>
        <time>2025-07-24T13:13:02.289Z</time>
      </trkpt>
      <trkpt lat="44.07511" lon="0.57217">
        <ele>138</ele>
        <time>2025-07-24T13:13:03.289Z</time>
      </trkpt>
      <trkpt lat="44.07511" lon="0.57215">
        <ele>138</ele>
        <time>2025-07-24T13:13:04.289Z</time>
      </trkpt>
      <trkpt lat="44.07511" lon="0.57214">
        <ele>138</ele>
        <time>2025-07-24T13:13:05.289Z</time>
      </trkpt>
      <trkpt lat="44.07511" lon="0.57213">
        <ele>137</ele>
        <time>2025-07-24T13:13:06.289Z</time>
      </trkpt>
      <trkpt lat="44.07511" lon="0.57211">
        <ele>137</ele>
        <time>2025-07-24T13:13:07.289Z</time>
      </trkpt>
      <trkpt lat="44.07511" lon="0.5721">
        <ele>137</ele>
        <time>2025-07-24T13:13:08.289Z</time>
      </trkpt>
      <trkpt lat="44.0751" lon="0.57208">
        <ele>137</ele>
        <time>2025-07-24T13:13:09.289Z</time>
      </trkpt>
      <trkpt lat="44.0751" lon="0.57206">
        <ele>137</ele>
        <time>2025-07-24T13:13:10.289Z</time>
      </trkpt>
      <trkpt lat="44.0751" lon="0.57205">
        <ele>137</ele>
        <time>2025-07-24T13:13:11.289Z</time>
      </trkpt>
      <trkpt lat="44.0751" lon="0.57203">
        <ele>138</ele>
        <time>2025-07-24T13:13:12.289Z</time>
      </trkpt>
      <trkpt lat="44.07509" lon="0.57201">
        <ele>138</ele>
        <time>2025-07-24T13:13:13.289Z</time>
      </trkpt>
      <trkpt lat="44.07509" lon="0.57199">
        <ele>138</ele>
        <time>2025-07-24T13:13:14.289Z</time>
      </trkpt>
      <trkpt lat="44.07509" lon="0.57198">
        <ele>138</ele>
        <time>2025-07-24T13:13:15.289Z</time>
      </trkpt>
      <trkpt lat="44.07509" lon="0.57196">
        <ele>139</ele>
        <time>2025-07-24T13:13:16.289Z</time>
      </trkpt>
      <trkpt lat="44.07509" lon="0.57195">
        <ele>139</ele>
        <time>2025-07-24T13:13:17.289Z</time>
      </trkpt>
      <trkpt lat="44.07509" lon="0.57193">
        <ele>139</ele>
        <time>2025-07-24T13:13:18.289Z</time>
      </trkpt>
      <trkpt lat="44.07508" lon="0.57191">
        <ele>139</ele>
        <time>2025-07-24T13:13:19.289Z</time>
      </trkpt>
      <trkpt lat="44.07509" lon="0.5719">
        <ele>139</ele>
        <time>2025-07-24T13:13:20.289Z</time>
      </trkpt>
      <trkpt lat="44.07508" lon="0.57188">
        <ele>139</ele>
        <time>2025-07-24T13:13:21.289Z</time>
      </trkpt>
      <trkpt lat="44.07508" lon="0.57186">
        <ele>139</ele>
        <time>2025-07-24T13:13:22.289Z</time>
      </trkpt>
      <trkpt lat="44.07508" lon="0.57184">
        <ele>140</ele>
        <time>2025-07-24T13:13:23.289Z</time>
      </trkpt>
      <trkpt lat="44.07508" lon="0.57183">
        <ele>140</ele>
        <time>2025-07-24T13:13:24.289Z</time>
      </trkpt>
      <trkpt lat="44.07508" lon="0.57181">
        <ele>140</ele>
        <time>2025-07-24T13:13:25.289Z</time>
      </trkpt>
      <trkpt lat="44.07508" lon="0.5718">
        <ele>140</ele>
        <time>2025-07-24T13:13:26.289Z</time>
      </trkpt>
      <trkpt lat="44.07508" lon="0.57178">
        <ele>140</ele>
        <time>2025-07-24T13:13:27.289Z</time>
      </trkpt>
      <trkpt lat="44.07508" lon="0.57176">
        <ele>140</ele>
        <time>2025-07-24T13:13:28.289Z</time>
      </trkpt>
      <trkpt lat="44.07508" lon="0.57175">
        <ele>139</ele>
        <time>2025-07-24T13:13:29.289Z</time>
      </trkpt>
      <trkpt lat="44.07509" lon="0.57174">
        <ele>139</ele>
        <time>2025-07-24T13:13:30.289Z</time>
      </trkpt>
      <trkpt lat="44.07508" lon="0.57173">
        <ele>139</ele>
        <time>2025-07-24T13:13:31.289Z</time>
      </trkpt>
      <trkpt lat="44.07508" lon="0.57171">
        <ele>138</ele>
        <time>2025-07-24T13:13:32.289Z</time>
      </trkpt>
      <trkpt lat="44.07507" lon="0.5717">
        <ele>139</ele>
        <time>2025-07-24T13:13:33.289Z</time>
      </trkpt>
      <trkpt lat="44.07507" lon="0.57169">
        <ele>139</ele>
        <time>2025-07-24T13:13:34.289Z</time>
      </trkpt>
      <trkpt lat="44.07506" lon="0.57167">
        <ele>139</ele>
        <time>2025-07-24T13:13:35.289Z</time>
      </trkpt>
      <trkpt lat="44.07506" lon="0.57165">
        <ele>139</ele>
        <time>2025-07-24T13:13:36.289Z</time>
      </trkpt>
      <trkpt lat="44.07506" lon="0.57164">
        <ele>139</ele>
        <time>2025-07-24T13:13:37.289Z</time>
      </trkpt>
      <trkpt lat="44.07505" lon="0.57163">
        <ele>139</ele>
        <time>2025-07-24T13:13:38.289Z</time>
      </trkpt>
      <trkpt lat="44.07505" lon="0.57161">
        <ele>139</ele>
        <time>2025-07-24T13:13:39.289Z</time>
      </trkpt>
      <trkpt lat="44.07505" lon="0.5716">
        <ele>139</ele>
        <time>2025-07-24T13:13:40.289Z</time>
      </trkpt>
      <trkpt lat="44.07505" lon="0.57158">
        <ele>139</ele>
        <time>2025-07-24T13:13:41.289Z</time>
      </trkpt>
      <trkpt lat="44.07505" lon="0.57157">
        <ele>139</ele>
        <time>2025-07-24T13:13:42.289Z</time>
      </trkpt>
      <trkpt lat="44.07504" lon="0.57155">
        <ele>139</ele>
        <time>2025-07-24T13:13:43.289Z</time>
      </trkpt>
      <trkpt lat="44.07504" lon="0.57154">
        <ele>139</ele>
        <time>2025-07-24T13:13:44.289Z</time>
      </trkpt>
      <trkpt lat="44.07504" lon="0.57153">
        <ele>139</ele>
        <time>2025-07-24T13:13:45.289Z</time>
      </trkpt>
      <trkpt lat="44.07505" lon="0.57151">
        <ele>139</ele>
        <time>2025-07-24T13:13:46.289Z</time>
      </trkpt>
      <trkpt lat="44.07505" lon="0.5715">
        <ele>139</ele>
        <time>2025-07-24T13:13:47.289Z</time>
      </trkpt>
      <trkpt lat="44.07504" lon="0.57148">
        <ele>139</ele>
        <time>2025-07-24T13:13:48.289Z</time>
      </trkpt>
      <trkpt lat="44.07504" lon="0.57147">
        <ele>139</ele>
        <time>2025-07-24T13:13:49.289Z</time>
      </trkpt>
      <trkpt lat="44.07504" lon="0.57145">
        <ele>140</ele>
        <time>2025-07-24T13:13:50.289Z</time>
      </trkpt>
      <trkpt lat="44.07504" lon="0.57144">
        <ele>140</ele>
        <time>2025-07-24T13:13:51.289Z</time>
      </trkpt>
      <trkpt lat="44.07505" lon="0.57142">
        <ele>140</ele>
        <time>2025-07-24T13:13:52.289Z</time>
      </trkpt>
      <trkpt lat="44.07505" lon="0.57141">
        <ele>140</ele>
        <time>2025-07-24T13:13:53.289Z</time>
      </trkpt>
      <trkpt lat="44.07504" lon="0.5714">
        <ele>141</ele>
        <time>2025-07-24T13:13:54.289Z</time>
      </trkpt>
      <trkpt lat="44.07504" lon="0.57138">
        <ele>141</ele>
        <time>2025-07-24T13:13:55.289Z</time>
      </trkpt>
      <trkpt lat="44.07503" lon="0.57137">
        <ele>141</ele>
        <time>2025-07-24T13:13:56.289Z</time>
      </trkpt>
      <trkpt lat="44.07503" lon="0.57136">
        <ele>141</ele>
        <time>2025-07-24T13:13:57.289Z</time>
      </trkpt>
      <trkpt lat="44.07503" lon="0.57134">
        <ele>142</ele>
        <time>2025-07-24T13:13:58.289Z</time>
      </trkpt>
      <trkpt lat="44.07503" lon="0.57133">
        <ele>142</ele>
        <time>2025-07-24T13:13:59.289Z</time>
      </trkpt>
      <trkpt lat="44.07503" lon="0.57131">
        <ele>143</ele>
        <time>2025-07-24T13:14:00.289Z</time>
      </trkpt>
      <trkpt lat="44.07503" lon="0.5713">
        <ele>144</ele>
        <time>2025-07-24T13:14:01.289Z</time>
      </trkpt>
      <trkpt lat="44.07502" lon="0.57128">
        <ele>144</ele>
        <time>2025-07-24T13:14:02.289Z</time>
      </trkpt>
      <trkpt lat="44.07502" lon="0.57127">
        <ele>145</ele>
        <time>2025-07-24T13:14:03.289Z</time>
      </trkpt>
      <trkpt lat="44.07502" lon="0.57125">
        <ele>145</ele>
        <time>2025-07-24T13:14:04.289Z</time>
      </trkpt>
      <trkpt lat="44.07502" lon="0.57124">
        <ele>145</ele>
        <time>2025-07-24T13:14:05.289Z</time>
      </trkpt>
      <trkpt lat="44.07502" lon="0.57122">
        <ele>145</ele>
        <time>2025-07-24T13:14:06.289Z</time>
      </trkpt>
      <trkpt lat="44.07502" lon="0.57121">
        <ele>145</ele>
        <time>2025-07-24T13:14:07.289Z</time>
      </trkpt>
      <trkpt lat="44.07502" lon="0.5712">
        <ele>145</ele>
        <time>2025-07-24T13:14:08.289Z</time>
      </trkpt>
      <trkpt lat="44.07502" lon="0.57119">
        <ele>145</ele>
        <time>2025-07-24T13:14:09.289Z</time>
      </trkpt>
      <trkpt lat="44.07503" lon="0.57117">
        <ele>145</ele>
        <time>2025-07-24T13:14:10.289Z</time>
      </trkpt>
      <trkpt lat="44.07503" lon="0.57115">
        <ele>146</ele>
        <time>2025-07-24T13:14:11.289Z</time>
      </trkpt>
      <trkpt lat="44.07503" lon="0.57114">
        <ele>146</ele>
        <time>2025-07-24T13:14:12.289Z</time>
      </trkpt>
      <trkpt lat="44.07503" lon="0.57112">
        <ele>146</ele>
        <time>2025-07-24T13:14:13.289Z</time>
      </trkpt>
      <trkpt lat="44.07503" lon="0.57111">
        <ele>146</ele>
        <time>2025-07-24T13:14:14.289Z</time>
      </trkpt>
      <trkpt lat="44.07503" lon="0.5711">
        <ele>146</ele>
        <time>2025-07-24T13:14:15.289Z</time>
      </trkpt>
      <trkpt lat="44.07504" lon="0.57109">
        <ele>146</ele>
        <time>2025-07-24T13:14:16.289Z</time>
      </trkpt>
      <trkpt lat="44.07504" lon="0.57108">
        <ele>146</ele>
        <time>2025-07-24T13:14:17.289Z</time>
      </trkpt>
      <trkpt lat="44.07504" lon="0.57107">
        <ele>146</ele>
        <time>2025-07-24T13:14:18.289Z</time>
      </trkpt>
      <trkpt lat="44.07504" lon="0.57105">
        <ele>146</ele>
        <time>2025-07-24T13:14:19.289Z</time>
      </trkpt>
      <trkpt lat="44.07503" lon="0.57103">
        <ele>146</ele>
        <time>2025-07-24T13:14:20.289Z</time>
      </trkpt>
      <trkpt lat="44.07502" lon="0.57101">
        <ele>146</ele>
        <time>2025-07-24T13:14:21.289Z</time>
      </trkpt>
      <trkpt lat="44.07502" lon="0.571">
        <ele>146</ele>
        <time>2025-07-24T13:14:22.289Z</time>
      </trkpt>
      <trkpt lat="44.07501" lon="0.57099">
        <ele>146</ele>
        <time>2025-07-24T13:14:23.289Z</time>
      </trkpt>
      <trkpt lat="44.07502" lon="0.57097">
        <ele>146</ele>
        <time>2025-07-24T13:14:24.289Z</time>
      </trkpt>
      <trkpt lat="44.07502" lon="0.57095">
        <ele>146</ele>
        <time>2025-07-24T13:14:25.289Z</time>
      </trkpt>
      <trkpt lat="44.07502" lon="0.57094">
        <ele>146</ele>
        <time>2025-07-24T13:14:26.289Z</time>
      </trkpt>
      <trkpt lat="44.07502" lon="0.57093">
        <ele>146</ele>
        <time>2025-07-24T13:14:27.289Z</time>
      </trkpt>
      <trkpt lat="44.07502" lon="0.57091">
        <ele>146</ele>
        <time>2025-07-24T13:14:28.289Z</time>
      </trkpt>
      <trkpt lat="44.07501" lon="0.5709">
        <ele>146</ele>
        <time>2025-07-24T13:14:29.289Z</time>
      </trkpt>
      <trkpt lat="44.07501" lon="0.57089">
        <ele>146</ele>
        <time>2025-07-24T13:14:30.289Z</time>
      </trkpt>
      <trkpt lat="44.07501" lon="0.57087">
        <ele>146</ele>
        <time>2025-07-24T13:14:31.289Z</time>
      </trkpt>
      <trkpt lat="44.07501" lon="0.57086">
        <ele>146</ele>
        <time>2025-07-24T13:14:32.289Z</time>
      </trkpt>
      <trkpt lat="44.07501" lon="0.57084">
        <ele>146</ele>
        <time>2025-07-24T13:14:33.289Z</time>
      </trkpt>
      <trkpt lat="44.07501" lon="0.57083">
        <ele>146</ele>
        <time>2025-07-24T13:14:34.289Z</time>
      </trkpt>
      <trkpt lat="44.07502" lon="0.57082">
        <ele>146</ele>
        <time>2025-07-24T13:14:35.289Z</time>
      </trkpt>
      <trkpt lat="44.07502" lon="0.57081">
        <ele>146</ele>
        <time>2025-07-24T13:14:36.289Z</time>
      </trkpt>
      <trkpt lat="44.07502" lon="0.57081">
        <ele>146</ele>
        <time>2025-07-24T13:14:37.289Z</time>
      </trkpt>
      <trkpt lat="44.07502" lon="0.5708">
        <ele>146</ele>
        <time>2025-07-24T13:14:38.289Z</time>
      </trkpt>
      <trkpt lat="44.07503" lon="0.57079">
        <ele>146</ele>
        <time>2025-07-24T13:14:39.289Z</time>
      </trkpt>
      <trkpt lat="44.07503" lon="0.57078">
        <ele>147</ele>
        <time>2025-07-24T13:14:40.289Z</time>
      </trkpt>
      <trkpt lat="44.07503" lon="0.57077">
        <ele>147</ele>
        <time>2025-07-24T13:14:41.289Z</time>
      </trkpt>
      <trkpt lat="44.07503" lon="0.57076">
        <ele>147</ele>
        <time>2025-07-24T13:14:42.289Z</time>
      </trkpt>
      <trkpt lat="44.07503" lon="0.57075">
        <ele>146</ele>
        <time>2025-07-24T13:14:43.289Z</time>
      </trkpt>
      <trkpt lat="44.07503" lon="0.57075">
        <ele>146</ele>
        <time>2025-07-24T13:14:44.289Z</time>
      </trkpt>
      <trkpt lat="44.07503" lon="0.57074">
        <ele>146</ele>
        <time>2025-07-24T13:14:45.289Z</time>
      </trkpt>
      <trkpt lat="44.07503" lon="0.57073">
        <ele>146</ele>
        <time>2025-07-24T13:14:46.289Z</time>
      </trkpt>
      <trkpt lat="44.07503" lon="0.57072">
        <ele>146</ele>
        <time>2025-07-24T13:14:47.289Z</time>
      </trkpt>
      <trkpt lat="44.07503" lon="0.5707">
        <ele>146</ele>
        <time>2025-07-24T13:14:48.289Z</time>
      </trkpt>
      <trkpt lat="44.07502" lon="0.57069">
        <ele>146</ele>
        <time>2025-07-24T13:14:49.289Z</time>
      </trkpt>
      <trkpt lat="44.07502" lon="0.57067">
        <ele>146</ele>
        <time>2025-07-24T13:14:50.289Z</time>
      </trkpt>
      <trkpt lat="44.07502" lon="0.57066">
        <ele>147</ele>
        <time>2025-07-24T13:14:51.289Z</time>
      </trkpt>
      <trkpt lat="44.07502" lon="0.57065">
        <ele>147</ele>
        <time>2025-07-24T13:14:52.289Z</time>
      </trkpt>
      <trkpt lat="44.07501" lon="0.57063">
        <ele>147</ele>
        <time>2025-07-24T13:14:53.289Z</time>
      </trkpt>
      <trkpt lat="44.07501" lon="0.57062">
        <ele>147</ele>
        <time>2025-07-24T13:14:54.289Z</time>
      </trkpt>
      <trkpt lat="44.07501" lon="0.57061">
        <ele>147</ele>
        <time>2025-07-24T13:14:55.289Z</time>
      </trkpt>
      <trkpt lat="44.07501" lon="0.5706">
        <ele>147</ele>
        <time>2025-07-24T13:14:56.289Z</time>
      </trkpt>
      <trkpt lat="44.07501" lon="0.57058">
        <ele>147</ele>
        <time>2025-07-24T13:14:57.289Z</time>
      </trkpt>
      <trkpt lat="44.07501" lon="0.57057">
        <ele>147</ele>
        <time>2025-07-24T13:14:58.289Z</time>
      </trkpt>
      <trkpt lat="44.07501" lon="0.57056">
        <ele>147</ele>
        <time>2025-07-24T13:14:59.289Z</time>
      </trkpt>
      <trkpt lat="44.07501" lon="0.57055">
        <ele>147</ele>
        <time>2025-07-24T13:15:00.289Z</time>
      </trkpt>
      <trkpt lat="44.07501" lon="0.57054">
        <ele>147</ele>
        <time>2025-07-24T13:15:01.289Z</time>
      </trkpt>
      <trkpt lat="44.075" lon="0.57053">
        <ele>148</ele>
        <time>2025-07-24T13:15:02.289Z</time>
      </trkpt>
      <trkpt lat="44.075" lon="0.57052">
        <ele>148</ele>
        <time>2025-07-24T13:15:03.289Z</time>
      </trkpt>
      <trkpt lat="44.07499" lon="0.5705">
        <ele>148</ele>
        <time>2025-07-24T13:15:04.289Z</time>
      </trkpt>
      <trkpt lat="44.07499" lon="0.57049">
        <ele>148</ele>
        <time>2025-07-24T13:15:05.289Z</time>
      </trkpt>
      <trkpt lat="44.07499" lon="0.57048">
        <ele>148</ele>
        <time>2025-07-24T13:15:06.289Z</time>
      </trkpt>
      <trkpt lat="44.07499" lon="0.57046">
        <ele>148</ele>
        <time>2025-07-24T13:15:07.289Z</time>
      </trkpt>
      <trkpt lat="44.07499" lon="0.57045">
        <ele>148</ele>
        <time>2025-07-24T13:15:08.289Z</time>
      </trkpt>
      <trkpt lat="44.07499" lon="0.57044">
        <ele>148</ele>
        <time>2025-07-24T13:15:09.289Z</time>
      </trkpt>
      <trkpt lat="44.07499" lon="0.57042">
        <ele>149</ele>
        <time>2025-07-24T13:15:10.289Z</time>
      </trkpt>
      <trkpt lat="44.07499" lon="0.57041">
        <ele>149</ele>
        <time>2025-07-24T13:15:11.289Z</time>
      </trkpt>
      <trkpt lat="44.07499" lon="0.5704">
        <ele>149</ele>
        <time>2025-07-24T13:15:12.289Z</time>
      </trkpt>
      <trkpt lat="44.07498" lon="0.57038">
        <ele>150</ele>
        <time>2025-07-24T13:15:13.289Z</time>
      </trkpt>
      <trkpt lat="44.07498" lon="0.57037">
        <ele>150</ele>
        <time>2025-07-24T13:15:14.289Z</time>
      </trkpt>
      <trkpt lat="44.07498" lon="0.57035">
        <ele>150</ele>
        <time>2025-07-24T13:15:15.289Z</time>
      </trkpt>
      <trkpt lat="44.07498" lon="0.57034">
        <ele>150</ele>
        <time>2025-07-24T13:15:16.289Z</time>
      </trkpt>
      <trkpt lat="44.07498" lon="0.57033">
        <ele>151</ele>
        <time>2025-07-24T13:15:17.289Z</time>
      </trkpt>
      <trkpt lat="44.07498" lon="0.57031">
        <ele>151</ele>
        <time>2025-07-24T13:15:18.289Z</time>
      </trkpt>
      <trkpt lat="44.07498" lon="0.5703">
        <ele>151</ele>
        <time>2025-07-24T13:15:19.289Z</time>
      </trkpt>
      <trkpt lat="44.07498" lon="0.57029">
        <ele>151</ele>
        <time>2025-07-24T13:15:20.289Z</time>
      </trkpt>
      <trkpt lat="44.07498" lon="0.57027">
        <ele>151</ele>
        <time>2025-07-24T13:15:21.289Z</time>
      </trkpt>
      <trkpt lat="44.07498" lon="0.57026">
        <ele>150</ele>
        <time>2025-07-24T13:15:22.289Z</time>
      </trkpt>
      <trkpt lat="44.07497" lon="0.57024">
        <ele>150</ele>
        <time>2025-07-24T13:15:23.289Z</time>
      </trkpt>
      <trkpt lat="44.07497" lon="0.57022">
        <ele>150</ele>
        <time>2025-07-24T13:15:24.289Z</time>
      </trkpt>
      <trkpt lat="44.07497" lon="0.57021">
        <ele>150</ele>
        <time>2025-07-24T13:15:25.289Z</time>
      </trkpt>
      <trkpt lat="44.07497" lon="0.5702">
        <ele>150</ele>
        <time>2025-07-24T13:15:26.289Z</time>
      </trkpt>
      <trkpt lat="44.07497" lon="0.57018">
        <ele>150</ele>
        <time>2025-07-24T13:15:27.289Z</time>
      </trkpt>
      <trkpt lat="44.07497" lon="0.57017">
        <ele>150</ele>
        <time>2025-07-24T13:15:28.289Z</time>
      </trkpt>
      <trkpt lat="44.07497" lon="0.57015">
        <ele>150</ele>
        <time>2025-07-24T13:15:29.289Z</time>
      </trkpt>
      <trkpt lat="44.07497" lon="0.57014">
        <ele>150</ele>
        <time>2025-07-24T13:15:30.289Z</time>
      </trkpt>
      <trkpt lat="44.07497" lon="0.57012">
        <ele>151</ele>
        <time>2025-07-24T13:15:31.289Z</time>
      </trkpt>
      <trkpt lat="44.07497" lon="0.5701">
        <ele>151</ele>
        <time>2025-07-24T13:15:32.289Z</time>
      </trkpt>
      <trkpt lat="44.07497" lon="0.57009">
        <ele>151</ele>
        <time>2025-07-24T13:15:33.289Z</time>
      </trkpt>
      <trkpt lat="44.07497" lon="0.57008">
        <ele>151</ele>
        <time>2025-07-24T13:15:34.289Z</time>
      </trkpt>
      <trkpt lat="44.07497" lon="0.57007">
        <ele>151</ele>
        <time>2025-07-24T13:15:35.289Z</time>
      </trkpt>
      <trkpt lat="44.07497" lon="0.57006">
        <ele>151</ele>
        <time>2025-07-24T13:15:36.289Z</time>
      </trkpt>
      <trkpt lat="44.07497" lon="0.57005">
        <ele>150</ele>
        <time>2025-07-24T13:15:37.289Z</time>
      </trkpt>
      <trkpt lat="44.07498" lon="0.57005">
        <ele>150</ele>
        <time>2025-07-24T13:15:38.289Z</time>
      </trkpt>
      <trkpt lat="44.07498" lon="0.57004">
        <ele>150</ele>
        <time>2025-07-24T13:15:39.289Z</time>
      </trkpt>
      <trkpt lat="44.07498" lon="0.57002">
        <ele>150</ele>
        <time>2025-07-24T13:15:40.289Z</time>
      </trkpt>
      <trkpt lat="44.07497" lon="0.57001">
        <ele>151</ele>
        <time>2025-07-24T13:15:41.289Z</time>
      </trkpt>
      <trkpt lat="44.07497" lon="0.56999">
        <ele>151</ele>
        <time>2025-07-24T13:15:42.289Z</time>
      </trkpt>
      <trkpt lat="44.07497" lon="0.56997">
        <ele>151</ele>
        <time>2025-07-24T13:15:43.289Z</time>
      </trkpt>
      <trkpt lat="44.07496" lon="0.56996">
        <ele>152</ele>
        <time>2025-07-24T13:15:44.289Z</time>
      </trkpt>
      <trkpt lat="44.07496" lon="0.56994">
        <ele>152</ele>
        <time>2025-07-24T13:15:45.289Z</time>
      </trkpt>
      <trkpt lat="44.07496" lon="0.56993">
        <ele>152</ele>
        <time>2025-07-24T13:15:46.289Z</time>
      </trkpt>
      <trkpt lat="44.07496" lon="0.56992">
        <ele>152</ele>
        <time>2025-07-24T13:15:47.289Z</time>
      </trkpt>
      <trkpt lat="44.07495" lon="0.56991">
        <ele>152</ele>
        <time>2025-07-24T13:15:48.289Z</time>
      </trkpt>
      <trkpt lat="44.07495" lon="0.5699">
        <ele>153</ele>
        <time>2025-07-24T13:15:49.289Z</time>
      </trkpt>
      <trkpt lat="44.07496" lon="0.56988">
        <ele>153</ele>
        <time>2025-07-24T13:15:50.289Z</time>
      </trkpt>
      <trkpt lat="44.07496" lon="0.56987">
        <ele>153</ele>
        <time>2025-07-24T13:15:51.289Z</time>
      </trkpt>
      <trkpt lat="44.07495" lon="0.56986">
        <ele>153</ele>
        <time>2025-07-24T13:15:52.289Z</time>
      </trkpt>
      <trkpt lat="44.07495" lon="0.56984">
        <ele>154</ele>
        <time>2025-07-24T13:15:53.289Z</time>
      </trkpt>
      <trkpt lat="44.07495" lon="0.56982">
        <ele>154</ele>
        <time>2025-07-24T13:15:54.289Z</time>
      </trkpt>
      <trkpt lat="44.07495" lon="0.56981">
        <ele>155</ele>
        <time>2025-07-24T13:15:55.289Z</time>
      </trkpt>
      <trkpt lat="44.07494" lon="0.56979">
        <ele>155</ele>
        <time>2025-07-24T13:15:56.289Z</time>
      </trkpt>
      <trkpt lat="44.07494" lon="0.56978">
        <ele>155</ele>
        <time>2025-07-24T13:15:57.289Z</time>
      </trkpt>
      <trkpt lat="44.07494" lon="0.56976">
        <ele>155</ele>
        <time>2025-07-24T13:15:58.289Z</time>
      </trkpt>
      <trkpt lat="44.07494" lon="0.56975">
        <ele>155</ele>
        <time>2025-07-24T13:15:59.289Z</time>
      </trkpt>
      <trkpt lat="44.07494" lon="0.56973">
        <ele>155</ele>
        <time>2025-07-24T13:16:00.289Z</time>
      </trkpt>
      <trkpt lat="44.07494" lon="0.56972">
        <ele>155</ele>
        <time>2025-07-24T13:16:01.289Z</time>
      </trkpt>
      <trkpt lat="44.07494" lon="0.56971">
        <ele>155</ele>
        <time>2025-07-24T13:16:02.289Z</time>
      </trkpt>
      <trkpt lat="44.07493" lon="0.5697">
        <ele>154</ele>
        <time>2025-07-24T13:16:03.289Z</time>
      </trkpt>
      <trkpt lat="44.07493" lon="0.56968">
        <ele>154</ele>
        <time>2025-07-24T13:16:04.289Z</time>
      </trkpt>
      <trkpt lat="44.07492" lon="0.56966">
        <ele>154</ele>
        <time>2025-07-24T13:16:05.289Z</time>
      </trkpt>
      <trkpt lat="44.07492" lon="0.56965">
        <ele>154</ele>
        <time>2025-07-24T13:16:06.289Z</time>
      </trkpt>
      <trkpt lat="44.07492" lon="0.56963">
        <ele>154</ele>
        <time>2025-07-24T13:16:07.289Z</time>
      </trkpt>
      <trkpt lat="44.07492" lon="0.56963">
        <ele>154</ele>
        <time>2025-07-24T13:16:08.289Z</time>
      </trkpt>
      <trkpt lat="44.07492" lon="0.56963">
        <ele>154</ele>
        <time>2025-07-24T13:16:09.289Z</time>
      </trkpt>
      <trkpt lat="44.07492" lon="0.56962">
        <ele>154</ele>
        <time>2025-07-24T13:16:10.289Z</time>
      </trkpt>
      <trkpt lat="44.07491" lon="0.5696">
        <ele>154</ele>
        <time>2025-07-24T13:16:11.289Z</time>
      </trkpt>
      <trkpt lat="44.07491" lon="0.56959">
        <ele>154</ele>
        <time>2025-07-24T13:16:12.289Z</time>
      </trkpt>
      <trkpt lat="44.07491" lon="0.56957">
        <ele>154</ele>
        <time>2025-07-24T13:16:13.289Z</time>
      </trkpt>
      <trkpt lat="44.0749" lon="0.56956">
        <ele>155</ele>
        <time>2025-07-24T13:16:14.289Z</time>
      </trkpt>
      <trkpt lat="44.0749" lon="0.56956">
        <ele>155</ele>
        <time>2025-07-24T13:16:15.289Z</time>
      </trkpt>
      <trkpt lat="44.07489" lon="0.56954">
        <ele>156</ele>
        <time>2025-07-24T13:16:16.289Z</time>
      </trkpt>
      <trkpt lat="44.07489" lon="0.56953">
        <ele>157</ele>
        <time>2025-07-24T13:16:17.289Z</time>
      </trkpt>
      <trkpt lat="44.07489" lon="0.56952">
        <ele>157</ele>
        <time>2025-07-24T13:16:18.289Z</time>
      </trkpt>
      <trkpt lat="44.07489" lon="0.56951">
        <ele>158</ele>
        <time>2025-07-24T13:16:19.289Z</time>
      </trkpt>
      <trkpt lat="44.07488" lon="0.5695">
        <ele>158</ele>
        <time>2025-07-24T13:16:20.289Z</time>
      </trkpt>
      <trkpt lat="44.07488" lon="0.56948">
        <ele>159</ele>
        <time>2025-07-24T13:16:21.289Z</time>
      </trkpt>
      <trkpt lat="44.07488" lon="0.56947">
        <ele>159</ele>
        <time>2025-07-24T13:16:22.289Z</time>
      </trkpt>
      <trkpt lat="44.07488" lon="0.56946">
        <ele>159</ele>
        <time>2025-07-24T13:16:23.289Z</time>
      </trkpt>
      <trkpt lat="44.07488" lon="0.56944">
        <ele>159</ele>
        <time>2025-07-24T13:16:24.289Z</time>
      </trkpt>
      <trkpt lat="44.07488" lon="0.56943">
        <ele>160</ele>
        <time>2025-07-24T13:16:25.289Z</time>
      </trkpt>
      <trkpt lat="44.07487" lon="0.56941">
        <ele>160</ele>
        <time>2025-07-24T13:16:26.289Z</time>
      </trkpt>
      <trkpt lat="44.07486" lon="0.56939">
        <ele>160</ele>
        <time>2025-07-24T13:16:27.289Z</time>
      </trkpt>
      <trkpt lat="44.07486" lon="0.56937">
        <ele>160</ele>
        <time>2025-07-24T13:16:28.289Z</time>
      </trkpt>
      <trkpt lat="44.07486" lon="0.56934">
        <ele>160</ele>
        <time>2025-07-24T13:16:29.289Z</time>
      </trkpt>
      <trkpt lat="44.07486" lon="0.56933">
        <ele>160</ele>
        <time>2025-07-24T13:16:30.289Z</time>
      </trkpt>
      <trkpt lat="44.07486" lon="0.56933">
        <ele>160</ele>
        <time>2025-07-24T13:16:31.289Z</time>
      </trkpt>
      <trkpt lat="44.07486" lon="0.56932">
        <ele>160</ele>
        <time>2025-07-24T13:16:32.289Z</time>
      </trkpt>
      <trkpt lat="44.07487" lon="0.56932">
        <ele>160</ele>
        <time>2025-07-24T13:16:33.289Z</time>
      </trkpt>
      <trkpt lat="44.07486" lon="0.56931">
        <ele>160</ele>
        <time>2025-07-24T13:16:34.289Z</time>
      </trkpt>
      <trkpt lat="44.07486" lon="0.56929">
        <ele>161</ele>
        <time>2025-07-24T13:16:35.289Z</time>
      </trkpt>
      <trkpt lat="44.07486" lon="0.56928">
        <ele>161</ele>
        <time>2025-07-24T13:16:36.289Z</time>
      </trkpt>
      <trkpt lat="44.07486" lon="0.56927">
        <ele>161</ele>
        <time>2025-07-24T13:16:37.289Z</time>
      </trkpt>
      <trkpt lat="44.07486" lon="0.56927">
        <ele>162</ele>
        <time>2025-07-24T13:16:38.289Z</time>
      </trkpt>
      <trkpt lat="44.07486" lon="0.56926">
        <ele>162</ele>
        <time>2025-07-24T13:16:39.289Z</time>
      </trkpt>
      <trkpt lat="44.07485" lon="0.56925">
        <ele>162</ele>
        <time>2025-07-24T13:16:40.289Z</time>
      </trkpt>
      <trkpt lat="44.07485" lon="0.56924">
        <ele>162</ele>
        <time>2025-07-24T13:16:41.289Z</time>
      </trkpt>
      <trkpt lat="44.07485" lon="0.56923">
        <ele>161</ele>
        <time>2025-07-24T13:16:42.289Z</time>
      </trkpt>
      <trkpt lat="44.07486" lon="0.56923">
        <ele>161</ele>
        <time>2025-07-24T13:16:43.289Z</time>
      </trkpt>
      <trkpt lat="44.07486" lon="0.56923">
        <ele>160</ele>
        <time>2025-07-24T13:16:44.289Z</time>
      </trkpt>
      <trkpt lat="44.07486" lon="0.56923">
        <ele>160</ele>
        <time>2025-07-24T13:16:45.289Z</time>
      </trkpt>
      <trkpt lat="44.07486" lon="0.56923">
        <ele>160</ele>
        <time>2025-07-24T13:16:46.289Z</time>
      </trkpt>
      <trkpt lat="44.07486" lon="0.56923">
        <ele>160</ele>
        <time>2025-07-24T13:16:47.289Z</time>
      </trkpt>
      <trkpt lat="44.07486" lon="0.56923">
        <ele>160</ele>
        <time>2025-07-24T13:16:48.289Z</time>
      </trkpt>
      <trkpt lat="44.07486" lon="0.56923">
        <ele>160</ele>
        <time>2025-07-24T13:16:49.289Z</time>
      </trkpt>
      <trkpt lat="44.07486" lon="0.56923">
        <ele>160</ele>
        <time>2025-07-24T13:16:50.289Z</time>
      </trkpt>
      <trkpt lat="44.07486" lon="0.56923">
        <ele>160</ele>
        <time>2025-07-24T13:16:51.289Z</time>
      </trkpt>
      <trkpt lat="44.07486" lon="0.56923">
        <ele>160</ele>
        <time>2025-07-24T13:16:52.289Z</time>
      </trkpt>
      <trkpt lat="44.07486" lon="0.56923">
        <ele>160</ele>
        <time>2025-07-24T13:16:53.289Z</time>
      </trkpt>
      <trkpt lat="44.07485" lon="0.56923">
        <ele>160</ele>
        <time>2025-07-24T13:16:54.289Z</time>
      </trkpt>
      <trkpt lat="44.07485" lon="0.56923">
        <ele>160</ele>
        <time>2025-07-24T13:16:55.289Z</time>
      </trkpt>
      <trkpt lat="44.07486" lon="0.56923">
        <ele>160</ele>
        <time>2025-07-24T13:16:56.289Z</time>
      </trkpt>
      <trkpt lat="44.07486" lon="0.56923">
        <ele>160</ele>
        <time>2025-07-24T13:16:57.289Z</time>
      </trkpt>
      <trkpt lat="44.07486" lon="0.56923">
        <ele>161</ele>
        <time>2025-07-24T13:16:58.289Z</time>
      </trkpt>
      <trkpt lat="44.07486" lon="0.56923">
        <ele>161</ele>
        <time>2025-07-24T13:16:59.289Z</time>
      </trkpt>
      <trkpt lat="44.07486" lon="0.56923">
        <ele>160</ele>
        <time>2025-07-24T13:17:00.289Z</time>
      </trkpt>
      <trkpt lat="44.07486" lon="0.56923">
        <ele>160</ele>
        <time>2025-07-24T13:17:01.289Z</time>
      </trkpt>
      <trkpt lat="44.07486" lon="0.56923">
        <ele>160</ele>
        <time>2025-07-24T13:17:02.289Z</time>
      </trkpt>
      <trkpt lat="44.07486" lon="0.56923">
        <ele>160</ele>
        <time>2025-07-24T13:17:03.289Z</time>
      </trkpt>
      <trkpt lat="44.07486" lon="0.56923">
        <ele>159</ele>
        <time>2025-07-24T13:17:04.289Z</time>
      </trkpt>
      <trkpt lat="44.07486" lon="0.56923">
        <ele>158</ele>
        <time>2025-07-24T13:17:05.289Z</time>
      </trkpt>
      <trkpt lat="44.07486" lon="0.56923">
        <ele>158</ele>
        <time>2025-07-24T13:17:06.289Z</time>
      </trkpt>
      <trkpt lat="44.07486" lon="0.56923">
        <ele>158</ele>
        <time>2025-07-24T13:17:07.289Z</time>
      </trkpt>
      <trkpt lat="44.07486" lon="0.56923">
        <ele>157</ele>
        <time>2025-07-24T13:17:08.289Z</time>
      </trkpt>
      <trkpt lat="44.07486" lon="0.56923">
        <ele>157</ele>
        <time>2025-07-24T13:17:09.289Z</time>
      </trkpt>
      <trkpt lat="44.07486" lon="0.56923">
        <ele>156</ele>
        <time>2025-07-24T13:17:10.289Z</time>
      </trkpt>
      <trkpt lat="44.07486" lon="0.56923">
        <ele>156</ele>
        <time>2025-07-24T13:17:11.289Z</time>
      </trkpt>
      <trkpt lat="44.07486" lon="0.56923">
        <ele>155</ele>
        <time>2025-07-24T13:17:12.289Z</time>
      </trkpt>
      <trkpt lat="44.07486" lon="0.56923">
        <ele>155</ele>
        <time>2025-07-24T13:17:13.289Z</time>
      </trkpt>
      <trkpt lat="44.07486" lon="0.56923">
        <ele>155</ele>
        <time>2025-07-24T13:17:14.289Z</time>
      </trkpt>
      <trkpt lat="44.07486" lon="0.56923">
        <ele>154</ele>
        <time>2025-07-24T13:17:15.289Z</time>
      </trkpt>
      <trkpt lat="44.07486" lon="0.56923">
        <ele>154</ele>
        <time>2025-07-24T13:17:16.289Z</time>
      </trkpt>
      <trkpt lat="44.07486" lon="0.56923">
        <ele>154</ele>
        <time>2025-07-24T13:17:17.289Z</time>
      </trkpt>
      <trkpt lat="44.07486" lon="0.56923">
        <ele>154</ele>
        <time>2025-07-24T13:17:18.289Z</time>
      </trkpt>
      <trkpt lat="44.07486" lon="0.56923">
        <ele>154</ele>
        <time>2025-07-24T13:17:19.289Z</time>
      </trkpt>
      <trkpt lat="44.07486" lon="0.56923">
        <ele>154</ele>
        <time>2025-07-24T13:17:20.289Z</time>
      </trkpt>
      <trkpt lat="44.07486" lon="0.56923">
        <ele>153</ele>
        <time>2025-07-24T13:17:21.289Z</time>
      </trkpt>
      <trkpt lat="44.07486" lon="0.56923">
        <ele>154</ele>
        <time>2025-07-24T13:17:22.289Z</time>
      </trkpt>
      <trkpt lat="44.07486" lon="0.56923">
        <ele>154</ele>
        <time>2025-07-24T13:17:23.289Z</time>
      </trkpt>
      <trkpt lat="44.07486" lon="0.56923">
        <ele>154</ele>
        <time>2025-07-24T13:17:24.289Z</time>
      </trkpt>
      <trkpt lat="44.07486" lon="0.56923">
        <ele>154</ele>
        <time>2025-07-24T13:17:25.289Z</time>
      </trkpt>
      <trkpt lat="44.07486" lon="0.56923">
        <ele>154</ele>
        <time>2025-07-24T13:17:26.289Z</time>
      </trkpt>
      <trkpt lat="44.07486" lon="0.56923">
        <ele>155</ele>
        <time>2025-07-24T13:17:27.289Z</time>
      </trkpt>
      <trkpt lat="44.07486" lon="0.56923">
        <ele>155</ele>
        <time>2025-07-24T13:17:28.289Z</time>
      </trkpt>
      <trkpt lat="44.07486" lon="0.56923">
        <ele>155</ele>
        <time>2025-07-24T13:17:29.289Z</time>
      </trkpt>
      <trkpt lat="44.07486" lon="0.56923">
        <ele>155</ele>
        <time>2025-07-24T13:17:30.289Z</time>
      </trkpt>
      <trkpt lat="44.07486" lon="0.56923">
        <ele>156</ele>
        <time>2025-07-24T13:17:31.289Z</time>
      </trkpt>
      <trkpt lat="44.07486" lon="0.56923">
        <ele>156</ele>
        <time>2025-07-24T13:17:32.289Z</time>
      </trkpt>
      <trkpt lat="44.07486" lon="0.56923">
        <ele>157</ele>
        <time>2025-07-24T13:17:33.289Z</time>
      </trkpt>
      <trkpt lat="44.07486" lon="0.56923">
        <ele>157</ele>
        <time>2025-07-24T13:17:34.289Z</time>
      </trkpt>
      <trkpt lat="44.07486" lon="0.56923">
        <ele>158</ele>
        <time>2025-07-24T13:17:35.289Z</time>
      </trkpt>
      <trkpt lat="44.07486" lon="0.56923">
        <ele>158</ele>
        <time>2025-07-24T13:17:36.289Z</time>
      </trkpt>
      <trkpt lat="44.07486" lon="0.56923">
        <ele>159</ele>
        <time>2025-07-24T13:17:37.289Z</time>
      </trkpt>
      <trkpt lat="44.07486" lon="0.56923">
        <ele>159</ele>
        <time>2025-07-24T13:17:38.289Z</time>
      </trkpt>
      <trkpt lat="44.07486" lon="0.56923">
        <ele>159</ele>
        <time>2025-07-24T13:17:39.289Z</time>
      </trkpt>
      <trkpt lat="44.07486" lon="0.56923">
        <ele>159</ele>
        <time>2025-07-24T13:17:40.289Z</time>
      </trkpt>
      <trkpt lat="44.07486" lon="0.56923">
        <ele>159</ele>
        <time>2025-07-24T13:17:41.289Z</time>
      </trkpt>
      <trkpt lat="44.07486" lon="0.56923">
        <ele>159</ele>
        <time>2025-07-24T13:17:42.289Z</time>
      </trkpt>
      <trkpt lat="44.07486" lon="0.56923">
        <ele>159</ele>
        <time>2025-07-24T13:17:43.289Z</time>
      </trkpt>
      <trkpt lat="44.07486" lon="0.56923">
        <ele>159</ele>
        <time>2025-07-24T13:17:44.289Z</time>
      </trkpt>
      <trkpt lat="44.07486" lon="0.56923">
        <ele>159</ele>
        <time>2025-07-24T13:17:45.289Z</time>
      </trkpt>
      <trkpt lat="44.07485" lon="0.56922">
        <ele>159</ele>
        <time>2025-07-24T13:17:46.289Z</time>
      </trkpt>
      <trkpt lat="44.07485" lon="0.56922">
        <ele>158</ele>
        <time>2025-07-24T13:17:47.289Z</time>
      </trkpt>
      <trkpt lat="44.07485" lon="0.56922">
        <ele>158</ele>
        <time>2025-07-24T13:17:48.289Z</time>
      </trkpt>
      <trkpt lat="44.07485" lon="0.56922">
        <ele>158</ele>
        <time>2025-07-24T13:17:49.289Z</time>
      </trkpt>
      <trkpt lat="44.07485" lon="0.56921">
        <ele>159</ele>
        <time>2025-07-24T13:17:50.289Z</time>
      </trkpt>
      <trkpt lat="44.07485" lon="0.56921">
        <ele>159</ele>
        <time>2025-07-24T13:17:51.289Z</time>
      </trkpt>
      <trkpt lat="44.07485" lon="0.56921">
        <ele>159</ele>
        <time>2025-07-24T13:17:52.289Z</time>
      </trkpt>
      <trkpt lat="44.07485" lon="0.5692">
        <ele>159</ele>
        <time>2025-07-24T13:17:53.289Z</time>
      </trkpt>
      <trkpt lat="44.07485" lon="0.5692">
        <ele>159</ele>
        <time>2025-07-24T13:17:54.289Z</time>
      </trkpt>
      <trkpt lat="44.07485" lon="0.5692">
        <ele>159</ele>
        <time>2025-07-24T13:17:55.289Z</time>
      </trkpt>
      <trkpt lat="44.07485" lon="0.5692">
        <ele>160</ele>
        <time>2025-07-24T13:17:56.289Z</time>
      </trkpt>
      <trkpt lat="44.07485" lon="0.5692">
        <ele>160</ele>
        <time>2025-07-24T13:17:57.289Z</time>
      </trkpt>
      <trkpt lat="44.07485" lon="0.5692">
        <ele>160</ele>
        <time>2025-07-24T13:17:58.289Z</time>
      </trkpt>
      <trkpt lat="44.07485" lon="0.5692">
        <ele>159</ele>
        <time>2025-07-24T13:17:59.289Z</time>
      </trkpt>
      <trkpt lat="44.07485" lon="0.5692">
        <ele>159</ele>
        <time>2025-07-24T13:18:00.289Z</time>
      </trkpt>
      <trkpt lat="44.07485" lon="0.5692">
        <ele>159</ele>
        <time>2025-07-24T13:18:01.289Z</time>
      </trkpt>
      <trkpt lat="44.07485" lon="0.56921">
        <ele>159</ele>
        <time>2025-07-24T13:18:02.289Z</time>
      </trkpt>
      <trkpt lat="44.07485" lon="0.56921">
        <ele>159</ele>
        <time>2025-07-24T13:18:03.289Z</time>
      </trkpt>
      <trkpt lat="44.07485" lon="0.56921">
        <ele>159</ele>
        <time>2025-07-24T13:18:04.289Z</time>
      </trkpt>
      <trkpt lat="44.07484" lon="0.56921">
        <ele>159</ele>
        <time>2025-07-24T13:18:05.289Z</time>
      </trkpt>
      <trkpt lat="44.07484" lon="0.56922">
        <ele>159</ele>
        <time>2025-07-24T13:18:06.289Z</time>
      </trkpt>
      <trkpt lat="44.07483" lon="0.56923">
        <ele>159</ele>
        <time>2025-07-24T13:18:07.289Z</time>
      </trkpt>
      <trkpt lat="44.07483" lon="0.56923">
        <ele>159</ele>
        <time>2025-07-24T13:18:08.289Z</time>
      </trkpt>
      <trkpt lat="44.07483" lon="0.56923">
        <ele>159</ele>
        <time>2025-07-24T13:18:09.289Z</time>
      </trkpt>
      <trkpt lat="44.07483" lon="0.56922">
        <ele>159</ele>
        <time>2025-07-24T13:18:10.289Z</time>
      </trkpt>
      <trkpt lat="44.07483" lon="0.56922">
        <ele>159</ele>
        <time>2025-07-24T13:18:11.289Z</time>
      </trkpt>
      <trkpt lat="44.07483" lon="0.56922">
        <ele>159</ele>
        <time>2025-07-24T13:18:12.289Z</time>
      </trkpt>
      <trkpt lat="44.07482" lon="0.56922">
        <ele>160</ele>
        <time>2025-07-24T13:18:13.289Z</time>
      </trkpt>
      <trkpt lat="44.07482" lon="0.56922">
        <ele>160</ele>
        <time>2025-07-24T13:18:14.289Z</time>
      </trkpt>
      <trkpt lat="44.07483" lon="0.56922">
        <ele>161</ele>
        <time>2025-07-24T13:18:15.289Z</time>
      </trkpt>
      <trkpt lat="44.07483" lon="0.56922">
        <ele>161</ele>
        <time>2025-07-24T13:18:16.289Z</time>
      </trkpt>
      <trkpt lat="44.07483" lon="0.56922">
        <ele>162</ele>
        <time>2025-07-24T13:18:17.289Z</time>
      </trkpt>
      <trkpt lat="44.07483" lon="0.56923">
        <ele>162</ele>
        <time>2025-07-24T13:18:18.289Z</time>
      </trkpt>
      <trkpt lat="44.07483" lon="0.56923">
        <ele>162</ele>
        <time>2025-07-24T13:18:19.289Z</time>
      </trkpt>
      <trkpt lat="44.07483" lon="0.56923">
        <ele>162</ele>
        <time>2025-07-24T13:18:20.289Z</time>
      </trkpt>
      <trkpt lat="44.07483" lon="0.56923">
        <ele>162</ele>
        <time>2025-07-24T13:18:21.289Z</time>
      </trkpt>
      <trkpt lat="44.07483" lon="0.56923">
        <ele>162</ele>
        <time>2025-07-24T13:18:22.289Z</time>
      </trkpt>
      <trkpt lat="44.07483" lon="0.56923">
        <ele>162</ele>
        <time>2025-07-24T13:18:23.289Z</time>
      </trkpt>
      <trkpt lat="44.07483" lon="0.56923">
        <ele>161</ele>
        <time>2025-07-24T13:18:24.289Z</time>
      </trkpt>
      <trkpt lat="44.07484" lon="0.56923">
        <ele>161</ele>
        <time>2025-07-24T13:18:25.289Z</time>
      </trkpt>
      <trkpt lat="44.07484" lon="0.56923">
        <ele>161</ele>
        <time>2025-07-24T13:18:26.289Z</time>
      </trkpt>
      <trkpt lat="44.07484" lon="0.56923">
        <ele>161</ele>
        <time>2025-07-24T13:18:27.289Z</time>
      </trkpt>
      <trkpt lat="44.07484" lon="0.56922">
        <ele>162</ele>
        <time>2025-07-24T13:18:28.289Z</time>
      </trkpt>
      <trkpt lat="44.07484" lon="0.56922">
        <ele>162</ele>
        <time>2025-07-24T13:18:29.289Z</time>
      </trkpt>
      <trkpt lat="44.07484" lon="0.56922">
        <ele>162</ele>
        <time>2025-07-24T13:18:30.289Z</time>
      </trkpt>
      <trkpt lat="44.07484" lon="0.56922">
        <ele>163</ele>
        <time>2025-07-24T13:18:31.289Z</time>
      </trkpt>
      <trkpt lat="44.07484" lon="0.56922">
        <ele>163</ele>
        <time>2025-07-24T13:18:32.289Z</time>
      </trkpt>
      <trkpt lat="44.07484" lon="0.56922">
        <ele>163</ele>
        <time>2025-07-24T13:18:33.289Z</time>
      </trkpt>
      <trkpt lat="44.07484" lon="0.56922">
        <ele>163</ele>
        <time>2025-07-24T13:18:34.289Z</time>
      </trkpt>
      <trkpt lat="44.07484" lon="0.56922">
        <ele>163</ele>
        <time>2025-07-24T13:18:35.289Z</time>
      </trkpt>
      <trkpt lat="44.07483" lon="0.56922">
        <ele>163</ele>
        <time>2025-07-24T13:18:36.289Z</time>
      </trkpt>
      <trkpt lat="44.07483" lon="0.56922">
        <ele>163</ele>
        <time>2025-07-24T13:18:37.289Z</time>
      </trkpt>
      <trkpt lat="44.07483" lon="0.56922">
        <ele>163</ele>
        <time>2025-07-24T13:18:38.289Z</time>
      </trkpt>
      <trkpt lat="44.07483" lon="0.56922">
        <ele>163</ele>
        <time>2025-07-24T13:18:39.289Z</time>
      </trkpt>
      <trkpt lat="44.07484" lon="0.56922">
        <ele>163</ele>
        <time>2025-07-24T13:18:40.289Z</time>
      </trkpt>
      <trkpt lat="44.07484" lon="0.56922">
        <ele>163</ele>
        <time>2025-07-24T13:18:41.289Z</time>
      </trkpt>
      <trkpt lat="44.07483" lon="0.56922">
        <ele>163</ele>
        <time>2025-07-24T13:18:42.289Z</time>
      </trkpt>
      <trkpt lat="44.07483" lon="0.56923">
        <ele>163</ele>
        <time>2025-07-24T13:18:43.289Z</time>
      </trkpt>
      <trkpt lat="44.07483" lon="0.56923">
        <ele>162</ele>
        <time>2025-07-24T13:18:44.289Z</time>
      </trkpt>
      <trkpt lat="44.07484" lon="0.56922">
        <ele>162</ele>
        <time>2025-07-24T13:18:45.289Z</time>
      </trkpt>
      <trkpt lat="44.07484" lon="0.56922">
        <ele>162</ele>
        <time>2025-07-24T13:18:46.289Z</time>
      </trkpt>
      <trkpt lat="44.07484" lon="0.56922">
        <ele>162</ele>
        <time>2025-07-24T13:18:47.289Z</time>
      </trkpt>
      <trkpt lat="44.07484" lon="0.56922">
        <ele>162</ele>
        <time>2025-07-24T13:18:48.289Z</time>
      </trkpt>
      <trkpt lat="44.07484" lon="0.56922">
        <ele>161</ele>
        <time>2025-07-24T13:18:49.289Z</time>
      </trkpt>
      <trkpt lat="44.07484" lon="0.56922">
        <ele>161</ele>
        <time>2025-07-24T13:18:50.289Z</time>
      </trkpt>
      <trkpt lat="44.07484" lon="0.56922">
        <ele>160</ele>
        <time>2025-07-24T13:18:51.289Z</time>
      </trkpt>
      <trkpt lat="44.07485" lon="0.56922">
        <ele>160</ele>
        <time>2025-07-24T13:18:52.289Z</time>
      </trkpt>
      <trkpt lat="44.07485" lon="0.56922">
        <ele>159</ele>
        <time>2025-07-24T13:18:53.289Z</time>
      </trkpt>
      <trkpt lat="44.07485" lon="0.56922">
        <ele>159</ele>
        <time>2025-07-24T13:18:54.289Z</time>
      </trkpt>
      <trkpt lat="44.07485" lon="0.56922">
        <ele>159</ele>
        <time>2025-07-24T13:18:55.289Z</time>
      </trkpt>
      <trkpt lat="44.07485" lon="0.56922">
        <ele>159</ele>
        <time>2025-07-24T13:18:56.289Z</time>
      </trkpt>
      <trkpt lat="44.07485" lon="0.56922">
        <ele>159</ele>
        <time>2025-07-24T13:18:57.289Z</time>
      </trkpt>
      <trkpt lat="44.07485" lon="0.56922">
        <ele>159</ele>
        <time>2025-07-24T13:18:58.289Z</time>
      </trkpt>
      <trkpt lat="44.07485" lon="0.56922">
        <ele>158</ele>
        <time>2025-07-24T13:18:59.289Z</time>
      </trkpt>
      <trkpt lat="44.07486" lon="0.56922">
        <ele>158</ele>
        <time>2025-07-24T13:19:00.289Z</time>
      </trkpt>
      <trkpt lat="44.07486" lon="0.56921">
        <ele>158</ele>
        <time>2025-07-24T13:19:01.289Z</time>
      </trkpt>
      <trkpt lat="44.07486" lon="0.56921">
        <ele>158</ele>
        <time>2025-07-24T13:19:02.289Z</time>
      </trkpt>
      <trkpt lat="44.07485" lon="0.5692">
        <ele>158</ele>
        <time>2025-07-24T13:19:03.289Z</time>
      </trkpt>
      <trkpt lat="44.07485" lon="0.5692">
        <ele>158</ele>
        <time>2025-07-24T13:19:04.289Z</time>
      </trkpt>
      <trkpt lat="44.07486" lon="0.5692">
        <ele>158</ele>
        <time>2025-07-24T13:19:05.289Z</time>
      </trkpt>
      <trkpt lat="44.07486" lon="0.5692">
        <ele>158</ele>
        <time>2025-07-24T13:19:06.289Z</time>
      </trkpt>
      <trkpt lat="44.07486" lon="0.5692">
        <ele>159</ele>
        <time>2025-07-24T13:19:07.289Z</time>
      </trkpt>
      <trkpt lat="44.07486" lon="0.5692">
        <ele>159</ele>
        <time>2025-07-24T13:19:08.289Z</time>
      </trkpt>
      <trkpt lat="44.07487" lon="0.56921">
        <ele>159</ele>
        <time>2025-07-24T13:19:09.289Z</time>
      </trkpt>
      <trkpt lat="44.07487" lon="0.5692">
        <ele>159</ele>
        <time>2025-07-24T13:19:10.289Z</time>
      </trkpt>
      <trkpt lat="44.07487" lon="0.5692">
        <ele>160</ele>
        <time>2025-07-24T13:19:11.289Z</time>
      </trkpt>
      <trkpt lat="44.07487" lon="0.5692">
        <ele>160</ele>
        <time>2025-07-24T13:19:12.289Z</time>
      </trkpt>
      <trkpt lat="44.07488" lon="0.5692">
        <ele>160</ele>
        <time>2025-07-24T13:19:13.289Z</time>
      </trkpt>
      <trkpt lat="44.07488" lon="0.56921">
        <ele>159</ele>
        <time>2025-07-24T13:19:14.289Z</time>
      </trkpt>
      <trkpt lat="44.07488" lon="0.56921">
        <ele>159</ele>
        <time>2025-07-24T13:19:15.289Z</time>
      </trkpt>
      <trkpt lat="44.07488" lon="0.56921">
        <ele>159</ele>
        <time>2025-07-24T13:19:16.289Z</time>
      </trkpt>
      <trkpt lat="44.07488" lon="0.56922">
        <ele>159</ele>
        <time>2025-07-24T13:19:17.289Z</time>
      </trkpt>
      <trkpt lat="44.07488" lon="0.56922">
        <ele>159</ele>
        <time>2025-07-24T13:19:18.289Z</time>
      </trkpt>
      <trkpt lat="44.07488" lon="0.56922">
        <ele>159</ele>
        <time>2025-07-24T13:19:19.289Z</time>
      </trkpt>
      <trkpt lat="44.07488" lon="0.56922">
        <ele>159</ele>
        <time>2025-07-24T13:19:20.289Z</time>
      </trkpt>
      <trkpt lat="44.07488" lon="0.56921">
        <ele>159</ele>
        <time>2025-07-24T13:19:21.289Z</time>
      </trkpt>
      <trkpt lat="44.07488" lon="0.56921">
        <ele>159</ele>
        <time>2025-07-24T13:19:22.289Z</time>
      </trkpt>
      <trkpt lat="44.07489" lon="0.56921">
        <ele>159</ele>
        <time>2025-07-24T13:19:23.289Z</time>
      </trkpt>
      <trkpt lat="44.07489" lon="0.56921">
        <ele>159</ele>
        <time>2025-07-24T13:19:24.289Z</time>
      </trkpt>
      <trkpt lat="44.07489" lon="0.56921">
        <ele>159</ele>
        <time>2025-07-24T13:19:25.289Z</time>
      </trkpt>
      <trkpt lat="44.07489" lon="0.56921">
        <ele>160</ele>
        <time>2025-07-24T13:19:26.289Z</time>
      </trkpt>
      <trkpt lat="44.07489" lon="0.56921">
        <ele>160</ele>
        <time>2025-07-24T13:19:27.289Z</time>
      </trkpt>
      <trkpt lat="44.07489" lon="0.56921">
        <ele>159</ele>
        <time>2025-07-24T13:19:28.289Z</time>
      </trkpt>
      <trkpt lat="44.07489" lon="0.56921">
        <ele>159</ele>
        <time>2025-07-24T13:19:29.289Z</time>
      </trkpt>
      <trkpt lat="44.07489" lon="0.56921">
        <ele>159</ele>
        <time>2025-07-24T13:19:30.289Z</time>
      </trkpt>
      <trkpt lat="44.07489" lon="0.56921">
        <ele>159</ele>
        <time>2025-07-24T13:19:31.289Z</time>
      </trkpt>
      <trkpt lat="44.07489" lon="0.56921">
        <ele>159</ele>
        <time>2025-07-24T13:19:32.289Z</time>
      </trkpt>
      <trkpt lat="44.07489" lon="0.56921">
        <ele>159</ele>
        <time>2025-07-24T13:19:33.289Z</time>
      </trkpt>
      <trkpt lat="44.07489" lon="0.56921">
        <ele>159</ele>
        <time>2025-07-24T13:19:34.290Z</time>
      </trkpt>
      <trkpt lat="44.07489" lon="0.56922">
        <ele>160</ele>
        <time>2025-07-24T13:19:35.289Z</time>
      </trkpt>
      <trkpt lat="44.07489" lon="0.56921">
        <ele>160</ele>
        <time>2025-07-24T13:19:36.289Z</time>
      </trkpt>
      <trkpt lat="44.07488" lon="0.56921">
        <ele>160</ele>
        <time>2025-07-24T13:19:37.289Z</time>
      </trkpt>
      <trkpt lat="44.07488" lon="0.56921">
        <ele>160</ele>
        <time>2025-07-24T13:19:38.289Z</time>
      </trkpt>
      <trkpt lat="44.07488" lon="0.56921">
        <ele>161</ele>
        <time>2025-07-24T13:19:39.289Z</time>
      </trkpt>
      <trkpt lat="44.07488" lon="0.56921">
        <ele>161</ele>
        <time>2025-07-24T13:19:40.289Z</time>
      </trkpt>
      <trkpt lat="44.07488" lon="0.56921">
        <ele>161</ele>
        <time>2025-07-24T13:19:41.289Z</time>
      </trkpt>
      <trkpt lat="44.07488" lon="0.56921">
        <ele>161</ele>
        <time>2025-07-24T13:19:42.289Z</time>
      </trkpt>
      <trkpt lat="44.07488" lon="0.56921">
        <ele>161</ele>
        <time>2025-07-24T13:19:43.289Z</time>
      </trkpt>
      <trkpt lat="44.07488" lon="0.5692">
        <ele>161</ele>
        <time>2025-07-24T13:19:44.289Z</time>
      </trkpt>
      <trkpt lat="44.07488" lon="0.5692">
        <ele>161</ele>
        <time>2025-07-24T13:19:45.289Z</time>
      </trkpt>
      <trkpt lat="44.07488" lon="0.5692">
        <ele>161</ele>
        <time>2025-07-24T13:19:46.289Z</time>
      </trkpt>
      <trkpt lat="44.07488" lon="0.5692">
        <ele>160</ele>
        <time>2025-07-24T13:19:47.289Z</time>
      </trkpt>
      <trkpt lat="44.07488" lon="0.56921">
        <ele>159</ele>
        <time>2025-07-24T13:19:48.289Z</time>
      </trkpt>
      <trkpt lat="44.07488" lon="0.56921">
        <ele>158</ele>
        <time>2025-07-24T13:19:49.289Z</time>
      </trkpt>
      <trkpt lat="44.07489" lon="0.56921">
        <ele>157</ele>
        <time>2025-07-24T13:19:50.289Z</time>
      </trkpt>
      <trkpt lat="44.07489" lon="0.56921">
        <ele>156</ele>
        <time>2025-07-24T13:19:51.289Z</time>
      </trkpt>
      <trkpt lat="44.07489" lon="0.56921">
        <ele>155</ele>
        <time>2025-07-24T13:19:52.289Z</time>
      </trkpt>
      <trkpt lat="44.07489" lon="0.56921">
        <ele>155</ele>
        <time>2025-07-24T13:19:53.289Z</time>
      </trkpt>
      <trkpt lat="44.07489" lon="0.56921">
        <ele>155</ele>
        <time>2025-07-24T13:19:54.289Z</time>
      </trkpt>
      <trkpt lat="44.07489" lon="0.56921">
        <ele>155</ele>
        <time>2025-07-24T13:19:55.289Z</time>
      </trkpt>
      <trkpt lat="44.07489" lon="0.56921">
        <ele>155</ele>
        <time>2025-07-24T13:19:56.289Z</time>
      </trkpt>
      <trkpt lat="44.07489" lon="0.56921">
        <ele>155</ele>
        <time>2025-07-24T13:19:57.289Z</time>
      </trkpt>
      <trkpt lat="44.07489" lon="0.56921">
        <ele>155</ele>
        <time>2025-07-24T13:19:58.289Z</time>
      </trkpt>
      <trkpt lat="44.07489" lon="0.56921">
        <ele>156</ele>
        <time>2025-07-24T13:19:59.289Z</time>
      </trkpt>
      <trkpt lat="44.07489" lon="0.56921">
        <ele>156</ele>
        <time>2025-07-24T13:20:00.289Z</time>
      </trkpt>
      <trkpt lat="44.07488" lon="0.56921">
        <ele>156</ele>
        <time>2025-07-24T13:20:01.289Z</time>
      </trkpt>
      <trkpt lat="44.07488" lon="0.56921">
        <ele>157</ele>
        <time>2025-07-24T13:20:02.289Z</time>
      </trkpt>
      <trkpt lat="44.07489" lon="0.56921">
        <ele>157</ele>
        <time>2025-07-24T13:20:03.289Z</time>
      </trkpt>
      <trkpt lat="44.07488" lon="0.56921">
        <ele>157</ele>
        <time>2025-07-24T13:20:04.289Z</time>
      </trkpt>
      <trkpt lat="44.07488" lon="0.56922">
        <ele>158</ele>
        <time>2025-07-24T13:20:05.289Z</time>
      </trkpt>
      <trkpt lat="44.07488" lon="0.56922">
        <ele>158</ele>
        <time>2025-07-24T13:20:06.289Z</time>
      </trkpt>
      <trkpt lat="44.07487" lon="0.56923">
        <ele>159</ele>
        <time>2025-07-24T13:20:07.289Z</time>
      </trkpt>
      <trkpt lat="44.07487" lon="0.56923">
        <ele>159</ele>
        <time>2025-07-24T13:20:08.289Z</time>
      </trkpt>
      <trkpt lat="44.07487" lon="0.56923">
        <ele>160</ele>
        <time>2025-07-24T13:20:09.289Z</time>
      </trkpt>
      <trkpt lat="44.07487" lon="0.56923">
        <ele>160</ele>
        <time>2025-07-24T13:20:10.289Z</time>
      </trkpt>
      <trkpt lat="44.07486" lon="0.56923">
        <ele>160</ele>
        <time>2025-07-24T13:20:11.289Z</time>
      </trkpt>
      <trkpt lat="44.07486" lon="0.56923">
        <ele>160</ele>
        <time>2025-07-24T13:20:12.289Z</time>
      </trkpt>
      <trkpt lat="44.07486" lon="0.56923">
        <ele>161</ele>
        <time>2025-07-24T13:20:13.290Z</time>
      </trkpt>
      <trkpt lat="44.07486" lon="0.56922">
        <ele>161</ele>
        <time>2025-07-24T13:20:14.289Z</time>
      </trkpt>
      <trkpt lat="44.07486" lon="0.56922">
        <ele>161</ele>
        <time>2025-07-24T13:20:15.289Z</time>
      </trkpt>
      <trkpt lat="44.07486" lon="0.56922">
        <ele>161</ele>
        <time>2025-07-24T13:20:16.289Z</time>
      </trkpt>
      <trkpt lat="44.07486" lon="0.56922">
        <ele>161</ele>
        <time>2025-07-24T13:20:17.289Z</time>
      </trkpt>
      <trkpt lat="44.07486" lon="0.56921">
        <ele>161</ele>
        <time>2025-07-24T13:20:18.289Z</time>
      </trkpt>
      <trkpt lat="44.07486" lon="0.56921">
        <ele>162</ele>
        <time>2025-07-24T13:20:19.289Z</time>
      </trkpt>
      <trkpt lat="44.07486" lon="0.56921">
        <ele>162</ele>
        <time>2025-07-24T13:20:20.289Z</time>
      </trkpt>
      <trkpt lat="44.07486" lon="0.56921">
        <ele>163</ele>
        <time>2025-07-24T13:20:21.289Z</time>
      </trkpt>
      <trkpt lat="44.07486" lon="0.56921">
        <ele>163</ele>
        <time>2025-07-24T13:20:22.289Z</time>
      </trkpt>
      <trkpt lat="44.07486" lon="0.56921">
        <ele>163</ele>
        <time>2025-07-24T13:20:23.289Z</time>
      </trkpt>
      <trkpt lat="44.07487" lon="0.56921">
        <ele>163</ele>
        <time>2025-07-24T13:20:24.289Z</time>
      </trkpt>
      <trkpt lat="44.07487" lon="0.56921">
        <ele>163</ele>
        <time>2025-07-24T13:20:25.289Z</time>
      </trkpt>
      <trkpt lat="44.07487" lon="0.5692">
        <ele>163</ele>
        <time>2025-07-24T13:20:26.289Z</time>
      </trkpt>
      <trkpt lat="44.07487" lon="0.5692">
        <ele>163</ele>
        <time>2025-07-24T13:20:27.289Z</time>
      </trkpt>
      <trkpt lat="44.07487" lon="0.5692">
        <ele>163</ele>
        <time>2025-07-24T13:20:28.289Z</time>
      </trkpt>
      <trkpt lat="44.07487" lon="0.5692">
        <ele>162</ele>
        <time>2025-07-24T13:20:29.289Z</time>
      </trkpt>
      <trkpt lat="44.07487" lon="0.5692">
        <ele>162</ele>
        <time>2025-07-24T13:20:30.289Z</time>
      </trkpt>
      <trkpt lat="44.07487" lon="0.5692">
        <ele>162</ele>
        <time>2025-07-24T13:20:31.289Z</time>
      </trkpt>
      <trkpt lat="44.07487" lon="0.5692">
        <ele>161</ele>
        <time>2025-07-24T13:20:32.289Z</time>
      </trkpt>
      <trkpt lat="44.07487" lon="0.5692">
        <ele>161</ele>
        <time>2025-07-24T13:20:33.289Z</time>
      </trkpt>
      <trkpt lat="44.07487" lon="0.5692">
        <ele>161</ele>
        <time>2025-07-24T13:20:34.289Z</time>
      </trkpt>
      <trkpt lat="44.07487" lon="0.5692">
        <ele>161</ele>
        <time>2025-07-24T13:20:35.289Z</time>
      </trkpt>
      <trkpt lat="44.07487" lon="0.5692">
        <ele>160</ele>
        <time>2025-07-24T13:20:36.289Z</time>
      </trkpt>
      <trkpt lat="44.07487" lon="0.5692">
        <ele>160</ele>
        <time>2025-07-24T13:20:37.289Z</time>
      </trkpt>
      <trkpt lat="44.07486" lon="0.5692">
        <ele>160</ele>
        <time>2025-07-24T13:20:38.289Z</time>
      </trkpt>
      <trkpt lat="44.07487" lon="0.5692">
        <ele>159</ele>
        <time>2025-07-24T13:20:39.289Z</time>
      </trkpt>
      <trkpt lat="44.07487" lon="0.5692">
        <ele>159</ele>
        <time>2025-07-24T13:20:40.290Z</time>
      </trkpt>
      <trkpt lat="44.07487" lon="0.5692">
        <ele>159</ele>
        <time>2025-07-24T13:20:41.289Z</time>
      </trkpt>
      <trkpt lat="44.07487" lon="0.5692">
        <ele>159</ele>
        <time>2025-07-24T13:20:42.289Z</time>
      </trkpt>
      <trkpt lat="44.07487" lon="0.5692">
        <ele>159</ele>
        <time>2025-07-24T13:20:43.289Z</time>
      </trkpt>
      <trkpt lat="44.07487" lon="0.5692">
        <ele>158</ele>
        <time>2025-07-24T13:20:44.289Z</time>
      </trkpt>
      <trkpt lat="44.07487" lon="0.56919">
        <ele>158</ele>
        <time>2025-07-24T13:20:45.289Z</time>
      </trkpt>
      <trkpt lat="44.07487" lon="0.56919">
        <ele>158</ele>
        <time>2025-07-24T13:20:46.289Z</time>
      </trkpt>
      <trkpt lat="44.07486" lon="0.56919">
        <ele>158</ele>
        <time>2025-07-24T13:20:47.289Z</time>
      </trkpt>
      <trkpt lat="44.07487" lon="0.56919">
        <ele>158</ele>
        <time>2025-07-24T13:20:48.289Z</time>
      </trkpt>
      <trkpt lat="44.07487" lon="0.56919">
        <ele>157</ele>
        <time>2025-07-24T13:20:49.289Z</time>
      </trkpt>
      <trkpt lat="44.07486" lon="0.56918">
        <ele>157</ele>
        <time>2025-07-24T13:20:50.289Z</time>
      </trkpt>
      <trkpt lat="44.07486" lon="0.56917">
        <ele>157</ele>
        <time>2025-07-24T13:20:51.289Z</time>
      </trkpt>
      <trkpt lat="44.07486" lon="0.56917">
        <ele>156</ele>
        <time>2025-07-24T13:20:52.289Z</time>
      </trkpt>
      <trkpt lat="44.07486" lon="0.56916">
        <ele>156</ele>
        <time>2025-07-24T13:20:53.289Z</time>
      </trkpt>
      <trkpt lat="44.07485" lon="0.56914">
        <ele>156</ele>
        <time>2025-07-24T13:20:54.289Z</time>
      </trkpt>
      <trkpt lat="44.07485" lon="0.56913">
        <ele>157</ele>
        <time>2025-07-24T13:20:55.289Z</time>
      </trkpt>
      <trkpt lat="44.07484" lon="0.56912">
        <ele>157</ele>
        <time>2025-07-24T13:20:56.289Z</time>
      </trkpt>
      <trkpt lat="44.07484" lon="0.56911">
        <ele>157</ele>
        <time>2025-07-24T13:20:57.289Z</time>
      </trkpt>
      <trkpt lat="44.07483" lon="0.5691">
        <ele>157</ele>
        <time>2025-07-24T13:20:58.289Z</time>
      </trkpt>
      <trkpt lat="44.07483" lon="0.5691">
        <ele>158</ele>
        <time>2025-07-24T13:20:59.289Z</time>
      </trkpt>
      <trkpt lat="44.07482" lon="0.56909">
        <ele>158</ele>
        <time>2025-07-24T13:21:00.289Z</time>
      </trkpt>
      <trkpt lat="44.07482" lon="0.56908">
        <ele>159</ele>
        <time>2025-07-24T13:21:01.289Z</time>
      </trkpt>
      <trkpt lat="44.07482" lon="0.56908">
        <ele>159</ele>
        <time>2025-07-24T13:21:02.289Z</time>
      </trkpt>
      <trkpt lat="44.07482" lon="0.56907">
        <ele>160</ele>
        <time>2025-07-24T13:21:03.289Z</time>
      </trkpt>
      <trkpt lat="44.07481" lon="0.56906">
        <ele>160</ele>
        <time>2025-07-24T13:21:04.289Z</time>
      </trkpt>
      <trkpt lat="44.07481" lon="0.56906">
        <ele>161</ele>
        <time>2025-07-24T13:21:05.289Z</time>
      </trkpt>
      <trkpt lat="44.07481" lon="0.56905">
        <ele>161</ele>
        <time>2025-07-24T13:21:06.289Z</time>
      </trkpt>
      <trkpt lat="44.07481" lon="0.56905">
        <ele>162</ele>
        <time>2025-07-24T13:21:07.290Z</time>
      </trkpt>
      <trkpt lat="44.07481" lon="0.56905">
        <ele>162</ele>
        <time>2025-07-24T13:21:08.289Z</time>
      </trkpt>
      <trkpt lat="44.07481" lon="0.56905">
        <ele>163</ele>
        <time>2025-07-24T13:21:09.289Z</time>
      </trkpt>
      <trkpt lat="44.07481" lon="0.56905">
        <ele>163</ele>
        <time>2025-07-24T13:21:10.289Z</time>
      </trkpt>
      <trkpt lat="44.07481" lon="0.56905">
        <ele>164</ele>
        <time>2025-07-24T13:21:11.289Z</time>
      </trkpt>
      <trkpt lat="44.07481" lon="0.56905">
        <ele>164</ele>
        <time>2025-07-24T13:21:12.289Z</time>
      </trkpt>
      <trkpt lat="44.07481" lon="0.56905">
        <ele>164</ele>
        <time>2025-07-24T13:21:13.289Z</time>
      </trkpt>
      <trkpt lat="44.07481" lon="0.56905">
        <ele>164</ele>
        <time>2025-07-24T13:21:14.289Z</time>
      </trkpt>
      <trkpt lat="44.07481" lon="0.56905">
        <ele>165</ele>
        <time>2025-07-24T13:21:15.289Z</time>
      </trkpt>
      <trkpt lat="44.07481" lon="0.56905">
        <ele>166</ele>
        <time>2025-07-24T13:21:16.289Z</time>
      </trkpt>
      <trkpt lat="44.07481" lon="0.56905">
        <ele>166</ele>
        <time>2025-07-24T13:21:17.289Z</time>
      </trkpt>
      <trkpt lat="44.07481" lon="0.56905">
        <ele>167</ele>
        <time>2025-07-24T13:21:18.289Z</time>
      </trkpt>
      <trkpt lat="44.07481" lon="0.56905">
        <ele>167</ele>
        <time>2025-07-24T13:21:19.289Z</time>
      </trkpt>
      <trkpt lat="44.07481" lon="0.56905">
        <ele>168</ele>
        <time>2025-07-24T13:21:20.289Z</time>
      </trkpt>
      <trkpt lat="44.0748" lon="0.56905">
        <ele>168</ele>
        <time>2025-07-24T13:21:21.289Z</time>
      </trkpt>
      <trkpt lat="44.0748" lon="0.56905">
        <ele>169</ele>
        <time>2025-07-24T13:21:22.289Z</time>
      </trkpt>
      <trkpt lat="44.0748" lon="0.56905">
        <ele>169</ele>
        <time>2025-07-24T13:21:23.289Z</time>
      </trkpt>
      <trkpt lat="44.0748" lon="0.56905">
        <ele>169</ele>
        <time>2025-07-24T13:21:24.289Z</time>
      </trkpt>
      <trkpt lat="44.0748" lon="0.56905">
        <ele>168</ele>
        <time>2025-07-24T13:21:25.289Z</time>
      </trkpt>
      <trkpt lat="44.0748" lon="0.56905">
        <ele>168</ele>
        <time>2025-07-24T13:21:26.289Z</time>
      </trkpt>
      <trkpt lat="44.0748" lon="0.56905">
        <ele>168</ele>
        <time>2025-07-24T13:21:27.289Z</time>
      </trkpt>
      <trkpt lat="44.0748" lon="0.56905">
        <ele>168</ele>
        <time>2025-07-24T13:21:28.289Z</time>
      </trkpt>
      <trkpt lat="44.0748" lon="0.56905">
        <ele>168</ele>
        <time>2025-07-24T13:21:29.289Z</time>
      </trkpt>
      <trkpt lat="44.0748" lon="0.56905">
        <ele>168</ele>
        <time>2025-07-24T13:21:30.289Z</time>
      </trkpt>
      <trkpt lat="44.07479" lon="0.56905">
        <ele>168</ele>
        <time>2025-07-24T13:21:31.289Z</time>
      </trkpt>
      <trkpt lat="44.07479" lon="0.56904">
        <ele>168</ele>
        <time>2025-07-24T13:21:32.289Z</time>
      </trkpt>
      <trkpt lat="44.07478" lon="0.56904">
        <ele>168</ele>
        <time>2025-07-24T13:21:33.289Z</time>
      </trkpt>
      <trkpt lat="44.07477" lon="0.56905">
        <ele>168</ele>
        <time>2025-07-24T13:21:34.289Z</time>
      </trkpt>
      <trkpt lat="44.07475" lon="0.56905">
        <ele>168</ele>
        <time>2025-07-24T13:21:35.289Z</time>
      </trkpt>
      <trkpt lat="44.07474" lon="0.56905">
        <ele>168</ele>
        <time>2025-07-24T13:21:36.289Z</time>
      </trkpt>
      <trkpt lat="44.07473" lon="0.56905">
        <ele>168</ele>
        <time>2025-07-24T13:21:37.289Z</time>
      </trkpt>
      <trkpt lat="44.07472" lon="0.56905">
        <ele>168</ele>
        <time>2025-07-24T13:21:38.289Z</time>
      </trkpt>
      <trkpt lat="44.0747" lon="0.56904">
        <ele>168</ele>
        <time>2025-07-24T13:21:39.289Z</time>
      </trkpt>
      <trkpt lat="44.0747" lon="0.56904">
        <ele>168</ele>
        <time>2025-07-24T13:21:40.289Z</time>
      </trkpt>
      <trkpt lat="44.07468" lon="0.56903">
        <ele>168</ele>
        <time>2025-07-24T13:21:41.289Z</time>
      </trkpt>
      <trkpt lat="44.07467" lon="0.56903">
        <ele>168</ele>
        <time>2025-07-24T13:21:42.289Z</time>
      </trkpt>
      <trkpt lat="44.07465" lon="0.56903">
        <ele>168</ele>
        <time>2025-07-24T13:21:43.289Z</time>
      </trkpt>
      <trkpt lat="44.07464" lon="0.56902">
        <ele>168</ele>
        <time>2025-07-24T13:21:44.289Z</time>
      </trkpt>
      <trkpt lat="44.07463" lon="0.56902">
        <ele>168</ele>
        <time>2025-07-24T13:21:45.289Z</time>
      </trkpt>
      <trkpt lat="44.07462" lon="0.56901">
        <ele>168</ele>
        <time>2025-07-24T13:21:46.289Z</time>
      </trkpt>
      <trkpt lat="44.07461" lon="0.56901">
        <ele>168</ele>
        <time>2025-07-24T13:21:47.289Z</time>
      </trkpt>
      <trkpt lat="44.0746" lon="0.569">
        <ele>168</ele>
        <time>2025-07-24T13:21:48.289Z</time>
      </trkpt>
      <trkpt lat="44.07459" lon="0.56899">
        <ele>168</ele>
        <time>2025-07-24T13:21:49.289Z</time>
      </trkpt>
      <trkpt lat="44.07458" lon="0.56898">
        <ele>168</ele>
        <time>2025-07-24T13:21:50.289Z</time>
      </trkpt>
      <trkpt lat="44.07457" lon="0.56897">
        <ele>168</ele>
        <time>2025-07-24T13:21:51.289Z</time>
      </trkpt>
      <trkpt lat="44.07456" lon="0.56895">
        <ele>168</ele>
        <time>2025-07-24T13:21:52.289Z</time>
      </trkpt>
      <trkpt lat="44.07455" lon="0.56894">
        <ele>168</ele>
        <time>2025-07-24T13:21:53.289Z</time>
      </trkpt>
      <trkpt lat="44.07454" lon="0.56893">
        <ele>167</ele>
        <time>2025-07-24T13:21:54.289Z</time>
      </trkpt>
      <trkpt lat="44.07453" lon="0.56892">
        <ele>167</ele>
        <time>2025-07-24T13:21:55.289Z</time>
      </trkpt>
      <trkpt lat="44.07453" lon="0.56891">
        <ele>167</ele>
        <time>2025-07-24T13:21:56.289Z</time>
      </trkpt>
      <trkpt lat="44.07452" lon="0.5689">
        <ele>167</ele>
        <time>2025-07-24T13:21:57.289Z</time>
      </trkpt>
      <trkpt lat="44.07452" lon="0.56888">
        <ele>167</ele>
        <time>2025-07-24T13:21:58.289Z</time>
      </trkpt>
      <trkpt lat="44.07451" lon="0.56887">
        <ele>167</ele>
        <time>2025-07-24T13:21:59.289Z</time>
      </trkpt>
      <trkpt lat="44.0745" lon="0.56885">
        <ele>166</ele>
        <time>2025-07-24T13:22:00.289Z</time>
      </trkpt>
      <trkpt lat="44.0745" lon="0.56884">
        <ele>166</ele>
        <time>2025-07-24T13:22:01.289Z</time>
      </trkpt>
      <trkpt lat="44.07449" lon="0.56882">
        <ele>166</ele>
        <time>2025-07-24T13:22:02.289Z</time>
      </trkpt>
      <trkpt lat="44.07449" lon="0.56881">
        <ele>166</ele>
        <time>2025-07-24T13:22:03.289Z</time>
      </trkpt>
      <trkpt lat="44.07448" lon="0.56879">
        <ele>166</ele>
        <time>2025-07-24T13:22:04.289Z</time>
      </trkpt>
      <trkpt lat="44.07447" lon="0.56878">
        <ele>167</ele>
        <time>2025-07-24T13:22:05.289Z</time>
      </trkpt>
      <trkpt lat="44.07447" lon="0.56876">
        <ele>167</ele>
        <time>2025-07-24T13:22:06.289Z</time>
      </trkpt>
      <trkpt lat="44.07447" lon="0.56875">
        <ele>167</ele>
        <time>2025-07-24T13:22:07.289Z</time>
      </trkpt>
      <trkpt lat="44.07446" lon="0.56874">
        <ele>167</ele>
        <time>2025-07-24T13:22:08.289Z</time>
      </trkpt>
      <trkpt lat="44.07446" lon="0.56872">
        <ele>166</ele>
        <time>2025-07-24T13:22:09.289Z</time>
      </trkpt>
      <trkpt lat="44.07446" lon="0.56871">
        <ele>166</ele>
        <time>2025-07-24T13:22:10.289Z</time>
      </trkpt>
      <trkpt lat="44.07445" lon="0.5687">
        <ele>166</ele>
        <time>2025-07-24T13:22:11.289Z</time>
      </trkpt>
      <trkpt lat="44.07445" lon="0.56869">
        <ele>166</ele>
        <time>2025-07-24T13:22:12.289Z</time>
      </trkpt>
      <trkpt lat="44.07445" lon="0.56869">
        <ele>166</ele>
        <time>2025-07-24T13:22:13.289Z</time>
      </trkpt>
      <trkpt lat="44.07445" lon="0.56869">
        <ele>165</ele>
        <time>2025-07-24T13:22:14.289Z</time>
      </trkpt>
      <trkpt lat="44.07445" lon="0.56869">
        <ele>165</ele>
        <time>2025-07-24T13:22:15.289Z</time>
      </trkpt>
      <trkpt lat="44.07445" lon="0.56868">
        <ele>165</ele>
        <time>2025-07-24T13:22:16.289Z</time>
      </trkpt>
      <trkpt lat="44.07445" lon="0.56866">
        <ele>165</ele>
        <time>2025-07-24T13:22:17.289Z</time>
      </trkpt>
      <trkpt lat="44.07445" lon="0.56865">
        <ele>164</ele>
        <time>2025-07-24T13:22:18.289Z</time>
      </trkpt>
      <trkpt lat="44.07444" lon="0.56863">
        <ele>164</ele>
        <time>2025-07-24T13:22:19.289Z</time>
      </trkpt>
      <trkpt lat="44.07444" lon="0.56862">
        <ele>164</ele>
        <time>2025-07-24T13:22:20.289Z</time>
      </trkpt>
      <trkpt lat="44.07443" lon="0.5686">
        <ele>164</ele>
        <time>2025-07-24T13:22:21.289Z</time>
      </trkpt>
      <trkpt lat="44.07443" lon="0.56858">
        <ele>164</ele>
        <time>2025-07-24T13:22:22.289Z</time>
      </trkpt>
      <trkpt lat="44.07443" lon="0.56857">
        <ele>164</ele>
        <time>2025-07-24T13:22:23.289Z</time>
      </trkpt>
      <trkpt lat="44.07442" lon="0.56856">
        <ele>165</ele>
        <time>2025-07-24T13:22:24.289Z</time>
      </trkpt>
      <trkpt lat="44.07442" lon="0.56855">
        <ele>165</ele>
        <time>2025-07-24T13:22:25.289Z</time>
      </trkpt>
      <trkpt lat="44.07442" lon="0.56853">
        <ele>164</ele>
        <time>2025-07-24T13:22:26.289Z</time>
      </trkpt>
      <trkpt lat="44.07441" lon="0.56852">
        <ele>164</ele>
        <time>2025-07-24T13:22:27.289Z</time>
      </trkpt>
      <trkpt lat="44.07441" lon="0.5685">
        <ele>164</ele>
        <time>2025-07-24T13:22:28.289Z</time>
      </trkpt>
      <trkpt lat="44.07441" lon="0.56848">
        <ele>164</ele>
        <time>2025-07-24T13:22:29.289Z</time>
      </trkpt>
      <trkpt lat="44.0744" lon="0.56847">
        <ele>164</ele>
        <time>2025-07-24T13:22:30.289Z</time>
      </trkpt>
      <trkpt lat="44.0744" lon="0.56845">
        <ele>164</ele>
        <time>2025-07-24T13:22:31.289Z</time>
      </trkpt>
      <trkpt lat="44.07439" lon="0.56844">
        <ele>164</ele>
        <time>2025-07-24T13:22:32.289Z</time>
      </trkpt>
      <trkpt lat="44.07439" lon="0.56842">
        <ele>165</ele>
        <time>2025-07-24T13:22:33.289Z</time>
      </trkpt>
      <trkpt lat="44.07439" lon="0.56841">
        <ele>165</ele>
        <time>2025-07-24T13:22:34.289Z</time>
      </trkpt>
      <trkpt lat="44.07438" lon="0.5684">
        <ele>165</ele>
        <time>2025-07-24T13:22:35.289Z</time>
      </trkpt>
      <trkpt lat="44.07438" lon="0.56838">
        <ele>165</ele>
        <time>2025-07-24T13:22:36.289Z</time>
      </trkpt>
      <trkpt lat="44.07437" lon="0.56837">
        <ele>165</ele>
        <time>2025-07-24T13:22:37.289Z</time>
      </trkpt>
      <trkpt lat="44.07437" lon="0.56835">
        <ele>165</ele>
        <time>2025-07-24T13:22:38.289Z</time>
      </trkpt>
      <trkpt lat="44.07436" lon="0.56833">
        <ele>165</ele>
        <time>2025-07-24T13:22:39.289Z</time>
      </trkpt>
      <trkpt lat="44.07436" lon="0.56832">
        <ele>165</ele>
        <time>2025-07-24T13:22:40.289Z</time>
      </trkpt>
      <trkpt lat="44.07435" lon="0.5683">
        <ele>165</ele>
        <time>2025-07-24T13:22:41.289Z</time>
      </trkpt>
      <trkpt lat="44.07435" lon="0.56828">
        <ele>165</ele>
        <time>2025-07-24T13:22:42.289Z</time>
      </trkpt>
      <trkpt lat="44.07434" lon="0.56826">
        <ele>166</ele>
        <time>2025-07-24T13:22:43.289Z</time>
      </trkpt>
      <trkpt lat="44.07434" lon="0.56825">
        <ele>166</ele>
        <time>2025-07-24T13:22:44.289Z</time>
      </trkpt>
      <trkpt lat="44.07433" lon="0.56824">
        <ele>166</ele>
        <time>2025-07-24T13:22:45.289Z</time>
      </trkpt>
      <trkpt lat="44.07433" lon="0.56822">
        <ele>166</ele>
        <time>2025-07-24T13:22:46.289Z</time>
      </trkpt>
      <trkpt lat="44.07432" lon="0.56821">
        <ele>166</ele>
        <time>2025-07-24T13:22:47.289Z</time>
      </trkpt>
      <trkpt lat="44.07432" lon="0.56819">
        <ele>166</ele>
        <time>2025-07-24T13:22:48.289Z</time>
      </trkpt>
      <trkpt lat="44.07431" lon="0.56818">
        <ele>166</ele>
        <time>2025-07-24T13:22:49.289Z</time>
      </trkpt>
      <trkpt lat="44.07431" lon="0.56816">
        <ele>166</ele>
        <time>2025-07-24T13:22:50.289Z</time>
      </trkpt>
      <trkpt lat="44.0743" lon="0.56814">
        <ele>165</ele>
        <time>2025-07-24T13:22:51.289Z</time>
      </trkpt>
      <trkpt lat="44.0743" lon="0.56813">
        <ele>165</ele>
        <time>2025-07-24T13:22:52.289Z</time>
      </trkpt>
      <trkpt lat="44.07429" lon="0.56811">
        <ele>165</ele>
        <time>2025-07-24T13:22:53.289Z</time>
      </trkpt>
      <trkpt lat="44.07429" lon="0.56809">
        <ele>165</ele>
        <time>2025-07-24T13:22:54.289Z</time>
      </trkpt>
      <trkpt lat="44.07428" lon="0.56808">
        <ele>165</ele>
        <time>2025-07-24T13:22:55.289Z</time>
      </trkpt>
      <trkpt lat="44.07427" lon="0.56806">
        <ele>165</ele>
        <time>2025-07-24T13:22:56.289Z</time>
      </trkpt>
      <trkpt lat="44.07427" lon="0.56805">
        <ele>165</ele>
        <time>2025-07-24T13:22:57.289Z</time>
      </trkpt>
      <trkpt lat="44.07426" lon="0.56804">
        <ele>165</ele>
        <time>2025-07-24T13:22:58.289Z</time>
      </trkpt>
      <trkpt lat="44.07426" lon="0.56802">
        <ele>165</ele>
        <time>2025-07-24T13:22:59.289Z</time>
      </trkpt>
      <trkpt lat="44.07425" lon="0.56801">
        <ele>165</ele>
        <time>2025-07-24T13:23:00.289Z</time>
      </trkpt>
      <trkpt lat="44.07425" lon="0.56799">
        <ele>165</ele>
        <time>2025-07-24T13:23:01.289Z</time>
      </trkpt>
      <trkpt lat="44.07424" lon="0.56798">
        <ele>166</ele>
        <time>2025-07-24T13:23:02.289Z</time>
      </trkpt>
      <trkpt lat="44.07424" lon="0.56796">
        <ele>166</ele>
        <time>2025-07-24T13:23:03.289Z</time>
      </trkpt>
      <trkpt lat="44.07424" lon="0.56794">
        <ele>166</ele>
        <time>2025-07-24T13:23:04.289Z</time>
      </trkpt>
      <trkpt lat="44.07423" lon="0.56792">
        <ele>166</ele>
        <time>2025-07-24T13:23:05.289Z</time>
      </trkpt>
      <trkpt lat="44.07423" lon="0.56791">
        <ele>166</ele>
        <time>2025-07-24T13:23:06.289Z</time>
      </trkpt>
      <trkpt lat="44.07422" lon="0.56789">
        <ele>166</ele>
        <time>2025-07-24T13:23:07.289Z</time>
      </trkpt>
      <trkpt lat="44.07421" lon="0.56787">
        <ele>166</ele>
        <time>2025-07-24T13:23:08.289Z</time>
      </trkpt>
      <trkpt lat="44.07421" lon="0.56786">
        <ele>165</ele>
        <time>2025-07-24T13:23:09.289Z</time>
      </trkpt>
      <trkpt lat="44.07421" lon="0.56784">
        <ele>165</ele>
        <time>2025-07-24T13:23:10.289Z</time>
      </trkpt>
      <trkpt lat="44.0742" lon="0.56783">
        <ele>165</ele>
        <time>2025-07-24T13:23:11.289Z</time>
      </trkpt>
      <trkpt lat="44.07419" lon="0.56782">
        <ele>166</ele>
        <time>2025-07-24T13:23:12.289Z</time>
      </trkpt>
      <trkpt lat="44.07419" lon="0.5678">
        <ele>166</ele>
        <time>2025-07-24T13:23:13.289Z</time>
      </trkpt>
      <trkpt lat="44.07418" lon="0.56779">
        <ele>166</ele>
        <time>2025-07-24T13:23:14.289Z</time>
      </trkpt>
      <trkpt lat="44.07417" lon="0.56778">
        <ele>166</ele>
        <time>2025-07-24T13:23:15.289Z</time>
      </trkpt>
      <trkpt lat="44.07417" lon="0.56776">
        <ele>167</ele>
        <time>2025-07-24T13:23:16.289Z</time>
      </trkpt>
      <trkpt lat="44.07416" lon="0.56775">
        <ele>168</ele>
        <time>2025-07-24T13:23:17.289Z</time>
      </trkpt>
      <trkpt lat="44.07415" lon="0.56773">
        <ele>168</ele>
        <time>2025-07-24T13:23:18.289Z</time>
      </trkpt>
      <trkpt lat="44.07414" lon="0.56771">
        <ele>168</ele>
        <time>2025-07-24T13:23:19.289Z</time>
      </trkpt>
      <trkpt lat="44.07414" lon="0.5677">
        <ele>169</ele>
        <time>2025-07-24T13:23:20.289Z</time>
      </trkpt>
      <trkpt lat="44.07413" lon="0.56768">
        <ele>169</ele>
        <time>2025-07-24T13:23:21.289Z</time>
      </trkpt>
      <trkpt lat="44.07413" lon="0.56767">
        <ele>169</ele>
        <time>2025-07-24T13:23:22.289Z</time>
      </trkpt>
      <trkpt lat="44.07412" lon="0.56766">
        <ele>169</ele>
        <time>2025-07-24T13:23:23.290Z</time>
      </trkpt>
      <trkpt lat="44.07412" lon="0.56765">
        <ele>169</ele>
        <time>2025-07-24T13:23:24.289Z</time>
      </trkpt>
      <trkpt lat="44.07412" lon="0.56764">
        <ele>169</ele>
        <time>2025-07-24T13:23:25.289Z</time>
      </trkpt>
      <trkpt lat="44.07411" lon="0.56762">
        <ele>168</ele>
        <time>2025-07-24T13:23:26.289Z</time>
      </trkpt>
      <trkpt lat="44.07411" lon="0.56761">
        <ele>168</ele>
        <time>2025-07-24T13:23:27.289Z</time>
      </trkpt>
      <trkpt lat="44.07411" lon="0.56761">
        <ele>168</ele>
        <time>2025-07-24T13:23:28.289Z</time>
      </trkpt>
      <trkpt lat="44.0741" lon="0.5676">
        <ele>169</ele>
        <time>2025-07-24T13:23:29.289Z</time>
      </trkpt>
      <trkpt lat="44.07409" lon="0.56759">
        <ele>169</ele>
        <time>2025-07-24T13:23:30.289Z</time>
      </trkpt>
      <trkpt lat="44.07408" lon="0.56757">
        <ele>169</ele>
        <time>2025-07-24T13:23:31.289Z</time>
      </trkpt>
      <trkpt lat="44.07408" lon="0.56755">
        <ele>170</ele>
        <time>2025-07-24T13:23:32.289Z</time>
      </trkpt>
      <trkpt lat="44.07407" lon="0.56754">
        <ele>170</ele>
        <time>2025-07-24T13:23:33.289Z</time>
      </trkpt>
      <trkpt lat="44.07406" lon="0.56752">
        <ele>170</ele>
        <time>2025-07-24T13:23:34.289Z</time>
      </trkpt>
      <trkpt lat="44.07406" lon="0.56751">
        <ele>169</ele>
        <time>2025-07-24T13:23:35.289Z</time>
      </trkpt>
      <trkpt lat="44.07405" lon="0.56749">
        <ele>169</ele>
        <time>2025-07-24T13:23:36.289Z</time>
      </trkpt>
      <trkpt lat="44.07404" lon="0.56748">
        <ele>169</ele>
        <time>2025-07-24T13:23:37.289Z</time>
      </trkpt>
      <trkpt lat="44.07404" lon="0.56747">
        <ele>169</ele>
        <time>2025-07-24T13:23:38.289Z</time>
      </trkpt>
      <trkpt lat="44.07403" lon="0.56746">
        <ele>169</ele>
        <time>2025-07-24T13:23:39.289Z</time>
      </trkpt>
      <trkpt lat="44.07403" lon="0.56744">
        <ele>168</ele>
        <time>2025-07-24T13:23:40.289Z</time>
      </trkpt>
      <trkpt lat="44.07402" lon="0.56742">
        <ele>168</ele>
        <time>2025-07-24T13:23:41.289Z</time>
      </trkpt>
      <trkpt lat="44.07401" lon="0.56741">
        <ele>168</ele>
        <time>2025-07-24T13:23:42.289Z</time>
      </trkpt>
      <trkpt lat="44.07401" lon="0.56739">
        <ele>168</ele>
        <time>2025-07-24T13:23:43.289Z</time>
      </trkpt>
      <trkpt lat="44.074" lon="0.56738">
        <ele>168</ele>
        <time>2025-07-24T13:23:44.289Z</time>
      </trkpt>
      <trkpt lat="44.074" lon="0.56736">
        <ele>167</ele>
        <time>2025-07-24T13:23:45.289Z</time>
      </trkpt>
      <trkpt lat="44.07399" lon="0.56735">
        <ele>167</ele>
        <time>2025-07-24T13:23:46.289Z</time>
      </trkpt>
      <trkpt lat="44.07398" lon="0.56734">
        <ele>167</ele>
        <time>2025-07-24T13:23:47.289Z</time>
      </trkpt>
      <trkpt lat="44.07398" lon="0.56732">
        <ele>168</ele>
        <time>2025-07-24T13:23:48.289Z</time>
      </trkpt>
      <trkpt lat="44.07397" lon="0.56731">
        <ele>169</ele>
        <time>2025-07-24T13:23:49.289Z</time>
      </trkpt>
      <trkpt lat="44.07396" lon="0.5673">
        <ele>169</ele>
        <time>2025-07-24T13:23:50.289Z</time>
      </trkpt>
      <trkpt lat="44.07395" lon="0.56728">
        <ele>169</ele>
        <time>2025-07-24T13:23:51.289Z</time>
      </trkpt>
      <trkpt lat="44.07394" lon="0.56727">
        <ele>169</ele>
        <time>2025-07-24T13:23:52.289Z</time>
      </trkpt>
      <trkpt lat="44.07394" lon="0.56725">
        <ele>170</ele>
        <time>2025-07-24T13:23:53.289Z</time>
      </trkpt>
      <trkpt lat="44.07393" lon="0.56724">
        <ele>170</ele>
        <time>2025-07-24T13:23:54.289Z</time>
      </trkpt>
      <trkpt lat="44.07392" lon="0.56723">
        <ele>170</ele>
        <time>2025-07-24T13:23:55.289Z</time>
      </trkpt>
      <trkpt lat="44.07392" lon="0.56721">
        <ele>170</ele>
        <time>2025-07-24T13:23:56.289Z</time>
      </trkpt>
      <trkpt lat="44.07391" lon="0.5672">
        <ele>170</ele>
        <time>2025-07-24T13:23:57.289Z</time>
      </trkpt>
      <trkpt lat="44.07391" lon="0.56719">
        <ele>170</ele>
        <time>2025-07-24T13:23:58.289Z</time>
      </trkpt>
      <trkpt lat="44.0739" lon="0.56718">
        <ele>170</ele>
        <time>2025-07-24T13:23:59.289Z</time>
      </trkpt>
      <trkpt lat="44.07389" lon="0.56716">
        <ele>170</ele>
        <time>2025-07-24T13:24:00.289Z</time>
      </trkpt>
      <trkpt lat="44.07389" lon="0.56715">
        <ele>170</ele>
        <time>2025-07-24T13:24:01.289Z</time>
      </trkpt>
      <trkpt lat="44.07388" lon="0.56713">
        <ele>170</ele>
        <time>2025-07-24T13:24:02.289Z</time>
      </trkpt>
      <trkpt lat="44.07388" lon="0.56712">
        <ele>170</ele>
        <time>2025-07-24T13:24:03.289Z</time>
      </trkpt>
      <trkpt lat="44.07387" lon="0.5671">
        <ele>170</ele>
        <time>2025-07-24T13:24:04.289Z</time>
      </trkpt>
      <trkpt lat="44.07387" lon="0.56709">
        <ele>170</ele>
        <time>2025-07-24T13:24:05.289Z</time>
      </trkpt>
      <trkpt lat="44.07386" lon="0.56707">
        <ele>169</ele>
        <time>2025-07-24T13:24:06.290Z</time>
      </trkpt>
      <trkpt lat="44.07386" lon="0.56706">
        <ele>169</ele>
        <time>2025-07-24T13:24:07.289Z</time>
      </trkpt>
      <trkpt lat="44.07385" lon="0.56704">
        <ele>169</ele>
        <time>2025-07-24T13:24:08.289Z</time>
      </trkpt>
      <trkpt lat="44.07384" lon="0.56703">
        <ele>170</ele>
        <time>2025-07-24T13:24:09.289Z</time>
      </trkpt>
      <trkpt lat="44.07384" lon="0.56701">
        <ele>170</ele>
        <time>2025-07-24T13:24:10.289Z</time>
      </trkpt>
      <trkpt lat="44.07383" lon="0.567">
        <ele>170</ele>
        <time>2025-07-24T13:24:11.289Z</time>
      </trkpt>
      <trkpt lat="44.07383" lon="0.56698">
        <ele>170</ele>
        <time>2025-07-24T13:24:12.289Z</time>
      </trkpt>
      <trkpt lat="44.07382" lon="0.56697">
        <ele>170</ele>
        <time>2025-07-24T13:24:13.289Z</time>
      </trkpt>
      <trkpt lat="44.07381" lon="0.56695">
        <ele>171</ele>
        <time>2025-07-24T13:24:14.289Z</time>
      </trkpt>
      <trkpt lat="44.07381" lon="0.56693">
        <ele>171</ele>
        <time>2025-07-24T13:24:15.289Z</time>
      </trkpt>
      <trkpt lat="44.07381" lon="0.56691">
        <ele>171</ele>
        <time>2025-07-24T13:24:16.289Z</time>
      </trkpt>
      <trkpt lat="44.07381" lon="0.5669">
        <ele>171</ele>
        <time>2025-07-24T13:24:17.289Z</time>
      </trkpt>
      <trkpt lat="44.0738" lon="0.56688">
        <ele>170</ele>
        <time>2025-07-24T13:24:18.289Z</time>
      </trkpt>
      <trkpt lat="44.0738" lon="0.56687">
        <ele>170</ele>
        <time>2025-07-24T13:24:19.289Z</time>
      </trkpt>
      <trkpt lat="44.07379" lon="0.56686">
        <ele>170</ele>
        <time>2025-07-24T13:24:20.289Z</time>
      </trkpt>
      <trkpt lat="44.07379" lon="0.56684">
        <ele>171</ele>
        <time>2025-07-24T13:24:21.289Z</time>
      </trkpt>
      <trkpt lat="44.07378" lon="0.56682">
        <ele>171</ele>
        <time>2025-07-24T13:24:22.289Z</time>
      </trkpt>
      <trkpt lat="44.07378" lon="0.56681">
        <ele>171</ele>
        <time>2025-07-24T13:24:23.289Z</time>
      </trkpt>
      <trkpt lat="44.07378" lon="0.56679">
        <ele>171</ele>
        <time>2025-07-24T13:24:24.289Z</time>
      </trkpt>
      <trkpt lat="44.07378" lon="0.56677">
        <ele>171</ele>
        <time>2025-07-24T13:24:25.289Z</time>
      </trkpt>
      <trkpt lat="44.07377" lon="0.56676">
        <ele>171</ele>
        <time>2025-07-24T13:24:26.289Z</time>
      </trkpt>
      <trkpt lat="44.07377" lon="0.56674">
        <ele>171</ele>
        <time>2025-07-24T13:24:27.289Z</time>
      </trkpt>
      <trkpt lat="44.07376" lon="0.56673">
        <ele>171</ele>
        <time>2025-07-24T13:24:28.289Z</time>
      </trkpt>
      <trkpt lat="44.07376" lon="0.56672">
        <ele>171</ele>
        <time>2025-07-24T13:24:29.289Z</time>
      </trkpt>
      <trkpt lat="44.07376" lon="0.5667">
        <ele>172</ele>
        <time>2025-07-24T13:24:30.289Z</time>
      </trkpt>
      <trkpt lat="44.07375" lon="0.56669">
        <ele>172</ele>
        <time>2025-07-24T13:24:31.289Z</time>
      </trkpt>
      <trkpt lat="44.07375" lon="0.56667">
        <ele>173</ele>
        <time>2025-07-24T13:24:32.289Z</time>
      </trkpt>
      <trkpt lat="44.07375" lon="0.56665">
        <ele>173</ele>
        <time>2025-07-24T13:24:33.289Z</time>
      </trkpt>
      <trkpt lat="44.07374" lon="0.56663">
        <ele>173</ele>
        <time>2025-07-24T13:24:34.289Z</time>
      </trkpt>
      <trkpt lat="44.07374" lon="0.56661">
        <ele>173</ele>
        <time>2025-07-24T13:24:35.289Z</time>
      </trkpt>
      <trkpt lat="44.07374" lon="0.56659">
        <ele>173</ele>
        <time>2025-07-24T13:24:36.289Z</time>
      </trkpt>
      <trkpt lat="44.07374" lon="0.56658">
        <ele>173</ele>
        <time>2025-07-24T13:24:37.289Z</time>
      </trkpt>
      <trkpt lat="44.07373" lon="0.56656">
        <ele>173</ele>
        <time>2025-07-24T13:24:38.289Z</time>
      </trkpt>
      <trkpt lat="44.07373" lon="0.56655">
        <ele>172</ele>
        <time>2025-07-24T13:24:39.289Z</time>
      </trkpt>
      <trkpt lat="44.07373" lon="0.56653">
        <ele>172</ele>
        <time>2025-07-24T13:24:40.289Z</time>
      </trkpt>
      <trkpt lat="44.07372" lon="0.56652">
        <ele>172</ele>
        <time>2025-07-24T13:24:41.289Z</time>
      </trkpt>
      <trkpt lat="44.07372" lon="0.5665">
        <ele>172</ele>
        <time>2025-07-24T13:24:42.289Z</time>
      </trkpt>
      <trkpt lat="44.07372" lon="0.56648">
        <ele>171</ele>
        <time>2025-07-24T13:24:43.289Z</time>
      </trkpt>
      <trkpt lat="44.07372" lon="0.56647">
        <ele>171</ele>
        <time>2025-07-24T13:24:44.289Z</time>
      </trkpt>
      <trkpt lat="44.07371" lon="0.56645">
        <ele>171</ele>
        <time>2025-07-24T13:24:45.289Z</time>
      </trkpt>
      <trkpt lat="44.07371" lon="0.56643">
        <ele>171</ele>
        <time>2025-07-24T13:24:46.289Z</time>
      </trkpt>
      <trkpt lat="44.07371" lon="0.56641">
        <ele>172</ele>
        <time>2025-07-24T13:24:47.289Z</time>
      </trkpt>
      <trkpt lat="44.07371" lon="0.5664">
        <ele>172</ele>
        <time>2025-07-24T13:24:48.289Z</time>
      </trkpt>
      <trkpt lat="44.07371" lon="0.56638">
        <ele>172</ele>
        <time>2025-07-24T13:24:49.289Z</time>
      </trkpt>
      <trkpt lat="44.0737" lon="0.56637">
        <ele>172</ele>
        <time>2025-07-24T13:24:50.289Z</time>
      </trkpt>
      <trkpt lat="44.0737" lon="0.56636">
        <ele>173</ele>
        <time>2025-07-24T13:24:51.289Z</time>
      </trkpt>
      <trkpt lat="44.0737" lon="0.56634">
        <ele>173</ele>
        <time>2025-07-24T13:24:52.289Z</time>
      </trkpt>
      <trkpt lat="44.0737" lon="0.56632">
        <ele>173</ele>
        <time>2025-07-24T13:24:53.289Z</time>
      </trkpt>
      <trkpt lat="44.07369" lon="0.56631">
        <ele>173</ele>
        <time>2025-07-24T13:24:54.289Z</time>
      </trkpt>
      <trkpt lat="44.07369" lon="0.56629">
        <ele>173</ele>
        <time>2025-07-24T13:24:55.289Z</time>
      </trkpt>
      <trkpt lat="44.07369" lon="0.56627">
        <ele>172</ele>
        <time>2025-07-24T13:24:56.289Z</time>
      </trkpt>
      <trkpt lat="44.07369" lon="0.56625">
        <ele>172</ele>
        <time>2025-07-24T13:24:57.289Z</time>
      </trkpt>
      <trkpt lat="44.07369" lon="0.56623">
        <ele>172</ele>
        <time>2025-07-24T13:24:58.289Z</time>
      </trkpt>
      <trkpt lat="44.07369" lon="0.56621">
        <ele>171</ele>
        <time>2025-07-24T13:24:59.289Z</time>
      </trkpt>
      <trkpt lat="44.07368" lon="0.56619">
        <ele>172</ele>
        <time>2025-07-24T13:25:00.289Z</time>
      </trkpt>
      <trkpt lat="44.07368" lon="0.56618">
        <ele>172</ele>
        <time>2025-07-24T13:25:01.289Z</time>
      </trkpt>
      <trkpt lat="44.07367" lon="0.56617">
        <ele>172</ele>
        <time>2025-07-24T13:25:02.289Z</time>
      </trkpt>
      <trkpt lat="44.07367" lon="0.56615">
        <ele>172</ele>
        <time>2025-07-24T13:25:03.289Z</time>
      </trkpt>
      <trkpt lat="44.07367" lon="0.56613">
        <ele>172</ele>
        <time>2025-07-24T13:25:04.289Z</time>
      </trkpt>
      <trkpt lat="44.07367" lon="0.56611">
        <ele>172</ele>
        <time>2025-07-24T13:25:05.289Z</time>
      </trkpt>
      <trkpt lat="44.07366" lon="0.56609">
        <ele>172</ele>
        <time>2025-07-24T13:25:06.289Z</time>
      </trkpt>
      <trkpt lat="44.07366" lon="0.56607">
        <ele>172</ele>
        <time>2025-07-24T13:25:07.289Z</time>
      </trkpt>
      <trkpt lat="44.07366" lon="0.56605">
        <ele>172</ele>
        <time>2025-07-24T13:25:08.289Z</time>
      </trkpt>
      <trkpt lat="44.07366" lon="0.56603">
        <ele>173</ele>
        <time>2025-07-24T13:25:09.289Z</time>
      </trkpt>
      <trkpt lat="44.07366" lon="0.56601">
        <ele>173</ele>
        <time>2025-07-24T13:25:10.289Z</time>
      </trkpt>
      <trkpt lat="44.07365" lon="0.56599">
        <ele>173</ele>
        <time>2025-07-24T13:25:11.289Z</time>
      </trkpt>
      <trkpt lat="44.07365" lon="0.56597">
        <ele>173</ele>
        <time>2025-07-24T13:25:12.289Z</time>
      </trkpt>
      <trkpt lat="44.07365" lon="0.56595">
        <ele>173</ele>
        <time>2025-07-24T13:25:13.289Z</time>
      </trkpt>
      <trkpt lat="44.07365" lon="0.56594">
        <ele>173</ele>
        <time>2025-07-24T13:25:14.289Z</time>
      </trkpt>
      <trkpt lat="44.07364" lon="0.56592">
        <ele>173</ele>
        <time>2025-07-24T13:25:15.290Z</time>
      </trkpt>
      <trkpt lat="44.07364" lon="0.5659">
        <ele>174</ele>
        <time>2025-07-24T13:25:16.289Z</time>
      </trkpt>
      <trkpt lat="44.07364" lon="0.56589">
        <ele>174</ele>
        <time>2025-07-24T13:25:17.289Z</time>
      </trkpt>
      <trkpt lat="44.07363" lon="0.56587">
        <ele>174</ele>
        <time>2025-07-24T13:25:18.289Z</time>
      </trkpt>
      <trkpt lat="44.07363" lon="0.56585">
        <ele>174</ele>
        <time>2025-07-24T13:25:19.289Z</time>
      </trkpt>
      <trkpt lat="44.07363" lon="0.56584">
        <ele>174</ele>
        <time>2025-07-24T13:25:20.289Z</time>
      </trkpt>
      <trkpt lat="44.07362" lon="0.56582">
        <ele>174</ele>
        <time>2025-07-24T13:25:21.289Z</time>
      </trkpt>
      <trkpt lat="44.07362" lon="0.5658">
        <ele>174</ele>
        <time>2025-07-24T13:25:22.289Z</time>
      </trkpt>
      <trkpt lat="44.07362" lon="0.56578">
        <ele>174</ele>
        <time>2025-07-24T13:25:23.289Z</time>
      </trkpt>
      <trkpt lat="44.07362" lon="0.56576">
        <ele>174</ele>
        <time>2025-07-24T13:25:24.289Z</time>
      </trkpt>
      <trkpt lat="44.07362" lon="0.56574">
        <ele>174</ele>
        <time>2025-07-24T13:25:25.289Z</time>
      </trkpt>
      <trkpt lat="44.07361" lon="0.56572">
        <ele>174</ele>
        <time>2025-07-24T13:25:26.289Z</time>
      </trkpt>
      <trkpt lat="44.07361" lon="0.5657">
        <ele>174</ele>
        <time>2025-07-24T13:25:27.289Z</time>
      </trkpt>
      <trkpt lat="44.07361" lon="0.56568">
        <ele>174</ele>
        <time>2025-07-24T13:25:28.289Z</time>
      </trkpt>
      <trkpt lat="44.07361" lon="0.56567">
        <ele>174</ele>
        <time>2025-07-24T13:25:29.289Z</time>
      </trkpt>
      <trkpt lat="44.0736" lon="0.56565">
        <ele>174</ele>
        <time>2025-07-24T13:25:30.289Z</time>
      </trkpt>
      <trkpt lat="44.0736" lon="0.56564">
        <ele>174</ele>
        <time>2025-07-24T13:25:31.289Z</time>
      </trkpt>
      <trkpt lat="44.0736" lon="0.56562">
        <ele>175</ele>
        <time>2025-07-24T13:25:32.289Z</time>
      </trkpt>
      <trkpt lat="44.07359" lon="0.56561">
        <ele>175</ele>
        <time>2025-07-24T13:25:33.289Z</time>
      </trkpt>
      <trkpt lat="44.07359" lon="0.56559">
        <ele>175</ele>
        <time>2025-07-24T13:25:34.289Z</time>
      </trkpt>
      <trkpt lat="44.07359" lon="0.56557">
        <ele>175</ele>
        <time>2025-07-24T13:25:35.289Z</time>
      </trkpt>
      <trkpt lat="44.07359" lon="0.56555">
        <ele>175</ele>
        <time>2025-07-24T13:25:36.289Z</time>
      </trkpt>
      <trkpt lat="44.07359" lon="0.56554">
        <ele>175</ele>
        <time>2025-07-24T13:25:37.289Z</time>
      </trkpt>
      <trkpt lat="44.07359" lon="0.56552">
        <ele>175</ele>
        <time>2025-07-24T13:25:38.289Z</time>
      </trkpt>
      <trkpt lat="44.07358" lon="0.5655">
        <ele>175</ele>
        <time>2025-07-24T13:25:39.289Z</time>
      </trkpt>
      <trkpt lat="44.07358" lon="0.56548">
        <ele>175</ele>
        <time>2025-07-24T13:25:40.289Z</time>
      </trkpt>
      <trkpt lat="44.07358" lon="0.56547">
        <ele>175</ele>
        <time>2025-07-24T13:25:41.289Z</time>
      </trkpt>
      <trkpt lat="44.07358" lon="0.56546">
        <ele>175</ele>
        <time>2025-07-24T13:25:42.289Z</time>
      </trkpt>
      <trkpt lat="44.07358" lon="0.56545">
        <ele>175</ele>
        <time>2025-07-24T13:25:43.289Z</time>
      </trkpt>
      <trkpt lat="44.07357" lon="0.56543">
        <ele>176</ele>
        <time>2025-07-24T13:25:44.289Z</time>
      </trkpt>
      <trkpt lat="44.07357" lon="0.56542">
        <ele>176</ele>
        <time>2025-07-24T13:25:45.289Z</time>
      </trkpt>
      <trkpt lat="44.07357" lon="0.5654">
        <ele>176</ele>
        <time>2025-07-24T13:25:46.289Z</time>
      </trkpt>
      <trkpt lat="44.07356" lon="0.56538">
        <ele>176</ele>
        <time>2025-07-24T13:25:47.289Z</time>
      </trkpt>
      <trkpt lat="44.07356" lon="0.56537">
        <ele>176</ele>
        <time>2025-07-24T13:25:48.289Z</time>
      </trkpt>
      <trkpt lat="44.07356" lon="0.56535">
        <ele>176</ele>
        <time>2025-07-24T13:25:49.289Z</time>
      </trkpt>
      <trkpt lat="44.07356" lon="0.56534">
        <ele>176</ele>
        <time>2025-07-24T13:25:50.289Z</time>
      </trkpt>
      <trkpt lat="44.07355" lon="0.56533">
        <ele>177</ele>
        <time>2025-07-24T13:25:51.289Z</time>
      </trkpt>
      <trkpt lat="44.07355" lon="0.56531">
        <ele>177</ele>
        <time>2025-07-24T13:25:52.289Z</time>
      </trkpt>
      <trkpt lat="44.07355" lon="0.5653">
        <ele>177</ele>
        <time>2025-07-24T13:25:53.289Z</time>
      </trkpt>
      <trkpt lat="44.07354" lon="0.56529">
        <ele>178</ele>
        <time>2025-07-24T13:25:54.289Z</time>
      </trkpt>
      <trkpt lat="44.07354" lon="0.56528">
        <ele>178</ele>
        <time>2025-07-24T13:25:55.289Z</time>
      </trkpt>
      <trkpt lat="44.07354" lon="0.56527">
        <ele>178</ele>
        <time>2025-07-24T13:25:56.289Z</time>
      </trkpt>
      <trkpt lat="44.07354" lon="0.56526">
        <ele>178</ele>
        <time>2025-07-24T13:25:57.289Z</time>
      </trkpt>
      <trkpt lat="44.07354" lon="0.56525">
        <ele>178</ele>
        <time>2025-07-24T13:25:58.289Z</time>
      </trkpt>
      <trkpt lat="44.07354" lon="0.56525">
        <ele>177</ele>
        <time>2025-07-24T13:25:59.289Z</time>
      </trkpt>
      <trkpt lat="44.07354" lon="0.56525">
        <ele>177</ele>
        <time>2025-07-24T13:26:00.289Z</time>
      </trkpt>
      <trkpt lat="44.07354" lon="0.56525">
        <ele>176</ele>
        <time>2025-07-24T13:26:01.289Z</time>
      </trkpt>
      <trkpt lat="44.07354" lon="0.56525">
        <ele>176</ele>
        <time>2025-07-24T13:26:02.289Z</time>
      </trkpt>
      <trkpt lat="44.07354" lon="0.56524">
        <ele>175</ele>
        <time>2025-07-24T13:26:03.289Z</time>
      </trkpt>
      <trkpt lat="44.07354" lon="0.56524">
        <ele>175</ele>
        <time>2025-07-24T13:26:04.289Z</time>
      </trkpt>
      <trkpt lat="44.07354" lon="0.56524">
        <ele>174</ele>
        <time>2025-07-24T13:26:05.290Z</time>
      </trkpt>
      <trkpt lat="44.07354" lon="0.56524">
        <ele>174</ele>
        <time>2025-07-24T13:26:06.289Z</time>
      </trkpt>
      <trkpt lat="44.07354" lon="0.56524">
        <ele>174</ele>
        <time>2025-07-24T13:26:07.289Z</time>
      </trkpt>
      <trkpt lat="44.07354" lon="0.56525">
        <ele>174</ele>
        <time>2025-07-24T13:26:08.289Z</time>
      </trkpt>
      <trkpt lat="44.07355" lon="0.56525">
        <ele>174</ele>
        <time>2025-07-24T13:26:09.289Z</time>
      </trkpt>
      <trkpt lat="44.07355" lon="0.56525">
        <ele>174</ele>
        <time>2025-07-24T13:26:10.289Z</time>
      </trkpt>
      <trkpt lat="44.07355" lon="0.56525">
        <ele>175</ele>
        <time>2025-07-24T13:26:11.289Z</time>
      </trkpt>
      <trkpt lat="44.07355" lon="0.56525">
        <ele>175</ele>
        <time>2025-07-24T13:26:12.289Z</time>
      </trkpt>
      <trkpt lat="44.07356" lon="0.56524">
        <ele>175</ele>
        <time>2025-07-24T13:26:13.289Z</time>
      </trkpt>
      <trkpt lat="44.07356" lon="0.56524">
        <ele>176</ele>
        <time>2025-07-24T13:26:14.289Z</time>
      </trkpt>
      <trkpt lat="44.07356" lon="0.56523">
        <ele>177</ele>
        <time>2025-07-24T13:26:15.289Z</time>
      </trkpt>
      <trkpt lat="44.07357" lon="0.56523">
        <ele>177</ele>
        <time>2025-07-24T13:26:16.289Z</time>
      </trkpt>
      <trkpt lat="44.07357" lon="0.56522">
        <ele>177</ele>
        <time>2025-07-24T13:26:17.289Z</time>
      </trkpt>
      <trkpt lat="44.07358" lon="0.56521">
        <ele>178</ele>
        <time>2025-07-24T13:26:18.289Z</time>
      </trkpt>
      <trkpt lat="44.07358" lon="0.56521">
        <ele>178</ele>
        <time>2025-07-24T13:26:19.289Z</time>
      </trkpt>
      <trkpt lat="44.07357" lon="0.56522">
        <ele>178</ele>
        <time>2025-07-24T13:26:20.289Z</time>
      </trkpt>
      <trkpt lat="44.07357" lon="0.56522">
        <ele>178</ele>
        <time>2025-07-24T13:26:21.289Z</time>
      </trkpt>
      <trkpt lat="44.07357" lon="0.56522">
        <ele>178</ele>
        <time>2025-07-24T13:26:22.289Z</time>
      </trkpt>
      <trkpt lat="44.07356" lon="0.56522">
        <ele>178</ele>
        <time>2025-07-24T13:26:23.289Z</time>
      </trkpt>
      <trkpt lat="44.07356" lon="0.56522">
        <ele>177</ele>
        <time>2025-07-24T13:26:24.289Z</time>
      </trkpt>
      <trkpt lat="44.07356" lon="0.56522">
        <ele>177</ele>
        <time>2025-07-24T13:26:25.289Z</time>
      </trkpt>
      <trkpt lat="44.07356" lon="0.56522">
        <ele>178</ele>
        <time>2025-07-24T13:26:26.289Z</time>
      </trkpt>
      <trkpt lat="44.07356" lon="0.56522">
        <ele>178</ele>
        <time>2025-07-24T13:26:27.289Z</time>
      </trkpt>
      <trkpt lat="44.07356" lon="0.56522">
        <ele>178</ele>
        <time>2025-07-24T13:26:28.289Z</time>
      </trkpt>
      <trkpt lat="44.07356" lon="0.56522">
        <ele>178</ele>
        <time>2025-07-24T13:26:29.289Z</time>
      </trkpt>
      <trkpt lat="44.07356" lon="0.56522">
        <ele>178</ele>
        <time>2025-07-24T13:26:30.289Z</time>
      </trkpt>
      <trkpt lat="44.07356" lon="0.56522">
        <ele>179</ele>
        <time>2025-07-24T13:26:31.289Z</time>
      </trkpt>
      <trkpt lat="44.07356" lon="0.56522">
        <ele>179</ele>
        <time>2025-07-24T13:26:32.289Z</time>
      </trkpt>
      <trkpt lat="44.07356" lon="0.56522">
        <ele>179</ele>
        <time>2025-07-24T13:26:33.289Z</time>
      </trkpt>
      <trkpt lat="44.07356" lon="0.56522">
        <ele>179</ele>
        <time>2025-07-24T13:26:34.289Z</time>
      </trkpt>
      <trkpt lat="44.07356" lon="0.56522">
        <ele>180</ele>
        <time>2025-07-24T13:26:35.289Z</time>
      </trkpt>
      <trkpt lat="44.07356" lon="0.56522">
        <ele>180</ele>
        <time>2025-07-24T13:26:36.289Z</time>
      </trkpt>
      <trkpt lat="44.07356" lon="0.56522">
        <ele>180</ele>
        <time>2025-07-24T13:26:37.289Z</time>
      </trkpt>
      <trkpt lat="44.07356" lon="0.56522">
        <ele>180</ele>
        <time>2025-07-24T13:26:38.289Z</time>
      </trkpt>
      <trkpt lat="44.07355" lon="0.56523">
        <ele>180</ele>
        <time>2025-07-24T13:26:39.289Z</time>
      </trkpt>
      <trkpt lat="44.07355" lon="0.56522">
        <ele>181</ele>
        <time>2025-07-24T13:26:40.289Z</time>
      </trkpt>
      <trkpt lat="44.07355" lon="0.56522">
        <ele>181</ele>
        <time>2025-07-24T13:26:41.289Z</time>
      </trkpt>
      <trkpt lat="44.07355" lon="0.56522">
        <ele>181</ele>
        <time>2025-07-24T13:26:42.289Z</time>
      </trkpt>
      <trkpt lat="44.07355" lon="0.56522">
        <ele>181</ele>
        <time>2025-07-24T13:26:43.289Z</time>
      </trkpt>
      <trkpt lat="44.07355" lon="0.56523">
        <ele>181</ele>
        <time>2025-07-24T13:26:44.289Z</time>
      </trkpt>
      <trkpt lat="44.07355" lon="0.56523">
        <ele>181</ele>
        <time>2025-07-24T13:26:45.289Z</time>
      </trkpt>
      <trkpt lat="44.07355" lon="0.56523">
        <ele>180</ele>
        <time>2025-07-24T13:26:46.289Z</time>
      </trkpt>
      <trkpt lat="44.07355" lon="0.56523">
        <ele>180</ele>
        <time>2025-07-24T13:26:47.289Z</time>
      </trkpt>
      <trkpt lat="44.07355" lon="0.56523">
        <ele>180</ele>
        <time>2025-07-24T13:26:48.289Z</time>
      </trkpt>
      <trkpt lat="44.07355" lon="0.56523">
        <ele>180</ele>
        <time>2025-07-24T13:26:49.289Z</time>
      </trkpt>
      <trkpt lat="44.07355" lon="0.56523">
        <ele>179</ele>
        <time>2025-07-24T13:26:50.289Z</time>
      </trkpt>
      <trkpt lat="44.07355" lon="0.56523">
        <ele>179</ele>
        <time>2025-07-24T13:26:51.289Z</time>
      </trkpt>
      <trkpt lat="44.07355" lon="0.56523">
        <ele>179</ele>
        <time>2025-07-24T13:26:52.289Z</time>
      </trkpt>
      <trkpt lat="44.07355" lon="0.56523">
        <ele>179</ele>
        <time>2025-07-24T13:26:53.289Z</time>
      </trkpt>
      <trkpt lat="44.07355" lon="0.56523">
        <ele>179</ele>
        <time>2025-07-24T13:26:54.289Z</time>
      </trkpt>
      <trkpt lat="44.07354" lon="0.56523">
        <ele>179</ele>
        <time>2025-07-24T13:26:55.289Z</time>
      </trkpt>
      <trkpt lat="44.07354" lon="0.56523">
        <ele>179</ele>
        <time>2025-07-24T13:26:56.289Z</time>
      </trkpt>
      <trkpt lat="44.07354" lon="0.56523">
        <ele>179</ele>
        <time>2025-07-24T13:26:57.289Z</time>
      </trkpt>
      <trkpt lat="44.07355" lon="0.56523">
        <ele>180</ele>
        <time>2025-07-24T13:26:58.289Z</time>
      </trkpt>
      <trkpt lat="44.07355" lon="0.56522">
        <ele>180</ele>
        <time>2025-07-24T13:26:59.289Z</time>
      </trkpt>
      <trkpt lat="44.07355" lon="0.56522">
        <ele>181</ele>
        <time>2025-07-24T13:27:00.289Z</time>
      </trkpt>
      <trkpt lat="44.07355" lon="0.56522">
        <ele>181</ele>
        <time>2025-07-24T13:27:01.289Z</time>
      </trkpt>
      <trkpt lat="44.07355" lon="0.56523">
        <ele>181</ele>
        <time>2025-07-24T13:27:02.289Z</time>
      </trkpt>
      <trkpt lat="44.07355" lon="0.56523">
        <ele>181</ele>
        <time>2025-07-24T13:27:03.289Z</time>
      </trkpt>
      <trkpt lat="44.07355" lon="0.56523">
        <ele>181</ele>
        <time>2025-07-24T13:27:04.289Z</time>
      </trkpt>
      <trkpt lat="44.07355" lon="0.56523">
        <ele>181</ele>
        <time>2025-07-24T13:27:05.289Z</time>
      </trkpt>
      <trkpt lat="44.07355" lon="0.56524">
        <ele>181</ele>
        <time>2025-07-24T13:27:06.289Z</time>
      </trkpt>
      <trkpt lat="44.07356" lon="0.56524">
        <ele>182</ele>
        <time>2025-07-24T13:27:07.289Z</time>
      </trkpt>
      <trkpt lat="44.07356" lon="0.56524">
        <ele>182</ele>
        <time>2025-07-24T13:27:08.289Z</time>
      </trkpt>
      <trkpt lat="44.07356" lon="0.56524">
        <ele>183</ele>
        <time>2025-07-24T13:27:09.289Z</time>
      </trkpt>
      <trkpt lat="44.07356" lon="0.56524">
        <ele>183</ele>
        <time>2025-07-24T13:27:10.289Z</time>
      </trkpt>
      <trkpt lat="44.07356" lon="0.56524">
        <ele>184</ele>
        <time>2025-07-24T13:27:11.289Z</time>
      </trkpt>
      <trkpt lat="44.07356" lon="0.56524">
        <ele>184</ele>
        <time>2025-07-24T13:27:12.289Z</time>
      </trkpt>
      <trkpt lat="44.07356" lon="0.56525">
        <ele>185</ele>
        <time>2025-07-24T13:27:13.289Z</time>
      </trkpt>
      <trkpt lat="44.07355" lon="0.56525">
        <ele>185</ele>
        <time>2025-07-24T13:27:14.289Z</time>
      </trkpt>
      <trkpt lat="44.07355" lon="0.56525">
        <ele>185</ele>
        <time>2025-07-24T13:27:15.289Z</time>
      </trkpt>
      <trkpt lat="44.07355" lon="0.56525">
        <ele>185</ele>
        <time>2025-07-24T13:27:16.289Z</time>
      </trkpt>
      <trkpt lat="44.07355" lon="0.56525">
        <ele>185</ele>
        <time>2025-07-24T13:27:17.289Z</time>
      </trkpt>
      <trkpt lat="44.07355" lon="0.56525">
        <ele>184</ele>
        <time>2025-07-24T13:27:18.289Z</time>
      </trkpt>
      <trkpt lat="44.07355" lon="0.56525">
        <ele>184</ele>
        <time>2025-07-24T13:27:19.289Z</time>
      </trkpt>
      <trkpt lat="44.07355" lon="0.56525">
        <ele>184</ele>
        <time>2025-07-24T13:27:20.289Z</time>
      </trkpt>
      <trkpt lat="44.07356" lon="0.56525">
        <ele>184</ele>
        <time>2025-07-24T13:27:21.289Z</time>
      </trkpt>
      <trkpt lat="44.07356" lon="0.56525">
        <ele>184</ele>
        <time>2025-07-24T13:27:22.289Z</time>
      </trkpt>
      <trkpt lat="44.07356" lon="0.56525">
        <ele>183</ele>
        <time>2025-07-24T13:27:23.289Z</time>
      </trkpt>
      <trkpt lat="44.07356" lon="0.56526">
        <ele>183</ele>
        <time>2025-07-24T13:27:24.289Z</time>
      </trkpt>
      <trkpt lat="44.07356" lon="0.56526">
        <ele>183</ele>
        <time>2025-07-24T13:27:25.289Z</time>
      </trkpt>
      <trkpt lat="44.07356" lon="0.56526">
        <ele>182</ele>
        <time>2025-07-24T13:27:26.289Z</time>
      </trkpt>
      <trkpt lat="44.07356" lon="0.56526">
        <ele>182</ele>
        <time>2025-07-24T13:27:27.289Z</time>
      </trkpt>
      <trkpt lat="44.07356" lon="0.56526">
        <ele>182</ele>
        <time>2025-07-24T13:27:28.289Z</time>
      </trkpt>
      <trkpt lat="44.07356" lon="0.56527">
        <ele>182</ele>
        <time>2025-07-24T13:27:29.289Z</time>
      </trkpt>
      <trkpt lat="44.07356" lon="0.56527">
        <ele>182</ele>
        <time>2025-07-24T13:27:30.289Z</time>
      </trkpt>
      <trkpt lat="44.07356" lon="0.56527">
        <ele>181</ele>
        <time>2025-07-24T13:27:31.289Z</time>
      </trkpt>
      <trkpt lat="44.07356" lon="0.56527">
        <ele>181</ele>
        <time>2025-07-24T13:27:32.289Z</time>
      </trkpt>
      <trkpt lat="44.07356" lon="0.56527">
        <ele>180</ele>
        <time>2025-07-24T13:27:33.289Z</time>
      </trkpt>
      <trkpt lat="44.07356" lon="0.56527">
        <ele>180</ele>
        <time>2025-07-24T13:27:34.289Z</time>
      </trkpt>
      <trkpt lat="44.07355" lon="0.56527">
        <ele>179</ele>
        <time>2025-07-24T13:27:35.289Z</time>
      </trkpt>
      <trkpt lat="44.07356" lon="0.56527">
        <ele>179</ele>
        <time>2025-07-24T13:27:36.289Z</time>
      </trkpt>
      <trkpt lat="44.07356" lon="0.56527">
        <ele>178</ele>
        <time>2025-07-24T13:27:37.289Z</time>
      </trkpt>
      <trkpt lat="44.07356" lon="0.56528">
        <ele>178</ele>
        <time>2025-07-24T13:27:38.289Z</time>
      </trkpt>
      <trkpt lat="44.07356" lon="0.56527">
        <ele>178</ele>
        <time>2025-07-24T13:27:39.289Z</time>
      </trkpt>
      <trkpt lat="44.07356" lon="0.56527">
        <ele>179</ele>
        <time>2025-07-24T13:27:40.289Z</time>
      </trkpt>
      <trkpt lat="44.07357" lon="0.56527">
        <ele>179</ele>
        <time>2025-07-24T13:27:41.289Z</time>
      </trkpt>
      <trkpt lat="44.07357" lon="0.56526">
        <ele>179</ele>
        <time>2025-07-24T13:27:42.289Z</time>
      </trkpt>
      <trkpt lat="44.07358" lon="0.56525">
        <ele>179</ele>
        <time>2025-07-24T13:27:43.289Z</time>
      </trkpt>
      <trkpt lat="44.07358" lon="0.56524">
        <ele>179</ele>
        <time>2025-07-24T13:27:44.289Z</time>
      </trkpt>
      <trkpt lat="44.07359" lon="0.56523">
        <ele>179</ele>
        <time>2025-07-24T13:27:45.289Z</time>
      </trkpt>
      <trkpt lat="44.07359" lon="0.56523">
        <ele>179</ele>
        <time>2025-07-24T13:27:46.289Z</time>
      </trkpt>
      <trkpt lat="44.07359" lon="0.56524">
        <ele>179</ele>
        <time>2025-07-24T13:27:47.289Z</time>
      </trkpt>
      <trkpt lat="44.07358" lon="0.56524">
        <ele>179</ele>
        <time>2025-07-24T13:27:48.289Z</time>
      </trkpt>
      <trkpt lat="44.07358" lon="0.56525">
        <ele>179</ele>
        <time>2025-07-24T13:27:49.289Z</time>
      </trkpt>
      <trkpt lat="44.07358" lon="0.56525">
        <ele>179</ele>
        <time>2025-07-24T13:27:50.289Z</time>
      </trkpt>
      <trkpt lat="44.07358" lon="0.56525">
        <ele>179</ele>
        <time>2025-07-24T13:27:51.289Z</time>
      </trkpt>
      <trkpt lat="44.07358" lon="0.56525">
        <ele>179</ele>
        <time>2025-07-24T13:27:52.289Z</time>
      </trkpt>
      <trkpt lat="44.07358" lon="0.56526">
        <ele>180</ele>
        <time>2025-07-24T13:27:53.289Z</time>
      </trkpt>
      <trkpt lat="44.07358" lon="0.56526">
        <ele>180</ele>
        <time>2025-07-24T13:27:54.289Z</time>
      </trkpt>
      <trkpt lat="44.07358" lon="0.56525">
        <ele>180</ele>
        <time>2025-07-24T13:27:55.289Z</time>
      </trkpt>
      <trkpt lat="44.07358" lon="0.56525">
        <ele>180</ele>
        <time>2025-07-24T13:27:56.289Z</time>
      </trkpt>
      <trkpt lat="44.07358" lon="0.56525">
        <ele>181</ele>
        <time>2025-07-24T13:27:57.289Z</time>
      </trkpt>
      <trkpt lat="44.07358" lon="0.56525">
        <ele>181</ele>
        <time>2025-07-24T13:27:58.289Z</time>
      </trkpt>
      <trkpt lat="44.07359" lon="0.56526">
        <ele>181</ele>
        <time>2025-07-24T13:27:59.289Z</time>
      </trkpt>
      <trkpt lat="44.07359" lon="0.56526">
        <ele>181</ele>
        <time>2025-07-24T13:28:00.289Z</time>
      </trkpt>
      <trkpt lat="44.07359" lon="0.56526">
        <ele>181</ele>
        <time>2025-07-24T13:28:01.289Z</time>
      </trkpt>
      <trkpt lat="44.07359" lon="0.56526">
        <ele>180</ele>
        <time>2025-07-24T13:28:02.289Z</time>
      </trkpt>
      <trkpt lat="44.07359" lon="0.56526">
        <ele>180</ele>
        <time>2025-07-24T13:28:03.289Z</time>
      </trkpt>
      <trkpt lat="44.07359" lon="0.56526">
        <ele>180</ele>
        <time>2025-07-24T13:28:04.289Z</time>
      </trkpt>
      <trkpt lat="44.07359" lon="0.56526">
        <ele>179</ele>
        <time>2025-07-24T13:28:05.289Z</time>
      </trkpt>
      <trkpt lat="44.07359" lon="0.56526">
        <ele>179</ele>
        <time>2025-07-24T13:28:06.289Z</time>
      </trkpt>
      <trkpt lat="44.07359" lon="0.56526">
        <ele>179</ele>
        <time>2025-07-24T13:28:07.289Z</time>
      </trkpt>
      <trkpt lat="44.07359" lon="0.56526">
        <ele>179</ele>
        <time>2025-07-24T13:28:08.289Z</time>
      </trkpt>
      <trkpt lat="44.07359" lon="0.56526">
        <ele>179</ele>
        <time>2025-07-24T13:28:09.289Z</time>
      </trkpt>
      <trkpt lat="44.07359" lon="0.56525">
        <ele>179</ele>
        <time>2025-07-24T13:28:10.289Z</time>
      </trkpt>
      <trkpt lat="44.07358" lon="0.56525">
        <ele>180</ele>
        <time>2025-07-24T13:28:11.289Z</time>
      </trkpt>
      <trkpt lat="44.07358" lon="0.56525">
        <ele>179</ele>
        <time>2025-07-24T13:28:12.289Z</time>
      </trkpt>
      <trkpt lat="44.07358" lon="0.56525">
        <ele>179</ele>
        <time>2025-07-24T13:28:13.289Z</time>
      </trkpt>
      <trkpt lat="44.07358" lon="0.56525">
        <ele>179</ele>
        <time>2025-07-24T13:28:14.289Z</time>
      </trkpt>
      <trkpt lat="44.07358" lon="0.56525">
        <ele>179</ele>
        <time>2025-07-24T13:28:15.289Z</time>
      </trkpt>
      <trkpt lat="44.07359" lon="0.56525">
        <ele>179</ele>
        <time>2025-07-24T13:28:16.289Z</time>
      </trkpt>
      <trkpt lat="44.07359" lon="0.56525">
        <ele>178</ele>
        <time>2025-07-24T13:28:17.289Z</time>
      </trkpt>
      <trkpt lat="44.07359" lon="0.56525">
        <ele>178</ele>
        <time>2025-07-24T13:28:18.289Z</time>
      </trkpt>
      <trkpt lat="44.07359" lon="0.56525">
        <ele>178</ele>
        <time>2025-07-24T13:28:19.289Z</time>
      </trkpt>
      <trkpt lat="44.07359" lon="0.56525">
        <ele>178</ele>
        <time>2025-07-24T13:28:20.289Z</time>
      </trkpt>
      <trkpt lat="44.07359" lon="0.56525">
        <ele>178</ele>
        <time>2025-07-24T13:28:21.289Z</time>
      </trkpt>
      <trkpt lat="44.07359" lon="0.56525">
        <ele>178</ele>
        <time>2025-07-24T13:28:22.289Z</time>
      </trkpt>
      <trkpt lat="44.07359" lon="0.56525">
        <ele>178</ele>
        <time>2025-07-24T13:28:23.289Z</time>
      </trkpt>
      <trkpt lat="44.07359" lon="0.56525">
        <ele>178</ele>
        <time>2025-07-24T13:28:24.289Z</time>
      </trkpt>
      <trkpt lat="44.07359" lon="0.56525">
        <ele>178</ele>
        <time>2025-07-24T13:28:25.289Z</time>
      </trkpt>
      <trkpt lat="44.07359" lon="0.56525">
        <ele>178</ele>
        <time>2025-07-24T13:28:26.289Z</time>
      </trkpt>
      <trkpt lat="44.07359" lon="0.56525">
        <ele>178</ele>
        <time>2025-07-24T13:28:27.289Z</time>
      </trkpt>
      <trkpt lat="44.07359" lon="0.56525">
        <ele>178</ele>
        <time>2025-07-24T13:28:28.289Z</time>
      </trkpt>
      <trkpt lat="44.07359" lon="0.56525">
        <ele>178</ele>
        <time>2025-07-24T13:28:29.289Z</time>
      </trkpt>
      <trkpt lat="44.07359" lon="0.56525">
        <ele>178</ele>
        <time>2025-07-24T13:28:30.289Z</time>
      </trkpt>
      <trkpt lat="44.07359" lon="0.56525">
        <ele>178</ele>
        <time>2025-07-24T13:28:31.289Z</time>
      </trkpt>
      <trkpt lat="44.07359" lon="0.56525">
        <ele>179</ele>
        <time>2025-07-24T13:28:32.289Z</time>
      </trkpt>
      <trkpt lat="44.07359" lon="0.56525">
        <ele>179</ele>
        <time>2025-07-24T13:28:33.289Z</time>
      </trkpt>
      <trkpt lat="44.07359" lon="0.56525">
        <ele>179</ele>
        <time>2025-07-24T13:28:34.289Z</time>
      </trkpt>
      <trkpt lat="44.07359" lon="0.56525">
        <ele>180</ele>
        <time>2025-07-24T13:28:35.289Z</time>
      </trkpt>
      <trkpt lat="44.07359" lon="0.56525">
        <ele>180</ele>
        <time>2025-07-24T13:28:36.289Z</time>
      </trkpt>
      <trkpt lat="44.07359" lon="0.56525">
        <ele>180</ele>
        <time>2025-07-24T13:28:37.289Z</time>
      </trkpt>
      <trkpt lat="44.07359" lon="0.56525">
        <ele>181</ele>
        <time>2025-07-24T13:28:38.289Z</time>
      </trkpt>
      <trkpt lat="44.07359" lon="0.56525">
        <ele>181</ele>
        <time>2025-07-24T13:28:39.289Z</time>
      </trkpt>
      <trkpt lat="44.07359" lon="0.56525">
        <ele>181</ele>
        <time>2025-07-24T13:28:40.289Z</time>
      </trkpt>
      <trkpt lat="44.07359" lon="0.56525">
        <ele>181</ele>
        <time>2025-07-24T13:28:41.289Z</time>
      </trkpt>
      <trkpt lat="44.07359" lon="0.56525">
        <ele>181</ele>
        <time>2025-07-24T13:28:42.289Z</time>
      </trkpt>
      <trkpt lat="44.07359" lon="0.56525">
        <ele>181</ele>
        <time>2025-07-24T13:28:43.289Z</time>
      </trkpt>
      <trkpt lat="44.07359" lon="0.56525">
        <ele>181</ele>
        <time>2025-07-24T13:28:44.289Z</time>
      </trkpt>
      <trkpt lat="44.07359" lon="0.56525">
        <ele>181</ele>
        <time>2025-07-24T13:28:45.289Z</time>
      </trkpt>
      <trkpt lat="44.07359" lon="0.56525">
        <ele>181</ele>
        <time>2025-07-24T13:28:46.289Z</time>
      </trkpt>
      <trkpt lat="44.07359" lon="0.56525">
        <ele>181</ele>
        <time>2025-07-24T13:28:47.289Z</time>
      </trkpt>
      <trkpt lat="44.07359" lon="0.56525">
        <ele>181</ele>
        <time>2025-07-24T13:28:48.289Z</time>
      </trkpt>
      <trkpt lat="44.07359" lon="0.56525">
        <ele>181</ele>
        <time>2025-07-24T13:28:49.289Z</time>
      </trkpt>
      <trkpt lat="44.07359" lon="0.56525">
        <ele>181</ele>
        <time>2025-07-24T13:28:50.289Z</time>
      </trkpt>
      <trkpt lat="44.07359" lon="0.56525">
        <ele>180</ele>
        <time>2025-07-24T13:28:51.289Z</time>
      </trkpt>
      <trkpt lat="44.0736" lon="0.56524">
        <ele>181</ele>
        <time>2025-07-24T13:28:52.289Z</time>
      </trkpt>
      <trkpt lat="44.0736" lon="0.56524">
        <ele>181</ele>
        <time>2025-07-24T13:28:53.289Z</time>
      </trkpt>
      <trkpt lat="44.07361" lon="0.56523">
        <ele>181</ele>
        <time>2025-07-24T13:28:54.289Z</time>
      </trkpt>
      <trkpt lat="44.07361" lon="0.56522">
        <ele>181</ele>
        <time>2025-07-24T13:28:55.289Z</time>
      </trkpt>
      <trkpt lat="44.07363" lon="0.56522">
        <ele>181</ele>
        <time>2025-07-24T13:28:56.289Z</time>
      </trkpt>
      <trkpt lat="44.07364" lon="0.56521">
        <ele>182</ele>
        <time>2025-07-24T13:28:57.289Z</time>
      </trkpt>
      <trkpt lat="44.07365" lon="0.56521">
        <ele>182</ele>
        <time>2025-07-24T13:28:58.289Z</time>
      </trkpt>
      <trkpt lat="44.07366" lon="0.56521">
        <ele>182</ele>
        <time>2025-07-24T13:28:59.289Z</time>
      </trkpt>
      <trkpt lat="44.07368" lon="0.56521">
        <ele>181</ele>
        <time>2025-07-24T13:29:00.289Z</time>
      </trkpt>
      <trkpt lat="44.07369" lon="0.56521">
        <ele>181</ele>
        <time>2025-07-24T13:29:01.289Z</time>
      </trkpt>
      <trkpt lat="44.0737" lon="0.56521">
        <ele>181</ele>
        <time>2025-07-24T13:29:02.289Z</time>
      </trkpt>
      <trkpt lat="44.07371" lon="0.56521">
        <ele>181</ele>
        <time>2025-07-24T13:29:03.289Z</time>
      </trkpt>
      <trkpt lat="44.07372" lon="0.56521">
        <ele>181</ele>
        <time>2025-07-24T13:29:04.289Z</time>
      </trkpt>
      <trkpt lat="44.07373" lon="0.56521">
        <ele>181</ele>
        <time>2025-07-24T13:29:05.289Z</time>
      </trkpt>
      <trkpt lat="44.07375" lon="0.56521">
        <ele>181</ele>
        <time>2025-07-24T13:29:06.289Z</time>
      </trkpt>
      <trkpt lat="44.07376" lon="0.56521">
        <ele>180</ele>
        <time>2025-07-24T13:29:07.289Z</time>
      </trkpt>
      <trkpt lat="44.07377" lon="0.5652">
        <ele>180</ele>
        <time>2025-07-24T13:29:08.289Z</time>
      </trkpt>
      <trkpt lat="44.07379" lon="0.5652">
        <ele>180</ele>
        <time>2025-07-24T13:29:09.289Z</time>
      </trkpt>
      <trkpt lat="44.0738" lon="0.5652">
        <ele>181</ele>
        <time>2025-07-24T13:29:10.289Z</time>
      </trkpt>
      <trkpt lat="44.07381" lon="0.5652">
        <ele>181</ele>
        <time>2025-07-24T13:29:11.289Z</time>
      </trkpt>
      <trkpt lat="44.07383" lon="0.5652">
        <ele>181</ele>
        <time>2025-07-24T13:29:12.289Z</time>
      </trkpt>
      <trkpt lat="44.07384" lon="0.56519">
        <ele>181</ele>
        <time>2025-07-24T13:29:13.289Z</time>
      </trkpt>
      <trkpt lat="44.07386" lon="0.56519">
        <ele>181</ele>
        <time>2025-07-24T13:29:14.289Z</time>
      </trkpt>
      <trkpt lat="44.07387" lon="0.56519">
        <ele>181</ele>
        <time>2025-07-24T13:29:15.289Z</time>
      </trkpt>
      <trkpt lat="44.07388" lon="0.56519">
        <ele>181</ele>
        <time>2025-07-24T13:29:16.289Z</time>
      </trkpt>
      <trkpt lat="44.0739" lon="0.56519">
        <ele>181</ele>
        <time>2025-07-24T13:29:17.289Z</time>
      </trkpt>
      <trkpt lat="44.07391" lon="0.56519">
        <ele>181</ele>
        <time>2025-07-24T13:29:18.289Z</time>
      </trkpt>
      <trkpt lat="44.07392" lon="0.56519">
        <ele>180</ele>
        <time>2025-07-24T13:29:19.289Z</time>
      </trkpt>
      <trkpt lat="44.07393" lon="0.56519">
        <ele>180</ele>
        <time>2025-07-24T13:29:20.289Z</time>
      </trkpt>
      <trkpt lat="44.07394" lon="0.56519">
        <ele>180</ele>
        <time>2025-07-24T13:29:21.289Z</time>
      </trkpt>
      <trkpt lat="44.07396" lon="0.56519">
        <ele>180</ele>
        <time>2025-07-24T13:29:22.289Z</time>
      </trkpt>
      <trkpt lat="44.07397" lon="0.56519">
        <ele>180</ele>
        <time>2025-07-24T13:29:23.289Z</time>
      </trkpt>
      <trkpt lat="44.07398" lon="0.56519">
        <ele>180</ele>
        <time>2025-07-24T13:29:24.289Z</time>
      </trkpt>
      <trkpt lat="44.07399" lon="0.56519">
        <ele>180</ele>
        <time>2025-07-24T13:29:25.289Z</time>
      </trkpt>
      <trkpt lat="44.07401" lon="0.56519">
        <ele>180</ele>
        <time>2025-07-24T13:29:26.289Z</time>
      </trkpt>
      <trkpt lat="44.07402" lon="0.56519">
        <ele>180</ele>
        <time>2025-07-24T13:29:27.290Z</time>
      </trkpt>
      <trkpt lat="44.07404" lon="0.56519">
        <ele>180</ele>
        <time>2025-07-24T13:29:28.289Z</time>
      </trkpt>
      <trkpt lat="44.07405" lon="0.56519">
        <ele>181</ele>
        <time>2025-07-24T13:29:29.289Z</time>
      </trkpt>
      <trkpt lat="44.07407" lon="0.56519">
        <ele>181</ele>
        <time>2025-07-24T13:29:30.290Z</time>
      </trkpt>
      <trkpt lat="44.07408" lon="0.56519">
        <ele>181</ele>
        <time>2025-07-24T13:29:31.289Z</time>
      </trkpt>
      <trkpt lat="44.0741" lon="0.56519">
        <ele>181</ele>
        <time>2025-07-24T13:29:32.289Z</time>
      </trkpt>
      <trkpt lat="44.07411" lon="0.5652">
        <ele>181</ele>
        <time>2025-07-24T13:29:33.289Z</time>
      </trkpt>
      <trkpt lat="44.07413" lon="0.5652">
        <ele>181</ele>
        <time>2025-07-24T13:29:34.289Z</time>
      </trkpt>
      <trkpt lat="44.07414" lon="0.5652">
        <ele>181</ele>
        <time>2025-07-24T13:29:35.289Z</time>
      </trkpt>
      <trkpt lat="44.07415" lon="0.5652">
        <ele>181</ele>
        <time>2025-07-24T13:29:36.289Z</time>
      </trkpt>
      <trkpt lat="44.07417" lon="0.5652">
        <ele>181</ele>
        <time>2025-07-24T13:29:37.289Z</time>
      </trkpt>
      <trkpt lat="44.07418" lon="0.5652">
        <ele>181</ele>
        <time>2025-07-24T13:29:38.289Z</time>
      </trkpt>
      <trkpt lat="44.07419" lon="0.5652">
        <ele>181</ele>
        <time>2025-07-24T13:29:39.289Z</time>
      </trkpt>
      <trkpt lat="44.0742" lon="0.5652">
        <ele>181</ele>
        <time>2025-07-24T13:29:40.289Z</time>
      </trkpt>
      <trkpt lat="44.07422" lon="0.5652">
        <ele>181</ele>
        <time>2025-07-24T13:29:41.290Z</time>
      </trkpt>
      <trkpt lat="44.07423" lon="0.5652">
        <ele>181</ele>
        <time>2025-07-24T13:29:42.289Z</time>
      </trkpt>
      <trkpt lat="44.07424" lon="0.5652">
        <ele>181</ele>
        <time>2025-07-24T13:29:43.289Z</time>
      </trkpt>
      <trkpt lat="44.07425" lon="0.5652">
        <ele>182</ele>
        <time>2025-07-24T13:29:44.289Z</time>
      </trkpt>
      <trkpt lat="44.07426" lon="0.5652">
        <ele>182</ele>
        <time>2025-07-24T13:29:45.289Z</time>
      </trkpt>
      <trkpt lat="44.07428" lon="0.5652">
        <ele>182</ele>
        <time>2025-07-24T13:29:46.289Z</time>
      </trkpt>
      <trkpt lat="44.07429" lon="0.5652">
        <ele>182</ele>
        <time>2025-07-24T13:29:47.289Z</time>
      </trkpt>
      <trkpt lat="44.0743" lon="0.56519">
        <ele>182</ele>
        <time>2025-07-24T13:29:48.289Z</time>
      </trkpt>
      <trkpt lat="44.07431" lon="0.56519">
        <ele>182</ele>
        <time>2025-07-24T13:29:49.289Z</time>
      </trkpt>
      <trkpt lat="44.07432" lon="0.56519">
        <ele>182</ele>
        <time>2025-07-24T13:29:50.289Z</time>
      </trkpt>
      <trkpt lat="44.07434" lon="0.5652">
        <ele>182</ele>
        <time>2025-07-24T13:29:51.289Z</time>
      </trkpt>
      <trkpt lat="44.07435" lon="0.5652">
        <ele>182</ele>
        <time>2025-07-24T13:29:52.289Z</time>
      </trkpt>
      <trkpt lat="44.07436" lon="0.5652">
        <ele>182</ele>
        <time>2025-07-24T13:29:53.289Z</time>
      </trkpt>
      <trkpt lat="44.07438" lon="0.5652">
        <ele>182</ele>
        <time>2025-07-24T13:29:54.289Z</time>
      </trkpt>
      <trkpt lat="44.07439" lon="0.5652">
        <ele>182</ele>
        <time>2025-07-24T13:29:55.289Z</time>
      </trkpt>
      <trkpt lat="44.07441" lon="0.5652">
        <ele>182</ele>
        <time>2025-07-24T13:29:56.289Z</time>
      </trkpt>
      <trkpt lat="44.07442" lon="0.5652">
        <ele>182</ele>
        <time>2025-07-24T13:29:57.289Z</time>
      </trkpt>
      <trkpt lat="44.07443" lon="0.5652">
        <ele>182</ele>
        <time>2025-07-24T13:29:58.289Z</time>
      </trkpt>
      <trkpt lat="44.07445" lon="0.5652">
        <ele>182</ele>
        <time>2025-07-24T13:29:59.289Z</time>
      </trkpt>
      <trkpt lat="44.07446" lon="0.56521">
        <ele>182</ele>
        <time>2025-07-24T13:30:00.289Z</time>
      </trkpt>
      <trkpt lat="44.07448" lon="0.56521">
        <ele>182</ele>
        <time>2025-07-24T13:30:01.289Z</time>
      </trkpt>
      <trkpt lat="44.07449" lon="0.56521">
        <ele>182</ele>
        <time>2025-07-24T13:30:02.289Z</time>
      </trkpt>
      <trkpt lat="44.07451" lon="0.56521">
        <ele>181</ele>
        <time>2025-07-24T13:30:03.289Z</time>
      </trkpt>
      <trkpt lat="44.07452" lon="0.56521">
        <ele>181</ele>
        <time>2025-07-24T13:30:04.289Z</time>
      </trkpt>
      <trkpt lat="44.07453" lon="0.56521">
        <ele>182</ele>
        <time>2025-07-24T13:30:05.289Z</time>
      </trkpt>
      <trkpt lat="44.07454" lon="0.56521">
        <ele>182</ele>
        <time>2025-07-24T13:30:06.289Z</time>
      </trkpt>
      <trkpt lat="44.07456" lon="0.56521">
        <ele>182</ele>
        <time>2025-07-24T13:30:07.289Z</time>
      </trkpt>
      <trkpt lat="44.07457" lon="0.56521">
        <ele>182</ele>
        <time>2025-07-24T13:30:08.289Z</time>
      </trkpt>
      <trkpt lat="44.07458" lon="0.56522">
        <ele>182</ele>
        <time>2025-07-24T13:30:09.289Z</time>
      </trkpt>
      <trkpt lat="44.07459" lon="0.56522">
        <ele>182</ele>
        <time>2025-07-24T13:30:10.289Z</time>
      </trkpt>
      <trkpt lat="44.07461" lon="0.56522">
        <ele>182</ele>
        <time>2025-07-24T13:30:11.289Z</time>
      </trkpt>
      <trkpt lat="44.07462" lon="0.56522">
        <ele>182</ele>
        <time>2025-07-24T13:30:12.289Z</time>
      </trkpt>
      <trkpt lat="44.07463" lon="0.56522">
        <ele>182</ele>
        <time>2025-07-24T13:30:13.289Z</time>
      </trkpt>
      <trkpt lat="44.07465" lon="0.56522">
        <ele>182</ele>
        <time>2025-07-24T13:30:14.289Z</time>
      </trkpt>
      <trkpt lat="44.07466" lon="0.56522">
        <ele>182</ele>
        <time>2025-07-24T13:30:15.289Z</time>
      </trkpt>
      <trkpt lat="44.07468" lon="0.56522">
        <ele>182</ele>
        <time>2025-07-24T13:30:16.289Z</time>
      </trkpt>
      <trkpt lat="44.07469" lon="0.56522">
        <ele>182</ele>
        <time>2025-07-24T13:30:17.289Z</time>
      </trkpt>
      <trkpt lat="44.0747" lon="0.56522">
        <ele>182</ele>
        <time>2025-07-24T13:30:18.289Z</time>
      </trkpt>
      <trkpt lat="44.07471" lon="0.56522">
        <ele>182</ele>
        <time>2025-07-24T13:30:19.289Z</time>
      </trkpt>
      <trkpt lat="44.07472" lon="0.56522">
        <ele>182</ele>
        <time>2025-07-24T13:30:20.289Z</time>
      </trkpt>
      <trkpt lat="44.07474" lon="0.56521">
        <ele>183</ele>
        <time>2025-07-24T13:30:21.289Z</time>
      </trkpt>
      <trkpt lat="44.07475" lon="0.56521">
        <ele>183</ele>
        <time>2025-07-24T13:30:22.289Z</time>
      </trkpt>
      <trkpt lat="44.07476" lon="0.56521">
        <ele>183</ele>
        <time>2025-07-24T13:30:23.289Z</time>
      </trkpt>
      <trkpt lat="44.07477" lon="0.56521">
        <ele>183</ele>
        <time>2025-07-24T13:30:24.289Z</time>
      </trkpt>
      <trkpt lat="44.07478" lon="0.56521">
        <ele>182</ele>
        <time>2025-07-24T13:30:25.289Z</time>
      </trkpt>
      <trkpt lat="44.0748" lon="0.56521">
        <ele>182</ele>
        <time>2025-07-24T13:30:26.289Z</time>
      </trkpt>
      <trkpt lat="44.07481" lon="0.56521">
        <ele>183</ele>
        <time>2025-07-24T13:30:27.289Z</time>
      </trkpt>
      <trkpt lat="44.07482" lon="0.5652">
        <ele>183</ele>
        <time>2025-07-24T13:30:28.289Z</time>
      </trkpt>
      <trkpt lat="44.07483" lon="0.56521">
        <ele>183</ele>
        <time>2025-07-24T13:30:29.289Z</time>
      </trkpt>
      <trkpt lat="44.07485" lon="0.56521">
        <ele>183</ele>
        <time>2025-07-24T13:30:30.289Z</time>
      </trkpt>
      <trkpt lat="44.07486" lon="0.56521">
        <ele>183</ele>
        <time>2025-07-24T13:30:31.289Z</time>
      </trkpt>
      <trkpt lat="44.07487" lon="0.56521">
        <ele>184</ele>
        <time>2025-07-24T13:30:32.289Z</time>
      </trkpt>
      <trkpt lat="44.07488" lon="0.56521">
        <ele>184</ele>
        <time>2025-07-24T13:30:33.289Z</time>
      </trkpt>
      <trkpt lat="44.07489" lon="0.56521">
        <ele>184</ele>
        <time>2025-07-24T13:30:34.289Z</time>
      </trkpt>
      <trkpt lat="44.0749" lon="0.56521">
        <ele>184</ele>
        <time>2025-07-24T13:30:35.289Z</time>
      </trkpt>
      <trkpt lat="44.07491" lon="0.56521">
        <ele>185</ele>
        <time>2025-07-24T13:30:36.289Z</time>
      </trkpt>
      <trkpt lat="44.07492" lon="0.56521">
        <ele>185</ele>
        <time>2025-07-24T13:30:37.289Z</time>
      </trkpt>
      <trkpt lat="44.07494" lon="0.56521">
        <ele>185</ele>
        <time>2025-07-24T13:30:38.289Z</time>
      </trkpt>
      <trkpt lat="44.07495" lon="0.56521">
        <ele>186</ele>
        <time>2025-07-24T13:30:39.289Z</time>
      </trkpt>
      <trkpt lat="44.07496" lon="0.56521">
        <ele>186</ele>
        <time>2025-07-24T13:30:40.289Z</time>
      </trkpt>
      <trkpt lat="44.07497" lon="0.56521">
        <ele>186</ele>
        <time>2025-07-24T13:30:41.289Z</time>
      </trkpt>
      <trkpt lat="44.07499" lon="0.56521">
        <ele>186</ele>
        <time>2025-07-24T13:30:42.289Z</time>
      </trkpt>
      <trkpt lat="44.075" lon="0.56521">
        <ele>187</ele>
        <time>2025-07-24T13:30:43.289Z</time>
      </trkpt>
      <trkpt lat="44.07501" lon="0.56521">
        <ele>187</ele>
        <time>2025-07-24T13:30:44.289Z</time>
      </trkpt>
      <trkpt lat="44.07503" lon="0.56521">
        <ele>187</ele>
        <time>2025-07-24T13:30:45.289Z</time>
      </trkpt>
      <trkpt lat="44.07504" lon="0.56522">
        <ele>187</ele>
        <time>2025-07-24T13:30:46.289Z</time>
      </trkpt>
      <trkpt lat="44.07506" lon="0.56522">
        <ele>187</ele>
        <time>2025-07-24T13:30:47.289Z</time>
      </trkpt>
      <trkpt lat="44.07507" lon="0.56522">
        <ele>187</ele>
        <time>2025-07-24T13:30:48.289Z</time>
      </trkpt>
      <trkpt lat="44.0751" lon="0.56522">
        <ele>187</ele>
        <time>2025-07-24T13:30:49.289Z</time>
      </trkpt>
      <trkpt lat="44.07511" lon="0.56523">
        <ele>186</ele>
        <time>2025-07-24T13:30:50.289Z</time>
      </trkpt>
      <trkpt lat="44.07513" lon="0.56523">
        <ele>186</ele>
        <time>2025-07-24T13:30:51.289Z</time>
      </trkpt>
      <trkpt lat="44.07514" lon="0.56522">
        <ele>186</ele>
        <time>2025-07-24T13:30:52.289Z</time>
      </trkpt>
      <trkpt lat="44.07515" lon="0.56522">
        <ele>186</ele>
        <time>2025-07-24T13:30:53.289Z</time>
      </trkpt>
      <trkpt lat="44.07516" lon="0.56523">
        <ele>186</ele>
        <time>2025-07-24T13:30:54.289Z</time>
      </trkpt>
      <trkpt lat="44.07518" lon="0.56523">
        <ele>186</ele>
        <time>2025-07-24T13:30:55.289Z</time>
      </trkpt>
      <trkpt lat="44.07519" lon="0.56523">
        <ele>185</ele>
        <time>2025-07-24T13:30:56.289Z</time>
      </trkpt>
      <trkpt lat="44.07521" lon="0.56523">
        <ele>186</ele>
        <time>2025-07-24T13:30:57.289Z</time>
      </trkpt>
      <trkpt lat="44.07522" lon="0.56524">
        <ele>185</ele>
        <time>2025-07-24T13:30:58.289Z</time>
      </trkpt>
      <trkpt lat="44.07523" lon="0.56524">
        <ele>186</ele>
        <time>2025-07-24T13:30:59.289Z</time>
      </trkpt>
      <trkpt lat="44.07524" lon="0.56524">
        <ele>186</ele>
        <time>2025-07-24T13:31:00.289Z</time>
      </trkpt>
      <trkpt lat="44.07525" lon="0.56525">
        <ele>186</ele>
        <time>2025-07-24T13:31:01.289Z</time>
      </trkpt>
      <trkpt lat="44.07527" lon="0.56525">
        <ele>186</ele>
        <time>2025-07-24T13:31:02.289Z</time>
      </trkpt>
      <trkpt lat="44.07528" lon="0.56524">
        <ele>186</ele>
        <time>2025-07-24T13:31:03.289Z</time>
      </trkpt>
      <trkpt lat="44.07529" lon="0.56524">
        <ele>187</ele>
        <time>2025-07-24T13:31:04.289Z</time>
      </trkpt>
      <trkpt lat="44.07531" lon="0.56524">
        <ele>187</ele>
        <time>2025-07-24T13:31:05.289Z</time>
      </trkpt>
      <trkpt lat="44.07533" lon="0.56524">
        <ele>188</ele>
        <time>2025-07-24T13:31:06.289Z</time>
      </trkpt>
      <trkpt lat="44.07534" lon="0.56523">
        <ele>188</ele>
        <time>2025-07-24T13:31:07.289Z</time>
      </trkpt>
      <trkpt lat="44.07535" lon="0.56524">
        <ele>188</ele>
        <time>2025-07-24T13:31:08.289Z</time>
      </trkpt>
      <trkpt lat="44.07537" lon="0.56524">
        <ele>188</ele>
        <time>2025-07-24T13:31:09.289Z</time>
      </trkpt>
      <trkpt lat="44.07538" lon="0.56524">
        <ele>188</ele>
        <time>2025-07-24T13:31:10.289Z</time>
      </trkpt>
      <trkpt lat="44.07539" lon="0.56524">
        <ele>188</ele>
        <time>2025-07-24T13:31:11.289Z</time>
      </trkpt>
      <trkpt lat="44.0754" lon="0.56524">
        <ele>187</ele>
        <time>2025-07-24T13:31:12.289Z</time>
      </trkpt>
      <trkpt lat="44.07541" lon="0.56524">
        <ele>187</ele>
        <time>2025-07-24T13:31:13.289Z</time>
      </trkpt>
      <trkpt lat="44.07543" lon="0.56524">
        <ele>187</ele>
        <time>2025-07-24T13:31:14.289Z</time>
      </trkpt>
      <trkpt lat="44.07544" lon="0.56524">
        <ele>187</ele>
        <time>2025-07-24T13:31:15.289Z</time>
      </trkpt>
      <trkpt lat="44.07545" lon="0.56524">
        <ele>187</ele>
        <time>2025-07-24T13:31:16.289Z</time>
      </trkpt>
      <trkpt lat="44.07546" lon="0.56524">
        <ele>187</ele>
        <time>2025-07-24T13:31:17.289Z</time>
      </trkpt>
      <trkpt lat="44.07548" lon="0.56524">
        <ele>187</ele>
        <time>2025-07-24T13:31:18.289Z</time>
      </trkpt>
      <trkpt lat="44.07549" lon="0.56524">
        <ele>186</ele>
        <time>2025-07-24T13:31:19.289Z</time>
      </trkpt>
      <trkpt lat="44.0755" lon="0.56524">
        <ele>186</ele>
        <time>2025-07-24T13:31:20.290Z</time>
      </trkpt>
      <trkpt lat="44.07552" lon="0.56524">
        <ele>186</ele>
        <time>2025-07-24T13:31:21.289Z</time>
      </trkpt>
      <trkpt lat="44.07553" lon="0.56524">
        <ele>186</ele>
        <time>2025-07-24T13:31:22.289Z</time>
      </trkpt>
      <trkpt lat="44.07555" lon="0.56525">
        <ele>186</ele>
        <time>2025-07-24T13:31:23.289Z</time>
      </trkpt>
      <trkpt lat="44.07556" lon="0.56525">
        <ele>186</ele>
        <time>2025-07-24T13:31:24.289Z</time>
      </trkpt>
      <trkpt lat="44.07557" lon="0.56525">
        <ele>186</ele>
        <time>2025-07-24T13:31:25.289Z</time>
      </trkpt>
      <trkpt lat="44.07559" lon="0.56525">
        <ele>186</ele>
        <time>2025-07-24T13:31:26.289Z</time>
      </trkpt>
      <trkpt lat="44.0756" lon="0.56525">
        <ele>186</ele>
        <time>2025-07-24T13:31:27.289Z</time>
      </trkpt>
      <trkpt lat="44.07561" lon="0.56524">
        <ele>186</ele>
        <time>2025-07-24T13:31:28.289Z</time>
      </trkpt>
      <trkpt lat="44.07562" lon="0.56524">
        <ele>186</ele>
        <time>2025-07-24T13:31:29.289Z</time>
      </trkpt>
      <trkpt lat="44.07563" lon="0.56523">
        <ele>187</ele>
        <time>2025-07-24T13:31:30.289Z</time>
      </trkpt>
      <trkpt lat="44.07564" lon="0.56524">
        <ele>187</ele>
        <time>2025-07-24T13:31:31.289Z</time>
      </trkpt>
      <trkpt lat="44.07566" lon="0.56523">
        <ele>187</ele>
        <time>2025-07-24T13:31:32.289Z</time>
      </trkpt>
      <trkpt lat="44.07567" lon="0.56524">
        <ele>187</ele>
        <time>2025-07-24T13:31:33.289Z</time>
      </trkpt>
      <trkpt lat="44.07568" lon="0.56524">
        <ele>187</ele>
        <time>2025-07-24T13:31:34.289Z</time>
      </trkpt>
      <trkpt lat="44.0757" lon="0.56524">
        <ele>187</ele>
        <time>2025-07-24T13:31:35.289Z</time>
      </trkpt>
      <trkpt lat="44.07571" lon="0.56525">
        <ele>187</ele>
        <time>2025-07-24T13:31:36.289Z</time>
      </trkpt>
      <trkpt lat="44.07573" lon="0.56525">
        <ele>187</ele>
        <time>2025-07-24T13:31:37.289Z</time>
      </trkpt>
      <trkpt lat="44.07575" lon="0.56525">
        <ele>187</ele>
        <time>2025-07-24T13:31:38.289Z</time>
      </trkpt>
      <trkpt lat="44.07576" lon="0.56525">
        <ele>187</ele>
        <time>2025-07-24T13:31:39.289Z</time>
      </trkpt>
      <trkpt lat="44.07577" lon="0.56524">
        <ele>187</ele>
        <time>2025-07-24T13:31:40.289Z</time>
      </trkpt>
      <trkpt lat="44.07579" lon="0.56524">
        <ele>187</ele>
        <time>2025-07-24T13:31:41.289Z</time>
      </trkpt>
      <trkpt lat="44.0758" lon="0.56524">
        <ele>187</ele>
        <time>2025-07-24T13:31:42.289Z</time>
      </trkpt>
      <trkpt lat="44.07581" lon="0.56524">
        <ele>187</ele>
        <time>2025-07-24T13:31:43.289Z</time>
      </trkpt>
      <trkpt lat="44.07582" lon="0.56523">
        <ele>188</ele>
        <time>2025-07-24T13:31:44.289Z</time>
      </trkpt>
      <trkpt lat="44.07583" lon="0.56524">
        <ele>187</ele>
        <time>2025-07-24T13:31:45.289Z</time>
      </trkpt>
      <trkpt lat="44.07584" lon="0.56523">
        <ele>187</ele>
        <time>2025-07-24T13:31:46.289Z</time>
      </trkpt>
      <trkpt lat="44.07586" lon="0.56523">
        <ele>187</ele>
        <time>2025-07-24T13:31:47.289Z</time>
      </trkpt>
      <trkpt lat="44.07587" lon="0.56523">
        <ele>187</ele>
        <time>2025-07-24T13:31:48.289Z</time>
      </trkpt>
      <trkpt lat="44.07588" lon="0.56522">
        <ele>187</ele>
        <time>2025-07-24T13:31:49.289Z</time>
      </trkpt>
      <trkpt lat="44.07589" lon="0.56522">
        <ele>188</ele>
        <time>2025-07-24T13:31:50.289Z</time>
      </trkpt>
      <trkpt lat="44.0759" lon="0.56522">
        <ele>188</ele>
        <time>2025-07-24T13:31:51.289Z</time>
      </trkpt>
      <trkpt lat="44.07592" lon="0.56521">
        <ele>188</ele>
        <time>2025-07-24T13:31:52.290Z</time>
      </trkpt>
      <trkpt lat="44.07593" lon="0.56521">
        <ele>188</ele>
        <time>2025-07-24T13:31:53.289Z</time>
      </trkpt>
      <trkpt lat="44.07595" lon="0.5652">
        <ele>188</ele>
        <time>2025-07-24T13:31:54.289Z</time>
      </trkpt>
      <trkpt lat="44.07596" lon="0.5652">
        <ele>188</ele>
        <time>2025-07-24T13:31:55.289Z</time>
      </trkpt>
      <trkpt lat="44.07598" lon="0.56519">
        <ele>188</ele>
        <time>2025-07-24T13:31:56.289Z</time>
      </trkpt>
      <trkpt lat="44.07599" lon="0.56518">
        <ele>188</ele>
        <time>2025-07-24T13:31:57.289Z</time>
      </trkpt>
      <trkpt lat="44.076" lon="0.56518">
        <ele>188</ele>
        <time>2025-07-24T13:31:58.289Z</time>
      </trkpt>
      <trkpt lat="44.07602" lon="0.56517">
        <ele>188</ele>
        <time>2025-07-24T13:31:59.289Z</time>
      </trkpt>
      <trkpt lat="44.07603" lon="0.56516">
        <ele>188</ele>
        <time>2025-07-24T13:32:00.289Z</time>
      </trkpt>
      <trkpt lat="44.07604" lon="0.56515">
        <ele>188</ele>
        <time>2025-07-24T13:32:01.289Z</time>
      </trkpt>
      <trkpt lat="44.07605" lon="0.56514">
        <ele>188</ele>
        <time>2025-07-24T13:32:02.289Z</time>
      </trkpt>
      <trkpt lat="44.07606" lon="0.56513">
        <ele>188</ele>
        <time>2025-07-24T13:32:03.289Z</time>
      </trkpt>
      <trkpt lat="44.07607" lon="0.56512">
        <ele>188</ele>
        <time>2025-07-24T13:32:04.289Z</time>
      </trkpt>
      <trkpt lat="44.07608" lon="0.56511">
        <ele>188</ele>
        <time>2025-07-24T13:32:05.289Z</time>
      </trkpt>
      <trkpt lat="44.07609" lon="0.56511">
        <ele>189</ele>
        <time>2025-07-24T13:32:06.289Z</time>
      </trkpt>
      <trkpt lat="44.0761" lon="0.5651">
        <ele>189</ele>
        <time>2025-07-24T13:32:07.289Z</time>
      </trkpt>
      <trkpt lat="44.07611" lon="0.56509">
        <ele>189</ele>
        <time>2025-07-24T13:32:08.289Z</time>
      </trkpt>
      <trkpt lat="44.07613" lon="0.56508">
        <ele>189</ele>
        <time>2025-07-24T13:32:09.289Z</time>
      </trkpt>
      <trkpt lat="44.07614" lon="0.56507">
        <ele>189</ele>
        <time>2025-07-24T13:32:10.289Z</time>
      </trkpt>
      <trkpt lat="44.07615" lon="0.56506">
        <ele>189</ele>
        <time>2025-07-24T13:32:11.289Z</time>
      </trkpt>
      <trkpt lat="44.07616" lon="0.56504">
        <ele>189</ele>
        <time>2025-07-24T13:32:12.289Z</time>
      </trkpt>
      <trkpt lat="44.07617" lon="0.56503">
        <ele>190</ele>
        <time>2025-07-24T13:32:13.289Z</time>
      </trkpt>
      <trkpt lat="44.07618" lon="0.56502">
        <ele>190</ele>
        <time>2025-07-24T13:32:14.289Z</time>
      </trkpt>
      <trkpt lat="44.07618" lon="0.56501">
        <ele>190</ele>
        <time>2025-07-24T13:32:15.289Z</time>
      </trkpt>
      <trkpt lat="44.07619" lon="0.565">
        <ele>190</ele>
        <time>2025-07-24T13:32:16.289Z</time>
      </trkpt>
      <trkpt lat="44.0762" lon="0.56499">
        <ele>191</ele>
        <time>2025-07-24T13:32:17.289Z</time>
      </trkpt>
      <trkpt lat="44.07621" lon="0.56498">
        <ele>190</ele>
        <time>2025-07-24T13:32:18.289Z</time>
      </trkpt>
      <trkpt lat="44.07622" lon="0.56497">
        <ele>190</ele>
        <time>2025-07-24T13:32:19.289Z</time>
      </trkpt>
      <trkpt lat="44.07623" lon="0.56496">
        <ele>190</ele>
        <time>2025-07-24T13:32:20.289Z</time>
      </trkpt>
      <trkpt lat="44.07624" lon="0.56495">
        <ele>190</ele>
        <time>2025-07-24T13:32:21.289Z</time>
      </trkpt>
      <trkpt lat="44.07625" lon="0.56493">
        <ele>191</ele>
        <time>2025-07-24T13:32:22.289Z</time>
      </trkpt>
      <trkpt lat="44.07626" lon="0.56491">
        <ele>191</ele>
        <time>2025-07-24T13:32:23.289Z</time>
      </trkpt>
      <trkpt lat="44.07627" lon="0.5649">
        <ele>191</ele>
        <time>2025-07-24T13:32:24.289Z</time>
      </trkpt>
      <trkpt lat="44.07628" lon="0.56489">
        <ele>191</ele>
        <time>2025-07-24T13:32:25.289Z</time>
      </trkpt>
      <trkpt lat="44.07629" lon="0.56487">
        <ele>191</ele>
        <time>2025-07-24T13:32:26.289Z</time>
      </trkpt>
      <trkpt lat="44.0763" lon="0.56486">
        <ele>192</ele>
        <time>2025-07-24T13:32:27.289Z</time>
      </trkpt>
      <trkpt lat="44.0763" lon="0.56485">
        <ele>192</ele>
        <time>2025-07-24T13:32:28.289Z</time>
      </trkpt>
      <trkpt lat="44.0763" lon="0.56484">
        <ele>193</ele>
        <time>2025-07-24T13:32:29.289Z</time>
      </trkpt>
      <trkpt lat="44.07631" lon="0.56483">
        <ele>194</ele>
        <time>2025-07-24T13:32:30.289Z</time>
      </trkpt>
      <trkpt lat="44.07632" lon="0.56481">
        <ele>195</ele>
        <time>2025-07-24T13:32:31.289Z</time>
      </trkpt>
      <trkpt lat="44.07633" lon="0.5648">
        <ele>195</ele>
        <time>2025-07-24T13:32:32.289Z</time>
      </trkpt>
      <trkpt lat="44.07634" lon="0.56479">
        <ele>195</ele>
        <time>2025-07-24T13:32:33.289Z</time>
      </trkpt>
      <trkpt lat="44.07635" lon="0.56477">
        <ele>195</ele>
        <time>2025-07-24T13:32:34.289Z</time>
      </trkpt>
      <trkpt lat="44.07636" lon="0.56476">
        <ele>195</ele>
        <time>2025-07-24T13:32:35.289Z</time>
      </trkpt>
      <trkpt lat="44.07637" lon="0.56475">
        <ele>195</ele>
        <time>2025-07-24T13:32:36.289Z</time>
      </trkpt>
      <trkpt lat="44.07638" lon="0.56474">
        <ele>194</ele>
        <time>2025-07-24T13:32:37.289Z</time>
      </trkpt>
      <trkpt lat="44.07639" lon="0.56473">
        <ele>194</ele>
        <time>2025-07-24T13:32:38.289Z</time>
      </trkpt>
      <trkpt lat="44.0764" lon="0.56471">
        <ele>194</ele>
        <time>2025-07-24T13:32:39.289Z</time>
      </trkpt>
      <trkpt lat="44.0764" lon="0.5647">
        <ele>194</ele>
        <time>2025-07-24T13:32:40.289Z</time>
      </trkpt>
      <trkpt lat="44.07641" lon="0.56468">
        <ele>194</ele>
        <time>2025-07-24T13:32:41.289Z</time>
      </trkpt>
      <trkpt lat="44.07642" lon="0.56467">
        <ele>195</ele>
        <time>2025-07-24T13:32:42.289Z</time>
      </trkpt>
      <trkpt lat="44.07642" lon="0.56466">
        <ele>195</ele>
        <time>2025-07-24T13:32:43.289Z</time>
      </trkpt>
      <trkpt lat="44.07643" lon="0.56464">
        <ele>195</ele>
        <time>2025-07-24T13:32:44.289Z</time>
      </trkpt>
      <trkpt lat="44.07644" lon="0.56463">
        <ele>195</ele>
        <time>2025-07-24T13:32:45.289Z</time>
      </trkpt>
      <trkpt lat="44.07645" lon="0.56462">
        <ele>195</ele>
        <time>2025-07-24T13:32:46.289Z</time>
      </trkpt>
      <trkpt lat="44.07646" lon="0.56461">
        <ele>196</ele>
        <time>2025-07-24T13:32:47.289Z</time>
      </trkpt>
      <trkpt lat="44.07647" lon="0.5646">
        <ele>196</ele>
        <time>2025-07-24T13:32:48.289Z</time>
      </trkpt>
      <trkpt lat="44.07648" lon="0.56458">
        <ele>196</ele>
        <time>2025-07-24T13:32:49.289Z</time>
      </trkpt>
      <trkpt lat="44.07649" lon="0.56457">
        <ele>196</ele>
        <time>2025-07-24T13:32:50.289Z</time>
      </trkpt>
      <trkpt lat="44.0765" lon="0.56456">
        <ele>196</ele>
        <time>2025-07-24T13:32:51.289Z</time>
      </trkpt>
      <trkpt lat="44.07651" lon="0.56455">
        <ele>195</ele>
        <time>2025-07-24T13:32:52.289Z</time>
      </trkpt>
      <trkpt lat="44.07652" lon="0.56454">
        <ele>195</ele>
        <time>2025-07-24T13:32:53.289Z</time>
      </trkpt>
      <trkpt lat="44.07654" lon="0.56453">
        <ele>195</ele>
        <time>2025-07-24T13:32:54.289Z</time>
      </trkpt>
      <trkpt lat="44.07655" lon="0.56452">
        <ele>194</ele>
        <time>2025-07-24T13:32:55.289Z</time>
      </trkpt>
      <trkpt lat="44.07656" lon="0.56452">
        <ele>194</ele>
        <time>2025-07-24T13:32:56.289Z</time>
      </trkpt>
      <trkpt lat="44.07657" lon="0.56451">
        <ele>194</ele>
        <time>2025-07-24T13:32:57.289Z</time>
      </trkpt>
      <trkpt lat="44.07658" lon="0.5645">
        <ele>194</ele>
        <time>2025-07-24T13:32:58.289Z</time>
      </trkpt>
      <trkpt lat="44.07659" lon="0.56449">
        <ele>194</ele>
        <time>2025-07-24T13:32:59.289Z</time>
      </trkpt>
      <trkpt lat="44.0766" lon="0.56447">
        <ele>194</ele>
        <time>2025-07-24T13:33:00.289Z</time>
      </trkpt>
      <trkpt lat="44.07661" lon="0.56446">
        <ele>194</ele>
        <time>2025-07-24T13:33:01.289Z</time>
      </trkpt>
      <trkpt lat="44.07662" lon="0.56445">
        <ele>194</ele>
        <time>2025-07-24T13:33:02.289Z</time>
      </trkpt>
      <trkpt lat="44.07662" lon="0.56443">
        <ele>194</ele>
        <time>2025-07-24T13:33:03.289Z</time>
      </trkpt>
      <trkpt lat="44.07664" lon="0.56442">
        <ele>194</ele>
        <time>2025-07-24T13:33:04.289Z</time>
      </trkpt>
      <trkpt lat="44.07665" lon="0.56441">
        <ele>194</ele>
        <time>2025-07-24T13:33:05.289Z</time>
      </trkpt>
      <trkpt lat="44.07666" lon="0.56439">
        <ele>193</ele>
        <time>2025-07-24T13:33:06.289Z</time>
      </trkpt>
      <trkpt lat="44.07667" lon="0.56439">
        <ele>193</ele>
        <time>2025-07-24T13:33:07.289Z</time>
      </trkpt>
      <trkpt lat="44.07668" lon="0.56438">
        <ele>192</ele>
        <time>2025-07-24T13:33:08.289Z</time>
      </trkpt>
      <trkpt lat="44.07669" lon="0.56437">
        <ele>192</ele>
        <time>2025-07-24T13:33:09.289Z</time>
      </trkpt>
      <trkpt lat="44.07671" lon="0.56436">
        <ele>192</ele>
        <time>2025-07-24T13:33:10.289Z</time>
      </trkpt>
      <trkpt lat="44.07672" lon="0.56435">
        <ele>192</ele>
        <time>2025-07-24T13:33:11.289Z</time>
      </trkpt>
      <trkpt lat="44.07673" lon="0.56433">
        <ele>192</ele>
        <time>2025-07-24T13:33:12.289Z</time>
      </trkpt>
      <trkpt lat="44.07674" lon="0.56431">
        <ele>192</ele>
        <time>2025-07-24T13:33:13.290Z</time>
      </trkpt>
      <trkpt lat="44.07675" lon="0.5643">
        <ele>191</ele>
        <time>2025-07-24T13:33:14.289Z</time>
      </trkpt>
      <trkpt lat="44.07676" lon="0.56429">
        <ele>191</ele>
        <time>2025-07-24T13:33:15.289Z</time>
      </trkpt>
      <trkpt lat="44.07676" lon="0.56428">
        <ele>191</ele>
        <time>2025-07-24T13:33:16.289Z</time>
      </trkpt>
      <trkpt lat="44.07678" lon="0.56427">
        <ele>191</ele>
        <time>2025-07-24T13:33:17.289Z</time>
      </trkpt>
      <trkpt lat="44.07679" lon="0.56426">
        <ele>190</ele>
        <time>2025-07-24T13:33:18.289Z</time>
      </trkpt>
      <trkpt lat="44.07679" lon="0.56425">
        <ele>190</ele>
        <time>2025-07-24T13:33:19.289Z</time>
      </trkpt>
      <trkpt lat="44.0768" lon="0.56424">
        <ele>190</ele>
        <time>2025-07-24T13:33:20.289Z</time>
      </trkpt>
      <trkpt lat="44.07681" lon="0.56423">
        <ele>191</ele>
        <time>2025-07-24T13:33:21.289Z</time>
      </trkpt>
      <trkpt lat="44.07682" lon="0.56423">
        <ele>191</ele>
        <time>2025-07-24T13:33:22.289Z</time>
      </trkpt>
      <trkpt lat="44.07683" lon="0.56421">
        <ele>191</ele>
        <time>2025-07-24T13:33:23.289Z</time>
      </trkpt>
      <trkpt lat="44.07684" lon="0.5642">
        <ele>192</ele>
        <time>2025-07-24T13:33:24.289Z</time>
      </trkpt>
      <trkpt lat="44.07685" lon="0.56419">
        <ele>192</ele>
        <time>2025-07-24T13:33:25.289Z</time>
      </trkpt>
      <trkpt lat="44.07685" lon="0.56418">
        <ele>192</ele>
        <time>2025-07-24T13:33:26.289Z</time>
      </trkpt>
      <trkpt lat="44.07686" lon="0.56417">
        <ele>192</ele>
        <time>2025-07-24T13:33:27.289Z</time>
      </trkpt>
      <trkpt lat="44.07688" lon="0.56416">
        <ele>192</ele>
        <time>2025-07-24T13:33:28.289Z</time>
      </trkpt>
      <trkpt lat="44.07689" lon="0.56416">
        <ele>192</ele>
        <time>2025-07-24T13:33:29.289Z</time>
      </trkpt>
      <trkpt lat="44.0769" lon="0.56416">
        <ele>192</ele>
        <time>2025-07-24T13:33:30.289Z</time>
      </trkpt>
      <trkpt lat="44.07691" lon="0.56415">
        <ele>191</ele>
        <time>2025-07-24T13:33:31.289Z</time>
      </trkpt>
      <trkpt lat="44.07692" lon="0.56414">
        <ele>191</ele>
        <time>2025-07-24T13:33:32.289Z</time>
      </trkpt>
      <trkpt lat="44.07692" lon="0.56412">
        <ele>191</ele>
        <time>2025-07-24T13:33:33.289Z</time>
      </trkpt>
      <trkpt lat="44.07693" lon="0.56411">
        <ele>191</ele>
        <time>2025-07-24T13:33:34.289Z</time>
      </trkpt>
      <trkpt lat="44.07695" lon="0.5641">
        <ele>191</ele>
        <time>2025-07-24T13:33:35.289Z</time>
      </trkpt>
      <trkpt lat="44.07696" lon="0.56409">
        <ele>191</ele>
        <time>2025-07-24T13:33:36.289Z</time>
      </trkpt>
      <trkpt lat="44.07696" lon="0.56407">
        <ele>191</ele>
        <time>2025-07-24T13:33:37.289Z</time>
      </trkpt>
      <trkpt lat="44.07697" lon="0.56407">
        <ele>191</ele>
        <time>2025-07-24T13:33:38.289Z</time>
      </trkpt>
      <trkpt lat="44.07698" lon="0.56406">
        <ele>191</ele>
        <time>2025-07-24T13:33:39.289Z</time>
      </trkpt>
      <trkpt lat="44.07699" lon="0.56405">
        <ele>191</ele>
        <time>2025-07-24T13:33:40.289Z</time>
      </trkpt>
      <trkpt lat="44.077" lon="0.56404">
        <ele>191</ele>
        <time>2025-07-24T13:33:41.289Z</time>
      </trkpt>
      <trkpt lat="44.07701" lon="0.56404">
        <ele>191</ele>
        <time>2025-07-24T13:33:42.289Z</time>
      </trkpt>
      <trkpt lat="44.07703" lon="0.56403">
        <ele>191</ele>
        <time>2025-07-24T13:33:43.289Z</time>
      </trkpt>
      <trkpt lat="44.07704" lon="0.56402">
        <ele>191</ele>
        <time>2025-07-24T13:33:44.289Z</time>
      </trkpt>
      <trkpt lat="44.07705" lon="0.56401">
        <ele>191</ele>
        <time>2025-07-24T13:33:45.289Z</time>
      </trkpt>
      <trkpt lat="44.07706" lon="0.564">
        <ele>191</ele>
        <time>2025-07-24T13:33:46.289Z</time>
      </trkpt>
      <trkpt lat="44.07707" lon="0.56399">
        <ele>191</ele>
        <time>2025-07-24T13:33:47.289Z</time>
      </trkpt>
      <trkpt lat="44.07707" lon="0.56398">
        <ele>191</ele>
        <time>2025-07-24T13:33:48.289Z</time>
      </trkpt>
      <trkpt lat="44.07708" lon="0.56397">
        <ele>191</ele>
        <time>2025-07-24T13:33:49.289Z</time>
      </trkpt>
      <trkpt lat="44.07709" lon="0.56397">
        <ele>191</ele>
        <time>2025-07-24T13:33:50.289Z</time>
      </trkpt>
      <trkpt lat="44.0771" lon="0.56395">
        <ele>191</ele>
        <time>2025-07-24T13:33:51.289Z</time>
      </trkpt>
      <trkpt lat="44.07711" lon="0.56395">
        <ele>192</ele>
        <time>2025-07-24T13:33:52.289Z</time>
      </trkpt>
      <trkpt lat="44.07713" lon="0.56394">
        <ele>191</ele>
        <time>2025-07-24T13:33:53.289Z</time>
      </trkpt>
      <trkpt lat="44.07714" lon="0.56392">
        <ele>191</ele>
        <time>2025-07-24T13:33:54.289Z</time>
      </trkpt>
      <trkpt lat="44.07715" lon="0.56391">
        <ele>191</ele>
        <time>2025-07-24T13:33:55.289Z</time>
      </trkpt>
      <trkpt lat="44.07716" lon="0.5639">
        <ele>191</ele>
        <time>2025-07-24T13:33:56.289Z</time>
      </trkpt>
      <trkpt lat="44.07717" lon="0.56389">
        <ele>191</ele>
        <time>2025-07-24T13:33:57.289Z</time>
      </trkpt>
      <trkpt lat="44.07718" lon="0.56389">
        <ele>192</ele>
        <time>2025-07-24T13:33:58.289Z</time>
      </trkpt>
      <trkpt lat="44.07718" lon="0.56388">
        <ele>192</ele>
        <time>2025-07-24T13:33:59.289Z</time>
      </trkpt>
      <trkpt lat="44.07719" lon="0.56387">
        <ele>192</ele>
        <time>2025-07-24T13:34:00.289Z</time>
      </trkpt>
      <trkpt lat="44.07721" lon="0.56386">
        <ele>192</ele>
        <time>2025-07-24T13:34:01.289Z</time>
      </trkpt>
      <trkpt lat="44.07722" lon="0.56385">
        <ele>192</ele>
        <time>2025-07-24T13:34:02.289Z</time>
      </trkpt>
      <trkpt lat="44.07723" lon="0.56385">
        <ele>191</ele>
        <time>2025-07-24T13:34:03.289Z</time>
      </trkpt>
      <trkpt lat="44.07724" lon="0.56384">
        <ele>191</ele>
        <time>2025-07-24T13:34:04.289Z</time>
      </trkpt>
      <trkpt lat="44.07725" lon="0.56383">
        <ele>191</ele>
        <time>2025-07-24T13:34:05.289Z</time>
      </trkpt>
      <trkpt lat="44.07726" lon="0.56382">
        <ele>191</ele>
        <time>2025-07-24T13:34:06.289Z</time>
      </trkpt>
      <trkpt lat="44.07727" lon="0.56382">
        <ele>192</ele>
        <time>2025-07-24T13:34:07.289Z</time>
      </trkpt>
      <trkpt lat="44.07728" lon="0.56381">
        <ele>192</ele>
        <time>2025-07-24T13:34:08.289Z</time>
      </trkpt>
      <trkpt lat="44.07729" lon="0.5638">
        <ele>191</ele>
        <time>2025-07-24T13:34:09.289Z</time>
      </trkpt>
      <trkpt lat="44.0773" lon="0.56379">
        <ele>191</ele>
        <time>2025-07-24T13:34:10.289Z</time>
      </trkpt>
      <trkpt lat="44.07731" lon="0.56378">
        <ele>192</ele>
        <time>2025-07-24T13:34:11.289Z</time>
      </trkpt>
      <trkpt lat="44.07732" lon="0.56377">
        <ele>192</ele>
        <time>2025-07-24T13:34:12.289Z</time>
      </trkpt>
      <trkpt lat="44.07732" lon="0.56376">
        <ele>192</ele>
        <time>2025-07-24T13:34:13.289Z</time>
      </trkpt>
      <trkpt lat="44.07733" lon="0.56375">
        <ele>192</ele>
        <time>2025-07-24T13:34:14.289Z</time>
      </trkpt>
      <trkpt lat="44.07734" lon="0.56374">
        <ele>193</ele>
        <time>2025-07-24T13:34:15.289Z</time>
      </trkpt>
      <trkpt lat="44.07735" lon="0.56373">
        <ele>193</ele>
        <time>2025-07-24T13:34:16.289Z</time>
      </trkpt>
      <trkpt lat="44.07736" lon="0.56372">
        <ele>193</ele>
        <time>2025-07-24T13:34:17.289Z</time>
      </trkpt>
      <trkpt lat="44.07737" lon="0.56372">
        <ele>194</ele>
        <time>2025-07-24T13:34:18.289Z</time>
      </trkpt>
      <trkpt lat="44.07738" lon="0.56371">
        <ele>194</ele>
        <time>2025-07-24T13:34:19.289Z</time>
      </trkpt>
      <trkpt lat="44.07739" lon="0.56369">
        <ele>194</ele>
        <time>2025-07-24T13:34:20.289Z</time>
      </trkpt>
      <trkpt lat="44.0774" lon="0.56368">
        <ele>194</ele>
        <time>2025-07-24T13:34:21.289Z</time>
      </trkpt>
      <trkpt lat="44.07741" lon="0.56367">
        <ele>194</ele>
        <time>2025-07-24T13:34:22.289Z</time>
      </trkpt>
      <trkpt lat="44.07741" lon="0.56365">
        <ele>194</ele>
        <time>2025-07-24T13:34:23.289Z</time>
      </trkpt>
      <trkpt lat="44.07742" lon="0.56364">
        <ele>194</ele>
        <time>2025-07-24T13:34:24.289Z</time>
      </trkpt>
      <trkpt lat="44.07743" lon="0.56363">
        <ele>194</ele>
        <time>2025-07-24T13:34:25.289Z</time>
      </trkpt>
      <trkpt lat="44.07744" lon="0.56362">
        <ele>194</ele>
        <time>2025-07-24T13:34:26.289Z</time>
      </trkpt>
      <trkpt lat="44.07745" lon="0.56361">
        <ele>194</ele>
        <time>2025-07-24T13:34:27.289Z</time>
      </trkpt>
      <trkpt lat="44.07746" lon="0.5636">
        <ele>194</ele>
        <time>2025-07-24T13:34:28.289Z</time>
      </trkpt>
      <trkpt lat="44.07747" lon="0.56359">
        <ele>195</ele>
        <time>2025-07-24T13:34:29.289Z</time>
      </trkpt>
      <trkpt lat="44.07748" lon="0.56358">
        <ele>195</ele>
        <time>2025-07-24T13:34:30.289Z</time>
      </trkpt>
      <trkpt lat="44.07749" lon="0.56357">
        <ele>195</ele>
        <time>2025-07-24T13:34:31.289Z</time>
      </trkpt>
      <trkpt lat="44.0775" lon="0.56356">
        <ele>195</ele>
        <time>2025-07-24T13:34:32.289Z</time>
      </trkpt>
      <trkpt lat="44.07751" lon="0.56355">
        <ele>196</ele>
        <time>2025-07-24T13:34:33.289Z</time>
      </trkpt>
      <trkpt lat="44.07752" lon="0.56354">
        <ele>196</ele>
        <time>2025-07-24T13:34:34.289Z</time>
      </trkpt>
      <trkpt lat="44.07753" lon="0.56354">
        <ele>196</ele>
        <time>2025-07-24T13:34:35.289Z</time>
      </trkpt>
      <trkpt lat="44.07754" lon="0.56353">
        <ele>196</ele>
        <time>2025-07-24T13:34:36.289Z</time>
      </trkpt>
      <trkpt lat="44.07755" lon="0.56352">
        <ele>196</ele>
        <time>2025-07-24T13:34:37.289Z</time>
      </trkpt>
      <trkpt lat="44.07756" lon="0.56351">
        <ele>196</ele>
        <time>2025-07-24T13:34:38.289Z</time>
      </trkpt>
      <trkpt lat="44.07757" lon="0.5635">
        <ele>195</ele>
        <time>2025-07-24T13:34:39.289Z</time>
      </trkpt>
      <trkpt lat="44.07758" lon="0.56349">
        <ele>195</ele>
        <time>2025-07-24T13:34:40.289Z</time>
      </trkpt>
      <trkpt lat="44.07758" lon="0.56348">
        <ele>195</ele>
        <time>2025-07-24T13:34:41.289Z</time>
      </trkpt>
      <trkpt lat="44.07759" lon="0.56348">
        <ele>195</ele>
        <time>2025-07-24T13:34:42.289Z</time>
      </trkpt>
      <trkpt lat="44.07759" lon="0.56347">
        <ele>194</ele>
        <time>2025-07-24T13:34:43.289Z</time>
      </trkpt>
      <trkpt lat="44.07759" lon="0.56347">
        <ele>194</ele>
        <time>2025-07-24T13:34:44.289Z</time>
      </trkpt>
      <trkpt lat="44.07759" lon="0.56347">
        <ele>194</ele>
        <time>2025-07-24T13:34:45.289Z</time>
      </trkpt>
      <trkpt lat="44.07759" lon="0.56347">
        <ele>193</ele>
        <time>2025-07-24T13:34:46.289Z</time>
      </trkpt>
      <trkpt lat="44.07759" lon="0.56347">
        <ele>194</ele>
        <time>2025-07-24T13:34:47.289Z</time>
      </trkpt>
      <trkpt lat="44.07759" lon="0.56347">
        <ele>194</ele>
        <time>2025-07-24T13:34:48.289Z</time>
      </trkpt>
      <trkpt lat="44.07759" lon="0.56347">
        <ele>194</ele>
        <time>2025-07-24T13:34:49.289Z</time>
      </trkpt>
      <trkpt lat="44.07759" lon="0.56347">
        <ele>195</ele>
        <time>2025-07-24T13:34:50.289Z</time>
      </trkpt>
      <trkpt lat="44.07759" lon="0.56347">
        <ele>195</ele>
        <time>2025-07-24T13:34:51.289Z</time>
      </trkpt>
      <trkpt lat="44.07759" lon="0.56347">
        <ele>196</ele>
        <time>2025-07-24T13:34:52.289Z</time>
      </trkpt>
      <trkpt lat="44.07759" lon="0.56347">
        <ele>196</ele>
        <time>2025-07-24T13:34:53.289Z</time>
      </trkpt>
      <trkpt lat="44.07759" lon="0.56347">
        <ele>196</ele>
        <time>2025-07-24T13:34:54.289Z</time>
      </trkpt>
      <trkpt lat="44.07759" lon="0.56347">
        <ele>196</ele>
        <time>2025-07-24T13:34:55.289Z</time>
      </trkpt>
      <trkpt lat="44.0776" lon="0.56347">
        <ele>196</ele>
        <time>2025-07-24T13:34:56.289Z</time>
      </trkpt>
      <trkpt lat="44.0776" lon="0.56347">
        <ele>197</ele>
        <time>2025-07-24T13:34:57.289Z</time>
      </trkpt>
      <trkpt lat="44.0776" lon="0.56347">
        <ele>197</ele>
        <time>2025-07-24T13:34:58.289Z</time>
      </trkpt>
      <trkpt lat="44.07759" lon="0.56347">
        <ele>198</ele>
        <time>2025-07-24T13:34:59.289Z</time>
      </trkpt>
      <trkpt lat="44.0776" lon="0.56347">
        <ele>198</ele>
        <time>2025-07-24T13:35:00.289Z</time>
      </trkpt>
      <trkpt lat="44.0776" lon="0.56347">
        <ele>199</ele>
        <time>2025-07-24T13:35:01.289Z</time>
      </trkpt>
      <trkpt lat="44.07759" lon="0.56347">
        <ele>199</ele>
        <time>2025-07-24T13:35:02.289Z</time>
      </trkpt>
      <trkpt lat="44.07759" lon="0.56347">
        <ele>200</ele>
        <time>2025-07-24T13:35:03.289Z</time>
      </trkpt>
      <trkpt lat="44.07759" lon="0.56347">
        <ele>200</ele>
        <time>2025-07-24T13:35:04.289Z</time>
      </trkpt>
      <trkpt lat="44.07759" lon="0.56347">
        <ele>200</ele>
        <time>2025-07-24T13:35:05.289Z</time>
      </trkpt>
      <trkpt lat="44.07759" lon="0.56347">
        <ele>200</ele>
        <time>2025-07-24T13:35:06.289Z</time>
      </trkpt>
      <trkpt lat="44.07759" lon="0.56347">
        <ele>200</ele>
        <time>2025-07-24T13:35:07.289Z</time>
      </trkpt>
      <trkpt lat="44.07759" lon="0.56347">
        <ele>200</ele>
        <time>2025-07-24T13:35:08.289Z</time>
      </trkpt>
      <trkpt lat="44.07759" lon="0.56348">
        <ele>199</ele>
        <time>2025-07-24T13:35:09.289Z</time>
      </trkpt>
      <trkpt lat="44.07759" lon="0.56348">
        <ele>199</ele>
        <time>2025-07-24T13:35:10.289Z</time>
      </trkpt>
      <trkpt lat="44.07759" lon="0.56348">
        <ele>199</ele>
        <time>2025-07-24T13:35:11.289Z</time>
      </trkpt>
      <trkpt lat="44.07759" lon="0.56348">
        <ele>200</ele>
        <time>2025-07-24T13:35:12.289Z</time>
      </trkpt>
      <trkpt lat="44.07759" lon="0.56348">
        <ele>200</ele>
        <time>2025-07-24T13:35:13.289Z</time>
      </trkpt>
      <trkpt lat="44.07759" lon="0.56348">
        <ele>200</ele>
        <time>2025-07-24T13:35:14.289Z</time>
      </trkpt>
      <trkpt lat="44.07759" lon="0.56348">
        <ele>199</ele>
        <time>2025-07-24T13:35:15.289Z</time>
      </trkpt>
      <trkpt lat="44.07759" lon="0.56348">
        <ele>199</ele>
        <time>2025-07-24T13:35:16.289Z</time>
      </trkpt>
      <trkpt lat="44.07759" lon="0.56348">
        <ele>199</ele>
        <time>2025-07-24T13:35:17.289Z</time>
      </trkpt>
      <trkpt lat="44.0776" lon="0.56348">
        <ele>199</ele>
        <time>2025-07-24T13:35:18.289Z</time>
      </trkpt>
      <trkpt lat="44.0776" lon="0.56348">
        <ele>199</ele>
        <time>2025-07-24T13:35:19.289Z</time>
      </trkpt>
      <trkpt lat="44.07759" lon="0.56348">
        <ele>199</ele>
        <time>2025-07-24T13:35:20.289Z</time>
      </trkpt>
      <trkpt lat="44.07759" lon="0.56348">
        <ele>198</ele>
        <time>2025-07-24T13:35:21.289Z</time>
      </trkpt>
      <trkpt lat="44.07759" lon="0.56348">
        <ele>198</ele>
        <time>2025-07-24T13:35:22.289Z</time>
      </trkpt>
      <trkpt lat="44.07759" lon="0.56348">
        <ele>199</ele>
        <time>2025-07-24T13:35:23.289Z</time>
      </trkpt>
      <trkpt lat="44.07759" lon="0.56348">
        <ele>199</ele>
        <time>2025-07-24T13:35:24.289Z</time>
      </trkpt>
      <trkpt lat="44.07759" lon="0.56348">
        <ele>199</ele>
        <time>2025-07-24T13:35:25.289Z</time>
      </trkpt>
      <trkpt lat="44.07759" lon="0.56348">
        <ele>199</ele>
        <time>2025-07-24T13:35:26.289Z</time>
      </trkpt>
      <trkpt lat="44.07759" lon="0.56348">
        <ele>199</ele>
        <time>2025-07-24T13:35:27.289Z</time>
      </trkpt>
      <trkpt lat="44.07759" lon="0.56348">
        <ele>199</ele>
        <time>2025-07-24T13:35:28.289Z</time>
      </trkpt>
      <trkpt lat="44.07759" lon="0.56348">
        <ele>199</ele>
        <time>2025-07-24T13:35:29.289Z</time>
      </trkpt>
      <trkpt lat="44.07759" lon="0.56348">
        <ele>199</ele>
        <time>2025-07-24T13:35:30.289Z</time>
      </trkpt>
      <trkpt lat="44.07759" lon="0.56347">
        <ele>199</ele>
        <time>2025-07-24T13:35:31.289Z</time>
      </trkpt>
      <trkpt lat="44.07759" lon="0.56347">
        <ele>199</ele>
        <time>2025-07-24T13:35:32.290Z</time>
      </trkpt>
      <trkpt lat="44.07759" lon="0.56347">
        <ele>199</ele>
        <time>2025-07-24T13:35:33.289Z</time>
      </trkpt>
      <trkpt lat="44.0776" lon="0.56347">
        <ele>199</ele>
        <time>2025-07-24T13:35:34.289Z</time>
      </trkpt>
      <trkpt lat="44.0776" lon="0.56347">
        <ele>199</ele>
        <time>2025-07-24T13:35:35.289Z</time>
      </trkpt>
      <trkpt lat="44.0776" lon="0.56347">
        <ele>199</ele>
        <time>2025-07-24T13:35:36.289Z</time>
      </trkpt>
      <trkpt lat="44.0776" lon="0.56347">
        <ele>199</ele>
        <time>2025-07-24T13:35:37.289Z</time>
      </trkpt>
      <trkpt lat="44.0776" lon="0.56347">
        <ele>199</ele>
        <time>2025-07-24T13:35:38.289Z</time>
      </trkpt>
      <trkpt lat="44.0776" lon="0.56347">
        <ele>200</ele>
        <time>2025-07-24T13:35:39.289Z</time>
      </trkpt>
      <trkpt lat="44.0776" lon="0.56347">
        <ele>200</ele>
        <time>2025-07-24T13:35:40.289Z</time>
      </trkpt>
      <trkpt lat="44.0776" lon="0.56347">
        <ele>200</ele>
        <time>2025-07-24T13:35:41.289Z</time>
      </trkpt>
      <trkpt lat="44.0776" lon="0.56347">
        <ele>200</ele>
        <time>2025-07-24T13:35:42.289Z</time>
      </trkpt>
      <trkpt lat="44.0776" lon="0.56347">
        <ele>200</ele>
        <time>2025-07-24T13:35:43.289Z</time>
      </trkpt>
      <trkpt lat="44.0776" lon="0.56347">
        <ele>200</ele>
        <time>2025-07-24T13:35:44.289Z</time>
      </trkpt>
      <trkpt lat="44.0776" lon="0.56347">
        <ele>199</ele>
        <time>2025-07-24T13:35:45.289Z</time>
      </trkpt>
      <trkpt lat="44.0776" lon="0.56347">
        <ele>199</ele>
        <time>2025-07-24T13:35:46.289Z</time>
      </trkpt>
      <trkpt lat="44.0776" lon="0.56347">
        <ele>199</ele>
        <time>2025-07-24T13:35:47.289Z</time>
      </trkpt>
      <trkpt lat="44.0776" lon="0.56347">
        <ele>199</ele>
        <time>2025-07-24T13:35:48.289Z</time>
      </trkpt>
      <trkpt lat="44.0776" lon="0.56347">
        <ele>199</ele>
        <time>2025-07-24T13:35:49.289Z</time>
      </trkpt>
      <trkpt lat="44.0776" lon="0.56347">
        <ele>199</ele>
        <time>2025-07-24T13:35:50.289Z</time>
      </trkpt>
      <trkpt lat="44.0776" lon="0.56347">
        <ele>199</ele>
        <time>2025-07-24T13:35:51.289Z</time>
      </trkpt>
      <trkpt lat="44.0776" lon="0.56347">
        <ele>199</ele>
        <time>2025-07-24T13:35:52.289Z</time>
      </trkpt>
      <trkpt lat="44.0776" lon="0.56347">
        <ele>199</ele>
        <time>2025-07-24T13:35:53.289Z</time>
      </trkpt>
      <trkpt lat="44.0776" lon="0.56347">
        <ele>199</ele>
        <time>2025-07-24T13:35:54.289Z</time>
      </trkpt>
      <trkpt lat="44.0776" lon="0.56347">
        <ele>199</ele>
        <time>2025-07-24T13:35:55.289Z</time>
      </trkpt>
      <trkpt lat="44.0776" lon="0.56347">
        <ele>199</ele>
        <time>2025-07-24T13:35:56.289Z</time>
      </trkpt>
      <trkpt lat="44.07761" lon="0.56347">
        <ele>199</ele>
        <time>2025-07-24T13:35:57.289Z</time>
      </trkpt>
      <trkpt lat="44.07761" lon="0.56347">
        <ele>199</ele>
        <time>2025-07-24T13:35:58.289Z</time>
      </trkpt>
      <trkpt lat="44.0776" lon="0.56347">
        <ele>199</ele>
        <time>2025-07-24T13:35:59.289Z</time>
      </trkpt>
      <trkpt lat="44.0776" lon="0.56347">
        <ele>199</ele>
        <time>2025-07-24T13:36:00.289Z</time>
      </trkpt>
      <trkpt lat="44.0776" lon="0.56347">
        <ele>198</ele>
        <time>2025-07-24T13:36:01.289Z</time>
      </trkpt>
      <trkpt lat="44.0776" lon="0.56347">
        <ele>198</ele>
        <time>2025-07-24T13:36:02.289Z</time>
      </trkpt>
      <trkpt lat="44.0776" lon="0.56347">
        <ele>198</ele>
        <time>2025-07-24T13:36:03.289Z</time>
      </trkpt>
      <trkpt lat="44.0776" lon="0.56347">
        <ele>199</ele>
        <time>2025-07-24T13:36:04.289Z</time>
      </trkpt>
      <trkpt lat="44.0776" lon="0.56347">
        <ele>199</ele>
        <time>2025-07-24T13:36:05.289Z</time>
      </trkpt>
      <trkpt lat="44.0776" lon="0.56347">
        <ele>199</ele>
        <time>2025-07-24T13:36:06.289Z</time>
      </trkpt>
      <trkpt lat="44.0776" lon="0.56347">
        <ele>200</ele>
        <time>2025-07-24T13:36:07.289Z</time>
      </trkpt>
      <trkpt lat="44.0776" lon="0.56347">
        <ele>200</ele>
        <time>2025-07-24T13:36:08.289Z</time>
      </trkpt>
      <trkpt lat="44.0776" lon="0.56347">
        <ele>200</ele>
        <time>2025-07-24T13:36:09.289Z</time>
      </trkpt>
      <trkpt lat="44.0776" lon="0.56348">
        <ele>200</ele>
        <time>2025-07-24T13:36:10.289Z</time>
      </trkpt>
      <trkpt lat="44.0776" lon="0.56348">
        <ele>201</ele>
        <time>2025-07-24T13:36:11.289Z</time>
      </trkpt>
      <trkpt lat="44.0776" lon="0.56348">
        <ele>201</ele>
        <time>2025-07-24T13:36:12.289Z</time>
      </trkpt>
      <trkpt lat="44.0776" lon="0.56348">
        <ele>201</ele>
        <time>2025-07-24T13:36:13.290Z</time>
      </trkpt>
      <trkpt lat="44.07759" lon="0.56348">
        <ele>200</ele>
        <time>2025-07-24T13:36:14.289Z</time>
      </trkpt>
      <trkpt lat="44.07759" lon="0.56348">
        <ele>200</ele>
        <time>2025-07-24T13:36:15.289Z</time>
      </trkpt>
      <trkpt lat="44.0776" lon="0.56348">
        <ele>200</ele>
        <time>2025-07-24T13:36:16.289Z</time>
      </trkpt>
      <trkpt lat="44.0776" lon="0.56348">
        <ele>200</ele>
        <time>2025-07-24T13:36:17.289Z</time>
      </trkpt>
      <trkpt lat="44.0776" lon="0.56348">
        <ele>200</ele>
        <time>2025-07-24T13:36:18.289Z</time>
      </trkpt>
      <trkpt lat="44.0776" lon="0.56348">
        <ele>200</ele>
        <time>2025-07-24T13:36:19.289Z</time>
      </trkpt>
      <trkpt lat="44.0776" lon="0.56347">
        <ele>199</ele>
        <time>2025-07-24T13:36:20.289Z</time>
      </trkpt>
      <trkpt lat="44.0776" lon="0.56347">
        <ele>199</ele>
        <time>2025-07-24T13:36:21.289Z</time>
      </trkpt>
      <trkpt lat="44.0776" lon="0.56347">
        <ele>199</ele>
        <time>2025-07-24T13:36:22.289Z</time>
      </trkpt>
      <trkpt lat="44.0776" lon="0.56347">
        <ele>199</ele>
        <time>2025-07-24T13:36:23.289Z</time>
      </trkpt>
      <trkpt lat="44.0776" lon="0.56347">
        <ele>199</ele>
        <time>2025-07-24T13:36:24.289Z</time>
      </trkpt>
      <trkpt lat="44.0776" lon="0.56347">
        <ele>199</ele>
        <time>2025-07-24T13:36:25.289Z</time>
      </trkpt>
      <trkpt lat="44.0776" lon="0.56347">
        <ele>199</ele>
        <time>2025-07-24T13:36:26.289Z</time>
      </trkpt>
      <trkpt lat="44.0776" lon="0.56347">
        <ele>199</ele>
        <time>2025-07-24T13:36:27.289Z</time>
      </trkpt>
      <trkpt lat="44.07759" lon="0.56347">
        <ele>199</ele>
        <time>2025-07-24T13:36:28.289Z</time>
      </trkpt>
      <trkpt lat="44.07759" lon="0.56347">
        <ele>199</ele>
        <time>2025-07-24T13:36:29.289Z</time>
      </trkpt>
      <trkpt lat="44.07759" lon="0.56347">
        <ele>198</ele>
        <time>2025-07-24T13:36:30.289Z</time>
      </trkpt>
      <trkpt lat="44.07759" lon="0.56347">
        <ele>198</ele>
        <time>2025-07-24T13:36:31.289Z</time>
      </trkpt>
      <trkpt lat="44.07759" lon="0.56346">
        <ele>198</ele>
        <time>2025-07-24T13:36:32.289Z</time>
      </trkpt>
      <trkpt lat="44.0776" lon="0.56345">
        <ele>198</ele>
        <time>2025-07-24T13:36:33.289Z</time>
      </trkpt>
      <trkpt lat="44.0776" lon="0.56344">
        <ele>198</ele>
        <time>2025-07-24T13:36:34.289Z</time>
      </trkpt>
      <trkpt lat="44.07761" lon="0.56342">
        <ele>198</ele>
        <time>2025-07-24T13:36:35.289Z</time>
      </trkpt>
      <trkpt lat="44.07761" lon="0.56341">
        <ele>197</ele>
        <time>2025-07-24T13:36:36.289Z</time>
      </trkpt>
      <trkpt lat="44.07762" lon="0.5634">
        <ele>197</ele>
        <time>2025-07-24T13:36:37.289Z</time>
      </trkpt>
      <trkpt lat="44.07763" lon="0.56339">
        <ele>197</ele>
        <time>2025-07-24T13:36:38.289Z</time>
      </trkpt>
      <trkpt lat="44.07763" lon="0.56338">
        <ele>196</ele>
        <time>2025-07-24T13:36:39.289Z</time>
      </trkpt>
      <trkpt lat="44.07764" lon="0.56337">
        <ele>196</ele>
        <time>2025-07-24T13:36:40.289Z</time>
      </trkpt>
      <trkpt lat="44.07765" lon="0.56336">
        <ele>196</ele>
        <time>2025-07-24T13:36:41.289Z</time>
      </trkpt>
      <trkpt lat="44.07766" lon="0.56335">
        <ele>196</ele>
        <time>2025-07-24T13:36:42.289Z</time>
      </trkpt>
      <trkpt lat="44.07766" lon="0.56334">
        <ele>196</ele>
        <time>2025-07-24T13:36:43.289Z</time>
      </trkpt>
      <trkpt lat="44.07767" lon="0.56333">
        <ele>196</ele>
        <time>2025-07-24T13:36:44.289Z</time>
      </trkpt>
      <trkpt lat="44.07767" lon="0.56333">
        <ele>196</ele>
        <time>2025-07-24T13:36:45.289Z</time>
      </trkpt>
      <trkpt lat="44.07767" lon="0.56332">
        <ele>196</ele>
        <time>2025-07-24T13:36:46.289Z</time>
      </trkpt>
      <trkpt lat="44.07767" lon="0.56333">
        <ele>196</ele>
        <time>2025-07-24T13:36:47.289Z</time>
      </trkpt>
      <trkpt lat="44.07767" lon="0.56333">
        <ele>196</ele>
        <time>2025-07-24T13:36:48.289Z</time>
      </trkpt>
      <trkpt lat="44.07768" lon="0.56333">
        <ele>196</ele>
        <time>2025-07-24T13:36:49.289Z</time>
      </trkpt>
      <trkpt lat="44.07768" lon="0.56332">
        <ele>196</ele>
        <time>2025-07-24T13:36:50.289Z</time>
      </trkpt>
      <trkpt lat="44.07768" lon="0.56332">
        <ele>196</ele>
        <time>2025-07-24T13:36:51.289Z</time>
      </trkpt>
      <trkpt lat="44.07768" lon="0.56331">
        <ele>197</ele>
        <time>2025-07-24T13:36:52.289Z</time>
      </trkpt>
      <trkpt lat="44.07768" lon="0.56331">
        <ele>197</ele>
        <time>2025-07-24T13:36:53.289Z</time>
      </trkpt>
      <trkpt lat="44.07768" lon="0.5633">
        <ele>197</ele>
        <time>2025-07-24T13:36:54.289Z</time>
      </trkpt>
      <trkpt lat="44.07769" lon="0.56329">
        <ele>197</ele>
        <time>2025-07-24T13:36:55.289Z</time>
      </trkpt>
      <trkpt lat="44.07769" lon="0.56329">
        <ele>197</ele>
        <time>2025-07-24T13:36:56.289Z</time>
      </trkpt>
      <trkpt lat="44.07769" lon="0.56327">
        <ele>197</ele>
        <time>2025-07-24T13:36:57.289Z</time>
      </trkpt>
      <trkpt lat="44.07769" lon="0.56326">
        <ele>197</ele>
        <time>2025-07-24T13:36:58.289Z</time>
      </trkpt>
      <trkpt lat="44.0777" lon="0.56324">
        <ele>196</ele>
        <time>2025-07-24T13:36:59.289Z</time>
      </trkpt>
      <trkpt lat="44.0777" lon="0.56323">
        <ele>196</ele>
        <time>2025-07-24T13:37:00.289Z</time>
      </trkpt>
      <trkpt lat="44.0777" lon="0.56321">
        <ele>196</ele>
        <time>2025-07-24T13:37:01.289Z</time>
      </trkpt>
      <trkpt lat="44.0777" lon="0.5632">
        <ele>196</ele>
        <time>2025-07-24T13:37:02.289Z</time>
      </trkpt>
      <trkpt lat="44.0777" lon="0.56318">
        <ele>197</ele>
        <time>2025-07-24T13:37:03.289Z</time>
      </trkpt>
      <trkpt lat="44.0777" lon="0.56316">
        <ele>197</ele>
        <time>2025-07-24T13:37:04.289Z</time>
      </trkpt>
      <trkpt lat="44.0777" lon="0.56315">
        <ele>198</ele>
        <time>2025-07-24T13:37:05.289Z</time>
      </trkpt>
      <trkpt lat="44.07771" lon="0.56313">
        <ele>198</ele>
        <time>2025-07-24T13:37:06.289Z</time>
      </trkpt>
      <trkpt lat="44.07771" lon="0.56312">
        <ele>198</ele>
        <time>2025-07-24T13:37:07.289Z</time>
      </trkpt>
      <trkpt lat="44.07771" lon="0.5631">
        <ele>199</ele>
        <time>2025-07-24T13:37:08.289Z</time>
      </trkpt>
      <trkpt lat="44.07771" lon="0.56309">
        <ele>199</ele>
        <time>2025-07-24T13:37:09.289Z</time>
      </trkpt>
      <trkpt lat="44.07771" lon="0.56307">
        <ele>199</ele>
        <time>2025-07-24T13:37:10.289Z</time>
      </trkpt>
      <trkpt lat="44.07771" lon="0.56305">
        <ele>199</ele>
        <time>2025-07-24T13:37:11.289Z</time>
      </trkpt>
      <trkpt lat="44.07772" lon="0.56303">
        <ele>200</ele>
        <time>2025-07-24T13:37:12.289Z</time>
      </trkpt>
      <trkpt lat="44.07772" lon="0.56302">
        <ele>200</ele>
        <time>2025-07-24T13:37:13.289Z</time>
      </trkpt>
      <trkpt lat="44.07772" lon="0.563">
        <ele>200</ele>
        <time>2025-07-24T13:37:14.289Z</time>
      </trkpt>
      <trkpt lat="44.07773" lon="0.56299">
        <ele>200</ele>
        <time>2025-07-24T13:37:15.289Z</time>
      </trkpt>
      <trkpt lat="44.07773" lon="0.56297">
        <ele>200</ele>
        <time>2025-07-24T13:37:16.289Z</time>
      </trkpt>
      <trkpt lat="44.07773" lon="0.56295">
        <ele>200</ele>
        <time>2025-07-24T13:37:17.289Z</time>
      </trkpt>
      <trkpt lat="44.07773" lon="0.56294">
        <ele>200</ele>
        <time>2025-07-24T13:37:18.289Z</time>
      </trkpt>
      <trkpt lat="44.07774" lon="0.56293">
        <ele>199</ele>
        <time>2025-07-24T13:37:19.289Z</time>
      </trkpt>
      <trkpt lat="44.07775" lon="0.56291">
        <ele>199</ele>
        <time>2025-07-24T13:37:20.289Z</time>
      </trkpt>
      <trkpt lat="44.07775" lon="0.5629">
        <ele>199</ele>
        <time>2025-07-24T13:37:21.289Z</time>
      </trkpt>
      <trkpt lat="44.07775" lon="0.56289">
        <ele>199</ele>
        <time>2025-07-24T13:37:22.289Z</time>
      </trkpt>
      <trkpt lat="44.07776" lon="0.56287">
        <ele>199</ele>
        <time>2025-07-24T13:37:23.289Z</time>
      </trkpt>
      <trkpt lat="44.07776" lon="0.56286">
        <ele>199</ele>
        <time>2025-07-24T13:37:24.289Z</time>
      </trkpt>
      <trkpt lat="44.07777" lon="0.56284">
        <ele>198</ele>
        <time>2025-07-24T13:37:25.289Z</time>
      </trkpt>
      <trkpt lat="44.07777" lon="0.56282">
        <ele>198</ele>
        <time>2025-07-24T13:37:26.289Z</time>
      </trkpt>
      <trkpt lat="44.07778" lon="0.56281">
        <ele>198</ele>
        <time>2025-07-24T13:37:27.289Z</time>
      </trkpt>
      <trkpt lat="44.07778" lon="0.56279">
        <ele>198</ele>
        <time>2025-07-24T13:37:28.289Z</time>
      </trkpt>
      <trkpt lat="44.07779" lon="0.56277">
        <ele>198</ele>
        <time>2025-07-24T13:37:29.289Z</time>
      </trkpt>
      <trkpt lat="44.07779" lon="0.56276">
        <ele>198</ele>
        <time>2025-07-24T13:37:30.289Z</time>
      </trkpt>
      <trkpt lat="44.07779" lon="0.56274">
        <ele>198</ele>
        <time>2025-07-24T13:37:31.289Z</time>
      </trkpt>
      <trkpt lat="44.07779" lon="0.56273">
        <ele>198</ele>
        <time>2025-07-24T13:37:32.289Z</time>
      </trkpt>
      <trkpt lat="44.0778" lon="0.56271">
        <ele>198</ele>
        <time>2025-07-24T13:37:33.289Z</time>
      </trkpt>
      <trkpt lat="44.0778" lon="0.5627">
        <ele>199</ele>
        <time>2025-07-24T13:37:34.289Z</time>
      </trkpt>
      <trkpt lat="44.0778" lon="0.56269">
        <ele>199</ele>
        <time>2025-07-24T13:37:35.289Z</time>
      </trkpt>
      <trkpt lat="44.0778" lon="0.56267">
        <ele>199</ele>
        <time>2025-07-24T13:37:36.289Z</time>
      </trkpt>
      <trkpt lat="44.07781" lon="0.56265">
        <ele>199</ele>
        <time>2025-07-24T13:37:37.289Z</time>
      </trkpt>
      <trkpt lat="44.07781" lon="0.56263">
        <ele>199</ele>
        <time>2025-07-24T13:37:38.289Z</time>
      </trkpt>
      <trkpt lat="44.07782" lon="0.56262">
        <ele>199</ele>
        <time>2025-07-24T13:37:39.289Z</time>
      </trkpt>
      <trkpt lat="44.07782" lon="0.5626">
        <ele>199</ele>
        <time>2025-07-24T13:37:40.289Z</time>
      </trkpt>
      <trkpt lat="44.07783" lon="0.56258">
        <ele>199</ele>
        <time>2025-07-24T13:37:41.289Z</time>
      </trkpt>
      <trkpt lat="44.07783" lon="0.56256">
        <ele>199</ele>
        <time>2025-07-24T13:37:42.289Z</time>
      </trkpt>
      <trkpt lat="44.07783" lon="0.56254">
        <ele>199</ele>
        <time>2025-07-24T13:37:43.289Z</time>
      </trkpt>
      <trkpt lat="44.07783" lon="0.56252">
        <ele>199</ele>
        <time>2025-07-24T13:37:44.289Z</time>
      </trkpt>
      <trkpt lat="44.07783" lon="0.5625">
        <ele>199</ele>
        <time>2025-07-24T13:37:45.289Z</time>
      </trkpt>
      <trkpt lat="44.07784" lon="0.56249">
        <ele>199</ele>
        <time>2025-07-24T13:37:46.289Z</time>
      </trkpt>
      <trkpt lat="44.07784" lon="0.56247">
        <ele>198</ele>
        <time>2025-07-24T13:37:47.289Z</time>
      </trkpt>
      <trkpt lat="44.07785" lon="0.56245">
        <ele>198</ele>
        <time>2025-07-24T13:37:48.289Z</time>
      </trkpt>
      <trkpt lat="44.07785" lon="0.56244">
        <ele>198</ele>
        <time>2025-07-24T13:37:49.289Z</time>
      </trkpt>
      <trkpt lat="44.07785" lon="0.56242">
        <ele>198</ele>
        <time>2025-07-24T13:37:50.289Z</time>
      </trkpt>
      <trkpt lat="44.07786" lon="0.5624">
        <ele>198</ele>
        <time>2025-07-24T13:37:51.289Z</time>
      </trkpt>
      <trkpt lat="44.07786" lon="0.56239">
        <ele>198</ele>
        <time>2025-07-24T13:37:52.289Z</time>
      </trkpt>
      <trkpt lat="44.07786" lon="0.56237">
        <ele>198</ele>
        <time>2025-07-24T13:37:53.289Z</time>
      </trkpt>
      <trkpt lat="44.07787" lon="0.56234">
        <ele>199</ele>
        <time>2025-07-24T13:37:54.289Z</time>
      </trkpt>
      <trkpt lat="44.07787" lon="0.56232">
        <ele>198</ele>
        <time>2025-07-24T13:37:55.289Z</time>
      </trkpt>
      <trkpt lat="44.07787" lon="0.56231">
        <ele>198</ele>
        <time>2025-07-24T13:37:56.289Z</time>
      </trkpt>
      <trkpt lat="44.07788" lon="0.56229">
        <ele>198</ele>
        <time>2025-07-24T13:37:57.289Z</time>
      </trkpt>
      <trkpt lat="44.07788" lon="0.56227">
        <ele>198</ele>
        <time>2025-07-24T13:37:58.289Z</time>
      </trkpt>
      <trkpt lat="44.07789" lon="0.56225">
        <ele>199</ele>
        <time>2025-07-24T13:37:59.289Z</time>
      </trkpt>
      <trkpt lat="44.07789" lon="0.56224">
        <ele>199</ele>
        <time>2025-07-24T13:38:00.289Z</time>
      </trkpt>
      <trkpt lat="44.0779" lon="0.56223">
        <ele>199</ele>
        <time>2025-07-24T13:38:01.289Z</time>
      </trkpt>
      <trkpt lat="44.0779" lon="0.56221">
        <ele>199</ele>
        <time>2025-07-24T13:38:02.289Z</time>
      </trkpt>
      <trkpt lat="44.07791" lon="0.5622">
        <ele>199</ele>
        <time>2025-07-24T13:38:03.289Z</time>
      </trkpt>
      <trkpt lat="44.07791" lon="0.56219">
        <ele>199</ele>
        <time>2025-07-24T13:38:04.289Z</time>
      </trkpt>
      <trkpt lat="44.07791" lon="0.56217">
        <ele>199</ele>
        <time>2025-07-24T13:38:05.289Z</time>
      </trkpt>
      <trkpt lat="44.07792" lon="0.56215">
        <ele>200</ele>
        <time>2025-07-24T13:38:06.289Z</time>
      </trkpt>
      <trkpt lat="44.07792" lon="0.56213">
        <ele>199</ele>
        <time>2025-07-24T13:38:07.289Z</time>
      </trkpt>
      <trkpt lat="44.07792" lon="0.56212">
        <ele>199</ele>
        <time>2025-07-24T13:38:08.289Z</time>
      </trkpt>
      <trkpt lat="44.07793" lon="0.5621">
        <ele>199</ele>
        <time>2025-07-24T13:38:09.289Z</time>
      </trkpt>
      <trkpt lat="44.07793" lon="0.56208">
        <ele>199</ele>
        <time>2025-07-24T13:38:10.289Z</time>
      </trkpt>
      <trkpt lat="44.07793" lon="0.56207">
        <ele>199</ele>
        <time>2025-07-24T13:38:11.289Z</time>
      </trkpt>
      <trkpt lat="44.07794" lon="0.56206">
        <ele>199</ele>
        <time>2025-07-24T13:38:12.289Z</time>
      </trkpt>
      <trkpt lat="44.07794" lon="0.56204">
        <ele>198</ele>
        <time>2025-07-24T13:38:13.289Z</time>
      </trkpt>
      <trkpt lat="44.07794" lon="0.56203">
        <ele>198</ele>
        <time>2025-07-24T13:38:14.289Z</time>
      </trkpt>
      <trkpt lat="44.07795" lon="0.56201">
        <ele>198</ele>
        <time>2025-07-24T13:38:15.289Z</time>
      </trkpt>
      <trkpt lat="44.07795" lon="0.56199">
        <ele>198</ele>
        <time>2025-07-24T13:38:16.289Z</time>
      </trkpt>
      <trkpt lat="44.07796" lon="0.56198">
        <ele>198</ele>
        <time>2025-07-24T13:38:17.289Z</time>
      </trkpt>
      <trkpt lat="44.07796" lon="0.56196">
        <ele>198</ele>
        <time>2025-07-24T13:38:18.289Z</time>
      </trkpt>
      <trkpt lat="44.07797" lon="0.56194">
        <ele>198</ele>
        <time>2025-07-24T13:38:19.289Z</time>
      </trkpt>
      <trkpt lat="44.07797" lon="0.56192">
        <ele>198</ele>
        <time>2025-07-24T13:38:20.289Z</time>
      </trkpt>
      <trkpt lat="44.07798" lon="0.56191">
        <ele>198</ele>
        <time>2025-07-24T13:38:21.289Z</time>
      </trkpt>
      <trkpt lat="44.07798" lon="0.56189">
        <ele>197</ele>
        <time>2025-07-24T13:38:22.289Z</time>
      </trkpt>
      <trkpt lat="44.07798" lon="0.56187">
        <ele>198</ele>
        <time>2025-07-24T13:38:23.289Z</time>
      </trkpt>
      <trkpt lat="44.07798" lon="0.56186">
        <ele>198</ele>
        <time>2025-07-24T13:38:24.289Z</time>
      </trkpt>
      <trkpt lat="44.07799" lon="0.56184">
        <ele>198</ele>
        <time>2025-07-24T13:38:25.289Z</time>
      </trkpt>
      <trkpt lat="44.07799" lon="0.56182">
        <ele>198</ele>
        <time>2025-07-24T13:38:26.289Z</time>
      </trkpt>
      <trkpt lat="44.07799" lon="0.5618">
        <ele>198</ele>
        <time>2025-07-24T13:38:27.289Z</time>
      </trkpt>
      <trkpt lat="44.078" lon="0.56179">
        <ele>198</ele>
        <time>2025-07-24T13:38:28.289Z</time>
      </trkpt>
      <trkpt lat="44.078" lon="0.56177">
        <ele>198</ele>
        <time>2025-07-24T13:38:29.289Z</time>
      </trkpt>
      <trkpt lat="44.078" lon="0.56175">
        <ele>198</ele>
        <time>2025-07-24T13:38:30.289Z</time>
      </trkpt>
      <trkpt lat="44.07801" lon="0.56174">
        <ele>199</ele>
        <time>2025-07-24T13:38:31.289Z</time>
      </trkpt>
      <trkpt lat="44.07801" lon="0.56172">
        <ele>199</ele>
        <time>2025-07-24T13:38:32.289Z</time>
      </trkpt>
      <trkpt lat="44.07801" lon="0.5617">
        <ele>199</ele>
        <time>2025-07-24T13:38:33.289Z</time>
      </trkpt>
      <trkpt lat="44.07802" lon="0.56168">
        <ele>199</ele>
        <time>2025-07-24T13:38:34.289Z</time>
      </trkpt>
      <trkpt lat="44.07802" lon="0.56166">
        <ele>199</ele>
        <time>2025-07-24T13:38:35.289Z</time>
      </trkpt>
      <trkpt lat="44.07802" lon="0.56165">
        <ele>199</ele>
        <time>2025-07-24T13:38:36.289Z</time>
      </trkpt>
      <trkpt lat="44.07802" lon="0.56163">
        <ele>198</ele>
        <time>2025-07-24T13:38:37.289Z</time>
      </trkpt>
      <trkpt lat="44.07803" lon="0.56162">
        <ele>198</ele>
        <time>2025-07-24T13:38:38.289Z</time>
      </trkpt>
      <trkpt lat="44.07803" lon="0.5616">
        <ele>198</ele>
        <time>2025-07-24T13:38:39.289Z</time>
      </trkpt>
      <trkpt lat="44.07803" lon="0.56158">
        <ele>199</ele>
        <time>2025-07-24T13:38:40.289Z</time>
      </trkpt>
      <trkpt lat="44.07804" lon="0.56157">
        <ele>199</ele>
        <time>2025-07-24T13:38:41.289Z</time>
      </trkpt>
      <trkpt lat="44.07804" lon="0.56155">
        <ele>199</ele>
        <time>2025-07-24T13:38:42.289Z</time>
      </trkpt>
      <trkpt lat="44.07804" lon="0.56153">
        <ele>199</ele>
        <time>2025-07-24T13:38:43.289Z</time>
      </trkpt>
      <trkpt lat="44.07804" lon="0.56151">
        <ele>199</ele>
        <time>2025-07-24T13:38:44.289Z</time>
      </trkpt>
      <trkpt lat="44.07805" lon="0.56149">
        <ele>199</ele>
        <time>2025-07-24T13:38:45.289Z</time>
      </trkpt>
      <trkpt lat="44.07805" lon="0.56147">
        <ele>199</ele>
        <time>2025-07-24T13:38:46.289Z</time>
      </trkpt>
      <trkpt lat="44.07805" lon="0.56146">
        <ele>199</ele>
        <time>2025-07-24T13:38:47.289Z</time>
      </trkpt>
      <trkpt lat="44.07805" lon="0.56144">
        <ele>200</ele>
        <time>2025-07-24T13:38:48.289Z</time>
      </trkpt>
      <trkpt lat="44.07805" lon="0.56143">
        <ele>200</ele>
        <time>2025-07-24T13:38:49.289Z</time>
      </trkpt>
      <trkpt lat="44.07805" lon="0.56141">
        <ele>200</ele>
        <time>2025-07-24T13:38:50.289Z</time>
      </trkpt>
      <trkpt lat="44.07806" lon="0.5614">
        <ele>200</ele>
        <time>2025-07-24T13:38:51.289Z</time>
      </trkpt>
      <trkpt lat="44.07806" lon="0.56138">
        <ele>200</ele>
        <time>2025-07-24T13:38:52.289Z</time>
      </trkpt>
      <trkpt lat="44.07806" lon="0.56137">
        <ele>200</ele>
        <time>2025-07-24T13:38:53.289Z</time>
      </trkpt>
      <trkpt lat="44.07806" lon="0.56135">
        <ele>201</ele>
        <time>2025-07-24T13:38:54.289Z</time>
      </trkpt>
      <trkpt lat="44.07806" lon="0.56133">
        <ele>201</ele>
        <time>2025-07-24T13:38:55.289Z</time>
      </trkpt>
      <trkpt lat="44.07806" lon="0.56131">
        <ele>201</ele>
        <time>2025-07-24T13:38:56.289Z</time>
      </trkpt>
      <trkpt lat="44.07806" lon="0.56129">
        <ele>201</ele>
        <time>2025-07-24T13:38:57.289Z</time>
      </trkpt>
      <trkpt lat="44.07806" lon="0.56127">
        <ele>200</ele>
        <time>2025-07-24T13:38:58.289Z</time>
      </trkpt>
      <trkpt lat="44.07806" lon="0.56125">
        <ele>200</ele>
        <time>2025-07-24T13:38:59.289Z</time>
      </trkpt>
      <trkpt lat="44.07806" lon="0.56124">
        <ele>200</ele>
        <time>2025-07-24T13:39:00.289Z</time>
      </trkpt>
      <trkpt lat="44.07806" lon="0.56122">
        <ele>200</ele>
        <time>2025-07-24T13:39:01.289Z</time>
      </trkpt>
      <trkpt lat="44.07807" lon="0.56121">
        <ele>200</ele>
        <time>2025-07-24T13:39:02.289Z</time>
      </trkpt>
      <trkpt lat="44.07807" lon="0.5612">
        <ele>201</ele>
        <time>2025-07-24T13:39:03.289Z</time>
      </trkpt>
      <trkpt lat="44.07807" lon="0.56118">
        <ele>201</ele>
        <time>2025-07-24T13:39:04.289Z</time>
      </trkpt>
      <trkpt lat="44.07807" lon="0.56116">
        <ele>201</ele>
        <time>2025-07-24T13:39:05.289Z</time>
      </trkpt>
      <trkpt lat="44.07807" lon="0.56115">
        <ele>201</ele>
        <time>2025-07-24T13:39:06.289Z</time>
      </trkpt>
      <trkpt lat="44.07807" lon="0.56113">
        <ele>201</ele>
        <time>2025-07-24T13:39:07.289Z</time>
      </trkpt>
      <trkpt lat="44.07807" lon="0.56111">
        <ele>201</ele>
        <time>2025-07-24T13:39:08.289Z</time>
      </trkpt>
      <trkpt lat="44.07807" lon="0.56109">
        <ele>201</ele>
        <time>2025-07-24T13:39:09.289Z</time>
      </trkpt>
      <trkpt lat="44.07808" lon="0.56108">
        <ele>201</ele>
        <time>2025-07-24T13:39:10.289Z</time>
      </trkpt>
      <trkpt lat="44.07808" lon="0.56106">
        <ele>201</ele>
        <time>2025-07-24T13:39:11.289Z</time>
      </trkpt>
      <trkpt lat="44.07808" lon="0.56105">
        <ele>201</ele>
        <time>2025-07-24T13:39:12.289Z</time>
      </trkpt>
      <trkpt lat="44.07808" lon="0.56103">
        <ele>201</ele>
        <time>2025-07-24T13:39:13.289Z</time>
      </trkpt>
      <trkpt lat="44.07808" lon="0.56102">
        <ele>201</ele>
        <time>2025-07-24T13:39:14.289Z</time>
      </trkpt>
      <trkpt lat="44.07809" lon="0.561">
        <ele>201</ele>
        <time>2025-07-24T13:39:15.289Z</time>
      </trkpt>
      <trkpt lat="44.07809" lon="0.56098">
        <ele>201</ele>
        <time>2025-07-24T13:39:16.289Z</time>
      </trkpt>
      <trkpt lat="44.07809" lon="0.56096">
        <ele>201</ele>
        <time>2025-07-24T13:39:17.289Z</time>
      </trkpt>
      <trkpt lat="44.07809" lon="0.56094">
        <ele>201</ele>
        <time>2025-07-24T13:39:18.289Z</time>
      </trkpt>
      <trkpt lat="44.07809" lon="0.56092">
        <ele>201</ele>
        <time>2025-07-24T13:39:19.289Z</time>
      </trkpt>
      <trkpt lat="44.07809" lon="0.56091">
        <ele>201</ele>
        <time>2025-07-24T13:39:20.289Z</time>
      </trkpt>
      <trkpt lat="44.0781" lon="0.56089">
        <ele>201</ele>
        <time>2025-07-24T13:39:21.289Z</time>
      </trkpt>
      <trkpt lat="44.0781" lon="0.56087">
        <ele>201</ele>
        <time>2025-07-24T13:39:22.289Z</time>
      </trkpt>
      <trkpt lat="44.0781" lon="0.56086">
        <ele>200</ele>
        <time>2025-07-24T13:39:23.289Z</time>
      </trkpt>
      <trkpt lat="44.07811" lon="0.56084">
        <ele>200</ele>
        <time>2025-07-24T13:39:24.289Z</time>
      </trkpt>
      <trkpt lat="44.07811" lon="0.56083">
        <ele>200</ele>
        <time>2025-07-24T13:39:25.289Z</time>
      </trkpt>
      <trkpt lat="44.07811" lon="0.56081">
        <ele>200</ele>
        <time>2025-07-24T13:39:26.289Z</time>
      </trkpt>
      <trkpt lat="44.07811" lon="0.56079">
        <ele>200</ele>
        <time>2025-07-24T13:39:27.289Z</time>
      </trkpt>
      <trkpt lat="44.07811" lon="0.56077">
        <ele>200</ele>
        <time>2025-07-24T13:39:28.289Z</time>
      </trkpt>
      <trkpt lat="44.07811" lon="0.56075">
        <ele>200</ele>
        <time>2025-07-24T13:39:29.289Z</time>
      </trkpt>
      <trkpt lat="44.07812" lon="0.56074">
        <ele>200</ele>
        <time>2025-07-24T13:39:30.289Z</time>
      </trkpt>
      <trkpt lat="44.07812" lon="0.56072">
        <ele>200</ele>
        <time>2025-07-24T13:39:31.289Z</time>
      </trkpt>
      <trkpt lat="44.07813" lon="0.5607">
        <ele>200</ele>
        <time>2025-07-24T13:39:32.289Z</time>
      </trkpt>
      <trkpt lat="44.07813" lon="0.56068">
        <ele>200</ele>
        <time>2025-07-24T13:39:33.289Z</time>
      </trkpt>
      <trkpt lat="44.07813" lon="0.56067">
        <ele>200</ele>
        <time>2025-07-24T13:39:34.289Z</time>
      </trkpt>
      <trkpt lat="44.07814" lon="0.56065">
        <ele>199</ele>
        <time>2025-07-24T13:39:35.289Z</time>
      </trkpt>
      <trkpt lat="44.07814" lon="0.56064">
        <ele>199</ele>
        <time>2025-07-24T13:39:36.289Z</time>
      </trkpt>
      <trkpt lat="44.07814" lon="0.56062">
        <ele>199</ele>
        <time>2025-07-24T13:39:37.289Z</time>
      </trkpt>
      <trkpt lat="44.07814" lon="0.56061">
        <ele>199</ele>
        <time>2025-07-24T13:39:38.289Z</time>
      </trkpt>
      <trkpt lat="44.07815" lon="0.56059">
        <ele>199</ele>
        <time>2025-07-24T13:39:39.289Z</time>
      </trkpt>
      <trkpt lat="44.07815" lon="0.56057">
        <ele>199</ele>
        <time>2025-07-24T13:39:40.289Z</time>
      </trkpt>
      <trkpt lat="44.07816" lon="0.56055">
        <ele>199</ele>
        <time>2025-07-24T13:39:41.289Z</time>
      </trkpt>
      <trkpt lat="44.07816" lon="0.56053">
        <ele>199</ele>
        <time>2025-07-24T13:39:42.289Z</time>
      </trkpt>
      <trkpt lat="44.07816" lon="0.56051">
        <ele>200</ele>
        <time>2025-07-24T13:39:43.289Z</time>
      </trkpt>
      <trkpt lat="44.07816" lon="0.56049">
        <ele>200</ele>
        <time>2025-07-24T13:39:44.289Z</time>
      </trkpt>
      <trkpt lat="44.07816" lon="0.56047">
        <ele>200</ele>
        <time>2025-07-24T13:39:45.289Z</time>
      </trkpt>
      <trkpt lat="44.07816" lon="0.56045">
        <ele>201</ele>
        <time>2025-07-24T13:39:46.289Z</time>
      </trkpt>
      <trkpt lat="44.07817" lon="0.56044">
        <ele>201</ele>
        <time>2025-07-24T13:39:47.289Z</time>
      </trkpt>
      <trkpt lat="44.07817" lon="0.56042">
        <ele>201</ele>
        <time>2025-07-24T13:39:48.289Z</time>
      </trkpt>
      <trkpt lat="44.07817" lon="0.5604">
        <ele>202</ele>
        <time>2025-07-24T13:39:49.289Z</time>
      </trkpt>
      <trkpt lat="44.07817" lon="0.56039">
        <ele>202</ele>
        <time>2025-07-24T13:39:50.289Z</time>
      </trkpt>
      <trkpt lat="44.07817" lon="0.56037">
        <ele>202</ele>
        <time>2025-07-24T13:39:51.289Z</time>
      </trkpt>
      <trkpt lat="44.07818" lon="0.56036">
        <ele>202</ele>
        <time>2025-07-24T13:39:52.289Z</time>
      </trkpt>
      <trkpt lat="44.07818" lon="0.56034">
        <ele>202</ele>
        <time>2025-07-24T13:39:53.289Z</time>
      </trkpt>
      <trkpt lat="44.07818" lon="0.56032">
        <ele>202</ele>
        <time>2025-07-24T13:39:54.289Z</time>
      </trkpt>
      <trkpt lat="44.07818" lon="0.56031">
        <ele>202</ele>
        <time>2025-07-24T13:39:55.289Z</time>
      </trkpt>
      <trkpt lat="44.07819" lon="0.56029">
        <ele>202</ele>
        <time>2025-07-24T13:39:56.289Z</time>
      </trkpt>
      <trkpt lat="44.07819" lon="0.56027">
        <ele>202</ele>
        <time>2025-07-24T13:39:57.289Z</time>
      </trkpt>
      <trkpt lat="44.07819" lon="0.56025">
        <ele>202</ele>
        <time>2025-07-24T13:39:58.289Z</time>
      </trkpt>
      <trkpt lat="44.07819" lon="0.56023">
        <ele>202</ele>
        <time>2025-07-24T13:39:59.289Z</time>
      </trkpt>
      <trkpt lat="44.07819" lon="0.56021">
        <ele>202</ele>
        <time>2025-07-24T13:40:00.290Z</time>
      </trkpt>
      <trkpt lat="44.0782" lon="0.56019">
        <ele>202</ele>
        <time>2025-07-24T13:40:01.289Z</time>
      </trkpt>
      <trkpt lat="44.0782" lon="0.56018">
        <ele>202</ele>
        <time>2025-07-24T13:40:02.289Z</time>
      </trkpt>
      <trkpt lat="44.0782" lon="0.56016">
        <ele>202</ele>
        <time>2025-07-24T13:40:03.289Z</time>
      </trkpt>
      <trkpt lat="44.0782" lon="0.56015">
        <ele>202</ele>
        <time>2025-07-24T13:40:04.289Z</time>
      </trkpt>
      <trkpt lat="44.0782" lon="0.56013">
        <ele>202</ele>
        <time>2025-07-24T13:40:05.289Z</time>
      </trkpt>
      <trkpt lat="44.07821" lon="0.56012">
        <ele>201</ele>
        <time>2025-07-24T13:40:06.289Z</time>
      </trkpt>
      <trkpt lat="44.07821" lon="0.5601">
        <ele>201</ele>
        <time>2025-07-24T13:40:07.289Z</time>
      </trkpt>
      <trkpt lat="44.07821" lon="0.56008">
        <ele>201</ele>
        <time>2025-07-24T13:40:08.289Z</time>
      </trkpt>
      <trkpt lat="44.07822" lon="0.56006">
        <ele>201</ele>
        <time>2025-07-24T13:40:09.289Z</time>
      </trkpt>
      <trkpt lat="44.07822" lon="0.56004">
        <ele>201</ele>
        <time>2025-07-24T13:40:10.289Z</time>
      </trkpt>
      <trkpt lat="44.07822" lon="0.56002">
        <ele>201</ele>
        <time>2025-07-24T13:40:11.289Z</time>
      </trkpt>
      <trkpt lat="44.07822" lon="0.56001">
        <ele>202</ele>
        <time>2025-07-24T13:40:12.289Z</time>
      </trkpt>
      <trkpt lat="44.07822" lon="0.55999">
        <ele>202</ele>
        <time>2025-07-24T13:40:13.289Z</time>
      </trkpt>
      <trkpt lat="44.07822" lon="0.55998">
        <ele>202</ele>
        <time>2025-07-24T13:40:14.289Z</time>
      </trkpt>
      <trkpt lat="44.07822" lon="0.55996">
        <ele>202</ele>
        <time>2025-07-24T13:40:15.289Z</time>
      </trkpt>
      <trkpt lat="44.07822" lon="0.55994">
        <ele>202</ele>
        <time>2025-07-24T13:40:16.289Z</time>
      </trkpt>
      <trkpt lat="44.07822" lon="0.55992">
        <ele>203</ele>
        <time>2025-07-24T13:40:17.289Z</time>
      </trkpt>
      <trkpt lat="44.07822" lon="0.55991">
        <ele>203</ele>
        <time>2025-07-24T13:40:18.289Z</time>
      </trkpt>
      <trkpt lat="44.07823" lon="0.55989">
        <ele>202</ele>
        <time>2025-07-24T13:40:19.289Z</time>
      </trkpt>
      <trkpt lat="44.07824" lon="0.55988">
        <ele>202</ele>
        <time>2025-07-24T13:40:20.289Z</time>
      </trkpt>
      <trkpt lat="44.07824" lon="0.55986">
        <ele>202</ele>
        <time>2025-07-24T13:40:21.289Z</time>
      </trkpt>
      <trkpt lat="44.07824" lon="0.55985">
        <ele>201</ele>
        <time>2025-07-24T13:40:22.289Z</time>
      </trkpt>
      <trkpt lat="44.07824" lon="0.55983">
        <ele>201</ele>
        <time>2025-07-24T13:40:23.289Z</time>
      </trkpt>
      <trkpt lat="44.07825" lon="0.55981">
        <ele>201</ele>
        <time>2025-07-24T13:40:24.289Z</time>
      </trkpt>
      <trkpt lat="44.07825" lon="0.55979">
        <ele>201</ele>
        <time>2025-07-24T13:40:25.289Z</time>
      </trkpt>
      <trkpt lat="44.07826" lon="0.55977">
        <ele>201</ele>
        <time>2025-07-24T13:40:26.289Z</time>
      </trkpt>
      <trkpt lat="44.07826" lon="0.55976">
        <ele>201</ele>
        <time>2025-07-24T13:40:27.289Z</time>
      </trkpt>
      <trkpt lat="44.07826" lon="0.55974">
        <ele>201</ele>
        <time>2025-07-24T13:40:28.289Z</time>
      </trkpt>
      <trkpt lat="44.07826" lon="0.55972">
        <ele>201</ele>
        <time>2025-07-24T13:40:29.289Z</time>
      </trkpt>
      <trkpt lat="44.07826" lon="0.55971">
        <ele>202</ele>
        <time>2025-07-24T13:40:30.289Z</time>
      </trkpt>
      <trkpt lat="44.07826" lon="0.5597">
        <ele>202</ele>
        <time>2025-07-24T13:40:31.289Z</time>
      </trkpt>
      <trkpt lat="44.07826" lon="0.55968">
        <ele>202</ele>
        <time>2025-07-24T13:40:32.289Z</time>
      </trkpt>
      <trkpt lat="44.07826" lon="0.55967">
        <ele>202</ele>
        <time>2025-07-24T13:40:33.289Z</time>
      </trkpt>
      <trkpt lat="44.07826" lon="0.55965">
        <ele>202</ele>
        <time>2025-07-24T13:40:34.289Z</time>
      </trkpt>
      <trkpt lat="44.07826" lon="0.55964">
        <ele>202</ele>
        <time>2025-07-24T13:40:35.289Z</time>
      </trkpt>
      <trkpt lat="44.07827" lon="0.55962">
        <ele>202</ele>
        <time>2025-07-24T13:40:36.289Z</time>
      </trkpt>
      <trkpt lat="44.07827" lon="0.55961">
        <ele>202</ele>
        <time>2025-07-24T13:40:37.289Z</time>
      </trkpt>
      <trkpt lat="44.07827" lon="0.55959">
        <ele>202</ele>
        <time>2025-07-24T13:40:38.289Z</time>
      </trkpt>
      <trkpt lat="44.07828" lon="0.55958">
        <ele>202</ele>
        <time>2025-07-24T13:40:39.289Z</time>
      </trkpt>
      <trkpt lat="44.07828" lon="0.55957">
        <ele>202</ele>
        <time>2025-07-24T13:40:40.289Z</time>
      </trkpt>
      <trkpt lat="44.07828" lon="0.55955">
        <ele>202</ele>
        <time>2025-07-24T13:40:41.289Z</time>
      </trkpt>
      <trkpt lat="44.07829" lon="0.55954">
        <ele>202</ele>
        <time>2025-07-24T13:40:42.289Z</time>
      </trkpt>
      <trkpt lat="44.07829" lon="0.55953">
        <ele>202</ele>
        <time>2025-07-24T13:40:43.289Z</time>
      </trkpt>
      <trkpt lat="44.07829" lon="0.55952">
        <ele>202</ele>
        <time>2025-07-24T13:40:44.289Z</time>
      </trkpt>
      <trkpt lat="44.07829" lon="0.55952">
        <ele>202</ele>
        <time>2025-07-24T13:40:45.289Z</time>
      </trkpt>
      <trkpt lat="44.07829" lon="0.55951">
        <ele>202</ele>
        <time>2025-07-24T13:40:46.289Z</time>
      </trkpt>
      <trkpt lat="44.07829" lon="0.55951">
        <ele>202</ele>
        <time>2025-07-24T13:40:47.289Z</time>
      </trkpt>
      <trkpt lat="44.07829" lon="0.55951">
        <ele>202</ele>
        <time>2025-07-24T13:40:48.289Z</time>
      </trkpt>
      <trkpt lat="44.07829" lon="0.5595">
        <ele>202</ele>
        <time>2025-07-24T13:40:49.289Z</time>
      </trkpt>
      <trkpt lat="44.07829" lon="0.5595">
        <ele>203</ele>
        <time>2025-07-24T13:40:50.289Z</time>
      </trkpt>
      <trkpt lat="44.07829" lon="0.55949">
        <ele>203</ele>
        <time>2025-07-24T13:40:51.289Z</time>
      </trkpt>
      <trkpt lat="44.0783" lon="0.55947">
        <ele>203</ele>
        <time>2025-07-24T13:40:52.289Z</time>
      </trkpt>
      <trkpt lat="44.0783" lon="0.55946">
        <ele>203</ele>
        <time>2025-07-24T13:40:53.289Z</time>
      </trkpt>
      <trkpt lat="44.0783" lon="0.55944">
        <ele>203</ele>
        <time>2025-07-24T13:40:54.289Z</time>
      </trkpt>
      <trkpt lat="44.07831" lon="0.55943">
        <ele>203</ele>
        <time>2025-07-24T13:40:55.289Z</time>
      </trkpt>
      <trkpt lat="44.07831" lon="0.55942">
        <ele>203</ele>
        <time>2025-07-24T13:40:56.289Z</time>
      </trkpt>
      <trkpt lat="44.07832" lon="0.55941">
        <ele>203</ele>
        <time>2025-07-24T13:40:57.289Z</time>
      </trkpt>
      <trkpt lat="44.07832" lon="0.55939">
        <ele>202</ele>
        <time>2025-07-24T13:40:58.289Z</time>
      </trkpt>
      <trkpt lat="44.07832" lon="0.55938">
        <ele>202</ele>
        <time>2025-07-24T13:40:59.289Z</time>
      </trkpt>
      <trkpt lat="44.07833" lon="0.55937">
        <ele>202</ele>
        <time>2025-07-24T13:41:00.289Z</time>
      </trkpt>
      <trkpt lat="44.07833" lon="0.55935">
        <ele>202</ele>
        <time>2025-07-24T13:41:01.289Z</time>
      </trkpt>
      <trkpt lat="44.07833" lon="0.55934">
        <ele>202</ele>
        <time>2025-07-24T13:41:02.289Z</time>
      </trkpt>
      <trkpt lat="44.07834" lon="0.55933">
        <ele>202</ele>
        <time>2025-07-24T13:41:03.289Z</time>
      </trkpt>
      <trkpt lat="44.07834" lon="0.55932">
        <ele>202</ele>
        <time>2025-07-24T13:41:04.289Z</time>
      </trkpt>
      <trkpt lat="44.07835" lon="0.55931">
        <ele>201</ele>
        <time>2025-07-24T13:41:05.289Z</time>
      </trkpt>
      <trkpt lat="44.07836" lon="0.5593">
        <ele>201</ele>
        <time>2025-07-24T13:41:06.289Z</time>
      </trkpt>
      <trkpt lat="44.07836" lon="0.55929">
        <ele>201</ele>
        <time>2025-07-24T13:41:07.289Z</time>
      </trkpt>
      <trkpt lat="44.07837" lon="0.55927">
        <ele>201</ele>
        <time>2025-07-24T13:41:08.289Z</time>
      </trkpt>
      <trkpt lat="44.07837" lon="0.55926">
        <ele>200</ele>
        <time>2025-07-24T13:41:09.289Z</time>
      </trkpt>
      <trkpt lat="44.07838" lon="0.55925">
        <ele>200</ele>
        <time>2025-07-24T13:41:10.289Z</time>
      </trkpt>
      <trkpt lat="44.07838" lon="0.55924">
        <ele>200</ele>
        <time>2025-07-24T13:41:11.289Z</time>
      </trkpt>
      <trkpt lat="44.07838" lon="0.55924">
        <ele>200</ele>
        <time>2025-07-24T13:41:12.289Z</time>
      </trkpt>
      <trkpt lat="44.07838" lon="0.55923">
        <ele>200</ele>
        <time>2025-07-24T13:41:13.289Z</time>
      </trkpt>
      <trkpt lat="44.07839" lon="0.55923">
        <ele>200</ele>
        <time>2025-07-24T13:41:14.289Z</time>
      </trkpt>
      <trkpt lat="44.07839" lon="0.55923">
        <ele>200</ele>
        <time>2025-07-24T13:41:15.289Z</time>
      </trkpt>
      <trkpt lat="44.07839" lon="0.55923">
        <ele>200</ele>
        <time>2025-07-24T13:41:16.289Z</time>
      </trkpt>
      <trkpt lat="44.07839" lon="0.55922">
        <ele>200</ele>
        <time>2025-07-24T13:41:17.289Z</time>
      </trkpt>
      <trkpt lat="44.07839" lon="0.55922">
        <ele>199</ele>
        <time>2025-07-24T13:41:18.290Z</time>
      </trkpt>
      <trkpt lat="44.07839" lon="0.55922">
        <ele>199</ele>
        <time>2025-07-24T13:41:19.289Z</time>
      </trkpt>
      <trkpt lat="44.07839" lon="0.55922">
        <ele>199</ele>
        <time>2025-07-24T13:41:20.289Z</time>
      </trkpt>
      <trkpt lat="44.07839" lon="0.55922">
        <ele>199</ele>
        <time>2025-07-24T13:41:21.289Z</time>
      </trkpt>
      <trkpt lat="44.0784" lon="0.55922">
        <ele>199</ele>
        <time>2025-07-24T13:41:22.289Z</time>
      </trkpt>
      <trkpt lat="44.0784" lon="0.55922">
        <ele>199</ele>
        <time>2025-07-24T13:41:23.289Z</time>
      </trkpt>
      <trkpt lat="44.0784" lon="0.55922">
        <ele>199</ele>
        <time>2025-07-24T13:41:24.289Z</time>
      </trkpt>
      <trkpt lat="44.0784" lon="0.55922">
        <ele>199</ele>
        <time>2025-07-24T13:41:25.289Z</time>
      </trkpt>
      <trkpt lat="44.0784" lon="0.55922">
        <ele>199</ele>
        <time>2025-07-24T13:41:26.289Z</time>
      </trkpt>
      <trkpt lat="44.0784" lon="0.55922">
        <ele>199</ele>
        <time>2025-07-24T13:41:27.289Z</time>
      </trkpt>
      <trkpt lat="44.0784" lon="0.55921">
        <ele>199</ele>
        <time>2025-07-24T13:41:28.289Z</time>
      </trkpt>
      <trkpt lat="44.0784" lon="0.55921">
        <ele>199</ele>
        <time>2025-07-24T13:41:29.289Z</time>
      </trkpt>
      <trkpt lat="44.0784" lon="0.5592">
        <ele>199</ele>
        <time>2025-07-24T13:41:30.289Z</time>
      </trkpt>
      <trkpt lat="44.0784" lon="0.55919">
        <ele>199</ele>
        <time>2025-07-24T13:41:31.289Z</time>
      </trkpt>
      <trkpt lat="44.07841" lon="0.55918">
        <ele>199</ele>
        <time>2025-07-24T13:41:32.289Z</time>
      </trkpt>
      <trkpt lat="44.07841" lon="0.55916">
        <ele>199</ele>
        <time>2025-07-24T13:41:33.289Z</time>
      </trkpt>
      <trkpt lat="44.07841" lon="0.55914">
        <ele>199</ele>
        <time>2025-07-24T13:41:34.289Z</time>
      </trkpt>
      <trkpt lat="44.07842" lon="0.55913">
        <ele>199</ele>
        <time>2025-07-24T13:41:35.289Z</time>
      </trkpt>
      <trkpt lat="44.07842" lon="0.55911">
        <ele>199</ele>
        <time>2025-07-24T13:41:36.289Z</time>
      </trkpt>
      <trkpt lat="44.07842" lon="0.5591">
        <ele>199</ele>
        <time>2025-07-24T13:41:37.289Z</time>
      </trkpt>
      <trkpt lat="44.07843" lon="0.55909">
        <ele>199</ele>
        <time>2025-07-24T13:41:38.289Z</time>
      </trkpt>
      <trkpt lat="44.07843" lon="0.55907">
        <ele>199</ele>
        <time>2025-07-24T13:41:39.289Z</time>
      </trkpt>
      <trkpt lat="44.07844" lon="0.55906">
        <ele>199</ele>
        <time>2025-07-24T13:41:40.289Z</time>
      </trkpt>
      <trkpt lat="44.07844" lon="0.55904">
        <ele>200</ele>
        <time>2025-07-24T13:41:41.289Z</time>
      </trkpt>
      <trkpt lat="44.07845" lon="0.55903">
        <ele>200</ele>
        <time>2025-07-24T13:41:42.289Z</time>
      </trkpt>
      <trkpt lat="44.07845" lon="0.55901">
        <ele>200</ele>
        <time>2025-07-24T13:41:43.289Z</time>
      </trkpt>
      <trkpt lat="44.07846" lon="0.55899">
        <ele>200</ele>
        <time>2025-07-24T13:41:44.289Z</time>
      </trkpt>
      <trkpt lat="44.07846" lon="0.55897">
        <ele>200</ele>
        <time>2025-07-24T13:41:45.289Z</time>
      </trkpt>
      <trkpt lat="44.07847" lon="0.55896">
        <ele>200</ele>
        <time>2025-07-24T13:41:46.289Z</time>
      </trkpt>
      <trkpt lat="44.07847" lon="0.55894">
        <ele>200</ele>
        <time>2025-07-24T13:41:47.289Z</time>
      </trkpt>
      <trkpt lat="44.07847" lon="0.55893">
        <ele>200</ele>
        <time>2025-07-24T13:41:48.289Z</time>
      </trkpt>
      <trkpt lat="44.07848" lon="0.55891">
        <ele>200</ele>
        <time>2025-07-24T13:41:49.289Z</time>
      </trkpt>
      <trkpt lat="44.07848" lon="0.55889">
        <ele>200</ele>
        <time>2025-07-24T13:41:50.289Z</time>
      </trkpt>
      <trkpt lat="44.07849" lon="0.55888">
        <ele>200</ele>
        <time>2025-07-24T13:41:51.289Z</time>
      </trkpt>
      <trkpt lat="44.07849" lon="0.55886">
        <ele>200</ele>
        <time>2025-07-24T13:41:52.289Z</time>
      </trkpt>
      <trkpt lat="44.0785" lon="0.55885">
        <ele>200</ele>
        <time>2025-07-24T13:41:53.289Z</time>
      </trkpt>
      <trkpt lat="44.0785" lon="0.55884">
        <ele>200</ele>
        <time>2025-07-24T13:41:54.289Z</time>
      </trkpt>
      <trkpt lat="44.0785" lon="0.55882">
        <ele>200</ele>
        <time>2025-07-24T13:41:55.289Z</time>
      </trkpt>
      <trkpt lat="44.07851" lon="0.55881">
        <ele>200</ele>
        <time>2025-07-24T13:41:56.289Z</time>
      </trkpt>
      <trkpt lat="44.07851" lon="0.55879">
        <ele>200</ele>
        <time>2025-07-24T13:41:57.289Z</time>
      </trkpt>
      <trkpt lat="44.07852" lon="0.55877">
        <ele>200</ele>
        <time>2025-07-24T13:41:58.289Z</time>
      </trkpt>
      <trkpt lat="44.07852" lon="0.55875">
        <ele>200</ele>
        <time>2025-07-24T13:41:59.289Z</time>
      </trkpt>
      <trkpt lat="44.07853" lon="0.55874">
        <ele>200</ele>
        <time>2025-07-24T13:42:00.289Z</time>
      </trkpt>
      <trkpt lat="44.07853" lon="0.55872">
        <ele>200</ele>
        <time>2025-07-24T13:42:01.289Z</time>
      </trkpt>
      <trkpt lat="44.07854" lon="0.5587">
        <ele>199</ele>
        <time>2025-07-24T13:42:02.289Z</time>
      </trkpt>
      <trkpt lat="44.07854" lon="0.55868">
        <ele>199</ele>
        <time>2025-07-24T13:42:03.289Z</time>
      </trkpt>
      <trkpt lat="44.07855" lon="0.55867">
        <ele>199</ele>
        <time>2025-07-24T13:42:04.289Z</time>
      </trkpt>
      <trkpt lat="44.07855" lon="0.55865">
        <ele>199</ele>
        <time>2025-07-24T13:42:05.289Z</time>
      </trkpt>
      <trkpt lat="44.07856" lon="0.55864">
        <ele>199</ele>
        <time>2025-07-24T13:42:06.289Z</time>
      </trkpt>
      <trkpt lat="44.07856" lon="0.55862">
        <ele>198</ele>
        <time>2025-07-24T13:42:07.289Z</time>
      </trkpt>
      <trkpt lat="44.07856" lon="0.55861">
        <ele>199</ele>
        <time>2025-07-24T13:42:08.289Z</time>
      </trkpt>
      <trkpt lat="44.07857" lon="0.55859">
        <ele>199</ele>
        <time>2025-07-24T13:42:09.289Z</time>
      </trkpt>
      <trkpt lat="44.07857" lon="0.55858">
        <ele>199</ele>
        <time>2025-07-24T13:42:10.289Z</time>
      </trkpt>
      <trkpt lat="44.07857" lon="0.55856">
        <ele>198</ele>
        <time>2025-07-24T13:42:11.289Z</time>
      </trkpt>
      <trkpt lat="44.07858" lon="0.55854">
        <ele>199</ele>
        <time>2025-07-24T13:42:12.289Z</time>
      </trkpt>
      <trkpt lat="44.07858" lon="0.55852">
        <ele>199</ele>
        <time>2025-07-24T13:42:13.289Z</time>
      </trkpt>
      <trkpt lat="44.07859" lon="0.55851">
        <ele>199</ele>
        <time>2025-07-24T13:42:14.289Z</time>
      </trkpt>
      <trkpt lat="44.07859" lon="0.55849">
        <ele>199</ele>
        <time>2025-07-24T13:42:15.289Z</time>
      </trkpt>
      <trkpt lat="44.0786" lon="0.55847">
        <ele>199</ele>
        <time>2025-07-24T13:42:16.289Z</time>
      </trkpt>
      <trkpt lat="44.07861" lon="0.55846">
        <ele>199</ele>
        <time>2025-07-24T13:42:17.289Z</time>
      </trkpt>
      <trkpt lat="44.07861" lon="0.55844">
        <ele>199</ele>
        <time>2025-07-24T13:42:18.289Z</time>
      </trkpt>
      <trkpt lat="44.07862" lon="0.55843">
        <ele>199</ele>
        <time>2025-07-24T13:42:19.289Z</time>
      </trkpt>
      <trkpt lat="44.07862" lon="0.55841">
        <ele>199</ele>
        <time>2025-07-24T13:42:20.289Z</time>
      </trkpt>
      <trkpt lat="44.07863" lon="0.55839">
        <ele>199</ele>
        <time>2025-07-24T13:42:21.289Z</time>
      </trkpt>
      <trkpt lat="44.07863" lon="0.55838">
        <ele>199</ele>
        <time>2025-07-24T13:42:22.289Z</time>
      </trkpt>
      <trkpt lat="44.07863" lon="0.55836">
        <ele>199</ele>
        <time>2025-07-24T13:42:23.289Z</time>
      </trkpt>
      <trkpt lat="44.07863" lon="0.55835">
        <ele>199</ele>
        <time>2025-07-24T13:42:24.289Z</time>
      </trkpt>
      <trkpt lat="44.07864" lon="0.55833">
        <ele>199</ele>
        <time>2025-07-24T13:42:25.289Z</time>
      </trkpt>
      <trkpt lat="44.07864" lon="0.55832">
        <ele>199</ele>
        <time>2025-07-24T13:42:26.289Z</time>
      </trkpt>
      <trkpt lat="44.07865" lon="0.5583">
        <ele>199</ele>
        <time>2025-07-24T13:42:27.289Z</time>
      </trkpt>
      <trkpt lat="44.07865" lon="0.55829">
        <ele>199</ele>
        <time>2025-07-24T13:42:28.289Z</time>
      </trkpt>
      <trkpt lat="44.07866" lon="0.55827">
        <ele>199</ele>
        <time>2025-07-24T13:42:29.289Z</time>
      </trkpt>
      <trkpt lat="44.07867" lon="0.55826">
        <ele>199</ele>
        <time>2025-07-24T13:42:30.289Z</time>
      </trkpt>
      <trkpt lat="44.07867" lon="0.55824">
        <ele>199</ele>
        <time>2025-07-24T13:42:31.289Z</time>
      </trkpt>
      <trkpt lat="44.07868" lon="0.55822">
        <ele>199</ele>
        <time>2025-07-24T13:42:32.289Z</time>
      </trkpt>
      <trkpt lat="44.07868" lon="0.5582">
        <ele>199</ele>
        <time>2025-07-24T13:42:33.289Z</time>
      </trkpt>
      <trkpt lat="44.07868" lon="0.55818">
        <ele>199</ele>
        <time>2025-07-24T13:42:34.289Z</time>
      </trkpt>
      <trkpt lat="44.07869" lon="0.55816">
        <ele>198</ele>
        <time>2025-07-24T13:42:35.289Z</time>
      </trkpt>
      <trkpt lat="44.07869" lon="0.55815">
        <ele>198</ele>
        <time>2025-07-24T13:42:36.289Z</time>
      </trkpt>
      <trkpt lat="44.0787" lon="0.55813">
        <ele>198</ele>
        <time>2025-07-24T13:42:37.289Z</time>
      </trkpt>
      <trkpt lat="44.0787" lon="0.55812">
        <ele>198</ele>
        <time>2025-07-24T13:42:38.289Z</time>
      </trkpt>
      <trkpt lat="44.0787" lon="0.5581">
        <ele>198</ele>
        <time>2025-07-24T13:42:39.289Z</time>
      </trkpt>
      <trkpt lat="44.07871" lon="0.55809">
        <ele>198</ele>
        <time>2025-07-24T13:42:40.289Z</time>
      </trkpt>
      <trkpt lat="44.07871" lon="0.55807">
        <ele>198</ele>
        <time>2025-07-24T13:42:41.289Z</time>
      </trkpt>
      <trkpt lat="44.07872" lon="0.55806">
        <ele>198</ele>
        <time>2025-07-24T13:42:42.289Z</time>
      </trkpt>
      <trkpt lat="44.07872" lon="0.55805">
        <ele>197</ele>
        <time>2025-07-24T13:42:43.290Z</time>
      </trkpt>
      <trkpt lat="44.07873" lon="0.55803">
        <ele>197</ele>
        <time>2025-07-24T13:42:44.289Z</time>
      </trkpt>
      <trkpt lat="44.07873" lon="0.55801">
        <ele>196</ele>
        <time>2025-07-24T13:42:45.289Z</time>
      </trkpt>
      <trkpt lat="44.07874" lon="0.55799">
        <ele>196</ele>
        <time>2025-07-24T13:42:46.289Z</time>
      </trkpt>
      <trkpt lat="44.07874" lon="0.55797">
        <ele>196</ele>
        <time>2025-07-24T13:42:47.289Z</time>
      </trkpt>
      <trkpt lat="44.07875" lon="0.55795">
        <ele>196</ele>
        <time>2025-07-24T13:42:48.289Z</time>
      </trkpt>
      <trkpt lat="44.07875" lon="0.55794">
        <ele>196</ele>
        <time>2025-07-24T13:42:49.289Z</time>
      </trkpt>
      <trkpt lat="44.07876" lon="0.55792">
        <ele>196</ele>
        <time>2025-07-24T13:42:50.289Z</time>
      </trkpt>
      <trkpt lat="44.07877" lon="0.5579">
        <ele>197</ele>
        <time>2025-07-24T13:42:51.289Z</time>
      </trkpt>
      <trkpt lat="44.07877" lon="0.55788">
        <ele>197</ele>
        <time>2025-07-24T13:42:52.289Z</time>
      </trkpt>
      <trkpt lat="44.07878" lon="0.55787">
        <ele>197</ele>
        <time>2025-07-24T13:42:53.289Z</time>
      </trkpt>
      <trkpt lat="44.07878" lon="0.55785">
        <ele>197</ele>
        <time>2025-07-24T13:42:54.289Z</time>
      </trkpt>
      <trkpt lat="44.07878" lon="0.55784">
        <ele>197</ele>
        <time>2025-07-24T13:42:55.289Z</time>
      </trkpt>
      <trkpt lat="44.07879" lon="0.55782">
        <ele>197</ele>
        <time>2025-07-24T13:42:56.289Z</time>
      </trkpt>
      <trkpt lat="44.0788" lon="0.55781">
        <ele>197</ele>
        <time>2025-07-24T13:42:57.289Z</time>
      </trkpt>
      <trkpt lat="44.0788" lon="0.5578">
        <ele>198</ele>
        <time>2025-07-24T13:42:58.289Z</time>
      </trkpt>
      <trkpt lat="44.07881" lon="0.55778">
        <ele>198</ele>
        <time>2025-07-24T13:42:59.289Z</time>
      </trkpt>
      <trkpt lat="44.07882" lon="0.55777">
        <ele>198</ele>
        <time>2025-07-24T13:43:00.289Z</time>
      </trkpt>
      <trkpt lat="44.07882" lon="0.55775">
        <ele>198</ele>
        <time>2025-07-24T13:43:01.289Z</time>
      </trkpt>
      <trkpt lat="44.07883" lon="0.55774">
        <ele>198</ele>
        <time>2025-07-24T13:43:02.289Z</time>
      </trkpt>
      <trkpt lat="44.07883" lon="0.55773">
        <ele>197</ele>
        <time>2025-07-24T13:43:03.289Z</time>
      </trkpt>
      <trkpt lat="44.07883" lon="0.55772">
        <ele>197</ele>
        <time>2025-07-24T13:43:04.289Z</time>
      </trkpt>
      <trkpt lat="44.07883" lon="0.5577">
        <ele>196</ele>
        <time>2025-07-24T13:43:05.289Z</time>
      </trkpt>
      <trkpt lat="44.07884" lon="0.55769">
        <ele>196</ele>
        <time>2025-07-24T13:43:06.289Z</time>
      </trkpt>
      <trkpt lat="44.07884" lon="0.55767">
        <ele>195</ele>
        <time>2025-07-24T13:43:07.289Z</time>
      </trkpt>
      <trkpt lat="44.07884" lon="0.55765">
        <ele>195</ele>
        <time>2025-07-24T13:43:08.289Z</time>
      </trkpt>
      <trkpt lat="44.07884" lon="0.55764">
        <ele>195</ele>
        <time>2025-07-24T13:43:09.289Z</time>
      </trkpt>
      <trkpt lat="44.07885" lon="0.55762">
        <ele>195</ele>
        <time>2025-07-24T13:43:10.289Z</time>
      </trkpt>
      <trkpt lat="44.07885" lon="0.55761">
        <ele>195</ele>
        <time>2025-07-24T13:43:11.289Z</time>
      </trkpt>
      <trkpt lat="44.07885" lon="0.55759">
        <ele>195</ele>
        <time>2025-07-24T13:43:12.289Z</time>
      </trkpt>
      <trkpt lat="44.07886" lon="0.55758">
        <ele>194</ele>
        <time>2025-07-24T13:43:13.289Z</time>
      </trkpt>
      <trkpt lat="44.07886" lon="0.55757">
        <ele>194</ele>
        <time>2025-07-24T13:43:14.289Z</time>
      </trkpt>
      <trkpt lat="44.07886" lon="0.55755">
        <ele>194</ele>
        <time>2025-07-24T13:43:15.289Z</time>
      </trkpt>
      <trkpt lat="44.07887" lon="0.55754">
        <ele>194</ele>
        <time>2025-07-24T13:43:16.289Z</time>
      </trkpt>
      <trkpt lat="44.07887" lon="0.55753">
        <ele>194</ele>
        <time>2025-07-24T13:43:17.289Z</time>
      </trkpt>
      <trkpt lat="44.07888" lon="0.55751">
        <ele>194</ele>
        <time>2025-07-24T13:43:18.289Z</time>
      </trkpt>
      <trkpt lat="44.07888" lon="0.5575">
        <ele>193</ele>
        <time>2025-07-24T13:43:19.289Z</time>
      </trkpt>
      <trkpt lat="44.07889" lon="0.55749">
        <ele>193</ele>
        <time>2025-07-24T13:43:20.289Z</time>
      </trkpt>
      <trkpt lat="44.07889" lon="0.55747">
        <ele>193</ele>
        <time>2025-07-24T13:43:21.289Z</time>
      </trkpt>
      <trkpt lat="44.07889" lon="0.55746">
        <ele>193</ele>
        <time>2025-07-24T13:43:22.289Z</time>
      </trkpt>
      <trkpt lat="44.0789" lon="0.55744">
        <ele>193</ele>
        <time>2025-07-24T13:43:23.289Z</time>
      </trkpt>
      <trkpt lat="44.0789" lon="0.55743">
        <ele>193</ele>
        <time>2025-07-24T13:43:24.289Z</time>
      </trkpt>
      <trkpt lat="44.0789" lon="0.55741">
        <ele>193</ele>
        <time>2025-07-24T13:43:25.289Z</time>
      </trkpt>
      <trkpt lat="44.0789" lon="0.55739">
        <ele>193</ele>
        <time>2025-07-24T13:43:26.289Z</time>
      </trkpt>
      <trkpt lat="44.0789" lon="0.55737">
        <ele>194</ele>
        <time>2025-07-24T13:43:27.289Z</time>
      </trkpt>
      <trkpt lat="44.07891" lon="0.55735">
        <ele>194</ele>
        <time>2025-07-24T13:43:28.289Z</time>
      </trkpt>
      <trkpt lat="44.07891" lon="0.55734">
        <ele>194</ele>
        <time>2025-07-24T13:43:29.289Z</time>
      </trkpt>
      <trkpt lat="44.07892" lon="0.55732">
        <ele>194</ele>
        <time>2025-07-24T13:43:30.289Z</time>
      </trkpt>
      <trkpt lat="44.07892" lon="0.55731">
        <ele>194</ele>
        <time>2025-07-24T13:43:31.289Z</time>
      </trkpt>
      <trkpt lat="44.07893" lon="0.55729">
        <ele>194</ele>
        <time>2025-07-24T13:43:32.289Z</time>
      </trkpt>
      <trkpt lat="44.07893" lon="0.55728">
        <ele>194</ele>
        <time>2025-07-24T13:43:33.289Z</time>
      </trkpt>
      <trkpt lat="44.07894" lon="0.55727">
        <ele>194</ele>
        <time>2025-07-24T13:43:34.289Z</time>
      </trkpt>
      <trkpt lat="44.07894" lon="0.55725">
        <ele>195</ele>
        <time>2025-07-24T13:43:35.289Z</time>
      </trkpt>
      <trkpt lat="44.07895" lon="0.55723">
        <ele>195</ele>
        <time>2025-07-24T13:43:36.289Z</time>
      </trkpt>
      <trkpt lat="44.07895" lon="0.55722">
        <ele>195</ele>
        <time>2025-07-24T13:43:37.289Z</time>
      </trkpt>
      <trkpt lat="44.07896" lon="0.5572">
        <ele>195</ele>
        <time>2025-07-24T13:43:38.289Z</time>
      </trkpt>
      <trkpt lat="44.07896" lon="0.55719">
        <ele>194</ele>
        <time>2025-07-24T13:43:39.289Z</time>
      </trkpt>
      <trkpt lat="44.07896" lon="0.55717">
        <ele>194</ele>
        <time>2025-07-24T13:43:40.289Z</time>
      </trkpt>
      <trkpt lat="44.07896" lon="0.55716">
        <ele>194</ele>
        <time>2025-07-24T13:43:41.289Z</time>
      </trkpt>
      <trkpt lat="44.07896" lon="0.55715">
        <ele>193</ele>
        <time>2025-07-24T13:43:42.289Z</time>
      </trkpt>
      <trkpt lat="44.07897" lon="0.55713">
        <ele>193</ele>
        <time>2025-07-24T13:43:43.289Z</time>
      </trkpt>
      <trkpt lat="44.07897" lon="0.55711">
        <ele>193</ele>
        <time>2025-07-24T13:43:44.289Z</time>
      </trkpt>
      <trkpt lat="44.07898" lon="0.5571">
        <ele>193</ele>
        <time>2025-07-24T13:43:45.289Z</time>
      </trkpt>
      <trkpt lat="44.07898" lon="0.55708">
        <ele>193</ele>
        <time>2025-07-24T13:43:46.289Z</time>
      </trkpt>
      <trkpt lat="44.07899" lon="0.55707">
        <ele>193</ele>
        <time>2025-07-24T13:43:47.289Z</time>
      </trkpt>
      <trkpt lat="44.07899" lon="0.55706">
        <ele>192</ele>
        <time>2025-07-24T13:43:48.289Z</time>
      </trkpt>
      <trkpt lat="44.079" lon="0.55704">
        <ele>192</ele>
        <time>2025-07-24T13:43:49.289Z</time>
      </trkpt>
      <trkpt lat="44.079" lon="0.55703">
        <ele>192</ele>
        <time>2025-07-24T13:43:50.289Z</time>
      </trkpt>
      <trkpt lat="44.07901" lon="0.55701">
        <ele>191</ele>
        <time>2025-07-24T13:43:51.289Z</time>
      </trkpt>
      <trkpt lat="44.07901" lon="0.55699">
        <ele>191</ele>
        <time>2025-07-24T13:43:52.289Z</time>
      </trkpt>
      <trkpt lat="44.07902" lon="0.55697">
        <ele>191</ele>
        <time>2025-07-24T13:43:53.289Z</time>
      </trkpt>
      <trkpt lat="44.07902" lon="0.55695">
        <ele>191</ele>
        <time>2025-07-24T13:43:54.289Z</time>
      </trkpt>
      <trkpt lat="44.07903" lon="0.55693">
        <ele>191</ele>
        <time>2025-07-24T13:43:55.289Z</time>
      </trkpt>
      <trkpt lat="44.07903" lon="0.55691">
        <ele>191</ele>
        <time>2025-07-24T13:43:56.289Z</time>
      </trkpt>
      <trkpt lat="44.07904" lon="0.5569">
        <ele>191</ele>
        <time>2025-07-24T13:43:57.289Z</time>
      </trkpt>
      <trkpt lat="44.07904" lon="0.55688">
        <ele>191</ele>
        <time>2025-07-24T13:43:58.289Z</time>
      </trkpt>
      <trkpt lat="44.07904" lon="0.55686">
        <ele>190</ele>
        <time>2025-07-24T13:43:59.289Z</time>
      </trkpt>
      <trkpt lat="44.07904" lon="0.55684">
        <ele>190</ele>
        <time>2025-07-24T13:44:00.289Z</time>
      </trkpt>
      <trkpt lat="44.07905" lon="0.55682">
        <ele>190</ele>
        <time>2025-07-24T13:44:01.289Z</time>
      </trkpt>
      <trkpt lat="44.07905" lon="0.55681">
        <ele>190</ele>
        <time>2025-07-24T13:44:02.289Z</time>
      </trkpt>
      <trkpt lat="44.07905" lon="0.55679">
        <ele>191</ele>
        <time>2025-07-24T13:44:03.289Z</time>
      </trkpt>
      <trkpt lat="44.07905" lon="0.55677">
        <ele>191</ele>
        <time>2025-07-24T13:44:04.289Z</time>
      </trkpt>
      <trkpt lat="44.07906" lon="0.55676">
        <ele>191</ele>
        <time>2025-07-24T13:44:05.289Z</time>
      </trkpt>
      <trkpt lat="44.07906" lon="0.55674">
        <ele>191</ele>
        <time>2025-07-24T13:44:06.289Z</time>
      </trkpt>
      <trkpt lat="44.07906" lon="0.55673">
        <ele>191</ele>
        <time>2025-07-24T13:44:07.289Z</time>
      </trkpt>
      <trkpt lat="44.07907" lon="0.55671">
        <ele>191</ele>
        <time>2025-07-24T13:44:08.289Z</time>
      </trkpt>
      <trkpt lat="44.07907" lon="0.5567">
        <ele>192</ele>
        <time>2025-07-24T13:44:09.289Z</time>
      </trkpt>
      <trkpt lat="44.07907" lon="0.55668">
        <ele>192</ele>
        <time>2025-07-24T13:44:10.289Z</time>
      </trkpt>
      <trkpt lat="44.07907" lon="0.55667">
        <ele>192</ele>
        <time>2025-07-24T13:44:11.289Z</time>
      </trkpt>
      <trkpt lat="44.07908" lon="0.55665">
        <ele>192</ele>
        <time>2025-07-24T13:44:12.289Z</time>
      </trkpt>
      <trkpt lat="44.07908" lon="0.55664">
        <ele>192</ele>
        <time>2025-07-24T13:44:13.289Z</time>
      </trkpt>
      <trkpt lat="44.07908" lon="0.55662">
        <ele>192</ele>
        <time>2025-07-24T13:44:14.289Z</time>
      </trkpt>
      <trkpt lat="44.07908" lon="0.5566">
        <ele>192</ele>
        <time>2025-07-24T13:44:15.289Z</time>
      </trkpt>
      <trkpt lat="44.07909" lon="0.55659">
        <ele>192</ele>
        <time>2025-07-24T13:44:16.289Z</time>
      </trkpt>
      <trkpt lat="44.07909" lon="0.55657">
        <ele>192</ele>
        <time>2025-07-24T13:44:17.289Z</time>
      </trkpt>
      <trkpt lat="44.07909" lon="0.55655">
        <ele>192</ele>
        <time>2025-07-24T13:44:18.289Z</time>
      </trkpt>
      <trkpt lat="44.07909" lon="0.55654">
        <ele>191</ele>
        <time>2025-07-24T13:44:19.289Z</time>
      </trkpt>
      <trkpt lat="44.07909" lon="0.55652">
        <ele>191</ele>
        <time>2025-07-24T13:44:20.289Z</time>
      </trkpt>
      <trkpt lat="44.0791" lon="0.5565">
        <ele>192</ele>
        <time>2025-07-24T13:44:21.289Z</time>
      </trkpt>
      <trkpt lat="44.0791" lon="0.55648">
        <ele>192</ele>
        <time>2025-07-24T13:44:22.289Z</time>
      </trkpt>
      <trkpt lat="44.07911" lon="0.55647">
        <ele>192</ele>
        <time>2025-07-24T13:44:23.289Z</time>
      </trkpt>
      <trkpt lat="44.07911" lon="0.55645">
        <ele>192</ele>
        <time>2025-07-24T13:44:24.289Z</time>
      </trkpt>
      <trkpt lat="44.07911" lon="0.55643">
        <ele>192</ele>
        <time>2025-07-24T13:44:25.289Z</time>
      </trkpt>
      <trkpt lat="44.07912" lon="0.55641">
        <ele>192</ele>
        <time>2025-07-24T13:44:26.289Z</time>
      </trkpt>
      <trkpt lat="44.07912" lon="0.5564">
        <ele>191</ele>
        <time>2025-07-24T13:44:27.289Z</time>
      </trkpt>
      <trkpt lat="44.07912" lon="0.55639">
        <ele>191</ele>
        <time>2025-07-24T13:44:28.289Z</time>
      </trkpt>
      <trkpt lat="44.07913" lon="0.55637">
        <ele>191</ele>
        <time>2025-07-24T13:44:29.289Z</time>
      </trkpt>
      <trkpt lat="44.07914" lon="0.55636">
        <ele>191</ele>
        <time>2025-07-24T13:44:30.289Z</time>
      </trkpt>
      <trkpt lat="44.07914" lon="0.55635">
        <ele>191</ele>
        <time>2025-07-24T13:44:31.289Z</time>
      </trkpt>
      <trkpt lat="44.07915" lon="0.55633">
        <ele>191</ele>
        <time>2025-07-24T13:44:32.289Z</time>
      </trkpt>
      <trkpt lat="44.07915" lon="0.55631">
        <ele>191</ele>
        <time>2025-07-24T13:44:33.289Z</time>
      </trkpt>
      <trkpt lat="44.07915" lon="0.55629">
        <ele>191</ele>
        <time>2025-07-24T13:44:34.289Z</time>
      </trkpt>
      <trkpt lat="44.07916" lon="0.55628">
        <ele>191</ele>
        <time>2025-07-24T13:44:35.289Z</time>
      </trkpt>
      <trkpt lat="44.07916" lon="0.55626">
        <ele>191</ele>
        <time>2025-07-24T13:44:36.289Z</time>
      </trkpt>
      <trkpt lat="44.07917" lon="0.55624">
        <ele>190</ele>
        <time>2025-07-24T13:44:37.289Z</time>
      </trkpt>
      <trkpt lat="44.07917" lon="0.55622">
        <ele>190</ele>
        <time>2025-07-24T13:44:38.289Z</time>
      </trkpt>
      <trkpt lat="44.07918" lon="0.55621">
        <ele>190</ele>
        <time>2025-07-24T13:44:39.289Z</time>
      </trkpt>
      <trkpt lat="44.07918" lon="0.55619">
        <ele>190</ele>
        <time>2025-07-24T13:44:40.289Z</time>
      </trkpt>
      <trkpt lat="44.07918" lon="0.55618">
        <ele>190</ele>
        <time>2025-07-24T13:44:41.289Z</time>
      </trkpt>
      <trkpt lat="44.07919" lon="0.55617">
        <ele>189</ele>
        <time>2025-07-24T13:44:42.289Z</time>
      </trkpt>
      <trkpt lat="44.0792" lon="0.55616">
        <ele>189</ele>
        <time>2025-07-24T13:44:43.289Z</time>
      </trkpt>
      <trkpt lat="44.07921" lon="0.55615">
        <ele>189</ele>
        <time>2025-07-24T13:44:44.289Z</time>
      </trkpt>
      <trkpt lat="44.07921" lon="0.55613">
        <ele>190</ele>
        <time>2025-07-24T13:44:45.289Z</time>
      </trkpt>
      <trkpt lat="44.07922" lon="0.55612">
        <ele>190</ele>
        <time>2025-07-24T13:44:46.289Z</time>
      </trkpt>
      <trkpt lat="44.07922" lon="0.55611">
        <ele>190</ele>
        <time>2025-07-24T13:44:47.289Z</time>
      </trkpt>
      <trkpt lat="44.07923" lon="0.55609">
        <ele>190</ele>
        <time>2025-07-24T13:44:48.289Z</time>
      </trkpt>
      <trkpt lat="44.07923" lon="0.55607">
        <ele>190</ele>
        <time>2025-07-24T13:44:49.289Z</time>
      </trkpt>
      <trkpt lat="44.07924" lon="0.55605">
        <ele>190</ele>
        <time>2025-07-24T13:44:50.289Z</time>
      </trkpt>
      <trkpt lat="44.07924" lon="0.55603">
        <ele>190</ele>
        <time>2025-07-24T13:44:51.289Z</time>
      </trkpt>
      <trkpt lat="44.07925" lon="0.55602">
        <ele>190</ele>
        <time>2025-07-24T13:44:52.289Z</time>
      </trkpt>
      <trkpt lat="44.07925" lon="0.556">
        <ele>190</ele>
        <time>2025-07-24T13:44:53.289Z</time>
      </trkpt>
      <trkpt lat="44.07925" lon="0.55598">
        <ele>190</ele>
        <time>2025-07-24T13:44:54.289Z</time>
      </trkpt>
      <trkpt lat="44.07925" lon="0.55597">
        <ele>190</ele>
        <time>2025-07-24T13:44:55.289Z</time>
      </trkpt>
      <trkpt lat="44.07926" lon="0.55595">
        <ele>190</ele>
        <time>2025-07-24T13:44:56.289Z</time>
      </trkpt>
      <trkpt lat="44.07926" lon="0.55594">
        <ele>190</ele>
        <time>2025-07-24T13:44:57.289Z</time>
      </trkpt>
      <trkpt lat="44.07927" lon="0.55592">
        <ele>190</ele>
        <time>2025-07-24T13:44:58.289Z</time>
      </trkpt>
      <trkpt lat="44.07927" lon="0.55591">
        <ele>191</ele>
        <time>2025-07-24T13:44:59.289Z</time>
      </trkpt>
      <trkpt lat="44.07928" lon="0.55589">
        <ele>191</ele>
        <time>2025-07-24T13:45:00.289Z</time>
      </trkpt>
      <trkpt lat="44.07928" lon="0.55587">
        <ele>191</ele>
        <time>2025-07-24T13:45:01.289Z</time>
      </trkpt>
      <trkpt lat="44.07929" lon="0.55585">
        <ele>191</ele>
        <time>2025-07-24T13:45:02.289Z</time>
      </trkpt>
      <trkpt lat="44.0793" lon="0.55584">
        <ele>191</ele>
        <time>2025-07-24T13:45:03.289Z</time>
      </trkpt>
      <trkpt lat="44.0793" lon="0.55583">
        <ele>190</ele>
        <time>2025-07-24T13:45:04.289Z</time>
      </trkpt>
      <trkpt lat="44.07931" lon="0.55581">
        <ele>190</ele>
        <time>2025-07-24T13:45:05.289Z</time>
      </trkpt>
      <trkpt lat="44.07931" lon="0.5558">
        <ele>190</ele>
        <time>2025-07-24T13:45:06.289Z</time>
      </trkpt>
      <trkpt lat="44.07932" lon="0.55579">
        <ele>190</ele>
        <time>2025-07-24T13:45:07.289Z</time>
      </trkpt>
      <trkpt lat="44.07932" lon="0.55577">
        <ele>190</ele>
        <time>2025-07-24T13:45:08.289Z</time>
      </trkpt>
      <trkpt lat="44.07932" lon="0.55575">
        <ele>190</ele>
        <time>2025-07-24T13:45:09.289Z</time>
      </trkpt>
      <trkpt lat="44.07933" lon="0.55574">
        <ele>190</ele>
        <time>2025-07-24T13:45:10.289Z</time>
      </trkpt>
      <trkpt lat="44.07933" lon="0.55573">
        <ele>190</ele>
        <time>2025-07-24T13:45:11.289Z</time>
      </trkpt>
      <trkpt lat="44.07934" lon="0.55571">
        <ele>189</ele>
        <time>2025-07-24T13:45:12.289Z</time>
      </trkpt>
      <trkpt lat="44.07935" lon="0.5557">
        <ele>189</ele>
        <time>2025-07-24T13:45:13.289Z</time>
      </trkpt>
      <trkpt lat="44.07935" lon="0.55569">
        <ele>189</ele>
        <time>2025-07-24T13:45:14.289Z</time>
      </trkpt>
      <trkpt lat="44.07936" lon="0.55567">
        <ele>189</ele>
        <time>2025-07-24T13:45:15.289Z</time>
      </trkpt>
      <trkpt lat="44.07937" lon="0.55565">
        <ele>189</ele>
        <time>2025-07-24T13:45:16.289Z</time>
      </trkpt>
      <trkpt lat="44.07937" lon="0.55564">
        <ele>189</ele>
        <time>2025-07-24T13:45:17.289Z</time>
      </trkpt>
      <trkpt lat="44.07938" lon="0.55562">
        <ele>190</ele>
        <time>2025-07-24T13:45:18.289Z</time>
      </trkpt>
      <trkpt lat="44.07938" lon="0.55561">
        <ele>190</ele>
        <time>2025-07-24T13:45:19.289Z</time>
      </trkpt>
      <trkpt lat="44.07939" lon="0.55559">
        <ele>190</ele>
        <time>2025-07-24T13:45:20.289Z</time>
      </trkpt>
      <trkpt lat="44.07939" lon="0.55558">
        <ele>190</ele>
        <time>2025-07-24T13:45:21.289Z</time>
      </trkpt>
      <trkpt lat="44.0794" lon="0.55556">
        <ele>190</ele>
        <time>2025-07-24T13:45:22.289Z</time>
      </trkpt>
      <trkpt lat="44.07941" lon="0.55555">
        <ele>190</ele>
        <time>2025-07-24T13:45:23.289Z</time>
      </trkpt>
      <trkpt lat="44.07941" lon="0.55553">
        <ele>191</ele>
        <time>2025-07-24T13:45:24.289Z</time>
      </trkpt>
      <trkpt lat="44.07942" lon="0.55552">
        <ele>191</ele>
        <time>2025-07-24T13:45:25.289Z</time>
      </trkpt>
      <trkpt lat="44.07943" lon="0.55551">
        <ele>191</ele>
        <time>2025-07-24T13:45:26.289Z</time>
      </trkpt>
      <trkpt lat="44.07943" lon="0.5555">
        <ele>191</ele>
        <time>2025-07-24T13:45:27.289Z</time>
      </trkpt>
      <trkpt lat="44.07944" lon="0.55549">
        <ele>191</ele>
        <time>2025-07-24T13:45:28.289Z</time>
      </trkpt>
      <trkpt lat="44.07944" lon="0.55548">
        <ele>191</ele>
        <time>2025-07-24T13:45:29.289Z</time>
      </trkpt>
      <trkpt lat="44.07945" lon="0.55546">
        <ele>191</ele>
        <time>2025-07-24T13:45:30.289Z</time>
      </trkpt>
      <trkpt lat="44.07945" lon="0.55545">
        <ele>191</ele>
        <time>2025-07-24T13:45:31.289Z</time>
      </trkpt>
      <trkpt lat="44.07946" lon="0.55543">
        <ele>191</ele>
        <time>2025-07-24T13:45:32.289Z</time>
      </trkpt>
      <trkpt lat="44.07946" lon="0.55541">
        <ele>191</ele>
        <time>2025-07-24T13:45:33.289Z</time>
      </trkpt>
      <trkpt lat="44.07947" lon="0.5554">
        <ele>192</ele>
        <time>2025-07-24T13:45:34.289Z</time>
      </trkpt>
      <trkpt lat="44.07948" lon="0.55539">
        <ele>192</ele>
        <time>2025-07-24T13:45:35.289Z</time>
      </trkpt>
      <trkpt lat="44.07949" lon="0.55537">
        <ele>192</ele>
        <time>2025-07-24T13:45:36.289Z</time>
      </trkpt>
      <trkpt lat="44.07949" lon="0.55536">
        <ele>191</ele>
        <time>2025-07-24T13:45:37.289Z</time>
      </trkpt>
      <trkpt lat="44.0795" lon="0.55534">
        <ele>191</ele>
        <time>2025-07-24T13:45:38.289Z</time>
      </trkpt>
      <trkpt lat="44.07951" lon="0.55532">
        <ele>191</ele>
        <time>2025-07-24T13:45:39.290Z</time>
      </trkpt>
      <trkpt lat="44.07951" lon="0.5553">
        <ele>191</ele>
        <time>2025-07-24T13:45:40.289Z</time>
      </trkpt>
      <trkpt lat="44.07951" lon="0.55529">
        <ele>191</ele>
        <time>2025-07-24T13:45:41.289Z</time>
      </trkpt>
      <trkpt lat="44.07952" lon="0.55527">
        <ele>192</ele>
        <time>2025-07-24T13:45:42.289Z</time>
      </trkpt>
      <trkpt lat="44.07952" lon="0.55526">
        <ele>192</ele>
        <time>2025-07-24T13:45:43.289Z</time>
      </trkpt>
      <trkpt lat="44.07952" lon="0.55525">
        <ele>192</ele>
        <time>2025-07-24T13:45:44.289Z</time>
      </trkpt>
      <trkpt lat="44.07953" lon="0.55524">
        <ele>192</ele>
        <time>2025-07-24T13:45:45.289Z</time>
      </trkpt>
      <trkpt lat="44.07954" lon="0.55523">
        <ele>192</ele>
        <time>2025-07-24T13:45:46.289Z</time>
      </trkpt>
      <trkpt lat="44.07954" lon="0.55521">
        <ele>192</ele>
        <time>2025-07-24T13:45:47.289Z</time>
      </trkpt>
      <trkpt lat="44.07955" lon="0.5552">
        <ele>192</ele>
        <time>2025-07-24T13:45:48.289Z</time>
      </trkpt>
      <trkpt lat="44.07955" lon="0.55519">
        <ele>191</ele>
        <time>2025-07-24T13:45:49.289Z</time>
      </trkpt>
      <trkpt lat="44.07956" lon="0.55518">
        <ele>191</ele>
        <time>2025-07-24T13:45:50.289Z</time>
      </trkpt>
      <trkpt lat="44.07956" lon="0.55517">
        <ele>191</ele>
        <time>2025-07-24T13:45:51.289Z</time>
      </trkpt>
      <trkpt lat="44.07957" lon="0.55515">
        <ele>191</ele>
        <time>2025-07-24T13:45:52.289Z</time>
      </trkpt>
      <trkpt lat="44.07958" lon="0.55513">
        <ele>191</ele>
        <time>2025-07-24T13:45:53.289Z</time>
      </trkpt>
      <trkpt lat="44.07958" lon="0.55512">
        <ele>190</ele>
        <time>2025-07-24T13:45:54.289Z</time>
      </trkpt>
      <trkpt lat="44.07958" lon="0.5551">
        <ele>190</ele>
        <time>2025-07-24T13:45:55.289Z</time>
      </trkpt>
      <trkpt lat="44.07959" lon="0.55508">
        <ele>190</ele>
        <time>2025-07-24T13:45:56.289Z</time>
      </trkpt>
      <trkpt lat="44.0796" lon="0.55506">
        <ele>190</ele>
        <time>2025-07-24T13:45:57.289Z</time>
      </trkpt>
      <trkpt lat="44.0796" lon="0.55504">
        <ele>190</ele>
        <time>2025-07-24T13:45:58.289Z</time>
      </trkpt>
      <trkpt lat="44.07961" lon="0.55502">
        <ele>190</ele>
        <time>2025-07-24T13:45:59.289Z</time>
      </trkpt>
      <trkpt lat="44.07961" lon="0.55501">
        <ele>190</ele>
        <time>2025-07-24T13:46:00.289Z</time>
      </trkpt>
      <trkpt lat="44.07962" lon="0.555">
        <ele>190</ele>
        <time>2025-07-24T13:46:01.289Z</time>
      </trkpt>
      <trkpt lat="44.07962" lon="0.55498">
        <ele>190</ele>
        <time>2025-07-24T13:46:02.289Z</time>
      </trkpt>
      <trkpt lat="44.07962" lon="0.55497">
        <ele>190</ele>
        <time>2025-07-24T13:46:03.289Z</time>
      </trkpt>
      <trkpt lat="44.07961" lon="0.55495">
        <ele>190</ele>
        <time>2025-07-24T13:46:04.289Z</time>
      </trkpt>
      <trkpt lat="44.07961" lon="0.55494">
        <ele>190</ele>
        <time>2025-07-24T13:46:05.289Z</time>
      </trkpt>
      <trkpt lat="44.07961" lon="0.55493">
        <ele>189</ele>
        <time>2025-07-24T13:46:06.289Z</time>
      </trkpt>
      <trkpt lat="44.07961" lon="0.55492">
        <ele>189</ele>
        <time>2025-07-24T13:46:07.289Z</time>
      </trkpt>
      <trkpt lat="44.0796" lon="0.55492">
        <ele>189</ele>
        <time>2025-07-24T13:46:08.289Z</time>
      </trkpt>
      <trkpt lat="44.07959" lon="0.55491">
        <ele>189</ele>
        <time>2025-07-24T13:46:09.289Z</time>
      </trkpt>
      <trkpt lat="44.07958" lon="0.55492">
        <ele>189</ele>
        <time>2025-07-24T13:46:10.289Z</time>
      </trkpt>
      <trkpt lat="44.07957" lon="0.55492">
        <ele>189</ele>
        <time>2025-07-24T13:46:11.289Z</time>
      </trkpt>
      <trkpt lat="44.07956" lon="0.55492">
        <ele>188</ele>
        <time>2025-07-24T13:46:12.289Z</time>
      </trkpt>
      <trkpt lat="44.07956" lon="0.55492">
        <ele>188</ele>
        <time>2025-07-24T13:46:13.289Z</time>
      </trkpt>
      <trkpt lat="44.07955" lon="0.55492">
        <ele>188</ele>
        <time>2025-07-24T13:46:14.289Z</time>
      </trkpt>
      <trkpt lat="44.07954" lon="0.55492">
        <ele>188</ele>
        <time>2025-07-24T13:46:15.289Z</time>
      </trkpt>
      <trkpt lat="44.07954" lon="0.55492">
        <ele>188</ele>
        <time>2025-07-24T13:46:16.289Z</time>
      </trkpt>
      <trkpt lat="44.07953" lon="0.55491">
        <ele>188</ele>
        <time>2025-07-24T13:46:17.289Z</time>
      </trkpt>
      <trkpt lat="44.07952" lon="0.55491">
        <ele>189</ele>
        <time>2025-07-24T13:46:18.289Z</time>
      </trkpt>
      <trkpt lat="44.07951" lon="0.55491">
        <ele>189</ele>
        <time>2025-07-24T13:46:19.289Z</time>
      </trkpt>
      <trkpt lat="44.07951" lon="0.5549">
        <ele>189</ele>
        <time>2025-07-24T13:46:20.289Z</time>
      </trkpt>
      <trkpt lat="44.0795" lon="0.5549">
        <ele>190</ele>
        <time>2025-07-24T13:46:21.289Z</time>
      </trkpt>
      <trkpt lat="44.07949" lon="0.5549">
        <ele>190</ele>
        <time>2025-07-24T13:46:22.289Z</time>
      </trkpt>
      <trkpt lat="44.07948" lon="0.5549">
        <ele>190</ele>
        <time>2025-07-24T13:46:23.289Z</time>
      </trkpt>
      <trkpt lat="44.07947" lon="0.55489">
        <ele>191</ele>
        <time>2025-07-24T13:46:24.289Z</time>
      </trkpt>
      <trkpt lat="44.07946" lon="0.55489">
        <ele>191</ele>
        <time>2025-07-24T13:46:25.289Z</time>
      </trkpt>
      <trkpt lat="44.07945" lon="0.55489">
        <ele>191</ele>
        <time>2025-07-24T13:46:26.289Z</time>
      </trkpt>
      <trkpt lat="44.07944" lon="0.55488">
        <ele>192</ele>
        <time>2025-07-24T13:46:27.289Z</time>
      </trkpt>
      <trkpt lat="44.07943" lon="0.55488">
        <ele>192</ele>
        <time>2025-07-24T13:46:28.289Z</time>
      </trkpt>
      <trkpt lat="44.07941" lon="0.55488">
        <ele>192</ele>
        <time>2025-07-24T13:46:29.289Z</time>
      </trkpt>
      <trkpt lat="44.0794" lon="0.55488">
        <ele>192</ele>
        <time>2025-07-24T13:46:30.289Z</time>
      </trkpt>
      <trkpt lat="44.07939" lon="0.55487">
        <ele>192</ele>
        <time>2025-07-24T13:46:31.289Z</time>
      </trkpt>
      <trkpt lat="44.07938" lon="0.55487">
        <ele>192</ele>
        <time>2025-07-24T13:46:32.289Z</time>
      </trkpt>
      <trkpt lat="44.07937" lon="0.55486">
        <ele>192</ele>
        <time>2025-07-24T13:46:33.289Z</time>
      </trkpt>
      <trkpt lat="44.07936" lon="0.55486">
        <ele>192</ele>
        <time>2025-07-24T13:46:34.289Z</time>
      </trkpt>
      <trkpt lat="44.07936" lon="0.55486">
        <ele>192</ele>
        <time>2025-07-24T13:46:35.289Z</time>
      </trkpt>
      <trkpt lat="44.07935" lon="0.55486">
        <ele>193</ele>
        <time>2025-07-24T13:46:36.289Z</time>
      </trkpt>
      <trkpt lat="44.07935" lon="0.55486">
        <ele>193</ele>
        <time>2025-07-24T13:46:37.289Z</time>
      </trkpt>
      <trkpt lat="44.07935" lon="0.55486">
        <ele>193</ele>
        <time>2025-07-24T13:46:38.289Z</time>
      </trkpt>
      <trkpt lat="44.07935" lon="0.55486">
        <ele>193</ele>
        <time>2025-07-24T13:46:39.289Z</time>
      </trkpt>
      <trkpt lat="44.07935" lon="0.55486">
        <ele>192</ele>
        <time>2025-07-24T13:46:40.289Z</time>
      </trkpt>
      <trkpt lat="44.07935" lon="0.55486">
        <ele>192</ele>
        <time>2025-07-24T13:46:41.289Z</time>
      </trkpt>
      <trkpt lat="44.07935" lon="0.55486">
        <ele>191</ele>
        <time>2025-07-24T13:46:42.289Z</time>
      </trkpt>
      <trkpt lat="44.07935" lon="0.55486">
        <ele>191</ele>
        <time>2025-07-24T13:46:43.289Z</time>
      </trkpt>
      <trkpt lat="44.07935" lon="0.55485">
        <ele>191</ele>
        <time>2025-07-24T13:46:44.289Z</time>
      </trkpt>
      <trkpt lat="44.07935" lon="0.55485">
        <ele>190</ele>
        <time>2025-07-24T13:46:45.289Z</time>
      </trkpt>
      <trkpt lat="44.07935" lon="0.55484">
        <ele>190</ele>
        <time>2025-07-24T13:46:46.289Z</time>
      </trkpt>
      <trkpt lat="44.07935" lon="0.55484">
        <ele>190</ele>
        <time>2025-07-24T13:46:47.289Z</time>
      </trkpt>
      <trkpt lat="44.07935" lon="0.55484">
        <ele>190</ele>
        <time>2025-07-24T13:46:48.289Z</time>
      </trkpt>
      <trkpt lat="44.07935" lon="0.55484">
        <ele>190</ele>
        <time>2025-07-24T13:46:49.289Z</time>
      </trkpt>
      <trkpt lat="44.07935" lon="0.55484">
        <ele>190</ele>
        <time>2025-07-24T13:46:50.289Z</time>
      </trkpt>
      <trkpt lat="44.07935" lon="0.55484">
        <ele>190</ele>
        <time>2025-07-24T13:46:51.289Z</time>
      </trkpt>
      <trkpt lat="44.07935" lon="0.55484">
        <ele>190</ele>
        <time>2025-07-24T13:46:52.289Z</time>
      </trkpt>
      <trkpt lat="44.07935" lon="0.55484">
        <ele>190</ele>
        <time>2025-07-24T13:46:53.289Z</time>
      </trkpt>
      <trkpt lat="44.07934" lon="0.55484">
        <ele>190</ele>
        <time>2025-07-24T13:46:54.289Z</time>
      </trkpt>
      <trkpt lat="44.07933" lon="0.55485">
        <ele>190</ele>
        <time>2025-07-24T13:46:55.289Z</time>
      </trkpt>
      <trkpt lat="44.07932" lon="0.55485">
        <ele>190</ele>
        <time>2025-07-24T13:46:56.289Z</time>
      </trkpt>
      <trkpt lat="44.07931" lon="0.55485">
        <ele>190</ele>
        <time>2025-07-24T13:46:57.289Z</time>
      </trkpt>
      <trkpt lat="44.0793" lon="0.55485">
        <ele>190</ele>
        <time>2025-07-24T13:46:58.289Z</time>
      </trkpt>
      <trkpt lat="44.07929" lon="0.55485">
        <ele>190</ele>
        <time>2025-07-24T13:46:59.289Z</time>
      </trkpt>
      <trkpt lat="44.07928" lon="0.55485">
        <ele>190</ele>
        <time>2025-07-24T13:47:00.289Z</time>
      </trkpt>
      <trkpt lat="44.07927" lon="0.55484">
        <ele>191</ele>
        <time>2025-07-24T13:47:01.289Z</time>
      </trkpt>
      <trkpt lat="44.07926" lon="0.55484">
        <ele>191</ele>
        <time>2025-07-24T13:47:02.289Z</time>
      </trkpt>
      <trkpt lat="44.07925" lon="0.55484">
        <ele>191</ele>
        <time>2025-07-24T13:47:03.289Z</time>
      </trkpt>
      <trkpt lat="44.07924" lon="0.55483">
        <ele>192</ele>
        <time>2025-07-24T13:47:04.289Z</time>
      </trkpt>
      <trkpt lat="44.07923" lon="0.55483">
        <ele>192</ele>
        <time>2025-07-24T13:47:05.289Z</time>
      </trkpt>
      <trkpt lat="44.07922" lon="0.55483">
        <ele>192</ele>
        <time>2025-07-24T13:47:06.289Z</time>
      </trkpt>
      <trkpt lat="44.07921" lon="0.55483">
        <ele>192</ele>
        <time>2025-07-24T13:47:07.289Z</time>
      </trkpt>
      <trkpt lat="44.0792" lon="0.55482">
        <ele>192</ele>
        <time>2025-07-24T13:47:08.289Z</time>
      </trkpt>
      <trkpt lat="44.07919" lon="0.55482">
        <ele>192</ele>
        <time>2025-07-24T13:47:09.289Z</time>
      </trkpt>
      <trkpt lat="44.07918" lon="0.55482">
        <ele>192</ele>
        <time>2025-07-24T13:47:10.289Z</time>
      </trkpt>
      <trkpt lat="44.07916" lon="0.55482">
        <ele>192</ele>
        <time>2025-07-24T13:47:11.289Z</time>
      </trkpt>
      <trkpt lat="44.07915" lon="0.55481">
        <ele>193</ele>
        <time>2025-07-24T13:47:12.290Z</time>
      </trkpt>
      <trkpt lat="44.07913" lon="0.55481">
        <ele>193</ele>
        <time>2025-07-24T13:47:13.289Z</time>
      </trkpt>
      <trkpt lat="44.07912" lon="0.55481">
        <ele>193</ele>
        <time>2025-07-24T13:47:14.289Z</time>
      </trkpt>
      <trkpt lat="44.0791" lon="0.55481">
        <ele>193</ele>
        <time>2025-07-24T13:47:15.289Z</time>
      </trkpt>
      <trkpt lat="44.07909" lon="0.55481">
        <ele>193</ele>
        <time>2025-07-24T13:47:16.289Z</time>
      </trkpt>
      <trkpt lat="44.07907" lon="0.5548">
        <ele>193</ele>
        <time>2025-07-24T13:47:17.289Z</time>
      </trkpt>
      <trkpt lat="44.07906" lon="0.5548">
        <ele>193</ele>
        <time>2025-07-24T13:47:18.289Z</time>
      </trkpt>
      <trkpt lat="44.07905" lon="0.5548">
        <ele>193</ele>
        <time>2025-07-24T13:47:19.289Z</time>
      </trkpt>
      <trkpt lat="44.07904" lon="0.5548">
        <ele>193</ele>
        <time>2025-07-24T13:47:20.289Z</time>
      </trkpt>
      <trkpt lat="44.07903" lon="0.5548">
        <ele>193</ele>
        <time>2025-07-24T13:47:21.289Z</time>
      </trkpt>
      <trkpt lat="44.07902" lon="0.55479">
        <ele>193</ele>
        <time>2025-07-24T13:47:22.289Z</time>
      </trkpt>
      <trkpt lat="44.07901" lon="0.55479">
        <ele>193</ele>
        <time>2025-07-24T13:47:23.289Z</time>
      </trkpt>
      <trkpt lat="44.07899" lon="0.55479">
        <ele>193</ele>
        <time>2025-07-24T13:47:24.289Z</time>
      </trkpt>
      <trkpt lat="44.07898" lon="0.55478">
        <ele>192</ele>
        <time>2025-07-24T13:47:25.289Z</time>
      </trkpt>
      <trkpt lat="44.07896" lon="0.55478">
        <ele>192</ele>
        <time>2025-07-24T13:47:26.289Z</time>
      </trkpt>
      <trkpt lat="44.07895" lon="0.55478">
        <ele>193</ele>
        <time>2025-07-24T13:47:27.289Z</time>
      </trkpt>
      <trkpt lat="44.07894" lon="0.55478">
        <ele>192</ele>
        <time>2025-07-24T13:47:28.289Z</time>
      </trkpt>
      <trkpt lat="44.07893" lon="0.55477">
        <ele>192</ele>
        <time>2025-07-24T13:47:29.289Z</time>
      </trkpt>
      <trkpt lat="44.07891" lon="0.55477">
        <ele>192</ele>
        <time>2025-07-24T13:47:30.289Z</time>
      </trkpt>
      <trkpt lat="44.0789" lon="0.55477">
        <ele>192</ele>
        <time>2025-07-24T13:47:31.289Z</time>
      </trkpt>
      <trkpt lat="44.07888" lon="0.55477">
        <ele>193</ele>
        <time>2025-07-24T13:47:32.289Z</time>
      </trkpt>
      <trkpt lat="44.07887" lon="0.55477">
        <ele>193</ele>
        <time>2025-07-24T13:47:33.289Z</time>
      </trkpt>
      <trkpt lat="44.07886" lon="0.55476">
        <ele>193</ele>
        <time>2025-07-24T13:47:34.289Z</time>
      </trkpt>
      <trkpt lat="44.07885" lon="0.55476">
        <ele>193</ele>
        <time>2025-07-24T13:47:35.289Z</time>
      </trkpt>
      <trkpt lat="44.07884" lon="0.55475">
        <ele>193</ele>
        <time>2025-07-24T13:47:36.289Z</time>
      </trkpt>
      <trkpt lat="44.07882" lon="0.55475">
        <ele>193</ele>
        <time>2025-07-24T13:47:37.289Z</time>
      </trkpt>
      <trkpt lat="44.07881" lon="0.55475">
        <ele>193</ele>
        <time>2025-07-24T13:47:38.289Z</time>
      </trkpt>
      <trkpt lat="44.0788" lon="0.55474">
        <ele>192</ele>
        <time>2025-07-24T13:47:39.289Z</time>
      </trkpt>
      <trkpt lat="44.07878" lon="0.55474">
        <ele>192</ele>
        <time>2025-07-24T13:47:40.289Z</time>
      </trkpt>
      <trkpt lat="44.07877" lon="0.55474">
        <ele>191</ele>
        <time>2025-07-24T13:47:41.289Z</time>
      </trkpt>
      <trkpt lat="44.07876" lon="0.55473">
        <ele>191</ele>
        <time>2025-07-24T13:47:42.289Z</time>
      </trkpt>
      <trkpt lat="44.07874" lon="0.55473">
        <ele>190</ele>
        <time>2025-07-24T13:47:43.289Z</time>
      </trkpt>
      <trkpt lat="44.07873" lon="0.55473">
        <ele>190</ele>
        <time>2025-07-24T13:47:44.289Z</time>
      </trkpt>
      <trkpt lat="44.07872" lon="0.55472">
        <ele>189</ele>
        <time>2025-07-24T13:47:45.289Z</time>
      </trkpt>
      <trkpt lat="44.0787" lon="0.55472">
        <ele>189</ele>
        <time>2025-07-24T13:47:46.289Z</time>
      </trkpt>
      <trkpt lat="44.07869" lon="0.55472">
        <ele>189</ele>
        <time>2025-07-24T13:47:47.289Z</time>
      </trkpt>
      <trkpt lat="44.07868" lon="0.55471">
        <ele>189</ele>
        <time>2025-07-24T13:47:48.289Z</time>
      </trkpt>
      <trkpt lat="44.07867" lon="0.55471">
        <ele>188</ele>
        <time>2025-07-24T13:47:49.289Z</time>
      </trkpt>
      <trkpt lat="44.07866" lon="0.55471">
        <ele>188</ele>
        <time>2025-07-24T13:47:50.289Z</time>
      </trkpt>
      <trkpt lat="44.07864" lon="0.5547">
        <ele>188</ele>
        <time>2025-07-24T13:47:51.289Z</time>
      </trkpt>
      <trkpt lat="44.07863" lon="0.5547">
        <ele>187</ele>
        <time>2025-07-24T13:47:52.289Z</time>
      </trkpt>
      <trkpt lat="44.07861" lon="0.5547">
        <ele>187</ele>
        <time>2025-07-24T13:47:53.289Z</time>
      </trkpt>
      <trkpt lat="44.0786" lon="0.5547">
        <ele>188</ele>
        <time>2025-07-24T13:47:54.289Z</time>
      </trkpt>
      <trkpt lat="44.07859" lon="0.5547">
        <ele>188</ele>
        <time>2025-07-24T13:47:55.289Z</time>
      </trkpt>
      <trkpt lat="44.07858" lon="0.5547">
        <ele>188</ele>
        <time>2025-07-24T13:47:56.289Z</time>
      </trkpt>
      <trkpt lat="44.07857" lon="0.5547">
        <ele>188</ele>
        <time>2025-07-24T13:47:57.289Z</time>
      </trkpt>
      <trkpt lat="44.07856" lon="0.5547">
        <ele>188</ele>
        <time>2025-07-24T13:47:58.289Z</time>
      </trkpt>
      <trkpt lat="44.07855" lon="0.5547">
        <ele>188</ele>
        <time>2025-07-24T13:47:59.289Z</time>
      </trkpt>
      <trkpt lat="44.07854" lon="0.55469">
        <ele>188</ele>
        <time>2025-07-24T13:48:00.289Z</time>
      </trkpt>
      <trkpt lat="44.07853" lon="0.55469">
        <ele>187</ele>
        <time>2025-07-24T13:48:01.289Z</time>
      </trkpt>
      <trkpt lat="44.07852" lon="0.55469">
        <ele>187</ele>
        <time>2025-07-24T13:48:02.289Z</time>
      </trkpt>
      <trkpt lat="44.07851" lon="0.55469">
        <ele>187</ele>
        <time>2025-07-24T13:48:03.289Z</time>
      </trkpt>
      <trkpt lat="44.0785" lon="0.55468">
        <ele>186</ele>
        <time>2025-07-24T13:48:04.289Z</time>
      </trkpt>
      <trkpt lat="44.07849" lon="0.55468">
        <ele>186</ele>
        <time>2025-07-24T13:48:05.289Z</time>
      </trkpt>
      <trkpt lat="44.07847" lon="0.55468">
        <ele>186</ele>
        <time>2025-07-24T13:48:06.289Z</time>
      </trkpt>
      <trkpt lat="44.07846" lon="0.55467">
        <ele>186</ele>
        <time>2025-07-24T13:48:07.289Z</time>
      </trkpt>
      <trkpt lat="44.07845" lon="0.55467">
        <ele>186</ele>
        <time>2025-07-24T13:48:08.289Z</time>
      </trkpt>
      <trkpt lat="44.07843" lon="0.55467">
        <ele>185</ele>
        <time>2025-07-24T13:48:09.289Z</time>
      </trkpt>
      <trkpt lat="44.07842" lon="0.55467">
        <ele>185</ele>
        <time>2025-07-24T13:48:10.289Z</time>
      </trkpt>
      <trkpt lat="44.07841" lon="0.55466">
        <ele>185</ele>
        <time>2025-07-24T13:48:11.289Z</time>
      </trkpt>
      <trkpt lat="44.0784" lon="0.55466">
        <ele>184</ele>
        <time>2025-07-24T13:48:12.289Z</time>
      </trkpt>
      <trkpt lat="44.07839" lon="0.55466">
        <ele>184</ele>
        <time>2025-07-24T13:48:13.289Z</time>
      </trkpt>
      <trkpt lat="44.07838" lon="0.55466">
        <ele>184</ele>
        <time>2025-07-24T13:48:14.289Z</time>
      </trkpt>
      <trkpt lat="44.07837" lon="0.55466">
        <ele>184</ele>
        <time>2025-07-24T13:48:15.289Z</time>
      </trkpt>
      <trkpt lat="44.07836" lon="0.55466">
        <ele>184</ele>
        <time>2025-07-24T13:48:16.289Z</time>
      </trkpt>
      <trkpt lat="44.07835" lon="0.55466">
        <ele>185</ele>
        <time>2025-07-24T13:48:17.289Z</time>
      </trkpt>
      <trkpt lat="44.07834" lon="0.55466">
        <ele>185</ele>
        <time>2025-07-24T13:48:18.289Z</time>
      </trkpt>
      <trkpt lat="44.07833" lon="0.55465">
        <ele>185</ele>
        <time>2025-07-24T13:48:19.289Z</time>
      </trkpt>
      <trkpt lat="44.07832" lon="0.55465">
        <ele>185</ele>
        <time>2025-07-24T13:48:20.289Z</time>
      </trkpt>
      <trkpt lat="44.0783" lon="0.55464">
        <ele>186</ele>
        <time>2025-07-24T13:48:21.289Z</time>
      </trkpt>
      <trkpt lat="44.07829" lon="0.55464">
        <ele>186</ele>
        <time>2025-07-24T13:48:22.289Z</time>
      </trkpt>
      <trkpt lat="44.07828" lon="0.55464">
        <ele>186</ele>
        <time>2025-07-24T13:48:23.289Z</time>
      </trkpt>
      <trkpt lat="44.07826" lon="0.55464">
        <ele>186</ele>
        <time>2025-07-24T13:48:24.289Z</time>
      </trkpt>
      <trkpt lat="44.07825" lon="0.55464">
        <ele>186</ele>
        <time>2025-07-24T13:48:25.289Z</time>
      </trkpt>
      <trkpt lat="44.07823" lon="0.55464">
        <ele>185</ele>
        <time>2025-07-24T13:48:26.289Z</time>
      </trkpt>
      <trkpt lat="44.07822" lon="0.55463">
        <ele>185</ele>
        <time>2025-07-24T13:48:27.289Z</time>
      </trkpt>
      <trkpt lat="44.07821" lon="0.55463">
        <ele>184</ele>
        <time>2025-07-24T13:48:28.289Z</time>
      </trkpt>
      <trkpt lat="44.0782" lon="0.55463">
        <ele>184</ele>
        <time>2025-07-24T13:48:29.289Z</time>
      </trkpt>
      <trkpt lat="44.07818" lon="0.55463">
        <ele>184</ele>
        <time>2025-07-24T13:48:30.289Z</time>
      </trkpt>
      <trkpt lat="44.07817" lon="0.55463">
        <ele>184</ele>
        <time>2025-07-24T13:48:31.289Z</time>
      </trkpt>
      <trkpt lat="44.07816" lon="0.55463">
        <ele>184</ele>
        <time>2025-07-24T13:48:32.289Z</time>
      </trkpt>
      <trkpt lat="44.07815" lon="0.55463">
        <ele>184</ele>
        <time>2025-07-24T13:48:33.289Z</time>
      </trkpt>
      <trkpt lat="44.07813" lon="0.55462">
        <ele>184</ele>
        <time>2025-07-24T13:48:34.289Z</time>
      </trkpt>
      <trkpt lat="44.07812" lon="0.55462">
        <ele>184</ele>
        <time>2025-07-24T13:48:35.289Z</time>
      </trkpt>
      <trkpt lat="44.07811" lon="0.55461">
        <ele>184</ele>
        <time>2025-07-24T13:48:36.289Z</time>
      </trkpt>
      <trkpt lat="44.0781" lon="0.5546">
        <ele>184</ele>
        <time>2025-07-24T13:48:37.289Z</time>
      </trkpt>
      <trkpt lat="44.07809" lon="0.5546">
        <ele>183</ele>
        <time>2025-07-24T13:48:38.289Z</time>
      </trkpt>
      <trkpt lat="44.07807" lon="0.5546">
        <ele>183</ele>
        <time>2025-07-24T13:48:39.289Z</time>
      </trkpt>
      <trkpt lat="44.07806" lon="0.55459">
        <ele>183</ele>
        <time>2025-07-24T13:48:40.289Z</time>
      </trkpt>
      <trkpt lat="44.07805" lon="0.55459">
        <ele>182</ele>
        <time>2025-07-24T13:48:41.289Z</time>
      </trkpt>
      <trkpt lat="44.07803" lon="0.55458">
        <ele>182</ele>
        <time>2025-07-24T13:48:42.289Z</time>
      </trkpt>
      <trkpt lat="44.07802" lon="0.55458">
        <ele>182</ele>
        <time>2025-07-24T13:48:43.289Z</time>
      </trkpt>
      <trkpt lat="44.07801" lon="0.55457">
        <ele>182</ele>
        <time>2025-07-24T13:48:44.289Z</time>
      </trkpt>
      <trkpt lat="44.078" lon="0.55457">
        <ele>182</ele>
        <time>2025-07-24T13:48:45.289Z</time>
      </trkpt>
      <trkpt lat="44.07798" lon="0.55457">
        <ele>183</ele>
        <time>2025-07-24T13:48:46.289Z</time>
      </trkpt>
      <trkpt lat="44.07797" lon="0.55456">
        <ele>183</ele>
        <time>2025-07-24T13:48:47.289Z</time>
      </trkpt>
      <trkpt lat="44.07796" lon="0.55455">
        <ele>183</ele>
        <time>2025-07-24T13:48:48.289Z</time>
      </trkpt>
      <trkpt lat="44.07795" lon="0.55455">
        <ele>183</ele>
        <time>2025-07-24T13:48:49.289Z</time>
      </trkpt>
      <trkpt lat="44.07794" lon="0.55454">
        <ele>183</ele>
        <time>2025-07-24T13:48:50.289Z</time>
      </trkpt>
      <trkpt lat="44.07793" lon="0.55453">
        <ele>183</ele>
        <time>2025-07-24T13:48:51.289Z</time>
      </trkpt>
      <trkpt lat="44.07792" lon="0.55452">
        <ele>183</ele>
        <time>2025-07-24T13:48:52.289Z</time>
      </trkpt>
      <trkpt lat="44.07791" lon="0.55451">
        <ele>183</ele>
        <time>2025-07-24T13:48:53.289Z</time>
      </trkpt>
      <trkpt lat="44.0779" lon="0.5545">
        <ele>183</ele>
        <time>2025-07-24T13:48:54.289Z</time>
      </trkpt>
      <trkpt lat="44.07789" lon="0.55449">
        <ele>183</ele>
        <time>2025-07-24T13:48:55.289Z</time>
      </trkpt>
      <trkpt lat="44.07787" lon="0.55448">
        <ele>182</ele>
        <time>2025-07-24T13:48:56.289Z</time>
      </trkpt>
      <trkpt lat="44.07786" lon="0.55447">
        <ele>182</ele>
        <time>2025-07-24T13:48:57.289Z</time>
      </trkpt>
      <trkpt lat="44.07785" lon="0.55446">
        <ele>182</ele>
        <time>2025-07-24T13:48:58.289Z</time>
      </trkpt>
      <trkpt lat="44.07784" lon="0.55445">
        <ele>182</ele>
        <time>2025-07-24T13:48:59.289Z</time>
      </trkpt>
      <trkpt lat="44.07783" lon="0.55445">
        <ele>181</ele>
        <time>2025-07-24T13:49:00.289Z</time>
      </trkpt>
      <trkpt lat="44.07782" lon="0.55444">
        <ele>181</ele>
        <time>2025-07-24T13:49:01.289Z</time>
      </trkpt>
      <trkpt lat="44.07781" lon="0.55444">
        <ele>181</ele>
        <time>2025-07-24T13:49:02.289Z</time>
      </trkpt>
      <trkpt lat="44.0778" lon="0.55443">
        <ele>181</ele>
        <time>2025-07-24T13:49:03.289Z</time>
      </trkpt>
      <trkpt lat="44.07779" lon="0.55442">
        <ele>181</ele>
        <time>2025-07-24T13:49:04.289Z</time>
      </trkpt>
      <trkpt lat="44.07778" lon="0.55441">
        <ele>181</ele>
        <time>2025-07-24T13:49:05.289Z</time>
      </trkpt>
      <trkpt lat="44.07777" lon="0.5544">
        <ele>180</ele>
        <time>2025-07-24T13:49:06.289Z</time>
      </trkpt>
      <trkpt lat="44.07776" lon="0.5544">
        <ele>180</ele>
        <time>2025-07-24T13:49:07.289Z</time>
      </trkpt>
      <trkpt lat="44.07775" lon="0.55439">
        <ele>179</ele>
        <time>2025-07-24T13:49:08.289Z</time>
      </trkpt>
      <trkpt lat="44.07774" lon="0.55438">
        <ele>179</ele>
        <time>2025-07-24T13:49:09.289Z</time>
      </trkpt>
      <trkpt lat="44.07772" lon="0.55437">
        <ele>179</ele>
        <time>2025-07-24T13:49:10.289Z</time>
      </trkpt>
      <trkpt lat="44.07771" lon="0.55437">
        <ele>179</ele>
        <time>2025-07-24T13:49:11.289Z</time>
      </trkpt>
      <trkpt lat="44.0777" lon="0.55436">
        <ele>178</ele>
        <time>2025-07-24T13:49:12.289Z</time>
      </trkpt>
      <trkpt lat="44.07769" lon="0.55436">
        <ele>178</ele>
        <time>2025-07-24T13:49:13.289Z</time>
      </trkpt>
      <trkpt lat="44.07768" lon="0.55435">
        <ele>178</ele>
        <time>2025-07-24T13:49:14.289Z</time>
      </trkpt>
      <trkpt lat="44.07768" lon="0.55435">
        <ele>178</ele>
        <time>2025-07-24T13:49:15.289Z</time>
      </trkpt>
      <trkpt lat="44.07767" lon="0.55434">
        <ele>178</ele>
        <time>2025-07-24T13:49:16.289Z</time>
      </trkpt>
      <trkpt lat="44.07766" lon="0.55433">
        <ele>178</ele>
        <time>2025-07-24T13:49:17.289Z</time>
      </trkpt>
      <trkpt lat="44.07765" lon="0.55433">
        <ele>178</ele>
        <time>2025-07-24T13:49:18.289Z</time>
      </trkpt>
      <trkpt lat="44.07764" lon="0.55432">
        <ele>178</ele>
        <time>2025-07-24T13:49:19.289Z</time>
      </trkpt>
      <trkpt lat="44.07763" lon="0.55432">
        <ele>178</ele>
        <time>2025-07-24T13:49:20.289Z</time>
      </trkpt>
      <trkpt lat="44.07761" lon="0.55431">
        <ele>178</ele>
        <time>2025-07-24T13:49:21.289Z</time>
      </trkpt>
      <trkpt lat="44.0776" lon="0.5543">
        <ele>178</ele>
        <time>2025-07-24T13:49:22.289Z</time>
      </trkpt>
      <trkpt lat="44.07759" lon="0.5543">
        <ele>178</ele>
        <time>2025-07-24T13:49:23.289Z</time>
      </trkpt>
      <trkpt lat="44.07757" lon="0.55429">
        <ele>178</ele>
        <time>2025-07-24T13:49:24.289Z</time>
      </trkpt>
      <trkpt lat="44.07756" lon="0.55428">
        <ele>178</ele>
        <time>2025-07-24T13:49:25.289Z</time>
      </trkpt>
      <trkpt lat="44.07755" lon="0.55428">
        <ele>178</ele>
        <time>2025-07-24T13:49:26.289Z</time>
      </trkpt>
      <trkpt lat="44.07754" lon="0.55427">
        <ele>178</ele>
        <time>2025-07-24T13:49:27.289Z</time>
      </trkpt>
      <trkpt lat="44.07753" lon="0.55426">
        <ele>177</ele>
        <time>2025-07-24T13:49:28.289Z</time>
      </trkpt>
      <trkpt lat="44.07752" lon="0.55426">
        <ele>177</ele>
        <time>2025-07-24T13:49:29.289Z</time>
      </trkpt>
      <trkpt lat="44.07751" lon="0.55425">
        <ele>177</ele>
        <time>2025-07-24T13:49:30.289Z</time>
      </trkpt>
      <trkpt lat="44.0775" lon="0.55424">
        <ele>177</ele>
        <time>2025-07-24T13:49:31.289Z</time>
      </trkpt>
      <trkpt lat="44.07749" lon="0.55423">
        <ele>176</ele>
        <time>2025-07-24T13:49:32.289Z</time>
      </trkpt>
      <trkpt lat="44.07748" lon="0.55423">
        <ele>176</ele>
        <time>2025-07-24T13:49:33.289Z</time>
      </trkpt>
      <trkpt lat="44.07748" lon="0.55422">
        <ele>176</ele>
        <time>2025-07-24T13:49:34.289Z</time>
      </trkpt>
      <trkpt lat="44.07747" lon="0.55422">
        <ele>176</ele>
        <time>2025-07-24T13:49:35.289Z</time>
      </trkpt>
      <trkpt lat="44.07746" lon="0.55422">
        <ele>175</ele>
        <time>2025-07-24T13:49:36.289Z</time>
      </trkpt>
      <trkpt lat="44.07745" lon="0.55421">
        <ele>175</ele>
        <time>2025-07-24T13:49:37.289Z</time>
      </trkpt>
      <trkpt lat="44.07744" lon="0.5542">
        <ele>175</ele>
        <time>2025-07-24T13:49:38.289Z</time>
      </trkpt>
      <trkpt lat="44.07743" lon="0.5542">
        <ele>175</ele>
        <time>2025-07-24T13:49:39.289Z</time>
      </trkpt>
      <trkpt lat="44.07742" lon="0.55419">
        <ele>175</ele>
        <time>2025-07-24T13:49:40.289Z</time>
      </trkpt>
      <trkpt lat="44.07741" lon="0.55419">
        <ele>175</ele>
        <time>2025-07-24T13:49:41.289Z</time>
      </trkpt>
      <trkpt lat="44.0774" lon="0.55419">
        <ele>175</ele>
        <time>2025-07-24T13:49:42.289Z</time>
      </trkpt>
      <trkpt lat="44.0774" lon="0.55418">
        <ele>176</ele>
        <time>2025-07-24T13:49:43.289Z</time>
      </trkpt>
      <trkpt lat="44.07739" lon="0.55418">
        <ele>175</ele>
        <time>2025-07-24T13:49:44.289Z</time>
      </trkpt>
      <trkpt lat="44.07738" lon="0.55418">
        <ele>175</ele>
        <time>2025-07-24T13:49:45.289Z</time>
      </trkpt>
      <trkpt lat="44.07737" lon="0.55417">
        <ele>175</ele>
        <time>2025-07-24T13:49:46.289Z</time>
      </trkpt>
      <trkpt lat="44.07736" lon="0.55417">
        <ele>175</ele>
        <time>2025-07-24T13:49:47.289Z</time>
      </trkpt>
      <trkpt lat="44.07736" lon="0.55417">
        <ele>174</ele>
        <time>2025-07-24T13:49:48.289Z</time>
      </trkpt>
      <trkpt lat="44.07736" lon="0.55417">
        <ele>174</ele>
        <time>2025-07-24T13:49:49.289Z</time>
      </trkpt>
      <trkpt lat="44.07736" lon="0.55417">
        <ele>174</ele>
        <time>2025-07-24T13:49:50.289Z</time>
      </trkpt>
      <trkpt lat="44.07735" lon="0.55417">
        <ele>173</ele>
        <time>2025-07-24T13:49:51.289Z</time>
      </trkpt>
      <trkpt lat="44.07734" lon="0.55416">
        <ele>173</ele>
        <time>2025-07-24T13:49:52.289Z</time>
      </trkpt>
      <trkpt lat="44.07734" lon="0.55416">
        <ele>173</ele>
        <time>2025-07-24T13:49:53.289Z</time>
      </trkpt>
      <trkpt lat="44.07733" lon="0.55415">
        <ele>173</ele>
        <time>2025-07-24T13:49:54.289Z</time>
      </trkpt>
      <trkpt lat="44.07732" lon="0.55414">
        <ele>173</ele>
        <time>2025-07-24T13:49:55.289Z</time>
      </trkpt>
      <trkpt lat="44.07731" lon="0.55413">
        <ele>173</ele>
        <time>2025-07-24T13:49:56.289Z</time>
      </trkpt>
      <trkpt lat="44.0773" lon="0.55413">
        <ele>173</ele>
        <time>2025-07-24T13:49:57.289Z</time>
      </trkpt>
      <trkpt lat="44.07728" lon="0.55412">
        <ele>173</ele>
        <time>2025-07-24T13:49:58.289Z</time>
      </trkpt>
      <trkpt lat="44.07727" lon="0.55412">
        <ele>173</ele>
        <time>2025-07-24T13:49:59.289Z</time>
      </trkpt>
      <trkpt lat="44.07727" lon="0.55411">
        <ele>173</ele>
        <time>2025-07-24T13:50:00.289Z</time>
      </trkpt>
      <trkpt lat="44.07726" lon="0.55411">
        <ele>172</ele>
        <time>2025-07-24T13:50:01.290Z</time>
      </trkpt>
      <trkpt lat="44.07725" lon="0.5541">
        <ele>172</ele>
        <time>2025-07-24T13:50:02.289Z</time>
      </trkpt>
      <trkpt lat="44.07724" lon="0.5541">
        <ele>172</ele>
        <time>2025-07-24T13:50:03.289Z</time>
      </trkpt>
      <trkpt lat="44.07722" lon="0.55409">
        <ele>172</ele>
        <time>2025-07-24T13:50:04.289Z</time>
      </trkpt>
      <trkpt lat="44.07721" lon="0.55408">
        <ele>172</ele>
        <time>2025-07-24T13:50:05.289Z</time>
      </trkpt>
      <trkpt lat="44.0772" lon="0.55407">
        <ele>172</ele>
        <time>2025-07-24T13:50:06.289Z</time>
      </trkpt>
      <trkpt lat="44.07719" lon="0.55407">
        <ele>172</ele>
        <time>2025-07-24T13:50:07.289Z</time>
      </trkpt>
      <trkpt lat="44.07717" lon="0.55406">
        <ele>173</ele>
        <time>2025-07-24T13:50:08.289Z</time>
      </trkpt>
      <trkpt lat="44.07716" lon="0.55406">
        <ele>173</ele>
        <time>2025-07-24T13:50:09.289Z</time>
      </trkpt>
      <trkpt lat="44.07715" lon="0.55405">
        <ele>174</ele>
        <time>2025-07-24T13:50:10.289Z</time>
      </trkpt>
      <trkpt lat="44.07714" lon="0.55405">
        <ele>174</ele>
        <time>2025-07-24T13:50:11.289Z</time>
      </trkpt>
      <trkpt lat="44.07713" lon="0.55404">
        <ele>174</ele>
        <time>2025-07-24T13:50:12.289Z</time>
      </trkpt>
      <trkpt lat="44.07712" lon="0.55403">
        <ele>174</ele>
        <time>2025-07-24T13:50:13.289Z</time>
      </trkpt>
      <trkpt lat="44.07712" lon="0.55402">
        <ele>174</ele>
        <time>2025-07-24T13:50:14.289Z</time>
      </trkpt>
      <trkpt lat="44.07711" lon="0.55401">
        <ele>174</ele>
        <time>2025-07-24T13:50:15.289Z</time>
      </trkpt>
      <trkpt lat="44.0771" lon="0.55401">
        <ele>173</ele>
        <time>2025-07-24T13:50:16.289Z</time>
      </trkpt>
      <trkpt lat="44.07708" lon="0.554">
        <ele>173</ele>
        <time>2025-07-24T13:50:17.289Z</time>
      </trkpt>
      <trkpt lat="44.07707" lon="0.554">
        <ele>173</ele>
        <time>2025-07-24T13:50:18.289Z</time>
      </trkpt>
      <trkpt lat="44.07706" lon="0.55399">
        <ele>173</ele>
        <time>2025-07-24T13:50:19.289Z</time>
      </trkpt>
      <trkpt lat="44.07705" lon="0.55399">
        <ele>173</ele>
        <time>2025-07-24T13:50:20.289Z</time>
      </trkpt>
      <trkpt lat="44.07704" lon="0.55398">
        <ele>173</ele>
        <time>2025-07-24T13:50:21.289Z</time>
      </trkpt>
      <trkpt lat="44.07704" lon="0.55398">
        <ele>172</ele>
        <time>2025-07-24T13:50:22.289Z</time>
      </trkpt>
      <trkpt lat="44.07703" lon="0.55397">
        <ele>172</ele>
        <time>2025-07-24T13:50:23.289Z</time>
      </trkpt>
      <trkpt lat="44.07701" lon="0.55397">
        <ele>172</ele>
        <time>2025-07-24T13:50:24.289Z</time>
      </trkpt>
      <trkpt lat="44.077" lon="0.55397">
        <ele>172</ele>
        <time>2025-07-24T13:50:25.289Z</time>
      </trkpt>
      <trkpt lat="44.07698" lon="0.55396">
        <ele>172</ele>
        <time>2025-07-24T13:50:26.289Z</time>
      </trkpt>
      <trkpt lat="44.07697" lon="0.55396">
        <ele>172</ele>
        <time>2025-07-24T13:50:27.289Z</time>
      </trkpt>
      <trkpt lat="44.07696" lon="0.55395">
        <ele>172</ele>
        <time>2025-07-24T13:50:28.289Z</time>
      </trkpt>
      <trkpt lat="44.07695" lon="0.55394">
        <ele>172</ele>
        <time>2025-07-24T13:50:29.289Z</time>
      </trkpt>
      <trkpt lat="44.07694" lon="0.55394">
        <ele>172</ele>
        <time>2025-07-24T13:50:30.289Z</time>
      </trkpt>
      <trkpt lat="44.07693" lon="0.55393">
        <ele>172</ele>
        <time>2025-07-24T13:50:31.289Z</time>
      </trkpt>
      <trkpt lat="44.07691" lon="0.55393">
        <ele>173</ele>
        <time>2025-07-24T13:50:32.289Z</time>
      </trkpt>
      <trkpt lat="44.07689" lon="0.55392">
        <ele>173</ele>
        <time>2025-07-24T13:50:33.289Z</time>
      </trkpt>
      <trkpt lat="44.07688" lon="0.55392">
        <ele>173</ele>
        <time>2025-07-24T13:50:34.289Z</time>
      </trkpt>
      <trkpt lat="44.07687" lon="0.55393">
        <ele>174</ele>
        <time>2025-07-24T13:50:35.289Z</time>
      </trkpt>
      <trkpt lat="44.07686" lon="0.55392">
        <ele>174</ele>
        <time>2025-07-24T13:50:36.289Z</time>
      </trkpt>
      <trkpt lat="44.07685" lon="0.55392">
        <ele>175</ele>
        <time>2025-07-24T13:50:37.289Z</time>
      </trkpt>
      <trkpt lat="44.07684" lon="0.55391">
        <ele>175</ele>
        <time>2025-07-24T13:50:38.289Z</time>
      </trkpt>
      <trkpt lat="44.07683" lon="0.5539">
        <ele>175</ele>
        <time>2025-07-24T13:50:39.289Z</time>
      </trkpt>
      <trkpt lat="44.07682" lon="0.55389">
        <ele>175</ele>
        <time>2025-07-24T13:50:40.289Z</time>
      </trkpt>
      <trkpt lat="44.07681" lon="0.55387">
        <ele>175</ele>
        <time>2025-07-24T13:50:41.289Z</time>
      </trkpt>
      <trkpt lat="44.0768" lon="0.55386">
        <ele>175</ele>
        <time>2025-07-24T13:50:42.289Z</time>
      </trkpt>
      <trkpt lat="44.07678" lon="0.55385">
        <ele>175</ele>
        <time>2025-07-24T13:50:43.289Z</time>
      </trkpt>
      <trkpt lat="44.07677" lon="0.55384">
        <ele>175</ele>
        <time>2025-07-24T13:50:44.289Z</time>
      </trkpt>
      <trkpt lat="44.07676" lon="0.55383">
        <ele>175</ele>
        <time>2025-07-24T13:50:45.289Z</time>
      </trkpt>
      <trkpt lat="44.07675" lon="0.55383">
        <ele>174</ele>
        <time>2025-07-24T13:50:46.289Z</time>
      </trkpt>
      <trkpt lat="44.07673" lon="0.55382">
        <ele>174</ele>
        <time>2025-07-24T13:50:47.289Z</time>
      </trkpt>
      <trkpt lat="44.07672" lon="0.55382">
        <ele>174</ele>
        <time>2025-07-24T13:50:48.289Z</time>
      </trkpt>
      <trkpt lat="44.07671" lon="0.55381">
        <ele>174</ele>
        <time>2025-07-24T13:50:49.289Z</time>
      </trkpt>
      <trkpt lat="44.0767" lon="0.5538">
        <ele>174</ele>
        <time>2025-07-24T13:50:50.289Z</time>
      </trkpt>
      <trkpt lat="44.07669" lon="0.55379">
        <ele>174</ele>
        <time>2025-07-24T13:50:51.289Z</time>
      </trkpt>
      <trkpt lat="44.07668" lon="0.55378">
        <ele>174</ele>
        <time>2025-07-24T13:50:52.289Z</time>
      </trkpt>
      <trkpt lat="44.07667" lon="0.55377">
        <ele>173</ele>
        <time>2025-07-24T13:50:53.289Z</time>
      </trkpt>
      <trkpt lat="44.07666" lon="0.55376">
        <ele>173</ele>
        <time>2025-07-24T13:50:54.289Z</time>
      </trkpt>
      <trkpt lat="44.07665" lon="0.55376">
        <ele>173</ele>
        <time>2025-07-24T13:50:55.289Z</time>
      </trkpt>
      <trkpt lat="44.07663" lon="0.55375">
        <ele>173</ele>
        <time>2025-07-24T13:50:56.289Z</time>
      </trkpt>
      <trkpt lat="44.07662" lon="0.55374">
        <ele>172</ele>
        <time>2025-07-24T13:50:57.289Z</time>
      </trkpt>
      <trkpt lat="44.07661" lon="0.55373">
        <ele>172</ele>
        <time>2025-07-24T13:50:58.290Z</time>
      </trkpt>
      <trkpt lat="44.0766" lon="0.55372">
        <ele>172</ele>
        <time>2025-07-24T13:50:59.289Z</time>
      </trkpt>
      <trkpt lat="44.07659" lon="0.55372">
        <ele>172</ele>
        <time>2025-07-24T13:51:00.289Z</time>
      </trkpt>
      <trkpt lat="44.07658" lon="0.55371">
        <ele>172</ele>
        <time>2025-07-24T13:51:01.289Z</time>
      </trkpt>
      <trkpt lat="44.07657" lon="0.55371">
        <ele>173</ele>
        <time>2025-07-24T13:51:02.289Z</time>
      </trkpt>
      <trkpt lat="44.07656" lon="0.55371">
        <ele>173</ele>
        <time>2025-07-24T13:51:03.289Z</time>
      </trkpt>
      <trkpt lat="44.07655" lon="0.55371">
        <ele>173</ele>
        <time>2025-07-24T13:51:04.289Z</time>
      </trkpt>
      <trkpt lat="44.07654" lon="0.55371">
        <ele>173</ele>
        <time>2025-07-24T13:51:05.289Z</time>
      </trkpt>
      <trkpt lat="44.07652" lon="0.55371">
        <ele>173</ele>
        <time>2025-07-24T13:51:06.289Z</time>
      </trkpt>
      <trkpt lat="44.07651" lon="0.55372">
        <ele>173</ele>
        <time>2025-07-24T13:51:07.289Z</time>
      </trkpt>
      <trkpt lat="44.0765" lon="0.55372">
        <ele>173</ele>
        <time>2025-07-24T13:51:08.289Z</time>
      </trkpt>
      <trkpt lat="44.07649" lon="0.55372">
        <ele>173</ele>
        <time>2025-07-24T13:51:09.289Z</time>
      </trkpt>
      <trkpt lat="44.07649" lon="0.55372">
        <ele>172</ele>
        <time>2025-07-24T13:51:10.289Z</time>
      </trkpt>
      <trkpt lat="44.07648" lon="0.55372">
        <ele>172</ele>
        <time>2025-07-24T13:51:11.289Z</time>
      </trkpt>
      <trkpt lat="44.07647" lon="0.55373">
        <ele>172</ele>
        <time>2025-07-24T13:51:12.289Z</time>
      </trkpt>
      <trkpt lat="44.07646" lon="0.55374">
        <ele>172</ele>
        <time>2025-07-24T13:51:13.289Z</time>
      </trkpt>
      <trkpt lat="44.07645" lon="0.55375">
        <ele>172</ele>
        <time>2025-07-24T13:51:14.289Z</time>
      </trkpt>
      <trkpt lat="44.07645" lon="0.55375">
        <ele>171</ele>
        <time>2025-07-24T13:51:15.289Z</time>
      </trkpt>
      <trkpt lat="44.07644" lon="0.55376">
        <ele>171</ele>
        <time>2025-07-24T13:51:16.289Z</time>
      </trkpt>
      <trkpt lat="44.07643" lon="0.55377">
        <ele>171</ele>
        <time>2025-07-24T13:51:17.289Z</time>
      </trkpt>
      <trkpt lat="44.07643" lon="0.55378">
        <ele>171</ele>
        <time>2025-07-24T13:51:18.289Z</time>
      </trkpt>
      <trkpt lat="44.07642" lon="0.55379">
        <ele>171</ele>
        <time>2025-07-24T13:51:19.289Z</time>
      </trkpt>
      <trkpt lat="44.07642" lon="0.55379">
        <ele>171</ele>
        <time>2025-07-24T13:51:20.289Z</time>
      </trkpt>
      <trkpt lat="44.07642" lon="0.55379">
        <ele>171</ele>
        <time>2025-07-24T13:51:21.289Z</time>
      </trkpt>
      <trkpt lat="44.07642" lon="0.55379">
        <ele>171</ele>
        <time>2025-07-24T13:51:22.289Z</time>
      </trkpt>
      <trkpt lat="44.07642" lon="0.55379">
        <ele>171</ele>
        <time>2025-07-24T13:51:23.289Z</time>
      </trkpt>
      <trkpt lat="44.07642" lon="0.55379">
        <ele>171</ele>
        <time>2025-07-24T13:51:24.289Z</time>
      </trkpt>
      <trkpt lat="44.07642" lon="0.55379">
        <ele>171</ele>
        <time>2025-07-24T13:51:25.289Z</time>
      </trkpt>
      <trkpt lat="44.07642" lon="0.55379">
        <ele>171</ele>
        <time>2025-07-24T13:51:26.289Z</time>
      </trkpt>
      <trkpt lat="44.07642" lon="0.55379">
        <ele>171</ele>
        <time>2025-07-24T13:51:27.289Z</time>
      </trkpt>
      <trkpt lat="44.07642" lon="0.55379">
        <ele>171</ele>
        <time>2025-07-24T13:51:28.289Z</time>
      </trkpt>
      <trkpt lat="44.07642" lon="0.55379">
        <ele>171</ele>
        <time>2025-07-24T13:51:29.289Z</time>
      </trkpt>
      <trkpt lat="44.07641" lon="0.55379">
        <ele>170</ele>
        <time>2025-07-24T13:51:30.289Z</time>
      </trkpt>
      <trkpt lat="44.07642" lon="0.55379">
        <ele>170</ele>
        <time>2025-07-24T13:51:31.289Z</time>
      </trkpt>
      <trkpt lat="44.07642" lon="0.55379">
        <ele>170</ele>
        <time>2025-07-24T13:51:32.289Z</time>
      </trkpt>
      <trkpt lat="44.07642" lon="0.55379">
        <ele>170</ele>
        <time>2025-07-24T13:51:33.289Z</time>
      </trkpt>
      <trkpt lat="44.07642" lon="0.55379">
        <ele>170</ele>
        <time>2025-07-24T13:51:34.289Z</time>
      </trkpt>
      <trkpt lat="44.07642" lon="0.55379">
        <ele>169</ele>
        <time>2025-07-24T13:51:35.289Z</time>
      </trkpt>
      <trkpt lat="44.07641" lon="0.55379">
        <ele>169</ele>
        <time>2025-07-24T13:51:36.289Z</time>
      </trkpt>
      <trkpt lat="44.07641" lon="0.5538">
        <ele>169</ele>
        <time>2025-07-24T13:51:37.289Z</time>
      </trkpt>
      <trkpt lat="44.0764" lon="0.55381">
        <ele>169</ele>
        <time>2025-07-24T13:51:38.289Z</time>
      </trkpt>
      <trkpt lat="44.0764" lon="0.55381">
        <ele>170</ele>
        <time>2025-07-24T13:51:39.289Z</time>
      </trkpt>
      <trkpt lat="44.07639" lon="0.55382">
        <ele>170</ele>
        <time>2025-07-24T13:51:40.289Z</time>
      </trkpt>
      <trkpt lat="44.07638" lon="0.55383">
        <ele>169</ele>
        <time>2025-07-24T13:51:41.289Z</time>
      </trkpt>
      <trkpt lat="44.07638" lon="0.55384">
        <ele>169</ele>
        <time>2025-07-24T13:51:42.289Z</time>
      </trkpt>
      <trkpt lat="44.07637" lon="0.55385">
        <ele>169</ele>
        <time>2025-07-24T13:51:43.289Z</time>
      </trkpt>
      <trkpt lat="44.07636" lon="0.55386">
        <ele>169</ele>
        <time>2025-07-24T13:51:44.289Z</time>
      </trkpt>
      <trkpt lat="44.07636" lon="0.55387">
        <ele>169</ele>
        <time>2025-07-24T13:51:45.289Z</time>
      </trkpt>
      <trkpt lat="44.07635" lon="0.55388">
        <ele>169</ele>
        <time>2025-07-24T13:51:46.289Z</time>
      </trkpt>
      <trkpt lat="44.07634" lon="0.5539">
        <ele>169</ele>
        <time>2025-07-24T13:51:47.289Z</time>
      </trkpt>
      <trkpt lat="44.07634" lon="0.55391">
        <ele>169</ele>
        <time>2025-07-24T13:51:48.289Z</time>
      </trkpt>
      <trkpt lat="44.07633" lon="0.55392">
        <ele>168</ele>
        <time>2025-07-24T13:51:49.289Z</time>
      </trkpt>
      <trkpt lat="44.07632" lon="0.55393">
        <ele>168</ele>
        <time>2025-07-24T13:51:50.289Z</time>
      </trkpt>
      <trkpt lat="44.07631" lon="0.55394">
        <ele>168</ele>
        <time>2025-07-24T13:51:51.289Z</time>
      </trkpt>
      <trkpt lat="44.07631" lon="0.55395">
        <ele>168</ele>
        <time>2025-07-24T13:51:52.289Z</time>
      </trkpt>
      <trkpt lat="44.0763" lon="0.55397">
        <ele>168</ele>
        <time>2025-07-24T13:51:53.289Z</time>
      </trkpt>
      <trkpt lat="44.07629" lon="0.55398">
        <ele>168</ele>
        <time>2025-07-24T13:51:54.289Z</time>
      </trkpt>
      <trkpt lat="44.07628" lon="0.55399">
        <ele>168</ele>
        <time>2025-07-24T13:51:55.289Z</time>
      </trkpt>
      <trkpt lat="44.07628" lon="0.554">
        <ele>168</ele>
        <time>2025-07-24T13:51:56.289Z</time>
      </trkpt>
      <trkpt lat="44.07627" lon="0.55401">
        <ele>168</ele>
        <time>2025-07-24T13:51:57.289Z</time>
      </trkpt>
      <trkpt lat="44.07626" lon="0.55402">
        <ele>168</ele>
        <time>2025-07-24T13:51:58.289Z</time>
      </trkpt>
      <trkpt lat="44.07626" lon="0.55403">
        <ele>168</ele>
        <time>2025-07-24T13:51:59.289Z</time>
      </trkpt>
      <trkpt lat="44.07625" lon="0.55404">
        <ele>168</ele>
        <time>2025-07-24T13:52:00.289Z</time>
      </trkpt>
      <trkpt lat="44.07624" lon="0.55405">
        <ele>168</ele>
        <time>2025-07-24T13:52:01.289Z</time>
      </trkpt>
      <trkpt lat="44.07624" lon="0.55407">
        <ele>167</ele>
        <time>2025-07-24T13:52:02.289Z</time>
      </trkpt>
      <trkpt lat="44.07623" lon="0.55408">
        <ele>167</ele>
        <time>2025-07-24T13:52:03.289Z</time>
      </trkpt>
      <trkpt lat="44.07622" lon="0.55409">
        <ele>167</ele>
        <time>2025-07-24T13:52:04.289Z</time>
      </trkpt>
      <trkpt lat="44.07621" lon="0.55411">
        <ele>168</ele>
        <time>2025-07-24T13:52:05.289Z</time>
      </trkpt>
      <trkpt lat="44.0762" lon="0.55412">
        <ele>168</ele>
        <time>2025-07-24T13:52:06.289Z</time>
      </trkpt>
      <trkpt lat="44.07619" lon="0.55414">
        <ele>168</ele>
        <time>2025-07-24T13:52:07.289Z</time>
      </trkpt>
      <trkpt lat="44.07618" lon="0.55416">
        <ele>168</ele>
        <time>2025-07-24T13:52:08.289Z</time>
      </trkpt>
      <trkpt lat="44.07617" lon="0.55417">
        <ele>168</ele>
        <time>2025-07-24T13:52:09.289Z</time>
      </trkpt>
      <trkpt lat="44.07616" lon="0.55418">
        <ele>168</ele>
        <time>2025-07-24T13:52:10.289Z</time>
      </trkpt>
      <trkpt lat="44.07615" lon="0.5542">
        <ele>168</ele>
        <time>2025-07-24T13:52:11.289Z</time>
      </trkpt>
      <trkpt lat="44.07614" lon="0.55421">
        <ele>168</ele>
        <time>2025-07-24T13:52:12.289Z</time>
      </trkpt>
      <trkpt lat="44.07613" lon="0.55422">
        <ele>168</ele>
        <time>2025-07-24T13:52:13.289Z</time>
      </trkpt>
      <trkpt lat="44.07612" lon="0.55424">
        <ele>168</ele>
        <time>2025-07-24T13:52:14.289Z</time>
      </trkpt>
      <trkpt lat="44.07611" lon="0.55425">
        <ele>167</ele>
        <time>2025-07-24T13:52:15.289Z</time>
      </trkpt>
      <trkpt lat="44.0761" lon="0.55426">
        <ele>167</ele>
        <time>2025-07-24T13:52:16.289Z</time>
      </trkpt>
      <trkpt lat="44.07609" lon="0.55427">
        <ele>167</ele>
        <time>2025-07-24T13:52:17.289Z</time>
      </trkpt>
      <trkpt lat="44.07608" lon="0.55429">
        <ele>167</ele>
        <time>2025-07-24T13:52:18.289Z</time>
      </trkpt>
      <trkpt lat="44.07606" lon="0.5543">
        <ele>167</ele>
        <time>2025-07-24T13:52:19.289Z</time>
      </trkpt>
      <trkpt lat="44.07605" lon="0.55431">
        <ele>167</ele>
        <time>2025-07-24T13:52:20.289Z</time>
      </trkpt>
      <trkpt lat="44.07604" lon="0.55432">
        <ele>167</ele>
        <time>2025-07-24T13:52:21.289Z</time>
      </trkpt>
      <trkpt lat="44.07602" lon="0.55433">
        <ele>167</ele>
        <time>2025-07-24T13:52:22.289Z</time>
      </trkpt>
      <trkpt lat="44.07601" lon="0.55434">
        <ele>167</ele>
        <time>2025-07-24T13:52:23.290Z</time>
      </trkpt>
      <trkpt lat="44.076" lon="0.55435">
        <ele>167</ele>
        <time>2025-07-24T13:52:24.289Z</time>
      </trkpt>
      <trkpt lat="44.07599" lon="0.55437">
        <ele>167</ele>
        <time>2025-07-24T13:52:25.289Z</time>
      </trkpt>
      <trkpt lat="44.07598" lon="0.55437">
        <ele>167</ele>
        <time>2025-07-24T13:52:26.289Z</time>
      </trkpt>
      <trkpt lat="44.07596" lon="0.55438">
        <ele>167</ele>
        <time>2025-07-24T13:52:27.289Z</time>
      </trkpt>
      <trkpt lat="44.07595" lon="0.55439">
        <ele>166</ele>
        <time>2025-07-24T13:52:28.289Z</time>
      </trkpt>
      <trkpt lat="44.07594" lon="0.5544">
        <ele>166</ele>
        <time>2025-07-24T13:52:29.289Z</time>
      </trkpt>
      <trkpt lat="44.07593" lon="0.55441">
        <ele>165</ele>
        <time>2025-07-24T13:52:30.289Z</time>
      </trkpt>
      <trkpt lat="44.07592" lon="0.55442">
        <ele>165</ele>
        <time>2025-07-24T13:52:31.289Z</time>
      </trkpt>
      <trkpt lat="44.07591" lon="0.55443">
        <ele>165</ele>
        <time>2025-07-24T13:52:32.289Z</time>
      </trkpt>
      <trkpt lat="44.0759" lon="0.55444">
        <ele>165</ele>
        <time>2025-07-24T13:52:33.289Z</time>
      </trkpt>
      <trkpt lat="44.07589" lon="0.55445">
        <ele>164</ele>
        <time>2025-07-24T13:52:34.289Z</time>
      </trkpt>
      <trkpt lat="44.07587" lon="0.55446">
        <ele>164</ele>
        <time>2025-07-24T13:52:35.289Z</time>
      </trkpt>
      <trkpt lat="44.07586" lon="0.55447">
        <ele>164</ele>
        <time>2025-07-24T13:52:36.289Z</time>
      </trkpt>
      <trkpt lat="44.07585" lon="0.55448">
        <ele>163</ele>
        <time>2025-07-24T13:52:37.289Z</time>
      </trkpt>
      <trkpt lat="44.07584" lon="0.55449">
        <ele>163</ele>
        <time>2025-07-24T13:52:38.289Z</time>
      </trkpt>
      <trkpt lat="44.07582" lon="0.5545">
        <ele>163</ele>
        <time>2025-07-24T13:52:39.289Z</time>
      </trkpt>
      <trkpt lat="44.07581" lon="0.55452">
        <ele>162</ele>
        <time>2025-07-24T13:52:40.289Z</time>
      </trkpt>
      <trkpt lat="44.0758" lon="0.55452">
        <ele>162</ele>
        <time>2025-07-24T13:52:41.289Z</time>
      </trkpt>
      <trkpt lat="44.07578" lon="0.55454">
        <ele>162</ele>
        <time>2025-07-24T13:52:42.289Z</time>
      </trkpt>
      <trkpt lat="44.07577" lon="0.55455">
        <ele>162</ele>
        <time>2025-07-24T13:52:43.289Z</time>
      </trkpt>
      <trkpt lat="44.07576" lon="0.55456">
        <ele>162</ele>
        <time>2025-07-24T13:52:44.289Z</time>
      </trkpt>
      <trkpt lat="44.07575" lon="0.55456">
        <ele>163</ele>
        <time>2025-07-24T13:52:45.289Z</time>
      </trkpt>
      <trkpt lat="44.07573" lon="0.55457">
        <ele>163</ele>
        <time>2025-07-24T13:52:46.289Z</time>
      </trkpt>
      <trkpt lat="44.07572" lon="0.55457">
        <ele>163</ele>
        <time>2025-07-24T13:52:47.289Z</time>
      </trkpt>
      <trkpt lat="44.07571" lon="0.55458">
        <ele>163</ele>
        <time>2025-07-24T13:52:48.289Z</time>
      </trkpt>
      <trkpt lat="44.0757" lon="0.55458">
        <ele>163</ele>
        <time>2025-07-24T13:52:49.289Z</time>
      </trkpt>
      <trkpt lat="44.07569" lon="0.55458">
        <ele>163</ele>
        <time>2025-07-24T13:52:50.289Z</time>
      </trkpt>
      <trkpt lat="44.07568" lon="0.55459">
        <ele>163</ele>
        <time>2025-07-24T13:52:51.289Z</time>
      </trkpt>
      <trkpt lat="44.07567" lon="0.5546">
        <ele>163</ele>
        <time>2025-07-24T13:52:52.289Z</time>
      </trkpt>
      <trkpt lat="44.07566" lon="0.5546">
        <ele>163</ele>
        <time>2025-07-24T13:52:53.289Z</time>
      </trkpt>
      <trkpt lat="44.07565" lon="0.55461">
        <ele>162</ele>
        <time>2025-07-24T13:52:54.289Z</time>
      </trkpt>
      <trkpt lat="44.07563" lon="0.55462">
        <ele>163</ele>
        <time>2025-07-24T13:52:55.289Z</time>
      </trkpt>
      <trkpt lat="44.07562" lon="0.55463">
        <ele>162</ele>
        <time>2025-07-24T13:52:56.289Z</time>
      </trkpt>
      <trkpt lat="44.07561" lon="0.55464">
        <ele>162</ele>
        <time>2025-07-24T13:52:57.289Z</time>
      </trkpt>
      <trkpt lat="44.0756" lon="0.55465">
        <ele>162</ele>
        <time>2025-07-24T13:52:58.289Z</time>
      </trkpt>
      <trkpt lat="44.07558" lon="0.55465">
        <ele>162</ele>
        <time>2025-07-24T13:52:59.289Z</time>
      </trkpt>
      <trkpt lat="44.07557" lon="0.55466">
        <ele>161</ele>
        <time>2025-07-24T13:53:00.289Z</time>
      </trkpt>
      <trkpt lat="44.07556" lon="0.55467">
        <ele>161</ele>
        <time>2025-07-24T13:53:01.289Z</time>
      </trkpt>
      <trkpt lat="44.07555" lon="0.55468">
        <ele>162</ele>
        <time>2025-07-24T13:53:02.289Z</time>
      </trkpt>
      <trkpt lat="44.07554" lon="0.55469">
        <ele>161</ele>
        <time>2025-07-24T13:53:03.289Z</time>
      </trkpt>
      <trkpt lat="44.07553" lon="0.5547">
        <ele>161</ele>
        <time>2025-07-24T13:53:04.290Z</time>
      </trkpt>
      <trkpt lat="44.07552" lon="0.55471">
        <ele>161</ele>
        <time>2025-07-24T13:53:05.289Z</time>
      </trkpt>
      <trkpt lat="44.07551" lon="0.55472">
        <ele>160</ele>
        <time>2025-07-24T13:53:06.289Z</time>
      </trkpt>
      <trkpt lat="44.0755" lon="0.55472">
        <ele>160</ele>
        <time>2025-07-24T13:53:07.289Z</time>
      </trkpt>
      <trkpt lat="44.07549" lon="0.55473">
        <ele>160</ele>
        <time>2025-07-24T13:53:08.289Z</time>
      </trkpt>
      <trkpt lat="44.07548" lon="0.55474">
        <ele>160</ele>
        <time>2025-07-24T13:53:09.289Z</time>
      </trkpt>
      <trkpt lat="44.07547" lon="0.55475">
        <ele>160</ele>
        <time>2025-07-24T13:53:10.289Z</time>
      </trkpt>
      <trkpt lat="44.07546" lon="0.55476">
        <ele>160</ele>
        <time>2025-07-24T13:53:11.289Z</time>
      </trkpt>
      <trkpt lat="44.07545" lon="0.55476">
        <ele>160</ele>
        <time>2025-07-24T13:53:12.289Z</time>
      </trkpt>
      <trkpt lat="44.07544" lon="0.55477">
        <ele>159</ele>
        <time>2025-07-24T13:53:13.289Z</time>
      </trkpt>
      <trkpt lat="44.07543" lon="0.55478">
        <ele>159</ele>
        <time>2025-07-24T13:53:14.289Z</time>
      </trkpt>
      <trkpt lat="44.07542" lon="0.55479">
        <ele>159</ele>
        <time>2025-07-24T13:53:15.289Z</time>
      </trkpt>
      <trkpt lat="44.07541" lon="0.5548">
        <ele>158</ele>
        <time>2025-07-24T13:53:16.289Z</time>
      </trkpt>
      <trkpt lat="44.0754" lon="0.55481">
        <ele>158</ele>
        <time>2025-07-24T13:53:17.289Z</time>
      </trkpt>
      <trkpt lat="44.07539" lon="0.55482">
        <ele>158</ele>
        <time>2025-07-24T13:53:18.289Z</time>
      </trkpt>
      <trkpt lat="44.07537" lon="0.55483">
        <ele>158</ele>
        <time>2025-07-24T13:53:19.289Z</time>
      </trkpt>
      <trkpt lat="44.07536" lon="0.55484">
        <ele>158</ele>
        <time>2025-07-24T13:53:20.289Z</time>
      </trkpt>
      <trkpt lat="44.07535" lon="0.55485">
        <ele>159</ele>
        <time>2025-07-24T13:53:21.289Z</time>
      </trkpt>
      <trkpt lat="44.07534" lon="0.55486">
        <ele>159</ele>
        <time>2025-07-24T13:53:22.289Z</time>
      </trkpt>
      <trkpt lat="44.07533" lon="0.55487">
        <ele>159</ele>
        <time>2025-07-24T13:53:23.289Z</time>
      </trkpt>
      <trkpt lat="44.07532" lon="0.55488">
        <ele>160</ele>
        <time>2025-07-24T13:53:24.289Z</time>
      </trkpt>
      <trkpt lat="44.07531" lon="0.55489">
        <ele>160</ele>
        <time>2025-07-24T13:53:25.289Z</time>
      </trkpt>
      <trkpt lat="44.0753" lon="0.55489">
        <ele>159</ele>
        <time>2025-07-24T13:53:26.289Z</time>
      </trkpt>
      <trkpt lat="44.07529" lon="0.5549">
        <ele>159</ele>
        <time>2025-07-24T13:53:27.289Z</time>
      </trkpt>
      <trkpt lat="44.07527" lon="0.55491">
        <ele>159</ele>
        <time>2025-07-24T13:53:28.289Z</time>
      </trkpt>
      <trkpt lat="44.07526" lon="0.55492">
        <ele>159</ele>
        <time>2025-07-24T13:53:29.289Z</time>
      </trkpt>
      <trkpt lat="44.07525" lon="0.55492">
        <ele>159</ele>
        <time>2025-07-24T13:53:30.289Z</time>
      </trkpt>
      <trkpt lat="44.07524" lon="0.55493">
        <ele>158</ele>
        <time>2025-07-24T13:53:31.289Z</time>
      </trkpt>
      <trkpt lat="44.07522" lon="0.55494">
        <ele>158</ele>
        <time>2025-07-24T13:53:32.289Z</time>
      </trkpt>
      <trkpt lat="44.07521" lon="0.55495">
        <ele>158</ele>
        <time>2025-07-24T13:53:33.289Z</time>
      </trkpt>
      <trkpt lat="44.0752" lon="0.55496">
        <ele>158</ele>
        <time>2025-07-24T13:53:34.289Z</time>
      </trkpt>
      <trkpt lat="44.07519" lon="0.55497">
        <ele>158</ele>
        <time>2025-07-24T13:53:35.289Z</time>
      </trkpt>
      <trkpt lat="44.07518" lon="0.55498">
        <ele>158</ele>
        <time>2025-07-24T13:53:36.289Z</time>
      </trkpt>
      <trkpt lat="44.07517" lon="0.55499">
        <ele>158</ele>
        <time>2025-07-24T13:53:37.289Z</time>
      </trkpt>
      <trkpt lat="44.07516" lon="0.555">
        <ele>158</ele>
        <time>2025-07-24T13:53:38.289Z</time>
      </trkpt>
      <trkpt lat="44.07515" lon="0.55501">
        <ele>158</ele>
        <time>2025-07-24T13:53:39.289Z</time>
      </trkpt>
      <trkpt lat="44.07514" lon="0.55502">
        <ele>158</ele>
        <time>2025-07-24T13:53:40.289Z</time>
      </trkpt>
      <trkpt lat="44.07514" lon="0.55503">
        <ele>159</ele>
        <time>2025-07-24T13:53:41.289Z</time>
      </trkpt>
      <trkpt lat="44.07513" lon="0.55503">
        <ele>159</ele>
        <time>2025-07-24T13:53:42.289Z</time>
      </trkpt>
      <trkpt lat="44.07512" lon="0.55504">
        <ele>160</ele>
        <time>2025-07-24T13:53:43.289Z</time>
      </trkpt>
      <trkpt lat="44.07511" lon="0.55504">
        <ele>161</ele>
        <time>2025-07-24T13:53:44.289Z</time>
      </trkpt>
      <trkpt lat="44.07511" lon="0.55505">
        <ele>161</ele>
        <time>2025-07-24T13:53:45.289Z</time>
      </trkpt>
      <trkpt lat="44.0751" lon="0.55505">
        <ele>161</ele>
        <time>2025-07-24T13:53:46.289Z</time>
      </trkpt>
      <trkpt lat="44.07509" lon="0.55505">
        <ele>161</ele>
        <time>2025-07-24T13:53:47.289Z</time>
      </trkpt>
      <trkpt lat="44.07508" lon="0.55505">
        <ele>161</ele>
        <time>2025-07-24T13:53:48.289Z</time>
      </trkpt>
      <trkpt lat="44.07507" lon="0.55505">
        <ele>160</ele>
        <time>2025-07-24T13:53:49.289Z</time>
      </trkpt>
      <trkpt lat="44.07506" lon="0.55503">
        <ele>160</ele>
        <time>2025-07-24T13:53:50.289Z</time>
      </trkpt>
      <trkpt lat="44.07506" lon="0.55503">
        <ele>160</ele>
        <time>2025-07-24T13:53:51.289Z</time>
      </trkpt>
      <trkpt lat="44.07506" lon="0.55502">
        <ele>160</ele>
        <time>2025-07-24T13:53:52.289Z</time>
      </trkpt>
      <trkpt lat="44.07506" lon="0.55502">
        <ele>160</ele>
        <time>2025-07-24T13:53:53.289Z</time>
      </trkpt>
      <trkpt lat="44.07506" lon="0.55501">
        <ele>160</ele>
        <time>2025-07-24T13:53:54.289Z</time>
      </trkpt>
      <trkpt lat="44.07505" lon="0.55501">
        <ele>160</ele>
        <time>2025-07-24T13:53:55.289Z</time>
      </trkpt>
      <trkpt lat="44.07505" lon="0.55501">
        <ele>159</ele>
        <time>2025-07-24T13:53:56.289Z</time>
      </trkpt>
      <trkpt lat="44.07504" lon="0.55501">
        <ele>159</ele>
        <time>2025-07-24T13:53:57.289Z</time>
      </trkpt>
      <trkpt lat="44.07504" lon="0.55501">
        <ele>159</ele>
        <time>2025-07-24T13:53:58.289Z</time>
      </trkpt>
      <trkpt lat="44.07504" lon="0.55501">
        <ele>158</ele>
        <time>2025-07-24T13:53:59.290Z</time>
      </trkpt>
      <trkpt lat="44.07504" lon="0.55501">
        <ele>158</ele>
        <time>2025-07-24T13:54:00.289Z</time>
      </trkpt>
      <trkpt lat="44.07504" lon="0.55501">
        <ele>158</ele>
        <time>2025-07-24T13:54:01.289Z</time>
      </trkpt>
      <trkpt lat="44.07504" lon="0.55501">
        <ele>158</ele>
        <time>2025-07-24T13:54:02.289Z</time>
      </trkpt>
      <trkpt lat="44.07503" lon="0.55501">
        <ele>159</ele>
        <time>2025-07-24T13:54:03.289Z</time>
      </trkpt>
      <trkpt lat="44.07503" lon="0.555">
        <ele>159</ele>
        <time>2025-07-24T13:54:04.289Z</time>
      </trkpt>
      <trkpt lat="44.07503" lon="0.555">
        <ele>160</ele>
        <time>2025-07-24T13:54:05.289Z</time>
      </trkpt>
      <trkpt lat="44.07502" lon="0.55499">
        <ele>160</ele>
        <time>2025-07-24T13:54:06.289Z</time>
      </trkpt>
      <trkpt lat="44.07501" lon="0.55498">
        <ele>160</ele>
        <time>2025-07-24T13:54:07.289Z</time>
      </trkpt>
      <trkpt lat="44.07501" lon="0.55498">
        <ele>161</ele>
        <time>2025-07-24T13:54:08.289Z</time>
      </trkpt>
      <trkpt lat="44.075" lon="0.55497">
        <ele>161</ele>
        <time>2025-07-24T13:54:09.289Z</time>
      </trkpt>
      <trkpt lat="44.075" lon="0.55496">
        <ele>161</ele>
        <time>2025-07-24T13:54:10.289Z</time>
      </trkpt>
      <trkpt lat="44.07499" lon="0.55496">
        <ele>161</ele>
        <time>2025-07-24T13:54:11.289Z</time>
      </trkpt>
      <trkpt lat="44.07499" lon="0.55495">
        <ele>161</ele>
        <time>2025-07-24T13:54:12.289Z</time>
      </trkpt>
      <trkpt lat="44.07498" lon="0.55495">
        <ele>162</ele>
        <time>2025-07-24T13:54:13.289Z</time>
      </trkpt>
      <trkpt lat="44.07498" lon="0.55494">
        <ele>162</ele>
        <time>2025-07-24T13:54:14.289Z</time>
      </trkpt>
      <trkpt lat="44.07498" lon="0.55494">
        <ele>162</ele>
        <time>2025-07-24T13:54:15.289Z</time>
      </trkpt>
      <trkpt lat="44.07497" lon="0.55494">
        <ele>161</ele>
        <time>2025-07-24T13:54:16.289Z</time>
      </trkpt>
      <trkpt lat="44.07497" lon="0.55494">
        <ele>161</ele>
        <time>2025-07-24T13:54:17.289Z</time>
      </trkpt>
      <trkpt lat="44.07497" lon="0.55493">
        <ele>161</ele>
        <time>2025-07-24T13:54:18.289Z</time>
      </trkpt>
      <trkpt lat="44.07496" lon="0.55493">
        <ele>160</ele>
        <time>2025-07-24T13:54:19.289Z</time>
      </trkpt>
      <trkpt lat="44.07496" lon="0.55493">
        <ele>160</ele>
        <time>2025-07-24T13:54:20.289Z</time>
      </trkpt>
      <trkpt lat="44.07496" lon="0.55493">
        <ele>160</ele>
        <time>2025-07-24T13:54:21.289Z</time>
      </trkpt>
      <trkpt lat="44.07496" lon="0.55493">
        <ele>160</ele>
        <time>2025-07-24T13:54:22.289Z</time>
      </trkpt>
      <trkpt lat="44.07496" lon="0.55493">
        <ele>160</ele>
        <time>2025-07-24T13:54:23.289Z</time>
      </trkpt>
      <trkpt lat="44.07496" lon="0.55494">
        <ele>160</ele>
        <time>2025-07-24T13:54:24.289Z</time>
      </trkpt>
      <trkpt lat="44.07496" lon="0.55494">
        <ele>160</ele>
        <time>2025-07-24T13:54:25.289Z</time>
      </trkpt>
      <trkpt lat="44.07496" lon="0.55494">
        <ele>159</ele>
        <time>2025-07-24T13:54:26.289Z</time>
      </trkpt>
      <trkpt lat="44.07496" lon="0.55495">
        <ele>159</ele>
        <time>2025-07-24T13:54:27.289Z</time>
      </trkpt>
      <trkpt lat="44.07496" lon="0.55495">
        <ele>159</ele>
        <time>2025-07-24T13:54:28.289Z</time>
      </trkpt>
      <trkpt lat="44.07496" lon="0.55495">
        <ele>158</ele>
        <time>2025-07-24T13:54:29.289Z</time>
      </trkpt>
      <trkpt lat="44.07496" lon="0.55495">
        <ele>158</ele>
        <time>2025-07-24T13:54:30.289Z</time>
      </trkpt>
      <trkpt lat="44.07496" lon="0.55495">
        <ele>158</ele>
        <time>2025-07-24T13:54:31.289Z</time>
      </trkpt>
      <trkpt lat="44.07496" lon="0.55495">
        <ele>158</ele>
        <time>2025-07-24T13:54:32.289Z</time>
      </trkpt>
      <trkpt lat="44.07496" lon="0.55495">
        <ele>158</ele>
        <time>2025-07-24T13:54:33.290Z</time>
      </trkpt>
      <trkpt lat="44.07496" lon="0.55495">
        <ele>158</ele>
        <time>2025-07-24T13:54:34.289Z</time>
      </trkpt>
      <trkpt lat="44.07496" lon="0.55495">
        <ele>158</ele>
        <time>2025-07-24T13:54:35.289Z</time>
      </trkpt>
      <trkpt lat="44.07496" lon="0.55495">
        <ele>158</ele>
        <time>2025-07-24T13:54:36.289Z</time>
      </trkpt>
      <trkpt lat="44.07496" lon="0.55495">
        <ele>158</ele>
        <time>2025-07-24T13:54:37.289Z</time>
      </trkpt>
      <trkpt lat="44.07496" lon="0.55495">
        <ele>158</ele>
        <time>2025-07-24T13:54:38.289Z</time>
      </trkpt>
      <trkpt lat="44.07496" lon="0.55495">
        <ele>158</ele>
        <time>2025-07-24T13:54:39.289Z</time>
      </trkpt>
      <trkpt lat="44.07495" lon="0.55495">
        <ele>158</ele>
        <time>2025-07-24T13:54:40.289Z</time>
      </trkpt>
      <trkpt lat="44.07495" lon="0.55494">
        <ele>158</ele>
        <time>2025-07-24T13:54:41.289Z</time>
      </trkpt>
      <trkpt lat="44.07496" lon="0.55494">
        <ele>158</ele>
        <time>2025-07-24T13:54:42.289Z</time>
      </trkpt>
      <trkpt lat="44.07495" lon="0.55494">
        <ele>158</ele>
        <time>2025-07-24T13:54:43.289Z</time>
      </trkpt>
      <trkpt lat="44.07495" lon="0.55494">
        <ele>158</ele>
        <time>2025-07-24T13:54:44.289Z</time>
      </trkpt>
      <trkpt lat="44.07495" lon="0.55494">
        <ele>158</ele>
        <time>2025-07-24T13:54:45.289Z</time>
      </trkpt>
      <trkpt lat="44.07495" lon="0.55494">
        <ele>158</ele>
        <time>2025-07-24T13:54:46.289Z</time>
      </trkpt>
      <trkpt lat="44.07495" lon="0.55494">
        <ele>158</ele>
        <time>2025-07-24T13:54:47.289Z</time>
      </trkpt>
      <trkpt lat="44.07495" lon="0.55494">
        <ele>159</ele>
        <time>2025-07-24T13:54:48.289Z</time>
      </trkpt>
      <trkpt lat="44.07495" lon="0.55495">
        <ele>159</ele>
        <time>2025-07-24T13:54:49.289Z</time>
      </trkpt>
      <trkpt lat="44.07495" lon="0.55495">
        <ele>159</ele>
        <time>2025-07-24T13:54:50.289Z</time>
      </trkpt>
      <trkpt lat="44.07495" lon="0.55495">
        <ele>160</ele>
        <time>2025-07-24T13:54:51.289Z</time>
      </trkpt>
      <trkpt lat="44.07495" lon="0.55495">
        <ele>161</ele>
        <time>2025-07-24T13:54:52.289Z</time>
      </trkpt>
      <trkpt lat="44.07495" lon="0.55494">
        <ele>161</ele>
        <time>2025-07-24T13:54:53.289Z</time>
      </trkpt>
      <trkpt lat="44.07495" lon="0.55494">
        <ele>161</ele>
        <time>2025-07-24T13:54:54.289Z</time>
      </trkpt>
      <trkpt lat="44.07495" lon="0.55494">
        <ele>161</ele>
        <time>2025-07-24T13:54:55.289Z</time>
      </trkpt>
      <trkpt lat="44.07495" lon="0.55494">
        <ele>162</ele>
        <time>2025-07-24T13:54:56.289Z</time>
      </trkpt>
      <trkpt lat="44.07495" lon="0.55494">
        <ele>161</ele>
        <time>2025-07-24T13:54:57.289Z</time>
      </trkpt>
      <trkpt lat="44.07495" lon="0.55493">
        <ele>161</ele>
        <time>2025-07-24T13:54:58.289Z</time>
      </trkpt>
      <trkpt lat="44.07495" lon="0.55493">
        <ele>161</ele>
        <time>2025-07-24T13:54:59.289Z</time>
      </trkpt>
      <trkpt lat="44.07495" lon="0.55493">
        <ele>161</ele>
        <time>2025-07-24T13:55:00.289Z</time>
      </trkpt>
      <trkpt lat="44.07495" lon="0.55493">
        <ele>160</ele>
        <time>2025-07-24T13:55:01.289Z</time>
      </trkpt>
      <trkpt lat="44.07495" lon="0.55493">
        <ele>160</ele>
        <time>2025-07-24T13:55:02.289Z</time>
      </trkpt>
      <trkpt lat="44.07495" lon="0.55493">
        <ele>160</ele>
        <time>2025-07-24T13:55:03.289Z</time>
      </trkpt>
      <trkpt lat="44.07495" lon="0.55493">
        <ele>160</ele>
        <time>2025-07-24T13:55:04.289Z</time>
      </trkpt>
      <trkpt lat="44.07495" lon="0.55493">
        <ele>160</ele>
        <time>2025-07-24T13:55:05.289Z</time>
      </trkpt>
      <trkpt lat="44.07495" lon="0.55493">
        <ele>160</ele>
        <time>2025-07-24T13:55:06.289Z</time>
      </trkpt>
      <trkpt lat="44.07495" lon="0.55493">
        <ele>160</ele>
        <time>2025-07-24T13:55:07.289Z</time>
      </trkpt>
      <trkpt lat="44.07495" lon="0.55493">
        <ele>160</ele>
        <time>2025-07-24T13:55:08.289Z</time>
      </trkpt>
      <trkpt lat="44.07495" lon="0.55493">
        <ele>160</ele>
        <time>2025-07-24T13:55:09.289Z</time>
      </trkpt>
      <trkpt lat="44.07495" lon="0.55493">
        <ele>160</ele>
        <time>2025-07-24T13:55:10.289Z</time>
      </trkpt>
      <trkpt lat="44.07495" lon="0.55494">
        <ele>160</ele>
        <time>2025-07-24T13:55:11.289Z</time>
      </trkpt>
      <trkpt lat="44.07495" lon="0.55494">
        <ele>160</ele>
        <time>2025-07-24T13:55:12.289Z</time>
      </trkpt>
      <trkpt lat="44.07495" lon="0.55495">
        <ele>161</ele>
        <time>2025-07-24T13:55:13.289Z</time>
      </trkpt>
      <trkpt lat="44.07495" lon="0.55496">
        <ele>161</ele>
        <time>2025-07-24T13:55:14.289Z</time>
      </trkpt>
      <trkpt lat="44.07495" lon="0.55496">
        <ele>161</ele>
        <time>2025-07-24T13:55:15.289Z</time>
      </trkpt>
      <trkpt lat="44.07496" lon="0.55496">
        <ele>161</ele>
        <time>2025-07-24T13:55:16.289Z</time>
      </trkpt>
      <trkpt lat="44.07496" lon="0.55496">
        <ele>161</ele>
        <time>2025-07-24T13:55:17.289Z</time>
      </trkpt>
      <trkpt lat="44.07496" lon="0.55496">
        <ele>161</ele>
        <time>2025-07-24T13:55:18.289Z</time>
      </trkpt>
      <trkpt lat="44.07496" lon="0.55496">
        <ele>161</ele>
        <time>2025-07-24T13:55:19.289Z</time>
      </trkpt>
      <trkpt lat="44.07496" lon="0.55496">
        <ele>161</ele>
        <time>2025-07-24T13:55:20.289Z</time>
      </trkpt>
      <trkpt lat="44.07496" lon="0.55497">
        <ele>162</ele>
        <time>2025-07-24T13:55:21.289Z</time>
      </trkpt>
      <trkpt lat="44.07496" lon="0.55496">
        <ele>162</ele>
        <time>2025-07-24T13:55:22.289Z</time>
      </trkpt>
      <trkpt lat="44.07496" lon="0.55496">
        <ele>162</ele>
        <time>2025-07-24T13:55:23.289Z</time>
      </trkpt>
      <trkpt lat="44.07496" lon="0.55496">
        <ele>162</ele>
        <time>2025-07-24T13:55:24.289Z</time>
      </trkpt>
      <trkpt lat="44.07496" lon="0.55496">
        <ele>162</ele>
        <time>2025-07-24T13:55:25.289Z</time>
      </trkpt>
      <trkpt lat="44.07496" lon="0.55496">
        <ele>161</ele>
        <time>2025-07-24T13:55:26.289Z</time>
      </trkpt>
      <trkpt lat="44.07496" lon="0.55496">
        <ele>161</ele>
        <time>2025-07-24T13:55:27.289Z</time>
      </trkpt>
      <trkpt lat="44.07496" lon="0.55496">
        <ele>161</ele>
        <time>2025-07-24T13:55:28.289Z</time>
      </trkpt>
      <trkpt lat="44.07496" lon="0.55496">
        <ele>161</ele>
        <time>2025-07-24T13:55:29.289Z</time>
      </trkpt>
      <trkpt lat="44.07496" lon="0.55496">
        <ele>160</ele>
        <time>2025-07-24T13:55:30.289Z</time>
      </trkpt>
      <trkpt lat="44.07496" lon="0.55496">
        <ele>160</ele>
        <time>2025-07-24T13:55:31.289Z</time>
      </trkpt>
      <trkpt lat="44.07497" lon="0.55496">
        <ele>160</ele>
        <time>2025-07-24T13:55:32.289Z</time>
      </trkpt>
      <trkpt lat="44.07497" lon="0.55496">
        <ele>160</ele>
        <time>2025-07-24T13:55:33.289Z</time>
      </trkpt>
      <trkpt lat="44.07497" lon="0.55496">
        <ele>160</ele>
        <time>2025-07-24T13:55:34.289Z</time>
      </trkpt>
      <trkpt lat="44.07497" lon="0.55496">
        <ele>160</ele>
        <time>2025-07-24T13:55:35.289Z</time>
      </trkpt>
      <trkpt lat="44.07497" lon="0.55496">
        <ele>159</ele>
        <time>2025-07-24T13:55:36.289Z</time>
      </trkpt>
      <trkpt lat="44.07497" lon="0.55496">
        <ele>159</ele>
        <time>2025-07-24T13:55:37.289Z</time>
      </trkpt>
      <trkpt lat="44.07497" lon="0.55496">
        <ele>159</ele>
        <time>2025-07-24T13:55:38.289Z</time>
      </trkpt>
      <trkpt lat="44.07497" lon="0.55494">
        <ele>159</ele>
        <time>2025-07-24T13:55:39.289Z</time>
      </trkpt>
      <trkpt lat="44.07497" lon="0.55493">
        <ele>160</ele>
        <time>2025-07-24T13:55:40.289Z</time>
      </trkpt>
      <trkpt lat="44.07497" lon="0.55492">
        <ele>160</ele>
        <time>2025-07-24T13:55:41.289Z</time>
      </trkpt>
      <trkpt lat="44.07497" lon="0.55492">
        <ele>160</ele>
        <time>2025-07-24T13:55:42.289Z</time>
      </trkpt>
      <trkpt lat="44.07497" lon="0.55492">
        <ele>160</ele>
        <time>2025-07-24T13:55:43.289Z</time>
      </trkpt>
      <trkpt lat="44.07497" lon="0.55491">
        <ele>160</ele>
        <time>2025-07-24T13:55:44.289Z</time>
      </trkpt>
      <trkpt lat="44.07498" lon="0.55491">
        <ele>160</ele>
        <time>2025-07-24T13:55:45.289Z</time>
      </trkpt>
      <trkpt lat="44.07498" lon="0.55491">
        <ele>159</ele>
        <time>2025-07-24T13:55:46.289Z</time>
      </trkpt>
      <trkpt lat="44.07498" lon="0.55491">
        <ele>159</ele>
        <time>2025-07-24T13:55:47.289Z</time>
      </trkpt>
      <trkpt lat="44.07498" lon="0.55491">
        <ele>159</ele>
        <time>2025-07-24T13:55:48.289Z</time>
      </trkpt>
      <trkpt lat="44.07498" lon="0.55491">
        <ele>159</ele>
        <time>2025-07-24T13:55:49.289Z</time>
      </trkpt>
      <trkpt lat="44.07498" lon="0.55491">
        <ele>159</ele>
        <time>2025-07-24T13:55:50.289Z</time>
      </trkpt>
      <trkpt lat="44.07498" lon="0.55491">
        <ele>158</ele>
        <time>2025-07-24T13:55:51.289Z</time>
      </trkpt>
      <trkpt lat="44.07498" lon="0.55491">
        <ele>158</ele>
        <time>2025-07-24T13:55:52.289Z</time>
      </trkpt>
      <trkpt lat="44.07498" lon="0.55491">
        <ele>158</ele>
        <time>2025-07-24T13:55:53.289Z</time>
      </trkpt>
      <trkpt lat="44.07498" lon="0.55492">
        <ele>158</ele>
        <time>2025-07-24T13:55:54.289Z</time>
      </trkpt>
      <trkpt lat="44.07498" lon="0.55493">
        <ele>157</ele>
        <time>2025-07-24T13:55:55.289Z</time>
      </trkpt>
      <trkpt lat="44.07498" lon="0.55493">
        <ele>157</ele>
        <time>2025-07-24T13:55:56.289Z</time>
      </trkpt>
      <trkpt lat="44.07497" lon="0.55493">
        <ele>157</ele>
        <time>2025-07-24T13:55:57.289Z</time>
      </trkpt>
      <trkpt lat="44.07497" lon="0.55494">
        <ele>157</ele>
        <time>2025-07-24T13:55:58.289Z</time>
      </trkpt>
      <trkpt lat="44.07497" lon="0.55494">
        <ele>157</ele>
        <time>2025-07-24T13:55:59.289Z</time>
      </trkpt>
      <trkpt lat="44.07497" lon="0.55495">
        <ele>157</ele>
        <time>2025-07-24T13:56:00.289Z</time>
      </trkpt>
      <trkpt lat="44.07498" lon="0.55496">
        <ele>157</ele>
        <time>2025-07-24T13:56:01.289Z</time>
      </trkpt>
      <trkpt lat="44.07498" lon="0.55497">
        <ele>157</ele>
        <time>2025-07-24T13:56:02.289Z</time>
      </trkpt>
      <trkpt lat="44.07498" lon="0.55499">
        <ele>157</ele>
        <time>2025-07-24T13:56:03.289Z</time>
      </trkpt>
      <trkpt lat="44.07498" lon="0.555">
        <ele>157</ele>
        <time>2025-07-24T13:56:04.289Z</time>
      </trkpt>
      <trkpt lat="44.07498" lon="0.55501">
        <ele>157</ele>
        <time>2025-07-24T13:56:05.289Z</time>
      </trkpt>
      <trkpt lat="44.07499" lon="0.55503">
        <ele>157</ele>
        <time>2025-07-24T13:56:06.289Z</time>
      </trkpt>
      <trkpt lat="44.07498" lon="0.55504">
        <ele>157</ele>
        <time>2025-07-24T13:56:07.289Z</time>
      </trkpt>
      <trkpt lat="44.07498" lon="0.55506">
        <ele>157</ele>
        <time>2025-07-24T13:56:08.289Z</time>
      </trkpt>
      <trkpt lat="44.07498" lon="0.55507">
        <ele>157</ele>
        <time>2025-07-24T13:56:09.289Z</time>
      </trkpt>
      <trkpt lat="44.07498" lon="0.55509">
        <ele>158</ele>
        <time>2025-07-24T13:56:10.289Z</time>
      </trkpt>
      <trkpt lat="44.07499" lon="0.5551">
        <ele>158</ele>
        <time>2025-07-24T13:56:11.289Z</time>
      </trkpt>
      <trkpt lat="44.07499" lon="0.55512">
        <ele>158</ele>
        <time>2025-07-24T13:56:12.289Z</time>
      </trkpt>
      <trkpt lat="44.07499" lon="0.55513">
        <ele>158</ele>
        <time>2025-07-24T13:56:13.289Z</time>
      </trkpt>
      <trkpt lat="44.07499" lon="0.55515">
        <ele>158</ele>
        <time>2025-07-24T13:56:14.289Z</time>
      </trkpt>
      <trkpt lat="44.07499" lon="0.55517">
        <ele>158</ele>
        <time>2025-07-24T13:56:15.289Z</time>
      </trkpt>
      <trkpt lat="44.07498" lon="0.55518">
        <ele>158</ele>
        <time>2025-07-24T13:56:16.289Z</time>
      </trkpt>
      <trkpt lat="44.07498" lon="0.5552">
        <ele>158</ele>
        <time>2025-07-24T13:56:17.289Z</time>
      </trkpt>
      <trkpt lat="44.07498" lon="0.55521">
        <ele>158</ele>
        <time>2025-07-24T13:56:18.289Z</time>
      </trkpt>
      <trkpt lat="44.07498" lon="0.55523">
        <ele>158</ele>
        <time>2025-07-24T13:56:19.289Z</time>
      </trkpt>
      <trkpt lat="44.07499" lon="0.55524">
        <ele>158</ele>
        <time>2025-07-24T13:56:20.289Z</time>
      </trkpt>
      <trkpt lat="44.07499" lon="0.55525">
        <ele>158</ele>
        <time>2025-07-24T13:56:21.289Z</time>
      </trkpt>
      <trkpt lat="44.07499" lon="0.55527">
        <ele>157</ele>
        <time>2025-07-24T13:56:22.289Z</time>
      </trkpt>
      <trkpt lat="44.075" lon="0.55528">
        <ele>157</ele>
        <time>2025-07-24T13:56:23.289Z</time>
      </trkpt>
      <trkpt lat="44.075" lon="0.55529">
        <ele>157</ele>
        <time>2025-07-24T13:56:24.289Z</time>
      </trkpt>
      <trkpt lat="44.075" lon="0.55531">
        <ele>157</ele>
        <time>2025-07-24T13:56:25.289Z</time>
      </trkpt>
      <trkpt lat="44.075" lon="0.55532">
        <ele>157</ele>
        <time>2025-07-24T13:56:26.289Z</time>
      </trkpt>
      <trkpt lat="44.075" lon="0.55533">
        <ele>157</ele>
        <time>2025-07-24T13:56:27.289Z</time>
      </trkpt>
      <trkpt lat="44.075" lon="0.55534">
        <ele>157</ele>
        <time>2025-07-24T13:56:28.289Z</time>
      </trkpt>
      <trkpt lat="44.075" lon="0.55536">
        <ele>157</ele>
        <time>2025-07-24T13:56:29.289Z</time>
      </trkpt>
      <trkpt lat="44.07501" lon="0.55537">
        <ele>157</ele>
        <time>2025-07-24T13:56:30.289Z</time>
      </trkpt>
      <trkpt lat="44.07501" lon="0.55538">
        <ele>157</ele>
        <time>2025-07-24T13:56:31.289Z</time>
      </trkpt>
      <trkpt lat="44.07501" lon="0.5554">
        <ele>158</ele>
        <time>2025-07-24T13:56:32.289Z</time>
      </trkpt>
      <trkpt lat="44.07501" lon="0.55541">
        <ele>158</ele>
        <time>2025-07-24T13:56:33.289Z</time>
      </trkpt>
      <trkpt lat="44.07501" lon="0.55543">
        <ele>158</ele>
        <time>2025-07-24T13:56:34.289Z</time>
      </trkpt>
      <trkpt lat="44.07502" lon="0.55543">
        <ele>157</ele>
        <time>2025-07-24T13:56:35.289Z</time>
      </trkpt>
      <trkpt lat="44.07502" lon="0.55544">
        <ele>157</ele>
        <time>2025-07-24T13:56:36.289Z</time>
      </trkpt>
      <trkpt lat="44.07502" lon="0.55545">
        <ele>157</ele>
        <time>2025-07-24T13:56:37.289Z</time>
      </trkpt>
      <trkpt lat="44.07502" lon="0.55546">
        <ele>157</ele>
        <time>2025-07-24T13:56:38.289Z</time>
      </trkpt>
      <trkpt lat="44.07502" lon="0.55547">
        <ele>157</ele>
        <time>2025-07-24T13:56:39.289Z</time>
      </trkpt>
      <trkpt lat="44.07503" lon="0.55549">
        <ele>157</ele>
        <time>2025-07-24T13:56:40.289Z</time>
      </trkpt>
      <trkpt lat="44.07503" lon="0.5555">
        <ele>158</ele>
        <time>2025-07-24T13:56:41.289Z</time>
      </trkpt>
      <trkpt lat="44.07503" lon="0.55551">
        <ele>158</ele>
        <time>2025-07-24T13:56:42.289Z</time>
      </trkpt>
      <trkpt lat="44.07504" lon="0.55553">
        <ele>157</ele>
        <time>2025-07-24T13:56:43.289Z</time>
      </trkpt>
      <trkpt lat="44.07504" lon="0.55555">
        <ele>157</ele>
        <time>2025-07-24T13:56:44.289Z</time>
      </trkpt>
      <trkpt lat="44.07505" lon="0.55556">
        <ele>157</ele>
        <time>2025-07-24T13:56:45.289Z</time>
      </trkpt>
      <trkpt lat="44.07505" lon="0.55557">
        <ele>157</ele>
        <time>2025-07-24T13:56:46.289Z</time>
      </trkpt>
      <trkpt lat="44.07505" lon="0.55559">
        <ele>156</ele>
        <time>2025-07-24T13:56:47.289Z</time>
      </trkpt>
      <trkpt lat="44.07505" lon="0.5556">
        <ele>156</ele>
        <time>2025-07-24T13:56:48.289Z</time>
      </trkpt>
      <trkpt lat="44.07505" lon="0.55562">
        <ele>156</ele>
        <time>2025-07-24T13:56:49.289Z</time>
      </trkpt>
      <trkpt lat="44.07505" lon="0.55563">
        <ele>156</ele>
        <time>2025-07-24T13:56:50.289Z</time>
      </trkpt>
      <trkpt lat="44.07506" lon="0.55564">
        <ele>156</ele>
        <time>2025-07-24T13:56:51.289Z</time>
      </trkpt>
      <trkpt lat="44.07506" lon="0.55566">
        <ele>156</ele>
        <time>2025-07-24T13:56:52.289Z</time>
      </trkpt>
      <trkpt lat="44.07506" lon="0.55568">
        <ele>155</ele>
        <time>2025-07-24T13:56:53.289Z</time>
      </trkpt>
      <trkpt lat="44.07507" lon="0.55569">
        <ele>155</ele>
        <time>2025-07-24T13:56:54.289Z</time>
      </trkpt>
      <trkpt lat="44.07507" lon="0.5557">
        <ele>154</ele>
        <time>2025-07-24T13:56:55.289Z</time>
      </trkpt>
      <trkpt lat="44.07507" lon="0.55572">
        <ele>154</ele>
        <time>2025-07-24T13:56:56.289Z</time>
      </trkpt>
      <trkpt lat="44.07507" lon="0.55573">
        <ele>153</ele>
        <time>2025-07-24T13:56:57.289Z</time>
      </trkpt>
      <trkpt lat="44.07507" lon="0.55574">
        <ele>153</ele>
        <time>2025-07-24T13:56:58.289Z</time>
      </trkpt>
      <trkpt lat="44.07507" lon="0.55575">
        <ele>152</ele>
        <time>2025-07-24T13:56:59.289Z</time>
      </trkpt>
      <trkpt lat="44.07507" lon="0.55576">
        <ele>152</ele>
        <time>2025-07-24T13:57:00.289Z</time>
      </trkpt>
      <trkpt lat="44.07507" lon="0.55578">
        <ele>152</ele>
        <time>2025-07-24T13:57:01.289Z</time>
      </trkpt>
      <trkpt lat="44.07507" lon="0.55579">
        <ele>152</ele>
        <time>2025-07-24T13:57:02.289Z</time>
      </trkpt>
      <trkpt lat="44.07507" lon="0.5558">
        <ele>152</ele>
        <time>2025-07-24T13:57:03.289Z</time>
      </trkpt>
      <trkpt lat="44.07508" lon="0.55582">
        <ele>153</ele>
        <time>2025-07-24T13:57:04.289Z</time>
      </trkpt>
      <trkpt lat="44.07508" lon="0.55583">
        <ele>153</ele>
        <time>2025-07-24T13:57:05.289Z</time>
      </trkpt>
      <trkpt lat="44.07508" lon="0.55584">
        <ele>153</ele>
        <time>2025-07-24T13:57:06.289Z</time>
      </trkpt>
      <trkpt lat="44.07509" lon="0.55586">
        <ele>153</ele>
        <time>2025-07-24T13:57:07.289Z</time>
      </trkpt>
      <trkpt lat="44.07509" lon="0.55588">
        <ele>153</ele>
        <time>2025-07-24T13:57:08.289Z</time>
      </trkpt>
      <trkpt lat="44.0751" lon="0.55589">
        <ele>153</ele>
        <time>2025-07-24T13:57:09.289Z</time>
      </trkpt>
      <trkpt lat="44.0751" lon="0.55591">
        <ele>153</ele>
        <time>2025-07-24T13:57:10.289Z</time>
      </trkpt>
      <trkpt lat="44.07511" lon="0.55595">
        <ele>152</ele>
        <time>2025-07-24T13:57:11.289Z</time>
      </trkpt>
      <trkpt lat="44.07512" lon="0.55597">
        <ele>152</ele>
        <time>2025-07-24T13:57:12.289Z</time>
      </trkpt>
      <trkpt lat="44.07513" lon="0.55598">
        <ele>152</ele>
        <time>2025-07-24T13:57:13.289Z</time>
      </trkpt>
      <trkpt lat="44.07513" lon="0.556">
        <ele>152</ele>
        <time>2025-07-24T13:57:14.289Z</time>
      </trkpt>
      <trkpt lat="44.07513" lon="0.55601">
        <ele>152</ele>
        <time>2025-07-24T13:57:15.289Z</time>
      </trkpt>
      <trkpt lat="44.07513" lon="0.55603">
        <ele>152</ele>
        <time>2025-07-24T13:57:16.289Z</time>
      </trkpt>
      <trkpt lat="44.07513" lon="0.55604">
        <ele>152</ele>
        <time>2025-07-24T13:57:17.289Z</time>
      </trkpt>
      <trkpt lat="44.07514" lon="0.55606">
        <ele>153</ele>
        <time>2025-07-24T13:57:18.289Z</time>
      </trkpt>
      <trkpt lat="44.07514" lon="0.55607">
        <ele>153</ele>
        <time>2025-07-24T13:57:19.289Z</time>
      </trkpt>
      <trkpt lat="44.07515" lon="0.55609">
        <ele>153</ele>
        <time>2025-07-24T13:57:20.289Z</time>
      </trkpt>
      <trkpt lat="44.07516" lon="0.5561">
        <ele>153</ele>
        <time>2025-07-24T13:57:21.289Z</time>
      </trkpt>
      <trkpt lat="44.07517" lon="0.55611">
        <ele>154</ele>
        <time>2025-07-24T13:57:22.289Z</time>
      </trkpt>
      <trkpt lat="44.07517" lon="0.55613">
        <ele>154</ele>
        <time>2025-07-24T13:57:23.289Z</time>
      </trkpt>
      <trkpt lat="44.07518" lon="0.55614">
        <ele>154</ele>
        <time>2025-07-24T13:57:24.289Z</time>
      </trkpt>
      <trkpt lat="44.07518" lon="0.55616">
        <ele>154</ele>
        <time>2025-07-24T13:57:25.290Z</time>
      </trkpt>
      <trkpt lat="44.07517" lon="0.55617">
        <ele>154</ele>
        <time>2025-07-24T13:57:26.289Z</time>
      </trkpt>
      <trkpt lat="44.07517" lon="0.55618">
        <ele>153</ele>
        <time>2025-07-24T13:57:27.289Z</time>
      </trkpt>
      <trkpt lat="44.07517" lon="0.55619">
        <ele>153</ele>
        <time>2025-07-24T13:57:28.289Z</time>
      </trkpt>
      <trkpt lat="44.07517" lon="0.55619">
        <ele>153</ele>
        <time>2025-07-24T13:57:29.289Z</time>
      </trkpt>
      <trkpt lat="44.07516" lon="0.55618">
        <ele>153</ele>
        <time>2025-07-24T13:57:30.289Z</time>
      </trkpt>
      <trkpt lat="44.07516" lon="0.55618">
        <ele>152</ele>
        <time>2025-07-24T13:57:31.289Z</time>
      </trkpt>
      <trkpt lat="44.07516" lon="0.55618">
        <ele>152</ele>
        <time>2025-07-24T13:57:32.289Z</time>
      </trkpt>
      <trkpt lat="44.07516" lon="0.55618">
        <ele>152</ele>
        <time>2025-07-24T13:57:33.289Z</time>
      </trkpt>
      <trkpt lat="44.07516" lon="0.55618">
        <ele>152</ele>
        <time>2025-07-24T13:57:34.289Z</time>
      </trkpt>
      <trkpt lat="44.07516" lon="0.5562">
        <ele>152</ele>
        <time>2025-07-24T13:57:35.289Z</time>
      </trkpt>
      <trkpt lat="44.07516" lon="0.55621">
        <ele>152</ele>
        <time>2025-07-24T13:57:36.289Z</time>
      </trkpt>
      <trkpt lat="44.07516" lon="0.55623">
        <ele>153</ele>
        <time>2025-07-24T13:57:37.289Z</time>
      </trkpt>
      <trkpt lat="44.07516" lon="0.55624">
        <ele>153</ele>
        <time>2025-07-24T13:57:38.289Z</time>
      </trkpt>
      <trkpt lat="44.07516" lon="0.55626">
        <ele>153</ele>
        <time>2025-07-24T13:57:39.289Z</time>
      </trkpt>
      <trkpt lat="44.07517" lon="0.55628">
        <ele>153</ele>
        <time>2025-07-24T13:57:40.289Z</time>
      </trkpt>
      <trkpt lat="44.07517" lon="0.5563">
        <ele>153</ele>
        <time>2025-07-24T13:57:41.289Z</time>
      </trkpt>
      <trkpt lat="44.07517" lon="0.55631">
        <ele>153</ele>
        <time>2025-07-24T13:57:42.289Z</time>
      </trkpt>
      <trkpt lat="44.07517" lon="0.55633">
        <ele>152</ele>
        <time>2025-07-24T13:57:43.289Z</time>
      </trkpt>
      <trkpt lat="44.07517" lon="0.55635">
        <ele>152</ele>
        <time>2025-07-24T13:57:44.289Z</time>
      </trkpt>
      <trkpt lat="44.07517" lon="0.55636">
        <ele>151</ele>
        <time>2025-07-24T13:57:45.289Z</time>
      </trkpt>
      <trkpt lat="44.07517" lon="0.55636">
        <ele>151</ele>
        <time>2025-07-24T13:57:46.289Z</time>
      </trkpt>
      <trkpt lat="44.07517" lon="0.55637">
        <ele>151</ele>
        <time>2025-07-24T13:57:47.289Z</time>
      </trkpt>
      <trkpt lat="44.07517" lon="0.55638">
        <ele>151</ele>
        <time>2025-07-24T13:57:48.289Z</time>
      </trkpt>
      <trkpt lat="44.07517" lon="0.55638">
        <ele>151</ele>
        <time>2025-07-24T13:57:49.289Z</time>
      </trkpt>
      <trkpt lat="44.07517" lon="0.55638">
        <ele>151</ele>
        <time>2025-07-24T13:57:50.289Z</time>
      </trkpt>
      <trkpt lat="44.07517" lon="0.55638">
        <ele>151</ele>
        <time>2025-07-24T13:57:51.289Z</time>
      </trkpt>
      <trkpt lat="44.07518" lon="0.55639">
        <ele>151</ele>
        <time>2025-07-24T13:57:52.289Z</time>
      </trkpt>
      <trkpt lat="44.07518" lon="0.5564">
        <ele>152</ele>
        <time>2025-07-24T13:57:53.289Z</time>
      </trkpt>
      <trkpt lat="44.07518" lon="0.55641">
        <ele>152</ele>
        <time>2025-07-24T13:57:54.289Z</time>
      </trkpt>
      <trkpt lat="44.07518" lon="0.55642">
        <ele>152</ele>
        <time>2025-07-24T13:57:55.289Z</time>
      </trkpt>
      <trkpt lat="44.07517" lon="0.55643">
        <ele>152</ele>
        <time>2025-07-24T13:57:56.289Z</time>
      </trkpt>
      <trkpt lat="44.07517" lon="0.55645">
        <ele>152</ele>
        <time>2025-07-24T13:57:57.289Z</time>
      </trkpt>
      <trkpt lat="44.07517" lon="0.55646">
        <ele>152</ele>
        <time>2025-07-24T13:57:58.289Z</time>
      </trkpt>
      <trkpt lat="44.07518" lon="0.55648">
        <ele>152</ele>
        <time>2025-07-24T13:57:59.290Z</time>
      </trkpt>
      <trkpt lat="44.07518" lon="0.55649">
        <ele>152</ele>
        <time>2025-07-24T13:58:00.289Z</time>
      </trkpt>
      <trkpt lat="44.07518" lon="0.55651">
        <ele>152</ele>
        <time>2025-07-24T13:58:01.289Z</time>
      </trkpt>
      <trkpt lat="44.07519" lon="0.55652">
        <ele>152</ele>
        <time>2025-07-24T13:58:02.289Z</time>
      </trkpt>
      <trkpt lat="44.07519" lon="0.55654">
        <ele>152</ele>
        <time>2025-07-24T13:58:03.289Z</time>
      </trkpt>
      <trkpt lat="44.07518" lon="0.55655">
        <ele>152</ele>
        <time>2025-07-24T13:58:04.289Z</time>
      </trkpt>
      <trkpt lat="44.07518" lon="0.55657">
        <ele>152</ele>
        <time>2025-07-24T13:58:05.289Z</time>
      </trkpt>
      <trkpt lat="44.07518" lon="0.55658">
        <ele>152</ele>
        <time>2025-07-24T13:58:06.289Z</time>
      </trkpt>
      <trkpt lat="44.07517" lon="0.55659">
        <ele>152</ele>
        <time>2025-07-24T13:58:07.289Z</time>
      </trkpt>
      <trkpt lat="44.07517" lon="0.5566">
        <ele>151</ele>
        <time>2025-07-24T13:58:08.289Z</time>
      </trkpt>
      <trkpt lat="44.07516" lon="0.55661">
        <ele>151</ele>
        <time>2025-07-24T13:58:09.289Z</time>
      </trkpt>
      <trkpt lat="44.07516" lon="0.55662">
        <ele>151</ele>
        <time>2025-07-24T13:58:10.289Z</time>
      </trkpt>
      <trkpt lat="44.07515" lon="0.55663">
        <ele>151</ele>
        <time>2025-07-24T13:58:11.289Z</time>
      </trkpt>
      <trkpt lat="44.07515" lon="0.55664">
        <ele>151</ele>
        <time>2025-07-24T13:58:12.289Z</time>
      </trkpt>
      <trkpt lat="44.07514" lon="0.55666">
        <ele>151</ele>
        <time>2025-07-24T13:58:13.289Z</time>
      </trkpt>
      <trkpt lat="44.07514" lon="0.55667">
        <ele>151</ele>
        <time>2025-07-24T13:58:14.289Z</time>
      </trkpt>
      <trkpt lat="44.07513" lon="0.55668">
        <ele>152</ele>
        <time>2025-07-24T13:58:15.289Z</time>
      </trkpt>
      <trkpt lat="44.07513" lon="0.55669">
        <ele>152</ele>
        <time>2025-07-24T13:58:16.289Z</time>
      </trkpt>
      <trkpt lat="44.07513" lon="0.5567">
        <ele>152</ele>
        <time>2025-07-24T13:58:17.289Z</time>
      </trkpt>
      <trkpt lat="44.07512" lon="0.5567">
        <ele>152</ele>
        <time>2025-07-24T13:58:18.289Z</time>
      </trkpt>
      <trkpt lat="44.07512" lon="0.55672">
        <ele>152</ele>
        <time>2025-07-24T13:58:19.289Z</time>
      </trkpt>
      <trkpt lat="44.07512" lon="0.55673">
        <ele>152</ele>
        <time>2025-07-24T13:58:20.289Z</time>
      </trkpt>
      <trkpt lat="44.07512" lon="0.55675">
        <ele>152</ele>
        <time>2025-07-24T13:58:21.289Z</time>
      </trkpt>
      <trkpt lat="44.07511" lon="0.55676">
        <ele>152</ele>
        <time>2025-07-24T13:58:22.289Z</time>
      </trkpt>
      <trkpt lat="44.07511" lon="0.55678">
        <ele>152</ele>
        <time>2025-07-24T13:58:23.289Z</time>
      </trkpt>
      <trkpt lat="44.0751" lon="0.55679">
        <ele>152</ele>
        <time>2025-07-24T13:58:24.289Z</time>
      </trkpt>
      <trkpt lat="44.07509" lon="0.55681">
        <ele>152</ele>
        <time>2025-07-24T13:58:25.289Z</time>
      </trkpt>
      <trkpt lat="44.07509" lon="0.55682">
        <ele>152</ele>
        <time>2025-07-24T13:58:26.289Z</time>
      </trkpt>
      <trkpt lat="44.07509" lon="0.55683">
        <ele>152</ele>
        <time>2025-07-24T13:58:27.289Z</time>
      </trkpt>
      <trkpt lat="44.07508" lon="0.55685">
        <ele>152</ele>
        <time>2025-07-24T13:58:28.289Z</time>
      </trkpt>
      <trkpt lat="44.07508" lon="0.55686">
        <ele>152</ele>
        <time>2025-07-24T13:58:29.289Z</time>
      </trkpt>
      <trkpt lat="44.07508" lon="0.55687">
        <ele>151</ele>
        <time>2025-07-24T13:58:30.289Z</time>
      </trkpt>
      <trkpt lat="44.07508" lon="0.55689">
        <ele>152</ele>
        <time>2025-07-24T13:58:31.289Z</time>
      </trkpt>
      <trkpt lat="44.07507" lon="0.5569">
        <ele>151</ele>
        <time>2025-07-24T13:58:32.289Z</time>
      </trkpt>
      <trkpt lat="44.07507" lon="0.55691">
        <ele>151</ele>
        <time>2025-07-24T13:58:33.289Z</time>
      </trkpt>
      <trkpt lat="44.07506" lon="0.55693">
        <ele>151</ele>
        <time>2025-07-24T13:58:34.289Z</time>
      </trkpt>
      <trkpt lat="44.07505" lon="0.55694">
        <ele>151</ele>
        <time>2025-07-24T13:58:35.289Z</time>
      </trkpt>
      <trkpt lat="44.07505" lon="0.55695">
        <ele>151</ele>
        <time>2025-07-24T13:58:36.289Z</time>
      </trkpt>
      <trkpt lat="44.07504" lon="0.55697">
        <ele>151</ele>
        <time>2025-07-24T13:58:37.289Z</time>
      </trkpt>
      <trkpt lat="44.07504" lon="0.55699">
        <ele>151</ele>
        <time>2025-07-24T13:58:38.289Z</time>
      </trkpt>
      <trkpt lat="44.07504" lon="0.557">
        <ele>151</ele>
        <time>2025-07-24T13:58:39.289Z</time>
      </trkpt>
      <trkpt lat="44.07503" lon="0.55701">
        <ele>151</ele>
        <time>2025-07-24T13:58:40.289Z</time>
      </trkpt>
      <trkpt lat="44.07502" lon="0.55703">
        <ele>151</ele>
        <time>2025-07-24T13:58:41.289Z</time>
      </trkpt>
      <trkpt lat="44.07502" lon="0.55704">
        <ele>151</ele>
        <time>2025-07-24T13:58:42.289Z</time>
      </trkpt>
      <trkpt lat="44.07502" lon="0.55705">
        <ele>151</ele>
        <time>2025-07-24T13:58:43.289Z</time>
      </trkpt>
      <trkpt lat="44.07501" lon="0.55707">
        <ele>151</ele>
        <time>2025-07-24T13:58:44.289Z</time>
      </trkpt>
      <trkpt lat="44.07501" lon="0.55708">
        <ele>151</ele>
        <time>2025-07-24T13:58:45.289Z</time>
      </trkpt>
      <trkpt lat="44.07501" lon="0.5571">
        <ele>151</ele>
        <time>2025-07-24T13:58:46.289Z</time>
      </trkpt>
      <trkpt lat="44.07501" lon="0.55711">
        <ele>151</ele>
        <time>2025-07-24T13:58:47.289Z</time>
      </trkpt>
      <trkpt lat="44.07501" lon="0.55713">
        <ele>151</ele>
        <time>2025-07-24T13:58:48.289Z</time>
      </trkpt>
      <trkpt lat="44.07501" lon="0.55714">
        <ele>151</ele>
        <time>2025-07-24T13:58:49.289Z</time>
      </trkpt>
      <trkpt lat="44.07501" lon="0.55716">
        <ele>151</ele>
        <time>2025-07-24T13:58:50.289Z</time>
      </trkpt>
      <trkpt lat="44.075" lon="0.55718">
        <ele>151</ele>
        <time>2025-07-24T13:58:51.289Z</time>
      </trkpt>
      <trkpt lat="44.075" lon="0.5572">
        <ele>151</ele>
        <time>2025-07-24T13:58:52.289Z</time>
      </trkpt>
      <trkpt lat="44.075" lon="0.55722">
        <ele>151</ele>
        <time>2025-07-24T13:58:53.289Z</time>
      </trkpt>
      <trkpt lat="44.075" lon="0.55724">
        <ele>151</ele>
        <time>2025-07-24T13:58:54.289Z</time>
      </trkpt>
      <trkpt lat="44.07499" lon="0.55726">
        <ele>151</ele>
        <time>2025-07-24T13:58:55.289Z</time>
      </trkpt>
      <trkpt lat="44.07499" lon="0.55728">
        <ele>151</ele>
        <time>2025-07-24T13:58:56.289Z</time>
      </trkpt>
      <trkpt lat="44.07499" lon="0.5573">
        <ele>151</ele>
        <time>2025-07-24T13:58:57.289Z</time>
      </trkpt>
      <trkpt lat="44.07498" lon="0.55732">
        <ele>151</ele>
        <time>2025-07-24T13:58:58.289Z</time>
      </trkpt>
      <trkpt lat="44.07497" lon="0.55734">
        <ele>150</ele>
        <time>2025-07-24T13:58:59.289Z</time>
      </trkpt>
      <trkpt lat="44.07496" lon="0.55736">
        <ele>150</ele>
        <time>2025-07-24T13:59:00.289Z</time>
      </trkpt>
      <trkpt lat="44.07496" lon="0.55738">
        <ele>150</ele>
        <time>2025-07-24T13:59:01.289Z</time>
      </trkpt>
      <trkpt lat="44.07495" lon="0.55739">
        <ele>149</ele>
        <time>2025-07-24T13:59:02.289Z</time>
      </trkpt>
      <trkpt lat="44.07495" lon="0.55741">
        <ele>149</ele>
        <time>2025-07-24T13:59:03.289Z</time>
      </trkpt>
      <trkpt lat="44.07494" lon="0.55743">
        <ele>149</ele>
        <time>2025-07-24T13:59:04.289Z</time>
      </trkpt>
      <trkpt lat="44.07493" lon="0.55745">
        <ele>148</ele>
        <time>2025-07-24T13:59:05.289Z</time>
      </trkpt>
      <trkpt lat="44.07493" lon="0.55747">
        <ele>148</ele>
        <time>2025-07-24T13:59:06.289Z</time>
      </trkpt>
      <trkpt lat="44.07493" lon="0.55748">
        <ele>148</ele>
        <time>2025-07-24T13:59:07.289Z</time>
      </trkpt>
      <trkpt lat="44.07492" lon="0.5575">
        <ele>148</ele>
        <time>2025-07-24T13:59:08.289Z</time>
      </trkpt>
      <trkpt lat="44.07492" lon="0.55752">
        <ele>149</ele>
        <time>2025-07-24T13:59:09.289Z</time>
      </trkpt>
      <trkpt lat="44.07492" lon="0.55753">
        <ele>149</ele>
        <time>2025-07-24T13:59:10.289Z</time>
      </trkpt>
      <trkpt lat="44.07492" lon="0.55754">
        <ele>150</ele>
        <time>2025-07-24T13:59:11.289Z</time>
      </trkpt>
      <trkpt lat="44.07491" lon="0.55756">
        <ele>150</ele>
        <time>2025-07-24T13:59:12.289Z</time>
      </trkpt>
      <trkpt lat="44.07491" lon="0.55757">
        <ele>151</ele>
        <time>2025-07-24T13:59:13.289Z</time>
      </trkpt>
      <trkpt lat="44.0749" lon="0.55759">
        <ele>151</ele>
        <time>2025-07-24T13:59:14.289Z</time>
      </trkpt>
      <trkpt lat="44.0749" lon="0.5576">
        <ele>151</ele>
        <time>2025-07-24T13:59:15.289Z</time>
      </trkpt>
      <trkpt lat="44.0749" lon="0.55762">
        <ele>151</ele>
        <time>2025-07-24T13:59:16.289Z</time>
      </trkpt>
      <trkpt lat="44.0749" lon="0.55764">
        <ele>152</ele>
        <time>2025-07-24T13:59:17.289Z</time>
      </trkpt>
      <trkpt lat="44.07489" lon="0.55765">
        <ele>152</ele>
        <time>2025-07-24T13:59:18.289Z</time>
      </trkpt>
      <trkpt lat="44.07489" lon="0.55767">
        <ele>152</ele>
        <time>2025-07-24T13:59:19.289Z</time>
      </trkpt>
      <trkpt lat="44.07489" lon="0.55768">
        <ele>152</ele>
        <time>2025-07-24T13:59:20.289Z</time>
      </trkpt>
      <trkpt lat="44.07489" lon="0.5577">
        <ele>152</ele>
        <time>2025-07-24T13:59:21.289Z</time>
      </trkpt>
      <trkpt lat="44.07489" lon="0.55772">
        <ele>152</ele>
        <time>2025-07-24T13:59:22.289Z</time>
      </trkpt>
      <trkpt lat="44.07489" lon="0.55773">
        <ele>152</ele>
        <time>2025-07-24T13:59:23.289Z</time>
      </trkpt>
      <trkpt lat="44.07488" lon="0.55776">
        <ele>153</ele>
        <time>2025-07-24T13:59:24.289Z</time>
      </trkpt>
      <trkpt lat="44.07488" lon="0.55779">
        <ele>153</ele>
        <time>2025-07-24T13:59:25.289Z</time>
      </trkpt>
      <trkpt lat="44.07487" lon="0.55781">
        <ele>153</ele>
        <time>2025-07-24T13:59:26.289Z</time>
      </trkpt>
      <trkpt lat="44.07487" lon="0.55782">
        <ele>152</ele>
        <time>2025-07-24T13:59:27.289Z</time>
      </trkpt>
      <trkpt lat="44.07487" lon="0.55784">
        <ele>152</ele>
        <time>2025-07-24T13:59:28.289Z</time>
      </trkpt>
      <trkpt lat="44.07487" lon="0.55785">
        <ele>152</ele>
        <time>2025-07-24T13:59:29.289Z</time>
      </trkpt>
      <trkpt lat="44.07487" lon="0.55787">
        <ele>152</ele>
        <time>2025-07-24T13:59:30.289Z</time>
      </trkpt>
      <trkpt lat="44.07487" lon="0.55788">
        <ele>151</ele>
        <time>2025-07-24T13:59:31.289Z</time>
      </trkpt>
      <trkpt lat="44.07487" lon="0.5579">
        <ele>151</ele>
        <time>2025-07-24T13:59:32.289Z</time>
      </trkpt>
      <trkpt lat="44.07487" lon="0.55792">
        <ele>151</ele>
        <time>2025-07-24T13:59:33.289Z</time>
      </trkpt>
      <trkpt lat="44.07487" lon="0.55794">
        <ele>150</ele>
        <time>2025-07-24T13:59:34.289Z</time>
      </trkpt>
      <trkpt lat="44.07487" lon="0.55795">
        <ele>150</ele>
        <time>2025-07-24T13:59:35.289Z</time>
      </trkpt>
      <trkpt lat="44.07487" lon="0.55796">
        <ele>150</ele>
        <time>2025-07-24T13:59:36.289Z</time>
      </trkpt>
      <trkpt lat="44.07486" lon="0.55798">
        <ele>149</ele>
        <time>2025-07-24T13:59:37.289Z</time>
      </trkpt>
      <trkpt lat="44.07486" lon="0.55799">
        <ele>149</ele>
        <time>2025-07-24T13:59:38.289Z</time>
      </trkpt>
      <trkpt lat="44.07486" lon="0.55801">
        <ele>149</ele>
        <time>2025-07-24T13:59:39.289Z</time>
      </trkpt>
      <trkpt lat="44.07486" lon="0.55803">
        <ele>149</ele>
        <time>2025-07-24T13:59:40.289Z</time>
      </trkpt>
      <trkpt lat="44.07486" lon="0.55804">
        <ele>148</ele>
        <time>2025-07-24T13:59:41.289Z</time>
      </trkpt>
      <trkpt lat="44.07486" lon="0.55806">
        <ele>148</ele>
        <time>2025-07-24T13:59:42.289Z</time>
      </trkpt>
      <trkpt lat="44.07486" lon="0.55807">
        <ele>148</ele>
        <time>2025-07-24T13:59:43.289Z</time>
      </trkpt>
      <trkpt lat="44.07486" lon="0.55809">
        <ele>149</ele>
        <time>2025-07-24T13:59:44.289Z</time>
      </trkpt>
      <trkpt lat="44.07486" lon="0.55811">
        <ele>149</ele>
        <time>2025-07-24T13:59:45.289Z</time>
      </trkpt>
      <trkpt lat="44.07486" lon="0.55813">
        <ele>149</ele>
        <time>2025-07-24T13:59:46.289Z</time>
      </trkpt>
      <trkpt lat="44.07486" lon="0.55814">
        <ele>150</ele>
        <time>2025-07-24T13:59:47.289Z</time>
      </trkpt>
      <trkpt lat="44.07485" lon="0.55816">
        <ele>150</ele>
        <time>2025-07-24T13:59:48.289Z</time>
      </trkpt>
      <trkpt lat="44.07485" lon="0.55817">
        <ele>150</ele>
        <time>2025-07-24T13:59:49.289Z</time>
      </trkpt>
      <trkpt lat="44.07485" lon="0.55819">
        <ele>150</ele>
        <time>2025-07-24T13:59:50.289Z</time>
      </trkpt>
      <trkpt lat="44.07485" lon="0.5582">
        <ele>150</ele>
        <time>2025-07-24T13:59:51.289Z</time>
      </trkpt>
      <trkpt lat="44.07485" lon="0.55822">
        <ele>150</ele>
        <time>2025-07-24T13:59:52.289Z</time>
      </trkpt>
      <trkpt lat="44.07485" lon="0.55823">
        <ele>150</ele>
        <time>2025-07-24T13:59:53.289Z</time>
      </trkpt>
      <trkpt lat="44.07485" lon="0.55825">
        <ele>150</ele>
        <time>2025-07-24T13:59:54.289Z</time>
      </trkpt>
      <trkpt lat="44.07485" lon="0.55827">
        <ele>150</ele>
        <time>2025-07-24T13:59:55.289Z</time>
      </trkpt>
      <trkpt lat="44.07486" lon="0.55829">
        <ele>150</ele>
        <time>2025-07-24T13:59:56.289Z</time>
      </trkpt>
      <trkpt lat="44.07486" lon="0.5583">
        <ele>150</ele>
        <time>2025-07-24T13:59:57.289Z</time>
      </trkpt>
      <trkpt lat="44.07486" lon="0.55832">
        <ele>150</ele>
        <time>2025-07-24T13:59:58.289Z</time>
      </trkpt>
      <trkpt lat="44.07486" lon="0.55833">
        <ele>150</ele>
        <time>2025-07-24T13:59:59.289Z</time>
      </trkpt>
      <trkpt lat="44.07486" lon="0.55835">
        <ele>150</ele>
        <time>2025-07-24T14:00:00.289Z</time>
      </trkpt>
      <trkpt lat="44.07487" lon="0.55836">
        <ele>150</ele>
        <time>2025-07-24T14:00:01.289Z</time>
      </trkpt>
      <trkpt lat="44.07487" lon="0.55838">
        <ele>150</ele>
        <time>2025-07-24T14:00:02.289Z</time>
      </trkpt>
      <trkpt lat="44.07487" lon="0.5584">
        <ele>150</ele>
        <time>2025-07-24T14:00:03.289Z</time>
      </trkpt>
      <trkpt lat="44.07487" lon="0.55842">
        <ele>150</ele>
        <time>2025-07-24T14:00:04.289Z</time>
      </trkpt>
      <trkpt lat="44.07487" lon="0.55843">
        <ele>150</ele>
        <time>2025-07-24T14:00:05.289Z</time>
      </trkpt>
      <trkpt lat="44.07487" lon="0.55845">
        <ele>150</ele>
        <time>2025-07-24T14:00:06.289Z</time>
      </trkpt>
      <trkpt lat="44.07487" lon="0.55846">
        <ele>150</ele>
        <time>2025-07-24T14:00:07.289Z</time>
      </trkpt>
      <trkpt lat="44.07487" lon="0.55848">
        <ele>149</ele>
        <time>2025-07-24T14:00:08.289Z</time>
      </trkpt>
      <trkpt lat="44.07486" lon="0.5585">
        <ele>149</ele>
        <time>2025-07-24T14:00:09.289Z</time>
      </trkpt>
      <trkpt lat="44.07486" lon="0.55851">
        <ele>148</ele>
        <time>2025-07-24T14:00:10.289Z</time>
      </trkpt>
      <trkpt lat="44.07486" lon="0.55853">
        <ele>148</ele>
        <time>2025-07-24T14:00:11.289Z</time>
      </trkpt>
      <trkpt lat="44.07486" lon="0.55854">
        <ele>148</ele>
        <time>2025-07-24T14:00:12.289Z</time>
      </trkpt>
      <trkpt lat="44.07486" lon="0.55855">
        <ele>148</ele>
        <time>2025-07-24T14:00:13.289Z</time>
      </trkpt>
      <trkpt lat="44.07486" lon="0.55857">
        <ele>148</ele>
        <time>2025-07-24T14:00:14.289Z</time>
      </trkpt>
      <trkpt lat="44.07486" lon="0.55858">
        <ele>148</ele>
        <time>2025-07-24T14:00:15.289Z</time>
      </trkpt>
      <trkpt lat="44.07486" lon="0.5586">
        <ele>148</ele>
        <time>2025-07-24T14:00:16.289Z</time>
      </trkpt>
      <trkpt lat="44.07486" lon="0.55862">
        <ele>148</ele>
        <time>2025-07-24T14:00:17.289Z</time>
      </trkpt>
      <trkpt lat="44.07486" lon="0.55863">
        <ele>148</ele>
        <time>2025-07-24T14:00:18.289Z</time>
      </trkpt>
      <trkpt lat="44.07487" lon="0.55865">
        <ele>148</ele>
        <time>2025-07-24T14:00:19.289Z</time>
      </trkpt>
      <trkpt lat="44.07487" lon="0.55866">
        <ele>148</ele>
        <time>2025-07-24T14:00:20.289Z</time>
      </trkpt>
      <trkpt lat="44.07487" lon="0.55868">
        <ele>148</ele>
        <time>2025-07-24T14:00:21.289Z</time>
      </trkpt>
      <trkpt lat="44.07487" lon="0.5587">
        <ele>147</ele>
        <time>2025-07-24T14:00:22.289Z</time>
      </trkpt>
      <trkpt lat="44.07487" lon="0.55871">
        <ele>148</ele>
        <time>2025-07-24T14:00:23.289Z</time>
      </trkpt>
      <trkpt lat="44.07486" lon="0.55873">
        <ele>148</ele>
        <time>2025-07-24T14:00:24.289Z</time>
      </trkpt>
      <trkpt lat="44.07486" lon="0.55874">
        <ele>148</ele>
        <time>2025-07-24T14:00:25.289Z</time>
      </trkpt>
      <trkpt lat="44.07486" lon="0.55875">
        <ele>148</ele>
        <time>2025-07-24T14:00:26.289Z</time>
      </trkpt>
      <trkpt lat="44.07487" lon="0.55877">
        <ele>148</ele>
        <time>2025-07-24T14:00:27.289Z</time>
      </trkpt>
      <trkpt lat="44.07487" lon="0.55878">
        <ele>148</ele>
        <time>2025-07-24T14:00:28.289Z</time>
      </trkpt>
      <trkpt lat="44.07487" lon="0.5588">
        <ele>148</ele>
        <time>2025-07-24T14:00:29.289Z</time>
      </trkpt>
      <trkpt lat="44.07487" lon="0.55881">
        <ele>149</ele>
        <time>2025-07-24T14:00:30.289Z</time>
      </trkpt>
      <trkpt lat="44.07487" lon="0.55882">
        <ele>149</ele>
        <time>2025-07-24T14:00:31.289Z</time>
      </trkpt>
      <trkpt lat="44.07487" lon="0.55884">
        <ele>149</ele>
        <time>2025-07-24T14:00:32.289Z</time>
      </trkpt>
      <trkpt lat="44.07487" lon="0.55885">
        <ele>150</ele>
        <time>2025-07-24T14:00:33.289Z</time>
      </trkpt>
      <trkpt lat="44.07487" lon="0.55887">
        <ele>150</ele>
        <time>2025-07-24T14:00:34.289Z</time>
      </trkpt>
      <trkpt lat="44.07487" lon="0.55889">
        <ele>150</ele>
        <time>2025-07-24T14:00:35.289Z</time>
      </trkpt>
      <trkpt lat="44.07488" lon="0.55891">
        <ele>150</ele>
        <time>2025-07-24T14:00:36.289Z</time>
      </trkpt>
      <trkpt lat="44.07487" lon="0.55892">
        <ele>151</ele>
        <time>2025-07-24T14:00:37.289Z</time>
      </trkpt>
      <trkpt lat="44.07488" lon="0.55894">
        <ele>151</ele>
        <time>2025-07-24T14:00:38.289Z</time>
      </trkpt>
      <trkpt lat="44.07488" lon="0.55895">
        <ele>151</ele>
        <time>2025-07-24T14:00:39.289Z</time>
      </trkpt>
      <trkpt lat="44.07488" lon="0.55896">
        <ele>151</ele>
        <time>2025-07-24T14:00:40.289Z</time>
      </trkpt>
      <trkpt lat="44.07488" lon="0.55898">
        <ele>152</ele>
        <time>2025-07-24T14:00:41.289Z</time>
      </trkpt>
      <trkpt lat="44.07488" lon="0.559">
        <ele>152</ele>
        <time>2025-07-24T14:00:42.289Z</time>
      </trkpt>
      <trkpt lat="44.07487" lon="0.55902">
        <ele>152</ele>
        <time>2025-07-24T14:00:43.289Z</time>
      </trkpt>
      <trkpt lat="44.07487" lon="0.55903">
        <ele>152</ele>
        <time>2025-07-24T14:00:44.289Z</time>
      </trkpt>
      <trkpt lat="44.07487" lon="0.55905">
        <ele>152</ele>
        <time>2025-07-24T14:00:45.289Z</time>
      </trkpt>
      <trkpt lat="44.07487" lon="0.55906">
        <ele>151</ele>
        <time>2025-07-24T14:00:46.289Z</time>
      </trkpt>
      <trkpt lat="44.07487" lon="0.55907">
        <ele>151</ele>
        <time>2025-07-24T14:00:47.289Z</time>
      </trkpt>
      <trkpt lat="44.07487" lon="0.55909">
        <ele>151</ele>
        <time>2025-07-24T14:00:48.289Z</time>
      </trkpt>
      <trkpt lat="44.07487" lon="0.5591">
        <ele>151</ele>
        <time>2025-07-24T14:00:49.289Z</time>
      </trkpt>
      <trkpt lat="44.07487" lon="0.55912">
        <ele>151</ele>
        <time>2025-07-24T14:00:50.289Z</time>
      </trkpt>
      <trkpt lat="44.07487" lon="0.55914">
        <ele>151</ele>
        <time>2025-07-24T14:00:51.289Z</time>
      </trkpt>
      <trkpt lat="44.07487" lon="0.55915">
        <ele>151</ele>
        <time>2025-07-24T14:00:52.289Z</time>
      </trkpt>
      <trkpt lat="44.07487" lon="0.55916">
        <ele>151</ele>
        <time>2025-07-24T14:00:53.289Z</time>
      </trkpt>
      <trkpt lat="44.07488" lon="0.55918">
        <ele>151</ele>
        <time>2025-07-24T14:00:54.289Z</time>
      </trkpt>
      <trkpt lat="44.07488" lon="0.55919">
        <ele>151</ele>
        <time>2025-07-24T14:00:55.289Z</time>
      </trkpt>
      <trkpt lat="44.07488" lon="0.55921">
        <ele>152</ele>
        <time>2025-07-24T14:00:56.289Z</time>
      </trkpt>
      <trkpt lat="44.07488" lon="0.55922">
        <ele>152</ele>
        <time>2025-07-24T14:00:57.289Z</time>
      </trkpt>
      <trkpt lat="44.07488" lon="0.55924">
        <ele>151</ele>
        <time>2025-07-24T14:00:58.289Z</time>
      </trkpt>
      <trkpt lat="44.07488" lon="0.55925">
        <ele>151</ele>
        <time>2025-07-24T14:00:59.289Z</time>
      </trkpt>
      <trkpt lat="44.07489" lon="0.55926">
        <ele>151</ele>
        <time>2025-07-24T14:01:00.289Z</time>
      </trkpt>
      <trkpt lat="44.07489" lon="0.55928">
        <ele>151</ele>
        <time>2025-07-24T14:01:01.289Z</time>
      </trkpt>
      <trkpt lat="44.07489" lon="0.55929">
        <ele>151</ele>
        <time>2025-07-24T14:01:02.289Z</time>
      </trkpt>
      <trkpt lat="44.0749" lon="0.55931">
        <ele>151</ele>
        <time>2025-07-24T14:01:03.289Z</time>
      </trkpt>
      <trkpt lat="44.0749" lon="0.55933">
        <ele>151</ele>
        <time>2025-07-24T14:01:04.289Z</time>
      </trkpt>
      <trkpt lat="44.0749" lon="0.55934">
        <ele>151</ele>
        <time>2025-07-24T14:01:05.289Z</time>
      </trkpt>
      <trkpt lat="44.0749" lon="0.55935">
        <ele>151</ele>
        <time>2025-07-24T14:01:06.289Z</time>
      </trkpt>
      <trkpt lat="44.0749" lon="0.55937">
        <ele>151</ele>
        <time>2025-07-24T14:01:07.289Z</time>
      </trkpt>
      <trkpt lat="44.0749" lon="0.55938">
        <ele>151</ele>
        <time>2025-07-24T14:01:08.289Z</time>
      </trkpt>
      <trkpt lat="44.0749" lon="0.5594">
        <ele>151</ele>
        <time>2025-07-24T14:01:09.289Z</time>
      </trkpt>
      <trkpt lat="44.0749" lon="0.55941">
        <ele>152</ele>
        <time>2025-07-24T14:01:10.289Z</time>
      </trkpt>
      <trkpt lat="44.07491" lon="0.55943">
        <ele>152</ele>
        <time>2025-07-24T14:01:11.289Z</time>
      </trkpt>
      <trkpt lat="44.07491" lon="0.55944">
        <ele>152</ele>
        <time>2025-07-24T14:01:12.289Z</time>
      </trkpt>
      <trkpt lat="44.07491" lon="0.55945">
        <ele>152</ele>
        <time>2025-07-24T14:01:13.289Z</time>
      </trkpt>
      <trkpt lat="44.07492" lon="0.55947">
        <ele>152</ele>
        <time>2025-07-24T14:01:14.289Z</time>
      </trkpt>
      <trkpt lat="44.07492" lon="0.55948">
        <ele>152</ele>
        <time>2025-07-24T14:01:15.289Z</time>
      </trkpt>
      <trkpt lat="44.07492" lon="0.5595">
        <ele>152</ele>
        <time>2025-07-24T14:01:16.289Z</time>
      </trkpt>
      <trkpt lat="44.07492" lon="0.55952">
        <ele>152</ele>
        <time>2025-07-24T14:01:17.289Z</time>
      </trkpt>
      <trkpt lat="44.07493" lon="0.55953">
        <ele>152</ele>
        <time>2025-07-24T14:01:18.289Z</time>
      </trkpt>
      <trkpt lat="44.07493" lon="0.55955">
        <ele>152</ele>
        <time>2025-07-24T14:01:19.289Z</time>
      </trkpt>
      <trkpt lat="44.07493" lon="0.55956">
        <ele>152</ele>
        <time>2025-07-24T14:01:20.289Z</time>
      </trkpt>
      <trkpt lat="44.07493" lon="0.55958">
        <ele>152</ele>
        <time>2025-07-24T14:01:21.289Z</time>
      </trkpt>
      <trkpt lat="44.07493" lon="0.55959">
        <ele>152</ele>
        <time>2025-07-24T14:01:22.289Z</time>
      </trkpt>
      <trkpt lat="44.07493" lon="0.55961">
        <ele>152</ele>
        <time>2025-07-24T14:01:23.289Z</time>
      </trkpt>
      <trkpt lat="44.07494" lon="0.55962">
        <ele>152</ele>
        <time>2025-07-24T14:01:24.289Z</time>
      </trkpt>
      <trkpt lat="44.07494" lon="0.55963">
        <ele>152</ele>
        <time>2025-07-24T14:01:25.289Z</time>
      </trkpt>
      <trkpt lat="44.07494" lon="0.55965">
        <ele>152</ele>
        <time>2025-07-24T14:01:26.289Z</time>
      </trkpt>
      <trkpt lat="44.07494" lon="0.55966">
        <ele>152</ele>
        <time>2025-07-24T14:01:27.289Z</time>
      </trkpt>
      <trkpt lat="44.07494" lon="0.55967">
        <ele>153</ele>
        <time>2025-07-24T14:01:28.289Z</time>
      </trkpt>
      <trkpt lat="44.07494" lon="0.55969">
        <ele>153</ele>
        <time>2025-07-24T14:01:29.289Z</time>
      </trkpt>
      <trkpt lat="44.07495" lon="0.5597">
        <ele>153</ele>
        <time>2025-07-24T14:01:30.289Z</time>
      </trkpt>
      <trkpt lat="44.07495" lon="0.55971">
        <ele>153</ele>
        <time>2025-07-24T14:01:31.289Z</time>
      </trkpt>
      <trkpt lat="44.07495" lon="0.55973">
        <ele>154</ele>
        <time>2025-07-24T14:01:32.290Z</time>
      </trkpt>
      <trkpt lat="44.07496" lon="0.55974">
        <ele>154</ele>
        <time>2025-07-24T14:01:33.289Z</time>
      </trkpt>
      <trkpt lat="44.07496" lon="0.55976">
        <ele>154</ele>
        <time>2025-07-24T14:01:34.289Z</time>
      </trkpt>
      <trkpt lat="44.07496" lon="0.55978">
        <ele>154</ele>
        <time>2025-07-24T14:01:35.289Z</time>
      </trkpt>
      <trkpt lat="44.07496" lon="0.5598">
        <ele>155</ele>
        <time>2025-07-24T14:01:36.289Z</time>
      </trkpt>
      <trkpt lat="44.07496" lon="0.55981">
        <ele>155</ele>
        <time>2025-07-24T14:01:37.289Z</time>
      </trkpt>
      <trkpt lat="44.07496" lon="0.55982">
        <ele>155</ele>
        <time>2025-07-24T14:01:38.289Z</time>
      </trkpt>
      <trkpt lat="44.07496" lon="0.55984">
        <ele>155</ele>
        <time>2025-07-24T14:01:39.290Z</time>
      </trkpt>
      <trkpt lat="44.07496" lon="0.55985">
        <ele>155</ele>
        <time>2025-07-24T14:01:40.289Z</time>
      </trkpt>
      <trkpt lat="44.07496" lon="0.55986">
        <ele>155</ele>
        <time>2025-07-24T14:01:41.289Z</time>
      </trkpt>
      <trkpt lat="44.07496" lon="0.55988">
        <ele>156</ele>
        <time>2025-07-24T14:01:42.289Z</time>
      </trkpt>
      <trkpt lat="44.07497" lon="0.5599">
        <ele>156</ele>
        <time>2025-07-24T14:01:43.289Z</time>
      </trkpt>
      <trkpt lat="44.07497" lon="0.55991">
        <ele>156</ele>
        <time>2025-07-24T14:01:44.289Z</time>
      </trkpt>
      <trkpt lat="44.07497" lon="0.55992">
        <ele>156</ele>
        <time>2025-07-24T14:01:45.289Z</time>
      </trkpt>
      <trkpt lat="44.07497" lon="0.55994">
        <ele>155</ele>
        <time>2025-07-24T14:01:46.289Z</time>
      </trkpt>
      <trkpt lat="44.07497" lon="0.55996">
        <ele>155</ele>
        <time>2025-07-24T14:01:47.289Z</time>
      </trkpt>
      <trkpt lat="44.07497" lon="0.55997">
        <ele>155</ele>
        <time>2025-07-24T14:01:48.289Z</time>
      </trkpt>
      <trkpt lat="44.07497" lon="0.55999">
        <ele>155</ele>
        <time>2025-07-24T14:01:49.289Z</time>
      </trkpt>
      <trkpt lat="44.07497" lon="0.56001">
        <ele>155</ele>
        <time>2025-07-24T14:01:50.289Z</time>
      </trkpt>
      <trkpt lat="44.07497" lon="0.56003">
        <ele>154</ele>
        <time>2025-07-24T14:01:51.289Z</time>
      </trkpt>
      <trkpt lat="44.07498" lon="0.56005">
        <ele>154</ele>
        <time>2025-07-24T14:01:52.289Z</time>
      </trkpt>
      <trkpt lat="44.07498" lon="0.56006">
        <ele>155</ele>
        <time>2025-07-24T14:01:53.290Z</time>
      </trkpt>
      <trkpt lat="44.07498" lon="0.56008">
        <ele>155</ele>
        <time>2025-07-24T14:01:54.289Z</time>
      </trkpt>
      <trkpt lat="44.07498" lon="0.5601">
        <ele>154</ele>
        <time>2025-07-24T14:01:55.289Z</time>
      </trkpt>
      <trkpt lat="44.07498" lon="0.56011">
        <ele>154</ele>
        <time>2025-07-24T14:01:56.289Z</time>
      </trkpt>
      <trkpt lat="44.07498" lon="0.56013">
        <ele>155</ele>
        <time>2025-07-24T14:01:57.289Z</time>
      </trkpt>
      <trkpt lat="44.07498" lon="0.56015">
        <ele>155</ele>
        <time>2025-07-24T14:01:58.289Z</time>
      </trkpt>
      <trkpt lat="44.07498" lon="0.56017">
        <ele>155</ele>
        <time>2025-07-24T14:01:59.289Z</time>
      </trkpt>
      <trkpt lat="44.07498" lon="0.56018">
        <ele>155</ele>
        <time>2025-07-24T14:02:00.289Z</time>
      </trkpt>
      <trkpt lat="44.07498" lon="0.5602">
        <ele>155</ele>
        <time>2025-07-24T14:02:01.289Z</time>
      </trkpt>
      <trkpt lat="44.07498" lon="0.56021">
        <ele>155</ele>
        <time>2025-07-24T14:02:02.289Z</time>
      </trkpt>
      <trkpt lat="44.07499" lon="0.56023">
        <ele>156</ele>
        <time>2025-07-24T14:02:03.289Z</time>
      </trkpt>
      <trkpt lat="44.07499" lon="0.56025">
        <ele>156</ele>
        <time>2025-07-24T14:02:04.289Z</time>
      </trkpt>
      <trkpt lat="44.075" lon="0.56026">
        <ele>157</ele>
        <time>2025-07-24T14:02:05.289Z</time>
      </trkpt>
      <trkpt lat="44.07501" lon="0.56027">
        <ele>157</ele>
        <time>2025-07-24T14:02:06.289Z</time>
      </trkpt>
      <trkpt lat="44.07501" lon="0.56028">
        <ele>157</ele>
        <time>2025-07-24T14:02:07.289Z</time>
      </trkpt>
      <trkpt lat="44.07502" lon="0.5603">
        <ele>157</ele>
        <time>2025-07-24T14:02:08.289Z</time>
      </trkpt>
      <trkpt lat="44.07502" lon="0.56031">
        <ele>157</ele>
        <time>2025-07-24T14:02:09.289Z</time>
      </trkpt>
      <trkpt lat="44.07503" lon="0.56033">
        <ele>157</ele>
        <time>2025-07-24T14:02:10.289Z</time>
      </trkpt>
      <trkpt lat="44.07504" lon="0.56034">
        <ele>157</ele>
        <time>2025-07-24T14:02:11.289Z</time>
      </trkpt>
      <trkpt lat="44.07504" lon="0.56036">
        <ele>158</ele>
        <time>2025-07-24T14:02:12.289Z</time>
      </trkpt>
      <trkpt lat="44.07504" lon="0.56038">
        <ele>158</ele>
        <time>2025-07-24T14:02:13.289Z</time>
      </trkpt>
      <trkpt lat="44.07504" lon="0.56039">
        <ele>158</ele>
        <time>2025-07-24T14:02:14.289Z</time>
      </trkpt>
      <trkpt lat="44.07505" lon="0.56041">
        <ele>158</ele>
        <time>2025-07-24T14:02:15.289Z</time>
      </trkpt>
      <trkpt lat="44.07504" lon="0.56043">
        <ele>158</ele>
        <time>2025-07-24T14:02:16.289Z</time>
      </trkpt>
      <trkpt lat="44.07504" lon="0.56045">
        <ele>157</ele>
        <time>2025-07-24T14:02:17.290Z</time>
      </trkpt>
      <trkpt lat="44.07504" lon="0.56046">
        <ele>157</ele>
        <time>2025-07-24T14:02:18.289Z</time>
      </trkpt>
      <trkpt lat="44.07504" lon="0.56046">
        <ele>158</ele>
        <time>2025-07-24T14:02:19.289Z</time>
      </trkpt>
      <trkpt lat="44.07504" lon="0.56047">
        <ele>158</ele>
        <time>2025-07-24T14:02:20.289Z</time>
      </trkpt>
      <trkpt lat="44.07503" lon="0.56047">
        <ele>158</ele>
        <time>2025-07-24T14:02:21.289Z</time>
      </trkpt>
      <trkpt lat="44.07503" lon="0.56047">
        <ele>157</ele>
        <time>2025-07-24T14:02:22.289Z</time>
      </trkpt>
      <trkpt lat="44.07503" lon="0.56047">
        <ele>157</ele>
        <time>2025-07-24T14:02:23.289Z</time>
      </trkpt>
      <trkpt lat="44.07503" lon="0.56047">
        <ele>157</ele>
        <time>2025-07-24T14:02:24.289Z</time>
      </trkpt>
      <trkpt lat="44.07503" lon="0.56047">
        <ele>157</ele>
        <time>2025-07-24T14:02:25.289Z</time>
      </trkpt>
      <trkpt lat="44.07503" lon="0.56047">
        <ele>157</ele>
        <time>2025-07-24T14:02:26.289Z</time>
      </trkpt>
      <trkpt lat="44.07503" lon="0.56047">
        <ele>157</ele>
        <time>2025-07-24T14:02:27.289Z</time>
      </trkpt>
      <trkpt lat="44.07503" lon="0.56047">
        <ele>157</ele>
        <time>2025-07-24T14:02:28.289Z</time>
      </trkpt>
      <trkpt lat="44.07503" lon="0.56047">
        <ele>157</ele>
        <time>2025-07-24T14:02:29.289Z</time>
      </trkpt>
      <trkpt lat="44.07504" lon="0.56047">
        <ele>157</ele>
        <time>2025-07-24T14:02:30.289Z</time>
      </trkpt>
      <trkpt lat="44.07503" lon="0.56047">
        <ele>158</ele>
        <time>2025-07-24T14:02:31.289Z</time>
      </trkpt>
      <trkpt lat="44.07503" lon="0.56047">
        <ele>158</ele>
        <time>2025-07-24T14:02:32.289Z</time>
      </trkpt>
      <trkpt lat="44.07503" lon="0.56047">
        <ele>158</ele>
        <time>2025-07-24T14:02:33.289Z</time>
      </trkpt>
      <trkpt lat="44.07503" lon="0.56047">
        <ele>158</ele>
        <time>2025-07-24T14:02:34.289Z</time>
      </trkpt>
      <trkpt lat="44.07504" lon="0.56047">
        <ele>157</ele>
        <time>2025-07-24T14:02:35.289Z</time>
      </trkpt>
      <trkpt lat="44.07503" lon="0.56047">
        <ele>157</ele>
        <time>2025-07-24T14:02:36.289Z</time>
      </trkpt>
      <trkpt lat="44.07504" lon="0.56047">
        <ele>157</ele>
        <time>2025-07-24T14:02:37.289Z</time>
      </trkpt>
      <trkpt lat="44.07504" lon="0.56048">
        <ele>157</ele>
        <time>2025-07-24T14:02:38.289Z</time>
      </trkpt>
      <trkpt lat="44.07504" lon="0.56048">
        <ele>157</ele>
        <time>2025-07-24T14:02:39.289Z</time>
      </trkpt>
      <trkpt lat="44.07505" lon="0.56049">
        <ele>158</ele>
        <time>2025-07-24T14:02:40.289Z</time>
      </trkpt>
      <trkpt lat="44.07505" lon="0.5605">
        <ele>158</ele>
        <time>2025-07-24T14:02:41.289Z</time>
      </trkpt>
      <trkpt lat="44.07506" lon="0.56052">
        <ele>159</ele>
        <time>2025-07-24T14:02:42.289Z</time>
      </trkpt>
      <trkpt lat="44.07506" lon="0.56054">
        <ele>159</ele>
        <time>2025-07-24T14:02:43.289Z</time>
      </trkpt>
      <trkpt lat="44.07506" lon="0.56055">
        <ele>159</ele>
        <time>2025-07-24T14:02:44.289Z</time>
      </trkpt>
      <trkpt lat="44.07506" lon="0.56056">
        <ele>160</ele>
        <time>2025-07-24T14:02:45.289Z</time>
      </trkpt>
      <trkpt lat="44.07507" lon="0.56058">
        <ele>160</ele>
        <time>2025-07-24T14:02:46.289Z</time>
      </trkpt>
      <trkpt lat="44.07507" lon="0.56059">
        <ele>160</ele>
        <time>2025-07-24T14:02:47.289Z</time>
      </trkpt>
      <trkpt lat="44.07507" lon="0.56061">
        <ele>160</ele>
        <time>2025-07-24T14:02:48.289Z</time>
      </trkpt>
      <trkpt lat="44.07507" lon="0.56063">
        <ele>160</ele>
        <time>2025-07-24T14:02:49.289Z</time>
      </trkpt>
      <trkpt lat="44.07507" lon="0.56065">
        <ele>160</ele>
        <time>2025-07-24T14:02:50.289Z</time>
      </trkpt>
      <trkpt lat="44.07508" lon="0.56067">
        <ele>160</ele>
        <time>2025-07-24T14:02:51.289Z</time>
      </trkpt>
      <trkpt lat="44.07508" lon="0.56068">
        <ele>160</ele>
        <time>2025-07-24T14:02:52.289Z</time>
      </trkpt>
      <trkpt lat="44.07509" lon="0.5607">
        <ele>160</ele>
        <time>2025-07-24T14:02:53.289Z</time>
      </trkpt>
      <trkpt lat="44.07509" lon="0.56071">
        <ele>160</ele>
        <time>2025-07-24T14:02:54.289Z</time>
      </trkpt>
      <trkpt lat="44.07509" lon="0.56072">
        <ele>161</ele>
        <time>2025-07-24T14:02:55.289Z</time>
      </trkpt>
      <trkpt lat="44.0751" lon="0.56073">
        <ele>161</ele>
        <time>2025-07-24T14:02:56.289Z</time>
      </trkpt>
      <trkpt lat="44.0751" lon="0.56075">
        <ele>161</ele>
        <time>2025-07-24T14:02:57.289Z</time>
      </trkpt>
      <trkpt lat="44.0751" lon="0.56076">
        <ele>161</ele>
        <time>2025-07-24T14:02:58.289Z</time>
      </trkpt>
      <trkpt lat="44.07511" lon="0.56077">
        <ele>161</ele>
        <time>2025-07-24T14:02:59.289Z</time>
      </trkpt>
      <trkpt lat="44.07511" lon="0.56079">
        <ele>161</ele>
        <time>2025-07-24T14:03:00.289Z</time>
      </trkpt>
      <trkpt lat="44.07512" lon="0.5608">
        <ele>161</ele>
        <time>2025-07-24T14:03:01.289Z</time>
      </trkpt>
      <trkpt lat="44.07512" lon="0.56082">
        <ele>161</ele>
        <time>2025-07-24T14:03:02.289Z</time>
      </trkpt>
      <trkpt lat="44.07512" lon="0.56084">
        <ele>161</ele>
        <time>2025-07-24T14:03:03.289Z</time>
      </trkpt>
      <trkpt lat="44.07512" lon="0.56086">
        <ele>161</ele>
        <time>2025-07-24T14:03:04.289Z</time>
      </trkpt>
      <trkpt lat="44.07512" lon="0.56088">
        <ele>161</ele>
        <time>2025-07-24T14:03:05.289Z</time>
      </trkpt>
      <trkpt lat="44.07512" lon="0.56089">
        <ele>161</ele>
        <time>2025-07-24T14:03:06.289Z</time>
      </trkpt>
      <trkpt lat="44.07513" lon="0.56091">
        <ele>161</ele>
        <time>2025-07-24T14:03:07.289Z</time>
      </trkpt>
      <trkpt lat="44.07513" lon="0.56093">
        <ele>161</ele>
        <time>2025-07-24T14:03:08.289Z</time>
      </trkpt>
      <trkpt lat="44.07514" lon="0.56094">
        <ele>161</ele>
        <time>2025-07-24T14:03:09.289Z</time>
      </trkpt>
      <trkpt lat="44.07514" lon="0.56097">
        <ele>160</ele>
        <time>2025-07-24T14:03:10.289Z</time>
      </trkpt>
      <trkpt lat="44.07514" lon="0.56098">
        <ele>160</ele>
        <time>2025-07-24T14:03:11.289Z</time>
      </trkpt>
      <trkpt lat="44.07514" lon="0.561">
        <ele>160</ele>
        <time>2025-07-24T14:03:12.289Z</time>
      </trkpt>
      <trkpt lat="44.07515" lon="0.56103">
        <ele>159</ele>
        <time>2025-07-24T14:03:13.289Z</time>
      </trkpt>
      <trkpt lat="44.07515" lon="0.56104">
        <ele>159</ele>
        <time>2025-07-24T14:03:14.289Z</time>
      </trkpt>
      <trkpt lat="44.07516" lon="0.56106">
        <ele>159</ele>
        <time>2025-07-24T14:03:15.289Z</time>
      </trkpt>
      <trkpt lat="44.07516" lon="0.56108">
        <ele>159</ele>
        <time>2025-07-24T14:03:16.289Z</time>
      </trkpt>
      <trkpt lat="44.07516" lon="0.5611">
        <ele>159</ele>
        <time>2025-07-24T14:03:17.289Z</time>
      </trkpt>
      <trkpt lat="44.07517" lon="0.56111">
        <ele>159</ele>
        <time>2025-07-24T14:03:18.289Z</time>
      </trkpt>
      <trkpt lat="44.07517" lon="0.56113">
        <ele>159</ele>
        <time>2025-07-24T14:03:19.289Z</time>
      </trkpt>
      <trkpt lat="44.07517" lon="0.56114">
        <ele>159</ele>
        <time>2025-07-24T14:03:20.289Z</time>
      </trkpt>
      <trkpt lat="44.07518" lon="0.56116">
        <ele>159</ele>
        <time>2025-07-24T14:03:21.289Z</time>
      </trkpt>
      <trkpt lat="44.07518" lon="0.56117">
        <ele>159</ele>
        <time>2025-07-24T14:03:22.289Z</time>
      </trkpt>
      <trkpt lat="44.07518" lon="0.56119">
        <ele>159</ele>
        <time>2025-07-24T14:03:23.289Z</time>
      </trkpt>
      <trkpt lat="44.07518" lon="0.5612">
        <ele>158</ele>
        <time>2025-07-24T14:03:24.289Z</time>
      </trkpt>
      <trkpt lat="44.07518" lon="0.56122">
        <ele>157</ele>
        <time>2025-07-24T14:03:25.289Z</time>
      </trkpt>
      <trkpt lat="44.07519" lon="0.56123">
        <ele>157</ele>
        <time>2025-07-24T14:03:26.289Z</time>
      </trkpt>
      <trkpt lat="44.07519" lon="0.56125">
        <ele>157</ele>
        <time>2025-07-24T14:03:27.289Z</time>
      </trkpt>
      <trkpt lat="44.07519" lon="0.56126">
        <ele>156</ele>
        <time>2025-07-24T14:03:28.289Z</time>
      </trkpt>
      <trkpt lat="44.07519" lon="0.56128">
        <ele>156</ele>
        <time>2025-07-24T14:03:29.289Z</time>
      </trkpt>
      <trkpt lat="44.07519" lon="0.56129">
        <ele>156</ele>
        <time>2025-07-24T14:03:30.289Z</time>
      </trkpt>
      <trkpt lat="44.07519" lon="0.5613">
        <ele>156</ele>
        <time>2025-07-24T14:03:31.289Z</time>
      </trkpt>
      <trkpt lat="44.0752" lon="0.56132">
        <ele>157</ele>
        <time>2025-07-24T14:03:32.289Z</time>
      </trkpt>
      <trkpt lat="44.0752" lon="0.56134">
        <ele>157</ele>
        <time>2025-07-24T14:03:33.289Z</time>
      </trkpt>
      <trkpt lat="44.0752" lon="0.56135">
        <ele>157</ele>
        <time>2025-07-24T14:03:34.289Z</time>
      </trkpt>
      <trkpt lat="44.0752" lon="0.56136">
        <ele>157</ele>
        <time>2025-07-24T14:03:35.289Z</time>
      </trkpt>
      <trkpt lat="44.07521" lon="0.56138">
        <ele>157</ele>
        <time>2025-07-24T14:03:36.289Z</time>
      </trkpt>
      <trkpt lat="44.07521" lon="0.56139">
        <ele>157</ele>
        <time>2025-07-24T14:03:37.289Z</time>
      </trkpt>
      <trkpt lat="44.07521" lon="0.56141">
        <ele>157</ele>
        <time>2025-07-24T14:03:38.289Z</time>
      </trkpt>
      <trkpt lat="44.07522" lon="0.56142">
        <ele>158</ele>
        <time>2025-07-24T14:03:39.289Z</time>
      </trkpt>
      <trkpt lat="44.07523" lon="0.56144">
        <ele>158</ele>
        <time>2025-07-24T14:03:40.289Z</time>
      </trkpt>
      <trkpt lat="44.07523" lon="0.56145">
        <ele>158</ele>
        <time>2025-07-24T14:03:41.289Z</time>
      </trkpt>
      <trkpt lat="44.07524" lon="0.56147">
        <ele>158</ele>
        <time>2025-07-24T14:03:42.289Z</time>
      </trkpt>
      <trkpt lat="44.07524" lon="0.56148">
        <ele>158</ele>
        <time>2025-07-24T14:03:43.289Z</time>
      </trkpt>
      <trkpt lat="44.07525" lon="0.56149">
        <ele>158</ele>
        <time>2025-07-24T14:03:44.289Z</time>
      </trkpt>
      <trkpt lat="44.07525" lon="0.5615">
        <ele>158</ele>
        <time>2025-07-24T14:03:45.289Z</time>
      </trkpt>
      <trkpt lat="44.07526" lon="0.56152">
        <ele>158</ele>
        <time>2025-07-24T14:03:46.289Z</time>
      </trkpt>
      <trkpt lat="44.07526" lon="0.56153">
        <ele>158</ele>
        <time>2025-07-24T14:03:47.290Z</time>
      </trkpt>
      <trkpt lat="44.07526" lon="0.56154">
        <ele>158</ele>
        <time>2025-07-24T14:03:48.289Z</time>
      </trkpt>
      <trkpt lat="44.07526" lon="0.56156">
        <ele>158</ele>
        <time>2025-07-24T14:03:49.289Z</time>
      </trkpt>
      <trkpt lat="44.07526" lon="0.56157">
        <ele>158</ele>
        <time>2025-07-24T14:03:50.289Z</time>
      </trkpt>
      <trkpt lat="44.07526" lon="0.56158">
        <ele>158</ele>
        <time>2025-07-24T14:03:51.289Z</time>
      </trkpt>
      <trkpt lat="44.07526" lon="0.5616">
        <ele>159</ele>
        <time>2025-07-24T14:03:52.289Z</time>
      </trkpt>
      <trkpt lat="44.07526" lon="0.56161">
        <ele>159</ele>
        <time>2025-07-24T14:03:53.289Z</time>
      </trkpt>
      <trkpt lat="44.07526" lon="0.56163">
        <ele>159</ele>
        <time>2025-07-24T14:03:54.289Z</time>
      </trkpt>
      <trkpt lat="44.07527" lon="0.56164">
        <ele>159</ele>
        <time>2025-07-24T14:03:55.289Z</time>
      </trkpt>
      <trkpt lat="44.07527" lon="0.56166">
        <ele>160</ele>
        <time>2025-07-24T14:03:56.289Z</time>
      </trkpt>
      <trkpt lat="44.07527" lon="0.56167">
        <ele>160</ele>
        <time>2025-07-24T14:03:57.289Z</time>
      </trkpt>
      <trkpt lat="44.07528" lon="0.56168">
        <ele>160</ele>
        <time>2025-07-24T14:03:58.289Z</time>
      </trkpt>
      <trkpt lat="44.07528" lon="0.56171">
        <ele>160</ele>
        <time>2025-07-24T14:03:59.289Z</time>
      </trkpt>
      <trkpt lat="44.07529" lon="0.56172">
        <ele>160</ele>
        <time>2025-07-24T14:04:00.289Z</time>
      </trkpt>
      <trkpt lat="44.07529" lon="0.56174">
        <ele>161</ele>
        <time>2025-07-24T14:04:01.289Z</time>
      </trkpt>
      <trkpt lat="44.07529" lon="0.56175">
        <ele>161</ele>
        <time>2025-07-24T14:04:02.289Z</time>
      </trkpt>
      <trkpt lat="44.0753" lon="0.56176">
        <ele>161</ele>
        <time>2025-07-24T14:04:03.289Z</time>
      </trkpt>
      <trkpt lat="44.0753" lon="0.56177">
        <ele>161</ele>
        <time>2025-07-24T14:04:04.289Z</time>
      </trkpt>
      <trkpt lat="44.07531" lon="0.56179">
        <ele>161</ele>
        <time>2025-07-24T14:04:05.289Z</time>
      </trkpt>
      <trkpt lat="44.07531" lon="0.5618">
        <ele>161</ele>
        <time>2025-07-24T14:04:06.289Z</time>
      </trkpt>
      <trkpt lat="44.07532" lon="0.56182">
        <ele>162</ele>
        <time>2025-07-24T14:04:07.289Z</time>
      </trkpt>
      <trkpt lat="44.07533" lon="0.56183">
        <ele>161</ele>
        <time>2025-07-24T14:04:08.289Z</time>
      </trkpt>
      <trkpt lat="44.07533" lon="0.56185">
        <ele>161</ele>
        <time>2025-07-24T14:04:09.289Z</time>
      </trkpt>
      <trkpt lat="44.07533" lon="0.56186">
        <ele>161</ele>
        <time>2025-07-24T14:04:10.289Z</time>
      </trkpt>
      <trkpt lat="44.07533" lon="0.56187">
        <ele>161</ele>
        <time>2025-07-24T14:04:11.289Z</time>
      </trkpt>
      <trkpt lat="44.07534" lon="0.56189">
        <ele>161</ele>
        <time>2025-07-24T14:04:12.289Z</time>
      </trkpt>
      <trkpt lat="44.07534" lon="0.5619">
        <ele>160</ele>
        <time>2025-07-24T14:04:13.289Z</time>
      </trkpt>
      <trkpt lat="44.07534" lon="0.56192">
        <ele>160</ele>
        <time>2025-07-24T14:04:14.289Z</time>
      </trkpt>
      <trkpt lat="44.07534" lon="0.56193">
        <ele>160</ele>
        <time>2025-07-24T14:04:15.289Z</time>
      </trkpt>
      <trkpt lat="44.07535" lon="0.56195">
        <ele>160</ele>
        <time>2025-07-24T14:04:16.289Z</time>
      </trkpt>
      <trkpt lat="44.07535" lon="0.56196">
        <ele>160</ele>
        <time>2025-07-24T14:04:17.289Z</time>
      </trkpt>
      <trkpt lat="44.07535" lon="0.56197">
        <ele>161</ele>
        <time>2025-07-24T14:04:18.289Z</time>
      </trkpt>
      <trkpt lat="44.07536" lon="0.56199">
        <ele>161</ele>
        <time>2025-07-24T14:04:19.289Z</time>
      </trkpt>
      <trkpt lat="44.07536" lon="0.562">
        <ele>161</ele>
        <time>2025-07-24T14:04:20.289Z</time>
      </trkpt>
      <trkpt lat="44.07537" lon="0.56202">
        <ele>161</ele>
        <time>2025-07-24T14:04:21.289Z</time>
      </trkpt>
      <trkpt lat="44.07537" lon="0.56204">
        <ele>162</ele>
        <time>2025-07-24T14:04:22.289Z</time>
      </trkpt>
      <trkpt lat="44.07537" lon="0.56206">
        <ele>162</ele>
        <time>2025-07-24T14:04:23.289Z</time>
      </trkpt>
      <trkpt lat="44.07538" lon="0.56207">
        <ele>162</ele>
        <time>2025-07-24T14:04:24.289Z</time>
      </trkpt>
      <trkpt lat="44.07538" lon="0.56208">
        <ele>162</ele>
        <time>2025-07-24T14:04:25.289Z</time>
      </trkpt>
      <trkpt lat="44.07538" lon="0.5621">
        <ele>163</ele>
        <time>2025-07-24T14:04:26.289Z</time>
      </trkpt>
      <trkpt lat="44.07538" lon="0.56211">
        <ele>163</ele>
        <time>2025-07-24T14:04:27.289Z</time>
      </trkpt>
      <trkpt lat="44.07538" lon="0.56213">
        <ele>163</ele>
        <time>2025-07-24T14:04:28.289Z</time>
      </trkpt>
      <trkpt lat="44.07538" lon="0.56215">
        <ele>164</ele>
        <time>2025-07-24T14:04:29.289Z</time>
      </trkpt>
      <trkpt lat="44.07539" lon="0.56216">
        <ele>164</ele>
        <time>2025-07-24T14:04:30.289Z</time>
      </trkpt>
      <trkpt lat="44.07539" lon="0.56218">
        <ele>164</ele>
        <time>2025-07-24T14:04:31.289Z</time>
      </trkpt>
      <trkpt lat="44.07539" lon="0.56219">
        <ele>164</ele>
        <time>2025-07-24T14:04:32.289Z</time>
      </trkpt>
      <trkpt lat="44.0754" lon="0.5622">
        <ele>164</ele>
        <time>2025-07-24T14:04:33.289Z</time>
      </trkpt>
      <trkpt lat="44.0754" lon="0.56222">
        <ele>164</ele>
        <time>2025-07-24T14:04:34.290Z</time>
      </trkpt>
      <trkpt lat="44.0754" lon="0.56223">
        <ele>164</ele>
        <time>2025-07-24T14:04:35.289Z</time>
      </trkpt>
      <trkpt lat="44.0754" lon="0.56224">
        <ele>164</ele>
        <time>2025-07-24T14:04:36.289Z</time>
      </trkpt>
      <trkpt lat="44.0754" lon="0.56226">
        <ele>164</ele>
        <time>2025-07-24T14:04:37.289Z</time>
      </trkpt>
      <trkpt lat="44.07541" lon="0.56227">
        <ele>164</ele>
        <time>2025-07-24T14:04:38.289Z</time>
      </trkpt>
      <trkpt lat="44.07541" lon="0.56228">
        <ele>164</ele>
        <time>2025-07-24T14:04:39.289Z</time>
      </trkpt>
      <trkpt lat="44.07542" lon="0.56229">
        <ele>164</ele>
        <time>2025-07-24T14:04:40.289Z</time>
      </trkpt>
      <trkpt lat="44.07542" lon="0.56231">
        <ele>164</ele>
        <time>2025-07-24T14:04:41.289Z</time>
      </trkpt>
      <trkpt lat="44.07542" lon="0.56233">
        <ele>164</ele>
        <time>2025-07-24T14:04:42.289Z</time>
      </trkpt>
      <trkpt lat="44.07543" lon="0.56234">
        <ele>164</ele>
        <time>2025-07-24T14:04:43.289Z</time>
      </trkpt>
      <trkpt lat="44.07543" lon="0.56235">
        <ele>164</ele>
        <time>2025-07-24T14:04:44.289Z</time>
      </trkpt>
      <trkpt lat="44.07543" lon="0.56237">
        <ele>164</ele>
        <time>2025-07-24T14:04:45.289Z</time>
      </trkpt>
      <trkpt lat="44.07543" lon="0.56238">
        <ele>163</ele>
        <time>2025-07-24T14:04:46.289Z</time>
      </trkpt>
      <trkpt lat="44.07543" lon="0.56239">
        <ele>163</ele>
        <time>2025-07-24T14:04:47.289Z</time>
      </trkpt>
      <trkpt lat="44.07543" lon="0.56241">
        <ele>163</ele>
        <time>2025-07-24T14:04:48.289Z</time>
      </trkpt>
      <trkpt lat="44.07543" lon="0.56243">
        <ele>163</ele>
        <time>2025-07-24T14:04:49.289Z</time>
      </trkpt>
      <trkpt lat="44.07544" lon="0.56245">
        <ele>163</ele>
        <time>2025-07-24T14:04:50.289Z</time>
      </trkpt>
      <trkpt lat="44.07544" lon="0.56246">
        <ele>164</ele>
        <time>2025-07-24T14:04:51.289Z</time>
      </trkpt>
      <trkpt lat="44.07544" lon="0.56248">
        <ele>164</ele>
        <time>2025-07-24T14:04:52.289Z</time>
      </trkpt>
      <trkpt lat="44.07545" lon="0.56249">
        <ele>164</ele>
        <time>2025-07-24T14:04:53.289Z</time>
      </trkpt>
      <trkpt lat="44.07545" lon="0.5625">
        <ele>164</ele>
        <time>2025-07-24T14:04:54.289Z</time>
      </trkpt>
      <trkpt lat="44.07545" lon="0.56251">
        <ele>165</ele>
        <time>2025-07-24T14:04:55.289Z</time>
      </trkpt>
      <trkpt lat="44.07546" lon="0.56252">
        <ele>165</ele>
        <time>2025-07-24T14:04:56.289Z</time>
      </trkpt>
      <trkpt lat="44.07546" lon="0.56254">
        <ele>165</ele>
        <time>2025-07-24T14:04:57.289Z</time>
      </trkpt>
      <trkpt lat="44.07546" lon="0.56255">
        <ele>165</ele>
        <time>2025-07-24T14:04:58.289Z</time>
      </trkpt>
      <trkpt lat="44.07546" lon="0.56256">
        <ele>166</ele>
        <time>2025-07-24T14:04:59.289Z</time>
      </trkpt>
      <trkpt lat="44.07546" lon="0.56257">
        <ele>166</ele>
        <time>2025-07-24T14:05:00.289Z</time>
      </trkpt>
      <trkpt lat="44.07546" lon="0.56258">
        <ele>166</ele>
        <time>2025-07-24T14:05:01.289Z</time>
      </trkpt>
      <trkpt lat="44.07546" lon="0.5626">
        <ele>167</ele>
        <time>2025-07-24T14:05:02.289Z</time>
      </trkpt>
      <trkpt lat="44.07547" lon="0.56261">
        <ele>167</ele>
        <time>2025-07-24T14:05:03.289Z</time>
      </trkpt>
      <trkpt lat="44.07547" lon="0.56262">
        <ele>167</ele>
        <time>2025-07-24T14:05:04.289Z</time>
      </trkpt>
      <trkpt lat="44.07547" lon="0.56263">
        <ele>168</ele>
        <time>2025-07-24T14:05:05.289Z</time>
      </trkpt>
      <trkpt lat="44.07548" lon="0.56265">
        <ele>168</ele>
        <time>2025-07-24T14:05:06.289Z</time>
      </trkpt>
      <trkpt lat="44.07549" lon="0.56266">
        <ele>168</ele>
        <time>2025-07-24T14:05:07.289Z</time>
      </trkpt>
      <trkpt lat="44.07549" lon="0.56267">
        <ele>168</ele>
        <time>2025-07-24T14:05:08.289Z</time>
      </trkpt>
      <trkpt lat="44.07549" lon="0.56268">
        <ele>168</ele>
        <time>2025-07-24T14:05:09.289Z</time>
      </trkpt>
      <trkpt lat="44.0755" lon="0.5627">
        <ele>168</ele>
        <time>2025-07-24T14:05:10.289Z</time>
      </trkpt>
      <trkpt lat="44.0755" lon="0.5627">
        <ele>168</ele>
        <time>2025-07-24T14:05:11.289Z</time>
      </trkpt>
      <trkpt lat="44.0755" lon="0.56272">
        <ele>168</ele>
        <time>2025-07-24T14:05:12.289Z</time>
      </trkpt>
      <trkpt lat="44.0755" lon="0.56273">
        <ele>168</ele>
        <time>2025-07-24T14:05:13.289Z</time>
      </trkpt>
      <trkpt lat="44.07551" lon="0.56275">
        <ele>168</ele>
        <time>2025-07-24T14:05:14.289Z</time>
      </trkpt>
      <trkpt lat="44.07551" lon="0.56276">
        <ele>168</ele>
        <time>2025-07-24T14:05:15.289Z</time>
      </trkpt>
      <trkpt lat="44.07551" lon="0.56278">
        <ele>169</ele>
        <time>2025-07-24T14:05:16.289Z</time>
      </trkpt>
      <trkpt lat="44.07552" lon="0.56279">
        <ele>169</ele>
        <time>2025-07-24T14:05:17.289Z</time>
      </trkpt>
      <trkpt lat="44.07552" lon="0.5628">
        <ele>169</ele>
        <time>2025-07-24T14:05:18.289Z</time>
      </trkpt>
      <trkpt lat="44.07552" lon="0.56281">
        <ele>169</ele>
        <time>2025-07-24T14:05:19.289Z</time>
      </trkpt>
      <trkpt lat="44.07552" lon="0.56282">
        <ele>169</ele>
        <time>2025-07-24T14:05:20.289Z</time>
      </trkpt>
      <trkpt lat="44.07552" lon="0.56284">
        <ele>169</ele>
        <time>2025-07-24T14:05:21.289Z</time>
      </trkpt>
      <trkpt lat="44.07552" lon="0.56285">
        <ele>169</ele>
        <time>2025-07-24T14:05:22.289Z</time>
      </trkpt>
      <trkpt lat="44.07552" lon="0.56287">
        <ele>168</ele>
        <time>2025-07-24T14:05:23.289Z</time>
      </trkpt>
      <trkpt lat="44.07553" lon="0.56288">
        <ele>168</ele>
        <time>2025-07-24T14:05:24.289Z</time>
      </trkpt>
      <trkpt lat="44.07553" lon="0.56289">
        <ele>168</ele>
        <time>2025-07-24T14:05:25.289Z</time>
      </trkpt>
      <trkpt lat="44.07554" lon="0.56291">
        <ele>168</ele>
        <time>2025-07-24T14:05:26.289Z</time>
      </trkpt>
      <trkpt lat="44.07554" lon="0.56292">
        <ele>168</ele>
        <time>2025-07-24T14:05:27.289Z</time>
      </trkpt>
      <trkpt lat="44.07555" lon="0.56294">
        <ele>168</ele>
        <time>2025-07-24T14:05:28.289Z</time>
      </trkpt>
      <trkpt lat="44.07555" lon="0.56294">
        <ele>168</ele>
        <time>2025-07-24T14:05:29.289Z</time>
      </trkpt>
      <trkpt lat="44.07556" lon="0.56295">
        <ele>169</ele>
        <time>2025-07-24T14:05:30.289Z</time>
      </trkpt>
      <trkpt lat="44.07556" lon="0.56296">
        <ele>169</ele>
        <time>2025-07-24T14:05:31.289Z</time>
      </trkpt>
      <trkpt lat="44.07556" lon="0.56298">
        <ele>169</ele>
        <time>2025-07-24T14:05:32.289Z</time>
      </trkpt>
      <trkpt lat="44.07557" lon="0.563">
        <ele>169</ele>
        <time>2025-07-24T14:05:33.289Z</time>
      </trkpt>
      <trkpt lat="44.07558" lon="0.56301">
        <ele>170</ele>
        <time>2025-07-24T14:05:34.289Z</time>
      </trkpt>
      <trkpt lat="44.07558" lon="0.56303">
        <ele>170</ele>
        <time>2025-07-24T14:05:35.289Z</time>
      </trkpt>
      <trkpt lat="44.07559" lon="0.56304">
        <ele>170</ele>
        <time>2025-07-24T14:05:36.289Z</time>
      </trkpt>
      <trkpt lat="44.07559" lon="0.56306">
        <ele>170</ele>
        <time>2025-07-24T14:05:37.289Z</time>
      </trkpt>
      <trkpt lat="44.07559" lon="0.56308">
        <ele>170</ele>
        <time>2025-07-24T14:05:38.289Z</time>
      </trkpt>
      <trkpt lat="44.07559" lon="0.56309">
        <ele>170</ele>
        <time>2025-07-24T14:05:39.289Z</time>
      </trkpt>
      <trkpt lat="44.0756" lon="0.56311">
        <ele>170</ele>
        <time>2025-07-24T14:05:40.289Z</time>
      </trkpt>
      <trkpt lat="44.0756" lon="0.56312">
        <ele>171</ele>
        <time>2025-07-24T14:05:41.289Z</time>
      </trkpt>
      <trkpt lat="44.07561" lon="0.56312">
        <ele>171</ele>
        <time>2025-07-24T14:05:42.289Z</time>
      </trkpt>
      <trkpt lat="44.07561" lon="0.56313">
        <ele>172</ele>
        <time>2025-07-24T14:05:43.289Z</time>
      </trkpt>
      <trkpt lat="44.07562" lon="0.56315">
        <ele>172</ele>
        <time>2025-07-24T14:05:44.289Z</time>
      </trkpt>
      <trkpt lat="44.07562" lon="0.56316">
        <ele>172</ele>
        <time>2025-07-24T14:05:45.289Z</time>
      </trkpt>
      <trkpt lat="44.07562" lon="0.56318">
        <ele>172</ele>
        <time>2025-07-24T14:05:46.289Z</time>
      </trkpt>
      <trkpt lat="44.07562" lon="0.56319">
        <ele>173</ele>
        <time>2025-07-24T14:05:47.289Z</time>
      </trkpt>
      <trkpt lat="44.07562" lon="0.5632">
        <ele>173</ele>
        <time>2025-07-24T14:05:48.289Z</time>
      </trkpt>
      <trkpt lat="44.07563" lon="0.56322">
        <ele>173</ele>
        <time>2025-07-24T14:05:49.289Z</time>
      </trkpt>
      <trkpt lat="44.07563" lon="0.56323">
        <ele>173</ele>
        <time>2025-07-24T14:05:50.289Z</time>
      </trkpt>
      <trkpt lat="44.07563" lon="0.56324">
        <ele>173</ele>
        <time>2025-07-24T14:05:51.289Z</time>
      </trkpt>
      <trkpt lat="44.07564" lon="0.56326">
        <ele>173</ele>
        <time>2025-07-24T14:05:52.289Z</time>
      </trkpt>
      <trkpt lat="44.07564" lon="0.56327">
        <ele>173</ele>
        <time>2025-07-24T14:05:53.289Z</time>
      </trkpt>
      <trkpt lat="44.07564" lon="0.56328">
        <ele>173</ele>
        <time>2025-07-24T14:05:54.289Z</time>
      </trkpt>
      <trkpt lat="44.07565" lon="0.56329">
        <ele>173</ele>
        <time>2025-07-24T14:05:55.289Z</time>
      </trkpt>
      <trkpt lat="44.07566" lon="0.5633">
        <ele>174</ele>
        <time>2025-07-24T14:05:56.289Z</time>
      </trkpt>
      <trkpt lat="44.07566" lon="0.56331">
        <ele>174</ele>
        <time>2025-07-24T14:05:57.289Z</time>
      </trkpt>
      <trkpt lat="44.07567" lon="0.56333">
        <ele>174</ele>
        <time>2025-07-24T14:05:58.289Z</time>
      </trkpt>
      <trkpt lat="44.07568" lon="0.56334">
        <ele>175</ele>
        <time>2025-07-24T14:05:59.289Z</time>
      </trkpt>
      <trkpt lat="44.07568" lon="0.56335">
        <ele>175</ele>
        <time>2025-07-24T14:06:00.289Z</time>
      </trkpt>
      <trkpt lat="44.07569" lon="0.56336">
        <ele>175</ele>
        <time>2025-07-24T14:06:01.289Z</time>
      </trkpt>
      <trkpt lat="44.07569" lon="0.56337">
        <ele>176</ele>
        <time>2025-07-24T14:06:02.289Z</time>
      </trkpt>
      <trkpt lat="44.0757" lon="0.56338">
        <ele>176</ele>
        <time>2025-07-24T14:06:03.289Z</time>
      </trkpt>
      <trkpt lat="44.07571" lon="0.56339">
        <ele>176</ele>
        <time>2025-07-24T14:06:04.289Z</time>
      </trkpt>
      <trkpt lat="44.07571" lon="0.5634">
        <ele>176</ele>
        <time>2025-07-24T14:06:05.289Z</time>
      </trkpt>
      <trkpt lat="44.07572" lon="0.56341">
        <ele>176</ele>
        <time>2025-07-24T14:06:06.289Z</time>
      </trkpt>
      <trkpt lat="44.07572" lon="0.56342">
        <ele>176</ele>
        <time>2025-07-24T14:06:07.289Z</time>
      </trkpt>
      <trkpt lat="44.07573" lon="0.56344">
        <ele>177</ele>
        <time>2025-07-24T14:06:08.289Z</time>
      </trkpt>
      <trkpt lat="44.07573" lon="0.56345">
        <ele>177</ele>
        <time>2025-07-24T14:06:09.289Z</time>
      </trkpt>
      <trkpt lat="44.07574" lon="0.56346">
        <ele>177</ele>
        <time>2025-07-24T14:06:10.289Z</time>
      </trkpt>
      <trkpt lat="44.07574" lon="0.56347">
        <ele>177</ele>
        <time>2025-07-24T14:06:11.289Z</time>
      </trkpt>
      <trkpt lat="44.07575" lon="0.56348">
        <ele>177</ele>
        <time>2025-07-24T14:06:12.289Z</time>
      </trkpt>
      <trkpt lat="44.07575" lon="0.5635">
        <ele>177</ele>
        <time>2025-07-24T14:06:13.289Z</time>
      </trkpt>
      <trkpt lat="44.07576" lon="0.56351">
        <ele>177</ele>
        <time>2025-07-24T14:06:14.289Z</time>
      </trkpt>
      <trkpt lat="44.07577" lon="0.56351">
        <ele>176</ele>
        <time>2025-07-24T14:06:15.289Z</time>
      </trkpt>
      <trkpt lat="44.07577" lon="0.56352">
        <ele>177</ele>
        <time>2025-07-24T14:06:16.289Z</time>
      </trkpt>
      <trkpt lat="44.07577" lon="0.56353">
        <ele>177</ele>
        <time>2025-07-24T14:06:17.289Z</time>
      </trkpt>
      <trkpt lat="44.07578" lon="0.56354">
        <ele>177</ele>
        <time>2025-07-24T14:06:18.289Z</time>
      </trkpt>
      <trkpt lat="44.07578" lon="0.56356">
        <ele>177</ele>
        <time>2025-07-24T14:06:19.289Z</time>
      </trkpt>
      <trkpt lat="44.07579" lon="0.56357">
        <ele>177</ele>
        <time>2025-07-24T14:06:20.289Z</time>
      </trkpt>
      <trkpt lat="44.07579" lon="0.56358">
        <ele>177</ele>
        <time>2025-07-24T14:06:21.289Z</time>
      </trkpt>
      <trkpt lat="44.07579" lon="0.56359">
        <ele>177</ele>
        <time>2025-07-24T14:06:22.289Z</time>
      </trkpt>
      <trkpt lat="44.0758" lon="0.5636">
        <ele>177</ele>
        <time>2025-07-24T14:06:23.289Z</time>
      </trkpt>
      <trkpt lat="44.07581" lon="0.56362">
        <ele>177</ele>
        <time>2025-07-24T14:06:24.289Z</time>
      </trkpt>
      <trkpt lat="44.07581" lon="0.56363">
        <ele>177</ele>
        <time>2025-07-24T14:06:25.289Z</time>
      </trkpt>
      <trkpt lat="44.07581" lon="0.56364">
        <ele>177</ele>
        <time>2025-07-24T14:06:26.289Z</time>
      </trkpt>
      <trkpt lat="44.07582" lon="0.56365">
        <ele>178</ele>
        <time>2025-07-24T14:06:27.289Z</time>
      </trkpt>
      <trkpt lat="44.07583" lon="0.56366">
        <ele>178</ele>
        <time>2025-07-24T14:06:28.289Z</time>
      </trkpt>
      <trkpt lat="44.07583" lon="0.56368">
        <ele>178</ele>
        <time>2025-07-24T14:06:29.289Z</time>
      </trkpt>
      <trkpt lat="44.07584" lon="0.56369">
        <ele>178</ele>
        <time>2025-07-24T14:06:30.289Z</time>
      </trkpt>
      <trkpt lat="44.07584" lon="0.5637">
        <ele>178</ele>
        <time>2025-07-24T14:06:31.289Z</time>
      </trkpt>
      <trkpt lat="44.07585" lon="0.56371">
        <ele>178</ele>
        <time>2025-07-24T14:06:32.289Z</time>
      </trkpt>
      <trkpt lat="44.07585" lon="0.56373">
        <ele>178</ele>
        <time>2025-07-24T14:06:33.289Z</time>
      </trkpt>
      <trkpt lat="44.07586" lon="0.56374">
        <ele>178</ele>
        <time>2025-07-24T14:06:34.289Z</time>
      </trkpt>
      <trkpt lat="44.07587" lon="0.56376">
        <ele>178</ele>
        <time>2025-07-24T14:06:35.289Z</time>
      </trkpt>
      <trkpt lat="44.07587" lon="0.56377">
        <ele>178</ele>
        <time>2025-07-24T14:06:36.289Z</time>
      </trkpt>
      <trkpt lat="44.07587" lon="0.56378">
        <ele>177</ele>
        <time>2025-07-24T14:06:37.289Z</time>
      </trkpt>
      <trkpt lat="44.07587" lon="0.56379">
        <ele>177</ele>
        <time>2025-07-24T14:06:38.289Z</time>
      </trkpt>
      <trkpt lat="44.07588" lon="0.56381">
        <ele>178</ele>
        <time>2025-07-24T14:06:39.289Z</time>
      </trkpt>
      <trkpt lat="44.07589" lon="0.56382">
        <ele>178</ele>
        <time>2025-07-24T14:06:40.289Z</time>
      </trkpt>
      <trkpt lat="44.0759" lon="0.56383">
        <ele>178</ele>
        <time>2025-07-24T14:06:41.289Z</time>
      </trkpt>
      <trkpt lat="44.07591" lon="0.56385">
        <ele>178</ele>
        <time>2025-07-24T14:06:42.289Z</time>
      </trkpt>
      <trkpt lat="44.07591" lon="0.56386">
        <ele>178</ele>
        <time>2025-07-24T14:06:43.289Z</time>
      </trkpt>
      <trkpt lat="44.07592" lon="0.56387">
        <ele>178</ele>
        <time>2025-07-24T14:06:44.289Z</time>
      </trkpt>
      <trkpt lat="44.07592" lon="0.56388">
        <ele>178</ele>
        <time>2025-07-24T14:06:45.289Z</time>
      </trkpt>
      <trkpt lat="44.07592" lon="0.56389">
        <ele>179</ele>
        <time>2025-07-24T14:06:46.289Z</time>
      </trkpt>
      <trkpt lat="44.07593" lon="0.5639">
        <ele>179</ele>
        <time>2025-07-24T14:06:47.289Z</time>
      </trkpt>
      <trkpt lat="44.07593" lon="0.56391">
        <ele>179</ele>
        <time>2025-07-24T14:06:48.289Z</time>
      </trkpt>
      <trkpt lat="44.07594" lon="0.56393">
        <ele>179</ele>
        <time>2025-07-24T14:06:49.289Z</time>
      </trkpt>
      <trkpt lat="44.07594" lon="0.56394">
        <ele>179</ele>
        <time>2025-07-24T14:06:50.289Z</time>
      </trkpt>
      <trkpt lat="44.07594" lon="0.56395">
        <ele>179</ele>
        <time>2025-07-24T14:06:51.289Z</time>
      </trkpt>
      <trkpt lat="44.07594" lon="0.56397">
        <ele>179</ele>
        <time>2025-07-24T14:06:52.289Z</time>
      </trkpt>
      <trkpt lat="44.07595" lon="0.56398">
        <ele>179</ele>
        <time>2025-07-24T14:06:53.289Z</time>
      </trkpt>
      <trkpt lat="44.07595" lon="0.56399">
        <ele>178</ele>
        <time>2025-07-24T14:06:54.289Z</time>
      </trkpt>
      <trkpt lat="44.07595" lon="0.564">
        <ele>178</ele>
        <time>2025-07-24T14:06:55.289Z</time>
      </trkpt>
      <trkpt lat="44.07596" lon="0.56401">
        <ele>178</ele>
        <time>2025-07-24T14:06:56.289Z</time>
      </trkpt>
      <trkpt lat="44.07596" lon="0.56402">
        <ele>178</ele>
        <time>2025-07-24T14:06:57.289Z</time>
      </trkpt>
      <trkpt lat="44.07596" lon="0.56403">
        <ele>178</ele>
        <time>2025-07-24T14:06:58.289Z</time>
      </trkpt>
      <trkpt lat="44.07596" lon="0.56405">
        <ele>178</ele>
        <time>2025-07-24T14:06:59.289Z</time>
      </trkpt>
      <trkpt lat="44.07596" lon="0.56406">
        <ele>179</ele>
        <time>2025-07-24T14:07:00.289Z</time>
      </trkpt>
      <trkpt lat="44.07597" lon="0.56407">
        <ele>179</ele>
        <time>2025-07-24T14:07:01.289Z</time>
      </trkpt>
      <trkpt lat="44.07597" lon="0.56408">
        <ele>179</ele>
        <time>2025-07-24T14:07:02.289Z</time>
      </trkpt>
      <trkpt lat="44.07597" lon="0.56409">
        <ele>179</ele>
        <time>2025-07-24T14:07:03.289Z</time>
      </trkpt>
      <trkpt lat="44.07597" lon="0.56411">
        <ele>179</ele>
        <time>2025-07-24T14:07:04.289Z</time>
      </trkpt>
      <trkpt lat="44.07597" lon="0.56412">
        <ele>180</ele>
        <time>2025-07-24T14:07:05.289Z</time>
      </trkpt>
      <trkpt lat="44.07598" lon="0.56413">
        <ele>180</ele>
        <time>2025-07-24T14:07:06.289Z</time>
      </trkpt>
      <trkpt lat="44.07598" lon="0.56414">
        <ele>180</ele>
        <time>2025-07-24T14:07:07.289Z</time>
      </trkpt>
      <trkpt lat="44.07598" lon="0.56415">
        <ele>180</ele>
        <time>2025-07-24T14:07:08.289Z</time>
      </trkpt>
      <trkpt lat="44.07598" lon="0.56417">
        <ele>180</ele>
        <time>2025-07-24T14:07:09.289Z</time>
      </trkpt>
      <trkpt lat="44.07598" lon="0.56418">
        <ele>180</ele>
        <time>2025-07-24T14:07:10.289Z</time>
      </trkpt>
      <trkpt lat="44.07598" lon="0.56419">
        <ele>180</ele>
        <time>2025-07-24T14:07:11.289Z</time>
      </trkpt>
      <trkpt lat="44.07599" lon="0.5642">
        <ele>180</ele>
        <time>2025-07-24T14:07:12.289Z</time>
      </trkpt>
      <trkpt lat="44.07599" lon="0.56421">
        <ele>180</ele>
        <time>2025-07-24T14:07:13.289Z</time>
      </trkpt>
      <trkpt lat="44.076" lon="0.56422">
        <ele>180</ele>
        <time>2025-07-24T14:07:14.289Z</time>
      </trkpt>
      <trkpt lat="44.076" lon="0.56423">
        <ele>180</ele>
        <time>2025-07-24T14:07:15.289Z</time>
      </trkpt>
      <trkpt lat="44.076" lon="0.56423">
        <ele>179</ele>
        <time>2025-07-24T14:07:16.289Z</time>
      </trkpt>
      <trkpt lat="44.076" lon="0.56423">
        <ele>179</ele>
        <time>2025-07-24T14:07:17.289Z</time>
      </trkpt>
      <trkpt lat="44.076" lon="0.56423">
        <ele>179</ele>
        <time>2025-07-24T14:07:18.289Z</time>
      </trkpt>
      <trkpt lat="44.076" lon="0.56423">
        <ele>179</ele>
        <time>2025-07-24T14:07:19.289Z</time>
      </trkpt>
      <trkpt lat="44.076" lon="0.56423">
        <ele>180</ele>
        <time>2025-07-24T14:07:20.289Z</time>
      </trkpt>
      <trkpt lat="44.076" lon="0.56423">
        <ele>180</ele>
        <time>2025-07-24T14:07:21.290Z</time>
      </trkpt>
      <trkpt lat="44.076" lon="0.56423">
        <ele>180</ele>
        <time>2025-07-24T14:07:22.289Z</time>
      </trkpt>
      <trkpt lat="44.076" lon="0.56423">
        <ele>180</ele>
        <time>2025-07-24T14:07:23.289Z</time>
      </trkpt>
      <trkpt lat="44.076" lon="0.56423">
        <ele>180</ele>
        <time>2025-07-24T14:07:24.289Z</time>
      </trkpt>
      <trkpt lat="44.076" lon="0.56423">
        <ele>181</ele>
        <time>2025-07-24T14:07:25.289Z</time>
      </trkpt>
      <trkpt lat="44.076" lon="0.56422">
        <ele>182</ele>
        <time>2025-07-24T14:07:26.289Z</time>
      </trkpt>
      <trkpt lat="44.076" lon="0.56422">
        <ele>183</ele>
        <time>2025-07-24T14:07:27.289Z</time>
      </trkpt>
      <trkpt lat="44.076" lon="0.56422">
        <ele>183</ele>
        <time>2025-07-24T14:07:28.289Z</time>
      </trkpt>
      <trkpt lat="44.076" lon="0.56423">
        <ele>184</ele>
        <time>2025-07-24T14:07:29.289Z</time>
      </trkpt>
      <trkpt lat="44.076" lon="0.56423">
        <ele>184</ele>
        <time>2025-07-24T14:07:30.289Z</time>
      </trkpt>
      <trkpt lat="44.076" lon="0.56423">
        <ele>184</ele>
        <time>2025-07-24T14:07:31.289Z</time>
      </trkpt>
      <trkpt lat="44.076" lon="0.56423">
        <ele>184</ele>
        <time>2025-07-24T14:07:32.289Z</time>
      </trkpt>
      <trkpt lat="44.076" lon="0.56423">
        <ele>184</ele>
        <time>2025-07-24T14:07:33.289Z</time>
      </trkpt>
      <trkpt lat="44.076" lon="0.56423">
        <ele>184</ele>
        <time>2025-07-24T14:07:34.289Z</time>
      </trkpt>
      <trkpt lat="44.076" lon="0.56423">
        <ele>184</ele>
        <time>2025-07-24T14:07:35.289Z</time>
      </trkpt>
      <trkpt lat="44.076" lon="0.56423">
        <ele>184</ele>
        <time>2025-07-24T14:07:36.289Z</time>
      </trkpt>
      <trkpt lat="44.076" lon="0.56423">
        <ele>184</ele>
        <time>2025-07-24T14:07:37.289Z</time>
      </trkpt>
      <trkpt lat="44.076" lon="0.56423">
        <ele>184</ele>
        <time>2025-07-24T14:07:38.289Z</time>
      </trkpt>
      <trkpt lat="44.076" lon="0.56423">
        <ele>184</ele>
        <time>2025-07-24T14:07:39.289Z</time>
      </trkpt>
      <trkpt lat="44.076" lon="0.56423">
        <ele>184</ele>
        <time>2025-07-24T14:07:40.289Z</time>
      </trkpt>
      <trkpt lat="44.076" lon="0.56423">
        <ele>184</ele>
        <time>2025-07-24T14:07:41.289Z</time>
      </trkpt>
      <trkpt lat="44.076" lon="0.56423">
        <ele>184</ele>
        <time>2025-07-24T14:07:42.289Z</time>
      </trkpt>
      <trkpt lat="44.076" lon="0.56423">
        <ele>184</ele>
        <time>2025-07-24T14:07:43.289Z</time>
      </trkpt>
      <trkpt lat="44.076" lon="0.56423">
        <ele>184</ele>
        <time>2025-07-24T14:07:44.289Z</time>
      </trkpt>
      <trkpt lat="44.076" lon="0.56422">
        <ele>184</ele>
        <time>2025-07-24T14:07:45.289Z</time>
      </trkpt>
      <trkpt lat="44.076" lon="0.56422">
        <ele>183</ele>
        <time>2025-07-24T14:07:46.289Z</time>
      </trkpt>
      <trkpt lat="44.076" lon="0.56423">
        <ele>183</ele>
        <time>2025-07-24T14:07:47.289Z</time>
      </trkpt>
      <trkpt lat="44.076" lon="0.56423">
        <ele>182</ele>
        <time>2025-07-24T14:07:48.289Z</time>
      </trkpt>
      <trkpt lat="44.076" lon="0.56423">
        <ele>182</ele>
        <time>2025-07-24T14:07:49.289Z</time>
      </trkpt>
      <trkpt lat="44.076" lon="0.56423">
        <ele>182</ele>
        <time>2025-07-24T14:07:50.289Z</time>
      </trkpt>
      <trkpt lat="44.076" lon="0.56423">
        <ele>182</ele>
        <time>2025-07-24T14:07:51.289Z</time>
      </trkpt>
      <trkpt lat="44.076" lon="0.56423">
        <ele>181</ele>
        <time>2025-07-24T14:07:52.289Z</time>
      </trkpt>
      <trkpt lat="44.076" lon="0.56423">
        <ele>181</ele>
        <time>2025-07-24T14:07:53.290Z</time>
      </trkpt>
      <trkpt lat="44.07601" lon="0.56424">
        <ele>181</ele>
        <time>2025-07-24T14:07:54.289Z</time>
      </trkpt>
      <trkpt lat="44.07601" lon="0.56425">
        <ele>181</ele>
        <time>2025-07-24T14:07:55.289Z</time>
      </trkpt>
      <trkpt lat="44.07601" lon="0.56425">
        <ele>181</ele>
        <time>2025-07-24T14:07:56.289Z</time>
      </trkpt>
      <trkpt lat="44.07602" lon="0.56426">
        <ele>181</ele>
        <time>2025-07-24T14:07:57.289Z</time>
      </trkpt>
      <trkpt lat="44.07602" lon="0.56426">
        <ele>181</ele>
        <time>2025-07-24T14:07:58.289Z</time>
      </trkpt>
      <trkpt lat="44.07602" lon="0.56426">
        <ele>181</ele>
        <time>2025-07-24T14:07:59.289Z</time>
      </trkpt>
      <trkpt lat="44.07602" lon="0.56427">
        <ele>180</ele>
        <time>2025-07-24T14:08:00.289Z</time>
      </trkpt>
      <trkpt lat="44.07602" lon="0.56427">
        <ele>180</ele>
        <time>2025-07-24T14:08:01.289Z</time>
      </trkpt>
      <trkpt lat="44.07603" lon="0.56427">
        <ele>180</ele>
        <time>2025-07-24T14:08:02.289Z</time>
      </trkpt>
      <trkpt lat="44.07603" lon="0.56427">
        <ele>180</ele>
        <time>2025-07-24T14:08:03.289Z</time>
      </trkpt>
      <trkpt lat="44.07603" lon="0.56427">
        <ele>180</ele>
        <time>2025-07-24T14:08:04.289Z</time>
      </trkpt>
      <trkpt lat="44.07603" lon="0.56428">
        <ele>181</ele>
        <time>2025-07-24T14:08:05.289Z</time>
      </trkpt>
      <trkpt lat="44.07603" lon="0.56428">
        <ele>181</ele>
        <time>2025-07-24T14:08:06.289Z</time>
      </trkpt>
      <trkpt lat="44.07602" lon="0.56427">
        <ele>181</ele>
        <time>2025-07-24T14:08:07.289Z</time>
      </trkpt>
      <trkpt lat="44.07602" lon="0.56427">
        <ele>182</ele>
        <time>2025-07-24T14:08:08.289Z</time>
      </trkpt>
      <trkpt lat="44.07603" lon="0.56427">
        <ele>182</ele>
        <time>2025-07-24T14:08:09.289Z</time>
      </trkpt>
      <trkpt lat="44.07603" lon="0.56427">
        <ele>182</ele>
        <time>2025-07-24T14:08:10.289Z</time>
      </trkpt>
      <trkpt lat="44.07602" lon="0.56427">
        <ele>183</ele>
        <time>2025-07-24T14:08:11.289Z</time>
      </trkpt>
      <trkpt lat="44.07603" lon="0.56427">
        <ele>183</ele>
        <time>2025-07-24T14:08:12.289Z</time>
      </trkpt>
      <trkpt lat="44.07603" lon="0.56427">
        <ele>183</ele>
        <time>2025-07-24T14:08:13.289Z</time>
      </trkpt>
      <trkpt lat="44.07603" lon="0.56427">
        <ele>183</ele>
        <time>2025-07-24T14:08:14.289Z</time>
      </trkpt>
      <trkpt lat="44.07603" lon="0.56428">
        <ele>183</ele>
        <time>2025-07-24T14:08:15.289Z</time>
      </trkpt>
      <trkpt lat="44.07602" lon="0.56428">
        <ele>183</ele>
        <time>2025-07-24T14:08:16.289Z</time>
      </trkpt>
      <trkpt lat="44.07602" lon="0.56429">
        <ele>183</ele>
        <time>2025-07-24T14:08:17.289Z</time>
      </trkpt>
      <trkpt lat="44.07602" lon="0.56429">
        <ele>183</ele>
        <time>2025-07-24T14:08:18.289Z</time>
      </trkpt>
      <trkpt lat="44.07601" lon="0.56429">
        <ele>184</ele>
        <time>2025-07-24T14:08:19.289Z</time>
      </trkpt>
      <trkpt lat="44.07601" lon="0.5643">
        <ele>184</ele>
        <time>2025-07-24T14:08:20.289Z</time>
      </trkpt>
      <trkpt lat="44.07601" lon="0.5643">
        <ele>184</ele>
        <time>2025-07-24T14:08:21.289Z</time>
      </trkpt>
      <trkpt lat="44.07601" lon="0.5643">
        <ele>184</ele>
        <time>2025-07-24T14:08:22.289Z</time>
      </trkpt>
      <trkpt lat="44.07601" lon="0.5643">
        <ele>184</ele>
        <time>2025-07-24T14:08:23.289Z</time>
      </trkpt>
      <trkpt lat="44.07601" lon="0.56429">
        <ele>184</ele>
        <time>2025-07-24T14:08:24.289Z</time>
      </trkpt>
      <trkpt lat="44.07601" lon="0.56429">
        <ele>184</ele>
        <time>2025-07-24T14:08:25.289Z</time>
      </trkpt>
      <trkpt lat="44.07601" lon="0.56429">
        <ele>184</ele>
        <time>2025-07-24T14:08:26.289Z</time>
      </trkpt>
      <trkpt lat="44.07601" lon="0.56429">
        <ele>184</ele>
        <time>2025-07-24T14:08:27.289Z</time>
      </trkpt>
      <trkpt lat="44.07601" lon="0.56429">
        <ele>184</ele>
        <time>2025-07-24T14:08:28.289Z</time>
      </trkpt>
      <trkpt lat="44.07601" lon="0.5643">
        <ele>184</ele>
        <time>2025-07-24T14:08:29.289Z</time>
      </trkpt>
      <trkpt lat="44.07601" lon="0.5643">
        <ele>185</ele>
        <time>2025-07-24T14:08:30.289Z</time>
      </trkpt>
      <trkpt lat="44.07601" lon="0.5643">
        <ele>185</ele>
        <time>2025-07-24T14:08:31.289Z</time>
      </trkpt>
      <trkpt lat="44.076" lon="0.5643">
        <ele>185</ele>
        <time>2025-07-24T14:08:32.289Z</time>
      </trkpt>
      <trkpt lat="44.076" lon="0.5643">
        <ele>185</ele>
        <time>2025-07-24T14:08:33.289Z</time>
      </trkpt>
      <trkpt lat="44.076" lon="0.5643">
        <ele>185</ele>
        <time>2025-07-24T14:08:34.289Z</time>
      </trkpt>
      <trkpt lat="44.076" lon="0.5643">
        <ele>184</ele>
        <time>2025-07-24T14:08:35.289Z</time>
      </trkpt>
      <trkpt lat="44.076" lon="0.5643">
        <ele>184</ele>
        <time>2025-07-24T14:08:36.289Z</time>
      </trkpt>
      <trkpt lat="44.076" lon="0.5643">
        <ele>184</ele>
        <time>2025-07-24T14:08:37.289Z</time>
      </trkpt>
      <trkpt lat="44.076" lon="0.5643">
        <ele>184</ele>
        <time>2025-07-24T14:08:38.289Z</time>
      </trkpt>
      <trkpt lat="44.076" lon="0.5643">
        <ele>183</ele>
        <time>2025-07-24T14:08:39.289Z</time>
      </trkpt>
      <trkpt lat="44.076" lon="0.56429">
        <ele>183</ele>
        <time>2025-07-24T14:08:40.289Z</time>
      </trkpt>
      <trkpt lat="44.076" lon="0.56429">
        <ele>183</ele>
        <time>2025-07-24T14:08:41.289Z</time>
      </trkpt>
      <trkpt lat="44.076" lon="0.56429">
        <ele>182</ele>
        <time>2025-07-24T14:08:42.289Z</time>
      </trkpt>
      <trkpt lat="44.076" lon="0.56429">
        <ele>182</ele>
        <time>2025-07-24T14:08:43.289Z</time>
      </trkpt>
      <trkpt lat="44.076" lon="0.56429">
        <ele>183</ele>
        <time>2025-07-24T14:08:44.289Z</time>
      </trkpt>
      <trkpt lat="44.076" lon="0.56429">
        <ele>183</ele>
        <time>2025-07-24T14:08:45.289Z</time>
      </trkpt>
      <trkpt lat="44.076" lon="0.5643">
        <ele>183</ele>
        <time>2025-07-24T14:08:46.289Z</time>
      </trkpt>
      <trkpt lat="44.076" lon="0.5643">
        <ele>183</ele>
        <time>2025-07-24T14:08:47.289Z</time>
      </trkpt>
      <trkpt lat="44.076" lon="0.5643">
        <ele>183</ele>
        <time>2025-07-24T14:08:48.289Z</time>
      </trkpt>
      <trkpt lat="44.076" lon="0.5643">
        <ele>183</ele>
        <time>2025-07-24T14:08:49.289Z</time>
      </trkpt>
      <trkpt lat="44.076" lon="0.5643">
        <ele>183</ele>
        <time>2025-07-24T14:08:50.289Z</time>
      </trkpt>
      <trkpt lat="44.076" lon="0.5643">
        <ele>183</ele>
        <time>2025-07-24T14:08:51.289Z</time>
      </trkpt>
      <trkpt lat="44.076" lon="0.5643">
        <ele>183</ele>
        <time>2025-07-24T14:08:52.289Z</time>
      </trkpt>
      <trkpt lat="44.076" lon="0.5643">
        <ele>183</ele>
        <time>2025-07-24T14:08:53.289Z</time>
      </trkpt>
      <trkpt lat="44.076" lon="0.56429">
        <ele>182</ele>
        <time>2025-07-24T14:08:54.289Z</time>
      </trkpt>
      <trkpt lat="44.076" lon="0.56429">
        <ele>182</ele>
        <time>2025-07-24T14:08:55.289Z</time>
      </trkpt>
      <trkpt lat="44.076" lon="0.56429">
        <ele>183</ele>
        <time>2025-07-24T14:08:56.289Z</time>
      </trkpt>
      <trkpt lat="44.076" lon="0.56429">
        <ele>183</ele>
        <time>2025-07-24T14:08:57.289Z</time>
      </trkpt>
      <trkpt lat="44.076" lon="0.56429">
        <ele>183</ele>
        <time>2025-07-24T14:08:58.289Z</time>
      </trkpt>
      <trkpt lat="44.076" lon="0.5643">
        <ele>183</ele>
        <time>2025-07-24T14:08:59.289Z</time>
      </trkpt>
      <trkpt lat="44.076" lon="0.5643">
        <ele>183</ele>
        <time>2025-07-24T14:09:00.289Z</time>
      </trkpt>
      <trkpt lat="44.076" lon="0.5643">
        <ele>184</ele>
        <time>2025-07-24T14:09:01.289Z</time>
      </trkpt>
      <trkpt lat="44.076" lon="0.5643">
        <ele>184</ele>
        <time>2025-07-24T14:09:02.289Z</time>
      </trkpt>
      <trkpt lat="44.076" lon="0.5643">
        <ele>184</ele>
        <time>2025-07-24T14:09:03.289Z</time>
      </trkpt>
      <trkpt lat="44.076" lon="0.5643">
        <ele>185</ele>
        <time>2025-07-24T14:09:04.289Z</time>
      </trkpt>
      <trkpt lat="44.076" lon="0.5643">
        <ele>185</ele>
        <time>2025-07-24T14:09:05.289Z</time>
      </trkpt>
      <trkpt lat="44.076" lon="0.5643">
        <ele>185</ele>
        <time>2025-07-24T14:09:06.289Z</time>
      </trkpt>
      <trkpt lat="44.076" lon="0.5643">
        <ele>185</ele>
        <time>2025-07-24T14:09:07.289Z</time>
      </trkpt>
      <trkpt lat="44.076" lon="0.5643">
        <ele>185</ele>
        <time>2025-07-24T14:09:08.289Z</time>
      </trkpt>
      <trkpt lat="44.076" lon="0.5643">
        <ele>185</ele>
        <time>2025-07-24T14:09:09.289Z</time>
      </trkpt>
      <trkpt lat="44.076" lon="0.5643">
        <ele>186</ele>
        <time>2025-07-24T14:09:10.289Z</time>
      </trkpt>
      <trkpt lat="44.076" lon="0.5643">
        <ele>186</ele>
        <time>2025-07-24T14:09:11.289Z</time>
      </trkpt>
      <trkpt lat="44.076" lon="0.5643">
        <ele>186</ele>
        <time>2025-07-24T14:09:12.289Z</time>
      </trkpt>
      <trkpt lat="44.076" lon="0.5643">
        <ele>186</ele>
        <time>2025-07-24T14:09:13.289Z</time>
      </trkpt>
      <trkpt lat="44.076" lon="0.5643">
        <ele>186</ele>
        <time>2025-07-24T14:09:14.290Z</time>
      </trkpt>
      <trkpt lat="44.076" lon="0.5643">
        <ele>187</ele>
        <time>2025-07-24T14:09:15.289Z</time>
      </trkpt>
      <trkpt lat="44.076" lon="0.5643">
        <ele>187</ele>
        <time>2025-07-24T14:09:16.289Z</time>
      </trkpt>
      <trkpt lat="44.076" lon="0.5643">
        <ele>187</ele>
        <time>2025-07-24T14:09:17.289Z</time>
      </trkpt>
      <trkpt lat="44.076" lon="0.5643">
        <ele>187</ele>
        <time>2025-07-24T14:09:18.289Z</time>
      </trkpt>
      <trkpt lat="44.076" lon="0.56429">
        <ele>187</ele>
        <time>2025-07-24T14:09:19.289Z</time>
      </trkpt>
      <trkpt lat="44.076" lon="0.56429">
        <ele>187</ele>
        <time>2025-07-24T14:09:20.289Z</time>
      </trkpt>
      <trkpt lat="44.07601" lon="0.56429">
        <ele>187</ele>
        <time>2025-07-24T14:09:21.289Z</time>
      </trkpt>
      <trkpt lat="44.07601" lon="0.56429">
        <ele>187</ele>
        <time>2025-07-24T14:09:22.289Z</time>
      </trkpt>
      <trkpt lat="44.07601" lon="0.56429">
        <ele>187</ele>
        <time>2025-07-24T14:09:23.289Z</time>
      </trkpt>
      <trkpt lat="44.076" lon="0.56429">
        <ele>187</ele>
        <time>2025-07-24T14:09:24.289Z</time>
      </trkpt>
      <trkpt lat="44.07601" lon="0.56429">
        <ele>187</ele>
        <time>2025-07-24T14:09:25.289Z</time>
      </trkpt>
      <trkpt lat="44.07601" lon="0.56429">
        <ele>187</ele>
        <time>2025-07-24T14:09:26.289Z</time>
      </trkpt>
      <trkpt lat="44.076" lon="0.56429">
        <ele>187</ele>
        <time>2025-07-24T14:09:27.289Z</time>
      </trkpt>
      <trkpt lat="44.076" lon="0.56429">
        <ele>187</ele>
        <time>2025-07-24T14:09:28.289Z</time>
      </trkpt>
      <trkpt lat="44.076" lon="0.56429">
        <ele>187</ele>
        <time>2025-07-24T14:09:29.289Z</time>
      </trkpt>
      <trkpt lat="44.076" lon="0.5643">
        <ele>188</ele>
        <time>2025-07-24T14:09:30.289Z</time>
      </trkpt>
      <trkpt lat="44.07601" lon="0.5643">
        <ele>188</ele>
        <time>2025-07-24T14:09:31.289Z</time>
      </trkpt>
      <trkpt lat="44.07601" lon="0.56429">
        <ele>188</ele>
        <time>2025-07-24T14:09:32.289Z</time>
      </trkpt>
      <trkpt lat="44.07601" lon="0.56429">
        <ele>188</ele>
        <time>2025-07-24T14:09:33.289Z</time>
      </trkpt>
      <trkpt lat="44.07601" lon="0.56429">
        <ele>188</ele>
        <time>2025-07-24T14:09:34.290Z</time>
      </trkpt>
      <trkpt lat="44.07601" lon="0.5643">
        <ele>188</ele>
        <time>2025-07-24T14:09:35.289Z</time>
      </trkpt>
      <trkpt lat="44.07601" lon="0.5643">
        <ele>187</ele>
        <time>2025-07-24T14:09:36.289Z</time>
      </trkpt>
      <trkpt lat="44.07601" lon="0.5643">
        <ele>187</ele>
        <time>2025-07-24T14:09:37.289Z</time>
      </trkpt>
      <trkpt lat="44.076" lon="0.56429">
        <ele>186</ele>
        <time>2025-07-24T14:09:38.289Z</time>
      </trkpt>
      <trkpt lat="44.076" lon="0.56429">
        <ele>186</ele>
        <time>2025-07-24T14:09:39.289Z</time>
      </trkpt>
      <trkpt lat="44.076" lon="0.56429">
        <ele>186</ele>
        <time>2025-07-24T14:09:40.289Z</time>
      </trkpt>
      <trkpt lat="44.076" lon="0.56429">
        <ele>186</ele>
        <time>2025-07-24T14:09:41.289Z</time>
      </trkpt>
      <trkpt lat="44.07599" lon="0.56429">
        <ele>185</ele>
        <time>2025-07-24T14:09:42.289Z</time>
      </trkpt>
      <trkpt lat="44.07599" lon="0.56429">
        <ele>185</ele>
        <time>2025-07-24T14:09:43.289Z</time>
      </trkpt>
      <trkpt lat="44.07599" lon="0.56429">
        <ele>185</ele>
        <time>2025-07-24T14:09:44.289Z</time>
      </trkpt>
      <trkpt lat="44.07599" lon="0.5643">
        <ele>184</ele>
        <time>2025-07-24T14:09:45.289Z</time>
      </trkpt>
      <trkpt lat="44.07599" lon="0.5643">
        <ele>184</ele>
        <time>2025-07-24T14:09:46.289Z</time>
      </trkpt>
      <trkpt lat="44.07599" lon="0.5643">
        <ele>183</ele>
        <time>2025-07-24T14:09:47.289Z</time>
      </trkpt>
      <trkpt lat="44.07599" lon="0.5643">
        <ele>182</ele>
        <time>2025-07-24T14:09:48.289Z</time>
      </trkpt>
      <trkpt lat="44.076" lon="0.5643">
        <ele>182</ele>
        <time>2025-07-24T14:09:49.289Z</time>
      </trkpt>
      <trkpt lat="44.076" lon="0.5643">
        <ele>181</ele>
        <time>2025-07-24T14:09:50.289Z</time>
      </trkpt>
      <trkpt lat="44.076" lon="0.56431">
        <ele>181</ele>
        <time>2025-07-24T14:09:51.289Z</time>
      </trkpt>
      <trkpt lat="44.076" lon="0.56431">
        <ele>180</ele>
        <time>2025-07-24T14:09:52.289Z</time>
      </trkpt>
      <trkpt lat="44.076" lon="0.56431">
        <ele>180</ele>
        <time>2025-07-24T14:09:53.289Z</time>
      </trkpt>
      <trkpt lat="44.076" lon="0.56432">
        <ele>180</ele>
        <time>2025-07-24T14:09:54.289Z</time>
      </trkpt>
      <trkpt lat="44.076" lon="0.56432">
        <ele>179</ele>
        <time>2025-07-24T14:09:55.289Z</time>
      </trkpt>
      <trkpt lat="44.076" lon="0.56432">
        <ele>179</ele>
        <time>2025-07-24T14:09:56.289Z</time>
      </trkpt>
      <trkpt lat="44.07601" lon="0.56432">
        <ele>180</ele>
        <time>2025-07-24T14:09:57.289Z</time>
      </trkpt>
      <trkpt lat="44.07601" lon="0.56433">
        <ele>180</ele>
        <time>2025-07-24T14:09:58.289Z</time>
      </trkpt>
      <trkpt lat="44.07601" lon="0.56433">
        <ele>180</ele>
        <time>2025-07-24T14:09:59.289Z</time>
      </trkpt>
      <trkpt lat="44.07601" lon="0.56434">
        <ele>180</ele>
        <time>2025-07-24T14:10:00.289Z</time>
      </trkpt>
      <trkpt lat="44.076" lon="0.56434">
        <ele>180</ele>
        <time>2025-07-24T14:10:01.289Z</time>
      </trkpt>
      <trkpt lat="44.076" lon="0.56434">
        <ele>180</ele>
        <time>2025-07-24T14:10:02.289Z</time>
      </trkpt>
      <trkpt lat="44.076" lon="0.56434">
        <ele>180</ele>
        <time>2025-07-24T14:10:03.289Z</time>
      </trkpt>
      <trkpt lat="44.076" lon="0.56434">
        <ele>180</ele>
        <time>2025-07-24T14:10:04.289Z</time>
      </trkpt>
      <trkpt lat="44.076" lon="0.56434">
        <ele>180</ele>
        <time>2025-07-24T14:10:05.289Z</time>
      </trkpt>
      <trkpt lat="44.076" lon="0.56434">
        <ele>179</ele>
        <time>2025-07-24T14:10:06.289Z</time>
      </trkpt>
      <trkpt lat="44.076" lon="0.56435">
        <ele>179</ele>
        <time>2025-07-24T14:10:07.289Z</time>
      </trkpt>
      <trkpt lat="44.076" lon="0.56435">
        <ele>179</ele>
        <time>2025-07-24T14:10:08.289Z</time>
      </trkpt>
      <trkpt lat="44.076" lon="0.56435">
        <ele>179</ele>
        <time>2025-07-24T14:10:09.289Z</time>
      </trkpt>
      <trkpt lat="44.076" lon="0.56435">
        <ele>179</ele>
        <time>2025-07-24T14:10:10.289Z</time>
      </trkpt>
      <trkpt lat="44.076" lon="0.56435">
        <ele>179</ele>
        <time>2025-07-24T14:10:11.289Z</time>
      </trkpt>
      <trkpt lat="44.076" lon="0.56435">
        <ele>179</ele>
        <time>2025-07-24T14:10:12.289Z</time>
      </trkpt>
      <trkpt lat="44.076" lon="0.56435">
        <ele>179</ele>
        <time>2025-07-24T14:10:13.289Z</time>
      </trkpt>
      <trkpt lat="44.076" lon="0.56435">
        <ele>180</ele>
        <time>2025-07-24T14:10:14.289Z</time>
      </trkpt>
      <trkpt lat="44.076" lon="0.56434">
        <ele>180</ele>
        <time>2025-07-24T14:10:15.289Z</time>
      </trkpt>
      <trkpt lat="44.076" lon="0.56434">
        <ele>180</ele>
        <time>2025-07-24T14:10:16.289Z</time>
      </trkpt>
      <trkpt lat="44.076" lon="0.56433">
        <ele>180</ele>
        <time>2025-07-24T14:10:17.289Z</time>
      </trkpt>
      <trkpt lat="44.076" lon="0.56433">
        <ele>180</ele>
        <time>2025-07-24T14:10:18.289Z</time>
      </trkpt>
      <trkpt lat="44.076" lon="0.56433">
        <ele>180</ele>
        <time>2025-07-24T14:10:19.289Z</time>
      </trkpt>
      <trkpt lat="44.076" lon="0.56433">
        <ele>181</ele>
        <time>2025-07-24T14:10:20.289Z</time>
      </trkpt>
      <trkpt lat="44.076" lon="0.56433">
        <ele>181</ele>
        <time>2025-07-24T14:10:21.289Z</time>
      </trkpt>
      <trkpt lat="44.076" lon="0.56432">
        <ele>181</ele>
        <time>2025-07-24T14:10:22.289Z</time>
      </trkpt>
      <trkpt lat="44.076" lon="0.56432">
        <ele>181</ele>
        <time>2025-07-24T14:10:23.289Z</time>
      </trkpt>
      <trkpt lat="44.07599" lon="0.56432">
        <ele>182</ele>
        <time>2025-07-24T14:10:24.289Z</time>
      </trkpt>
      <trkpt lat="44.07599" lon="0.56431">
        <ele>182</ele>
        <time>2025-07-24T14:10:25.289Z</time>
      </trkpt>
      <trkpt lat="44.07599" lon="0.56431">
        <ele>182</ele>
        <time>2025-07-24T14:10:26.289Z</time>
      </trkpt>
      <trkpt lat="44.076" lon="0.56431">
        <ele>182</ele>
        <time>2025-07-24T14:10:27.289Z</time>
      </trkpt>
      <trkpt lat="44.076" lon="0.56431">
        <ele>182</ele>
        <time>2025-07-24T14:10:28.289Z</time>
      </trkpt>
      <trkpt lat="44.076" lon="0.56431">
        <ele>182</ele>
        <time>2025-07-24T14:10:29.289Z</time>
      </trkpt>
      <trkpt lat="44.076" lon="0.56431">
        <ele>183</ele>
        <time>2025-07-24T14:10:30.289Z</time>
      </trkpt>
      <trkpt lat="44.076" lon="0.5643">
        <ele>183</ele>
        <time>2025-07-24T14:10:31.289Z</time>
      </trkpt>
      <trkpt lat="44.076" lon="0.5643">
        <ele>183</ele>
        <time>2025-07-24T14:10:32.289Z</time>
      </trkpt>
      <trkpt lat="44.076" lon="0.5643">
        <ele>184</ele>
        <time>2025-07-24T14:10:33.289Z</time>
      </trkpt>
      <trkpt lat="44.076" lon="0.56431">
        <ele>184</ele>
        <time>2025-07-24T14:10:34.289Z</time>
      </trkpt>
      <trkpt lat="44.076" lon="0.56431">
        <ele>185</ele>
        <time>2025-07-24T14:10:35.289Z</time>
      </trkpt>
      <trkpt lat="44.076" lon="0.56431">
        <ele>185</ele>
        <time>2025-07-24T14:10:36.289Z</time>
      </trkpt>
      <trkpt lat="44.076" lon="0.56432">
        <ele>185</ele>
        <time>2025-07-24T14:10:37.289Z</time>
      </trkpt>
      <trkpt lat="44.07601" lon="0.56432">
        <ele>185</ele>
        <time>2025-07-24T14:10:38.289Z</time>
      </trkpt>
      <trkpt lat="44.07601" lon="0.56433">
        <ele>185</ele>
        <time>2025-07-24T14:10:39.289Z</time>
      </trkpt>
      <trkpt lat="44.07602" lon="0.56433">
        <ele>186</ele>
        <time>2025-07-24T14:10:40.289Z</time>
      </trkpt>
      <trkpt lat="44.07602" lon="0.56433">
        <ele>186</ele>
        <time>2025-07-24T14:10:41.289Z</time>
      </trkpt>
      <trkpt lat="44.07601" lon="0.56432">
        <ele>187</ele>
        <time>2025-07-24T14:10:42.289Z</time>
      </trkpt>
      <trkpt lat="44.07601" lon="0.56432">
        <ele>187</ele>
        <time>2025-07-24T14:10:43.289Z</time>
      </trkpt>
      <trkpt lat="44.07601" lon="0.56433">
        <ele>187</ele>
        <time>2025-07-24T14:10:44.289Z</time>
      </trkpt>
      <trkpt lat="44.07602" lon="0.56434">
        <ele>187</ele>
        <time>2025-07-24T14:10:45.289Z</time>
      </trkpt>
      <trkpt lat="44.07602" lon="0.56435">
        <ele>186</ele>
        <time>2025-07-24T14:10:46.289Z</time>
      </trkpt>
      <trkpt lat="44.07602" lon="0.56436">
        <ele>186</ele>
        <time>2025-07-24T14:10:47.289Z</time>
      </trkpt>
      <trkpt lat="44.07602" lon="0.56437">
        <ele>186</ele>
        <time>2025-07-24T14:10:48.289Z</time>
      </trkpt>
      <trkpt lat="44.07602" lon="0.56438">
        <ele>185</ele>
        <time>2025-07-24T14:10:49.289Z</time>
      </trkpt>
      <trkpt lat="44.07603" lon="0.56439">
        <ele>185</ele>
        <time>2025-07-24T14:10:50.289Z</time>
      </trkpt>
      <trkpt lat="44.07603" lon="0.5644">
        <ele>185</ele>
        <time>2025-07-24T14:10:51.289Z</time>
      </trkpt>
      <trkpt lat="44.07602" lon="0.56441">
        <ele>185</ele>
        <time>2025-07-24T14:10:52.289Z</time>
      </trkpt>
      <trkpt lat="44.07602" lon="0.56442">
        <ele>185</ele>
        <time>2025-07-24T14:10:53.289Z</time>
      </trkpt>
      <trkpt lat="44.07602" lon="0.56443">
        <ele>185</ele>
        <time>2025-07-24T14:10:54.289Z</time>
      </trkpt>
      <trkpt lat="44.07602" lon="0.56444">
        <ele>186</ele>
        <time>2025-07-24T14:10:55.289Z</time>
      </trkpt>
      <trkpt lat="44.07602" lon="0.56444">
        <ele>186</ele>
        <time>2025-07-24T14:10:56.289Z</time>
      </trkpt>
      <trkpt lat="44.07602" lon="0.56445">
        <ele>187</ele>
        <time>2025-07-24T14:10:57.289Z</time>
      </trkpt>
      <trkpt lat="44.07602" lon="0.56446">
        <ele>187</ele>
        <time>2025-07-24T14:10:58.289Z</time>
      </trkpt>
      <trkpt lat="44.07602" lon="0.56448">
        <ele>187</ele>
        <time>2025-07-24T14:10:59.289Z</time>
      </trkpt>
      <trkpt lat="44.07602" lon="0.56449">
        <ele>187</ele>
        <time>2025-07-24T14:11:00.289Z</time>
      </trkpt>
      <trkpt lat="44.07602" lon="0.5645">
        <ele>187</ele>
        <time>2025-07-24T14:11:01.289Z</time>
      </trkpt>
      <trkpt lat="44.07602" lon="0.5645">
        <ele>188</ele>
        <time>2025-07-24T14:11:02.289Z</time>
      </trkpt>
      <trkpt lat="44.07602" lon="0.56452">
        <ele>188</ele>
        <time>2025-07-24T14:11:03.289Z</time>
      </trkpt>
      <trkpt lat="44.07602" lon="0.56453">
        <ele>189</ele>
        <time>2025-07-24T14:11:04.289Z</time>
      </trkpt>
      <trkpt lat="44.07602" lon="0.56455">
        <ele>189</ele>
        <time>2025-07-24T14:11:05.289Z</time>
      </trkpt>
      <trkpt lat="44.07601" lon="0.56456">
        <ele>190</ele>
        <time>2025-07-24T14:11:06.289Z</time>
      </trkpt>
      <trkpt lat="44.07601" lon="0.56457">
        <ele>190</ele>
        <time>2025-07-24T14:11:07.289Z</time>
      </trkpt>
      <trkpt lat="44.07602" lon="0.56459">
        <ele>190</ele>
        <time>2025-07-24T14:11:08.289Z</time>
      </trkpt>
      <trkpt lat="44.07602" lon="0.56461">
        <ele>190</ele>
        <time>2025-07-24T14:11:09.289Z</time>
      </trkpt>
      <trkpt lat="44.07602" lon="0.56462">
        <ele>190</ele>
        <time>2025-07-24T14:11:10.289Z</time>
      </trkpt>
      <trkpt lat="44.07602" lon="0.56463">
        <ele>190</ele>
        <time>2025-07-24T14:11:11.289Z</time>
      </trkpt>
      <trkpt lat="44.07602" lon="0.56464">
        <ele>190</ele>
        <time>2025-07-24T14:11:12.289Z</time>
      </trkpt>
      <trkpt lat="44.07602" lon="0.56466">
        <ele>190</ele>
        <time>2025-07-24T14:11:13.289Z</time>
      </trkpt>
      <trkpt lat="44.07602" lon="0.56468">
        <ele>191</ele>
        <time>2025-07-24T14:11:14.289Z</time>
      </trkpt>
      <trkpt lat="44.07602" lon="0.5647">
        <ele>191</ele>
        <time>2025-07-24T14:11:15.289Z</time>
      </trkpt>
      <trkpt lat="44.07602" lon="0.56472">
        <ele>191</ele>
        <time>2025-07-24T14:11:16.289Z</time>
      </trkpt>
      <trkpt lat="44.07602" lon="0.56473">
        <ele>191</ele>
        <time>2025-07-24T14:11:17.289Z</time>
      </trkpt>
      <trkpt lat="44.07602" lon="0.56475">
        <ele>191</ele>
        <time>2025-07-24T14:11:18.289Z</time>
      </trkpt>
      <trkpt lat="44.07603" lon="0.56477">
        <ele>191</ele>
        <time>2025-07-24T14:11:19.289Z</time>
      </trkpt>
      <trkpt lat="44.07603" lon="0.56479">
        <ele>191</ele>
        <time>2025-07-24T14:11:20.289Z</time>
      </trkpt>
      <trkpt lat="44.07603" lon="0.5648">
        <ele>191</ele>
        <time>2025-07-24T14:11:21.289Z</time>
      </trkpt>
      <trkpt lat="44.07603" lon="0.56482">
        <ele>192</ele>
        <time>2025-07-24T14:11:22.289Z</time>
      </trkpt>
      <trkpt lat="44.07603" lon="0.56483">
        <ele>192</ele>
        <time>2025-07-24T14:11:23.289Z</time>
      </trkpt>
      <trkpt lat="44.07603" lon="0.56485">
        <ele>191</ele>
        <time>2025-07-24T14:11:24.289Z</time>
      </trkpt>
      <trkpt lat="44.07603" lon="0.56487">
        <ele>191</ele>
        <time>2025-07-24T14:11:25.289Z</time>
      </trkpt>
      <trkpt lat="44.07603" lon="0.56488">
        <ele>191</ele>
        <time>2025-07-24T14:11:26.289Z</time>
      </trkpt>
      <trkpt lat="44.07603" lon="0.56489">
        <ele>191</ele>
        <time>2025-07-24T14:11:27.289Z</time>
      </trkpt>
      <trkpt lat="44.07603" lon="0.56491">
        <ele>191</ele>
        <time>2025-07-24T14:11:28.289Z</time>
      </trkpt>
      <trkpt lat="44.07603" lon="0.56493">
        <ele>190</ele>
        <time>2025-07-24T14:11:29.289Z</time>
      </trkpt>
      <trkpt lat="44.07603" lon="0.56495">
        <ele>190</ele>
        <time>2025-07-24T14:11:30.289Z</time>
      </trkpt>
      <trkpt lat="44.07603" lon="0.56496">
        <ele>190</ele>
        <time>2025-07-24T14:11:31.289Z</time>
      </trkpt>
      <trkpt lat="44.07603" lon="0.56498">
        <ele>190</ele>
        <time>2025-07-24T14:11:32.289Z</time>
      </trkpt>
      <trkpt lat="44.07603" lon="0.565">
        <ele>190</ele>
        <time>2025-07-24T14:11:33.289Z</time>
      </trkpt>
      <trkpt lat="44.07603" lon="0.56501">
        <ele>190</ele>
        <time>2025-07-24T14:11:34.289Z</time>
      </trkpt>
      <trkpt lat="44.07602" lon="0.56502">
        <ele>190</ele>
        <time>2025-07-24T14:11:35.289Z</time>
      </trkpt>
      <trkpt lat="44.07602" lon="0.56504">
        <ele>190</ele>
        <time>2025-07-24T14:11:36.289Z</time>
      </trkpt>
      <trkpt lat="44.07602" lon="0.56505">
        <ele>190</ele>
        <time>2025-07-24T14:11:37.289Z</time>
      </trkpt>
      <trkpt lat="44.07601" lon="0.56507">
        <ele>190</ele>
        <time>2025-07-24T14:11:38.289Z</time>
      </trkpt>
      <trkpt lat="44.07601" lon="0.56509">
        <ele>189</ele>
        <time>2025-07-24T14:11:39.289Z</time>
      </trkpt>
      <trkpt lat="44.07601" lon="0.5651">
        <ele>189</ele>
        <time>2025-07-24T14:11:40.289Z</time>
      </trkpt>
      <trkpt lat="44.076" lon="0.56511">
        <ele>189</ele>
        <time>2025-07-24T14:11:41.289Z</time>
      </trkpt>
      <trkpt lat="44.076" lon="0.56512">
        <ele>189</ele>
        <time>2025-07-24T14:11:42.289Z</time>
      </trkpt>
      <trkpt lat="44.076" lon="0.56514">
        <ele>189</ele>
        <time>2025-07-24T14:11:43.289Z</time>
      </trkpt>
      <trkpt lat="44.07599" lon="0.56515">
        <ele>189</ele>
        <time>2025-07-24T14:11:44.289Z</time>
      </trkpt>
      <trkpt lat="44.07598" lon="0.56517">
        <ele>189</ele>
        <time>2025-07-24T14:11:45.289Z</time>
      </trkpt>
      <trkpt lat="44.07597" lon="0.56518">
        <ele>189</ele>
        <time>2025-07-24T14:11:46.289Z</time>
      </trkpt>
      <trkpt lat="44.07595" lon="0.56519">
        <ele>189</ele>
        <time>2025-07-24T14:11:47.289Z</time>
      </trkpt>
      <trkpt lat="44.07593" lon="0.56521">
        <ele>190</ele>
        <time>2025-07-24T14:11:48.289Z</time>
      </trkpt>
      <trkpt lat="44.07592" lon="0.56522">
        <ele>190</ele>
        <time>2025-07-24T14:11:49.289Z</time>
      </trkpt>
      <trkpt lat="44.07591" lon="0.56522">
        <ele>191</ele>
        <time>2025-07-24T14:11:50.289Z</time>
      </trkpt>
      <trkpt lat="44.0759" lon="0.56522">
        <ele>191</ele>
        <time>2025-07-24T14:11:51.289Z</time>
      </trkpt>
      <trkpt lat="44.07589" lon="0.56523">
        <ele>191</ele>
        <time>2025-07-24T14:11:52.289Z</time>
      </trkpt>
      <trkpt lat="44.07587" lon="0.56524">
        <ele>192</ele>
        <time>2025-07-24T14:11:53.289Z</time>
      </trkpt>
      <trkpt lat="44.07586" lon="0.56524">
        <ele>192</ele>
        <time>2025-07-24T14:11:54.289Z</time>
      </trkpt>
      <trkpt lat="44.07584" lon="0.56524">
        <ele>193</ele>
        <time>2025-07-24T14:11:55.289Z</time>
      </trkpt>
      <trkpt lat="44.07583" lon="0.56524">
        <ele>192</ele>
        <time>2025-07-24T14:11:56.289Z</time>
      </trkpt>
      <trkpt lat="44.07582" lon="0.56524">
        <ele>192</ele>
        <time>2025-07-24T14:11:57.289Z</time>
      </trkpt>
      <trkpt lat="44.0758" lon="0.56525">
        <ele>192</ele>
        <time>2025-07-24T14:11:58.289Z</time>
      </trkpt>
      <trkpt lat="44.07579" lon="0.56524">
        <ele>191</ele>
        <time>2025-07-24T14:11:59.289Z</time>
      </trkpt>
      <trkpt lat="44.07578" lon="0.56524">
        <ele>190</ele>
        <time>2025-07-24T14:12:00.289Z</time>
      </trkpt>
      <trkpt lat="44.07577" lon="0.56525">
        <ele>190</ele>
        <time>2025-07-24T14:12:01.289Z</time>
      </trkpt>
      <trkpt lat="44.07576" lon="0.56525">
        <ele>189</ele>
        <time>2025-07-24T14:12:02.289Z</time>
      </trkpt>
      <trkpt lat="44.07575" lon="0.56525">
        <ele>189</ele>
        <time>2025-07-24T14:12:03.289Z</time>
      </trkpt>
      <trkpt lat="44.07574" lon="0.56525">
        <ele>189</ele>
        <time>2025-07-24T14:12:04.289Z</time>
      </trkpt>
      <trkpt lat="44.07572" lon="0.56525">
        <ele>189</ele>
        <time>2025-07-24T14:12:05.289Z</time>
      </trkpt>
      <trkpt lat="44.07571" lon="0.56525">
        <ele>190</ele>
        <time>2025-07-24T14:12:06.289Z</time>
      </trkpt>
      <trkpt lat="44.0757" lon="0.56525">
        <ele>190</ele>
        <time>2025-07-24T14:12:07.289Z</time>
      </trkpt>
      <trkpt lat="44.07568" lon="0.56525">
        <ele>191</ele>
        <time>2025-07-24T14:12:08.289Z</time>
      </trkpt>
      <trkpt lat="44.07567" lon="0.56525">
        <ele>191</ele>
        <time>2025-07-24T14:12:09.290Z</time>
      </trkpt>
      <trkpt lat="44.07566" lon="0.56525">
        <ele>192</ele>
        <time>2025-07-24T14:12:10.289Z</time>
      </trkpt>
      <trkpt lat="44.07564" lon="0.56525">
        <ele>192</ele>
        <time>2025-07-24T14:12:11.289Z</time>
      </trkpt>
      <trkpt lat="44.07563" lon="0.56524">
        <ele>192</ele>
        <time>2025-07-24T14:12:12.289Z</time>
      </trkpt>
      <trkpt lat="44.07561" lon="0.56524">
        <ele>191</ele>
        <time>2025-07-24T14:12:13.289Z</time>
      </trkpt>
      <trkpt lat="44.0756" lon="0.56525">
        <ele>191</ele>
        <time>2025-07-24T14:12:14.289Z</time>
      </trkpt>
      <trkpt lat="44.07559" lon="0.56525">
        <ele>190</ele>
        <time>2025-07-24T14:12:15.289Z</time>
      </trkpt>
      <trkpt lat="44.07558" lon="0.56526">
        <ele>190</ele>
        <time>2025-07-24T14:12:16.289Z</time>
      </trkpt>
      <trkpt lat="44.07556" lon="0.56527">
        <ele>189</ele>
        <time>2025-07-24T14:12:17.289Z</time>
      </trkpt>
      <trkpt lat="44.07555" lon="0.56527">
        <ele>189</ele>
        <time>2025-07-24T14:12:18.289Z</time>
      </trkpt>
      <trkpt lat="44.07554" lon="0.56527">
        <ele>189</ele>
        <time>2025-07-24T14:12:19.289Z</time>
      </trkpt>
      <trkpt lat="44.07552" lon="0.56526">
        <ele>189</ele>
        <time>2025-07-24T14:12:20.289Z</time>
      </trkpt>
      <trkpt lat="44.07551" lon="0.56526">
        <ele>189</ele>
        <time>2025-07-24T14:12:21.289Z</time>
      </trkpt>
      <trkpt lat="44.07549" lon="0.56526">
        <ele>189</ele>
        <time>2025-07-24T14:12:22.289Z</time>
      </trkpt>
      <trkpt lat="44.07548" lon="0.56527">
        <ele>189</ele>
        <time>2025-07-24T14:12:23.289Z</time>
      </trkpt>
      <trkpt lat="44.07546" lon="0.56528">
        <ele>189</ele>
        <time>2025-07-24T14:12:24.289Z</time>
      </trkpt>
      <trkpt lat="44.07545" lon="0.56529">
        <ele>189</ele>
        <time>2025-07-24T14:12:25.289Z</time>
      </trkpt>
      <trkpt lat="44.07544" lon="0.5653">
        <ele>190</ele>
        <time>2025-07-24T14:12:26.289Z</time>
      </trkpt>
      <trkpt lat="44.07543" lon="0.5653">
        <ele>190</ele>
        <time>2025-07-24T14:12:27.289Z</time>
      </trkpt>
      <trkpt lat="44.07542" lon="0.56531">
        <ele>190</ele>
        <time>2025-07-24T14:12:28.289Z</time>
      </trkpt>
      <trkpt lat="44.0754" lon="0.56531">
        <ele>190</ele>
        <time>2025-07-24T14:12:29.289Z</time>
      </trkpt>
      <trkpt lat="44.07539" lon="0.56531">
        <ele>191</ele>
        <time>2025-07-24T14:12:30.289Z</time>
      </trkpt>
      <trkpt lat="44.07538" lon="0.56531">
        <ele>191</ele>
        <time>2025-07-24T14:12:31.289Z</time>
      </trkpt>
      <trkpt lat="44.07537" lon="0.5653">
        <ele>191</ele>
        <time>2025-07-24T14:12:32.289Z</time>
      </trkpt>
      <trkpt lat="44.07536" lon="0.5653">
        <ele>191</ele>
        <time>2025-07-24T14:12:33.289Z</time>
      </trkpt>
      <trkpt lat="44.07534" lon="0.5653">
        <ele>191</ele>
        <time>2025-07-24T14:12:34.289Z</time>
      </trkpt>
      <trkpt lat="44.07533" lon="0.5653">
        <ele>191</ele>
        <time>2025-07-24T14:12:35.289Z</time>
      </trkpt>
      <trkpt lat="44.07532" lon="0.5653">
        <ele>191</ele>
        <time>2025-07-24T14:12:36.289Z</time>
      </trkpt>
      <trkpt lat="44.0753" lon="0.5653">
        <ele>191</ele>
        <time>2025-07-24T14:12:37.289Z</time>
      </trkpt>
      <trkpt lat="44.07529" lon="0.5653">
        <ele>190</ele>
        <time>2025-07-24T14:12:38.289Z</time>
      </trkpt>
      <trkpt lat="44.07528" lon="0.56529">
        <ele>190</ele>
        <time>2025-07-24T14:12:39.289Z</time>
      </trkpt>
      <trkpt lat="44.07527" lon="0.56529">
        <ele>190</ele>
        <time>2025-07-24T14:12:40.289Z</time>
      </trkpt>
      <trkpt lat="44.07525" lon="0.56529">
        <ele>190</ele>
        <time>2025-07-24T14:12:41.289Z</time>
      </trkpt>
      <trkpt lat="44.07524" lon="0.56529">
        <ele>191</ele>
        <time>2025-07-24T14:12:42.289Z</time>
      </trkpt>
      <trkpt lat="44.07523" lon="0.56529">
        <ele>191</ele>
        <time>2025-07-24T14:12:43.289Z</time>
      </trkpt>
      <trkpt lat="44.07522" lon="0.56529">
        <ele>191</ele>
        <time>2025-07-24T14:12:44.289Z</time>
      </trkpt>
      <trkpt lat="44.07521" lon="0.56528">
        <ele>190</ele>
        <time>2025-07-24T14:12:45.289Z</time>
      </trkpt>
      <trkpt lat="44.07519" lon="0.56528">
        <ele>190</ele>
        <time>2025-07-24T14:12:46.289Z</time>
      </trkpt>
      <trkpt lat="44.07518" lon="0.56528">
        <ele>189</ele>
        <time>2025-07-24T14:12:47.289Z</time>
      </trkpt>
      <trkpt lat="44.07517" lon="0.56528">
        <ele>188</ele>
        <time>2025-07-24T14:12:48.289Z</time>
      </trkpt>
      <trkpt lat="44.07516" lon="0.56528">
        <ele>188</ele>
        <time>2025-07-24T14:12:49.289Z</time>
      </trkpt>
      <trkpt lat="44.07514" lon="0.56528">
        <ele>188</ele>
        <time>2025-07-24T14:12:50.289Z</time>
      </trkpt>
      <trkpt lat="44.07513" lon="0.56527">
        <ele>187</ele>
        <time>2025-07-24T14:12:51.289Z</time>
      </trkpt>
      <trkpt lat="44.07512" lon="0.56527">
        <ele>187</ele>
        <time>2025-07-24T14:12:52.289Z</time>
      </trkpt>
      <trkpt lat="44.07512" lon="0.56527">
        <ele>187</ele>
        <time>2025-07-24T14:12:53.289Z</time>
      </trkpt>
      <trkpt lat="44.0751" lon="0.56526">
        <ele>187</ele>
        <time>2025-07-24T14:12:54.289Z</time>
      </trkpt>
      <trkpt lat="44.07508" lon="0.56526">
        <ele>187</ele>
        <time>2025-07-24T14:12:55.289Z</time>
      </trkpt>
      <trkpt lat="44.07507" lon="0.56527">
        <ele>187</ele>
        <time>2025-07-24T14:12:56.289Z</time>
      </trkpt>
      <trkpt lat="44.07506" lon="0.56527">
        <ele>187</ele>
        <time>2025-07-24T14:12:57.289Z</time>
      </trkpt>
      <trkpt lat="44.07505" lon="0.56527">
        <ele>188</ele>
        <time>2025-07-24T14:12:58.290Z</time>
      </trkpt>
      <trkpt lat="44.07504" lon="0.56526">
        <ele>188</ele>
        <time>2025-07-24T14:12:59.289Z</time>
      </trkpt>
      <trkpt lat="44.07503" lon="0.56526">
        <ele>188</ele>
        <time>2025-07-24T14:13:00.289Z</time>
      </trkpt>
      <trkpt lat="44.07502" lon="0.56526">
        <ele>189</ele>
        <time>2025-07-24T14:13:01.289Z</time>
      </trkpt>
      <trkpt lat="44.07501" lon="0.56525">
        <ele>189</ele>
        <time>2025-07-24T14:13:02.289Z</time>
      </trkpt>
      <trkpt lat="44.075" lon="0.56525">
        <ele>189</ele>
        <time>2025-07-24T14:13:03.289Z</time>
      </trkpt>
      <trkpt lat="44.07499" lon="0.56525">
        <ele>189</ele>
        <time>2025-07-24T14:13:04.289Z</time>
      </trkpt>
      <trkpt lat="44.07498" lon="0.56525">
        <ele>189</ele>
        <time>2025-07-24T14:13:05.289Z</time>
      </trkpt>
      <trkpt lat="44.07497" lon="0.56525">
        <ele>189</ele>
        <time>2025-07-24T14:13:06.289Z</time>
      </trkpt>
      <trkpt lat="44.07495" lon="0.56525">
        <ele>189</ele>
        <time>2025-07-24T14:13:07.289Z</time>
      </trkpt>
      <trkpt lat="44.07494" lon="0.56526">
        <ele>188</ele>
        <time>2025-07-24T14:13:08.289Z</time>
      </trkpt>
      <trkpt lat="44.07493" lon="0.56526">
        <ele>188</ele>
        <time>2025-07-24T14:13:09.289Z</time>
      </trkpt>
      <trkpt lat="44.07492" lon="0.56527">
        <ele>187</ele>
        <time>2025-07-24T14:13:10.289Z</time>
      </trkpt>
      <trkpt lat="44.0749" lon="0.56528">
        <ele>187</ele>
        <time>2025-07-24T14:13:11.289Z</time>
      </trkpt>
      <trkpt lat="44.07488" lon="0.56528">
        <ele>186</ele>
        <time>2025-07-24T14:13:12.289Z</time>
      </trkpt>
      <trkpt lat="44.07487" lon="0.56528">
        <ele>186</ele>
        <time>2025-07-24T14:13:13.289Z</time>
      </trkpt>
      <trkpt lat="44.07486" lon="0.56528">
        <ele>186</ele>
        <time>2025-07-24T14:13:14.289Z</time>
      </trkpt>
      <trkpt lat="44.07484" lon="0.56528">
        <ele>186</ele>
        <time>2025-07-24T14:13:15.289Z</time>
      </trkpt>
      <trkpt lat="44.07483" lon="0.56528">
        <ele>186</ele>
        <time>2025-07-24T14:13:16.289Z</time>
      </trkpt>
      <trkpt lat="44.07482" lon="0.56528">
        <ele>186</ele>
        <time>2025-07-24T14:13:17.289Z</time>
      </trkpt>
      <trkpt lat="44.07481" lon="0.56528">
        <ele>186</ele>
        <time>2025-07-24T14:13:18.289Z</time>
      </trkpt>
      <trkpt lat="44.0748" lon="0.56527">
        <ele>186</ele>
        <time>2025-07-24T14:13:19.289Z</time>
      </trkpt>
      <trkpt lat="44.07478" lon="0.56527">
        <ele>186</ele>
        <time>2025-07-24T14:13:20.289Z</time>
      </trkpt>
      <trkpt lat="44.07477" lon="0.56527">
        <ele>186</ele>
        <time>2025-07-24T14:13:21.289Z</time>
      </trkpt>
      <trkpt lat="44.07476" lon="0.56527">
        <ele>186</ele>
        <time>2025-07-24T14:13:22.289Z</time>
      </trkpt>
      <trkpt lat="44.07475" lon="0.56527">
        <ele>185</ele>
        <time>2025-07-24T14:13:23.289Z</time>
      </trkpt>
      <trkpt lat="44.07473" lon="0.56526">
        <ele>186</ele>
        <time>2025-07-24T14:13:24.289Z</time>
      </trkpt>
      <trkpt lat="44.07472" lon="0.56526">
        <ele>185</ele>
        <time>2025-07-24T14:13:25.289Z</time>
      </trkpt>
      <trkpt lat="44.0747" lon="0.56526">
        <ele>185</ele>
        <time>2025-07-24T14:13:26.290Z</time>
      </trkpt>
      <trkpt lat="44.07469" lon="0.56527">
        <ele>185</ele>
        <time>2025-07-24T14:13:27.289Z</time>
      </trkpt>
      <trkpt lat="44.07467" lon="0.56527">
        <ele>185</ele>
        <time>2025-07-24T14:13:28.289Z</time>
      </trkpt>
      <trkpt lat="44.07466" lon="0.56527">
        <ele>185</ele>
        <time>2025-07-24T14:13:29.289Z</time>
      </trkpt>
      <trkpt lat="44.07464" lon="0.56527">
        <ele>185</ele>
        <time>2025-07-24T14:13:30.289Z</time>
      </trkpt>
      <trkpt lat="44.07463" lon="0.56527">
        <ele>185</ele>
        <time>2025-07-24T14:13:31.289Z</time>
      </trkpt>
      <trkpt lat="44.07461" lon="0.56527">
        <ele>185</ele>
        <time>2025-07-24T14:13:32.289Z</time>
      </trkpt>
      <trkpt lat="44.0746" lon="0.56527">
        <ele>185</ele>
        <time>2025-07-24T14:13:33.289Z</time>
      </trkpt>
      <trkpt lat="44.07459" lon="0.56526">
        <ele>185</ele>
        <time>2025-07-24T14:13:34.289Z</time>
      </trkpt>
      <trkpt lat="44.07458" lon="0.56526">
        <ele>185</ele>
        <time>2025-07-24T14:13:35.289Z</time>
      </trkpt>
      <trkpt lat="44.07457" lon="0.56525">
        <ele>185</ele>
        <time>2025-07-24T14:13:36.289Z</time>
      </trkpt>
      <trkpt lat="44.07456" lon="0.56525">
        <ele>185</ele>
        <time>2025-07-24T14:13:37.289Z</time>
      </trkpt>
      <trkpt lat="44.07455" lon="0.56524">
        <ele>184</ele>
        <time>2025-07-24T14:13:38.289Z</time>
      </trkpt>
      <trkpt lat="44.07453" lon="0.56524">
        <ele>184</ele>
        <time>2025-07-24T14:13:39.289Z</time>
      </trkpt>
      <trkpt lat="44.07452" lon="0.56524">
        <ele>184</ele>
        <time>2025-07-24T14:13:40.289Z</time>
      </trkpt>
      <trkpt lat="44.07451" lon="0.56524">
        <ele>184</ele>
        <time>2025-07-24T14:13:41.289Z</time>
      </trkpt>
      <trkpt lat="44.0745" lon="0.56524">
        <ele>184</ele>
        <time>2025-07-24T14:13:42.289Z</time>
      </trkpt>
      <trkpt lat="44.07449" lon="0.56524">
        <ele>184</ele>
        <time>2025-07-24T14:13:43.289Z</time>
      </trkpt>
      <trkpt lat="44.07447" lon="0.56524">
        <ele>184</ele>
        <time>2025-07-24T14:13:44.289Z</time>
      </trkpt>
      <trkpt lat="44.07446" lon="0.56523">
        <ele>184</ele>
        <time>2025-07-24T14:13:45.289Z</time>
      </trkpt>
      <trkpt lat="44.07445" lon="0.56523">
        <ele>184</ele>
        <time>2025-07-24T14:13:46.289Z</time>
      </trkpt>
      <trkpt lat="44.07444" lon="0.56523">
        <ele>184</ele>
        <time>2025-07-24T14:13:47.289Z</time>
      </trkpt>
      <trkpt lat="44.07442" lon="0.56523">
        <ele>184</ele>
        <time>2025-07-24T14:13:48.289Z</time>
      </trkpt>
      <trkpt lat="44.07441" lon="0.56523">
        <ele>183</ele>
        <time>2025-07-24T14:13:49.289Z</time>
      </trkpt>
      <trkpt lat="44.0744" lon="0.56523">
        <ele>183</ele>
        <time>2025-07-24T14:13:50.289Z</time>
      </trkpt>
      <trkpt lat="44.07438" lon="0.56523">
        <ele>183</ele>
        <time>2025-07-24T14:13:51.289Z</time>
      </trkpt>
      <trkpt lat="44.07437" lon="0.56523">
        <ele>183</ele>
        <time>2025-07-24T14:13:52.289Z</time>
      </trkpt>
      <trkpt lat="44.07436" lon="0.56523">
        <ele>183</ele>
        <time>2025-07-24T14:13:53.289Z</time>
      </trkpt>
      <trkpt lat="44.07435" lon="0.56523">
        <ele>183</ele>
        <time>2025-07-24T14:13:54.289Z</time>
      </trkpt>
      <trkpt lat="44.07433" lon="0.56523">
        <ele>183</ele>
        <time>2025-07-24T14:13:55.289Z</time>
      </trkpt>
      <trkpt lat="44.07432" lon="0.56523">
        <ele>183</ele>
        <time>2025-07-24T14:13:56.289Z</time>
      </trkpt>
      <trkpt lat="44.07431" lon="0.56523">
        <ele>183</ele>
        <time>2025-07-24T14:13:57.289Z</time>
      </trkpt>
      <trkpt lat="44.0743" lon="0.56523">
        <ele>183</ele>
        <time>2025-07-24T14:13:58.289Z</time>
      </trkpt>
      <trkpt lat="44.07429" lon="0.56523">
        <ele>182</ele>
        <time>2025-07-24T14:13:59.289Z</time>
      </trkpt>
      <trkpt lat="44.07427" lon="0.56523">
        <ele>182</ele>
        <time>2025-07-24T14:14:00.289Z</time>
      </trkpt>
      <trkpt lat="44.07426" lon="0.56523">
        <ele>182</ele>
        <time>2025-07-24T14:14:01.289Z</time>
      </trkpt>
      <trkpt lat="44.07425" lon="0.56523">
        <ele>182</ele>
        <time>2025-07-24T14:14:02.289Z</time>
      </trkpt>
      <trkpt lat="44.07423" lon="0.56522">
        <ele>183</ele>
        <time>2025-07-24T14:14:03.289Z</time>
      </trkpt>
      <trkpt lat="44.07422" lon="0.56522">
        <ele>183</ele>
        <time>2025-07-24T14:14:04.289Z</time>
      </trkpt>
      <trkpt lat="44.0742" lon="0.56522">
        <ele>183</ele>
        <time>2025-07-24T14:14:05.289Z</time>
      </trkpt>
      <trkpt lat="44.07419" lon="0.56522">
        <ele>183</ele>
        <time>2025-07-24T14:14:06.289Z</time>
      </trkpt>
      <trkpt lat="44.07417" lon="0.56522">
        <ele>183</ele>
        <time>2025-07-24T14:14:07.289Z</time>
      </trkpt>
      <trkpt lat="44.07416" lon="0.56522">
        <ele>183</ele>
        <time>2025-07-24T14:14:08.289Z</time>
      </trkpt>
      <trkpt lat="44.07415" lon="0.56522">
        <ele>183</ele>
        <time>2025-07-24T14:14:09.289Z</time>
      </trkpt>
      <trkpt lat="44.07413" lon="0.56522">
        <ele>183</ele>
        <time>2025-07-24T14:14:10.289Z</time>
      </trkpt>
      <trkpt lat="44.07412" lon="0.56522">
        <ele>183</ele>
        <time>2025-07-24T14:14:11.289Z</time>
      </trkpt>
      <trkpt lat="44.07411" lon="0.56522">
        <ele>183</ele>
        <time>2025-07-24T14:14:12.289Z</time>
      </trkpt>
      <trkpt lat="44.0741" lon="0.56522">
        <ele>183</ele>
        <time>2025-07-24T14:14:13.289Z</time>
      </trkpt>
      <trkpt lat="44.07408" lon="0.56522">
        <ele>182</ele>
        <time>2025-07-24T14:14:14.289Z</time>
      </trkpt>
      <trkpt lat="44.07407" lon="0.56522">
        <ele>182</ele>
        <time>2025-07-24T14:14:15.289Z</time>
      </trkpt>
      <trkpt lat="44.07406" lon="0.56521">
        <ele>182</ele>
        <time>2025-07-24T14:14:16.289Z</time>
      </trkpt>
      <trkpt lat="44.07405" lon="0.56521">
        <ele>181</ele>
        <time>2025-07-24T14:14:17.289Z</time>
      </trkpt>
      <trkpt lat="44.07403" lon="0.56521">
        <ele>181</ele>
        <time>2025-07-24T14:14:18.289Z</time>
      </trkpt>
      <trkpt lat="44.07402" lon="0.56521">
        <ele>181</ele>
        <time>2025-07-24T14:14:19.289Z</time>
      </trkpt>
      <trkpt lat="44.07401" lon="0.56521">
        <ele>181</ele>
        <time>2025-07-24T14:14:20.289Z</time>
      </trkpt>
      <trkpt lat="44.07399" lon="0.56521">
        <ele>180</ele>
        <time>2025-07-24T14:14:21.289Z</time>
      </trkpt>
      <trkpt lat="44.07398" lon="0.56521">
        <ele>180</ele>
        <time>2025-07-24T14:14:22.289Z</time>
      </trkpt>
      <trkpt lat="44.07397" lon="0.56521">
        <ele>180</ele>
        <time>2025-07-24T14:14:23.289Z</time>
      </trkpt>
      <trkpt lat="44.07395" lon="0.56521">
        <ele>180</ele>
        <time>2025-07-24T14:14:24.289Z</time>
      </trkpt>
      <trkpt lat="44.07394" lon="0.56521">
        <ele>180</ele>
        <time>2025-07-24T14:14:25.289Z</time>
      </trkpt>
      <trkpt lat="44.07393" lon="0.5652">
        <ele>180</ele>
        <time>2025-07-24T14:14:26.289Z</time>
      </trkpt>
      <trkpt lat="44.07391" lon="0.5652">
        <ele>180</ele>
        <time>2025-07-24T14:14:27.289Z</time>
      </trkpt>
      <trkpt lat="44.0739" lon="0.5652">
        <ele>180</ele>
        <time>2025-07-24T14:14:28.289Z</time>
      </trkpt>
      <trkpt lat="44.07389" lon="0.5652">
        <ele>180</ele>
        <time>2025-07-24T14:14:29.289Z</time>
      </trkpt>
      <trkpt lat="44.07388" lon="0.5652">
        <ele>180</ele>
        <time>2025-07-24T14:14:30.289Z</time>
      </trkpt>
      <trkpt lat="44.07387" lon="0.5652">
        <ele>180</ele>
        <time>2025-07-24T14:14:31.289Z</time>
      </trkpt>
      <trkpt lat="44.07386" lon="0.5652">
        <ele>180</ele>
        <time>2025-07-24T14:14:32.289Z</time>
      </trkpt>
      <trkpt lat="44.07384" lon="0.5652">
        <ele>180</ele>
        <time>2025-07-24T14:14:33.289Z</time>
      </trkpt>
      <trkpt lat="44.07383" lon="0.56519">
        <ele>180</ele>
        <time>2025-07-24T14:14:34.289Z</time>
      </trkpt>
      <trkpt lat="44.07382" lon="0.56519">
        <ele>180</ele>
        <time>2025-07-24T14:14:35.289Z</time>
      </trkpt>
      <trkpt lat="44.07381" lon="0.56519">
        <ele>180</ele>
        <time>2025-07-24T14:14:36.289Z</time>
      </trkpt>
      <trkpt lat="44.07379" lon="0.56519">
        <ele>180</ele>
        <time>2025-07-24T14:14:37.289Z</time>
      </trkpt>
      <trkpt lat="44.07378" lon="0.56519">
        <ele>180</ele>
        <time>2025-07-24T14:14:38.289Z</time>
      </trkpt>
      <trkpt lat="44.07376" lon="0.56519">
        <ele>180</ele>
        <time>2025-07-24T14:14:39.289Z</time>
      </trkpt>
      <trkpt lat="44.07375" lon="0.56519">
        <ele>181</ele>
        <time>2025-07-24T14:14:40.289Z</time>
      </trkpt>
      <trkpt lat="44.07373" lon="0.56519">
        <ele>181</ele>
        <time>2025-07-24T14:14:41.289Z</time>
      </trkpt>
      <trkpt lat="44.07372" lon="0.5652">
        <ele>182</ele>
        <time>2025-07-24T14:14:42.289Z</time>
      </trkpt>
      <trkpt lat="44.0737" lon="0.5652">
        <ele>182</ele>
        <time>2025-07-24T14:14:43.289Z</time>
      </trkpt>
      <trkpt lat="44.07369" lon="0.5652">
        <ele>182</ele>
        <time>2025-07-24T14:14:44.289Z</time>
      </trkpt>
      <trkpt lat="44.07367" lon="0.56521">
        <ele>182</ele>
        <time>2025-07-24T14:14:45.289Z</time>
      </trkpt>
      <trkpt lat="44.07366" lon="0.56521">
        <ele>182</ele>
        <time>2025-07-24T14:14:46.289Z</time>
      </trkpt>
      <trkpt lat="44.07365" lon="0.56521">
        <ele>182</ele>
        <time>2025-07-24T14:14:47.289Z</time>
      </trkpt>
      <trkpt lat="44.07363" lon="0.56521">
        <ele>182</ele>
        <time>2025-07-24T14:14:48.289Z</time>
      </trkpt>
      <trkpt lat="44.07362" lon="0.56521">
        <ele>182</ele>
        <time>2025-07-24T14:14:49.289Z</time>
      </trkpt>
      <trkpt lat="44.07361" lon="0.56521">
        <ele>182</ele>
        <time>2025-07-24T14:14:50.289Z</time>
      </trkpt>
      <trkpt lat="44.0736" lon="0.56521">
        <ele>182</ele>
        <time>2025-07-24T14:14:51.289Z</time>
      </trkpt>
      <trkpt lat="44.07358" lon="0.56521">
        <ele>182</ele>
        <time>2025-07-24T14:14:52.289Z</time>
      </trkpt>
      <trkpt lat="44.07357" lon="0.56521">
        <ele>182</ele>
        <time>2025-07-24T14:14:53.289Z</time>
      </trkpt>
      <trkpt lat="44.07356" lon="0.56521">
        <ele>182</ele>
        <time>2025-07-24T14:14:54.289Z</time>
      </trkpt>
      <trkpt lat="44.07354" lon="0.56521">
        <ele>182</ele>
        <time>2025-07-24T14:14:55.289Z</time>
      </trkpt>
      <trkpt lat="44.07353" lon="0.56521">
        <ele>182</ele>
        <time>2025-07-24T14:14:56.289Z</time>
      </trkpt>
      <trkpt lat="44.07352" lon="0.5652">
        <ele>182</ele>
        <time>2025-07-24T14:14:57.289Z</time>
      </trkpt>
      <trkpt lat="44.0735" lon="0.5652">
        <ele>181</ele>
        <time>2025-07-24T14:14:58.289Z</time>
      </trkpt>
      <trkpt lat="44.07349" lon="0.5652">
        <ele>181</ele>
        <time>2025-07-24T14:14:59.289Z</time>
      </trkpt>
      <trkpt lat="44.07348" lon="0.5652">
        <ele>180</ele>
        <time>2025-07-24T14:15:00.289Z</time>
      </trkpt>
      <trkpt lat="44.07346" lon="0.5652">
        <ele>180</ele>
        <time>2025-07-24T14:15:01.289Z</time>
      </trkpt>
      <trkpt lat="44.07345" lon="0.5652">
        <ele>180</ele>
        <time>2025-07-24T14:15:02.289Z</time>
      </trkpt>
      <trkpt lat="44.07343" lon="0.5652">
        <ele>179</ele>
        <time>2025-07-24T14:15:03.289Z</time>
      </trkpt>
      <trkpt lat="44.07342" lon="0.5652">
        <ele>179</ele>
        <time>2025-07-24T14:15:04.289Z</time>
      </trkpt>
      <trkpt lat="44.0734" lon="0.5652">
        <ele>179</ele>
        <time>2025-07-24T14:15:05.289Z</time>
      </trkpt>
      <trkpt lat="44.07339" lon="0.56519">
        <ele>179</ele>
        <time>2025-07-24T14:15:06.289Z</time>
      </trkpt>
      <trkpt lat="44.07338" lon="0.56519">
        <ele>179</ele>
        <time>2025-07-24T14:15:07.289Z</time>
      </trkpt>
      <trkpt lat="44.07337" lon="0.56519">
        <ele>179</ele>
        <time>2025-07-24T14:15:08.289Z</time>
      </trkpt>
      <trkpt lat="44.07335" lon="0.56519">
        <ele>179</ele>
        <time>2025-07-24T14:15:09.289Z</time>
      </trkpt>
      <trkpt lat="44.07334" lon="0.56519">
        <ele>179</ele>
        <time>2025-07-24T14:15:10.289Z</time>
      </trkpt>
      <trkpt lat="44.07333" lon="0.56519">
        <ele>180</ele>
        <time>2025-07-24T14:15:11.289Z</time>
      </trkpt>
      <trkpt lat="44.07332" lon="0.5652">
        <ele>180</ele>
        <time>2025-07-24T14:15:12.289Z</time>
      </trkpt>
      <trkpt lat="44.07331" lon="0.5652">
        <ele>180</ele>
        <time>2025-07-24T14:15:13.289Z</time>
      </trkpt>
      <trkpt lat="44.07329" lon="0.5652">
        <ele>180</ele>
        <time>2025-07-24T14:15:14.289Z</time>
      </trkpt>
      <trkpt lat="44.07328" lon="0.5652">
        <ele>180</ele>
        <time>2025-07-24T14:15:15.289Z</time>
      </trkpt>
      <trkpt lat="44.07326" lon="0.5652">
        <ele>180</ele>
        <time>2025-07-24T14:15:16.289Z</time>
      </trkpt>
      <trkpt lat="44.07325" lon="0.5652">
        <ele>179</ele>
        <time>2025-07-24T14:15:17.289Z</time>
      </trkpt>
      <trkpt lat="44.07324" lon="0.56519">
        <ele>179</ele>
        <time>2025-07-24T14:15:18.289Z</time>
      </trkpt>
      <trkpt lat="44.07323" lon="0.56519">
        <ele>179</ele>
        <time>2025-07-24T14:15:19.289Z</time>
      </trkpt>
      <trkpt lat="44.07321" lon="0.56518">
        <ele>178</ele>
        <time>2025-07-24T14:15:20.289Z</time>
      </trkpt>
      <trkpt lat="44.0732" lon="0.56518">
        <ele>178</ele>
        <time>2025-07-24T14:15:21.289Z</time>
      </trkpt>
      <trkpt lat="44.07319" lon="0.56518">
        <ele>178</ele>
        <time>2025-07-24T14:15:22.289Z</time>
      </trkpt>
      <trkpt lat="44.07317" lon="0.56518">
        <ele>178</ele>
        <time>2025-07-24T14:15:23.289Z</time>
      </trkpt>
      <trkpt lat="44.07316" lon="0.56518">
        <ele>178</ele>
        <time>2025-07-24T14:15:24.289Z</time>
      </trkpt>
      <trkpt lat="44.07315" lon="0.56518">
        <ele>178</ele>
        <time>2025-07-24T14:15:25.289Z</time>
      </trkpt>
      <trkpt lat="44.07314" lon="0.56518">
        <ele>178</ele>
        <time>2025-07-24T14:15:26.289Z</time>
      </trkpt>
      <trkpt lat="44.07313" lon="0.56518">
        <ele>178</ele>
        <time>2025-07-24T14:15:27.289Z</time>
      </trkpt>
      <trkpt lat="44.07312" lon="0.56518">
        <ele>178</ele>
        <time>2025-07-24T14:15:28.289Z</time>
      </trkpt>
      <trkpt lat="44.0731" lon="0.56518">
        <ele>177</ele>
        <time>2025-07-24T14:15:29.289Z</time>
      </trkpt>
      <trkpt lat="44.07309" lon="0.56518">
        <ele>177</ele>
        <time>2025-07-24T14:15:30.289Z</time>
      </trkpt>
      <trkpt lat="44.07307" lon="0.56519">
        <ele>177</ele>
        <time>2025-07-24T14:15:31.289Z</time>
      </trkpt>
      <trkpt lat="44.07306" lon="0.56519">
        <ele>177</ele>
        <time>2025-07-24T14:15:32.289Z</time>
      </trkpt>
      <trkpt lat="44.07305" lon="0.56518">
        <ele>177</ele>
        <time>2025-07-24T14:15:33.289Z</time>
      </trkpt>
      <trkpt lat="44.07303" lon="0.56518">
        <ele>177</ele>
        <time>2025-07-24T14:15:34.289Z</time>
      </trkpt>
      <trkpt lat="44.07302" lon="0.56518">
        <ele>176</ele>
        <time>2025-07-24T14:15:35.289Z</time>
      </trkpt>
      <trkpt lat="44.07301" lon="0.56518">
        <ele>176</ele>
        <time>2025-07-24T14:15:36.289Z</time>
      </trkpt>
      <trkpt lat="44.07299" lon="0.56518">
        <ele>176</ele>
        <time>2025-07-24T14:15:37.289Z</time>
      </trkpt>
      <trkpt lat="44.07298" lon="0.56518">
        <ele>176</ele>
        <time>2025-07-24T14:15:38.289Z</time>
      </trkpt>
      <trkpt lat="44.07297" lon="0.56518">
        <ele>176</ele>
        <time>2025-07-24T14:15:39.289Z</time>
      </trkpt>
      <trkpt lat="44.07296" lon="0.56518">
        <ele>176</ele>
        <time>2025-07-24T14:15:40.289Z</time>
      </trkpt>
      <trkpt lat="44.07295" lon="0.56518">
        <ele>177</ele>
        <time>2025-07-24T14:15:41.289Z</time>
      </trkpt>
      <trkpt lat="44.07294" lon="0.56518">
        <ele>177</ele>
        <time>2025-07-24T14:15:42.289Z</time>
      </trkpt>
      <trkpt lat="44.07292" lon="0.56517">
        <ele>177</ele>
        <time>2025-07-24T14:15:43.289Z</time>
      </trkpt>
      <trkpt lat="44.07291" lon="0.56517">
        <ele>176</ele>
        <time>2025-07-24T14:15:44.289Z</time>
      </trkpt>
      <trkpt lat="44.07289" lon="0.56517">
        <ele>176</ele>
        <time>2025-07-24T14:15:45.289Z</time>
      </trkpt>
      <trkpt lat="44.07288" lon="0.56517">
        <ele>176</ele>
        <time>2025-07-24T14:15:46.289Z</time>
      </trkpt>
      <trkpt lat="44.07287" lon="0.56517">
        <ele>176</ele>
        <time>2025-07-24T14:15:47.289Z</time>
      </trkpt>
      <trkpt lat="44.07286" lon="0.56517">
        <ele>177</ele>
        <time>2025-07-24T14:15:48.289Z</time>
      </trkpt>
      <trkpt lat="44.07284" lon="0.56517">
        <ele>177</ele>
        <time>2025-07-24T14:15:49.289Z</time>
      </trkpt>
      <trkpt lat="44.07283" lon="0.56518">
        <ele>177</ele>
        <time>2025-07-24T14:15:50.289Z</time>
      </trkpt>
      <trkpt lat="44.07282" lon="0.56518">
        <ele>177</ele>
        <time>2025-07-24T14:15:51.289Z</time>
      </trkpt>
      <trkpt lat="44.07281" lon="0.56518">
        <ele>178</ele>
        <time>2025-07-24T14:15:52.289Z</time>
      </trkpt>
      <trkpt lat="44.07279" lon="0.56518">
        <ele>178</ele>
        <time>2025-07-24T14:15:53.289Z</time>
      </trkpt>
      <trkpt lat="44.07278" lon="0.56519">
        <ele>178</ele>
        <time>2025-07-24T14:15:54.289Z</time>
      </trkpt>
      <trkpt lat="44.07277" lon="0.56519">
        <ele>178</ele>
        <time>2025-07-24T14:15:55.289Z</time>
      </trkpt>
      <trkpt lat="44.07275" lon="0.56518">
        <ele>178</ele>
        <time>2025-07-24T14:15:56.289Z</time>
      </trkpt>
      <trkpt lat="44.07274" lon="0.56518">
        <ele>178</ele>
        <time>2025-07-24T14:15:57.289Z</time>
      </trkpt>
      <trkpt lat="44.07272" lon="0.56518">
        <ele>178</ele>
        <time>2025-07-24T14:15:58.289Z</time>
      </trkpt>
      <trkpt lat="44.07271" lon="0.56518">
        <ele>178</ele>
        <time>2025-07-24T14:15:59.289Z</time>
      </trkpt>
      <trkpt lat="44.0727" lon="0.56518">
        <ele>178</ele>
        <time>2025-07-24T14:16:00.289Z</time>
      </trkpt>
      <trkpt lat="44.07268" lon="0.56518">
        <ele>178</ele>
        <time>2025-07-24T14:16:01.289Z</time>
      </trkpt>
      <trkpt lat="44.07267" lon="0.56518">
        <ele>178</ele>
        <time>2025-07-24T14:16:02.289Z</time>
      </trkpt>
      <trkpt lat="44.07266" lon="0.56518">
        <ele>178</ele>
        <time>2025-07-24T14:16:03.289Z</time>
      </trkpt>
      <trkpt lat="44.07265" lon="0.56518">
        <ele>178</ele>
        <time>2025-07-24T14:16:04.289Z</time>
      </trkpt>
      <trkpt lat="44.07264" lon="0.56518">
        <ele>178</ele>
        <time>2025-07-24T14:16:05.289Z</time>
      </trkpt>
      <trkpt lat="44.07263" lon="0.56518">
        <ele>178</ele>
        <time>2025-07-24T14:16:06.289Z</time>
      </trkpt>
      <trkpt lat="44.07261" lon="0.56517">
        <ele>178</ele>
        <time>2025-07-24T14:16:07.289Z</time>
      </trkpt>
      <trkpt lat="44.0726" lon="0.56518">
        <ele>178</ele>
        <time>2025-07-24T14:16:08.289Z</time>
      </trkpt>
      <trkpt lat="44.07259" lon="0.56518">
        <ele>179</ele>
        <time>2025-07-24T14:16:09.289Z</time>
      </trkpt>
      <trkpt lat="44.07257" lon="0.56518">
        <ele>179</ele>
        <time>2025-07-24T14:16:10.289Z</time>
      </trkpt>
      <trkpt lat="44.07256" lon="0.56518">
        <ele>179</ele>
        <time>2025-07-24T14:16:11.289Z</time>
      </trkpt>
      <trkpt lat="44.07254" lon="0.56518">
        <ele>179</ele>
        <time>2025-07-24T14:16:12.289Z</time>
      </trkpt>
      <trkpt lat="44.07253" lon="0.56518">
        <ele>179</ele>
        <time>2025-07-24T14:16:13.289Z</time>
      </trkpt>
      <trkpt lat="44.07252" lon="0.56518">
        <ele>180</ele>
        <time>2025-07-24T14:16:14.289Z</time>
      </trkpt>
      <trkpt lat="44.0725" lon="0.56519">
        <ele>180</ele>
        <time>2025-07-24T14:16:15.289Z</time>
      </trkpt>
      <trkpt lat="44.07249" lon="0.56519">
        <ele>180</ele>
        <time>2025-07-24T14:16:16.289Z</time>
      </trkpt>
      <trkpt lat="44.07248" lon="0.56519">
        <ele>179</ele>
        <time>2025-07-24T14:16:17.289Z</time>
      </trkpt>
      <trkpt lat="44.07247" lon="0.56519">
        <ele>179</ele>
        <time>2025-07-24T14:16:18.289Z</time>
      </trkpt>
      <trkpt lat="44.07246" lon="0.56519">
        <ele>179</ele>
        <time>2025-07-24T14:16:19.289Z</time>
      </trkpt>
      <trkpt lat="44.07244" lon="0.56518">
        <ele>179</ele>
        <time>2025-07-24T14:16:20.289Z</time>
      </trkpt>
      <trkpt lat="44.07243" lon="0.56518">
        <ele>179</ele>
        <time>2025-07-24T14:16:21.289Z</time>
      </trkpt>
      <trkpt lat="44.07242" lon="0.56518">
        <ele>179</ele>
        <time>2025-07-24T14:16:22.289Z</time>
      </trkpt>
      <trkpt lat="44.07241" lon="0.56518">
        <ele>179</ele>
        <time>2025-07-24T14:16:23.289Z</time>
      </trkpt>
      <trkpt lat="44.07239" lon="0.56517">
        <ele>178</ele>
        <time>2025-07-24T14:16:24.289Z</time>
      </trkpt>
      <trkpt lat="44.07238" lon="0.56517">
        <ele>178</ele>
        <time>2025-07-24T14:16:25.289Z</time>
      </trkpt>
      <trkpt lat="44.07236" lon="0.56517">
        <ele>178</ele>
        <time>2025-07-24T14:16:26.289Z</time>
      </trkpt>
      <trkpt lat="44.07235" lon="0.56516">
        <ele>178</ele>
        <time>2025-07-24T14:16:27.289Z</time>
      </trkpt>
      <trkpt lat="44.07234" lon="0.56516">
        <ele>178</ele>
        <time>2025-07-24T14:16:28.289Z</time>
      </trkpt>
      <trkpt lat="44.07233" lon="0.56516">
        <ele>178</ele>
        <time>2025-07-24T14:16:29.289Z</time>
      </trkpt>
      <trkpt lat="44.07231" lon="0.56516">
        <ele>178</ele>
        <time>2025-07-24T14:16:30.289Z</time>
      </trkpt>
      <trkpt lat="44.0723" lon="0.56516">
        <ele>178</ele>
        <time>2025-07-24T14:16:31.289Z</time>
      </trkpt>
      <trkpt lat="44.0723" lon="0.56516">
        <ele>178</ele>
        <time>2025-07-24T14:16:32.289Z</time>
      </trkpt>
      <trkpt lat="44.07229" lon="0.56515">
        <ele>178</ele>
        <time>2025-07-24T14:16:33.289Z</time>
      </trkpt>
      <trkpt lat="44.07228" lon="0.56515">
        <ele>178</ele>
        <time>2025-07-24T14:16:34.289Z</time>
      </trkpt>
      <trkpt lat="44.07228" lon="0.56515">
        <ele>178</ele>
        <time>2025-07-24T14:16:35.289Z</time>
      </trkpt>
      <trkpt lat="44.07226" lon="0.56515">
        <ele>178</ele>
        <time>2025-07-24T14:16:36.289Z</time>
      </trkpt>
      <trkpt lat="44.07226" lon="0.56515">
        <ele>178</ele>
        <time>2025-07-24T14:16:37.289Z</time>
      </trkpt>
      <trkpt lat="44.07225" lon="0.56515">
        <ele>178</ele>
        <time>2025-07-24T14:16:38.289Z</time>
      </trkpt>
      <trkpt lat="44.07224" lon="0.56515">
        <ele>178</ele>
        <time>2025-07-24T14:16:39.289Z</time>
      </trkpt>
      <trkpt lat="44.07222" lon="0.56514">
        <ele>178</ele>
        <time>2025-07-24T14:16:40.289Z</time>
      </trkpt>
      <trkpt lat="44.07221" lon="0.56514">
        <ele>178</ele>
        <time>2025-07-24T14:16:41.289Z</time>
      </trkpt>
      <trkpt lat="44.0722" lon="0.56514">
        <ele>177</ele>
        <time>2025-07-24T14:16:42.289Z</time>
      </trkpt>
      <trkpt lat="44.07219" lon="0.56513">
        <ele>177</ele>
        <time>2025-07-24T14:16:43.289Z</time>
      </trkpt>
      <trkpt lat="44.07217" lon="0.56513">
        <ele>177</ele>
        <time>2025-07-24T14:16:44.289Z</time>
      </trkpt>
      <trkpt lat="44.07216" lon="0.56513">
        <ele>177</ele>
        <time>2025-07-24T14:16:45.289Z</time>
      </trkpt>
      <trkpt lat="44.07215" lon="0.56513">
        <ele>177</ele>
        <time>2025-07-24T14:16:46.289Z</time>
      </trkpt>
      <trkpt lat="44.07214" lon="0.56513">
        <ele>177</ele>
        <time>2025-07-24T14:16:47.289Z</time>
      </trkpt>
      <trkpt lat="44.07212" lon="0.56513">
        <ele>177</ele>
        <time>2025-07-24T14:16:48.289Z</time>
      </trkpt>
      <trkpt lat="44.07211" lon="0.56513">
        <ele>177</ele>
        <time>2025-07-24T14:16:49.289Z</time>
      </trkpt>
      <trkpt lat="44.0721" lon="0.56513">
        <ele>177</ele>
        <time>2025-07-24T14:16:50.289Z</time>
      </trkpt>
      <trkpt lat="44.07209" lon="0.56513">
        <ele>177</ele>
        <time>2025-07-24T14:16:51.289Z</time>
      </trkpt>
      <trkpt lat="44.07207" lon="0.56513">
        <ele>178</ele>
        <time>2025-07-24T14:16:52.289Z</time>
      </trkpt>
      <trkpt lat="44.07206" lon="0.56514">
        <ele>178</ele>
        <time>2025-07-24T14:16:53.289Z</time>
      </trkpt>
      <trkpt lat="44.07205" lon="0.56513">
        <ele>178</ele>
        <time>2025-07-24T14:16:54.289Z</time>
      </trkpt>
      <trkpt lat="44.07204" lon="0.56514">
        <ele>178</ele>
        <time>2025-07-24T14:16:55.289Z</time>
      </trkpt>
      <trkpt lat="44.07203" lon="0.56514">
        <ele>178</ele>
        <time>2025-07-24T14:16:56.289Z</time>
      </trkpt>
      <trkpt lat="44.07202" lon="0.56514">
        <ele>178</ele>
        <time>2025-07-24T14:16:57.289Z</time>
      </trkpt>
      <trkpt lat="44.07201" lon="0.56514">
        <ele>178</ele>
        <time>2025-07-24T14:16:58.289Z</time>
      </trkpt>
      <trkpt lat="44.072" lon="0.56514">
        <ele>179</ele>
        <time>2025-07-24T14:16:59.289Z</time>
      </trkpt>
      <trkpt lat="44.07199" lon="0.56514">
        <ele>179</ele>
        <time>2025-07-24T14:17:00.289Z</time>
      </trkpt>
      <trkpt lat="44.07198" lon="0.56513">
        <ele>179</ele>
        <time>2025-07-24T14:17:01.289Z</time>
      </trkpt>
      <trkpt lat="44.07196" lon="0.56514">
        <ele>179</ele>
        <time>2025-07-24T14:17:02.289Z</time>
      </trkpt>
      <trkpt lat="44.07195" lon="0.56514">
        <ele>179</ele>
        <time>2025-07-24T14:17:03.289Z</time>
      </trkpt>
      <trkpt lat="44.07194" lon="0.56514">
        <ele>180</ele>
        <time>2025-07-24T14:17:04.289Z</time>
      </trkpt>
      <trkpt lat="44.07193" lon="0.56514">
        <ele>180</ele>
        <time>2025-07-24T14:17:05.289Z</time>
      </trkpt>
      <trkpt lat="44.07192" lon="0.56514">
        <ele>180</ele>
        <time>2025-07-24T14:17:06.289Z</time>
      </trkpt>
      <trkpt lat="44.0719" lon="0.56514">
        <ele>180</ele>
        <time>2025-07-24T14:17:07.289Z</time>
      </trkpt>
      <trkpt lat="44.07189" lon="0.56514">
        <ele>179</ele>
        <time>2025-07-24T14:17:08.289Z</time>
      </trkpt>
      <trkpt lat="44.07188" lon="0.56514">
        <ele>179</ele>
        <time>2025-07-24T14:17:09.289Z</time>
      </trkpt>
      <trkpt lat="44.07186" lon="0.56514">
        <ele>179</ele>
        <time>2025-07-24T14:17:10.289Z</time>
      </trkpt>
      <trkpt lat="44.07185" lon="0.56515">
        <ele>179</ele>
        <time>2025-07-24T14:17:11.289Z</time>
      </trkpt>
      <trkpt lat="44.07184" lon="0.56515">
        <ele>179</ele>
        <time>2025-07-24T14:17:12.289Z</time>
      </trkpt>
      <trkpt lat="44.07183" lon="0.56514">
        <ele>179</ele>
        <time>2025-07-24T14:17:13.289Z</time>
      </trkpt>
      <trkpt lat="44.07182" lon="0.56514">
        <ele>179</ele>
        <time>2025-07-24T14:17:14.289Z</time>
      </trkpt>
      <trkpt lat="44.07181" lon="0.56514">
        <ele>179</ele>
        <time>2025-07-24T14:17:15.289Z</time>
      </trkpt>
      <trkpt lat="44.0718" lon="0.56514">
        <ele>179</ele>
        <time>2025-07-24T14:17:16.289Z</time>
      </trkpt>
      <trkpt lat="44.07178" lon="0.56514">
        <ele>179</ele>
        <time>2025-07-24T14:17:17.289Z</time>
      </trkpt>
      <trkpt lat="44.07177" lon="0.56515">
        <ele>180</ele>
        <time>2025-07-24T14:17:18.289Z</time>
      </trkpt>
      <trkpt lat="44.07176" lon="0.56515">
        <ele>180</ele>
        <time>2025-07-24T14:17:19.289Z</time>
      </trkpt>
      <trkpt lat="44.07175" lon="0.56515">
        <ele>180</ele>
        <time>2025-07-24T14:17:20.289Z</time>
      </trkpt>
      <trkpt lat="44.07173" lon="0.56515">
        <ele>180</ele>
        <time>2025-07-24T14:17:21.289Z</time>
      </trkpt>
      <trkpt lat="44.07172" lon="0.56515">
        <ele>180</ele>
        <time>2025-07-24T14:17:22.289Z</time>
      </trkpt>
      <trkpt lat="44.07171" lon="0.56515">
        <ele>181</ele>
        <time>2025-07-24T14:17:23.289Z</time>
      </trkpt>
      <trkpt lat="44.0717" lon="0.56515">
        <ele>181</ele>
        <time>2025-07-24T14:17:24.289Z</time>
      </trkpt>
      <trkpt lat="44.07169" lon="0.56515">
        <ele>181</ele>
        <time>2025-07-24T14:17:25.289Z</time>
      </trkpt>
      <trkpt lat="44.07167" lon="0.56515">
        <ele>181</ele>
        <time>2025-07-24T14:17:26.289Z</time>
      </trkpt>
      <trkpt lat="44.07166" lon="0.56515">
        <ele>182</ele>
        <time>2025-07-24T14:17:27.289Z</time>
      </trkpt>
      <trkpt lat="44.07165" lon="0.56515">
        <ele>182</ele>
        <time>2025-07-24T14:17:28.289Z</time>
      </trkpt>
      <trkpt lat="44.07163" lon="0.56515">
        <ele>182</ele>
        <time>2025-07-24T14:17:29.289Z</time>
      </trkpt>
      <trkpt lat="44.07162" lon="0.56515">
        <ele>182</ele>
        <time>2025-07-24T14:17:30.289Z</time>
      </trkpt>
      <trkpt lat="44.07161" lon="0.56516">
        <ele>182</ele>
        <time>2025-07-24T14:17:31.289Z</time>
      </trkpt>
      <trkpt lat="44.0716" lon="0.56516">
        <ele>182</ele>
        <time>2025-07-24T14:17:32.289Z</time>
      </trkpt>
      <trkpt lat="44.07159" lon="0.56515">
        <ele>182</ele>
        <time>2025-07-24T14:17:33.289Z</time>
      </trkpt>
      <trkpt lat="44.07158" lon="0.56516">
        <ele>182</ele>
        <time>2025-07-24T14:17:34.289Z</time>
      </trkpt>
      <trkpt lat="44.07156" lon="0.56516">
        <ele>182</ele>
        <time>2025-07-24T14:17:35.289Z</time>
      </trkpt>
      <trkpt lat="44.07155" lon="0.56516">
        <ele>182</ele>
        <time>2025-07-24T14:17:36.289Z</time>
      </trkpt>
      <trkpt lat="44.07154" lon="0.56516">
        <ele>182</ele>
        <time>2025-07-24T14:17:37.289Z</time>
      </trkpt>
      <trkpt lat="44.07152" lon="0.56516">
        <ele>182</ele>
        <time>2025-07-24T14:17:38.289Z</time>
      </trkpt>
      <trkpt lat="44.07151" lon="0.56517">
        <ele>181</ele>
        <time>2025-07-24T14:17:39.289Z</time>
      </trkpt>
      <trkpt lat="44.0715" lon="0.56517">
        <ele>181</ele>
        <time>2025-07-24T14:17:40.289Z</time>
      </trkpt>
      <trkpt lat="44.07148" lon="0.56517">
        <ele>181</ele>
        <time>2025-07-24T14:17:41.289Z</time>
      </trkpt>
      <trkpt lat="44.07147" lon="0.56518">
        <ele>181</ele>
        <time>2025-07-24T14:17:42.289Z</time>
      </trkpt>
      <trkpt lat="44.07146" lon="0.56518">
        <ele>181</ele>
        <time>2025-07-24T14:17:43.289Z</time>
      </trkpt>
      <trkpt lat="44.07145" lon="0.56519">
        <ele>181</ele>
        <time>2025-07-24T14:17:44.289Z</time>
      </trkpt>
      <trkpt lat="44.07144" lon="0.56519">
        <ele>180</ele>
        <time>2025-07-24T14:17:45.289Z</time>
      </trkpt>
      <trkpt lat="44.07143" lon="0.56519">
        <ele>180</ele>
        <time>2025-07-24T14:17:46.289Z</time>
      </trkpt>
      <trkpt lat="44.07142" lon="0.5652">
        <ele>180</ele>
        <time>2025-07-24T14:17:47.289Z</time>
      </trkpt>
      <trkpt lat="44.07141" lon="0.5652">
        <ele>180</ele>
        <time>2025-07-24T14:17:48.289Z</time>
      </trkpt>
      <trkpt lat="44.0714" lon="0.5652">
        <ele>181</ele>
        <time>2025-07-24T14:17:49.289Z</time>
      </trkpt>
      <trkpt lat="44.07138" lon="0.56521">
        <ele>181</ele>
        <time>2025-07-24T14:17:50.289Z</time>
      </trkpt>
      <trkpt lat="44.07137" lon="0.56522">
        <ele>181</ele>
        <time>2025-07-24T14:17:51.289Z</time>
      </trkpt>
      <trkpt lat="44.07136" lon="0.56522">
        <ele>181</ele>
        <time>2025-07-24T14:17:52.289Z</time>
      </trkpt>
      <trkpt lat="44.07135" lon="0.56522">
        <ele>181</ele>
        <time>2025-07-24T14:17:53.289Z</time>
      </trkpt>
      <trkpt lat="44.07133" lon="0.56523">
        <ele>181</ele>
        <time>2025-07-24T14:17:54.289Z</time>
      </trkpt>
      <trkpt lat="44.07132" lon="0.56523">
        <ele>181</ele>
        <time>2025-07-24T14:17:55.289Z</time>
      </trkpt>
      <trkpt lat="44.07131" lon="0.56524">
        <ele>180</ele>
        <time>2025-07-24T14:17:56.289Z</time>
      </trkpt>
      <trkpt lat="44.0713" lon="0.56525">
        <ele>181</ele>
        <time>2025-07-24T14:17:57.289Z</time>
      </trkpt>
      <trkpt lat="44.07129" lon="0.56525">
        <ele>181</ele>
        <time>2025-07-24T14:17:58.289Z</time>
      </trkpt>
      <trkpt lat="44.07128" lon="0.56526">
        <ele>181</ele>
        <time>2025-07-24T14:17:59.289Z</time>
      </trkpt>
      <trkpt lat="44.07127" lon="0.56526">
        <ele>181</ele>
        <time>2025-07-24T14:18:00.289Z</time>
      </trkpt>
      <trkpt lat="44.07126" lon="0.56527">
        <ele>181</ele>
        <time>2025-07-24T14:18:01.289Z</time>
      </trkpt>
      <trkpt lat="44.07125" lon="0.56528">
        <ele>181</ele>
        <time>2025-07-24T14:18:02.289Z</time>
      </trkpt>
      <trkpt lat="44.07124" lon="0.56528">
        <ele>181</ele>
        <time>2025-07-24T14:18:03.289Z</time>
      </trkpt>
      <trkpt lat="44.07123" lon="0.56528">
        <ele>181</ele>
        <time>2025-07-24T14:18:04.289Z</time>
      </trkpt>
      <trkpt lat="44.07122" lon="0.56529">
        <ele>181</ele>
        <time>2025-07-24T14:18:05.289Z</time>
      </trkpt>
      <trkpt lat="44.07121" lon="0.5653">
        <ele>181</ele>
        <time>2025-07-24T14:18:06.289Z</time>
      </trkpt>
      <trkpt lat="44.0712" lon="0.5653">
        <ele>181</ele>
        <time>2025-07-24T14:18:07.289Z</time>
      </trkpt>
      <trkpt lat="44.07119" lon="0.56531">
        <ele>182</ele>
        <time>2025-07-24T14:18:08.289Z</time>
      </trkpt>
      <trkpt lat="44.07117" lon="0.56531">
        <ele>182</ele>
        <time>2025-07-24T14:18:09.289Z</time>
      </trkpt>
      <trkpt lat="44.07116" lon="0.56532">
        <ele>182</ele>
        <time>2025-07-24T14:18:10.289Z</time>
      </trkpt>
      <trkpt lat="44.07115" lon="0.56532">
        <ele>182</ele>
        <time>2025-07-24T14:18:11.289Z</time>
      </trkpt>
      <trkpt lat="44.07114" lon="0.56533">
        <ele>182</ele>
        <time>2025-07-24T14:18:12.289Z</time>
      </trkpt>
      <trkpt lat="44.07112" lon="0.56534">
        <ele>181</ele>
        <time>2025-07-24T14:18:13.289Z</time>
      </trkpt>
      <trkpt lat="44.07111" lon="0.56535">
        <ele>181</ele>
        <time>2025-07-24T14:18:14.289Z</time>
      </trkpt>
      <trkpt lat="44.0711" lon="0.56535">
        <ele>182</ele>
        <time>2025-07-24T14:18:15.289Z</time>
      </trkpt>
      <trkpt lat="44.07109" lon="0.56535">
        <ele>182</ele>
        <time>2025-07-24T14:18:16.289Z</time>
      </trkpt>
      <trkpt lat="44.07108" lon="0.56536">
        <ele>182</ele>
        <time>2025-07-24T14:18:17.289Z</time>
      </trkpt>
      <trkpt lat="44.07107" lon="0.56537">
        <ele>182</ele>
        <time>2025-07-24T14:18:18.289Z</time>
      </trkpt>
      <trkpt lat="44.07106" lon="0.56537">
        <ele>182</ele>
        <time>2025-07-24T14:18:19.290Z</time>
      </trkpt>
      <trkpt lat="44.07105" lon="0.56538">
        <ele>182</ele>
        <time>2025-07-24T14:18:20.289Z</time>
      </trkpt>
      <trkpt lat="44.07103" lon="0.56539">
        <ele>182</ele>
        <time>2025-07-24T14:18:21.289Z</time>
      </trkpt>
      <trkpt lat="44.07102" lon="0.5654">
        <ele>182</ele>
        <time>2025-07-24T14:18:22.289Z</time>
      </trkpt>
      <trkpt lat="44.07101" lon="0.56541">
        <ele>182</ele>
        <time>2025-07-24T14:18:23.289Z</time>
      </trkpt>
      <trkpt lat="44.07099" lon="0.56541">
        <ele>182</ele>
        <time>2025-07-24T14:18:24.289Z</time>
      </trkpt>
      <trkpt lat="44.07098" lon="0.56542">
        <ele>182</ele>
        <time>2025-07-24T14:18:25.289Z</time>
      </trkpt>
      <trkpt lat="44.07097" lon="0.56543">
        <ele>182</ele>
        <time>2025-07-24T14:18:26.289Z</time>
      </trkpt>
      <trkpt lat="44.07096" lon="0.56544">
        <ele>182</ele>
        <time>2025-07-24T14:18:27.289Z</time>
      </trkpt>
      <trkpt lat="44.07095" lon="0.56544">
        <ele>182</ele>
        <time>2025-07-24T14:18:28.289Z</time>
      </trkpt>
      <trkpt lat="44.07093" lon="0.56545">
        <ele>182</ele>
        <time>2025-07-24T14:18:29.289Z</time>
      </trkpt>
      <trkpt lat="44.07092" lon="0.56546">
        <ele>182</ele>
        <time>2025-07-24T14:18:30.289Z</time>
      </trkpt>
      <trkpt lat="44.07091" lon="0.56547">
        <ele>182</ele>
        <time>2025-07-24T14:18:31.289Z</time>
      </trkpt>
      <trkpt lat="44.0709" lon="0.56548">
        <ele>182</ele>
        <time>2025-07-24T14:18:32.289Z</time>
      </trkpt>
      <trkpt lat="44.07089" lon="0.56549">
        <ele>183</ele>
        <time>2025-07-24T14:18:33.289Z</time>
      </trkpt>
      <trkpt lat="44.07087" lon="0.56549">
        <ele>183</ele>
        <time>2025-07-24T14:18:34.290Z</time>
      </trkpt>
      <trkpt lat="44.07086" lon="0.5655">
        <ele>183</ele>
        <time>2025-07-24T14:18:35.289Z</time>
      </trkpt>
      <trkpt lat="44.07084" lon="0.5655">
        <ele>183</ele>
        <time>2025-07-24T14:18:36.289Z</time>
      </trkpt>
      <trkpt lat="44.07083" lon="0.56551">
        <ele>183</ele>
        <time>2025-07-24T14:18:37.289Z</time>
      </trkpt>
      <trkpt lat="44.07082" lon="0.56552">
        <ele>183</ele>
        <time>2025-07-24T14:18:38.289Z</time>
      </trkpt>
      <trkpt lat="44.0708" lon="0.56552">
        <ele>183</ele>
        <time>2025-07-24T14:18:39.289Z</time>
      </trkpt>
      <trkpt lat="44.07079" lon="0.56553">
        <ele>183</ele>
        <time>2025-07-24T14:18:40.289Z</time>
      </trkpt>
      <trkpt lat="44.07078" lon="0.56553">
        <ele>183</ele>
        <time>2025-07-24T14:18:41.289Z</time>
      </trkpt>
      <trkpt lat="44.07077" lon="0.56554">
        <ele>183</ele>
        <time>2025-07-24T14:18:42.289Z</time>
      </trkpt>
      <trkpt lat="44.07076" lon="0.56555">
        <ele>183</ele>
        <time>2025-07-24T14:18:43.289Z</time>
      </trkpt>
      <trkpt lat="44.07075" lon="0.56556">
        <ele>183</ele>
        <time>2025-07-24T14:18:44.289Z</time>
      </trkpt>
      <trkpt lat="44.07074" lon="0.56556">
        <ele>183</ele>
        <time>2025-07-24T14:18:45.289Z</time>
      </trkpt>
      <trkpt lat="44.07072" lon="0.56557">
        <ele>183</ele>
        <time>2025-07-24T14:18:46.289Z</time>
      </trkpt>
      <trkpt lat="44.07071" lon="0.56558">
        <ele>183</ele>
        <time>2025-07-24T14:18:47.289Z</time>
      </trkpt>
      <trkpt lat="44.0707" lon="0.56559">
        <ele>183</ele>
        <time>2025-07-24T14:18:48.289Z</time>
      </trkpt>
      <trkpt lat="44.07068" lon="0.5656">
        <ele>183</ele>
        <time>2025-07-24T14:18:49.289Z</time>
      </trkpt>
      <trkpt lat="44.07067" lon="0.56561">
        <ele>183</ele>
        <time>2025-07-24T14:18:50.289Z</time>
      </trkpt>
      <trkpt lat="44.07066" lon="0.56561">
        <ele>183</ele>
        <time>2025-07-24T14:18:51.289Z</time>
      </trkpt>
      <trkpt lat="44.07064" lon="0.56562">
        <ele>183</ele>
        <time>2025-07-24T14:18:52.289Z</time>
      </trkpt>
      <trkpt lat="44.07063" lon="0.56563">
        <ele>183</ele>
        <time>2025-07-24T14:18:53.289Z</time>
      </trkpt>
      <trkpt lat="44.07062" lon="0.56564">
        <ele>183</ele>
        <time>2025-07-24T14:18:54.289Z</time>
      </trkpt>
      <trkpt lat="44.07061" lon="0.56565">
        <ele>183</ele>
        <time>2025-07-24T14:18:55.289Z</time>
      </trkpt>
      <trkpt lat="44.0706" lon="0.56566">
        <ele>183</ele>
        <time>2025-07-24T14:18:56.289Z</time>
      </trkpt>
      <trkpt lat="44.07059" lon="0.56566">
        <ele>184</ele>
        <time>2025-07-24T14:18:57.289Z</time>
      </trkpt>
      <trkpt lat="44.07058" lon="0.56567">
        <ele>184</ele>
        <time>2025-07-24T14:18:58.289Z</time>
      </trkpt>
      <trkpt lat="44.07057" lon="0.56568">
        <ele>185</ele>
        <time>2025-07-24T14:18:59.289Z</time>
      </trkpt>
      <trkpt lat="44.07056" lon="0.56569">
        <ele>185</ele>
        <time>2025-07-24T14:19:00.289Z</time>
      </trkpt>
      <trkpt lat="44.07054" lon="0.56569">
        <ele>185</ele>
        <time>2025-07-24T14:19:01.289Z</time>
      </trkpt>
      <trkpt lat="44.07053" lon="0.5657">
        <ele>186</ele>
        <time>2025-07-24T14:19:02.289Z</time>
      </trkpt>
      <trkpt lat="44.07052" lon="0.5657">
        <ele>186</ele>
        <time>2025-07-24T14:19:03.289Z</time>
      </trkpt>
      <trkpt lat="44.0705" lon="0.56571">
        <ele>186</ele>
        <time>2025-07-24T14:19:04.289Z</time>
      </trkpt>
      <trkpt lat="44.07049" lon="0.56571">
        <ele>186</ele>
        <time>2025-07-24T14:19:05.289Z</time>
      </trkpt>
      <trkpt lat="44.07047" lon="0.56572">
        <ele>186</ele>
        <time>2025-07-24T14:19:06.289Z</time>
      </trkpt>
      <trkpt lat="44.07046" lon="0.56573">
        <ele>186</ele>
        <time>2025-07-24T14:19:07.289Z</time>
      </trkpt>
      <trkpt lat="44.07044" lon="0.56574">
        <ele>186</ele>
        <time>2025-07-24T14:19:08.289Z</time>
      </trkpt>
      <trkpt lat="44.07043" lon="0.56574">
        <ele>186</ele>
        <time>2025-07-24T14:19:09.289Z</time>
      </trkpt>
      <trkpt lat="44.07042" lon="0.56575">
        <ele>186</ele>
        <time>2025-07-24T14:19:10.289Z</time>
      </trkpt>
      <trkpt lat="44.07041" lon="0.56576">
        <ele>186</ele>
        <time>2025-07-24T14:19:11.289Z</time>
      </trkpt>
      <trkpt lat="44.0704" lon="0.56577">
        <ele>186</ele>
        <time>2025-07-24T14:19:12.289Z</time>
      </trkpt>
      <trkpt lat="44.07039" lon="0.56578">
        <ele>186</ele>
        <time>2025-07-24T14:19:13.289Z</time>
      </trkpt>
      <trkpt lat="44.07038" lon="0.56579">
        <ele>186</ele>
        <time>2025-07-24T14:19:14.289Z</time>
      </trkpt>
      <trkpt lat="44.07037" lon="0.56579">
        <ele>186</ele>
        <time>2025-07-24T14:19:15.289Z</time>
      </trkpt>
      <trkpt lat="44.07035" lon="0.5658">
        <ele>186</ele>
        <time>2025-07-24T14:19:16.289Z</time>
      </trkpt>
      <trkpt lat="44.07034" lon="0.56581">
        <ele>186</ele>
        <time>2025-07-24T14:19:17.289Z</time>
      </trkpt>
      <trkpt lat="44.07033" lon="0.56582">
        <ele>186</ele>
        <time>2025-07-24T14:19:18.289Z</time>
      </trkpt>
      <trkpt lat="44.07032" lon="0.56583">
        <ele>186</ele>
        <time>2025-07-24T14:19:19.289Z</time>
      </trkpt>
      <trkpt lat="44.0703" lon="0.56583">
        <ele>186</ele>
        <time>2025-07-24T14:19:20.289Z</time>
      </trkpt>
      <trkpt lat="44.07029" lon="0.56584">
        <ele>185</ele>
        <time>2025-07-24T14:19:21.289Z</time>
      </trkpt>
      <trkpt lat="44.07027" lon="0.56584">
        <ele>185</ele>
        <time>2025-07-24T14:19:22.289Z</time>
      </trkpt>
      <trkpt lat="44.07026" lon="0.56585">
        <ele>184</ele>
        <time>2025-07-24T14:19:23.289Z</time>
      </trkpt>
      <trkpt lat="44.07025" lon="0.56586">
        <ele>184</ele>
        <time>2025-07-24T14:19:24.289Z</time>
      </trkpt>
      <trkpt lat="44.07024" lon="0.56587">
        <ele>184</ele>
        <time>2025-07-24T14:19:25.289Z</time>
      </trkpt>
      <trkpt lat="44.07023" lon="0.56588">
        <ele>184</ele>
        <time>2025-07-24T14:19:26.289Z</time>
      </trkpt>
      <trkpt lat="44.07021" lon="0.56589">
        <ele>185</ele>
        <time>2025-07-24T14:19:27.289Z</time>
      </trkpt>
      <trkpt lat="44.0702" lon="0.5659">
        <ele>185</ele>
        <time>2025-07-24T14:19:28.289Z</time>
      </trkpt>
      <trkpt lat="44.07019" lon="0.56591">
        <ele>185</ele>
        <time>2025-07-24T14:19:29.289Z</time>
      </trkpt>
      <trkpt lat="44.07018" lon="0.56592">
        <ele>185</ele>
        <time>2025-07-24T14:19:30.289Z</time>
      </trkpt>
      <trkpt lat="44.07017" lon="0.56592">
        <ele>185</ele>
        <time>2025-07-24T14:19:31.289Z</time>
      </trkpt>
      <trkpt lat="44.07016" lon="0.56593">
        <ele>185</ele>
        <time>2025-07-24T14:19:32.289Z</time>
      </trkpt>
      <trkpt lat="44.07014" lon="0.56594">
        <ele>185</ele>
        <time>2025-07-24T14:19:33.289Z</time>
      </trkpt>
      <trkpt lat="44.07013" lon="0.56595">
        <ele>185</ele>
        <time>2025-07-24T14:19:34.289Z</time>
      </trkpt>
      <trkpt lat="44.07012" lon="0.56596">
        <ele>185</ele>
        <time>2025-07-24T14:19:35.289Z</time>
      </trkpt>
      <trkpt lat="44.07012" lon="0.56597">
        <ele>185</ele>
        <time>2025-07-24T14:19:36.289Z</time>
      </trkpt>
      <trkpt lat="44.07011" lon="0.56598">
        <ele>186</ele>
        <time>2025-07-24T14:19:37.289Z</time>
      </trkpt>
      <trkpt lat="44.0701" lon="0.56599">
        <ele>186</ele>
        <time>2025-07-24T14:19:38.289Z</time>
      </trkpt>
      <trkpt lat="44.07009" lon="0.566">
        <ele>186</ele>
        <time>2025-07-24T14:19:39.289Z</time>
      </trkpt>
      <trkpt lat="44.07008" lon="0.56601">
        <ele>186</ele>
        <time>2025-07-24T14:19:40.289Z</time>
      </trkpt>
      <trkpt lat="44.07007" lon="0.56603">
        <ele>186</ele>
        <time>2025-07-24T14:19:41.289Z</time>
      </trkpt>
      <trkpt lat="44.07006" lon="0.56603">
        <ele>186</ele>
        <time>2025-07-24T14:19:42.289Z</time>
      </trkpt>
      <trkpt lat="44.07005" lon="0.56603">
        <ele>187</ele>
        <time>2025-07-24T14:19:43.289Z</time>
      </trkpt>
      <trkpt lat="44.07004" lon="0.56604">
        <ele>187</ele>
        <time>2025-07-24T14:19:44.289Z</time>
      </trkpt>
      <trkpt lat="44.07003" lon="0.56605">
        <ele>187</ele>
        <time>2025-07-24T14:19:45.289Z</time>
      </trkpt>
      <trkpt lat="44.07002" lon="0.56605">
        <ele>186</ele>
        <time>2025-07-24T14:19:46.289Z</time>
      </trkpt>
      <trkpt lat="44.07001" lon="0.56605">
        <ele>186</ele>
        <time>2025-07-24T14:19:47.289Z</time>
      </trkpt>
      <trkpt lat="44.07" lon="0.56606">
        <ele>186</ele>
        <time>2025-07-24T14:19:48.289Z</time>
      </trkpt>
      <trkpt lat="44.06999" lon="0.56607">
        <ele>187</ele>
        <time>2025-07-24T14:19:49.289Z</time>
      </trkpt>
      <trkpt lat="44.06998" lon="0.56608">
        <ele>187</ele>
        <time>2025-07-24T14:19:50.289Z</time>
      </trkpt>
      <trkpt lat="44.06996" lon="0.56609">
        <ele>187</ele>
        <time>2025-07-24T14:19:51.289Z</time>
      </trkpt>
      <trkpt lat="44.06995" lon="0.5661">
        <ele>187</ele>
        <time>2025-07-24T14:19:52.289Z</time>
      </trkpt>
      <trkpt lat="44.06995" lon="0.56611">
        <ele>186</ele>
        <time>2025-07-24T14:19:53.289Z</time>
      </trkpt>
      <trkpt lat="44.06994" lon="0.56612">
        <ele>186</ele>
        <time>2025-07-24T14:19:54.289Z</time>
      </trkpt>
      <trkpt lat="44.06994" lon="0.56612">
        <ele>186</ele>
        <time>2025-07-24T14:19:55.289Z</time>
      </trkpt>
      <trkpt lat="44.06993" lon="0.56613">
        <ele>186</ele>
        <time>2025-07-24T14:19:56.289Z</time>
      </trkpt>
      <trkpt lat="44.06992" lon="0.56614">
        <ele>185</ele>
        <time>2025-07-24T14:19:57.289Z</time>
      </trkpt>
      <trkpt lat="44.06991" lon="0.56615">
        <ele>185</ele>
        <time>2025-07-24T14:19:58.289Z</time>
      </trkpt>
      <trkpt lat="44.0699" lon="0.56616">
        <ele>185</ele>
        <time>2025-07-24T14:19:59.289Z</time>
      </trkpt>
      <trkpt lat="44.06988" lon="0.56617">
        <ele>185</ele>
        <time>2025-07-24T14:20:00.289Z</time>
      </trkpt>
      <trkpt lat="44.06987" lon="0.56618">
        <ele>185</ele>
        <time>2025-07-24T14:20:01.289Z</time>
      </trkpt>
      <trkpt lat="44.06985" lon="0.56619">
        <ele>185</ele>
        <time>2025-07-24T14:20:02.289Z</time>
      </trkpt>
      <trkpt lat="44.06984" lon="0.5662">
        <ele>185</ele>
        <time>2025-07-24T14:20:03.289Z</time>
      </trkpt>
      <trkpt lat="44.06983" lon="0.56621">
        <ele>185</ele>
        <time>2025-07-24T14:20:04.289Z</time>
      </trkpt>
      <trkpt lat="44.06982" lon="0.56622">
        <ele>185</ele>
        <time>2025-07-24T14:20:05.289Z</time>
      </trkpt>
      <trkpt lat="44.06981" lon="0.56623">
        <ele>185</ele>
        <time>2025-07-24T14:20:06.289Z</time>
      </trkpt>
      <trkpt lat="44.06981" lon="0.56624">
        <ele>185</ele>
        <time>2025-07-24T14:20:07.289Z</time>
      </trkpt>
      <trkpt lat="44.0698" lon="0.56625">
        <ele>185</ele>
        <time>2025-07-24T14:20:08.289Z</time>
      </trkpt>
      <trkpt lat="44.06979" lon="0.56626">
        <ele>184</ele>
        <time>2025-07-24T14:20:09.289Z</time>
      </trkpt>
      <trkpt lat="44.06978" lon="0.56626">
        <ele>184</ele>
        <time>2025-07-24T14:20:10.289Z</time>
      </trkpt>
      <trkpt lat="44.06977" lon="0.56627">
        <ele>184</ele>
        <time>2025-07-24T14:20:11.289Z</time>
      </trkpt>
      <trkpt lat="44.06975" lon="0.56628">
        <ele>183</ele>
        <time>2025-07-24T14:20:12.289Z</time>
      </trkpt>
      <trkpt lat="44.06974" lon="0.56629">
        <ele>183</ele>
        <time>2025-07-24T14:20:13.289Z</time>
      </trkpt>
      <trkpt lat="44.06973" lon="0.5663">
        <ele>183</ele>
        <time>2025-07-24T14:20:14.289Z</time>
      </trkpt>
      <trkpt lat="44.06972" lon="0.56631">
        <ele>183</ele>
        <time>2025-07-24T14:20:15.289Z</time>
      </trkpt>
      <trkpt lat="44.06971" lon="0.56632">
        <ele>184</ele>
        <time>2025-07-24T14:20:16.289Z</time>
      </trkpt>
      <trkpt lat="44.0697" lon="0.56632">
        <ele>184</ele>
        <time>2025-07-24T14:20:17.289Z</time>
      </trkpt>
      <trkpt lat="44.06969" lon="0.56633">
        <ele>184</ele>
        <time>2025-07-24T14:20:18.289Z</time>
      </trkpt>
      <trkpt lat="44.06968" lon="0.56634">
        <ele>184</ele>
        <time>2025-07-24T14:20:19.289Z</time>
      </trkpt>
      <trkpt lat="44.06967" lon="0.56635">
        <ele>184</ele>
        <time>2025-07-24T14:20:20.289Z</time>
      </trkpt>
      <trkpt lat="44.06966" lon="0.56635">
        <ele>185</ele>
        <time>2025-07-24T14:20:21.289Z</time>
      </trkpt>
      <trkpt lat="44.06965" lon="0.56636">
        <ele>185</ele>
        <time>2025-07-24T14:20:22.289Z</time>
      </trkpt>
      <trkpt lat="44.06964" lon="0.56637">
        <ele>185</ele>
        <time>2025-07-24T14:20:23.289Z</time>
      </trkpt>
      <trkpt lat="44.06963" lon="0.56638">
        <ele>185</ele>
        <time>2025-07-24T14:20:24.289Z</time>
      </trkpt>
      <trkpt lat="44.06962" lon="0.56639">
        <ele>185</ele>
        <time>2025-07-24T14:20:25.289Z</time>
      </trkpt>
      <trkpt lat="44.06961" lon="0.5664">
        <ele>186</ele>
        <time>2025-07-24T14:20:26.289Z</time>
      </trkpt>
      <trkpt lat="44.0696" lon="0.56641">
        <ele>186</ele>
        <time>2025-07-24T14:20:27.289Z</time>
      </trkpt>
      <trkpt lat="44.06958" lon="0.56642">
        <ele>185</ele>
        <time>2025-07-24T14:20:28.289Z</time>
      </trkpt>
      <trkpt lat="44.06958" lon="0.56643">
        <ele>185</ele>
        <time>2025-07-24T14:20:29.289Z</time>
      </trkpt>
      <trkpt lat="44.06957" lon="0.56644">
        <ele>185</ele>
        <time>2025-07-24T14:20:30.289Z</time>
      </trkpt>
      <trkpt lat="44.06956" lon="0.56645">
        <ele>185</ele>
        <time>2025-07-24T14:20:31.289Z</time>
      </trkpt>
      <trkpt lat="44.06955" lon="0.56646">
        <ele>185</ele>
        <time>2025-07-24T14:20:32.289Z</time>
      </trkpt>
      <trkpt lat="44.06954" lon="0.56647">
        <ele>185</ele>
        <time>2025-07-24T14:20:33.289Z</time>
      </trkpt>
      <trkpt lat="44.06953" lon="0.56648">
        <ele>185</ele>
        <time>2025-07-24T14:20:34.289Z</time>
      </trkpt>
      <trkpt lat="44.06951" lon="0.56649">
        <ele>185</ele>
        <time>2025-07-24T14:20:35.289Z</time>
      </trkpt>
      <trkpt lat="44.0695" lon="0.56651">
        <ele>185</ele>
        <time>2025-07-24T14:20:36.289Z</time>
      </trkpt>
      <trkpt lat="44.06949" lon="0.56652">
        <ele>185</ele>
        <time>2025-07-24T14:20:37.289Z</time>
      </trkpt>
      <trkpt lat="44.06948" lon="0.56653">
        <ele>185</ele>
        <time>2025-07-24T14:20:38.289Z</time>
      </trkpt>
      <trkpt lat="44.06947" lon="0.56654">
        <ele>186</ele>
        <time>2025-07-24T14:20:39.289Z</time>
      </trkpt>
      <trkpt lat="44.06946" lon="0.56655">
        <ele>186</ele>
        <time>2025-07-24T14:20:40.289Z</time>
      </trkpt>
      <trkpt lat="44.06946" lon="0.56656">
        <ele>186</ele>
        <time>2025-07-24T14:20:41.289Z</time>
      </trkpt>
      <trkpt lat="44.06945" lon="0.56657">
        <ele>186</ele>
        <time>2025-07-24T14:20:42.289Z</time>
      </trkpt>
      <trkpt lat="44.06944" lon="0.56658">
        <ele>186</ele>
        <time>2025-07-24T14:20:43.289Z</time>
      </trkpt>
      <trkpt lat="44.06943" lon="0.56659">
        <ele>186</ele>
        <time>2025-07-24T14:20:44.289Z</time>
      </trkpt>
      <trkpt lat="44.06942" lon="0.5666">
        <ele>186</ele>
        <time>2025-07-24T14:20:45.289Z</time>
      </trkpt>
      <trkpt lat="44.0694" lon="0.56661">
        <ele>186</ele>
        <time>2025-07-24T14:20:46.289Z</time>
      </trkpt>
      <trkpt lat="44.06939" lon="0.56662">
        <ele>186</ele>
        <time>2025-07-24T14:20:47.289Z</time>
      </trkpt>
      <trkpt lat="44.06938" lon="0.56663">
        <ele>186</ele>
        <time>2025-07-24T14:20:48.289Z</time>
      </trkpt>
      <trkpt lat="44.06937" lon="0.56664">
        <ele>186</ele>
        <time>2025-07-24T14:20:49.289Z</time>
      </trkpt>
      <trkpt lat="44.06936" lon="0.56664">
        <ele>187</ele>
        <time>2025-07-24T14:20:50.289Z</time>
      </trkpt>
      <trkpt lat="44.06935" lon="0.56665">
        <ele>187</ele>
        <time>2025-07-24T14:20:51.289Z</time>
      </trkpt>
      <trkpt lat="44.06934" lon="0.56666">
        <ele>187</ele>
        <time>2025-07-24T14:20:52.289Z</time>
      </trkpt>
      <trkpt lat="44.06934" lon="0.56667">
        <ele>187</ele>
        <time>2025-07-24T14:20:53.289Z</time>
      </trkpt>
      <trkpt lat="44.06933" lon="0.56668">
        <ele>186</ele>
        <time>2025-07-24T14:20:54.289Z</time>
      </trkpt>
      <trkpt lat="44.06932" lon="0.56669">
        <ele>186</ele>
        <time>2025-07-24T14:20:55.289Z</time>
      </trkpt>
      <trkpt lat="44.0693" lon="0.5667">
        <ele>186</ele>
        <time>2025-07-24T14:20:56.289Z</time>
      </trkpt>
      <trkpt lat="44.06929" lon="0.56671">
        <ele>186</ele>
        <time>2025-07-24T14:20:57.289Z</time>
      </trkpt>
      <trkpt lat="44.06929" lon="0.56671">
        <ele>186</ele>
        <time>2025-07-24T14:20:58.289Z</time>
      </trkpt>
      <trkpt lat="44.06928" lon="0.56672">
        <ele>186</ele>
        <time>2025-07-24T14:20:59.289Z</time>
      </trkpt>
      <trkpt lat="44.06927" lon="0.56673">
        <ele>186</ele>
        <time>2025-07-24T14:21:00.289Z</time>
      </trkpt>
      <trkpt lat="44.06926" lon="0.56674">
        <ele>186</ele>
        <time>2025-07-24T14:21:01.289Z</time>
      </trkpt>
      <trkpt lat="44.06925" lon="0.56675">
        <ele>186</ele>
        <time>2025-07-24T14:21:02.289Z</time>
      </trkpt>
      <trkpt lat="44.06924" lon="0.56676">
        <ele>186</ele>
        <time>2025-07-24T14:21:03.289Z</time>
      </trkpt>
      <trkpt lat="44.06923" lon="0.56677">
        <ele>186</ele>
        <time>2025-07-24T14:21:04.289Z</time>
      </trkpt>
      <trkpt lat="44.06922" lon="0.56678">
        <ele>186</ele>
        <time>2025-07-24T14:21:05.289Z</time>
      </trkpt>
      <trkpt lat="44.06921" lon="0.5668">
        <ele>186</ele>
        <time>2025-07-24T14:21:06.289Z</time>
      </trkpt>
      <trkpt lat="44.06919" lon="0.56681">
        <ele>187</ele>
        <time>2025-07-24T14:21:07.289Z</time>
      </trkpt>
      <trkpt lat="44.06918" lon="0.56682">
        <ele>186</ele>
        <time>2025-07-24T14:21:08.289Z</time>
      </trkpt>
      <trkpt lat="44.06917" lon="0.56683">
        <ele>186</ele>
        <time>2025-07-24T14:21:09.289Z</time>
      </trkpt>
      <trkpt lat="44.06916" lon="0.56684">
        <ele>186</ele>
        <time>2025-07-24T14:21:10.289Z</time>
      </trkpt>
      <trkpt lat="44.06915" lon="0.56685">
        <ele>186</ele>
        <time>2025-07-24T14:21:11.289Z</time>
      </trkpt>
      <trkpt lat="44.06914" lon="0.56685">
        <ele>185</ele>
        <time>2025-07-24T14:21:12.289Z</time>
      </trkpt>
      <trkpt lat="44.06913" lon="0.56686">
        <ele>185</ele>
        <time>2025-07-24T14:21:13.289Z</time>
      </trkpt>
      <trkpt lat="44.06912" lon="0.56687">
        <ele>186</ele>
        <time>2025-07-24T14:21:14.289Z</time>
      </trkpt>
      <trkpt lat="44.06911" lon="0.56688">
        <ele>186</ele>
        <time>2025-07-24T14:21:15.289Z</time>
      </trkpt>
      <trkpt lat="44.0691" lon="0.56689">
        <ele>186</ele>
        <time>2025-07-24T14:21:16.289Z</time>
      </trkpt>
      <trkpt lat="44.0691" lon="0.5669">
        <ele>186</ele>
        <time>2025-07-24T14:21:17.289Z</time>
      </trkpt>
      <trkpt lat="44.06909" lon="0.56691">
        <ele>186</ele>
        <time>2025-07-24T14:21:18.289Z</time>
      </trkpt>
      <trkpt lat="44.06907" lon="0.56692">
        <ele>186</ele>
        <time>2025-07-24T14:21:19.289Z</time>
      </trkpt>
      <trkpt lat="44.06906" lon="0.56693">
        <ele>186</ele>
        <time>2025-07-24T14:21:20.289Z</time>
      </trkpt>
      <trkpt lat="44.06905" lon="0.56694">
        <ele>186</ele>
        <time>2025-07-24T14:21:21.289Z</time>
      </trkpt>
      <trkpt lat="44.06904" lon="0.56695">
        <ele>187</ele>
        <time>2025-07-24T14:21:22.289Z</time>
      </trkpt>
      <trkpt lat="44.06903" lon="0.56695">
        <ele>187</ele>
        <time>2025-07-24T14:21:23.289Z</time>
      </trkpt>
      <trkpt lat="44.06902" lon="0.56696">
        <ele>187</ele>
        <time>2025-07-24T14:21:24.289Z</time>
      </trkpt>
      <trkpt lat="44.06901" lon="0.56697">
        <ele>187</ele>
        <time>2025-07-24T14:21:25.289Z</time>
      </trkpt>
      <trkpt lat="44.069" lon="0.56697">
        <ele>186</ele>
        <time>2025-07-24T14:21:26.289Z</time>
      </trkpt>
      <trkpt lat="44.06899" lon="0.56698">
        <ele>186</ele>
        <time>2025-07-24T14:21:27.289Z</time>
      </trkpt>
      <trkpt lat="44.06898" lon="0.56699">
        <ele>186</ele>
        <time>2025-07-24T14:21:28.289Z</time>
      </trkpt>
      <trkpt lat="44.06897" lon="0.567">
        <ele>186</ele>
        <time>2025-07-24T14:21:29.289Z</time>
      </trkpt>
      <trkpt lat="44.06896" lon="0.56701">
        <ele>187</ele>
        <time>2025-07-24T14:21:30.289Z</time>
      </trkpt>
      <trkpt lat="44.06895" lon="0.56703">
        <ele>187</ele>
        <time>2025-07-24T14:21:31.289Z</time>
      </trkpt>
      <trkpt lat="44.06894" lon="0.56704">
        <ele>187</ele>
        <time>2025-07-24T14:21:32.289Z</time>
      </trkpt>
      <trkpt lat="44.06894" lon="0.56705">
        <ele>187</ele>
        <time>2025-07-24T14:21:33.289Z</time>
      </trkpt>
      <trkpt lat="44.06893" lon="0.56706">
        <ele>187</ele>
        <time>2025-07-24T14:21:34.289Z</time>
      </trkpt>
      <trkpt lat="44.06892" lon="0.56707">
        <ele>187</ele>
        <time>2025-07-24T14:21:35.289Z</time>
      </trkpt>
      <trkpt lat="44.06891" lon="0.56708">
        <ele>187</ele>
        <time>2025-07-24T14:21:36.289Z</time>
      </trkpt>
      <trkpt lat="44.0689" lon="0.56709">
        <ele>188</ele>
        <time>2025-07-24T14:21:37.289Z</time>
      </trkpt>
      <trkpt lat="44.06888" lon="0.56709">
        <ele>188</ele>
        <time>2025-07-24T14:21:38.289Z</time>
      </trkpt>
      <trkpt lat="44.06888" lon="0.5671">
        <ele>188</ele>
        <time>2025-07-24T14:21:39.289Z</time>
      </trkpt>
      <trkpt lat="44.06887" lon="0.56711">
        <ele>189</ele>
        <time>2025-07-24T14:21:40.289Z</time>
      </trkpt>
      <trkpt lat="44.06886" lon="0.56712">
        <ele>189</ele>
        <time>2025-07-24T14:21:41.289Z</time>
      </trkpt>
      <trkpt lat="44.06885" lon="0.56713">
        <ele>189</ele>
        <time>2025-07-24T14:21:42.290Z</time>
      </trkpt>
      <trkpt lat="44.06884" lon="0.56713">
        <ele>189</ele>
        <time>2025-07-24T14:21:43.289Z</time>
      </trkpt>
      <trkpt lat="44.06883" lon="0.56714">
        <ele>189</ele>
        <time>2025-07-24T14:21:44.289Z</time>
      </trkpt>
      <trkpt lat="44.06882" lon="0.56715">
        <ele>188</ele>
        <time>2025-07-24T14:21:45.289Z</time>
      </trkpt>
      <trkpt lat="44.06881" lon="0.56716">
        <ele>188</ele>
        <time>2025-07-24T14:21:46.289Z</time>
      </trkpt>
      <trkpt lat="44.0688" lon="0.56717">
        <ele>189</ele>
        <time>2025-07-24T14:21:47.289Z</time>
      </trkpt>
      <trkpt lat="44.06879" lon="0.56718">
        <ele>189</ele>
        <time>2025-07-24T14:21:48.289Z</time>
      </trkpt>
      <trkpt lat="44.06878" lon="0.5672">
        <ele>189</ele>
        <time>2025-07-24T14:21:49.289Z</time>
      </trkpt>
      <trkpt lat="44.06877" lon="0.56721">
        <ele>189</ele>
        <time>2025-07-24T14:21:50.289Z</time>
      </trkpt>
      <trkpt lat="44.06877" lon="0.56722">
        <ele>189</ele>
        <time>2025-07-24T14:21:51.289Z</time>
      </trkpt>
      <trkpt lat="44.06875" lon="0.56723">
        <ele>189</ele>
        <time>2025-07-24T14:21:52.289Z</time>
      </trkpt>
      <trkpt lat="44.06874" lon="0.56724">
        <ele>189</ele>
        <time>2025-07-24T14:21:53.289Z</time>
      </trkpt>
      <trkpt lat="44.06873" lon="0.56725">
        <ele>189</ele>
        <time>2025-07-24T14:21:54.289Z</time>
      </trkpt>
      <trkpt lat="44.06872" lon="0.56726">
        <ele>189</ele>
        <time>2025-07-24T14:21:55.289Z</time>
      </trkpt>
      <trkpt lat="44.06871" lon="0.56727">
        <ele>189</ele>
        <time>2025-07-24T14:21:56.289Z</time>
      </trkpt>
      <trkpt lat="44.0687" lon="0.56728">
        <ele>189</ele>
        <time>2025-07-24T14:21:57.289Z</time>
      </trkpt>
      <trkpt lat="44.06869" lon="0.56728">
        <ele>189</ele>
        <time>2025-07-24T14:21:58.289Z</time>
      </trkpt>
      <trkpt lat="44.06868" lon="0.56729">
        <ele>189</ele>
        <time>2025-07-24T14:21:59.289Z</time>
      </trkpt>
      <trkpt lat="44.06867" lon="0.5673">
        <ele>189</ele>
        <time>2025-07-24T14:22:00.289Z</time>
      </trkpt>
      <trkpt lat="44.06866" lon="0.56731">
        <ele>189</ele>
        <time>2025-07-24T14:22:01.289Z</time>
      </trkpt>
      <trkpt lat="44.06865" lon="0.56732">
        <ele>189</ele>
        <time>2025-07-24T14:22:02.289Z</time>
      </trkpt>
      <trkpt lat="44.06864" lon="0.56732">
        <ele>189</ele>
        <time>2025-07-24T14:22:03.289Z</time>
      </trkpt>
      <trkpt lat="44.06863" lon="0.56733">
        <ele>188</ele>
        <time>2025-07-24T14:22:04.289Z</time>
      </trkpt>
      <trkpt lat="44.06862" lon="0.56734">
        <ele>188</ele>
        <time>2025-07-24T14:22:05.289Z</time>
      </trkpt>
      <trkpt lat="44.06861" lon="0.56734">
        <ele>188</ele>
        <time>2025-07-24T14:22:06.289Z</time>
      </trkpt>
      <trkpt lat="44.0686" lon="0.56735">
        <ele>188</ele>
        <time>2025-07-24T14:22:07.289Z</time>
      </trkpt>
      <trkpt lat="44.0686" lon="0.56736">
        <ele>187</ele>
        <time>2025-07-24T14:22:08.289Z</time>
      </trkpt>
      <trkpt lat="44.06859" lon="0.56738">
        <ele>187</ele>
        <time>2025-07-24T14:22:09.289Z</time>
      </trkpt>
      <trkpt lat="44.06858" lon="0.56738">
        <ele>187</ele>
        <time>2025-07-24T14:22:10.289Z</time>
      </trkpt>
      <trkpt lat="44.06857" lon="0.56739">
        <ele>187</ele>
        <time>2025-07-24T14:22:11.290Z</time>
      </trkpt>
      <trkpt lat="44.06856" lon="0.5674">
        <ele>187</ele>
        <time>2025-07-24T14:22:12.289Z</time>
      </trkpt>
      <trkpt lat="44.06855" lon="0.56741">
        <ele>187</ele>
        <time>2025-07-24T14:22:13.289Z</time>
      </trkpt>
      <trkpt lat="44.06854" lon="0.56742">
        <ele>187</ele>
        <time>2025-07-24T14:22:14.289Z</time>
      </trkpt>
      <trkpt lat="44.06853" lon="0.56743">
        <ele>187</ele>
        <time>2025-07-24T14:22:15.289Z</time>
      </trkpt>
      <trkpt lat="44.06852" lon="0.56744">
        <ele>187</ele>
        <time>2025-07-24T14:22:16.289Z</time>
      </trkpt>
      <trkpt lat="44.06851" lon="0.56745">
        <ele>187</ele>
        <time>2025-07-24T14:22:17.289Z</time>
      </trkpt>
      <trkpt lat="44.0685" lon="0.56746">
        <ele>187</ele>
        <time>2025-07-24T14:22:18.289Z</time>
      </trkpt>
      <trkpt lat="44.06848" lon="0.56747">
        <ele>187</ele>
        <time>2025-07-24T14:22:19.289Z</time>
      </trkpt>
      <trkpt lat="44.06847" lon="0.56748">
        <ele>188</ele>
        <time>2025-07-24T14:22:20.289Z</time>
      </trkpt>
      <trkpt lat="44.06846" lon="0.56749">
        <ele>188</ele>
        <time>2025-07-24T14:22:21.289Z</time>
      </trkpt>
      <trkpt lat="44.06846" lon="0.5675">
        <ele>188</ele>
        <time>2025-07-24T14:22:22.289Z</time>
      </trkpt>
      <trkpt lat="44.06845" lon="0.56751">
        <ele>188</ele>
        <time>2025-07-24T14:22:23.289Z</time>
      </trkpt>
      <trkpt lat="44.06844" lon="0.56752">
        <ele>188</ele>
        <time>2025-07-24T14:22:24.289Z</time>
      </trkpt>
      <trkpt lat="44.06843" lon="0.56753">
        <ele>188</ele>
        <time>2025-07-24T14:22:25.289Z</time>
      </trkpt>
      <trkpt lat="44.06842" lon="0.56754">
        <ele>188</ele>
        <time>2025-07-24T14:22:26.289Z</time>
      </trkpt>
      <trkpt lat="44.06841" lon="0.56755">
        <ele>188</ele>
        <time>2025-07-24T14:22:27.289Z</time>
      </trkpt>
      <trkpt lat="44.0684" lon="0.56756">
        <ele>188</ele>
        <time>2025-07-24T14:22:28.289Z</time>
      </trkpt>
      <trkpt lat="44.06839" lon="0.56757">
        <ele>188</ele>
        <time>2025-07-24T14:22:29.289Z</time>
      </trkpt>
      <trkpt lat="44.06838" lon="0.56758">
        <ele>187</ele>
        <time>2025-07-24T14:22:30.289Z</time>
      </trkpt>
      <trkpt lat="44.06836" lon="0.56759">
        <ele>187</ele>
        <time>2025-07-24T14:22:31.289Z</time>
      </trkpt>
      <trkpt lat="44.06835" lon="0.5676">
        <ele>187</ele>
        <time>2025-07-24T14:22:32.289Z</time>
      </trkpt>
      <trkpt lat="44.06834" lon="0.56761">
        <ele>188</ele>
        <time>2025-07-24T14:22:33.289Z</time>
      </trkpt>
      <trkpt lat="44.06833" lon="0.56762">
        <ele>188</ele>
        <time>2025-07-24T14:22:34.289Z</time>
      </trkpt>
      <trkpt lat="44.06832" lon="0.56762">
        <ele>188</ele>
        <time>2025-07-24T14:22:35.289Z</time>
      </trkpt>
      <trkpt lat="44.06831" lon="0.56763">
        <ele>188</ele>
        <time>2025-07-24T14:22:36.289Z</time>
      </trkpt>
      <trkpt lat="44.06831" lon="0.56764">
        <ele>188</ele>
        <time>2025-07-24T14:22:37.289Z</time>
      </trkpt>
      <trkpt lat="44.06829" lon="0.56765">
        <ele>188</ele>
        <time>2025-07-24T14:22:38.289Z</time>
      </trkpt>
      <trkpt lat="44.06828" lon="0.56766">
        <ele>188</ele>
        <time>2025-07-24T14:22:39.289Z</time>
      </trkpt>
      <trkpt lat="44.06827" lon="0.56767">
        <ele>188</ele>
        <time>2025-07-24T14:22:40.289Z</time>
      </trkpt>
      <trkpt lat="44.06826" lon="0.56768">
        <ele>188</ele>
        <time>2025-07-24T14:22:41.289Z</time>
      </trkpt>
      <trkpt lat="44.06825" lon="0.56769">
        <ele>188</ele>
        <time>2025-07-24T14:22:42.289Z</time>
      </trkpt>
      <trkpt lat="44.06824" lon="0.5677">
        <ele>188</ele>
        <time>2025-07-24T14:22:43.289Z</time>
      </trkpt>
      <trkpt lat="44.06823" lon="0.56771">
        <ele>189</ele>
        <time>2025-07-24T14:22:44.289Z</time>
      </trkpt>
      <trkpt lat="44.06822" lon="0.56772">
        <ele>189</ele>
        <time>2025-07-24T14:22:45.289Z</time>
      </trkpt>
      <trkpt lat="44.06821" lon="0.56773">
        <ele>189</ele>
        <time>2025-07-24T14:22:46.289Z</time>
      </trkpt>
      <trkpt lat="44.0682" lon="0.56774">
        <ele>189</ele>
        <time>2025-07-24T14:22:47.289Z</time>
      </trkpt>
      <trkpt lat="44.06819" lon="0.56775">
        <ele>189</ele>
        <time>2025-07-24T14:22:48.289Z</time>
      </trkpt>
      <trkpt lat="44.06818" lon="0.56776">
        <ele>189</ele>
        <time>2025-07-24T14:22:49.289Z</time>
      </trkpt>
      <trkpt lat="44.06817" lon="0.56777">
        <ele>188</ele>
        <time>2025-07-24T14:22:50.289Z</time>
      </trkpt>
      <trkpt lat="44.06816" lon="0.56777">
        <ele>188</ele>
        <time>2025-07-24T14:22:51.289Z</time>
      </trkpt>
      <trkpt lat="44.06815" lon="0.56778">
        <ele>188</ele>
        <time>2025-07-24T14:22:52.289Z</time>
      </trkpt>
      <trkpt lat="44.06814" lon="0.56779">
        <ele>188</ele>
        <time>2025-07-24T14:22:53.289Z</time>
      </trkpt>
      <trkpt lat="44.06813" lon="0.5678">
        <ele>188</ele>
        <time>2025-07-24T14:22:54.289Z</time>
      </trkpt>
      <trkpt lat="44.06812" lon="0.56781">
        <ele>188</ele>
        <time>2025-07-24T14:22:55.289Z</time>
      </trkpt>
      <trkpt lat="44.06811" lon="0.56782">
        <ele>188</ele>
        <time>2025-07-24T14:22:56.289Z</time>
      </trkpt>
      <trkpt lat="44.0681" lon="0.56783">
        <ele>189</ele>
        <time>2025-07-24T14:22:57.289Z</time>
      </trkpt>
      <trkpt lat="44.06809" lon="0.56784">
        <ele>189</ele>
        <time>2025-07-24T14:22:58.289Z</time>
      </trkpt>
      <trkpt lat="44.06808" lon="0.56785">
        <ele>189</ele>
        <time>2025-07-24T14:22:59.289Z</time>
      </trkpt>
      <trkpt lat="44.06807" lon="0.56786">
        <ele>189</ele>
        <time>2025-07-24T14:23:00.289Z</time>
      </trkpt>
      <trkpt lat="44.06806" lon="0.56787">
        <ele>189</ele>
        <time>2025-07-24T14:23:01.289Z</time>
      </trkpt>
      <trkpt lat="44.06805" lon="0.56787">
        <ele>188</ele>
        <time>2025-07-24T14:23:02.289Z</time>
      </trkpt>
      <trkpt lat="44.06804" lon="0.56788">
        <ele>188</ele>
        <time>2025-07-24T14:23:03.289Z</time>
      </trkpt>
      <trkpt lat="44.06802" lon="0.5679">
        <ele>188</ele>
        <time>2025-07-24T14:23:04.289Z</time>
      </trkpt>
      <trkpt lat="44.06801" lon="0.56791">
        <ele>188</ele>
        <time>2025-07-24T14:23:05.289Z</time>
      </trkpt>
      <trkpt lat="44.068" lon="0.56792">
        <ele>188</ele>
        <time>2025-07-24T14:23:06.289Z</time>
      </trkpt>
      <trkpt lat="44.06799" lon="0.56793">
        <ele>188</ele>
        <time>2025-07-24T14:23:07.289Z</time>
      </trkpt>
      <trkpt lat="44.06798" lon="0.56794">
        <ele>188</ele>
        <time>2025-07-24T14:23:08.289Z</time>
      </trkpt>
      <trkpt lat="44.06797" lon="0.56795">
        <ele>188</ele>
        <time>2025-07-24T14:23:09.289Z</time>
      </trkpt>
      <trkpt lat="44.06796" lon="0.56796">
        <ele>188</ele>
        <time>2025-07-24T14:23:10.289Z</time>
      </trkpt>
      <trkpt lat="44.06795" lon="0.56797">
        <ele>188</ele>
        <time>2025-07-24T14:23:11.289Z</time>
      </trkpt>
      <trkpt lat="44.06795" lon="0.56798">
        <ele>187</ele>
        <time>2025-07-24T14:23:12.289Z</time>
      </trkpt>
      <trkpt lat="44.06794" lon="0.56799">
        <ele>187</ele>
        <time>2025-07-24T14:23:13.289Z</time>
      </trkpt>
      <trkpt lat="44.06793" lon="0.568">
        <ele>187</ele>
        <time>2025-07-24T14:23:14.289Z</time>
      </trkpt>
      <trkpt lat="44.06792" lon="0.56801">
        <ele>187</ele>
        <time>2025-07-24T14:23:15.289Z</time>
      </trkpt>
      <trkpt lat="44.0679" lon="0.56802">
        <ele>187</ele>
        <time>2025-07-24T14:23:16.289Z</time>
      </trkpt>
      <trkpt lat="44.06789" lon="0.56803">
        <ele>187</ele>
        <time>2025-07-24T14:23:17.289Z</time>
      </trkpt>
      <trkpt lat="44.06788" lon="0.56804">
        <ele>187</ele>
        <time>2025-07-24T14:23:18.289Z</time>
      </trkpt>
      <trkpt lat="44.06787" lon="0.56805">
        <ele>187</ele>
        <time>2025-07-24T14:23:19.289Z</time>
      </trkpt>
      <trkpt lat="44.06786" lon="0.56806">
        <ele>187</ele>
        <time>2025-07-24T14:23:20.289Z</time>
      </trkpt>
      <trkpt lat="44.06785" lon="0.56807">
        <ele>188</ele>
        <time>2025-07-24T14:23:21.289Z</time>
      </trkpt>
      <trkpt lat="44.06784" lon="0.56807">
        <ele>188</ele>
        <time>2025-07-24T14:23:22.289Z</time>
      </trkpt>
      <trkpt lat="44.06784" lon="0.56808">
        <ele>188</ele>
        <time>2025-07-24T14:23:23.289Z</time>
      </trkpt>
      <trkpt lat="44.06783" lon="0.56809">
        <ele>187</ele>
        <time>2025-07-24T14:23:24.289Z</time>
      </trkpt>
      <trkpt lat="44.06782" lon="0.5681">
        <ele>188</ele>
        <time>2025-07-24T14:23:25.289Z</time>
      </trkpt>
      <trkpt lat="44.0678" lon="0.56811">
        <ele>187</ele>
        <time>2025-07-24T14:23:26.289Z</time>
      </trkpt>
      <trkpt lat="44.06779" lon="0.56812">
        <ele>187</ele>
        <time>2025-07-24T14:23:27.289Z</time>
      </trkpt>
      <trkpt lat="44.06778" lon="0.56812">
        <ele>187</ele>
        <time>2025-07-24T14:23:28.289Z</time>
      </trkpt>
      <trkpt lat="44.06777" lon="0.56813">
        <ele>187</ele>
        <time>2025-07-24T14:23:29.289Z</time>
      </trkpt>
      <trkpt lat="44.06776" lon="0.56814">
        <ele>186</ele>
        <time>2025-07-24T14:23:30.289Z</time>
      </trkpt>
      <trkpt lat="44.06775" lon="0.56815">
        <ele>186</ele>
        <time>2025-07-24T14:23:31.289Z</time>
      </trkpt>
      <trkpt lat="44.06774" lon="0.56816">
        <ele>186</ele>
        <time>2025-07-24T14:23:32.289Z</time>
      </trkpt>
      <trkpt lat="44.06774" lon="0.56816">
        <ele>186</ele>
        <time>2025-07-24T14:23:33.289Z</time>
      </trkpt>
      <trkpt lat="44.06773" lon="0.56816">
        <ele>186</ele>
        <time>2025-07-24T14:23:34.289Z</time>
      </trkpt>
      <trkpt lat="44.06773" lon="0.56817">
        <ele>185</ele>
        <time>2025-07-24T14:23:35.289Z</time>
      </trkpt>
      <trkpt lat="44.06772" lon="0.56817">
        <ele>185</ele>
        <time>2025-07-24T14:23:36.289Z</time>
      </trkpt>
      <trkpt lat="44.06772" lon="0.56817">
        <ele>185</ele>
        <time>2025-07-24T14:23:37.289Z</time>
      </trkpt>
      <trkpt lat="44.06772" lon="0.56817">
        <ele>185</ele>
        <time>2025-07-24T14:23:38.289Z</time>
      </trkpt>
      <trkpt lat="44.06772" lon="0.56817">
        <ele>185</ele>
        <time>2025-07-24T14:23:39.289Z</time>
      </trkpt>
      <trkpt lat="44.06772" lon="0.56817">
        <ele>185</ele>
        <time>2025-07-24T14:23:40.289Z</time>
      </trkpt>
      <trkpt lat="44.06772" lon="0.56817">
        <ele>185</ele>
        <time>2025-07-24T14:23:41.289Z</time>
      </trkpt>
      <trkpt lat="44.06772" lon="0.56817">
        <ele>185</ele>
        <time>2025-07-24T14:23:42.289Z</time>
      </trkpt>
      <trkpt lat="44.06772" lon="0.56817">
        <ele>185</ele>
        <time>2025-07-24T14:23:43.289Z</time>
      </trkpt>
      <trkpt lat="44.06772" lon="0.56817">
        <ele>185</ele>
        <time>2025-07-24T14:23:44.289Z</time>
      </trkpt>
      <trkpt lat="44.06771" lon="0.56818">
        <ele>185</ele>
        <time>2025-07-24T14:23:45.289Z</time>
      </trkpt>
      <trkpt lat="44.06771" lon="0.56818">
        <ele>185</ele>
        <time>2025-07-24T14:23:46.289Z</time>
      </trkpt>
      <trkpt lat="44.0677" lon="0.56819">
        <ele>185</ele>
        <time>2025-07-24T14:23:47.289Z</time>
      </trkpt>
      <trkpt lat="44.0677" lon="0.5682">
        <ele>185</ele>
        <time>2025-07-24T14:23:48.289Z</time>
      </trkpt>
      <trkpt lat="44.06769" lon="0.56821">
        <ele>184</ele>
        <time>2025-07-24T14:23:49.289Z</time>
      </trkpt>
      <trkpt lat="44.06768" lon="0.56821">
        <ele>184</ele>
        <time>2025-07-24T14:23:50.289Z</time>
      </trkpt>
      <trkpt lat="44.06767" lon="0.56822">
        <ele>185</ele>
        <time>2025-07-24T14:23:51.289Z</time>
      </trkpt>
      <trkpt lat="44.06766" lon="0.56823">
        <ele>185</ele>
        <time>2025-07-24T14:23:52.289Z</time>
      </trkpt>
      <trkpt lat="44.06765" lon="0.56823">
        <ele>185</ele>
        <time>2025-07-24T14:23:53.289Z</time>
      </trkpt>
      <trkpt lat="44.06764" lon="0.56824">
        <ele>185</ele>
        <time>2025-07-24T14:23:54.289Z</time>
      </trkpt>
      <trkpt lat="44.06763" lon="0.56825">
        <ele>185</ele>
        <time>2025-07-24T14:23:55.289Z</time>
      </trkpt>
      <trkpt lat="44.06762" lon="0.56826">
        <ele>185</ele>
        <time>2025-07-24T14:23:56.289Z</time>
      </trkpt>
      <trkpt lat="44.06761" lon="0.56827">
        <ele>185</ele>
        <time>2025-07-24T14:23:57.289Z</time>
      </trkpt>
      <trkpt lat="44.0676" lon="0.56828">
        <ele>186</ele>
        <time>2025-07-24T14:23:58.289Z</time>
      </trkpt>
      <trkpt lat="44.06758" lon="0.56828">
        <ele>186</ele>
        <time>2025-07-24T14:23:59.289Z</time>
      </trkpt>
      <trkpt lat="44.06757" lon="0.56828">
        <ele>186</ele>
        <time>2025-07-24T14:24:00.289Z</time>
      </trkpt>
      <trkpt lat="44.06756" lon="0.56829">
        <ele>186</ele>
        <time>2025-07-24T14:24:01.289Z</time>
      </trkpt>
      <trkpt lat="44.06755" lon="0.5683">
        <ele>186</ele>
        <time>2025-07-24T14:24:02.289Z</time>
      </trkpt>
      <trkpt lat="44.06754" lon="0.5683">
        <ele>185</ele>
        <time>2025-07-24T14:24:03.289Z</time>
      </trkpt>
      <trkpt lat="44.06753" lon="0.56831">
        <ele>185</ele>
        <time>2025-07-24T14:24:04.289Z</time>
      </trkpt>
      <trkpt lat="44.06752" lon="0.56831">
        <ele>185</ele>
        <time>2025-07-24T14:24:05.289Z</time>
      </trkpt>
      <trkpt lat="44.06751" lon="0.56832">
        <ele>185</ele>
        <time>2025-07-24T14:24:06.289Z</time>
      </trkpt>
      <trkpt lat="44.06749" lon="0.56833">
        <ele>185</ele>
        <time>2025-07-24T14:24:07.289Z</time>
      </trkpt>
      <trkpt lat="44.06748" lon="0.56834">
        <ele>185</ele>
        <time>2025-07-24T14:24:08.289Z</time>
      </trkpt>
      <trkpt lat="44.06747" lon="0.56834">
        <ele>184</ele>
        <time>2025-07-24T14:24:09.289Z</time>
      </trkpt>
      <trkpt lat="44.06746" lon="0.56835">
        <ele>184</ele>
        <time>2025-07-24T14:24:10.289Z</time>
      </trkpt>
      <trkpt lat="44.06745" lon="0.56836">
        <ele>184</ele>
        <time>2025-07-24T14:24:11.289Z</time>
      </trkpt>
      <trkpt lat="44.06743" lon="0.56837">
        <ele>184</ele>
        <time>2025-07-24T14:24:12.289Z</time>
      </trkpt>
      <trkpt lat="44.06742" lon="0.56837">
        <ele>184</ele>
        <time>2025-07-24T14:24:13.289Z</time>
      </trkpt>
      <trkpt lat="44.06741" lon="0.56838">
        <ele>184</ele>
        <time>2025-07-24T14:24:14.289Z</time>
      </trkpt>
      <trkpt lat="44.0674" lon="0.56838">
        <ele>184</ele>
        <time>2025-07-24T14:24:15.289Z</time>
      </trkpt>
      <trkpt lat="44.06739" lon="0.56839">
        <ele>184</ele>
        <time>2025-07-24T14:24:16.289Z</time>
      </trkpt>
      <trkpt lat="44.06738" lon="0.56839">
        <ele>184</ele>
        <time>2025-07-24T14:24:17.289Z</time>
      </trkpt>
      <trkpt lat="44.06736" lon="0.56839">
        <ele>184</ele>
        <time>2025-07-24T14:24:18.289Z</time>
      </trkpt>
      <trkpt lat="44.06735" lon="0.5684">
        <ele>183</ele>
        <time>2025-07-24T14:24:19.289Z</time>
      </trkpt>
      <trkpt lat="44.06734" lon="0.5684">
        <ele>183</ele>
        <time>2025-07-24T14:24:20.289Z</time>
      </trkpt>
      <trkpt lat="44.06732" lon="0.5684">
        <ele>183</ele>
        <time>2025-07-24T14:24:21.289Z</time>
      </trkpt>
      <trkpt lat="44.06731" lon="0.56841">
        <ele>183</ele>
        <time>2025-07-24T14:24:22.289Z</time>
      </trkpt>
      <trkpt lat="44.06729" lon="0.56841">
        <ele>183</ele>
        <time>2025-07-24T14:24:23.289Z</time>
      </trkpt>
      <trkpt lat="44.06728" lon="0.56842">
        <ele>183</ele>
        <time>2025-07-24T14:24:24.289Z</time>
      </trkpt>
      <trkpt lat="44.06727" lon="0.56842">
        <ele>183</ele>
        <time>2025-07-24T14:24:25.289Z</time>
      </trkpt>
      <trkpt lat="44.06725" lon="0.56842">
        <ele>183</ele>
        <time>2025-07-24T14:24:26.289Z</time>
      </trkpt>
      <trkpt lat="44.06724" lon="0.56843">
        <ele>184</ele>
        <time>2025-07-24T14:24:27.289Z</time>
      </trkpt>
      <trkpt lat="44.06723" lon="0.56843">
        <ele>184</ele>
        <time>2025-07-24T14:24:28.289Z</time>
      </trkpt>
      <trkpt lat="44.06722" lon="0.56843">
        <ele>184</ele>
        <time>2025-07-24T14:24:29.289Z</time>
      </trkpt>
      <trkpt lat="44.06721" lon="0.56843">
        <ele>184</ele>
        <time>2025-07-24T14:24:30.289Z</time>
      </trkpt>
      <trkpt lat="44.06719" lon="0.56844">
        <ele>184</ele>
        <time>2025-07-24T14:24:31.289Z</time>
      </trkpt>
      <trkpt lat="44.06718" lon="0.56844">
        <ele>184</ele>
        <time>2025-07-24T14:24:32.289Z</time>
      </trkpt>
      <trkpt lat="44.06717" lon="0.56844">
        <ele>185</ele>
        <time>2025-07-24T14:24:33.289Z</time>
      </trkpt>
      <trkpt lat="44.06715" lon="0.56844">
        <ele>185</ele>
        <time>2025-07-24T14:24:34.289Z</time>
      </trkpt>
      <trkpt lat="44.06714" lon="0.56845">
        <ele>185</ele>
        <time>2025-07-24T14:24:35.289Z</time>
      </trkpt>
      <trkpt lat="44.06712" lon="0.56845">
        <ele>184</ele>
        <time>2025-07-24T14:24:36.289Z</time>
      </trkpt>
      <trkpt lat="44.06711" lon="0.56845">
        <ele>184</ele>
        <time>2025-07-24T14:24:37.289Z</time>
      </trkpt>
      <trkpt lat="44.0671" lon="0.56846">
        <ele>184</ele>
        <time>2025-07-24T14:24:38.289Z</time>
      </trkpt>
      <trkpt lat="44.06708" lon="0.56846">
        <ele>184</ele>
        <time>2025-07-24T14:24:39.289Z</time>
      </trkpt>
      <trkpt lat="44.06707" lon="0.56847">
        <ele>184</ele>
        <time>2025-07-24T14:24:40.289Z</time>
      </trkpt>
      <trkpt lat="44.06706" lon="0.56847">
        <ele>185</ele>
        <time>2025-07-24T14:24:41.289Z</time>
      </trkpt>
      <trkpt lat="44.06705" lon="0.56847">
        <ele>185</ele>
        <time>2025-07-24T14:24:42.289Z</time>
      </trkpt>
      <trkpt lat="44.06704" lon="0.56847">
        <ele>184</ele>
        <time>2025-07-24T14:24:43.289Z</time>
      </trkpt>
      <trkpt lat="44.06702" lon="0.56847">
        <ele>184</ele>
        <time>2025-07-24T14:24:44.289Z</time>
      </trkpt>
      <trkpt lat="44.06701" lon="0.56847">
        <ele>184</ele>
        <time>2025-07-24T14:24:45.289Z</time>
      </trkpt>
      <trkpt lat="44.067" lon="0.56847">
        <ele>184</ele>
        <time>2025-07-24T14:24:46.289Z</time>
      </trkpt>
      <trkpt lat="44.06699" lon="0.56848">
        <ele>184</ele>
        <time>2025-07-24T14:24:47.289Z</time>
      </trkpt>
      <trkpt lat="44.06697" lon="0.56848">
        <ele>184</ele>
        <time>2025-07-24T14:24:48.289Z</time>
      </trkpt>
      <trkpt lat="44.06696" lon="0.56848">
        <ele>183</ele>
        <time>2025-07-24T14:24:49.289Z</time>
      </trkpt>
      <trkpt lat="44.06694" lon="0.56849">
        <ele>183</ele>
        <time>2025-07-24T14:24:50.289Z</time>
      </trkpt>
      <trkpt lat="44.06693" lon="0.56849">
        <ele>183</ele>
        <time>2025-07-24T14:24:51.289Z</time>
      </trkpt>
      <trkpt lat="44.06691" lon="0.56849">
        <ele>183</ele>
        <time>2025-07-24T14:24:52.289Z</time>
      </trkpt>
      <trkpt lat="44.0669" lon="0.56849">
        <ele>183</ele>
        <time>2025-07-24T14:24:53.289Z</time>
      </trkpt>
      <trkpt lat="44.06689" lon="0.56849">
        <ele>183</ele>
        <time>2025-07-24T14:24:54.289Z</time>
      </trkpt>
      <trkpt lat="44.06688" lon="0.5685">
        <ele>183</ele>
        <time>2025-07-24T14:24:55.289Z</time>
      </trkpt>
      <trkpt lat="44.06686" lon="0.5685">
        <ele>183</ele>
        <time>2025-07-24T14:24:56.289Z</time>
      </trkpt>
      <trkpt lat="44.06685" lon="0.5685">
        <ele>184</ele>
        <time>2025-07-24T14:24:57.289Z</time>
      </trkpt>
      <trkpt lat="44.06684" lon="0.5685">
        <ele>184</ele>
        <time>2025-07-24T14:24:58.289Z</time>
      </trkpt>
      <trkpt lat="44.06683" lon="0.56851">
        <ele>184</ele>
        <time>2025-07-24T14:24:59.289Z</time>
      </trkpt>
      <trkpt lat="44.06681" lon="0.56851">
        <ele>184</ele>
        <time>2025-07-24T14:25:00.289Z</time>
      </trkpt>
      <trkpt lat="44.0668" lon="0.56851">
        <ele>185</ele>
        <time>2025-07-24T14:25:01.289Z</time>
      </trkpt>
      <trkpt lat="44.06679" lon="0.56852">
        <ele>185</ele>
        <time>2025-07-24T14:25:02.289Z</time>
      </trkpt>
      <trkpt lat="44.06677" lon="0.56852">
        <ele>185</ele>
        <time>2025-07-24T14:25:03.289Z</time>
      </trkpt>
      <trkpt lat="44.06676" lon="0.56852">
        <ele>185</ele>
        <time>2025-07-24T14:25:04.289Z</time>
      </trkpt>
      <trkpt lat="44.06674" lon="0.56852">
        <ele>185</ele>
        <time>2025-07-24T14:25:05.289Z</time>
      </trkpt>
      <trkpt lat="44.06673" lon="0.56853">
        <ele>184</ele>
        <time>2025-07-24T14:25:06.289Z</time>
      </trkpt>
      <trkpt lat="44.06672" lon="0.56853">
        <ele>184</ele>
        <time>2025-07-24T14:25:07.289Z</time>
      </trkpt>
      <trkpt lat="44.06671" lon="0.56853">
        <ele>184</ele>
        <time>2025-07-24T14:25:08.289Z</time>
      </trkpt>
      <trkpt lat="44.0667" lon="0.56852">
        <ele>184</ele>
        <time>2025-07-24T14:25:09.289Z</time>
      </trkpt>
      <trkpt lat="44.06669" lon="0.56852">
        <ele>184</ele>
        <time>2025-07-24T14:25:10.289Z</time>
      </trkpt>
      <trkpt lat="44.06668" lon="0.56852">
        <ele>184</ele>
        <time>2025-07-24T14:25:11.289Z</time>
      </trkpt>
      <trkpt lat="44.06667" lon="0.56852">
        <ele>183</ele>
        <time>2025-07-24T14:25:12.289Z</time>
      </trkpt>
      <trkpt lat="44.06666" lon="0.56853">
        <ele>183</ele>
        <time>2025-07-24T14:25:13.289Z</time>
      </trkpt>
      <trkpt lat="44.06664" lon="0.56853">
        <ele>183</ele>
        <time>2025-07-24T14:25:14.289Z</time>
      </trkpt>
      <trkpt lat="44.06663" lon="0.56853">
        <ele>183</ele>
        <time>2025-07-24T14:25:15.289Z</time>
      </trkpt>
      <trkpt lat="44.06661" lon="0.56854">
        <ele>183</ele>
        <time>2025-07-24T14:25:16.289Z</time>
      </trkpt>
      <trkpt lat="44.0666" lon="0.56854">
        <ele>183</ele>
        <time>2025-07-24T14:25:17.289Z</time>
      </trkpt>
      <trkpt lat="44.06659" lon="0.56854">
        <ele>183</ele>
        <time>2025-07-24T14:25:18.289Z</time>
      </trkpt>
      <trkpt lat="44.06658" lon="0.56855">
        <ele>183</ele>
        <time>2025-07-24T14:25:19.289Z</time>
      </trkpt>
      <trkpt lat="44.06657" lon="0.56855">
        <ele>183</ele>
        <time>2025-07-24T14:25:20.289Z</time>
      </trkpt>
      <trkpt lat="44.06656" lon="0.56855">
        <ele>183</ele>
        <time>2025-07-24T14:25:21.289Z</time>
      </trkpt>
      <trkpt lat="44.06655" lon="0.56855">
        <ele>183</ele>
        <time>2025-07-24T14:25:22.289Z</time>
      </trkpt>
      <trkpt lat="44.06653" lon="0.56855">
        <ele>183</ele>
        <time>2025-07-24T14:25:23.289Z</time>
      </trkpt>
      <trkpt lat="44.06652" lon="0.56855">
        <ele>183</ele>
        <time>2025-07-24T14:25:24.289Z</time>
      </trkpt>
      <trkpt lat="44.06651" lon="0.56855">
        <ele>184</ele>
        <time>2025-07-24T14:25:25.289Z</time>
      </trkpt>
      <trkpt lat="44.06649" lon="0.56855">
        <ele>184</ele>
        <time>2025-07-24T14:25:26.289Z</time>
      </trkpt>
      <trkpt lat="44.06648" lon="0.56855">
        <ele>184</ele>
        <time>2025-07-24T14:25:27.289Z</time>
      </trkpt>
      <trkpt lat="44.06647" lon="0.56855">
        <ele>183</ele>
        <time>2025-07-24T14:25:28.289Z</time>
      </trkpt>
      <trkpt lat="44.06646" lon="0.56856">
        <ele>184</ele>
        <time>2025-07-24T14:25:29.289Z</time>
      </trkpt>
      <trkpt lat="44.06644" lon="0.56856">
        <ele>184</ele>
        <time>2025-07-24T14:25:30.289Z</time>
      </trkpt>
      <trkpt lat="44.06643" lon="0.56856">
        <ele>184</ele>
        <time>2025-07-24T14:25:31.289Z</time>
      </trkpt>
      <trkpt lat="44.06642" lon="0.56857">
        <ele>184</ele>
        <time>2025-07-24T14:25:32.290Z</time>
      </trkpt>
      <trkpt lat="44.06641" lon="0.56857">
        <ele>184</ele>
        <time>2025-07-24T14:25:33.289Z</time>
      </trkpt>
      <trkpt lat="44.0664" lon="0.56857">
        <ele>184</ele>
        <time>2025-07-24T14:25:34.289Z</time>
      </trkpt>
      <trkpt lat="44.06638" lon="0.56856">
        <ele>183</ele>
        <time>2025-07-24T14:25:35.289Z</time>
      </trkpt>
      <trkpt lat="44.06637" lon="0.56857">
        <ele>183</ele>
        <time>2025-07-24T14:25:36.289Z</time>
      </trkpt>
      <trkpt lat="44.06636" lon="0.56857">
        <ele>183</ele>
        <time>2025-07-24T14:25:37.289Z</time>
      </trkpt>
      <trkpt lat="44.06635" lon="0.56857">
        <ele>183</ele>
        <time>2025-07-24T14:25:38.289Z</time>
      </trkpt>
      <trkpt lat="44.06633" lon="0.56857">
        <ele>183</ele>
        <time>2025-07-24T14:25:39.289Z</time>
      </trkpt>
      <trkpt lat="44.06632" lon="0.56857">
        <ele>183</ele>
        <time>2025-07-24T14:25:40.289Z</time>
      </trkpt>
      <trkpt lat="44.06631" lon="0.56857">
        <ele>182</ele>
        <time>2025-07-24T14:25:41.289Z</time>
      </trkpt>
      <trkpt lat="44.0663" lon="0.56857">
        <ele>182</ele>
        <time>2025-07-24T14:25:42.289Z</time>
      </trkpt>
      <trkpt lat="44.06629" lon="0.56857">
        <ele>182</ele>
        <time>2025-07-24T14:25:43.289Z</time>
      </trkpt>
      <trkpt lat="44.06627" lon="0.56857">
        <ele>182</ele>
        <time>2025-07-24T14:25:44.289Z</time>
      </trkpt>
      <trkpt lat="44.06626" lon="0.56856">
        <ele>182</ele>
        <time>2025-07-24T14:25:45.289Z</time>
      </trkpt>
      <trkpt lat="44.06625" lon="0.56857">
        <ele>182</ele>
        <time>2025-07-24T14:25:46.289Z</time>
      </trkpt>
      <trkpt lat="44.06624" lon="0.56857">
        <ele>182</ele>
        <time>2025-07-24T14:25:47.289Z</time>
      </trkpt>
      <trkpt lat="44.06622" lon="0.56858">
        <ele>182</ele>
        <time>2025-07-24T14:25:48.289Z</time>
      </trkpt>
      <trkpt lat="44.06621" lon="0.56858">
        <ele>182</ele>
        <time>2025-07-24T14:25:49.289Z</time>
      </trkpt>
      <trkpt lat="44.0662" lon="0.56858">
        <ele>182</ele>
        <time>2025-07-24T14:25:50.289Z</time>
      </trkpt>
      <trkpt lat="44.06619" lon="0.56858">
        <ele>182</ele>
        <time>2025-07-24T14:25:51.289Z</time>
      </trkpt>
      <trkpt lat="44.06618" lon="0.56858">
        <ele>182</ele>
        <time>2025-07-24T14:25:52.289Z</time>
      </trkpt>
      <trkpt lat="44.06616" lon="0.56858">
        <ele>182</ele>
        <time>2025-07-24T14:25:53.289Z</time>
      </trkpt>
      <trkpt lat="44.06615" lon="0.56858">
        <ele>182</ele>
        <time>2025-07-24T14:25:54.289Z</time>
      </trkpt>
      <trkpt lat="44.06614" lon="0.56858">
        <ele>182</ele>
        <time>2025-07-24T14:25:55.289Z</time>
      </trkpt>
      <trkpt lat="44.06613" lon="0.56858">
        <ele>182</ele>
        <time>2025-07-24T14:25:56.289Z</time>
      </trkpt>
      <trkpt lat="44.06612" lon="0.56859">
        <ele>182</ele>
        <time>2025-07-24T14:25:57.289Z</time>
      </trkpt>
      <trkpt lat="44.0661" lon="0.56859">
        <ele>182</ele>
        <time>2025-07-24T14:25:58.289Z</time>
      </trkpt>
      <trkpt lat="44.06609" lon="0.5686">
        <ele>182</ele>
        <time>2025-07-24T14:25:59.289Z</time>
      </trkpt>
      <trkpt lat="44.06608" lon="0.5686">
        <ele>183</ele>
        <time>2025-07-24T14:26:00.289Z</time>
      </trkpt>
      <trkpt lat="44.06606" lon="0.5686">
        <ele>183</ele>
        <time>2025-07-24T14:26:01.289Z</time>
      </trkpt>
      <trkpt lat="44.06605" lon="0.5686">
        <ele>183</ele>
        <time>2025-07-24T14:26:02.289Z</time>
      </trkpt>
      <trkpt lat="44.06604" lon="0.56861">
        <ele>183</ele>
        <time>2025-07-24T14:26:03.289Z</time>
      </trkpt>
      <trkpt lat="44.06603" lon="0.56861">
        <ele>183</ele>
        <time>2025-07-24T14:26:04.289Z</time>
      </trkpt>
      <trkpt lat="44.06602" lon="0.5686">
        <ele>183</ele>
        <time>2025-07-24T14:26:05.289Z</time>
      </trkpt>
      <trkpt lat="44.06601" lon="0.56861">
        <ele>183</ele>
        <time>2025-07-24T14:26:06.289Z</time>
      </trkpt>
      <trkpt lat="44.066" lon="0.56861">
        <ele>183</ele>
        <time>2025-07-24T14:26:07.289Z</time>
      </trkpt>
      <trkpt lat="44.06598" lon="0.56861">
        <ele>183</ele>
        <time>2025-07-24T14:26:08.289Z</time>
      </trkpt>
      <trkpt lat="44.06597" lon="0.56861">
        <ele>184</ele>
        <time>2025-07-24T14:26:09.289Z</time>
      </trkpt>
      <trkpt lat="44.06595" lon="0.56861">
        <ele>184</ele>
        <time>2025-07-24T14:26:10.289Z</time>
      </trkpt>
      <trkpt lat="44.06594" lon="0.56862">
        <ele>185</ele>
        <time>2025-07-24T14:26:11.289Z</time>
      </trkpt>
      <trkpt lat="44.06593" lon="0.56862">
        <ele>185</ele>
        <time>2025-07-24T14:26:12.289Z</time>
      </trkpt>
      <trkpt lat="44.06592" lon="0.56863">
        <ele>185</ele>
        <time>2025-07-24T14:26:13.289Z</time>
      </trkpt>
      <trkpt lat="44.06591" lon="0.56863">
        <ele>185</ele>
        <time>2025-07-24T14:26:14.289Z</time>
      </trkpt>
      <trkpt lat="44.0659" lon="0.56863">
        <ele>185</ele>
        <time>2025-07-24T14:26:15.289Z</time>
      </trkpt>
      <trkpt lat="44.06589" lon="0.56863">
        <ele>185</ele>
        <time>2025-07-24T14:26:16.289Z</time>
      </trkpt>
      <trkpt lat="44.06588" lon="0.56864">
        <ele>185</ele>
        <time>2025-07-24T14:26:17.289Z</time>
      </trkpt>
      <trkpt lat="44.06587" lon="0.56864">
        <ele>185</ele>
        <time>2025-07-24T14:26:18.289Z</time>
      </trkpt>
      <trkpt lat="44.06586" lon="0.56866">
        <ele>185</ele>
        <time>2025-07-24T14:26:19.289Z</time>
      </trkpt>
      <trkpt lat="44.06584" lon="0.56867">
        <ele>185</ele>
        <time>2025-07-24T14:26:20.289Z</time>
      </trkpt>
      <trkpt lat="44.06583" lon="0.56867">
        <ele>185</ele>
        <time>2025-07-24T14:26:21.289Z</time>
      </trkpt>
      <trkpt lat="44.06582" lon="0.56868">
        <ele>185</ele>
        <time>2025-07-24T14:26:22.289Z</time>
      </trkpt>
      <trkpt lat="44.06581" lon="0.56868">
        <ele>185</ele>
        <time>2025-07-24T14:26:23.289Z</time>
      </trkpt>
      <trkpt lat="44.0658" lon="0.56868">
        <ele>185</ele>
        <time>2025-07-24T14:26:24.289Z</time>
      </trkpt>
      <trkpt lat="44.06579" lon="0.56868">
        <ele>185</ele>
        <time>2025-07-24T14:26:25.289Z</time>
      </trkpt>
      <trkpt lat="44.06578" lon="0.56868">
        <ele>184</ele>
        <time>2025-07-24T14:26:26.289Z</time>
      </trkpt>
      <trkpt lat="44.06576" lon="0.56868">
        <ele>184</ele>
        <time>2025-07-24T14:26:27.289Z</time>
      </trkpt>
      <trkpt lat="44.06575" lon="0.56868">
        <ele>184</ele>
        <time>2025-07-24T14:26:28.289Z</time>
      </trkpt>
      <trkpt lat="44.06574" lon="0.56869">
        <ele>184</ele>
        <time>2025-07-24T14:26:29.289Z</time>
      </trkpt>
      <trkpt lat="44.06573" lon="0.56869">
        <ele>184</ele>
        <time>2025-07-24T14:26:30.289Z</time>
      </trkpt>
      <trkpt lat="44.06572" lon="0.56868">
        <ele>184</ele>
        <time>2025-07-24T14:26:31.289Z</time>
      </trkpt>
      <trkpt lat="44.06571" lon="0.56869">
        <ele>184</ele>
        <time>2025-07-24T14:26:32.289Z</time>
      </trkpt>
      <trkpt lat="44.06571" lon="0.56869">
        <ele>184</ele>
        <time>2025-07-24T14:26:33.289Z</time>
      </trkpt>
      <trkpt lat="44.0657" lon="0.56869">
        <ele>184</ele>
        <time>2025-07-24T14:26:34.289Z</time>
      </trkpt>
      <trkpt lat="44.06569" lon="0.56869">
        <ele>184</ele>
        <time>2025-07-24T14:26:35.289Z</time>
      </trkpt>
      <trkpt lat="44.06569" lon="0.5687">
        <ele>184</ele>
        <time>2025-07-24T14:26:36.289Z</time>
      </trkpt>
      <trkpt lat="44.06568" lon="0.5687">
        <ele>183</ele>
        <time>2025-07-24T14:26:37.289Z</time>
      </trkpt>
      <trkpt lat="44.06567" lon="0.56871">
        <ele>183</ele>
        <time>2025-07-24T14:26:38.289Z</time>
      </trkpt>
      <trkpt lat="44.06566" lon="0.56872">
        <ele>183</ele>
        <time>2025-07-24T14:26:39.289Z</time>
      </trkpt>
      <trkpt lat="44.06565" lon="0.56874">
        <ele>183</ele>
        <time>2025-07-24T14:26:40.289Z</time>
      </trkpt>
      <trkpt lat="44.06565" lon="0.56875">
        <ele>183</ele>
        <time>2025-07-24T14:26:41.289Z</time>
      </trkpt>
      <trkpt lat="44.06565" lon="0.56876">
        <ele>183</ele>
        <time>2025-07-24T14:26:42.289Z</time>
      </trkpt>
      <trkpt lat="44.06564" lon="0.56878">
        <ele>182</ele>
        <time>2025-07-24T14:26:43.289Z</time>
      </trkpt>
      <trkpt lat="44.06564" lon="0.56879">
        <ele>182</ele>
        <time>2025-07-24T14:26:44.289Z</time>
      </trkpt>
      <trkpt lat="44.06563" lon="0.56881">
        <ele>182</ele>
        <time>2025-07-24T14:26:45.289Z</time>
      </trkpt>
      <trkpt lat="44.06563" lon="0.56882">
        <ele>183</ele>
        <time>2025-07-24T14:26:46.289Z</time>
      </trkpt>
      <trkpt lat="44.06563" lon="0.56884">
        <ele>183</ele>
        <time>2025-07-24T14:26:47.289Z</time>
      </trkpt>
      <trkpt lat="44.06562" lon="0.56885">
        <ele>183</ele>
        <time>2025-07-24T14:26:48.289Z</time>
      </trkpt>
      <trkpt lat="44.06562" lon="0.56886">
        <ele>183</ele>
        <time>2025-07-24T14:26:49.289Z</time>
      </trkpt>
      <trkpt lat="44.06561" lon="0.56888">
        <ele>183</ele>
        <time>2025-07-24T14:26:50.289Z</time>
      </trkpt>
      <trkpt lat="44.06561" lon="0.56889">
        <ele>183</ele>
        <time>2025-07-24T14:26:51.289Z</time>
      </trkpt>
      <trkpt lat="44.0656" lon="0.56891">
        <ele>183</ele>
        <time>2025-07-24T14:26:52.289Z</time>
      </trkpt>
      <trkpt lat="44.06559" lon="0.56892">
        <ele>183</ele>
        <time>2025-07-24T14:26:53.289Z</time>
      </trkpt>
      <trkpt lat="44.06559" lon="0.56894">
        <ele>183</ele>
        <time>2025-07-24T14:26:54.289Z</time>
      </trkpt>
      <trkpt lat="44.06558" lon="0.56895">
        <ele>183</ele>
        <time>2025-07-24T14:26:55.289Z</time>
      </trkpt>
      <trkpt lat="44.06558" lon="0.56897">
        <ele>183</ele>
        <time>2025-07-24T14:26:56.289Z</time>
      </trkpt>
      <trkpt lat="44.06557" lon="0.56898">
        <ele>183</ele>
        <time>2025-07-24T14:26:57.289Z</time>
      </trkpt>
      <trkpt lat="44.06556" lon="0.569">
        <ele>183</ele>
        <time>2025-07-24T14:26:58.289Z</time>
      </trkpt>
      <trkpt lat="44.06556" lon="0.56901">
        <ele>184</ele>
        <time>2025-07-24T14:26:59.289Z</time>
      </trkpt>
      <trkpt lat="44.06555" lon="0.56902">
        <ele>184</ele>
        <time>2025-07-24T14:27:00.289Z</time>
      </trkpt>
      <trkpt lat="44.06555" lon="0.56904">
        <ele>184</ele>
        <time>2025-07-24T14:27:01.289Z</time>
      </trkpt>
      <trkpt lat="44.06554" lon="0.56905">
        <ele>183</ele>
        <time>2025-07-24T14:27:02.289Z</time>
      </trkpt>
      <trkpt lat="44.06553" lon="0.56906">
        <ele>183</ele>
        <time>2025-07-24T14:27:03.289Z</time>
      </trkpt>
      <trkpt lat="44.06553" lon="0.56908">
        <ele>183</ele>
        <time>2025-07-24T14:27:04.289Z</time>
      </trkpt>
      <trkpt lat="44.06552" lon="0.56909">
        <ele>183</ele>
        <time>2025-07-24T14:27:05.289Z</time>
      </trkpt>
      <trkpt lat="44.06552" lon="0.56911">
        <ele>183</ele>
        <time>2025-07-24T14:27:06.289Z</time>
      </trkpt>
      <trkpt lat="44.06551" lon="0.56912">
        <ele>183</ele>
        <time>2025-07-24T14:27:07.289Z</time>
      </trkpt>
      <trkpt lat="44.0655" lon="0.56913">
        <ele>183</ele>
        <time>2025-07-24T14:27:08.289Z</time>
      </trkpt>
      <trkpt lat="44.0655" lon="0.56915">
        <ele>183</ele>
        <time>2025-07-24T14:27:09.289Z</time>
      </trkpt>
      <trkpt lat="44.06549" lon="0.56916">
        <ele>183</ele>
        <time>2025-07-24T14:27:10.289Z</time>
      </trkpt>
      <trkpt lat="44.06548" lon="0.56917">
        <ele>182</ele>
        <time>2025-07-24T14:27:11.289Z</time>
      </trkpt>
      <trkpt lat="44.06548" lon="0.56919">
        <ele>182</ele>
        <time>2025-07-24T14:27:12.289Z</time>
      </trkpt>
      <trkpt lat="44.06547" lon="0.5692">
        <ele>182</ele>
        <time>2025-07-24T14:27:13.289Z</time>
      </trkpt>
      <trkpt lat="44.06546" lon="0.56922">
        <ele>182</ele>
        <time>2025-07-24T14:27:14.289Z</time>
      </trkpt>
      <trkpt lat="44.06546" lon="0.56923">
        <ele>182</ele>
        <time>2025-07-24T14:27:15.289Z</time>
      </trkpt>
      <trkpt lat="44.06545" lon="0.56925">
        <ele>182</ele>
        <time>2025-07-24T14:27:16.289Z</time>
      </trkpt>
      <trkpt lat="44.06545" lon="0.56927">
        <ele>182</ele>
        <time>2025-07-24T14:27:17.289Z</time>
      </trkpt>
      <trkpt lat="44.06544" lon="0.56929">
        <ele>182</ele>
        <time>2025-07-24T14:27:18.289Z</time>
      </trkpt>
      <trkpt lat="44.06544" lon="0.5693">
        <ele>182</ele>
        <time>2025-07-24T14:27:19.289Z</time>
      </trkpt>
      <trkpt lat="44.06543" lon="0.56932">
        <ele>183</ele>
        <time>2025-07-24T14:27:20.289Z</time>
      </trkpt>
      <trkpt lat="44.06543" lon="0.56933">
        <ele>183</ele>
        <time>2025-07-24T14:27:21.289Z</time>
      </trkpt>
      <trkpt lat="44.06543" lon="0.56935">
        <ele>183</ele>
        <time>2025-07-24T14:27:22.289Z</time>
      </trkpt>
      <trkpt lat="44.06542" lon="0.56936">
        <ele>183</ele>
        <time>2025-07-24T14:27:23.289Z</time>
      </trkpt>
      <trkpt lat="44.06542" lon="0.56938">
        <ele>184</ele>
        <time>2025-07-24T14:27:24.289Z</time>
      </trkpt>
      <trkpt lat="44.06541" lon="0.56939">
        <ele>184</ele>
        <time>2025-07-24T14:27:25.289Z</time>
      </trkpt>
      <trkpt lat="44.06541" lon="0.56941">
        <ele>184</ele>
        <time>2025-07-24T14:27:26.289Z</time>
      </trkpt>
      <trkpt lat="44.0654" lon="0.56943">
        <ele>184</ele>
        <time>2025-07-24T14:27:27.289Z</time>
      </trkpt>
      <trkpt lat="44.0654" lon="0.56944">
        <ele>184</ele>
        <time>2025-07-24T14:27:28.289Z</time>
      </trkpt>
      <trkpt lat="44.06539" lon="0.56946">
        <ele>184</ele>
        <time>2025-07-24T14:27:29.289Z</time>
      </trkpt>
      <trkpt lat="44.06539" lon="0.56947">
        <ele>183</ele>
        <time>2025-07-24T14:27:30.289Z</time>
      </trkpt>
      <trkpt lat="44.06538" lon="0.56949">
        <ele>183</ele>
        <time>2025-07-24T14:27:31.289Z</time>
      </trkpt>
      <trkpt lat="44.06538" lon="0.5695">
        <ele>183</ele>
        <time>2025-07-24T14:27:32.289Z</time>
      </trkpt>
      <trkpt lat="44.06537" lon="0.56951">
        <ele>183</ele>
        <time>2025-07-24T14:27:33.289Z</time>
      </trkpt>
      <trkpt lat="44.06537" lon="0.56953">
        <ele>183</ele>
        <time>2025-07-24T14:27:34.289Z</time>
      </trkpt>
      <trkpt lat="44.06536" lon="0.56955">
        <ele>183</ele>
        <time>2025-07-24T14:27:35.289Z</time>
      </trkpt>
      <trkpt lat="44.06536" lon="0.56956">
        <ele>183</ele>
        <time>2025-07-24T14:27:36.289Z</time>
      </trkpt>
      <trkpt lat="44.06535" lon="0.56958">
        <ele>182</ele>
        <time>2025-07-24T14:27:37.289Z</time>
      </trkpt>
      <trkpt lat="44.06535" lon="0.56959">
        <ele>182</ele>
        <time>2025-07-24T14:27:38.289Z</time>
      </trkpt>
      <trkpt lat="44.06535" lon="0.56961">
        <ele>182</ele>
        <time>2025-07-24T14:27:39.289Z</time>
      </trkpt>
      <trkpt lat="44.06534" lon="0.56962">
        <ele>182</ele>
        <time>2025-07-24T14:27:40.289Z</time>
      </trkpt>
      <trkpt lat="44.06534" lon="0.56964">
        <ele>183</ele>
        <time>2025-07-24T14:27:41.289Z</time>
      </trkpt>
      <trkpt lat="44.06533" lon="0.56965">
        <ele>182</ele>
        <time>2025-07-24T14:27:42.289Z</time>
      </trkpt>
      <trkpt lat="44.06533" lon="0.56967">
        <ele>182</ele>
        <time>2025-07-24T14:27:43.289Z</time>
      </trkpt>
      <trkpt lat="44.06532" lon="0.56968">
        <ele>182</ele>
        <time>2025-07-24T14:27:44.289Z</time>
      </trkpt>
      <trkpt lat="44.06532" lon="0.5697">
        <ele>181</ele>
        <time>2025-07-24T14:27:45.289Z</time>
      </trkpt>
      <trkpt lat="44.06531" lon="0.56972">
        <ele>181</ele>
        <time>2025-07-24T14:27:46.289Z</time>
      </trkpt>
      <trkpt lat="44.06531" lon="0.56973">
        <ele>181</ele>
        <time>2025-07-24T14:27:47.289Z</time>
      </trkpt>
      <trkpt lat="44.0653" lon="0.56975">
        <ele>181</ele>
        <time>2025-07-24T14:27:48.289Z</time>
      </trkpt>
      <trkpt lat="44.0653" lon="0.56976">
        <ele>180</ele>
        <time>2025-07-24T14:27:49.289Z</time>
      </trkpt>
      <trkpt lat="44.0653" lon="0.56977">
        <ele>180</ele>
        <time>2025-07-24T14:27:50.290Z</time>
      </trkpt>
      <trkpt lat="44.0653" lon="0.56979">
        <ele>180</ele>
        <time>2025-07-24T14:27:51.289Z</time>
      </trkpt>
      <trkpt lat="44.0653" lon="0.5698">
        <ele>180</ele>
        <time>2025-07-24T14:27:52.289Z</time>
      </trkpt>
      <trkpt lat="44.0653" lon="0.56982">
        <ele>180</ele>
        <time>2025-07-24T14:27:53.289Z</time>
      </trkpt>
      <trkpt lat="44.0653" lon="0.56984">
        <ele>181</ele>
        <time>2025-07-24T14:27:54.289Z</time>
      </trkpt>
      <trkpt lat="44.0653" lon="0.56986">
        <ele>181</ele>
        <time>2025-07-24T14:27:55.289Z</time>
      </trkpt>
      <trkpt lat="44.06529" lon="0.56987">
        <ele>181</ele>
        <time>2025-07-24T14:27:56.289Z</time>
      </trkpt>
      <trkpt lat="44.06529" lon="0.56989">
        <ele>181</ele>
        <time>2025-07-24T14:27:57.289Z</time>
      </trkpt>
      <trkpt lat="44.06529" lon="0.5699">
        <ele>181</ele>
        <time>2025-07-24T14:27:58.289Z</time>
      </trkpt>
      <trkpt lat="44.06528" lon="0.56992">
        <ele>181</ele>
        <time>2025-07-24T14:27:59.289Z</time>
      </trkpt>
      <trkpt lat="44.06528" lon="0.56993">
        <ele>181</ele>
        <time>2025-07-24T14:28:00.289Z</time>
      </trkpt>
      <trkpt lat="44.06528" lon="0.56995">
        <ele>181</ele>
        <time>2025-07-24T14:28:01.289Z</time>
      </trkpt>
      <trkpt lat="44.06528" lon="0.56996">
        <ele>181</ele>
        <time>2025-07-24T14:28:02.289Z</time>
      </trkpt>
      <trkpt lat="44.06527" lon="0.56998">
        <ele>181</ele>
        <time>2025-07-24T14:28:03.289Z</time>
      </trkpt>
      <trkpt lat="44.06527" lon="0.56999">
        <ele>181</ele>
        <time>2025-07-24T14:28:04.289Z</time>
      </trkpt>
      <trkpt lat="44.06526" lon="0.57001">
        <ele>181</ele>
        <time>2025-07-24T14:28:05.289Z</time>
      </trkpt>
      <trkpt lat="44.06525" lon="0.57003">
        <ele>181</ele>
        <time>2025-07-24T14:28:06.289Z</time>
      </trkpt>
      <trkpt lat="44.06524" lon="0.57004">
        <ele>182</ele>
        <time>2025-07-24T14:28:07.289Z</time>
      </trkpt>
      <trkpt lat="44.06523" lon="0.57006">
        <ele>181</ele>
        <time>2025-07-24T14:28:08.289Z</time>
      </trkpt>
      <trkpt lat="44.06523" lon="0.57008">
        <ele>181</ele>
        <time>2025-07-24T14:28:09.289Z</time>
      </trkpt>
      <trkpt lat="44.06522" lon="0.5701">
        <ele>182</ele>
        <time>2025-07-24T14:28:10.289Z</time>
      </trkpt>
      <trkpt lat="44.06522" lon="0.57011">
        <ele>182</ele>
        <time>2025-07-24T14:28:11.289Z</time>
      </trkpt>
      <trkpt lat="44.06522" lon="0.57013">
        <ele>182</ele>
        <time>2025-07-24T14:28:12.289Z</time>
      </trkpt>
      <trkpt lat="44.06522" lon="0.57014">
        <ele>182</ele>
        <time>2025-07-24T14:28:13.289Z</time>
      </trkpt>
      <trkpt lat="44.06522" lon="0.57016">
        <ele>182</ele>
        <time>2025-07-24T14:28:14.289Z</time>
      </trkpt>
      <trkpt lat="44.06522" lon="0.57017">
        <ele>183</ele>
        <time>2025-07-24T14:28:15.289Z</time>
      </trkpt>
      <trkpt lat="44.06522" lon="0.57019">
        <ele>183</ele>
        <time>2025-07-24T14:28:16.289Z</time>
      </trkpt>
      <trkpt lat="44.06521" lon="0.57021">
        <ele>183</ele>
        <time>2025-07-24T14:28:17.289Z</time>
      </trkpt>
      <trkpt lat="44.06521" lon="0.57022">
        <ele>184</ele>
        <time>2025-07-24T14:28:18.289Z</time>
      </trkpt>
      <trkpt lat="44.0652" lon="0.57024">
        <ele>184</ele>
        <time>2025-07-24T14:28:19.289Z</time>
      </trkpt>
      <trkpt lat="44.0652" lon="0.57025">
        <ele>184</ele>
        <time>2025-07-24T14:28:20.289Z</time>
      </trkpt>
      <trkpt lat="44.0652" lon="0.57026">
        <ele>184</ele>
        <time>2025-07-24T14:28:21.289Z</time>
      </trkpt>
      <trkpt lat="44.06519" lon="0.57027">
        <ele>183</ele>
        <time>2025-07-24T14:28:22.289Z</time>
      </trkpt>
      <trkpt lat="44.0652" lon="0.57028">
        <ele>183</ele>
        <time>2025-07-24T14:28:23.289Z</time>
      </trkpt>
      <trkpt lat="44.0652" lon="0.5703">
        <ele>183</ele>
        <time>2025-07-24T14:28:24.289Z</time>
      </trkpt>
      <trkpt lat="44.0652" lon="0.57031">
        <ele>183</ele>
        <time>2025-07-24T14:28:25.289Z</time>
      </trkpt>
      <trkpt lat="44.0652" lon="0.57032">
        <ele>182</ele>
        <time>2025-07-24T14:28:26.289Z</time>
      </trkpt>
      <trkpt lat="44.06521" lon="0.57034">
        <ele>182</ele>
        <time>2025-07-24T14:28:27.289Z</time>
      </trkpt>
      <trkpt lat="44.06521" lon="0.57036">
        <ele>182</ele>
        <time>2025-07-24T14:28:28.289Z</time>
      </trkpt>
      <trkpt lat="44.0652" lon="0.57037">
        <ele>182</ele>
        <time>2025-07-24T14:28:29.289Z</time>
      </trkpt>
      <trkpt lat="44.06519" lon="0.57038">
        <ele>182</ele>
        <time>2025-07-24T14:28:30.289Z</time>
      </trkpt>
      <trkpt lat="44.06519" lon="0.5704">
        <ele>182</ele>
        <time>2025-07-24T14:28:31.289Z</time>
      </trkpt>
      <trkpt lat="44.06518" lon="0.57041">
        <ele>183</ele>
        <time>2025-07-24T14:28:32.289Z</time>
      </trkpt>
      <trkpt lat="44.06517" lon="0.57043">
        <ele>183</ele>
        <time>2025-07-24T14:28:33.289Z</time>
      </trkpt>
      <trkpt lat="44.06516" lon="0.57044">
        <ele>183</ele>
        <time>2025-07-24T14:28:34.289Z</time>
      </trkpt>
      <trkpt lat="44.06515" lon="0.57046">
        <ele>183</ele>
        <time>2025-07-24T14:28:35.289Z</time>
      </trkpt>
      <trkpt lat="44.06514" lon="0.57047">
        <ele>183</ele>
        <time>2025-07-24T14:28:36.289Z</time>
      </trkpt>
      <trkpt lat="44.06513" lon="0.57048">
        <ele>183</ele>
        <time>2025-07-24T14:28:37.289Z</time>
      </trkpt>
      <trkpt lat="44.06513" lon="0.5705">
        <ele>183</ele>
        <time>2025-07-24T14:28:38.289Z</time>
      </trkpt>
      <trkpt lat="44.06512" lon="0.57052">
        <ele>183</ele>
        <time>2025-07-24T14:28:39.289Z</time>
      </trkpt>
      <trkpt lat="44.06512" lon="0.57053">
        <ele>183</ele>
        <time>2025-07-24T14:28:40.289Z</time>
      </trkpt>
      <trkpt lat="44.06512" lon="0.57055">
        <ele>183</ele>
        <time>2025-07-24T14:28:41.289Z</time>
      </trkpt>
      <trkpt lat="44.06512" lon="0.57056">
        <ele>183</ele>
        <time>2025-07-24T14:28:42.289Z</time>
      </trkpt>
      <trkpt lat="44.06512" lon="0.57058">
        <ele>183</ele>
        <time>2025-07-24T14:28:43.289Z</time>
      </trkpt>
      <trkpt lat="44.06512" lon="0.57059">
        <ele>183</ele>
        <time>2025-07-24T14:28:44.289Z</time>
      </trkpt>
      <trkpt lat="44.06511" lon="0.5706">
        <ele>183</ele>
        <time>2025-07-24T14:28:45.289Z</time>
      </trkpt>
      <trkpt lat="44.06511" lon="0.57062">
        <ele>183</ele>
        <time>2025-07-24T14:28:46.289Z</time>
      </trkpt>
      <trkpt lat="44.06511" lon="0.57063">
        <ele>184</ele>
        <time>2025-07-24T14:28:47.289Z</time>
      </trkpt>
      <trkpt lat="44.06511" lon="0.57065">
        <ele>184</ele>
        <time>2025-07-24T14:28:48.289Z</time>
      </trkpt>
      <trkpt lat="44.0651" lon="0.57066">
        <ele>184</ele>
        <time>2025-07-24T14:28:49.289Z</time>
      </trkpt>
      <trkpt lat="44.0651" lon="0.57068">
        <ele>184</ele>
        <time>2025-07-24T14:28:50.289Z</time>
      </trkpt>
      <trkpt lat="44.0651" lon="0.5707">
        <ele>184</ele>
        <time>2025-07-24T14:28:51.289Z</time>
      </trkpt>
      <trkpt lat="44.06509" lon="0.57071">
        <ele>184</ele>
        <time>2025-07-24T14:28:52.289Z</time>
      </trkpt>
      <trkpt lat="44.06509" lon="0.57073">
        <ele>184</ele>
        <time>2025-07-24T14:28:53.289Z</time>
      </trkpt>
      <trkpt lat="44.06509" lon="0.57074">
        <ele>184</ele>
        <time>2025-07-24T14:28:54.289Z</time>
      </trkpt>
      <trkpt lat="44.06509" lon="0.57075">
        <ele>184</ele>
        <time>2025-07-24T14:28:55.289Z</time>
      </trkpt>
      <trkpt lat="44.06509" lon="0.57077">
        <ele>184</ele>
        <time>2025-07-24T14:28:56.289Z</time>
      </trkpt>
      <trkpt lat="44.06509" lon="0.57078">
        <ele>184</ele>
        <time>2025-07-24T14:28:57.289Z</time>
      </trkpt>
      <trkpt lat="44.0651" lon="0.57079">
        <ele>184</ele>
        <time>2025-07-24T14:28:58.289Z</time>
      </trkpt>
      <trkpt lat="44.0651" lon="0.57081">
        <ele>184</ele>
        <time>2025-07-24T14:28:59.289Z</time>
      </trkpt>
      <trkpt lat="44.06511" lon="0.57082">
        <ele>184</ele>
        <time>2025-07-24T14:29:00.289Z</time>
      </trkpt>
      <trkpt lat="44.06512" lon="0.57083">
        <ele>184</ele>
        <time>2025-07-24T14:29:01.289Z</time>
      </trkpt>
      <trkpt lat="44.06513" lon="0.57084">
        <ele>183</ele>
        <time>2025-07-24T14:29:02.289Z</time>
      </trkpt>
      <trkpt lat="44.06514" lon="0.57084">
        <ele>183</ele>
        <time>2025-07-24T14:29:03.289Z</time>
      </trkpt>
      <trkpt lat="44.06515" lon="0.57084">
        <ele>182</ele>
        <time>2025-07-24T14:29:04.290Z</time>
      </trkpt>
      <trkpt lat="44.06516" lon="0.57085">
        <ele>182</ele>
        <time>2025-07-24T14:29:05.289Z</time>
      </trkpt>
      <trkpt lat="44.06516" lon="0.57086">
        <ele>182</ele>
        <time>2025-07-24T14:29:06.289Z</time>
      </trkpt>
      <trkpt lat="44.06517" lon="0.57086">
        <ele>182</ele>
        <time>2025-07-24T14:29:07.289Z</time>
      </trkpt>
      <trkpt lat="44.06518" lon="0.57087">
        <ele>182</ele>
        <time>2025-07-24T14:29:08.289Z</time>
      </trkpt>
      <trkpt lat="44.06519" lon="0.57087">
        <ele>181</ele>
        <time>2025-07-24T14:29:09.289Z</time>
      </trkpt>
      <trkpt lat="44.0652" lon="0.57088">
        <ele>181</ele>
        <time>2025-07-24T14:29:10.289Z</time>
      </trkpt>
      <trkpt lat="44.06521" lon="0.57089">
        <ele>181</ele>
        <time>2025-07-24T14:29:11.289Z</time>
      </trkpt>
      <trkpt lat="44.06523" lon="0.5709">
        <ele>181</ele>
        <time>2025-07-24T14:29:12.289Z</time>
      </trkpt>
      <trkpt lat="44.06524" lon="0.57091">
        <ele>181</ele>
        <time>2025-07-24T14:29:13.289Z</time>
      </trkpt>
      <trkpt lat="44.06525" lon="0.57092">
        <ele>181</ele>
        <time>2025-07-24T14:29:14.289Z</time>
      </trkpt>
      <trkpt lat="44.06525" lon="0.57092">
        <ele>181</ele>
        <time>2025-07-24T14:29:15.289Z</time>
      </trkpt>
      <trkpt lat="44.06526" lon="0.57093">
        <ele>180</ele>
        <time>2025-07-24T14:29:16.289Z</time>
      </trkpt>
      <trkpt lat="44.06527" lon="0.57094">
        <ele>180</ele>
        <time>2025-07-24T14:29:17.289Z</time>
      </trkpt>
      <trkpt lat="44.06528" lon="0.57094">
        <ele>180</ele>
        <time>2025-07-24T14:29:18.289Z</time>
      </trkpt>
      <trkpt lat="44.06529" lon="0.57095">
        <ele>179</ele>
        <time>2025-07-24T14:29:19.289Z</time>
      </trkpt>
      <trkpt lat="44.0653" lon="0.57096">
        <ele>179</ele>
        <time>2025-07-24T14:29:20.289Z</time>
      </trkpt>
      <trkpt lat="44.0653" lon="0.57097">
        <ele>179</ele>
        <time>2025-07-24T14:29:21.289Z</time>
      </trkpt>
      <trkpt lat="44.06532" lon="0.57098">
        <ele>179</ele>
        <time>2025-07-24T14:29:22.289Z</time>
      </trkpt>
      <trkpt lat="44.06533" lon="0.57099">
        <ele>178</ele>
        <time>2025-07-24T14:29:23.289Z</time>
      </trkpt>
      <trkpt lat="44.06534" lon="0.571">
        <ele>178</ele>
        <time>2025-07-24T14:29:24.289Z</time>
      </trkpt>
      <trkpt lat="44.06535" lon="0.57101">
        <ele>178</ele>
        <time>2025-07-24T14:29:25.289Z</time>
      </trkpt>
      <trkpt lat="44.06536" lon="0.57102">
        <ele>178</ele>
        <time>2025-07-24T14:29:26.289Z</time>
      </trkpt>
      <trkpt lat="44.06537" lon="0.57103">
        <ele>178</ele>
        <time>2025-07-24T14:29:27.289Z</time>
      </trkpt>
      <trkpt lat="44.06538" lon="0.57104">
        <ele>178</ele>
        <time>2025-07-24T14:29:28.289Z</time>
      </trkpt>
      <trkpt lat="44.06539" lon="0.57105">
        <ele>178</ele>
        <time>2025-07-24T14:29:29.289Z</time>
      </trkpt>
      <trkpt lat="44.0654" lon="0.57106">
        <ele>178</ele>
        <time>2025-07-24T14:29:30.289Z</time>
      </trkpt>
      <trkpt lat="44.06542" lon="0.57107">
        <ele>178</ele>
        <time>2025-07-24T14:29:31.289Z</time>
      </trkpt>
      <trkpt lat="44.06542" lon="0.57107">
        <ele>178</ele>
        <time>2025-07-24T14:29:32.289Z</time>
      </trkpt>
      <trkpt lat="44.06543" lon="0.57109">
        <ele>178</ele>
        <time>2025-07-24T14:29:33.289Z</time>
      </trkpt>
      <trkpt lat="44.06544" lon="0.5711">
        <ele>178</ele>
        <time>2025-07-24T14:29:34.289Z</time>
      </trkpt>
      <trkpt lat="44.06545" lon="0.57111">
        <ele>178</ele>
        <time>2025-07-24T14:29:35.289Z</time>
      </trkpt>
      <trkpt lat="44.06546" lon="0.57111">
        <ele>177</ele>
        <time>2025-07-24T14:29:36.289Z</time>
      </trkpt>
      <trkpt lat="44.06547" lon="0.57112">
        <ele>178</ele>
        <time>2025-07-24T14:29:37.289Z</time>
      </trkpt>
      <trkpt lat="44.06547" lon="0.57113">
        <ele>178</ele>
        <time>2025-07-24T14:29:38.289Z</time>
      </trkpt>
      <trkpt lat="44.06548" lon="0.57114">
        <ele>177</ele>
        <time>2025-07-24T14:29:39.289Z</time>
      </trkpt>
      <trkpt lat="44.06549" lon="0.57115">
        <ele>177</ele>
        <time>2025-07-24T14:29:40.289Z</time>
      </trkpt>
      <trkpt lat="44.0655" lon="0.57116">
        <ele>177</ele>
        <time>2025-07-24T14:29:41.289Z</time>
      </trkpt>
      <trkpt lat="44.06551" lon="0.57118">
        <ele>177</ele>
        <time>2025-07-24T14:29:42.289Z</time>
      </trkpt>
      <trkpt lat="44.06552" lon="0.57119">
        <ele>177</ele>
        <time>2025-07-24T14:29:43.289Z</time>
      </trkpt>
      <trkpt lat="44.06553" lon="0.5712">
        <ele>177</ele>
        <time>2025-07-24T14:29:44.289Z</time>
      </trkpt>
      <trkpt lat="44.06554" lon="0.57121">
        <ele>177</ele>
        <time>2025-07-24T14:29:45.289Z</time>
      </trkpt>
      <trkpt lat="44.06555" lon="0.57122">
        <ele>177</ele>
        <time>2025-07-24T14:29:46.289Z</time>
      </trkpt>
      <trkpt lat="44.06555" lon="0.57123">
        <ele>177</ele>
        <time>2025-07-24T14:29:47.289Z</time>
      </trkpt>
      <trkpt lat="44.06556" lon="0.57124">
        <ele>177</ele>
        <time>2025-07-24T14:29:48.289Z</time>
      </trkpt>
      <trkpt lat="44.06557" lon="0.57124">
        <ele>177</ele>
        <time>2025-07-24T14:29:49.289Z</time>
      </trkpt>
      <trkpt lat="44.06558" lon="0.57125">
        <ele>177</ele>
        <time>2025-07-24T14:29:50.289Z</time>
      </trkpt>
      <trkpt lat="44.06559" lon="0.57126">
        <ele>178</ele>
        <time>2025-07-24T14:29:51.289Z</time>
      </trkpt>
      <trkpt lat="44.0656" lon="0.57127">
        <ele>178</ele>
        <time>2025-07-24T14:29:52.289Z</time>
      </trkpt>
      <trkpt lat="44.06561" lon="0.57128">
        <ele>178</ele>
        <time>2025-07-24T14:29:53.289Z</time>
      </trkpt>
      <trkpt lat="44.06562" lon="0.57129">
        <ele>178</ele>
        <time>2025-07-24T14:29:54.289Z</time>
      </trkpt>
      <trkpt lat="44.06563" lon="0.5713">
        <ele>178</ele>
        <time>2025-07-24T14:29:55.289Z</time>
      </trkpt>
      <trkpt lat="44.06563" lon="0.57131">
        <ele>177</ele>
        <time>2025-07-24T14:29:56.289Z</time>
      </trkpt>
      <trkpt lat="44.06564" lon="0.57131">
        <ele>177</ele>
        <time>2025-07-24T14:29:57.289Z</time>
      </trkpt>
      <trkpt lat="44.06565" lon="0.57132">
        <ele>177</ele>
        <time>2025-07-24T14:29:58.289Z</time>
      </trkpt>
      <trkpt lat="44.06566" lon="0.57133">
        <ele>177</ele>
        <time>2025-07-24T14:29:59.289Z</time>
      </trkpt>
      <trkpt lat="44.06567" lon="0.57134">
        <ele>177</ele>
        <time>2025-07-24T14:30:00.289Z</time>
      </trkpt>
      <trkpt lat="44.06568" lon="0.57136">
        <ele>177</ele>
        <time>2025-07-24T14:30:01.289Z</time>
      </trkpt>
      <trkpt lat="44.06569" lon="0.57137">
        <ele>177</ele>
        <time>2025-07-24T14:30:02.289Z</time>
      </trkpt>
      <trkpt lat="44.0657" lon="0.57138">
        <ele>177</ele>
        <time>2025-07-24T14:30:03.289Z</time>
      </trkpt>
      <trkpt lat="44.06571" lon="0.57139">
        <ele>177</ele>
        <time>2025-07-24T14:30:04.289Z</time>
      </trkpt>
      <trkpt lat="44.06572" lon="0.5714">
        <ele>177</ele>
        <time>2025-07-24T14:30:05.289Z</time>
      </trkpt>
      <trkpt lat="44.06573" lon="0.57141">
        <ele>177</ele>
        <time>2025-07-24T14:30:06.289Z</time>
      </trkpt>
      <trkpt lat="44.06574" lon="0.57142">
        <ele>177</ele>
        <time>2025-07-24T14:30:07.289Z</time>
      </trkpt>
      <trkpt lat="44.06575" lon="0.57143">
        <ele>177</ele>
        <time>2025-07-24T14:30:08.289Z</time>
      </trkpt>
      <trkpt lat="44.06576" lon="0.57144">
        <ele>177</ele>
        <time>2025-07-24T14:30:09.289Z</time>
      </trkpt>
      <trkpt lat="44.06577" lon="0.57145">
        <ele>177</ele>
        <time>2025-07-24T14:30:10.289Z</time>
      </trkpt>
      <trkpt lat="44.06578" lon="0.57146">
        <ele>177</ele>
        <time>2025-07-24T14:30:11.289Z</time>
      </trkpt>
      <trkpt lat="44.06579" lon="0.57147">
        <ele>177</ele>
        <time>2025-07-24T14:30:12.289Z</time>
      </trkpt>
      <trkpt lat="44.0658" lon="0.57148">
        <ele>178</ele>
        <time>2025-07-24T14:30:13.289Z</time>
      </trkpt>
      <trkpt lat="44.06581" lon="0.57149">
        <ele>178</ele>
        <time>2025-07-24T14:30:14.289Z</time>
      </trkpt>
      <trkpt lat="44.06581" lon="0.5715">
        <ele>178</ele>
        <time>2025-07-24T14:30:15.289Z</time>
      </trkpt>
      <trkpt lat="44.06582" lon="0.57151">
        <ele>178</ele>
        <time>2025-07-24T14:30:16.289Z</time>
      </trkpt>
      <trkpt lat="44.06584" lon="0.57153">
        <ele>178</ele>
        <time>2025-07-24T14:30:17.289Z</time>
      </trkpt>
      <trkpt lat="44.06584" lon="0.57153">
        <ele>178</ele>
        <time>2025-07-24T14:30:18.289Z</time>
      </trkpt>
      <trkpt lat="44.06585" lon="0.57154">
        <ele>178</ele>
        <time>2025-07-24T14:30:19.289Z</time>
      </trkpt>
      <trkpt lat="44.06586" lon="0.57155">
        <ele>178</ele>
        <time>2025-07-24T14:30:20.289Z</time>
      </trkpt>
      <trkpt lat="44.06587" lon="0.57156">
        <ele>178</ele>
        <time>2025-07-24T14:30:21.289Z</time>
      </trkpt>
      <trkpt lat="44.06588" lon="0.57157">
        <ele>178</ele>
        <time>2025-07-24T14:30:22.289Z</time>
      </trkpt>
      <trkpt lat="44.06589" lon="0.57158">
        <ele>178</ele>
        <time>2025-07-24T14:30:23.289Z</time>
      </trkpt>
      <trkpt lat="44.06589" lon="0.57159">
        <ele>178</ele>
        <time>2025-07-24T14:30:24.289Z</time>
      </trkpt>
      <trkpt lat="44.0659" lon="0.5716">
        <ele>178</ele>
        <time>2025-07-24T14:30:25.289Z</time>
      </trkpt>
      <trkpt lat="44.06591" lon="0.57161">
        <ele>177</ele>
        <time>2025-07-24T14:30:26.289Z</time>
      </trkpt>
      <trkpt lat="44.06592" lon="0.57162">
        <ele>177</ele>
        <time>2025-07-24T14:30:27.289Z</time>
      </trkpt>
      <trkpt lat="44.06593" lon="0.57164">
        <ele>176</ele>
        <time>2025-07-24T14:30:28.289Z</time>
      </trkpt>
      <trkpt lat="44.06593" lon="0.57165">
        <ele>175</ele>
        <time>2025-07-24T14:30:29.289Z</time>
      </trkpt>
      <trkpt lat="44.06594" lon="0.57166">
        <ele>175</ele>
        <time>2025-07-24T14:30:30.289Z</time>
      </trkpt>
      <trkpt lat="44.06595" lon="0.57167">
        <ele>174</ele>
        <time>2025-07-24T14:30:31.289Z</time>
      </trkpt>
      <trkpt lat="44.06595" lon="0.57168">
        <ele>174</ele>
        <time>2025-07-24T14:30:32.289Z</time>
      </trkpt>
      <trkpt lat="44.06596" lon="0.57169">
        <ele>174</ele>
        <time>2025-07-24T14:30:33.289Z</time>
      </trkpt>
      <trkpt lat="44.06597" lon="0.5717">
        <ele>173</ele>
        <time>2025-07-24T14:30:34.289Z</time>
      </trkpt>
      <trkpt lat="44.06598" lon="0.57171">
        <ele>173</ele>
        <time>2025-07-24T14:30:35.289Z</time>
      </trkpt>
      <trkpt lat="44.06598" lon="0.57172">
        <ele>173</ele>
        <time>2025-07-24T14:30:36.289Z</time>
      </trkpt>
      <trkpt lat="44.06599" lon="0.57173">
        <ele>172</ele>
        <time>2025-07-24T14:30:37.289Z</time>
      </trkpt>
      <trkpt lat="44.066" lon="0.57174">
        <ele>172</ele>
        <time>2025-07-24T14:30:38.289Z</time>
      </trkpt>
      <trkpt lat="44.06601" lon="0.57176">
        <ele>172</ele>
        <time>2025-07-24T14:30:39.289Z</time>
      </trkpt>
      <trkpt lat="44.06602" lon="0.57176">
        <ele>171</ele>
        <time>2025-07-24T14:30:40.289Z</time>
      </trkpt>
      <trkpt lat="44.06603" lon="0.57178">
        <ele>171</ele>
        <time>2025-07-24T14:30:41.289Z</time>
      </trkpt>
      <trkpt lat="44.06604" lon="0.57179">
        <ele>171</ele>
        <time>2025-07-24T14:30:42.289Z</time>
      </trkpt>
      <trkpt lat="44.06604" lon="0.5718">
        <ele>171</ele>
        <time>2025-07-24T14:30:43.289Z</time>
      </trkpt>
      <trkpt lat="44.06605" lon="0.5718">
        <ele>171</ele>
        <time>2025-07-24T14:30:44.289Z</time>
      </trkpt>
      <trkpt lat="44.06605" lon="0.57181">
        <ele>171</ele>
        <time>2025-07-24T14:30:45.289Z</time>
      </trkpt>
      <trkpt lat="44.06606" lon="0.57182">
        <ele>171</ele>
        <time>2025-07-24T14:30:46.289Z</time>
      </trkpt>
      <trkpt lat="44.06607" lon="0.57183">
        <ele>170</ele>
        <time>2025-07-24T14:30:47.289Z</time>
      </trkpt>
      <trkpt lat="44.06608" lon="0.57184">
        <ele>170</ele>
        <time>2025-07-24T14:30:48.289Z</time>
      </trkpt>
      <trkpt lat="44.06609" lon="0.57185">
        <ele>170</ele>
        <time>2025-07-24T14:30:49.289Z</time>
      </trkpt>
      <trkpt lat="44.0661" lon="0.57187">
        <ele>170</ele>
        <time>2025-07-24T14:30:50.289Z</time>
      </trkpt>
      <trkpt lat="44.06611" lon="0.57188">
        <ele>170</ele>
        <time>2025-07-24T14:30:51.289Z</time>
      </trkpt>
      <trkpt lat="44.06612" lon="0.57189">
        <ele>170</ele>
        <time>2025-07-24T14:30:52.289Z</time>
      </trkpt>
      <trkpt lat="44.06613" lon="0.57191">
        <ele>170</ele>
        <time>2025-07-24T14:30:53.289Z</time>
      </trkpt>
      <trkpt lat="44.06614" lon="0.57192">
        <ele>170</ele>
        <time>2025-07-24T14:30:54.289Z</time>
      </trkpt>
      <trkpt lat="44.06615" lon="0.57193">
        <ele>170</ele>
        <time>2025-07-24T14:30:55.289Z</time>
      </trkpt>
      <trkpt lat="44.06617" lon="0.57194">
        <ele>170</ele>
        <time>2025-07-24T14:30:56.289Z</time>
      </trkpt>
      <trkpt lat="44.06618" lon="0.57195">
        <ele>170</ele>
        <time>2025-07-24T14:30:57.289Z</time>
      </trkpt>
      <trkpt lat="44.06618" lon="0.57196">
        <ele>170</ele>
        <time>2025-07-24T14:30:58.289Z</time>
      </trkpt>
      <trkpt lat="44.06619" lon="0.57197">
        <ele>170</ele>
        <time>2025-07-24T14:30:59.289Z</time>
      </trkpt>
      <trkpt lat="44.06619" lon="0.57199">
        <ele>170</ele>
        <time>2025-07-24T14:31:00.289Z</time>
      </trkpt>
      <trkpt lat="44.0662" lon="0.572">
        <ele>170</ele>
        <time>2025-07-24T14:31:01.289Z</time>
      </trkpt>
      <trkpt lat="44.0662" lon="0.57202">
        <ele>169</ele>
        <time>2025-07-24T14:31:02.289Z</time>
      </trkpt>
      <trkpt lat="44.06621" lon="0.57203">
        <ele>169</ele>
        <time>2025-07-24T14:31:03.289Z</time>
      </trkpt>
      <trkpt lat="44.06622" lon="0.57205">
        <ele>169</ele>
        <time>2025-07-24T14:31:04.289Z</time>
      </trkpt>
      <trkpt lat="44.06622" lon="0.57206">
        <ele>168</ele>
        <time>2025-07-24T14:31:05.289Z</time>
      </trkpt>
      <trkpt lat="44.06623" lon="0.57208">
        <ele>168</ele>
        <time>2025-07-24T14:31:06.289Z</time>
      </trkpt>
      <trkpt lat="44.06624" lon="0.57209">
        <ele>168</ele>
        <time>2025-07-24T14:31:07.289Z</time>
      </trkpt>
      <trkpt lat="44.06624" lon="0.57209">
        <ele>168</ele>
        <time>2025-07-24T14:31:08.289Z</time>
      </trkpt>
      <trkpt lat="44.06625" lon="0.5721">
        <ele>169</ele>
        <time>2025-07-24T14:31:09.289Z</time>
      </trkpt>
      <trkpt lat="44.06625" lon="0.5721">
        <ele>169</ele>
        <time>2025-07-24T14:31:10.289Z</time>
      </trkpt>
      <trkpt lat="44.06625" lon="0.5721">
        <ele>169</ele>
        <time>2025-07-24T14:31:11.289Z</time>
      </trkpt>
      <trkpt lat="44.06625" lon="0.57211">
        <ele>169</ele>
        <time>2025-07-24T14:31:12.289Z</time>
      </trkpt>
      <trkpt lat="44.06625" lon="0.57211">
        <ele>169</ele>
        <time>2025-07-24T14:31:13.289Z</time>
      </trkpt>
      <trkpt lat="44.06625" lon="0.57211">
        <ele>169</ele>
        <time>2025-07-24T14:31:14.289Z</time>
      </trkpt>
      <trkpt lat="44.06625" lon="0.57211">
        <ele>169</ele>
        <time>2025-07-24T14:31:15.289Z</time>
      </trkpt>
      <trkpt lat="44.06625" lon="0.57211">
        <ele>169</ele>
        <time>2025-07-24T14:31:16.289Z</time>
      </trkpt>
      <trkpt lat="44.06625" lon="0.57211">
        <ele>170</ele>
        <time>2025-07-24T14:31:17.289Z</time>
      </trkpt>
      <trkpt lat="44.06625" lon="0.57211">
        <ele>170</ele>
        <time>2025-07-24T14:31:18.289Z</time>
      </trkpt>
      <trkpt lat="44.06625" lon="0.57211">
        <ele>170</ele>
        <time>2025-07-24T14:31:19.289Z</time>
      </trkpt>
      <trkpt lat="44.06625" lon="0.57211">
        <ele>170</ele>
        <time>2025-07-24T14:31:20.289Z</time>
      </trkpt>
      <trkpt lat="44.06625" lon="0.57211">
        <ele>170</ele>
        <time>2025-07-24T14:31:21.289Z</time>
      </trkpt>
      <trkpt lat="44.06625" lon="0.57211">
        <ele>170</ele>
        <time>2025-07-24T14:31:22.289Z</time>
      </trkpt>
      <trkpt lat="44.06625" lon="0.57211">
        <ele>169</ele>
        <time>2025-07-24T14:31:23.289Z</time>
      </trkpt>
      <trkpt lat="44.06625" lon="0.5721">
        <ele>169</ele>
        <time>2025-07-24T14:31:24.289Z</time>
      </trkpt>
      <trkpt lat="44.06625" lon="0.5721">
        <ele>169</ele>
        <time>2025-07-24T14:31:25.289Z</time>
      </trkpt>
      <trkpt lat="44.06625" lon="0.5721">
        <ele>169</ele>
        <time>2025-07-24T14:31:26.289Z</time>
      </trkpt>
      <trkpt lat="44.06625" lon="0.5721">
        <ele>168</ele>
        <time>2025-07-24T14:31:27.289Z</time>
      </trkpt>
      <trkpt lat="44.06625" lon="0.5721">
        <ele>168</ele>
        <time>2025-07-24T14:31:28.289Z</time>
      </trkpt>
      <trkpt lat="44.06625" lon="0.57211">
        <ele>168</ele>
        <time>2025-07-24T14:31:29.289Z</time>
      </trkpt>
      <trkpt lat="44.06625" lon="0.57211">
        <ele>168</ele>
        <time>2025-07-24T14:31:30.289Z</time>
      </trkpt>
      <trkpt lat="44.06625" lon="0.57212">
        <ele>168</ele>
        <time>2025-07-24T14:31:31.289Z</time>
      </trkpt>
      <trkpt lat="44.06625" lon="0.57213">
        <ele>168</ele>
        <time>2025-07-24T14:31:32.289Z</time>
      </trkpt>
      <trkpt lat="44.06626" lon="0.57215">
        <ele>168</ele>
        <time>2025-07-24T14:31:33.289Z</time>
      </trkpt>
      <trkpt lat="44.06626" lon="0.57216">
        <ele>169</ele>
        <time>2025-07-24T14:31:34.289Z</time>
      </trkpt>
      <trkpt lat="44.06626" lon="0.57217">
        <ele>169</ele>
        <time>2025-07-24T14:31:35.289Z</time>
      </trkpt>
      <trkpt lat="44.06626" lon="0.57218">
        <ele>169</ele>
        <time>2025-07-24T14:31:36.289Z</time>
      </trkpt>
      <trkpt lat="44.06626" lon="0.57219">
        <ele>169</ele>
        <time>2025-07-24T14:31:37.289Z</time>
      </trkpt>
      <trkpt lat="44.06627" lon="0.57221">
        <ele>169</ele>
        <time>2025-07-24T14:31:38.289Z</time>
      </trkpt>
      <trkpt lat="44.06627" lon="0.57222">
        <ele>169</ele>
        <time>2025-07-24T14:31:39.289Z</time>
      </trkpt>
      <trkpt lat="44.06627" lon="0.57224">
        <ele>168</ele>
        <time>2025-07-24T14:31:40.289Z</time>
      </trkpt>
      <trkpt lat="44.06628" lon="0.57226">
        <ele>168</ele>
        <time>2025-07-24T14:31:41.289Z</time>
      </trkpt>
      <trkpt lat="44.06628" lon="0.57228">
        <ele>168</ele>
        <time>2025-07-24T14:31:42.289Z</time>
      </trkpt>
      <trkpt lat="44.06629" lon="0.57229">
        <ele>168</ele>
        <time>2025-07-24T14:31:43.289Z</time>
      </trkpt>
      <trkpt lat="44.06629" lon="0.5723">
        <ele>168</ele>
        <time>2025-07-24T14:31:44.289Z</time>
      </trkpt>
      <trkpt lat="44.06629" lon="0.57232">
        <ele>167</ele>
        <time>2025-07-24T14:31:45.289Z</time>
      </trkpt>
      <trkpt lat="44.06629" lon="0.57233">
        <ele>167</ele>
        <time>2025-07-24T14:31:46.289Z</time>
      </trkpt>
      <trkpt lat="44.0663" lon="0.57234">
        <ele>167</ele>
        <time>2025-07-24T14:31:47.289Z</time>
      </trkpt>
      <trkpt lat="44.0663" lon="0.57236">
        <ele>167</ele>
        <time>2025-07-24T14:31:48.289Z</time>
      </trkpt>
      <trkpt lat="44.0663" lon="0.57237">
        <ele>167</ele>
        <time>2025-07-24T14:31:49.289Z</time>
      </trkpt>
      <trkpt lat="44.0663" lon="0.57239">
        <ele>167</ele>
        <time>2025-07-24T14:31:50.289Z</time>
      </trkpt>
      <trkpt lat="44.06631" lon="0.57241">
        <ele>167</ele>
        <time>2025-07-24T14:31:51.289Z</time>
      </trkpt>
      <trkpt lat="44.06631" lon="0.57242">
        <ele>168</ele>
        <time>2025-07-24T14:31:52.289Z</time>
      </trkpt>
      <trkpt lat="44.06631" lon="0.57244">
        <ele>168</ele>
        <time>2025-07-24T14:31:53.289Z</time>
      </trkpt>
      <trkpt lat="44.06631" lon="0.57246">
        <ele>168</ele>
        <time>2025-07-24T14:31:54.289Z</time>
      </trkpt>
      <trkpt lat="44.06631" lon="0.57247">
        <ele>169</ele>
        <time>2025-07-24T14:31:55.289Z</time>
      </trkpt>
      <trkpt lat="44.06631" lon="0.57248">
        <ele>169</ele>
        <time>2025-07-24T14:31:56.289Z</time>
      </trkpt>
      <trkpt lat="44.06631" lon="0.5725">
        <ele>169</ele>
        <time>2025-07-24T14:31:57.289Z</time>
      </trkpt>
      <trkpt lat="44.06632" lon="0.57251">
        <ele>169</ele>
        <time>2025-07-24T14:31:58.289Z</time>
      </trkpt>
      <trkpt lat="44.06632" lon="0.57253">
        <ele>169</ele>
        <time>2025-07-24T14:31:59.289Z</time>
      </trkpt>
      <trkpt lat="44.06632" lon="0.57255">
        <ele>169</ele>
        <time>2025-07-24T14:32:00.289Z</time>
      </trkpt>
      <trkpt lat="44.06633" lon="0.57256">
        <ele>169</ele>
        <time>2025-07-24T14:32:01.289Z</time>
      </trkpt>
      <trkpt lat="44.06633" lon="0.57258">
        <ele>169</ele>
        <time>2025-07-24T14:32:02.289Z</time>
      </trkpt>
      <trkpt lat="44.06633" lon="0.5726">
        <ele>169</ele>
        <time>2025-07-24T14:32:03.289Z</time>
      </trkpt>
      <trkpt lat="44.06634" lon="0.57262">
        <ele>169</ele>
        <time>2025-07-24T14:32:04.289Z</time>
      </trkpt>
      <trkpt lat="44.06634" lon="0.57264">
        <ele>169</ele>
        <time>2025-07-24T14:32:05.289Z</time>
      </trkpt>
      <trkpt lat="44.06634" lon="0.57265">
        <ele>169</ele>
        <time>2025-07-24T14:32:06.289Z</time>
      </trkpt>
      <trkpt lat="44.06634" lon="0.57267">
        <ele>169</ele>
        <time>2025-07-24T14:32:07.289Z</time>
      </trkpt>
      <trkpt lat="44.06634" lon="0.57268">
        <ele>169</ele>
        <time>2025-07-24T14:32:08.289Z</time>
      </trkpt>
      <trkpt lat="44.06634" lon="0.5727">
        <ele>169</ele>
        <time>2025-07-24T14:32:09.289Z</time>
      </trkpt>
      <trkpt lat="44.06634" lon="0.57271">
        <ele>169</ele>
        <time>2025-07-24T14:32:10.289Z</time>
      </trkpt>
      <trkpt lat="44.06634" lon="0.57272">
        <ele>169</ele>
        <time>2025-07-24T14:32:11.289Z</time>
      </trkpt>
      <trkpt lat="44.06634" lon="0.57274">
        <ele>169</ele>
        <time>2025-07-24T14:32:12.289Z</time>
      </trkpt>
      <trkpt lat="44.06634" lon="0.57276">
        <ele>169</ele>
        <time>2025-07-24T14:32:13.289Z</time>
      </trkpt>
      <trkpt lat="44.06634" lon="0.57278">
        <ele>168</ele>
        <time>2025-07-24T14:32:14.289Z</time>
      </trkpt>
      <trkpt lat="44.06635" lon="0.5728">
        <ele>168</ele>
        <time>2025-07-24T14:32:15.289Z</time>
      </trkpt>
      <trkpt lat="44.06635" lon="0.57282">
        <ele>169</ele>
        <time>2025-07-24T14:32:16.289Z</time>
      </trkpt>
      <trkpt lat="44.06635" lon="0.57283">
        <ele>168</ele>
        <time>2025-07-24T14:32:17.289Z</time>
      </trkpt>
      <trkpt lat="44.06635" lon="0.57285">
        <ele>168</ele>
        <time>2025-07-24T14:32:18.289Z</time>
      </trkpt>
      <trkpt lat="44.06635" lon="0.57287">
        <ele>169</ele>
        <time>2025-07-24T14:32:19.289Z</time>
      </trkpt>
      <trkpt lat="44.06635" lon="0.57289">
        <ele>169</ele>
        <time>2025-07-24T14:32:20.289Z</time>
      </trkpt>
      <trkpt lat="44.06636" lon="0.5729">
        <ele>169</ele>
        <time>2025-07-24T14:32:21.289Z</time>
      </trkpt>
      <trkpt lat="44.06636" lon="0.57292">
        <ele>169</ele>
        <time>2025-07-24T14:32:22.289Z</time>
      </trkpt>
      <trkpt lat="44.06636" lon="0.57293">
        <ele>169</ele>
        <time>2025-07-24T14:32:23.289Z</time>
      </trkpt>
      <trkpt lat="44.06635" lon="0.57295">
        <ele>169</ele>
        <time>2025-07-24T14:32:24.289Z</time>
      </trkpt>
      <trkpt lat="44.06635" lon="0.57296">
        <ele>169</ele>
        <time>2025-07-24T14:32:25.289Z</time>
      </trkpt>
      <trkpt lat="44.06635" lon="0.57298">
        <ele>168</ele>
        <time>2025-07-24T14:32:26.289Z</time>
      </trkpt>
      <trkpt lat="44.06635" lon="0.573">
        <ele>168</ele>
        <time>2025-07-24T14:32:27.289Z</time>
      </trkpt>
      <trkpt lat="44.06635" lon="0.57302">
        <ele>168</ele>
        <time>2025-07-24T14:32:28.289Z</time>
      </trkpt>
      <trkpt lat="44.06635" lon="0.57304">
        <ele>167</ele>
        <time>2025-07-24T14:32:29.289Z</time>
      </trkpt>
      <trkpt lat="44.06635" lon="0.57306">
        <ele>167</ele>
        <time>2025-07-24T14:32:30.289Z</time>
      </trkpt>
      <trkpt lat="44.06635" lon="0.57308">
        <ele>167</ele>
        <time>2025-07-24T14:32:31.289Z</time>
      </trkpt>
      <trkpt lat="44.06635" lon="0.5731">
        <ele>167</ele>
        <time>2025-07-24T14:32:32.289Z</time>
      </trkpt>
      <trkpt lat="44.06635" lon="0.57312">
        <ele>167</ele>
        <time>2025-07-24T14:32:33.289Z</time>
      </trkpt>
      <trkpt lat="44.06635" lon="0.57314">
        <ele>167</ele>
        <time>2025-07-24T14:32:34.289Z</time>
      </trkpt>
      <trkpt lat="44.06635" lon="0.57316">
        <ele>167</ele>
        <time>2025-07-24T14:32:35.289Z</time>
      </trkpt>
      <trkpt lat="44.06635" lon="0.57318">
        <ele>168</ele>
        <time>2025-07-24T14:32:36.289Z</time>
      </trkpt>
      <trkpt lat="44.06635" lon="0.57319">
        <ele>168</ele>
        <time>2025-07-24T14:32:37.289Z</time>
      </trkpt>
      <trkpt lat="44.06635" lon="0.57321">
        <ele>168</ele>
        <time>2025-07-24T14:32:38.289Z</time>
      </trkpt>
      <trkpt lat="44.06635" lon="0.57322">
        <ele>168</ele>
        <time>2025-07-24T14:32:39.289Z</time>
      </trkpt>
      <trkpt lat="44.06635" lon="0.57324">
        <ele>168</ele>
        <time>2025-07-24T14:32:40.289Z</time>
      </trkpt>
      <trkpt lat="44.06635" lon="0.57326">
        <ele>168</ele>
        <time>2025-07-24T14:32:41.289Z</time>
      </trkpt>
      <trkpt lat="44.06635" lon="0.57327">
        <ele>168</ele>
        <time>2025-07-24T14:32:42.289Z</time>
      </trkpt>
      <trkpt lat="44.06635" lon="0.57329">
        <ele>168</ele>
        <time>2025-07-24T14:32:43.289Z</time>
      </trkpt>
      <trkpt lat="44.06635" lon="0.57331">
        <ele>168</ele>
        <time>2025-07-24T14:32:44.289Z</time>
      </trkpt>
      <trkpt lat="44.06634" lon="0.57333">
        <ele>168</ele>
        <time>2025-07-24T14:32:45.289Z</time>
      </trkpt>
      <trkpt lat="44.06634" lon="0.57335">
        <ele>168</ele>
        <time>2025-07-24T14:32:46.289Z</time>
      </trkpt>
      <trkpt lat="44.06634" lon="0.57337">
        <ele>167</ele>
        <time>2025-07-24T14:32:47.289Z</time>
      </trkpt>
      <trkpt lat="44.06634" lon="0.57339">
        <ele>167</ele>
        <time>2025-07-24T14:32:48.290Z</time>
      </trkpt>
      <trkpt lat="44.06634" lon="0.5734">
        <ele>167</ele>
        <time>2025-07-24T14:32:49.289Z</time>
      </trkpt>
      <trkpt lat="44.06634" lon="0.57342">
        <ele>167</ele>
        <time>2025-07-24T14:32:50.289Z</time>
      </trkpt>
      <trkpt lat="44.06634" lon="0.57343">
        <ele>167</ele>
        <time>2025-07-24T14:32:51.289Z</time>
      </trkpt>
      <trkpt lat="44.06635" lon="0.57345">
        <ele>167</ele>
        <time>2025-07-24T14:32:52.289Z</time>
      </trkpt>
      <trkpt lat="44.06635" lon="0.57347">
        <ele>167</ele>
        <time>2025-07-24T14:32:53.289Z</time>
      </trkpt>
      <trkpt lat="44.06635" lon="0.57348">
        <ele>167</ele>
        <time>2025-07-24T14:32:54.289Z</time>
      </trkpt>
      <trkpt lat="44.06635" lon="0.5735">
        <ele>167</ele>
        <time>2025-07-24T14:32:55.289Z</time>
      </trkpt>
      <trkpt lat="44.06635" lon="0.57352">
        <ele>167</ele>
        <time>2025-07-24T14:32:56.289Z</time>
      </trkpt>
      <trkpt lat="44.06635" lon="0.57354">
        <ele>167</ele>
        <time>2025-07-24T14:32:57.289Z</time>
      </trkpt>
      <trkpt lat="44.06635" lon="0.57356">
        <ele>167</ele>
        <time>2025-07-24T14:32:58.289Z</time>
      </trkpt>
      <trkpt lat="44.06635" lon="0.57357">
        <ele>167</ele>
        <time>2025-07-24T14:32:59.289Z</time>
      </trkpt>
      <trkpt lat="44.06634" lon="0.57359">
        <ele>166</ele>
        <time>2025-07-24T14:33:00.289Z</time>
      </trkpt>
      <trkpt lat="44.06634" lon="0.57361">
        <ele>166</ele>
        <time>2025-07-24T14:33:01.289Z</time>
      </trkpt>
      <trkpt lat="44.06634" lon="0.57363">
        <ele>166</ele>
        <time>2025-07-24T14:33:02.289Z</time>
      </trkpt>
      <trkpt lat="44.06634" lon="0.57364">
        <ele>166</ele>
        <time>2025-07-24T14:33:03.289Z</time>
      </trkpt>
      <trkpt lat="44.06634" lon="0.57366">
        <ele>166</ele>
        <time>2025-07-24T14:33:04.289Z</time>
      </trkpt>
      <trkpt lat="44.06634" lon="0.57367">
        <ele>166</ele>
        <time>2025-07-24T14:33:05.289Z</time>
      </trkpt>
      <trkpt lat="44.06634" lon="0.57369">
        <ele>166</ele>
        <time>2025-07-24T14:33:06.289Z</time>
      </trkpt>
      <trkpt lat="44.06634" lon="0.5737">
        <ele>166</ele>
        <time>2025-07-24T14:33:07.289Z</time>
      </trkpt>
      <trkpt lat="44.06634" lon="0.57372">
        <ele>166</ele>
        <time>2025-07-24T14:33:08.289Z</time>
      </trkpt>
      <trkpt lat="44.06634" lon="0.57373">
        <ele>166</ele>
        <time>2025-07-24T14:33:09.289Z</time>
      </trkpt>
      <trkpt lat="44.06634" lon="0.57376">
        <ele>166</ele>
        <time>2025-07-24T14:33:10.289Z</time>
      </trkpt>
      <trkpt lat="44.06634" lon="0.57377">
        <ele>166</ele>
        <time>2025-07-24T14:33:11.289Z</time>
      </trkpt>
      <trkpt lat="44.06634" lon="0.57379">
        <ele>166</ele>
        <time>2025-07-24T14:33:12.289Z</time>
      </trkpt>
      <trkpt lat="44.06634" lon="0.57381">
        <ele>166</ele>
        <time>2025-07-24T14:33:13.289Z</time>
      </trkpt>
      <trkpt lat="44.06634" lon="0.57383">
        <ele>166</ele>
        <time>2025-07-24T14:33:14.289Z</time>
      </trkpt>
      <trkpt lat="44.06634" lon="0.57385">
        <ele>166</ele>
        <time>2025-07-24T14:33:15.289Z</time>
      </trkpt>
      <trkpt lat="44.06634" lon="0.57386">
        <ele>166</ele>
        <time>2025-07-24T14:33:16.289Z</time>
      </trkpt>
      <trkpt lat="44.06633" lon="0.57387">
        <ele>166</ele>
        <time>2025-07-24T14:33:17.289Z</time>
      </trkpt>
      <trkpt lat="44.06633" lon="0.57389">
        <ele>166</ele>
        <time>2025-07-24T14:33:18.289Z</time>
      </trkpt>
      <trkpt lat="44.06633" lon="0.57391">
        <ele>166</ele>
        <time>2025-07-24T14:33:19.289Z</time>
      </trkpt>
      <trkpt lat="44.06633" lon="0.57393">
        <ele>166</ele>
        <time>2025-07-24T14:33:20.289Z</time>
      </trkpt>
      <trkpt lat="44.06633" lon="0.57394">
        <ele>166</ele>
        <time>2025-07-24T14:33:21.289Z</time>
      </trkpt>
      <trkpt lat="44.06633" lon="0.57397">
        <ele>166</ele>
        <time>2025-07-24T14:33:22.289Z</time>
      </trkpt>
      <trkpt lat="44.06634" lon="0.57399">
        <ele>167</ele>
        <time>2025-07-24T14:33:23.289Z</time>
      </trkpt>
      <trkpt lat="44.06634" lon="0.57401">
        <ele>167</ele>
        <time>2025-07-24T14:33:24.289Z</time>
      </trkpt>
      <trkpt lat="44.06634" lon="0.57402">
        <ele>167</ele>
        <time>2025-07-24T14:33:25.289Z</time>
      </trkpt>
      <trkpt lat="44.06634" lon="0.57404">
        <ele>167</ele>
        <time>2025-07-24T14:33:26.289Z</time>
      </trkpt>
      <trkpt lat="44.06634" lon="0.57405">
        <ele>167</ele>
        <time>2025-07-24T14:33:27.289Z</time>
      </trkpt>
      <trkpt lat="44.06634" lon="0.57407">
        <ele>166</ele>
        <time>2025-07-24T14:33:28.289Z</time>
      </trkpt>
      <trkpt lat="44.06634" lon="0.57408">
        <ele>166</ele>
        <time>2025-07-24T14:33:29.289Z</time>
      </trkpt>
      <trkpt lat="44.06634" lon="0.5741">
        <ele>166</ele>
        <time>2025-07-24T14:33:30.289Z</time>
      </trkpt>
      <trkpt lat="44.06634" lon="0.57411">
        <ele>165</ele>
        <time>2025-07-24T14:33:31.289Z</time>
      </trkpt>
      <trkpt lat="44.06634" lon="0.57413">
        <ele>165</ele>
        <time>2025-07-24T14:33:32.289Z</time>
      </trkpt>
      <trkpt lat="44.06634" lon="0.57415">
        <ele>165</ele>
        <time>2025-07-24T14:33:33.289Z</time>
      </trkpt>
      <trkpt lat="44.06634" lon="0.57417">
        <ele>164</ele>
        <time>2025-07-24T14:33:34.289Z</time>
      </trkpt>
      <trkpt lat="44.06634" lon="0.57418">
        <ele>164</ele>
        <time>2025-07-24T14:33:35.289Z</time>
      </trkpt>
      <trkpt lat="44.06634" lon="0.5742">
        <ele>164</ele>
        <time>2025-07-24T14:33:36.289Z</time>
      </trkpt>
      <trkpt lat="44.06634" lon="0.57421">
        <ele>164</ele>
        <time>2025-07-24T14:33:37.289Z</time>
      </trkpt>
      <trkpt lat="44.06634" lon="0.57423">
        <ele>163</ele>
        <time>2025-07-24T14:33:38.289Z</time>
      </trkpt>
      <trkpt lat="44.06634" lon="0.57425">
        <ele>163</ele>
        <time>2025-07-24T14:33:39.289Z</time>
      </trkpt>
      <trkpt lat="44.06634" lon="0.57426">
        <ele>163</ele>
        <time>2025-07-24T14:33:40.289Z</time>
      </trkpt>
      <trkpt lat="44.06634" lon="0.57428">
        <ele>163</ele>
        <time>2025-07-24T14:33:41.289Z</time>
      </trkpt>
      <trkpt lat="44.06634" lon="0.57429">
        <ele>162</ele>
        <time>2025-07-24T14:33:42.289Z</time>
      </trkpt>
      <trkpt lat="44.06634" lon="0.57431">
        <ele>162</ele>
        <time>2025-07-24T14:33:43.289Z</time>
      </trkpt>
      <trkpt lat="44.06634" lon="0.57433">
        <ele>162</ele>
        <time>2025-07-24T14:33:44.289Z</time>
      </trkpt>
      <trkpt lat="44.06634" lon="0.57435">
        <ele>162</ele>
        <time>2025-07-24T14:33:45.289Z</time>
      </trkpt>
      <trkpt lat="44.06635" lon="0.57437">
        <ele>162</ele>
        <time>2025-07-24T14:33:46.289Z</time>
      </trkpt>
      <trkpt lat="44.06635" lon="0.57438">
        <ele>162</ele>
        <time>2025-07-24T14:33:47.289Z</time>
      </trkpt>
      <trkpt lat="44.06635" lon="0.5744">
        <ele>162</ele>
        <time>2025-07-24T14:33:48.289Z</time>
      </trkpt>
      <trkpt lat="44.06635" lon="0.57441">
        <ele>162</ele>
        <time>2025-07-24T14:33:49.289Z</time>
      </trkpt>
      <trkpt lat="44.06636" lon="0.57443">
        <ele>162</ele>
        <time>2025-07-24T14:33:50.289Z</time>
      </trkpt>
      <trkpt lat="44.06636" lon="0.57445">
        <ele>162</ele>
        <time>2025-07-24T14:33:51.289Z</time>
      </trkpt>
      <trkpt lat="44.06636" lon="0.57446">
        <ele>163</ele>
        <time>2025-07-24T14:33:52.289Z</time>
      </trkpt>
      <trkpt lat="44.06637" lon="0.57447">
        <ele>163</ele>
        <time>2025-07-24T14:33:53.289Z</time>
      </trkpt>
      <trkpt lat="44.06638" lon="0.57449">
        <ele>163</ele>
        <time>2025-07-24T14:33:54.289Z</time>
      </trkpt>
      <trkpt lat="44.06638" lon="0.57451">
        <ele>163</ele>
        <time>2025-07-24T14:33:55.289Z</time>
      </trkpt>
      <trkpt lat="44.06638" lon="0.57453">
        <ele>164</ele>
        <time>2025-07-24T14:33:56.289Z</time>
      </trkpt>
      <trkpt lat="44.06638" lon="0.57455">
        <ele>164</ele>
        <time>2025-07-24T14:33:57.289Z</time>
      </trkpt>
      <trkpt lat="44.06638" lon="0.57457">
        <ele>164</ele>
        <time>2025-07-24T14:33:58.289Z</time>
      </trkpt>
      <trkpt lat="44.06639" lon="0.57459">
        <ele>164</ele>
        <time>2025-07-24T14:33:59.289Z</time>
      </trkpt>
      <trkpt lat="44.06639" lon="0.5746">
        <ele>164</ele>
        <time>2025-07-24T14:34:00.289Z</time>
      </trkpt>
      <trkpt lat="44.06639" lon="0.57462">
        <ele>164</ele>
        <time>2025-07-24T14:34:01.289Z</time>
      </trkpt>
      <trkpt lat="44.0664" lon="0.57463">
        <ele>164</ele>
        <time>2025-07-24T14:34:02.289Z</time>
      </trkpt>
      <trkpt lat="44.0664" lon="0.57465">
        <ele>164</ele>
        <time>2025-07-24T14:34:03.289Z</time>
      </trkpt>
      <trkpt lat="44.06641" lon="0.57467">
        <ele>163</ele>
        <time>2025-07-24T14:34:04.289Z</time>
      </trkpt>
      <trkpt lat="44.06641" lon="0.57468">
        <ele>163</ele>
        <time>2025-07-24T14:34:05.289Z</time>
      </trkpt>
      <trkpt lat="44.06641" lon="0.5747">
        <ele>163</ele>
        <time>2025-07-24T14:34:06.289Z</time>
      </trkpt>
      <trkpt lat="44.06642" lon="0.57471">
        <ele>163</ele>
        <time>2025-07-24T14:34:07.289Z</time>
      </trkpt>
      <trkpt lat="44.06642" lon="0.57473">
        <ele>163</ele>
        <time>2025-07-24T14:34:08.289Z</time>
      </trkpt>
      <trkpt lat="44.06643" lon="0.57475">
        <ele>163</ele>
        <time>2025-07-24T14:34:09.289Z</time>
      </trkpt>
      <trkpt lat="44.06643" lon="0.57477">
        <ele>163</ele>
        <time>2025-07-24T14:34:10.289Z</time>
      </trkpt>
      <trkpt lat="44.06643" lon="0.57479">
        <ele>164</ele>
        <time>2025-07-24T14:34:11.289Z</time>
      </trkpt>
      <trkpt lat="44.06643" lon="0.57481">
        <ele>164</ele>
        <time>2025-07-24T14:34:12.289Z</time>
      </trkpt>
      <trkpt lat="44.06643" lon="0.57482">
        <ele>164</ele>
        <time>2025-07-24T14:34:13.289Z</time>
      </trkpt>
      <trkpt lat="44.06644" lon="0.57484">
        <ele>164</ele>
        <time>2025-07-24T14:34:14.289Z</time>
      </trkpt>
      <trkpt lat="44.06644" lon="0.57485">
        <ele>164</ele>
        <time>2025-07-24T14:34:15.289Z</time>
      </trkpt>
      <trkpt lat="44.06645" lon="0.57487">
        <ele>164</ele>
        <time>2025-07-24T14:34:16.289Z</time>
      </trkpt>
      <trkpt lat="44.06645" lon="0.57488">
        <ele>165</ele>
        <time>2025-07-24T14:34:17.289Z</time>
      </trkpt>
      <trkpt lat="44.06645" lon="0.5749">
        <ele>165</ele>
        <time>2025-07-24T14:34:18.289Z</time>
      </trkpt>
      <trkpt lat="44.06645" lon="0.57492">
        <ele>165</ele>
        <time>2025-07-24T14:34:19.289Z</time>
      </trkpt>
      <trkpt lat="44.06645" lon="0.57494">
        <ele>164</ele>
        <time>2025-07-24T14:34:20.289Z</time>
      </trkpt>
      <trkpt lat="44.06645" lon="0.57496">
        <ele>164</ele>
        <time>2025-07-24T14:34:21.289Z</time>
      </trkpt>
      <trkpt lat="44.06646" lon="0.57498">
        <ele>163</ele>
        <time>2025-07-24T14:34:22.289Z</time>
      </trkpt>
      <trkpt lat="44.06646" lon="0.575">
        <ele>163</ele>
        <time>2025-07-24T14:34:23.289Z</time>
      </trkpt>
      <trkpt lat="44.06646" lon="0.57502">
        <ele>163</ele>
        <time>2025-07-24T14:34:24.289Z</time>
      </trkpt>
      <trkpt lat="44.06647" lon="0.57504">
        <ele>163</ele>
        <time>2025-07-24T14:34:25.289Z</time>
      </trkpt>
      <trkpt lat="44.06647" lon="0.57506">
        <ele>163</ele>
        <time>2025-07-24T14:34:26.289Z</time>
      </trkpt>
      <trkpt lat="44.06648" lon="0.57507">
        <ele>163</ele>
        <time>2025-07-24T14:34:27.289Z</time>
      </trkpt>
      <trkpt lat="44.06648" lon="0.57509">
        <ele>163</ele>
        <time>2025-07-24T14:34:28.289Z</time>
      </trkpt>
      <trkpt lat="44.06648" lon="0.57511">
        <ele>163</ele>
        <time>2025-07-24T14:34:29.289Z</time>
      </trkpt>
      <trkpt lat="44.06648" lon="0.57512">
        <ele>163</ele>
        <time>2025-07-24T14:34:30.289Z</time>
      </trkpt>
      <trkpt lat="44.06648" lon="0.57514">
        <ele>163</ele>
        <time>2025-07-24T14:34:31.289Z</time>
      </trkpt>
      <trkpt lat="44.06648" lon="0.57515">
        <ele>163</ele>
        <time>2025-07-24T14:34:32.289Z</time>
      </trkpt>
      <trkpt lat="44.06648" lon="0.57517">
        <ele>163</ele>
        <time>2025-07-24T14:34:33.289Z</time>
      </trkpt>
      <trkpt lat="44.06649" lon="0.57519">
        <ele>164</ele>
        <time>2025-07-24T14:34:34.289Z</time>
      </trkpt>
      <trkpt lat="44.06649" lon="0.57521">
        <ele>164</ele>
        <time>2025-07-24T14:34:35.289Z</time>
      </trkpt>
      <trkpt lat="44.06649" lon="0.57523">
        <ele>163</ele>
        <time>2025-07-24T14:34:36.289Z</time>
      </trkpt>
      <trkpt lat="44.06649" lon="0.57524">
        <ele>163</ele>
        <time>2025-07-24T14:34:37.289Z</time>
      </trkpt>
      <trkpt lat="44.06649" lon="0.57526">
        <ele>163</ele>
        <time>2025-07-24T14:34:38.289Z</time>
      </trkpt>
      <trkpt lat="44.0665" lon="0.57528">
        <ele>163</ele>
        <time>2025-07-24T14:34:39.289Z</time>
      </trkpt>
      <trkpt lat="44.06651" lon="0.5753">
        <ele>163</ele>
        <time>2025-07-24T14:34:40.289Z</time>
      </trkpt>
      <trkpt lat="44.06651" lon="0.57531">
        <ele>163</ele>
        <time>2025-07-24T14:34:41.289Z</time>
      </trkpt>
      <trkpt lat="44.06651" lon="0.57533">
        <ele>163</ele>
        <time>2025-07-24T14:34:42.289Z</time>
      </trkpt>
      <trkpt lat="44.06651" lon="0.57535">
        <ele>163</ele>
        <time>2025-07-24T14:34:43.289Z</time>
      </trkpt>
      <trkpt lat="44.06651" lon="0.57536">
        <ele>163</ele>
        <time>2025-07-24T14:34:44.289Z</time>
      </trkpt>
      <trkpt lat="44.0665" lon="0.57538">
        <ele>163</ele>
        <time>2025-07-24T14:34:45.289Z</time>
      </trkpt>
      <trkpt lat="44.0665" lon="0.5754">
        <ele>163</ele>
        <time>2025-07-24T14:34:46.289Z</time>
      </trkpt>
      <trkpt lat="44.06651" lon="0.57541">
        <ele>163</ele>
        <time>2025-07-24T14:34:47.289Z</time>
      </trkpt>
      <trkpt lat="44.06651" lon="0.57543">
        <ele>162</ele>
        <time>2025-07-24T14:34:48.289Z</time>
      </trkpt>
      <trkpt lat="44.06652" lon="0.57545">
        <ele>162</ele>
        <time>2025-07-24T14:34:49.289Z</time>
      </trkpt>
      <trkpt lat="44.06652" lon="0.57547">
        <ele>162</ele>
        <time>2025-07-24T14:34:50.289Z</time>
      </trkpt>
      <trkpt lat="44.06652" lon="0.57549">
        <ele>162</ele>
        <time>2025-07-24T14:34:51.289Z</time>
      </trkpt>
      <trkpt lat="44.06652" lon="0.57551">
        <ele>162</ele>
        <time>2025-07-24T14:34:52.289Z</time>
      </trkpt>
      <trkpt lat="44.06653" lon="0.57553">
        <ele>162</ele>
        <time>2025-07-24T14:34:53.289Z</time>
      </trkpt>
      <trkpt lat="44.06653" lon="0.57554">
        <ele>161</ele>
        <time>2025-07-24T14:34:54.289Z</time>
      </trkpt>
      <trkpt lat="44.06654" lon="0.57556">
        <ele>161</ele>
        <time>2025-07-24T14:34:55.289Z</time>
      </trkpt>
      <trkpt lat="44.06655" lon="0.57558">
        <ele>161</ele>
        <time>2025-07-24T14:34:56.289Z</time>
      </trkpt>
      <trkpt lat="44.06655" lon="0.57559">
        <ele>160</ele>
        <time>2025-07-24T14:34:57.289Z</time>
      </trkpt>
      <trkpt lat="44.06656" lon="0.57561">
        <ele>160</ele>
        <time>2025-07-24T14:34:58.289Z</time>
      </trkpt>
      <trkpt lat="44.06656" lon="0.57562">
        <ele>160</ele>
        <time>2025-07-24T14:34:59.289Z</time>
      </trkpt>
      <trkpt lat="44.06656" lon="0.57563">
        <ele>160</ele>
        <time>2025-07-24T14:35:00.289Z</time>
      </trkpt>
      <trkpt lat="44.06656" lon="0.57565">
        <ele>160</ele>
        <time>2025-07-24T14:35:01.289Z</time>
      </trkpt>
      <trkpt lat="44.06656" lon="0.57567">
        <ele>160</ele>
        <time>2025-07-24T14:35:02.289Z</time>
      </trkpt>
      <trkpt lat="44.06657" lon="0.57569">
        <ele>160</ele>
        <time>2025-07-24T14:35:03.289Z</time>
      </trkpt>
      <trkpt lat="44.06657" lon="0.5757">
        <ele>161</ele>
        <time>2025-07-24T14:35:04.289Z</time>
      </trkpt>
      <trkpt lat="44.06657" lon="0.57572">
        <ele>161</ele>
        <time>2025-07-24T14:35:05.289Z</time>
      </trkpt>
      <trkpt lat="44.06658" lon="0.57574">
        <ele>161</ele>
        <time>2025-07-24T14:35:06.289Z</time>
      </trkpt>
      <trkpt lat="44.06658" lon="0.57576">
        <ele>162</ele>
        <time>2025-07-24T14:35:07.289Z</time>
      </trkpt>
      <trkpt lat="44.06659" lon="0.57578">
        <ele>162</ele>
        <time>2025-07-24T14:35:08.289Z</time>
      </trkpt>
      <trkpt lat="44.0666" lon="0.57579">
        <ele>162</ele>
        <time>2025-07-24T14:35:09.289Z</time>
      </trkpt>
      <trkpt lat="44.0666" lon="0.57581">
        <ele>162</ele>
        <time>2025-07-24T14:35:10.289Z</time>
      </trkpt>
      <trkpt lat="44.0666" lon="0.57583">
        <ele>162</ele>
        <time>2025-07-24T14:35:11.289Z</time>
      </trkpt>
      <trkpt lat="44.06661" lon="0.57584">
        <ele>162</ele>
        <time>2025-07-24T14:35:12.289Z</time>
      </trkpt>
      <trkpt lat="44.06661" lon="0.57586">
        <ele>162</ele>
        <time>2025-07-24T14:35:13.289Z</time>
      </trkpt>
      <trkpt lat="44.06661" lon="0.57588">
        <ele>162</ele>
        <time>2025-07-24T14:35:14.289Z</time>
      </trkpt>
      <trkpt lat="44.06661" lon="0.57589">
        <ele>162</ele>
        <time>2025-07-24T14:35:15.289Z</time>
      </trkpt>
      <trkpt lat="44.06662" lon="0.57591">
        <ele>162</ele>
        <time>2025-07-24T14:35:16.289Z</time>
      </trkpt>
      <trkpt lat="44.06662" lon="0.57593">
        <ele>162</ele>
        <time>2025-07-24T14:35:17.289Z</time>
      </trkpt>
      <trkpt lat="44.06662" lon="0.57595">
        <ele>161</ele>
        <time>2025-07-24T14:35:18.289Z</time>
      </trkpt>
      <trkpt lat="44.06661" lon="0.57597">
        <ele>161</ele>
        <time>2025-07-24T14:35:19.289Z</time>
      </trkpt>
      <trkpt lat="44.06662" lon="0.57599">
        <ele>161</ele>
        <time>2025-07-24T14:35:20.289Z</time>
      </trkpt>
      <trkpt lat="44.06662" lon="0.576">
        <ele>161</ele>
        <time>2025-07-24T14:35:21.289Z</time>
      </trkpt>
      <trkpt lat="44.06662" lon="0.57601">
        <ele>161</ele>
        <time>2025-07-24T14:35:22.290Z</time>
      </trkpt>
      <trkpt lat="44.06662" lon="0.57603">
        <ele>161</ele>
        <time>2025-07-24T14:35:23.289Z</time>
      </trkpt>
      <trkpt lat="44.06662" lon="0.57604">
        <ele>160</ele>
        <time>2025-07-24T14:35:24.289Z</time>
      </trkpt>
      <trkpt lat="44.06662" lon="0.57606">
        <ele>160</ele>
        <time>2025-07-24T14:35:25.289Z</time>
      </trkpt>
      <trkpt lat="44.06662" lon="0.57608">
        <ele>160</ele>
        <time>2025-07-24T14:35:26.289Z</time>
      </trkpt>
      <trkpt lat="44.06662" lon="0.57609">
        <ele>160</ele>
        <time>2025-07-24T14:35:27.289Z</time>
      </trkpt>
      <trkpt lat="44.06662" lon="0.57611">
        <ele>160</ele>
        <time>2025-07-24T14:35:28.289Z</time>
      </trkpt>
      <trkpt lat="44.06662" lon="0.57613">
        <ele>160</ele>
        <time>2025-07-24T14:35:29.289Z</time>
      </trkpt>
      <trkpt lat="44.06662" lon="0.57615">
        <ele>161</ele>
        <time>2025-07-24T14:35:30.289Z</time>
      </trkpt>
      <trkpt lat="44.06662" lon="0.57616">
        <ele>161</ele>
        <time>2025-07-24T14:35:31.289Z</time>
      </trkpt>
      <trkpt lat="44.06663" lon="0.57618">
        <ele>161</ele>
        <time>2025-07-24T14:35:32.289Z</time>
      </trkpt>
      <trkpt lat="44.06663" lon="0.57619">
        <ele>162</ele>
        <time>2025-07-24T14:35:33.289Z</time>
      </trkpt>
      <trkpt lat="44.06663" lon="0.5762">
        <ele>161</ele>
        <time>2025-07-24T14:35:34.289Z</time>
      </trkpt>
      <trkpt lat="44.06663" lon="0.57622">
        <ele>161</ele>
        <time>2025-07-24T14:35:35.289Z</time>
      </trkpt>
      <trkpt lat="44.06664" lon="0.57623">
        <ele>161</ele>
        <time>2025-07-24T14:35:36.289Z</time>
      </trkpt>
      <trkpt lat="44.06665" lon="0.57625">
        <ele>161</ele>
        <time>2025-07-24T14:35:37.289Z</time>
      </trkpt>
      <trkpt lat="44.06665" lon="0.57627">
        <ele>161</ele>
        <time>2025-07-24T14:35:38.289Z</time>
      </trkpt>
      <trkpt lat="44.06666" lon="0.57628">
        <ele>161</ele>
        <time>2025-07-24T14:35:39.289Z</time>
      </trkpt>
      <trkpt lat="44.06666" lon="0.5763">
        <ele>161</ele>
        <time>2025-07-24T14:35:40.289Z</time>
      </trkpt>
      <trkpt lat="44.06667" lon="0.57631">
        <ele>161</ele>
        <time>2025-07-24T14:35:41.289Z</time>
      </trkpt>
      <trkpt lat="44.06666" lon="0.57633">
        <ele>161</ele>
        <time>2025-07-24T14:35:42.289Z</time>
      </trkpt>
      <trkpt lat="44.06666" lon="0.57635">
        <ele>161</ele>
        <time>2025-07-24T14:35:43.289Z</time>
      </trkpt>
      <trkpt lat="44.06666" lon="0.57636">
        <ele>161</ele>
        <time>2025-07-24T14:35:44.289Z</time>
      </trkpt>
      <trkpt lat="44.06666" lon="0.57638">
        <ele>160</ele>
        <time>2025-07-24T14:35:45.289Z</time>
      </trkpt>
      <trkpt lat="44.06667" lon="0.57639">
        <ele>160</ele>
        <time>2025-07-24T14:35:46.289Z</time>
      </trkpt>
      <trkpt lat="44.06667" lon="0.57641">
        <ele>160</ele>
        <time>2025-07-24T14:35:47.289Z</time>
      </trkpt>
      <trkpt lat="44.06667" lon="0.57643">
        <ele>160</ele>
        <time>2025-07-24T14:35:48.289Z</time>
      </trkpt>
      <trkpt lat="44.06667" lon="0.57645">
        <ele>160</ele>
        <time>2025-07-24T14:35:49.289Z</time>
      </trkpt>
      <trkpt lat="44.06667" lon="0.57646">
        <ele>160</ele>
        <time>2025-07-24T14:35:50.289Z</time>
      </trkpt>
      <trkpt lat="44.06667" lon="0.57648">
        <ele>160</ele>
        <time>2025-07-24T14:35:51.289Z</time>
      </trkpt>
      <trkpt lat="44.06668" lon="0.57649">
        <ele>160</ele>
        <time>2025-07-24T14:35:52.289Z</time>
      </trkpt>
      <trkpt lat="44.06668" lon="0.57651">
        <ele>160</ele>
        <time>2025-07-24T14:35:53.289Z</time>
      </trkpt>
      <trkpt lat="44.06668" lon="0.57652">
        <ele>161</ele>
        <time>2025-07-24T14:35:54.289Z</time>
      </trkpt>
      <trkpt lat="44.06669" lon="0.57654">
        <ele>161</ele>
        <time>2025-07-24T14:35:55.289Z</time>
      </trkpt>
      <trkpt lat="44.06669" lon="0.57655">
        <ele>161</ele>
        <time>2025-07-24T14:35:56.289Z</time>
      </trkpt>
      <trkpt lat="44.06669" lon="0.57657">
        <ele>161</ele>
        <time>2025-07-24T14:35:57.289Z</time>
      </trkpt>
      <trkpt lat="44.0667" lon="0.57659">
        <ele>161</ele>
        <time>2025-07-24T14:35:58.289Z</time>
      </trkpt>
      <trkpt lat="44.0667" lon="0.57661">
        <ele>160</ele>
        <time>2025-07-24T14:35:59.289Z</time>
      </trkpt>
      <trkpt lat="44.0667" lon="0.57663">
        <ele>160</ele>
        <time>2025-07-24T14:36:00.289Z</time>
      </trkpt>
      <trkpt lat="44.0667" lon="0.57664">
        <ele>160</ele>
        <time>2025-07-24T14:36:01.289Z</time>
      </trkpt>
      <trkpt lat="44.0667" lon="0.57666">
        <ele>161</ele>
        <time>2025-07-24T14:36:02.289Z</time>
      </trkpt>
      <trkpt lat="44.0667" lon="0.57667">
        <ele>161</ele>
        <time>2025-07-24T14:36:03.289Z</time>
      </trkpt>
      <trkpt lat="44.0667" lon="0.57669">
        <ele>161</ele>
        <time>2025-07-24T14:36:04.289Z</time>
      </trkpt>
      <trkpt lat="44.0667" lon="0.57671">
        <ele>161</ele>
        <time>2025-07-24T14:36:05.289Z</time>
      </trkpt>
      <trkpt lat="44.0667" lon="0.57673">
        <ele>161</ele>
        <time>2025-07-24T14:36:06.289Z</time>
      </trkpt>
      <trkpt lat="44.0667" lon="0.57675">
        <ele>161</ele>
        <time>2025-07-24T14:36:07.289Z</time>
      </trkpt>
      <trkpt lat="44.0667" lon="0.57676">
        <ele>161</ele>
        <time>2025-07-24T14:36:08.289Z</time>
      </trkpt>
      <trkpt lat="44.0667" lon="0.57678">
        <ele>160</ele>
        <time>2025-07-24T14:36:09.289Z</time>
      </trkpt>
      <trkpt lat="44.0667" lon="0.57679">
        <ele>160</ele>
        <time>2025-07-24T14:36:10.289Z</time>
      </trkpt>
      <trkpt lat="44.0667" lon="0.57681">
        <ele>161</ele>
        <time>2025-07-24T14:36:11.289Z</time>
      </trkpt>
      <trkpt lat="44.0667" lon="0.57682">
        <ele>161</ele>
        <time>2025-07-24T14:36:12.289Z</time>
      </trkpt>
      <trkpt lat="44.0667" lon="0.57684">
        <ele>161</ele>
        <time>2025-07-24T14:36:13.289Z</time>
      </trkpt>
      <trkpt lat="44.0667" lon="0.57685">
        <ele>161</ele>
        <time>2025-07-24T14:36:14.289Z</time>
      </trkpt>
      <trkpt lat="44.0667" lon="0.57687">
        <ele>161</ele>
        <time>2025-07-24T14:36:15.289Z</time>
      </trkpt>
      <trkpt lat="44.0667" lon="0.57689">
        <ele>161</ele>
        <time>2025-07-24T14:36:16.289Z</time>
      </trkpt>
      <trkpt lat="44.0667" lon="0.57691">
        <ele>161</ele>
        <time>2025-07-24T14:36:17.289Z</time>
      </trkpt>
      <trkpt lat="44.0667" lon="0.57692">
        <ele>161</ele>
        <time>2025-07-24T14:36:18.289Z</time>
      </trkpt>
      <trkpt lat="44.06671" lon="0.57694">
        <ele>161</ele>
        <time>2025-07-24T14:36:19.289Z</time>
      </trkpt>
      <trkpt lat="44.0667" lon="0.57696">
        <ele>161</ele>
        <time>2025-07-24T14:36:20.289Z</time>
      </trkpt>
      <trkpt lat="44.0667" lon="0.57697">
        <ele>161</ele>
        <time>2025-07-24T14:36:21.289Z</time>
      </trkpt>
      <trkpt lat="44.0667" lon="0.57698">
        <ele>161</ele>
        <time>2025-07-24T14:36:22.289Z</time>
      </trkpt>
      <trkpt lat="44.0667" lon="0.577">
        <ele>161</ele>
        <time>2025-07-24T14:36:23.289Z</time>
      </trkpt>
      <trkpt lat="44.0667" lon="0.57702">
        <ele>162</ele>
        <time>2025-07-24T14:36:24.289Z</time>
      </trkpt>
      <trkpt lat="44.0667" lon="0.57703">
        <ele>162</ele>
        <time>2025-07-24T14:36:25.289Z</time>
      </trkpt>
      <trkpt lat="44.0667" lon="0.57705">
        <ele>162</ele>
        <time>2025-07-24T14:36:26.289Z</time>
      </trkpt>
      <trkpt lat="44.0667" lon="0.57707">
        <ele>162</ele>
        <time>2025-07-24T14:36:27.289Z</time>
      </trkpt>
      <trkpt lat="44.0667" lon="0.57709">
        <ele>161</ele>
        <time>2025-07-24T14:36:28.289Z</time>
      </trkpt>
      <trkpt lat="44.0667" lon="0.5771">
        <ele>161</ele>
        <time>2025-07-24T14:36:29.289Z</time>
      </trkpt>
      <trkpt lat="44.0667" lon="0.57712">
        <ele>161</ele>
        <time>2025-07-24T14:36:30.289Z</time>
      </trkpt>
      <trkpt lat="44.0667" lon="0.57713">
        <ele>162</ele>
        <time>2025-07-24T14:36:31.289Z</time>
      </trkpt>
      <trkpt lat="44.0667" lon="0.57715">
        <ele>162</ele>
        <time>2025-07-24T14:36:32.289Z</time>
      </trkpt>
      <trkpt lat="44.0667" lon="0.57717">
        <ele>162</ele>
        <time>2025-07-24T14:36:33.289Z</time>
      </trkpt>
      <trkpt lat="44.0667" lon="0.57719">
        <ele>161</ele>
        <time>2025-07-24T14:36:34.289Z</time>
      </trkpt>
      <trkpt lat="44.0667" lon="0.5772">
        <ele>161</ele>
        <time>2025-07-24T14:36:35.289Z</time>
      </trkpt>
      <trkpt lat="44.06669" lon="0.57722">
        <ele>161</ele>
        <time>2025-07-24T14:36:36.289Z</time>
      </trkpt>
      <trkpt lat="44.06669" lon="0.57724">
        <ele>161</ele>
        <time>2025-07-24T14:36:37.289Z</time>
      </trkpt>
      <trkpt lat="44.06669" lon="0.57725">
        <ele>161</ele>
        <time>2025-07-24T14:36:38.289Z</time>
      </trkpt>
      <trkpt lat="44.06669" lon="0.57727">
        <ele>161</ele>
        <time>2025-07-24T14:36:39.289Z</time>
      </trkpt>
      <trkpt lat="44.06668" lon="0.57729">
        <ele>160</ele>
        <time>2025-07-24T14:36:40.289Z</time>
      </trkpt>
      <trkpt lat="44.06668" lon="0.5773">
        <ele>160</ele>
        <time>2025-07-24T14:36:41.289Z</time>
      </trkpt>
      <trkpt lat="44.06668" lon="0.57732">
        <ele>160</ele>
        <time>2025-07-24T14:36:42.289Z</time>
      </trkpt>
      <trkpt lat="44.06668" lon="0.57733">
        <ele>160</ele>
        <time>2025-07-24T14:36:43.289Z</time>
      </trkpt>
      <trkpt lat="44.06668" lon="0.57735">
        <ele>160</ele>
        <time>2025-07-24T14:36:44.289Z</time>
      </trkpt>
      <trkpt lat="44.06668" lon="0.57737">
        <ele>160</ele>
        <time>2025-07-24T14:36:45.289Z</time>
      </trkpt>
      <trkpt lat="44.06668" lon="0.57738">
        <ele>161</ele>
        <time>2025-07-24T14:36:46.289Z</time>
      </trkpt>
      <trkpt lat="44.06668" lon="0.5774">
        <ele>161</ele>
        <time>2025-07-24T14:36:47.289Z</time>
      </trkpt>
      <trkpt lat="44.06668" lon="0.57742">
        <ele>160</ele>
        <time>2025-07-24T14:36:48.289Z</time>
      </trkpt>
      <trkpt lat="44.06668" lon="0.57744">
        <ele>160</ele>
        <time>2025-07-24T14:36:49.289Z</time>
      </trkpt>
      <trkpt lat="44.06668" lon="0.57746">
        <ele>160</ele>
        <time>2025-07-24T14:36:50.289Z</time>
      </trkpt>
      <trkpt lat="44.06668" lon="0.57748">
        <ele>160</ele>
        <time>2025-07-24T14:36:51.289Z</time>
      </trkpt>
      <trkpt lat="44.06668" lon="0.57749">
        <ele>160</ele>
        <time>2025-07-24T14:36:52.289Z</time>
      </trkpt>
      <trkpt lat="44.06668" lon="0.5775">
        <ele>160</ele>
        <time>2025-07-24T14:36:53.289Z</time>
      </trkpt>
      <trkpt lat="44.06669" lon="0.57753">
        <ele>160</ele>
        <time>2025-07-24T14:36:54.289Z</time>
      </trkpt>
      <trkpt lat="44.06669" lon="0.57754">
        <ele>161</ele>
        <time>2025-07-24T14:36:55.289Z</time>
      </trkpt>
      <trkpt lat="44.06669" lon="0.57756">
        <ele>161</ele>
        <time>2025-07-24T14:36:56.289Z</time>
      </trkpt>
      <trkpt lat="44.06669" lon="0.57757">
        <ele>161</ele>
        <time>2025-07-24T14:36:57.289Z</time>
      </trkpt>
      <trkpt lat="44.06668" lon="0.57759">
        <ele>161</ele>
        <time>2025-07-24T14:36:58.289Z</time>
      </trkpt>
      <trkpt lat="44.06668" lon="0.5776">
        <ele>161</ele>
        <time>2025-07-24T14:36:59.289Z</time>
      </trkpt>
      <trkpt lat="44.06668" lon="0.57762">
        <ele>161</ele>
        <time>2025-07-24T14:37:00.289Z</time>
      </trkpt>
      <trkpt lat="44.06668" lon="0.57764">
        <ele>160</ele>
        <time>2025-07-24T14:37:01.289Z</time>
      </trkpt>
      <trkpt lat="44.06668" lon="0.57765">
        <ele>160</ele>
        <time>2025-07-24T14:37:02.289Z</time>
      </trkpt>
      <trkpt lat="44.06668" lon="0.57767">
        <ele>160</ele>
        <time>2025-07-24T14:37:03.289Z</time>
      </trkpt>
      <trkpt lat="44.06668" lon="0.57769">
        <ele>160</ele>
        <time>2025-07-24T14:37:04.289Z</time>
      </trkpt>
      <trkpt lat="44.06668" lon="0.57771">
        <ele>160</ele>
        <time>2025-07-24T14:37:05.289Z</time>
      </trkpt>
      <trkpt lat="44.06668" lon="0.57773">
        <ele>160</ele>
        <time>2025-07-24T14:37:06.289Z</time>
      </trkpt>
      <trkpt lat="44.06668" lon="0.57775">
        <ele>160</ele>
        <time>2025-07-24T14:37:07.289Z</time>
      </trkpt>
      <trkpt lat="44.06668" lon="0.57777">
        <ele>160</ele>
        <time>2025-07-24T14:37:08.289Z</time>
      </trkpt>
      <trkpt lat="44.06668" lon="0.57778">
        <ele>160</ele>
        <time>2025-07-24T14:37:09.289Z</time>
      </trkpt>
      <trkpt lat="44.06668" lon="0.5778">
        <ele>161</ele>
        <time>2025-07-24T14:37:10.289Z</time>
      </trkpt>
      <trkpt lat="44.06668" lon="0.57782">
        <ele>161</ele>
        <time>2025-07-24T14:37:11.289Z</time>
      </trkpt>
      <trkpt lat="44.06668" lon="0.57783">
        <ele>161</ele>
        <time>2025-07-24T14:37:12.289Z</time>
      </trkpt>
      <trkpt lat="44.06668" lon="0.57785">
        <ele>161</ele>
        <time>2025-07-24T14:37:13.289Z</time>
      </trkpt>
      <trkpt lat="44.06668" lon="0.57787">
        <ele>161</ele>
        <time>2025-07-24T14:37:14.289Z</time>
      </trkpt>
      <trkpt lat="44.06668" lon="0.57789">
        <ele>161</ele>
        <time>2025-07-24T14:37:15.289Z</time>
      </trkpt>
      <trkpt lat="44.06667" lon="0.5779">
        <ele>161</ele>
        <time>2025-07-24T14:37:16.289Z</time>
      </trkpt>
      <trkpt lat="44.06667" lon="0.57792">
        <ele>161</ele>
        <time>2025-07-24T14:37:17.289Z</time>
      </trkpt>
      <trkpt lat="44.06667" lon="0.57794">
        <ele>161</ele>
        <time>2025-07-24T14:37:18.289Z</time>
      </trkpt>
      <trkpt lat="44.06666" lon="0.57795">
        <ele>161</ele>
        <time>2025-07-24T14:37:19.289Z</time>
      </trkpt>
      <trkpt lat="44.06666" lon="0.57797">
        <ele>161</ele>
        <time>2025-07-24T14:37:20.289Z</time>
      </trkpt>
      <trkpt lat="44.06666" lon="0.57798">
        <ele>160</ele>
        <time>2025-07-24T14:37:21.289Z</time>
      </trkpt>
      <trkpt lat="44.06666" lon="0.578">
        <ele>160</ele>
        <time>2025-07-24T14:37:22.289Z</time>
      </trkpt>
      <trkpt lat="44.06666" lon="0.57801">
        <ele>160</ele>
        <time>2025-07-24T14:37:23.289Z</time>
      </trkpt>
      <trkpt lat="44.06665" lon="0.57803">
        <ele>160</ele>
        <time>2025-07-24T14:37:24.289Z</time>
      </trkpt>
      <trkpt lat="44.06665" lon="0.57805">
        <ele>159</ele>
        <time>2025-07-24T14:37:25.289Z</time>
      </trkpt>
      <trkpt lat="44.06665" lon="0.57807">
        <ele>159</ele>
        <time>2025-07-24T14:37:26.289Z</time>
      </trkpt>
      <trkpt lat="44.06665" lon="0.57809">
        <ele>158</ele>
        <time>2025-07-24T14:37:27.289Z</time>
      </trkpt>
      <trkpt lat="44.06665" lon="0.57811">
        <ele>158</ele>
        <time>2025-07-24T14:37:28.289Z</time>
      </trkpt>
      <trkpt lat="44.06665" lon="0.57812">
        <ele>158</ele>
        <time>2025-07-24T14:37:29.289Z</time>
      </trkpt>
      <trkpt lat="44.06664" lon="0.57814">
        <ele>158</ele>
        <time>2025-07-24T14:37:30.289Z</time>
      </trkpt>
      <trkpt lat="44.06664" lon="0.57816">
        <ele>158</ele>
        <time>2025-07-24T14:37:31.289Z</time>
      </trkpt>
      <trkpt lat="44.06664" lon="0.57818">
        <ele>158</ele>
        <time>2025-07-24T14:37:32.289Z</time>
      </trkpt>
      <trkpt lat="44.06664" lon="0.57819">
        <ele>158</ele>
        <time>2025-07-24T14:37:33.289Z</time>
      </trkpt>
      <trkpt lat="44.06663" lon="0.57821">
        <ele>157</ele>
        <time>2025-07-24T14:37:34.289Z</time>
      </trkpt>
      <trkpt lat="44.06663" lon="0.57822">
        <ele>157</ele>
        <time>2025-07-24T14:37:35.289Z</time>
      </trkpt>
      <trkpt lat="44.06663" lon="0.57824">
        <ele>157</ele>
        <time>2025-07-24T14:37:36.289Z</time>
      </trkpt>
      <trkpt lat="44.06662" lon="0.57826">
        <ele>157</ele>
        <time>2025-07-24T14:37:37.289Z</time>
      </trkpt>
      <trkpt lat="44.06662" lon="0.57827">
        <ele>156</ele>
        <time>2025-07-24T14:37:38.289Z</time>
      </trkpt>
      <trkpt lat="44.06662" lon="0.57829">
        <ele>156</ele>
        <time>2025-07-24T14:37:39.289Z</time>
      </trkpt>
      <trkpt lat="44.06662" lon="0.57831">
        <ele>156</ele>
        <time>2025-07-24T14:37:40.289Z</time>
      </trkpt>
      <trkpt lat="44.06662" lon="0.57833">
        <ele>156</ele>
        <time>2025-07-24T14:37:41.289Z</time>
      </trkpt>
      <trkpt lat="44.06662" lon="0.57834">
        <ele>156</ele>
        <time>2025-07-24T14:37:42.289Z</time>
      </trkpt>
      <trkpt lat="44.06661" lon="0.57836">
        <ele>156</ele>
        <time>2025-07-24T14:37:43.289Z</time>
      </trkpt>
      <trkpt lat="44.06661" lon="0.57838">
        <ele>157</ele>
        <time>2025-07-24T14:37:44.289Z</time>
      </trkpt>
      <trkpt lat="44.06661" lon="0.57839">
        <ele>156</ele>
        <time>2025-07-24T14:37:45.289Z</time>
      </trkpt>
      <trkpt lat="44.06661" lon="0.57841">
        <ele>156</ele>
        <time>2025-07-24T14:37:46.289Z</time>
      </trkpt>
      <trkpt lat="44.0666" lon="0.57842">
        <ele>156</ele>
        <time>2025-07-24T14:37:47.289Z</time>
      </trkpt>
      <trkpt lat="44.0666" lon="0.57844">
        <ele>156</ele>
        <time>2025-07-24T14:37:48.289Z</time>
      </trkpt>
      <trkpt lat="44.0666" lon="0.57845">
        <ele>156</ele>
        <time>2025-07-24T14:37:49.289Z</time>
      </trkpt>
      <trkpt lat="44.0666" lon="0.57847">
        <ele>156</ele>
        <time>2025-07-24T14:37:50.289Z</time>
      </trkpt>
      <trkpt lat="44.0666" lon="0.5785">
        <ele>156</ele>
        <time>2025-07-24T14:37:51.289Z</time>
      </trkpt>
      <trkpt lat="44.0666" lon="0.57851">
        <ele>156</ele>
        <time>2025-07-24T14:37:52.289Z</time>
      </trkpt>
      <trkpt lat="44.0666" lon="0.57853">
        <ele>157</ele>
        <time>2025-07-24T14:37:53.289Z</time>
      </trkpt>
      <trkpt lat="44.06659" lon="0.57855">
        <ele>157</ele>
        <time>2025-07-24T14:37:54.289Z</time>
      </trkpt>
      <trkpt lat="44.06659" lon="0.57857">
        <ele>157</ele>
        <time>2025-07-24T14:37:55.289Z</time>
      </trkpt>
      <trkpt lat="44.06659" lon="0.57858">
        <ele>157</ele>
        <time>2025-07-24T14:37:56.289Z</time>
      </trkpt>
      <trkpt lat="44.06659" lon="0.57859">
        <ele>157</ele>
        <time>2025-07-24T14:37:57.289Z</time>
      </trkpt>
      <trkpt lat="44.06659" lon="0.57861">
        <ele>157</ele>
        <time>2025-07-24T14:37:58.289Z</time>
      </trkpt>
      <trkpt lat="44.06659" lon="0.57862">
        <ele>157</ele>
        <time>2025-07-24T14:37:59.289Z</time>
      </trkpt>
      <trkpt lat="44.06659" lon="0.57864">
        <ele>156</ele>
        <time>2025-07-24T14:38:00.289Z</time>
      </trkpt>
      <trkpt lat="44.06659" lon="0.57866">
        <ele>156</ele>
        <time>2025-07-24T14:38:01.289Z</time>
      </trkpt>
      <trkpt lat="44.06659" lon="0.57868">
        <ele>156</ele>
        <time>2025-07-24T14:38:02.289Z</time>
      </trkpt>
      <trkpt lat="44.06659" lon="0.57869">
        <ele>155</ele>
        <time>2025-07-24T14:38:03.289Z</time>
      </trkpt>
      <trkpt lat="44.06659" lon="0.57871">
        <ele>155</ele>
        <time>2025-07-24T14:38:04.289Z</time>
      </trkpt>
      <trkpt lat="44.06659" lon="0.57873">
        <ele>155</ele>
        <time>2025-07-24T14:38:05.289Z</time>
      </trkpt>
      <trkpt lat="44.06659" lon="0.57874">
        <ele>155</ele>
        <time>2025-07-24T14:38:06.289Z</time>
      </trkpt>
      <trkpt lat="44.06659" lon="0.57876">
        <ele>155</ele>
        <time>2025-07-24T14:38:07.289Z</time>
      </trkpt>
      <trkpt lat="44.0666" lon="0.57877">
        <ele>155</ele>
        <time>2025-07-24T14:38:08.289Z</time>
      </trkpt>
      <trkpt lat="44.0666" lon="0.57879">
        <ele>155</ele>
        <time>2025-07-24T14:38:09.289Z</time>
      </trkpt>
      <trkpt lat="44.0666" lon="0.57881">
        <ele>155</ele>
        <time>2025-07-24T14:38:10.289Z</time>
      </trkpt>
      <trkpt lat="44.0666" lon="0.57882">
        <ele>155</ele>
        <time>2025-07-24T14:38:11.289Z</time>
      </trkpt>
      <trkpt lat="44.0666" lon="0.57884">
        <ele>154</ele>
        <time>2025-07-24T14:38:12.289Z</time>
      </trkpt>
      <trkpt lat="44.0666" lon="0.57886">
        <ele>154</ele>
        <time>2025-07-24T14:38:13.289Z</time>
      </trkpt>
      <trkpt lat="44.0666" lon="0.57888">
        <ele>154</ele>
        <time>2025-07-24T14:38:14.289Z</time>
      </trkpt>
      <trkpt lat="44.0666" lon="0.5789">
        <ele>154</ele>
        <time>2025-07-24T14:38:15.289Z</time>
      </trkpt>
      <trkpt lat="44.0666" lon="0.57892">
        <ele>153</ele>
        <time>2025-07-24T14:38:16.289Z</time>
      </trkpt>
      <trkpt lat="44.0666" lon="0.57893">
        <ele>153</ele>
        <time>2025-07-24T14:38:17.289Z</time>
      </trkpt>
      <trkpt lat="44.0666" lon="0.57895">
        <ele>153</ele>
        <time>2025-07-24T14:38:18.289Z</time>
      </trkpt>
      <trkpt lat="44.0666" lon="0.57897">
        <ele>153</ele>
        <time>2025-07-24T14:38:19.289Z</time>
      </trkpt>
      <trkpt lat="44.0666" lon="0.57898">
        <ele>154</ele>
        <time>2025-07-24T14:38:20.289Z</time>
      </trkpt>
      <trkpt lat="44.0666" lon="0.579">
        <ele>154</ele>
        <time>2025-07-24T14:38:21.289Z</time>
      </trkpt>
      <trkpt lat="44.0666" lon="0.57902">
        <ele>154</ele>
        <time>2025-07-24T14:38:22.289Z</time>
      </trkpt>
      <trkpt lat="44.06661" lon="0.57904">
        <ele>154</ele>
        <time>2025-07-24T14:38:23.289Z</time>
      </trkpt>
      <trkpt lat="44.06661" lon="0.57906">
        <ele>154</ele>
        <time>2025-07-24T14:38:24.289Z</time>
      </trkpt>
      <trkpt lat="44.06661" lon="0.57907">
        <ele>153</ele>
        <time>2025-07-24T14:38:25.289Z</time>
      </trkpt>
      <trkpt lat="44.06661" lon="0.57909">
        <ele>153</ele>
        <time>2025-07-24T14:38:26.289Z</time>
      </trkpt>
      <trkpt lat="44.06661" lon="0.5791">
        <ele>153</ele>
        <time>2025-07-24T14:38:27.289Z</time>
      </trkpt>
      <trkpt lat="44.06661" lon="0.57912">
        <ele>153</ele>
        <time>2025-07-24T14:38:28.289Z</time>
      </trkpt>
      <trkpt lat="44.06661" lon="0.57914">
        <ele>153</ele>
        <time>2025-07-24T14:38:29.289Z</time>
      </trkpt>
      <trkpt lat="44.06661" lon="0.57916">
        <ele>153</ele>
        <time>2025-07-24T14:38:30.289Z</time>
      </trkpt>
      <trkpt lat="44.06661" lon="0.57918">
        <ele>153</ele>
        <time>2025-07-24T14:38:31.289Z</time>
      </trkpt>
      <trkpt lat="44.06661" lon="0.57919">
        <ele>153</ele>
        <time>2025-07-24T14:38:32.289Z</time>
      </trkpt>
      <trkpt lat="44.06661" lon="0.57921">
        <ele>153</ele>
        <time>2025-07-24T14:38:33.289Z</time>
      </trkpt>
      <trkpt lat="44.06661" lon="0.57923">
        <ele>153</ele>
        <time>2025-07-24T14:38:34.289Z</time>
      </trkpt>
      <trkpt lat="44.06661" lon="0.57924">
        <ele>154</ele>
        <time>2025-07-24T14:38:35.289Z</time>
      </trkpt>
      <trkpt lat="44.06661" lon="0.57925">
        <ele>154</ele>
        <time>2025-07-24T14:38:36.289Z</time>
      </trkpt>
      <trkpt lat="44.06661" lon="0.57927">
        <ele>154</ele>
        <time>2025-07-24T14:38:37.289Z</time>
      </trkpt>
      <trkpt lat="44.06661" lon="0.57929">
        <ele>154</ele>
        <time>2025-07-24T14:38:38.289Z</time>
      </trkpt>
      <trkpt lat="44.06661" lon="0.5793">
        <ele>154</ele>
        <time>2025-07-24T14:38:39.289Z</time>
      </trkpt>
      <trkpt lat="44.06661" lon="0.57932">
        <ele>154</ele>
        <time>2025-07-24T14:38:40.289Z</time>
      </trkpt>
      <trkpt lat="44.06661" lon="0.57934">
        <ele>154</ele>
        <time>2025-07-24T14:38:41.289Z</time>
      </trkpt>
      <trkpt lat="44.06661" lon="0.57936">
        <ele>154</ele>
        <time>2025-07-24T14:38:42.289Z</time>
      </trkpt>
      <trkpt lat="44.06661" lon="0.57938">
        <ele>154</ele>
        <time>2025-07-24T14:38:43.289Z</time>
      </trkpt>
      <trkpt lat="44.06661" lon="0.5794">
        <ele>154</ele>
        <time>2025-07-24T14:38:44.289Z</time>
      </trkpt>
      <trkpt lat="44.06661" lon="0.57941">
        <ele>154</ele>
        <time>2025-07-24T14:38:45.289Z</time>
      </trkpt>
      <trkpt lat="44.06662" lon="0.57942">
        <ele>155</ele>
        <time>2025-07-24T14:38:46.289Z</time>
      </trkpt>
      <trkpt lat="44.06661" lon="0.57944">
        <ele>154</ele>
        <time>2025-07-24T14:38:47.289Z</time>
      </trkpt>
      <trkpt lat="44.06661" lon="0.57946">
        <ele>155</ele>
        <time>2025-07-24T14:38:48.289Z</time>
      </trkpt>
      <trkpt lat="44.06662" lon="0.57948">
        <ele>155</ele>
        <time>2025-07-24T14:38:49.289Z</time>
      </trkpt>
      <trkpt lat="44.06662" lon="0.57949">
        <ele>155</ele>
        <time>2025-07-24T14:38:50.289Z</time>
      </trkpt>
      <trkpt lat="44.06662" lon="0.57951">
        <ele>155</ele>
        <time>2025-07-24T14:38:51.289Z</time>
      </trkpt>
      <trkpt lat="44.06662" lon="0.57953">
        <ele>155</ele>
        <time>2025-07-24T14:38:52.289Z</time>
      </trkpt>
      <trkpt lat="44.06661" lon="0.57955">
        <ele>155</ele>
        <time>2025-07-24T14:38:53.289Z</time>
      </trkpt>
      <trkpt lat="44.06661" lon="0.57957">
        <ele>155</ele>
        <time>2025-07-24T14:38:54.289Z</time>
      </trkpt>
      <trkpt lat="44.06661" lon="0.57958">
        <ele>155</ele>
        <time>2025-07-24T14:38:55.289Z</time>
      </trkpt>
      <trkpt lat="44.06661" lon="0.5796">
        <ele>155</ele>
        <time>2025-07-24T14:38:56.289Z</time>
      </trkpt>
      <trkpt lat="44.06661" lon="0.57962">
        <ele>154</ele>
        <time>2025-07-24T14:38:57.289Z</time>
      </trkpt>
      <trkpt lat="44.06661" lon="0.57963">
        <ele>154</ele>
        <time>2025-07-24T14:38:58.289Z</time>
      </trkpt>
      <trkpt lat="44.06661" lon="0.57965">
        <ele>154</ele>
        <time>2025-07-24T14:38:59.289Z</time>
      </trkpt>
      <trkpt lat="44.06661" lon="0.57967">
        <ele>154</ele>
        <time>2025-07-24T14:39:00.289Z</time>
      </trkpt>
      <trkpt lat="44.06662" lon="0.57969">
        <ele>154</ele>
        <time>2025-07-24T14:39:01.289Z</time>
      </trkpt>
      <trkpt lat="44.06662" lon="0.57971">
        <ele>154</ele>
        <time>2025-07-24T14:39:02.289Z</time>
      </trkpt>
      <trkpt lat="44.06662" lon="0.57972">
        <ele>154</ele>
        <time>2025-07-24T14:39:03.289Z</time>
      </trkpt>
      <trkpt lat="44.06662" lon="0.57974">
        <ele>154</ele>
        <time>2025-07-24T14:39:04.289Z</time>
      </trkpt>
      <trkpt lat="44.06662" lon="0.57976">
        <ele>154</ele>
        <time>2025-07-24T14:39:05.289Z</time>
      </trkpt>
      <trkpt lat="44.06662" lon="0.57977">
        <ele>154</ele>
        <time>2025-07-24T14:39:06.289Z</time>
      </trkpt>
      <trkpt lat="44.06662" lon="0.57979">
        <ele>154</ele>
        <time>2025-07-24T14:39:07.289Z</time>
      </trkpt>
      <trkpt lat="44.06662" lon="0.57981">
        <ele>154</ele>
        <time>2025-07-24T14:39:08.289Z</time>
      </trkpt>
      <trkpt lat="44.06662" lon="0.57982">
        <ele>154</ele>
        <time>2025-07-24T14:39:09.289Z</time>
      </trkpt>
      <trkpt lat="44.06662" lon="0.57984">
        <ele>154</ele>
        <time>2025-07-24T14:39:10.289Z</time>
      </trkpt>
      <trkpt lat="44.06663" lon="0.57985">
        <ele>154</ele>
        <time>2025-07-24T14:39:11.289Z</time>
      </trkpt>
      <trkpt lat="44.06663" lon="0.57988">
        <ele>154</ele>
        <time>2025-07-24T14:39:12.289Z</time>
      </trkpt>
      <trkpt lat="44.06663" lon="0.57989">
        <ele>154</ele>
        <time>2025-07-24T14:39:13.289Z</time>
      </trkpt>
      <trkpt lat="44.06663" lon="0.57991">
        <ele>154</ele>
        <time>2025-07-24T14:39:14.289Z</time>
      </trkpt>
      <trkpt lat="44.06664" lon="0.57993">
        <ele>154</ele>
        <time>2025-07-24T14:39:15.289Z</time>
      </trkpt>
      <trkpt lat="44.06664" lon="0.57995">
        <ele>154</ele>
        <time>2025-07-24T14:39:16.289Z</time>
      </trkpt>
      <trkpt lat="44.06664" lon="0.57997">
        <ele>154</ele>
        <time>2025-07-24T14:39:17.289Z</time>
      </trkpt>
      <trkpt lat="44.06664" lon="0.57999">
        <ele>154</ele>
        <time>2025-07-24T14:39:18.289Z</time>
      </trkpt>
      <trkpt lat="44.06664" lon="0.58001">
        <ele>154</ele>
        <time>2025-07-24T14:39:19.289Z</time>
      </trkpt>
      <trkpt lat="44.06665" lon="0.58003">
        <ele>154</ele>
        <time>2025-07-24T14:39:20.289Z</time>
      </trkpt>
      <trkpt lat="44.06665" lon="0.58005">
        <ele>155</ele>
        <time>2025-07-24T14:39:21.289Z</time>
      </trkpt>
      <trkpt lat="44.06665" lon="0.58007">
        <ele>155</ele>
        <time>2025-07-24T14:39:22.289Z</time>
      </trkpt>
      <trkpt lat="44.06666" lon="0.58009">
        <ele>155</ele>
        <time>2025-07-24T14:39:23.289Z</time>
      </trkpt>
      <trkpt lat="44.06666" lon="0.5801">
        <ele>155</ele>
        <time>2025-07-24T14:39:24.289Z</time>
      </trkpt>
      <trkpt lat="44.06666" lon="0.58012">
        <ele>155</ele>
        <time>2025-07-24T14:39:25.289Z</time>
      </trkpt>
      <trkpt lat="44.06667" lon="0.58014">
        <ele>155</ele>
        <time>2025-07-24T14:39:26.289Z</time>
      </trkpt>
      <trkpt lat="44.06667" lon="0.58015">
        <ele>155</ele>
        <time>2025-07-24T14:39:27.289Z</time>
      </trkpt>
      <trkpt lat="44.06667" lon="0.58017">
        <ele>154</ele>
        <time>2025-07-24T14:39:28.289Z</time>
      </trkpt>
      <trkpt lat="44.06667" lon="0.58018">
        <ele>154</ele>
        <time>2025-07-24T14:39:29.289Z</time>
      </trkpt>
      <trkpt lat="44.06667" lon="0.5802">
        <ele>154</ele>
        <time>2025-07-24T14:39:30.289Z</time>
      </trkpt>
      <trkpt lat="44.06667" lon="0.58022">
        <ele>153</ele>
        <time>2025-07-24T14:39:31.289Z</time>
      </trkpt>
      <trkpt lat="44.06667" lon="0.58023">
        <ele>153</ele>
        <time>2025-07-24T14:39:32.289Z</time>
      </trkpt>
      <trkpt lat="44.06667" lon="0.58025">
        <ele>153</ele>
        <time>2025-07-24T14:39:33.289Z</time>
      </trkpt>
      <trkpt lat="44.06668" lon="0.58027">
        <ele>153</ele>
        <time>2025-07-24T14:39:34.289Z</time>
      </trkpt>
      <trkpt lat="44.06668" lon="0.58029">
        <ele>152</ele>
        <time>2025-07-24T14:39:35.289Z</time>
      </trkpt>
      <trkpt lat="44.06668" lon="0.58031">
        <ele>152</ele>
        <time>2025-07-24T14:39:36.289Z</time>
      </trkpt>
      <trkpt lat="44.06668" lon="0.58033">
        <ele>152</ele>
        <time>2025-07-24T14:39:37.289Z</time>
      </trkpt>
      <trkpt lat="44.06669" lon="0.58035">
        <ele>152</ele>
        <time>2025-07-24T14:39:38.289Z</time>
      </trkpt>
      <trkpt lat="44.06669" lon="0.58036">
        <ele>152</ele>
        <time>2025-07-24T14:39:39.289Z</time>
      </trkpt>
      <trkpt lat="44.06669" lon="0.58038">
        <ele>152</ele>
        <time>2025-07-24T14:39:40.289Z</time>
      </trkpt>
      <trkpt lat="44.0667" lon="0.5804">
        <ele>152</ele>
        <time>2025-07-24T14:39:41.289Z</time>
      </trkpt>
      <trkpt lat="44.0667" lon="0.58041">
        <ele>152</ele>
        <time>2025-07-24T14:39:42.289Z</time>
      </trkpt>
      <trkpt lat="44.06671" lon="0.58043">
        <ele>152</ele>
        <time>2025-07-24T14:39:43.289Z</time>
      </trkpt>
      <trkpt lat="44.06671" lon="0.58044">
        <ele>152</ele>
        <time>2025-07-24T14:39:44.289Z</time>
      </trkpt>
      <trkpt lat="44.06672" lon="0.58046">
        <ele>153</ele>
        <time>2025-07-24T14:39:45.289Z</time>
      </trkpt>
      <trkpt lat="44.06672" lon="0.58048">
        <ele>153</ele>
        <time>2025-07-24T14:39:46.289Z</time>
      </trkpt>
      <trkpt lat="44.06672" lon="0.58049">
        <ele>153</ele>
        <time>2025-07-24T14:39:47.289Z</time>
      </trkpt>
      <trkpt lat="44.06673" lon="0.58051">
        <ele>153</ele>
        <time>2025-07-24T14:39:48.289Z</time>
      </trkpt>
      <trkpt lat="44.06673" lon="0.58053">
        <ele>153</ele>
        <time>2025-07-24T14:39:49.289Z</time>
      </trkpt>
      <trkpt lat="44.06674" lon="0.58054">
        <ele>152</ele>
        <time>2025-07-24T14:39:50.289Z</time>
      </trkpt>
      <trkpt lat="44.06674" lon="0.58056">
        <ele>152</ele>
        <time>2025-07-24T14:39:51.289Z</time>
      </trkpt>
      <trkpt lat="44.06675" lon="0.58058">
        <ele>152</ele>
        <time>2025-07-24T14:39:52.289Z</time>
      </trkpt>
      <trkpt lat="44.06675" lon="0.5806">
        <ele>152</ele>
        <time>2025-07-24T14:39:53.289Z</time>
      </trkpt>
      <trkpt lat="44.06675" lon="0.58062">
        <ele>152</ele>
        <time>2025-07-24T14:39:54.289Z</time>
      </trkpt>
      <trkpt lat="44.06676" lon="0.58064">
        <ele>151</ele>
        <time>2025-07-24T14:39:55.289Z</time>
      </trkpt>
      <trkpt lat="44.06676" lon="0.58065">
        <ele>151</ele>
        <time>2025-07-24T14:39:56.289Z</time>
      </trkpt>
      <trkpt lat="44.06676" lon="0.58067">
        <ele>151</ele>
        <time>2025-07-24T14:39:57.289Z</time>
      </trkpt>
      <trkpt lat="44.06677" lon="0.58068">
        <ele>150</ele>
        <time>2025-07-24T14:39:58.289Z</time>
      </trkpt>
      <trkpt lat="44.06677" lon="0.5807">
        <ele>150</ele>
        <time>2025-07-24T14:39:59.289Z</time>
      </trkpt>
      <trkpt lat="44.06677" lon="0.58071">
        <ele>150</ele>
        <time>2025-07-24T14:40:00.289Z</time>
      </trkpt>
      <trkpt lat="44.06678" lon="0.58073">
        <ele>149</ele>
        <time>2025-07-24T14:40:01.289Z</time>
      </trkpt>
      <trkpt lat="44.06678" lon="0.58075">
        <ele>149</ele>
        <time>2025-07-24T14:40:02.289Z</time>
      </trkpt>
      <trkpt lat="44.06678" lon="0.58076">
        <ele>149</ele>
        <time>2025-07-24T14:40:03.289Z</time>
      </trkpt>
      <trkpt lat="44.06678" lon="0.58078">
        <ele>149</ele>
        <time>2025-07-24T14:40:04.289Z</time>
      </trkpt>
      <trkpt lat="44.06679" lon="0.5808">
        <ele>149</ele>
        <time>2025-07-24T14:40:05.289Z</time>
      </trkpt>
      <trkpt lat="44.06679" lon="0.58082">
        <ele>149</ele>
        <time>2025-07-24T14:40:06.289Z</time>
      </trkpt>
      <trkpt lat="44.0668" lon="0.58084">
        <ele>149</ele>
        <time>2025-07-24T14:40:07.289Z</time>
      </trkpt>
      <trkpt lat="44.0668" lon="0.58086">
        <ele>149</ele>
        <time>2025-07-24T14:40:08.289Z</time>
      </trkpt>
      <trkpt lat="44.06681" lon="0.58088">
        <ele>149</ele>
        <time>2025-07-24T14:40:09.289Z</time>
      </trkpt>
      <trkpt lat="44.06681" lon="0.5809">
        <ele>149</ele>
        <time>2025-07-24T14:40:10.289Z</time>
      </trkpt>
      <trkpt lat="44.06682" lon="0.58091">
        <ele>149</ele>
        <time>2025-07-24T14:40:11.289Z</time>
      </trkpt>
      <trkpt lat="44.06682" lon="0.58094">
        <ele>149</ele>
        <time>2025-07-24T14:40:12.289Z</time>
      </trkpt>
      <trkpt lat="44.06683" lon="0.58096">
        <ele>149</ele>
        <time>2025-07-24T14:40:13.289Z</time>
      </trkpt>
      <trkpt lat="44.06683" lon="0.58097">
        <ele>150</ele>
        <time>2025-07-24T14:40:14.289Z</time>
      </trkpt>
      <trkpt lat="44.06684" lon="0.58099">
        <ele>150</ele>
        <time>2025-07-24T14:40:15.289Z</time>
      </trkpt>
      <trkpt lat="44.06684" lon="0.58101">
        <ele>150</ele>
        <time>2025-07-24T14:40:16.289Z</time>
      </trkpt>
      <trkpt lat="44.06685" lon="0.58102">
        <ele>150</ele>
        <time>2025-07-24T14:40:17.289Z</time>
      </trkpt>
      <trkpt lat="44.06685" lon="0.58104">
        <ele>150</ele>
        <time>2025-07-24T14:40:18.289Z</time>
      </trkpt>
      <trkpt lat="44.06685" lon="0.58105">
        <ele>150</ele>
        <time>2025-07-24T14:40:19.289Z</time>
      </trkpt>
      <trkpt lat="44.06686" lon="0.58107">
        <ele>150</ele>
        <time>2025-07-24T14:40:20.289Z</time>
      </trkpt>
      <trkpt lat="44.06686" lon="0.58108">
        <ele>150</ele>
        <time>2025-07-24T14:40:21.289Z</time>
      </trkpt>
      <trkpt lat="44.06686" lon="0.5811">
        <ele>150</ele>
        <time>2025-07-24T14:40:22.289Z</time>
      </trkpt>
      <trkpt lat="44.06685" lon="0.58111">
        <ele>150</ele>
        <time>2025-07-24T14:40:23.289Z</time>
      </trkpt>
      <trkpt lat="44.06685" lon="0.58112">
        <ele>150</ele>
        <time>2025-07-24T14:40:24.289Z</time>
      </trkpt>
      <trkpt lat="44.06685" lon="0.58112">
        <ele>151</ele>
        <time>2025-07-24T14:40:25.289Z</time>
      </trkpt>
      <trkpt lat="44.06685" lon="0.58112">
        <ele>150</ele>
        <time>2025-07-24T14:40:26.289Z</time>
      </trkpt>
      <trkpt lat="44.06685" lon="0.58112">
        <ele>150</ele>
        <time>2025-07-24T14:40:27.289Z</time>
      </trkpt>
      <trkpt lat="44.06685" lon="0.58112">
        <ele>150</ele>
        <time>2025-07-24T14:40:28.289Z</time>
      </trkpt>
      <trkpt lat="44.06685" lon="0.58113">
        <ele>150</ele>
        <time>2025-07-24T14:40:29.289Z</time>
      </trkpt>
      <trkpt lat="44.06685" lon="0.58113">
        <ele>150</ele>
        <time>2025-07-24T14:40:30.289Z</time>
      </trkpt>
      <trkpt lat="44.06686" lon="0.58114">
        <ele>150</ele>
        <time>2025-07-24T14:40:31.289Z</time>
      </trkpt>
      <trkpt lat="44.06687" lon="0.58115">
        <ele>149</ele>
        <time>2025-07-24T14:40:32.289Z</time>
      </trkpt>
      <trkpt lat="44.06687" lon="0.58116">
        <ele>149</ele>
        <time>2025-07-24T14:40:33.289Z</time>
      </trkpt>
      <trkpt lat="44.06688" lon="0.58117">
        <ele>149</ele>
        <time>2025-07-24T14:40:34.289Z</time>
      </trkpt>
      <trkpt lat="44.06688" lon="0.58118">
        <ele>149</ele>
        <time>2025-07-24T14:40:35.289Z</time>
      </trkpt>
      <trkpt lat="44.06689" lon="0.5812">
        <ele>149</ele>
        <time>2025-07-24T14:40:36.289Z</time>
      </trkpt>
      <trkpt lat="44.06689" lon="0.58121">
        <ele>149</ele>
        <time>2025-07-24T14:40:37.289Z</time>
      </trkpt>
      <trkpt lat="44.0669" lon="0.58123">
        <ele>149</ele>
        <time>2025-07-24T14:40:38.289Z</time>
      </trkpt>
      <trkpt lat="44.06691" lon="0.58124">
        <ele>149</ele>
        <time>2025-07-24T14:40:39.289Z</time>
      </trkpt>
      <trkpt lat="44.06692" lon="0.58125">
        <ele>150</ele>
        <time>2025-07-24T14:40:40.289Z</time>
      </trkpt>
      <trkpt lat="44.06692" lon="0.58126">
        <ele>150</ele>
        <time>2025-07-24T14:40:41.289Z</time>
      </trkpt>
      <trkpt lat="44.06693" lon="0.58128">
        <ele>151</ele>
        <time>2025-07-24T14:40:42.289Z</time>
      </trkpt>
      <trkpt lat="44.06693" lon="0.58129">
        <ele>151</ele>
        <time>2025-07-24T14:40:43.289Z</time>
      </trkpt>
      <trkpt lat="44.06693" lon="0.58131">
        <ele>152</ele>
        <time>2025-07-24T14:40:44.289Z</time>
      </trkpt>
      <trkpt lat="44.06693" lon="0.58132">
        <ele>152</ele>
        <time>2025-07-24T14:40:45.289Z</time>
      </trkpt>
      <trkpt lat="44.06694" lon="0.58133">
        <ele>153</ele>
        <time>2025-07-24T14:40:46.289Z</time>
      </trkpt>
      <trkpt lat="44.06694" lon="0.58134">
        <ele>153</ele>
        <time>2025-07-24T14:40:47.289Z</time>
      </trkpt>
      <trkpt lat="44.06695" lon="0.58135">
        <ele>153</ele>
        <time>2025-07-24T14:40:48.289Z</time>
      </trkpt>
      <trkpt lat="44.06696" lon="0.58136">
        <ele>153</ele>
        <time>2025-07-24T14:40:49.289Z</time>
      </trkpt>
      <trkpt lat="44.06696" lon="0.58138">
        <ele>153</ele>
        <time>2025-07-24T14:40:50.289Z</time>
      </trkpt>
      <trkpt lat="44.06697" lon="0.5814">
        <ele>153</ele>
        <time>2025-07-24T14:40:51.289Z</time>
      </trkpt>
      <trkpt lat="44.06696" lon="0.58142">
        <ele>153</ele>
        <time>2025-07-24T14:40:52.289Z</time>
      </trkpt>
      <trkpt lat="44.06696" lon="0.58144">
        <ele>153</ele>
        <time>2025-07-24T14:40:53.289Z</time>
      </trkpt>
      <trkpt lat="44.06696" lon="0.58145">
        <ele>153</ele>
        <time>2025-07-24T14:40:54.289Z</time>
      </trkpt>
      <trkpt lat="44.06696" lon="0.58146">
        <ele>153</ele>
        <time>2025-07-24T14:40:55.289Z</time>
      </trkpt>
      <trkpt lat="44.06697" lon="0.58147">
        <ele>153</ele>
        <time>2025-07-24T14:40:56.289Z</time>
      </trkpt>
      <trkpt lat="44.06697" lon="0.58149">
        <ele>153</ele>
        <time>2025-07-24T14:40:57.289Z</time>
      </trkpt>
      <trkpt lat="44.06698" lon="0.58151">
        <ele>154</ele>
        <time>2025-07-24T14:40:58.289Z</time>
      </trkpt>
      <trkpt lat="44.06698" lon="0.58152">
        <ele>153</ele>
        <time>2025-07-24T14:40:59.289Z</time>
      </trkpt>
      <trkpt lat="44.06698" lon="0.58154">
        <ele>153</ele>
        <time>2025-07-24T14:41:00.289Z</time>
      </trkpt>
      <trkpt lat="44.06699" lon="0.58155">
        <ele>153</ele>
        <time>2025-07-24T14:41:01.289Z</time>
      </trkpt>
      <trkpt lat="44.06699" lon="0.58156">
        <ele>153</ele>
        <time>2025-07-24T14:41:02.289Z</time>
      </trkpt>
      <trkpt lat="44.06699" lon="0.58158">
        <ele>153</ele>
        <time>2025-07-24T14:41:03.289Z</time>
      </trkpt>
      <trkpt lat="44.06699" lon="0.58159">
        <ele>152</ele>
        <time>2025-07-24T14:41:04.289Z</time>
      </trkpt>
      <trkpt lat="44.06699" lon="0.58161">
        <ele>152</ele>
        <time>2025-07-24T14:41:05.289Z</time>
      </trkpt>
      <trkpt lat="44.06699" lon="0.58163">
        <ele>151</ele>
        <time>2025-07-24T14:41:06.289Z</time>
      </trkpt>
      <trkpt lat="44.06699" lon="0.58165">
        <ele>151</ele>
        <time>2025-07-24T14:41:07.289Z</time>
      </trkpt>
      <trkpt lat="44.067" lon="0.58166">
        <ele>151</ele>
        <time>2025-07-24T14:41:08.289Z</time>
      </trkpt>
      <trkpt lat="44.067" lon="0.58169">
        <ele>150</ele>
        <time>2025-07-24T14:41:09.289Z</time>
      </trkpt>
      <trkpt lat="44.067" lon="0.58171">
        <ele>150</ele>
        <time>2025-07-24T14:41:10.289Z</time>
      </trkpt>
      <trkpt lat="44.067" lon="0.58172">
        <ele>150</ele>
        <time>2025-07-24T14:41:11.289Z</time>
      </trkpt>
      <trkpt lat="44.067" lon="0.58174">
        <ele>150</ele>
        <time>2025-07-24T14:41:12.289Z</time>
      </trkpt>
      <trkpt lat="44.067" lon="0.58176">
        <ele>150</ele>
        <time>2025-07-24T14:41:13.289Z</time>
      </trkpt>
      <trkpt lat="44.06701" lon="0.58178">
        <ele>150</ele>
        <time>2025-07-24T14:41:14.289Z</time>
      </trkpt>
      <trkpt lat="44.06701" lon="0.58179">
        <ele>150</ele>
        <time>2025-07-24T14:41:15.289Z</time>
      </trkpt>
      <trkpt lat="44.06701" lon="0.58181">
        <ele>150</ele>
        <time>2025-07-24T14:41:16.289Z</time>
      </trkpt>
      <trkpt lat="44.06701" lon="0.58183">
        <ele>150</ele>
        <time>2025-07-24T14:41:17.289Z</time>
      </trkpt>
      <trkpt lat="44.06701" lon="0.58185">
        <ele>150</ele>
        <time>2025-07-24T14:41:18.289Z</time>
      </trkpt>
      <trkpt lat="44.06701" lon="0.58186">
        <ele>151</ele>
        <time>2025-07-24T14:41:19.289Z</time>
      </trkpt>
      <trkpt lat="44.06701" lon="0.58188">
        <ele>151</ele>
        <time>2025-07-24T14:41:20.289Z</time>
      </trkpt>
      <trkpt lat="44.06702" lon="0.5819">
        <ele>151</ele>
        <time>2025-07-24T14:41:21.289Z</time>
      </trkpt>
      <trkpt lat="44.06702" lon="0.58191">
        <ele>151</ele>
        <time>2025-07-24T14:41:22.289Z</time>
      </trkpt>
      <trkpt lat="44.06703" lon="0.58193">
        <ele>152</ele>
        <time>2025-07-24T14:41:23.289Z</time>
      </trkpt>
      <trkpt lat="44.06703" lon="0.58194">
        <ele>152</ele>
        <time>2025-07-24T14:41:24.289Z</time>
      </trkpt>
      <trkpt lat="44.06703" lon="0.58196">
        <ele>151</ele>
        <time>2025-07-24T14:41:25.289Z</time>
      </trkpt>
      <trkpt lat="44.06703" lon="0.58198">
        <ele>151</ele>
        <time>2025-07-24T14:41:26.289Z</time>
      </trkpt>
      <trkpt lat="44.06703" lon="0.582">
        <ele>151</ele>
        <time>2025-07-24T14:41:27.289Z</time>
      </trkpt>
      <trkpt lat="44.06703" lon="0.58202">
        <ele>150</ele>
        <time>2025-07-24T14:41:28.289Z</time>
      </trkpt>
      <trkpt lat="44.06704" lon="0.58203">
        <ele>150</ele>
        <time>2025-07-24T14:41:29.289Z</time>
      </trkpt>
      <trkpt lat="44.06704" lon="0.58204">
        <ele>150</ele>
        <time>2025-07-24T14:41:30.289Z</time>
      </trkpt>
      <trkpt lat="44.06704" lon="0.58206">
        <ele>150</ele>
        <time>2025-07-24T14:41:31.289Z</time>
      </trkpt>
      <trkpt lat="44.06704" lon="0.58208">
        <ele>150</ele>
        <time>2025-07-24T14:41:32.289Z</time>
      </trkpt>
      <trkpt lat="44.06704" lon="0.5821">
        <ele>150</ele>
        <time>2025-07-24T14:41:33.289Z</time>
      </trkpt>
      <trkpt lat="44.06705" lon="0.58211">
        <ele>149</ele>
        <time>2025-07-24T14:41:34.289Z</time>
      </trkpt>
      <trkpt lat="44.06705" lon="0.58214">
        <ele>149</ele>
        <time>2025-07-24T14:41:35.289Z</time>
      </trkpt>
      <trkpt lat="44.06705" lon="0.58215">
        <ele>149</ele>
        <time>2025-07-24T14:41:36.289Z</time>
      </trkpt>
      <trkpt lat="44.06705" lon="0.58217">
        <ele>149</ele>
        <time>2025-07-24T14:41:37.289Z</time>
      </trkpt>
      <trkpt lat="44.06705" lon="0.58219">
        <ele>150</ele>
        <time>2025-07-24T14:41:38.289Z</time>
      </trkpt>
      <trkpt lat="44.06706" lon="0.5822">
        <ele>150</ele>
        <time>2025-07-24T14:41:39.289Z</time>
      </trkpt>
      <trkpt lat="44.06706" lon="0.58222">
        <ele>150</ele>
        <time>2025-07-24T14:41:40.289Z</time>
      </trkpt>
      <trkpt lat="44.06707" lon="0.58224">
        <ele>150</ele>
        <time>2025-07-24T14:41:41.289Z</time>
      </trkpt>
      <trkpt lat="44.06707" lon="0.58225">
        <ele>150</ele>
        <time>2025-07-24T14:41:42.289Z</time>
      </trkpt>
      <trkpt lat="44.06707" lon="0.58227">
        <ele>150</ele>
        <time>2025-07-24T14:41:43.289Z</time>
      </trkpt>
      <trkpt lat="44.06708" lon="0.58229">
        <ele>150</ele>
        <time>2025-07-24T14:41:44.289Z</time>
      </trkpt>
      <trkpt lat="44.06708" lon="0.58231">
        <ele>150</ele>
        <time>2025-07-24T14:41:45.289Z</time>
      </trkpt>
      <trkpt lat="44.06708" lon="0.58232">
        <ele>150</ele>
        <time>2025-07-24T14:41:46.289Z</time>
      </trkpt>
      <trkpt lat="44.06709" lon="0.58234">
        <ele>150</ele>
        <time>2025-07-24T14:41:47.289Z</time>
      </trkpt>
      <trkpt lat="44.06709" lon="0.58236">
        <ele>150</ele>
        <time>2025-07-24T14:41:48.289Z</time>
      </trkpt>
      <trkpt lat="44.06709" lon="0.58238">
        <ele>149</ele>
        <time>2025-07-24T14:41:49.289Z</time>
      </trkpt>
      <trkpt lat="44.0671" lon="0.5824">
        <ele>149</ele>
        <time>2025-07-24T14:41:50.289Z</time>
      </trkpt>
      <trkpt lat="44.0671" lon="0.58242">
        <ele>149</ele>
        <time>2025-07-24T14:41:51.289Z</time>
      </trkpt>
      <trkpt lat="44.0671" lon="0.58244">
        <ele>149</ele>
        <time>2025-07-24T14:41:52.289Z</time>
      </trkpt>
      <trkpt lat="44.0671" lon="0.58245">
        <ele>149</ele>
        <time>2025-07-24T14:41:53.289Z</time>
      </trkpt>
      <trkpt lat="44.0671" lon="0.58246">
        <ele>149</ele>
        <time>2025-07-24T14:41:54.289Z</time>
      </trkpt>
      <trkpt lat="44.0671" lon="0.58248">
        <ele>148</ele>
        <time>2025-07-24T14:41:55.289Z</time>
      </trkpt>
      <trkpt lat="44.0671" lon="0.5825">
        <ele>148</ele>
        <time>2025-07-24T14:41:56.289Z</time>
      </trkpt>
      <trkpt lat="44.06709" lon="0.58251">
        <ele>148</ele>
        <time>2025-07-24T14:41:57.289Z</time>
      </trkpt>
      <trkpt lat="44.06709" lon="0.58253">
        <ele>148</ele>
        <time>2025-07-24T14:41:58.289Z</time>
      </trkpt>
      <trkpt lat="44.0671" lon="0.58255">
        <ele>147</ele>
        <time>2025-07-24T14:41:59.289Z</time>
      </trkpt>
      <trkpt lat="44.0671" lon="0.58257">
        <ele>147</ele>
        <time>2025-07-24T14:42:00.289Z</time>
      </trkpt>
      <trkpt lat="44.06711" lon="0.58259">
        <ele>147</ele>
        <time>2025-07-24T14:42:01.289Z</time>
      </trkpt>
      <trkpt lat="44.06711" lon="0.58261">
        <ele>147</ele>
        <time>2025-07-24T14:42:02.289Z</time>
      </trkpt>
      <trkpt lat="44.06712" lon="0.58263">
        <ele>146</ele>
        <time>2025-07-24T14:42:03.289Z</time>
      </trkpt>
      <trkpt lat="44.06712" lon="0.58264">
        <ele>146</ele>
        <time>2025-07-24T14:42:04.289Z</time>
      </trkpt>
      <trkpt lat="44.06712" lon="0.58266">
        <ele>146</ele>
        <time>2025-07-24T14:42:05.289Z</time>
      </trkpt>
      <trkpt lat="44.06713" lon="0.58268">
        <ele>146</ele>
        <time>2025-07-24T14:42:06.289Z</time>
      </trkpt>
      <trkpt lat="44.06713" lon="0.58269">
        <ele>146</ele>
        <time>2025-07-24T14:42:07.289Z</time>
      </trkpt>
      <trkpt lat="44.06714" lon="0.58271">
        <ele>146</ele>
        <time>2025-07-24T14:42:08.289Z</time>
      </trkpt>
      <trkpt lat="44.06714" lon="0.58273">
        <ele>147</ele>
        <time>2025-07-24T14:42:09.289Z</time>
      </trkpt>
      <trkpt lat="44.06714" lon="0.58275">
        <ele>147</ele>
        <time>2025-07-24T14:42:10.289Z</time>
      </trkpt>
      <trkpt lat="44.06714" lon="0.58276">
        <ele>147</ele>
        <time>2025-07-24T14:42:11.289Z</time>
      </trkpt>
      <trkpt lat="44.06714" lon="0.58278">
        <ele>147</ele>
        <time>2025-07-24T14:42:12.289Z</time>
      </trkpt>
      <trkpt lat="44.06714" lon="0.5828">
        <ele>147</ele>
        <time>2025-07-24T14:42:13.289Z</time>
      </trkpt>
      <trkpt lat="44.06715" lon="0.58282">
        <ele>147</ele>
        <time>2025-07-24T14:42:14.289Z</time>
      </trkpt>
      <trkpt lat="44.06715" lon="0.58283">
        <ele>147</ele>
        <time>2025-07-24T14:42:15.289Z</time>
      </trkpt>
      <trkpt lat="44.06715" lon="0.58285">
        <ele>147</ele>
        <time>2025-07-24T14:42:16.289Z</time>
      </trkpt>
      <trkpt lat="44.06715" lon="0.58287">
        <ele>146</ele>
        <time>2025-07-24T14:42:17.289Z</time>
      </trkpt>
      <trkpt lat="44.06715" lon="0.58288">
        <ele>146</ele>
        <time>2025-07-24T14:42:18.289Z</time>
      </trkpt>
      <trkpt lat="44.06715" lon="0.5829">
        <ele>146</ele>
        <time>2025-07-24T14:42:19.289Z</time>
      </trkpt>
      <trkpt lat="44.06715" lon="0.58292">
        <ele>146</ele>
        <time>2025-07-24T14:42:20.289Z</time>
      </trkpt>
      <trkpt lat="44.06715" lon="0.58294">
        <ele>146</ele>
        <time>2025-07-24T14:42:21.289Z</time>
      </trkpt>
      <trkpt lat="44.06715" lon="0.58296">
        <ele>145</ele>
        <time>2025-07-24T14:42:22.289Z</time>
      </trkpt>
      <trkpt lat="44.06715" lon="0.58297">
        <ele>146</ele>
        <time>2025-07-24T14:42:23.289Z</time>
      </trkpt>
      <trkpt lat="44.06715" lon="0.58299">
        <ele>146</ele>
        <time>2025-07-24T14:42:24.289Z</time>
      </trkpt>
      <trkpt lat="44.06715" lon="0.58301">
        <ele>146</ele>
        <time>2025-07-24T14:42:25.289Z</time>
      </trkpt>
      <trkpt lat="44.06715" lon="0.58302">
        <ele>146</ele>
        <time>2025-07-24T14:42:26.289Z</time>
      </trkpt>
      <trkpt lat="44.06716" lon="0.58303">
        <ele>146</ele>
        <time>2025-07-24T14:42:27.289Z</time>
      </trkpt>
      <trkpt lat="44.06716" lon="0.58305">
        <ele>146</ele>
        <time>2025-07-24T14:42:28.289Z</time>
      </trkpt>
      <trkpt lat="44.06716" lon="0.58307">
        <ele>146</ele>
        <time>2025-07-24T14:42:29.289Z</time>
      </trkpt>
      <trkpt lat="44.06716" lon="0.58309">
        <ele>146</ele>
        <time>2025-07-24T14:42:30.289Z</time>
      </trkpt>
      <trkpt lat="44.06716" lon="0.5831">
        <ele>146</ele>
        <time>2025-07-24T14:42:31.289Z</time>
      </trkpt>
      <trkpt lat="44.06717" lon="0.58312">
        <ele>146</ele>
        <time>2025-07-24T14:42:32.289Z</time>
      </trkpt>
      <trkpt lat="44.06717" lon="0.58314">
        <ele>146</ele>
        <time>2025-07-24T14:42:33.289Z</time>
      </trkpt>
      <trkpt lat="44.06717" lon="0.58315">
        <ele>146</ele>
        <time>2025-07-24T14:42:34.289Z</time>
      </trkpt>
      <trkpt lat="44.06717" lon="0.58317">
        <ele>146</ele>
        <time>2025-07-24T14:42:35.289Z</time>
      </trkpt>
      <trkpt lat="44.06717" lon="0.58318">
        <ele>146</ele>
        <time>2025-07-24T14:42:36.289Z</time>
      </trkpt>
      <trkpt lat="44.06717" lon="0.5832">
        <ele>146</ele>
        <time>2025-07-24T14:42:37.289Z</time>
      </trkpt>
      <trkpt lat="44.06717" lon="0.58321">
        <ele>146</ele>
        <time>2025-07-24T14:42:38.289Z</time>
      </trkpt>
      <trkpt lat="44.06717" lon="0.58323">
        <ele>146</ele>
        <time>2025-07-24T14:42:39.289Z</time>
      </trkpt>
      <trkpt lat="44.06717" lon="0.58325">
        <ele>147</ele>
        <time>2025-07-24T14:42:40.289Z</time>
      </trkpt>
      <trkpt lat="44.06718" lon="0.58326">
        <ele>147</ele>
        <time>2025-07-24T14:42:41.289Z</time>
      </trkpt>
      <trkpt lat="44.06718" lon="0.58328">
        <ele>148</ele>
        <time>2025-07-24T14:42:42.289Z</time>
      </trkpt>
      <trkpt lat="44.06718" lon="0.58329">
        <ele>148</ele>
        <time>2025-07-24T14:42:43.289Z</time>
      </trkpt>
      <trkpt lat="44.06718" lon="0.58331">
        <ele>148</ele>
        <time>2025-07-24T14:42:44.289Z</time>
      </trkpt>
      <trkpt lat="44.06718" lon="0.58333">
        <ele>148</ele>
        <time>2025-07-24T14:42:45.289Z</time>
      </trkpt>
      <trkpt lat="44.06717" lon="0.58334">
        <ele>148</ele>
        <time>2025-07-24T14:42:46.289Z</time>
      </trkpt>
      <trkpt lat="44.06717" lon="0.58336">
        <ele>148</ele>
        <time>2025-07-24T14:42:47.289Z</time>
      </trkpt>
      <trkpt lat="44.06717" lon="0.58338">
        <ele>148</ele>
        <time>2025-07-24T14:42:48.289Z</time>
      </trkpt>
      <trkpt lat="44.06717" lon="0.5834">
        <ele>148</ele>
        <time>2025-07-24T14:42:49.289Z</time>
      </trkpt>
      <trkpt lat="44.06716" lon="0.58341">
        <ele>149</ele>
        <time>2025-07-24T14:42:50.289Z</time>
      </trkpt>
      <trkpt lat="44.06716" lon="0.58343">
        <ele>148</ele>
        <time>2025-07-24T14:42:51.289Z</time>
      </trkpt>
      <trkpt lat="44.06716" lon="0.58344">
        <ele>148</ele>
        <time>2025-07-24T14:42:52.289Z</time>
      </trkpt>
      <trkpt lat="44.06716" lon="0.58346">
        <ele>148</ele>
        <time>2025-07-24T14:42:53.289Z</time>
      </trkpt>
      <trkpt lat="44.06715" lon="0.58347">
        <ele>148</ele>
        <time>2025-07-24T14:42:54.289Z</time>
      </trkpt>
      <trkpt lat="44.06714" lon="0.58349">
        <ele>148</ele>
        <time>2025-07-24T14:42:55.289Z</time>
      </trkpt>
      <trkpt lat="44.06714" lon="0.5835">
        <ele>148</ele>
        <time>2025-07-24T14:42:56.289Z</time>
      </trkpt>
      <trkpt lat="44.06714" lon="0.58352">
        <ele>147</ele>
        <time>2025-07-24T14:42:57.289Z</time>
      </trkpt>
      <trkpt lat="44.06713" lon="0.58354">
        <ele>147</ele>
        <time>2025-07-24T14:42:58.289Z</time>
      </trkpt>
      <trkpt lat="44.06713" lon="0.58355">
        <ele>147</ele>
        <time>2025-07-24T14:42:59.289Z</time>
      </trkpt>
      <trkpt lat="44.06712" lon="0.58357">
        <ele>148</ele>
        <time>2025-07-24T14:43:00.289Z</time>
      </trkpt>
      <trkpt lat="44.06711" lon="0.58358">
        <ele>148</ele>
        <time>2025-07-24T14:43:01.289Z</time>
      </trkpt>
      <trkpt lat="44.06711" lon="0.58359">
        <ele>148</ele>
        <time>2025-07-24T14:43:02.289Z</time>
      </trkpt>
      <trkpt lat="44.0671" lon="0.58361">
        <ele>148</ele>
        <time>2025-07-24T14:43:03.289Z</time>
      </trkpt>
      <trkpt lat="44.06709" lon="0.58362">
        <ele>148</ele>
        <time>2025-07-24T14:43:04.289Z</time>
      </trkpt>
      <trkpt lat="44.06709" lon="0.58363">
        <ele>148</ele>
        <time>2025-07-24T14:43:05.289Z</time>
      </trkpt>
      <trkpt lat="44.06708" lon="0.58365">
        <ele>147</ele>
        <time>2025-07-24T14:43:06.289Z</time>
      </trkpt>
      <trkpt lat="44.06708" lon="0.58366">
        <ele>147</ele>
        <time>2025-07-24T14:43:07.290Z</time>
      </trkpt>
      <trkpt lat="44.06707" lon="0.58367">
        <ele>147</ele>
        <time>2025-07-24T14:43:08.289Z</time>
      </trkpt>
      <trkpt lat="44.06707" lon="0.58369">
        <ele>147</ele>
        <time>2025-07-24T14:43:09.289Z</time>
      </trkpt>
      <trkpt lat="44.06706" lon="0.58369">
        <ele>147</ele>
        <time>2025-07-24T14:43:10.289Z</time>
      </trkpt>
      <trkpt lat="44.06706" lon="0.5837">
        <ele>148</ele>
        <time>2025-07-24T14:43:11.289Z</time>
      </trkpt>
      <trkpt lat="44.06705" lon="0.58373">
        <ele>148</ele>
        <time>2025-07-24T14:43:12.289Z</time>
      </trkpt>
      <trkpt lat="44.06704" lon="0.58374">
        <ele>148</ele>
        <time>2025-07-24T14:43:13.289Z</time>
      </trkpt>
      <trkpt lat="44.06704" lon="0.58376">
        <ele>149</ele>
        <time>2025-07-24T14:43:14.289Z</time>
      </trkpt>
      <trkpt lat="44.06703" lon="0.58377">
        <ele>149</ele>
        <time>2025-07-24T14:43:15.289Z</time>
      </trkpt>
      <trkpt lat="44.06703" lon="0.58379">
        <ele>149</ele>
        <time>2025-07-24T14:43:16.290Z</time>
      </trkpt>
      <trkpt lat="44.06702" lon="0.5838">
        <ele>148</ele>
        <time>2025-07-24T14:43:17.289Z</time>
      </trkpt>
      <trkpt lat="44.06701" lon="0.58381">
        <ele>148</ele>
        <time>2025-07-24T14:43:18.289Z</time>
      </trkpt>
      <trkpt lat="44.06701" lon="0.58383">
        <ele>148</ele>
        <time>2025-07-24T14:43:19.289Z</time>
      </trkpt>
      <trkpt lat="44.067" lon="0.58384">
        <ele>148</ele>
        <time>2025-07-24T14:43:20.289Z</time>
      </trkpt>
      <trkpt lat="44.06699" lon="0.58385">
        <ele>148</ele>
        <time>2025-07-24T14:43:21.289Z</time>
      </trkpt>
      <trkpt lat="44.06699" lon="0.58386">
        <ele>148</ele>
        <time>2025-07-24T14:43:22.289Z</time>
      </trkpt>
      <trkpt lat="44.06698" lon="0.58388">
        <ele>147</ele>
        <time>2025-07-24T14:43:23.289Z</time>
      </trkpt>
      <trkpt lat="44.06698" lon="0.58389">
        <ele>147</ele>
        <time>2025-07-24T14:43:24.289Z</time>
      </trkpt>
      <trkpt lat="44.06697" lon="0.5839">
        <ele>147</ele>
        <time>2025-07-24T14:43:25.289Z</time>
      </trkpt>
      <trkpt lat="44.06696" lon="0.58392">
        <ele>147</ele>
        <time>2025-07-24T14:43:26.289Z</time>
      </trkpt>
      <trkpt lat="44.06695" lon="0.58394">
        <ele>147</ele>
        <time>2025-07-24T14:43:27.289Z</time>
      </trkpt>
      <trkpt lat="44.06695" lon="0.58395">
        <ele>147</ele>
        <time>2025-07-24T14:43:28.289Z</time>
      </trkpt>
      <trkpt lat="44.06694" lon="0.58397">
        <ele>147</ele>
        <time>2025-07-24T14:43:29.289Z</time>
      </trkpt>
      <trkpt lat="44.06693" lon="0.58398">
        <ele>148</ele>
        <time>2025-07-24T14:43:30.289Z</time>
      </trkpt>
      <trkpt lat="44.06693" lon="0.58399">
        <ele>148</ele>
        <time>2025-07-24T14:43:31.289Z</time>
      </trkpt>
      <trkpt lat="44.06693" lon="0.58399">
        <ele>148</ele>
        <time>2025-07-24T14:43:32.289Z</time>
      </trkpt>
      <trkpt lat="44.06693" lon="0.58401">
        <ele>149</ele>
        <time>2025-07-24T14:43:33.289Z</time>
      </trkpt>
      <trkpt lat="44.06693" lon="0.58402">
        <ele>149</ele>
        <time>2025-07-24T14:43:34.289Z</time>
      </trkpt>
      <trkpt lat="44.06693" lon="0.58403">
        <ele>149</ele>
        <time>2025-07-24T14:43:35.289Z</time>
      </trkpt>
      <trkpt lat="44.06692" lon="0.58404">
        <ele>149</ele>
        <time>2025-07-24T14:43:36.289Z</time>
      </trkpt>
      <trkpt lat="44.06692" lon="0.58406">
        <ele>149</ele>
        <time>2025-07-24T14:43:37.289Z</time>
      </trkpt>
      <trkpt lat="44.06691" lon="0.58407">
        <ele>149</ele>
        <time>2025-07-24T14:43:38.289Z</time>
      </trkpt>
      <trkpt lat="44.0669" lon="0.58408">
        <ele>148</ele>
        <time>2025-07-24T14:43:39.289Z</time>
      </trkpt>
      <trkpt lat="44.06688" lon="0.58409">
        <ele>148</ele>
        <time>2025-07-24T14:43:40.289Z</time>
      </trkpt>
      <trkpt lat="44.06687" lon="0.5841">
        <ele>147</ele>
        <time>2025-07-24T14:43:41.289Z</time>
      </trkpt>
      <trkpt lat="44.06686" lon="0.58412">
        <ele>147</ele>
        <time>2025-07-24T14:43:42.289Z</time>
      </trkpt>
      <trkpt lat="44.06686" lon="0.58413">
        <ele>147</ele>
        <time>2025-07-24T14:43:43.289Z</time>
      </trkpt>
      <trkpt lat="44.06685" lon="0.58415">
        <ele>147</ele>
        <time>2025-07-24T14:43:44.290Z</time>
      </trkpt>
      <trkpt lat="44.06685" lon="0.58416">
        <ele>147</ele>
        <time>2025-07-24T14:43:45.289Z</time>
      </trkpt>
      <trkpt lat="44.06684" lon="0.58417">
        <ele>147</ele>
        <time>2025-07-24T14:43:46.289Z</time>
      </trkpt>
      <trkpt lat="44.06683" lon="0.58419">
        <ele>147</ele>
        <time>2025-07-24T14:43:47.290Z</time>
      </trkpt>
      <trkpt lat="44.06682" lon="0.5842">
        <ele>147</ele>
        <time>2025-07-24T14:43:48.289Z</time>
      </trkpt>
      <trkpt lat="44.06682" lon="0.58421">
        <ele>147</ele>
        <time>2025-07-24T14:43:49.289Z</time>
      </trkpt>
      <trkpt lat="44.06681" lon="0.58422">
        <ele>147</ele>
        <time>2025-07-24T14:43:50.289Z</time>
      </trkpt>
      <trkpt lat="44.0668" lon="0.58423">
        <ele>147</ele>
        <time>2025-07-24T14:43:51.289Z</time>
      </trkpt>
      <trkpt lat="44.06679" lon="0.58425">
        <ele>147</ele>
        <time>2025-07-24T14:43:52.289Z</time>
      </trkpt>
      <trkpt lat="44.06678" lon="0.58425">
        <ele>147</ele>
        <time>2025-07-24T14:43:53.289Z</time>
      </trkpt>
      <trkpt lat="44.06677" lon="0.58426">
        <ele>147</ele>
        <time>2025-07-24T14:43:54.289Z</time>
      </trkpt>
      <trkpt lat="44.06676" lon="0.58427">
        <ele>147</ele>
        <time>2025-07-24T14:43:55.289Z</time>
      </trkpt>
      <trkpt lat="44.06676" lon="0.58428">
        <ele>147</ele>
        <time>2025-07-24T14:43:56.289Z</time>
      </trkpt>
      <trkpt lat="44.06675" lon="0.5843">
        <ele>147</ele>
        <time>2025-07-24T14:43:57.289Z</time>
      </trkpt>
      <trkpt lat="44.06675" lon="0.58431">
        <ele>147</ele>
        <time>2025-07-24T14:43:58.289Z</time>
      </trkpt>
      <trkpt lat="44.06674" lon="0.58432">
        <ele>146</ele>
        <time>2025-07-24T14:43:59.289Z</time>
      </trkpt>
      <trkpt lat="44.06673" lon="0.58433">
        <ele>146</ele>
        <time>2025-07-24T14:44:00.289Z</time>
      </trkpt>
      <trkpt lat="44.06673" lon="0.58434">
        <ele>146</ele>
        <time>2025-07-24T14:44:01.289Z</time>
      </trkpt>
      <trkpt lat="44.06672" lon="0.58435">
        <ele>146</ele>
        <time>2025-07-24T14:44:02.289Z</time>
      </trkpt>
      <trkpt lat="44.06672" lon="0.58436">
        <ele>146</ele>
        <time>2025-07-24T14:44:03.289Z</time>
      </trkpt>
      <trkpt lat="44.06671" lon="0.58438">
        <ele>146</ele>
        <time>2025-07-24T14:44:04.289Z</time>
      </trkpt>
      <trkpt lat="44.0667" lon="0.58439">
        <ele>146</ele>
        <time>2025-07-24T14:44:05.289Z</time>
      </trkpt>
      <trkpt lat="44.06669" lon="0.58441">
        <ele>146</ele>
        <time>2025-07-24T14:44:06.289Z</time>
      </trkpt>
      <trkpt lat="44.06668" lon="0.58442">
        <ele>146</ele>
        <time>2025-07-24T14:44:07.289Z</time>
      </trkpt>
      <trkpt lat="44.06667" lon="0.58444">
        <ele>146</ele>
        <time>2025-07-24T14:44:08.289Z</time>
      </trkpt>
      <trkpt lat="44.06666" lon="0.58445">
        <ele>145</ele>
        <time>2025-07-24T14:44:09.289Z</time>
      </trkpt>
      <trkpt lat="44.06666" lon="0.58447">
        <ele>145</ele>
        <time>2025-07-24T14:44:10.289Z</time>
      </trkpt>
      <trkpt lat="44.06665" lon="0.58449">
        <ele>144</ele>
        <time>2025-07-24T14:44:11.289Z</time>
      </trkpt>
      <trkpt lat="44.06665" lon="0.5845">
        <ele>144</ele>
        <time>2025-07-24T14:44:12.289Z</time>
      </trkpt>
      <trkpt lat="44.06664" lon="0.58452">
        <ele>144</ele>
        <time>2025-07-24T14:44:13.289Z</time>
      </trkpt>
      <trkpt lat="44.06663" lon="0.58454">
        <ele>144</ele>
        <time>2025-07-24T14:44:14.289Z</time>
      </trkpt>
      <trkpt lat="44.06663" lon="0.58455">
        <ele>144</ele>
        <time>2025-07-24T14:44:15.289Z</time>
      </trkpt>
      <trkpt lat="44.06662" lon="0.58457">
        <ele>144</ele>
        <time>2025-07-24T14:44:16.289Z</time>
      </trkpt>
      <trkpt lat="44.06662" lon="0.58459">
        <ele>144</ele>
        <time>2025-07-24T14:44:17.289Z</time>
      </trkpt>
      <trkpt lat="44.06661" lon="0.58461">
        <ele>144</ele>
        <time>2025-07-24T14:44:18.289Z</time>
      </trkpt>
      <trkpt lat="44.06661" lon="0.58462">
        <ele>143</ele>
        <time>2025-07-24T14:44:19.289Z</time>
      </trkpt>
      <trkpt lat="44.0666" lon="0.58464">
        <ele>143</ele>
        <time>2025-07-24T14:44:20.289Z</time>
      </trkpt>
      <trkpt lat="44.0666" lon="0.58466">
        <ele>143</ele>
        <time>2025-07-24T14:44:21.289Z</time>
      </trkpt>
      <trkpt lat="44.06659" lon="0.58468">
        <ele>142</ele>
        <time>2025-07-24T14:44:22.289Z</time>
      </trkpt>
      <trkpt lat="44.06659" lon="0.5847">
        <ele>142</ele>
        <time>2025-07-24T14:44:23.289Z</time>
      </trkpt>
      <trkpt lat="44.06659" lon="0.58471">
        <ele>143</ele>
        <time>2025-07-24T14:44:24.289Z</time>
      </trkpt>
      <trkpt lat="44.06658" lon="0.58473">
        <ele>143</ele>
        <time>2025-07-24T14:44:25.289Z</time>
      </trkpt>
      <trkpt lat="44.06658" lon="0.58475">
        <ele>143</ele>
        <time>2025-07-24T14:44:26.289Z</time>
      </trkpt>
      <trkpt lat="44.06657" lon="0.58476">
        <ele>143</ele>
        <time>2025-07-24T14:44:27.289Z</time>
      </trkpt>
      <trkpt lat="44.06657" lon="0.58478">
        <ele>143</ele>
        <time>2025-07-24T14:44:28.289Z</time>
      </trkpt>
      <trkpt lat="44.06657" lon="0.5848">
        <ele>143</ele>
        <time>2025-07-24T14:44:29.289Z</time>
      </trkpt>
      <trkpt lat="44.06656" lon="0.58481">
        <ele>143</ele>
        <time>2025-07-24T14:44:30.289Z</time>
      </trkpt>
      <trkpt lat="44.06656" lon="0.58483">
        <ele>143</ele>
        <time>2025-07-24T14:44:31.289Z</time>
      </trkpt>
      <trkpt lat="44.06655" lon="0.58485">
        <ele>142</ele>
        <time>2025-07-24T14:44:32.289Z</time>
      </trkpt>
      <trkpt lat="44.06655" lon="0.58487">
        <ele>142</ele>
        <time>2025-07-24T14:44:33.289Z</time>
      </trkpt>
      <trkpt lat="44.06655" lon="0.58489">
        <ele>142</ele>
        <time>2025-07-24T14:44:34.289Z</time>
      </trkpt>
      <trkpt lat="44.06655" lon="0.58491">
        <ele>142</ele>
        <time>2025-07-24T14:44:35.289Z</time>
      </trkpt>
      <trkpt lat="44.06654" lon="0.58493">
        <ele>142</ele>
        <time>2025-07-24T14:44:36.289Z</time>
      </trkpt>
      <trkpt lat="44.06654" lon="0.58495">
        <ele>142</ele>
        <time>2025-07-24T14:44:37.289Z</time>
      </trkpt>
      <trkpt lat="44.06654" lon="0.58497">
        <ele>142</ele>
        <time>2025-07-24T14:44:38.289Z</time>
      </trkpt>
      <trkpt lat="44.06654" lon="0.58499">
        <ele>141</ele>
        <time>2025-07-24T14:44:39.289Z</time>
      </trkpt>
      <trkpt lat="44.06654" lon="0.58501">
        <ele>141</ele>
        <time>2025-07-24T14:44:40.289Z</time>
      </trkpt>
      <trkpt lat="44.06654" lon="0.58503">
        <ele>141</ele>
        <time>2025-07-24T14:44:41.289Z</time>
      </trkpt>
      <trkpt lat="44.06654" lon="0.58504">
        <ele>141</ele>
        <time>2025-07-24T14:44:42.289Z</time>
      </trkpt>
      <trkpt lat="44.06654" lon="0.58506">
        <ele>140</ele>
        <time>2025-07-24T14:44:43.289Z</time>
      </trkpt>
      <trkpt lat="44.06654" lon="0.58508">
        <ele>140</ele>
        <time>2025-07-24T14:44:44.289Z</time>
      </trkpt>
      <trkpt lat="44.06654" lon="0.5851">
        <ele>140</ele>
        <time>2025-07-24T14:44:45.289Z</time>
      </trkpt>
      <trkpt lat="44.06653" lon="0.58511">
        <ele>140</ele>
        <time>2025-07-24T14:44:46.289Z</time>
      </trkpt>
      <trkpt lat="44.06653" lon="0.58513">
        <ele>140</ele>
        <time>2025-07-24T14:44:47.289Z</time>
      </trkpt>
      <trkpt lat="44.06653" lon="0.58515">
        <ele>139</ele>
        <time>2025-07-24T14:44:48.289Z</time>
      </trkpt>
      <trkpt lat="44.06653" lon="0.58516">
        <ele>139</ele>
        <time>2025-07-24T14:44:49.289Z</time>
      </trkpt>
      <trkpt lat="44.06653" lon="0.58518">
        <ele>139</ele>
        <time>2025-07-24T14:44:50.289Z</time>
      </trkpt>
      <trkpt lat="44.06653" lon="0.5852">
        <ele>139</ele>
        <time>2025-07-24T14:44:51.289Z</time>
      </trkpt>
      <trkpt lat="44.06652" lon="0.58521">
        <ele>139</ele>
        <time>2025-07-24T14:44:52.289Z</time>
      </trkpt>
      <trkpt lat="44.06652" lon="0.58523">
        <ele>139</ele>
        <time>2025-07-24T14:44:53.289Z</time>
      </trkpt>
      <trkpt lat="44.06652" lon="0.58525">
        <ele>139</ele>
        <time>2025-07-24T14:44:54.289Z</time>
      </trkpt>
      <trkpt lat="44.06652" lon="0.58527">
        <ele>139</ele>
        <time>2025-07-24T14:44:55.290Z</time>
      </trkpt>
      <trkpt lat="44.06652" lon="0.58529">
        <ele>139</ele>
        <time>2025-07-24T14:44:56.289Z</time>
      </trkpt>
      <trkpt lat="44.06652" lon="0.58531">
        <ele>139</ele>
        <time>2025-07-24T14:44:57.289Z</time>
      </trkpt>
      <trkpt lat="44.06651" lon="0.58532">
        <ele>139</ele>
        <time>2025-07-24T14:44:58.289Z</time>
      </trkpt>
      <trkpt lat="44.06651" lon="0.58534">
        <ele>139</ele>
        <time>2025-07-24T14:44:59.289Z</time>
      </trkpt>
      <trkpt lat="44.06652" lon="0.58536">
        <ele>139</ele>
        <time>2025-07-24T14:45:00.289Z</time>
      </trkpt>
      <trkpt lat="44.06652" lon="0.58537">
        <ele>139</ele>
        <time>2025-07-24T14:45:01.289Z</time>
      </trkpt>
      <trkpt lat="44.06652" lon="0.58539">
        <ele>139</ele>
        <time>2025-07-24T14:45:02.289Z</time>
      </trkpt>
      <trkpt lat="44.06652" lon="0.5854">
        <ele>138</ele>
        <time>2025-07-24T14:45:03.289Z</time>
      </trkpt>
      <trkpt lat="44.06651" lon="0.58543">
        <ele>138</ele>
        <time>2025-07-24T14:45:04.289Z</time>
      </trkpt>
      <trkpt lat="44.06651" lon="0.58545">
        <ele>138</ele>
        <time>2025-07-24T14:45:05.289Z</time>
      </trkpt>
      <trkpt lat="44.06651" lon="0.58546">
        <ele>139</ele>
        <time>2025-07-24T14:45:06.289Z</time>
      </trkpt>
      <trkpt lat="44.0665" lon="0.58548">
        <ele>139</ele>
        <time>2025-07-24T14:45:07.289Z</time>
      </trkpt>
      <trkpt lat="44.0665" lon="0.5855">
        <ele>140</ele>
        <time>2025-07-24T14:45:08.289Z</time>
      </trkpt>
      <trkpt lat="44.0665" lon="0.58552">
        <ele>140</ele>
        <time>2025-07-24T14:45:09.289Z</time>
      </trkpt>
      <trkpt lat="44.0665" lon="0.58554">
        <ele>140</ele>
        <time>2025-07-24T14:45:10.289Z</time>
      </trkpt>
      <trkpt lat="44.0665" lon="0.58555">
        <ele>140</ele>
        <time>2025-07-24T14:45:11.289Z</time>
      </trkpt>
      <trkpt lat="44.0665" lon="0.58557">
        <ele>140</ele>
        <time>2025-07-24T14:45:12.289Z</time>
      </trkpt>
      <trkpt lat="44.0665" lon="0.58558">
        <ele>140</ele>
        <time>2025-07-24T14:45:13.289Z</time>
      </trkpt>
      <trkpt lat="44.06649" lon="0.5856">
        <ele>140</ele>
        <time>2025-07-24T14:45:14.289Z</time>
      </trkpt>
      <trkpt lat="44.06649" lon="0.58562">
        <ele>140</ele>
        <time>2025-07-24T14:45:15.289Z</time>
      </trkpt>
      <trkpt lat="44.06649" lon="0.58564">
        <ele>140</ele>
        <time>2025-07-24T14:45:16.289Z</time>
      </trkpt>
      <trkpt lat="44.06649" lon="0.58565">
        <ele>140</ele>
        <time>2025-07-24T14:45:17.289Z</time>
      </trkpt>
      <trkpt lat="44.06649" lon="0.58567">
        <ele>140</ele>
        <time>2025-07-24T14:45:18.289Z</time>
      </trkpt>
      <trkpt lat="44.06649" lon="0.58569">
        <ele>140</ele>
        <time>2025-07-24T14:45:19.289Z</time>
      </trkpt>
      <trkpt lat="44.06649" lon="0.5857">
        <ele>140</ele>
        <time>2025-07-24T14:45:20.289Z</time>
      </trkpt>
      <trkpt lat="44.06649" lon="0.58572">
        <ele>139</ele>
        <time>2025-07-24T14:45:21.289Z</time>
      </trkpt>
      <trkpt lat="44.06648" lon="0.58574">
        <ele>139</ele>
        <time>2025-07-24T14:45:22.289Z</time>
      </trkpt>
      <trkpt lat="44.06648" lon="0.58576">
        <ele>139</ele>
        <time>2025-07-24T14:45:23.289Z</time>
      </trkpt>
      <trkpt lat="44.06648" lon="0.58577">
        <ele>138</ele>
        <time>2025-07-24T14:45:24.289Z</time>
      </trkpt>
      <trkpt lat="44.06648" lon="0.58579">
        <ele>138</ele>
        <time>2025-07-24T14:45:25.289Z</time>
      </trkpt>
      <trkpt lat="44.06648" lon="0.58581">
        <ele>138</ele>
        <time>2025-07-24T14:45:26.289Z</time>
      </trkpt>
      <trkpt lat="44.06648" lon="0.58582">
        <ele>138</ele>
        <time>2025-07-24T14:45:27.289Z</time>
      </trkpt>
      <trkpt lat="44.06647" lon="0.58584">
        <ele>138</ele>
        <time>2025-07-24T14:45:28.289Z</time>
      </trkpt>
      <trkpt lat="44.06647" lon="0.58586">
        <ele>137</ele>
        <time>2025-07-24T14:45:29.289Z</time>
      </trkpt>
      <trkpt lat="44.06647" lon="0.58587">
        <ele>137</ele>
        <time>2025-07-24T14:45:30.289Z</time>
      </trkpt>
      <trkpt lat="44.06646" lon="0.58589">
        <ele>137</ele>
        <time>2025-07-24T14:45:31.289Z</time>
      </trkpt>
      <trkpt lat="44.06646" lon="0.58591">
        <ele>136</ele>
        <time>2025-07-24T14:45:32.289Z</time>
      </trkpt>
      <trkpt lat="44.06646" lon="0.58593">
        <ele>136</ele>
        <time>2025-07-24T14:45:33.289Z</time>
      </trkpt>
      <trkpt lat="44.06645" lon="0.58595">
        <ele>136</ele>
        <time>2025-07-24T14:45:34.289Z</time>
      </trkpt>
      <trkpt lat="44.06645" lon="0.58596">
        <ele>136</ele>
        <time>2025-07-24T14:45:35.289Z</time>
      </trkpt>
      <trkpt lat="44.06644" lon="0.58598">
        <ele>135</ele>
        <time>2025-07-24T14:45:36.289Z</time>
      </trkpt>
      <trkpt lat="44.06644" lon="0.586">
        <ele>135</ele>
        <time>2025-07-24T14:45:37.289Z</time>
      </trkpt>
      <trkpt lat="44.06644" lon="0.58602">
        <ele>135</ele>
        <time>2025-07-24T14:45:38.289Z</time>
      </trkpt>
      <trkpt lat="44.06643" lon="0.58604">
        <ele>134</ele>
        <time>2025-07-24T14:45:39.289Z</time>
      </trkpt>
      <trkpt lat="44.06643" lon="0.58606">
        <ele>134</ele>
        <time>2025-07-24T14:45:40.289Z</time>
      </trkpt>
      <trkpt lat="44.06643" lon="0.58608">
        <ele>134</ele>
        <time>2025-07-24T14:45:41.289Z</time>
      </trkpt>
      <trkpt lat="44.06642" lon="0.5861">
        <ele>133</ele>
        <time>2025-07-24T14:45:42.289Z</time>
      </trkpt>
      <trkpt lat="44.06642" lon="0.58612">
        <ele>133</ele>
        <time>2025-07-24T14:45:43.289Z</time>
      </trkpt>
      <trkpt lat="44.06642" lon="0.58613">
        <ele>133</ele>
        <time>2025-07-24T14:45:44.289Z</time>
      </trkpt>
      <trkpt lat="44.06641" lon="0.58615">
        <ele>133</ele>
        <time>2025-07-24T14:45:45.289Z</time>
      </trkpt>
      <trkpt lat="44.0664" lon="0.58617">
        <ele>133</ele>
        <time>2025-07-24T14:45:46.289Z</time>
      </trkpt>
      <trkpt lat="44.0664" lon="0.58618">
        <ele>133</ele>
        <time>2025-07-24T14:45:47.289Z</time>
      </trkpt>
      <trkpt lat="44.0664" lon="0.5862">
        <ele>133</ele>
        <time>2025-07-24T14:45:48.289Z</time>
      </trkpt>
      <trkpt lat="44.06639" lon="0.58621">
        <ele>133</ele>
        <time>2025-07-24T14:45:49.289Z</time>
      </trkpt>
      <trkpt lat="44.06639" lon="0.58623">
        <ele>133</ele>
        <time>2025-07-24T14:45:50.289Z</time>
      </trkpt>
      <trkpt lat="44.06638" lon="0.58624">
        <ele>134</ele>
        <time>2025-07-24T14:45:51.289Z</time>
      </trkpt>
      <trkpt lat="44.06638" lon="0.58626">
        <ele>134</ele>
        <time>2025-07-24T14:45:52.289Z</time>
      </trkpt>
      <trkpt lat="44.06637" lon="0.58628">
        <ele>134</ele>
        <time>2025-07-24T14:45:53.289Z</time>
      </trkpt>
      <trkpt lat="44.06636" lon="0.58629">
        <ele>134</ele>
        <time>2025-07-24T14:45:54.289Z</time>
      </trkpt>
      <trkpt lat="44.06636" lon="0.58631">
        <ele>133</ele>
        <time>2025-07-24T14:45:55.289Z</time>
      </trkpt>
      <trkpt lat="44.06635" lon="0.58633">
        <ele>133</ele>
        <time>2025-07-24T14:45:56.289Z</time>
      </trkpt>
      <trkpt lat="44.06635" lon="0.58634">
        <ele>133</ele>
        <time>2025-07-24T14:45:57.290Z</time>
      </trkpt>
      <trkpt lat="44.06634" lon="0.58636">
        <ele>133</ele>
        <time>2025-07-24T14:45:58.289Z</time>
      </trkpt>
      <trkpt lat="44.06634" lon="0.58637">
        <ele>132</ele>
        <time>2025-07-24T14:45:59.289Z</time>
      </trkpt>
      <trkpt lat="44.06634" lon="0.58638">
        <ele>132</ele>
        <time>2025-07-24T14:46:00.289Z</time>
      </trkpt>
      <trkpt lat="44.06633" lon="0.5864">
        <ele>133</ele>
        <time>2025-07-24T14:46:01.289Z</time>
      </trkpt>
      <trkpt lat="44.06633" lon="0.58641">
        <ele>133</ele>
        <time>2025-07-24T14:46:02.289Z</time>
      </trkpt>
      <trkpt lat="44.06633" lon="0.58643">
        <ele>132</ele>
        <time>2025-07-24T14:46:03.289Z</time>
      </trkpt>
      <trkpt lat="44.06632" lon="0.58645">
        <ele>132</ele>
        <time>2025-07-24T14:46:04.289Z</time>
      </trkpt>
      <trkpt lat="44.06631" lon="0.58646">
        <ele>132</ele>
        <time>2025-07-24T14:46:05.289Z</time>
      </trkpt>
      <trkpt lat="44.0663" lon="0.58648">
        <ele>132</ele>
        <time>2025-07-24T14:46:06.289Z</time>
      </trkpt>
      <trkpt lat="44.0663" lon="0.58649">
        <ele>131</ele>
        <time>2025-07-24T14:46:07.289Z</time>
      </trkpt>
      <trkpt lat="44.06629" lon="0.58651">
        <ele>131</ele>
        <time>2025-07-24T14:46:08.289Z</time>
      </trkpt>
      <trkpt lat="44.06629" lon="0.58652">
        <ele>131</ele>
        <time>2025-07-24T14:46:09.289Z</time>
      </trkpt>
      <trkpt lat="44.06628" lon="0.58653">
        <ele>131</ele>
        <time>2025-07-24T14:46:10.289Z</time>
      </trkpt>
      <trkpt lat="44.06627" lon="0.58655">
        <ele>131</ele>
        <time>2025-07-24T14:46:11.289Z</time>
      </trkpt>
      <trkpt lat="44.06627" lon="0.58656">
        <ele>130</ele>
        <time>2025-07-24T14:46:12.289Z</time>
      </trkpt>
      <trkpt lat="44.06627" lon="0.58657">
        <ele>130</ele>
        <time>2025-07-24T14:46:13.289Z</time>
      </trkpt>
      <trkpt lat="44.06626" lon="0.58659">
        <ele>130</ele>
        <time>2025-07-24T14:46:14.289Z</time>
      </trkpt>
      <trkpt lat="44.06626" lon="0.58661">
        <ele>130</ele>
        <time>2025-07-24T14:46:15.289Z</time>
      </trkpt>
      <trkpt lat="44.06626" lon="0.58663">
        <ele>130</ele>
        <time>2025-07-24T14:46:16.289Z</time>
      </trkpt>
      <trkpt lat="44.06625" lon="0.58664">
        <ele>130</ele>
        <time>2025-07-24T14:46:17.289Z</time>
      </trkpt>
      <trkpt lat="44.06625" lon="0.58666">
        <ele>130</ele>
        <time>2025-07-24T14:46:18.289Z</time>
      </trkpt>
      <trkpt lat="44.06625" lon="0.58668">
        <ele>130</ele>
        <time>2025-07-24T14:46:19.289Z</time>
      </trkpt>
      <trkpt lat="44.06624" lon="0.58669">
        <ele>131</ele>
        <time>2025-07-24T14:46:20.289Z</time>
      </trkpt>
      <trkpt lat="44.06624" lon="0.58671">
        <ele>131</ele>
        <time>2025-07-24T14:46:21.289Z</time>
      </trkpt>
      <trkpt lat="44.06624" lon="0.58673">
        <ele>131</ele>
        <time>2025-07-24T14:46:22.289Z</time>
      </trkpt>
      <trkpt lat="44.06624" lon="0.58675">
        <ele>131</ele>
        <time>2025-07-24T14:46:23.289Z</time>
      </trkpt>
      <trkpt lat="44.06624" lon="0.58677">
        <ele>131</ele>
        <time>2025-07-24T14:46:24.289Z</time>
      </trkpt>
      <trkpt lat="44.06623" lon="0.58678">
        <ele>132</ele>
        <time>2025-07-24T14:46:25.289Z</time>
      </trkpt>
      <trkpt lat="44.06623" lon="0.5868">
        <ele>132</ele>
        <time>2025-07-24T14:46:26.289Z</time>
      </trkpt>
      <trkpt lat="44.06623" lon="0.58681">
        <ele>132</ele>
        <time>2025-07-24T14:46:27.289Z</time>
      </trkpt>
      <trkpt lat="44.06622" lon="0.58682">
        <ele>132</ele>
        <time>2025-07-24T14:46:28.289Z</time>
      </trkpt>
      <trkpt lat="44.06622" lon="0.58684">
        <ele>132</ele>
        <time>2025-07-24T14:46:29.289Z</time>
      </trkpt>
      <trkpt lat="44.06621" lon="0.58686">
        <ele>132</ele>
        <time>2025-07-24T14:46:30.289Z</time>
      </trkpt>
      <trkpt lat="44.06621" lon="0.58688">
        <ele>132</ele>
        <time>2025-07-24T14:46:31.289Z</time>
      </trkpt>
      <trkpt lat="44.06621" lon="0.5869">
        <ele>132</ele>
        <time>2025-07-24T14:46:32.289Z</time>
      </trkpt>
      <trkpt lat="44.06621" lon="0.58692">
        <ele>132</ele>
        <time>2025-07-24T14:46:33.289Z</time>
      </trkpt>
      <trkpt lat="44.06621" lon="0.58694">
        <ele>131</ele>
        <time>2025-07-24T14:46:34.289Z</time>
      </trkpt>
      <trkpt lat="44.0662" lon="0.58696">
        <ele>131</ele>
        <time>2025-07-24T14:46:35.289Z</time>
      </trkpt>
      <trkpt lat="44.0662" lon="0.58697">
        <ele>130</ele>
        <time>2025-07-24T14:46:36.290Z</time>
      </trkpt>
      <trkpt lat="44.0662" lon="0.58699">
        <ele>130</ele>
        <time>2025-07-24T14:46:37.289Z</time>
      </trkpt>
      <trkpt lat="44.0662" lon="0.587">
        <ele>129</ele>
        <time>2025-07-24T14:46:38.289Z</time>
      </trkpt>
      <trkpt lat="44.06619" lon="0.58702">
        <ele>129</ele>
        <time>2025-07-24T14:46:39.289Z</time>
      </trkpt>
      <trkpt lat="44.06619" lon="0.58703">
        <ele>129</ele>
        <time>2025-07-24T14:46:40.289Z</time>
      </trkpt>
      <trkpt lat="44.06619" lon="0.58705">
        <ele>129</ele>
        <time>2025-07-24T14:46:41.289Z</time>
      </trkpt>
      <trkpt lat="44.06618" lon="0.58706">
        <ele>129</ele>
        <time>2025-07-24T14:46:42.289Z</time>
      </trkpt>
      <trkpt lat="44.06618" lon="0.58708">
        <ele>128</ele>
        <time>2025-07-24T14:46:43.289Z</time>
      </trkpt>
      <trkpt lat="44.06617" lon="0.5871">
        <ele>128</ele>
        <time>2025-07-24T14:46:44.289Z</time>
      </trkpt>
      <trkpt lat="44.06617" lon="0.58712">
        <ele>128</ele>
        <time>2025-07-24T14:46:45.289Z</time>
      </trkpt>
      <trkpt lat="44.06617" lon="0.58714">
        <ele>128</ele>
        <time>2025-07-24T14:46:46.289Z</time>
      </trkpt>
      <trkpt lat="44.06617" lon="0.58716">
        <ele>128</ele>
        <time>2025-07-24T14:46:47.289Z</time>
      </trkpt>
      <trkpt lat="44.06617" lon="0.58718">
        <ele>128</ele>
        <time>2025-07-24T14:46:48.289Z</time>
      </trkpt>
      <trkpt lat="44.06617" lon="0.58719">
        <ele>128</ele>
        <time>2025-07-24T14:46:49.289Z</time>
      </trkpt>
      <trkpt lat="44.06617" lon="0.58721">
        <ele>128</ele>
        <time>2025-07-24T14:46:50.289Z</time>
      </trkpt>
      <trkpt lat="44.06617" lon="0.58723">
        <ele>128</ele>
        <time>2025-07-24T14:46:51.289Z</time>
      </trkpt>
      <trkpt lat="44.06617" lon="0.58725">
        <ele>128</ele>
        <time>2025-07-24T14:46:52.289Z</time>
      </trkpt>
      <trkpt lat="44.06617" lon="0.58726">
        <ele>128</ele>
        <time>2025-07-24T14:46:53.289Z</time>
      </trkpt>
      <trkpt lat="44.06616" lon="0.58728">
        <ele>127</ele>
        <time>2025-07-24T14:46:54.289Z</time>
      </trkpt>
      <trkpt lat="44.06616" lon="0.58729">
        <ele>127</ele>
        <time>2025-07-24T14:46:55.289Z</time>
      </trkpt>
      <trkpt lat="44.06616" lon="0.5873">
        <ele>127</ele>
        <time>2025-07-24T14:46:56.289Z</time>
      </trkpt>
      <trkpt lat="44.06616" lon="0.58732">
        <ele>126</ele>
        <time>2025-07-24T14:46:57.289Z</time>
      </trkpt>
      <trkpt lat="44.06615" lon="0.58734">
        <ele>126</ele>
        <time>2025-07-24T14:46:58.289Z</time>
      </trkpt>
      <trkpt lat="44.06615" lon="0.58736">
        <ele>125</ele>
        <time>2025-07-24T14:46:59.289Z</time>
      </trkpt>
      <trkpt lat="44.06615" lon="0.58737">
        <ele>125</ele>
        <time>2025-07-24T14:47:00.289Z</time>
      </trkpt>
      <trkpt lat="44.06615" lon="0.58739">
        <ele>125</ele>
        <time>2025-07-24T14:47:01.289Z</time>
      </trkpt>
      <trkpt lat="44.06614" lon="0.58741">
        <ele>125</ele>
        <time>2025-07-24T14:47:02.289Z</time>
      </trkpt>
      <trkpt lat="44.06614" lon="0.58742">
        <ele>125</ele>
        <time>2025-07-24T14:47:03.289Z</time>
      </trkpt>
      <trkpt lat="44.06614" lon="0.58744">
        <ele>125</ele>
        <time>2025-07-24T14:47:04.289Z</time>
      </trkpt>
      <trkpt lat="44.06614" lon="0.58745">
        <ele>125</ele>
        <time>2025-07-24T14:47:05.289Z</time>
      </trkpt>
      <trkpt lat="44.06614" lon="0.58746">
        <ele>124</ele>
        <time>2025-07-24T14:47:06.289Z</time>
      </trkpt>
      <trkpt lat="44.06614" lon="0.58748">
        <ele>124</ele>
        <time>2025-07-24T14:47:07.289Z</time>
      </trkpt>
      <trkpt lat="44.06613" lon="0.58749">
        <ele>124</ele>
        <time>2025-07-24T14:47:08.289Z</time>
      </trkpt>
      <trkpt lat="44.06613" lon="0.5875">
        <ele>125</ele>
        <time>2025-07-24T14:47:09.289Z</time>
      </trkpt>
      <trkpt lat="44.06613" lon="0.58751">
        <ele>125</ele>
        <time>2025-07-24T14:47:10.289Z</time>
      </trkpt>
      <trkpt lat="44.06613" lon="0.58752">
        <ele>125</ele>
        <time>2025-07-24T14:47:11.289Z</time>
      </trkpt>
      <trkpt lat="44.06613" lon="0.58752">
        <ele>125</ele>
        <time>2025-07-24T14:47:12.289Z</time>
      </trkpt>
      <trkpt lat="44.06613" lon="0.58753">
        <ele>125</ele>
        <time>2025-07-24T14:47:13.289Z</time>
      </trkpt>
      <trkpt lat="44.06613" lon="0.58753">
        <ele>125</ele>
        <time>2025-07-24T14:47:14.289Z</time>
      </trkpt>
      <trkpt lat="44.06613" lon="0.58753">
        <ele>125</ele>
        <time>2025-07-24T14:47:15.289Z</time>
      </trkpt>
      <trkpt lat="44.06613" lon="0.58753">
        <ele>125</ele>
        <time>2025-07-24T14:47:16.289Z</time>
      </trkpt>
      <trkpt lat="44.06613" lon="0.58753">
        <ele>125</ele>
        <time>2025-07-24T14:47:17.289Z</time>
      </trkpt>
      <trkpt lat="44.06613" lon="0.58753">
        <ele>124</ele>
        <time>2025-07-24T14:47:18.289Z</time>
      </trkpt>
      <trkpt lat="44.06613" lon="0.58753">
        <ele>124</ele>
        <time>2025-07-24T14:47:19.289Z</time>
      </trkpt>
      <trkpt lat="44.06613" lon="0.58753">
        <ele>124</ele>
        <time>2025-07-24T14:47:20.289Z</time>
      </trkpt>
      <trkpt lat="44.06613" lon="0.58753">
        <ele>124</ele>
        <time>2025-07-24T14:47:21.289Z</time>
      </trkpt>
      <trkpt lat="44.06613" lon="0.58753">
        <ele>124</ele>
        <time>2025-07-24T14:47:22.289Z</time>
      </trkpt>
      <trkpt lat="44.06613" lon="0.58753">
        <ele>124</ele>
        <time>2025-07-24T14:47:23.289Z</time>
      </trkpt>
      <trkpt lat="44.06613" lon="0.58753">
        <ele>124</ele>
        <time>2025-07-24T14:47:24.289Z</time>
      </trkpt>
      <trkpt lat="44.06613" lon="0.58753">
        <ele>124</ele>
        <time>2025-07-24T14:47:25.289Z</time>
      </trkpt>
      <trkpt lat="44.06613" lon="0.58753">
        <ele>124</ele>
        <time>2025-07-24T14:47:26.289Z</time>
      </trkpt>
      <trkpt lat="44.06613" lon="0.58753">
        <ele>124</ele>
        <time>2025-07-24T14:47:27.289Z</time>
      </trkpt>
      <trkpt lat="44.06613" lon="0.58753">
        <ele>124</ele>
        <time>2025-07-24T14:47:28.289Z</time>
      </trkpt>
      <trkpt lat="44.06613" lon="0.58753">
        <ele>124</ele>
        <time>2025-07-24T14:47:29.289Z</time>
      </trkpt>
      <trkpt lat="44.06613" lon="0.58753">
        <ele>124</ele>
        <time>2025-07-24T14:47:30.289Z</time>
      </trkpt>
      <trkpt lat="44.06613" lon="0.58754">
        <ele>125</ele>
        <time>2025-07-24T14:47:31.289Z</time>
      </trkpt>
      <trkpt lat="44.06614" lon="0.58754">
        <ele>125</ele>
        <time>2025-07-24T14:47:32.289Z</time>
      </trkpt>
      <trkpt lat="44.06614" lon="0.58754">
        <ele>126</ele>
        <time>2025-07-24T14:47:33.289Z</time>
      </trkpt>
      <trkpt lat="44.06614" lon="0.58754">
        <ele>126</ele>
        <time>2025-07-24T14:47:34.289Z</time>
      </trkpt>
      <trkpt lat="44.06613" lon="0.58754">
        <ele>126</ele>
        <time>2025-07-24T14:47:35.289Z</time>
      </trkpt>
      <trkpt lat="44.06613" lon="0.58754">
        <ele>127</ele>
        <time>2025-07-24T14:47:36.289Z</time>
      </trkpt>
      <trkpt lat="44.06613" lon="0.58754">
        <ele>127</ele>
        <time>2025-07-24T14:47:37.289Z</time>
      </trkpt>
      <trkpt lat="44.06613" lon="0.58754">
        <ele>127</ele>
        <time>2025-07-24T14:47:38.289Z</time>
      </trkpt>
      <trkpt lat="44.06613" lon="0.58754">
        <ele>127</ele>
        <time>2025-07-24T14:47:39.289Z</time>
      </trkpt>
      <trkpt lat="44.06613" lon="0.58755">
        <ele>128</ele>
        <time>2025-07-24T14:47:40.289Z</time>
      </trkpt>
      <trkpt lat="44.06613" lon="0.58755">
        <ele>128</ele>
        <time>2025-07-24T14:47:41.289Z</time>
      </trkpt>
      <trkpt lat="44.06613" lon="0.58755">
        <ele>128</ele>
        <time>2025-07-24T14:47:42.289Z</time>
      </trkpt>
      <trkpt lat="44.06613" lon="0.58755">
        <ele>128</ele>
        <time>2025-07-24T14:47:43.289Z</time>
      </trkpt>
      <trkpt lat="44.06613" lon="0.58755">
        <ele>129</ele>
        <time>2025-07-24T14:47:44.289Z</time>
      </trkpt>
      <trkpt lat="44.06613" lon="0.58755">
        <ele>129</ele>
        <time>2025-07-24T14:47:45.289Z</time>
      </trkpt>
      <trkpt lat="44.06614" lon="0.58756">
        <ele>129</ele>
        <time>2025-07-24T14:47:46.289Z</time>
      </trkpt>
      <trkpt lat="44.06614" lon="0.58756">
        <ele>130</ele>
        <time>2025-07-24T14:47:47.289Z</time>
      </trkpt>
      <trkpt lat="44.06614" lon="0.58757">
        <ele>130</ele>
        <time>2025-07-24T14:47:48.289Z</time>
      </trkpt>
      <trkpt lat="44.06614" lon="0.58758">
        <ele>130</ele>
        <time>2025-07-24T14:47:49.289Z</time>
      </trkpt>
      <trkpt lat="44.06614" lon="0.58759">
        <ele>130</ele>
        <time>2025-07-24T14:47:50.289Z</time>
      </trkpt>
      <trkpt lat="44.06613" lon="0.5876">
        <ele>129</ele>
        <time>2025-07-24T14:47:51.289Z</time>
      </trkpt>
      <trkpt lat="44.06613" lon="0.5876">
        <ele>129</ele>
        <time>2025-07-24T14:47:52.289Z</time>
      </trkpt>
      <trkpt lat="44.06613" lon="0.58761">
        <ele>129</ele>
        <time>2025-07-24T14:47:53.289Z</time>
      </trkpt>
      <trkpt lat="44.06613" lon="0.58761">
        <ele>129</ele>
        <time>2025-07-24T14:47:54.290Z</time>
      </trkpt>
      <trkpt lat="44.06613" lon="0.58761">
        <ele>128</ele>
        <time>2025-07-24T14:47:55.289Z</time>
      </trkpt>
      <trkpt lat="44.06613" lon="0.58762">
        <ele>128</ele>
        <time>2025-07-24T14:47:56.289Z</time>
      </trkpt>
      <trkpt lat="44.06613" lon="0.58763">
        <ele>128</ele>
        <time>2025-07-24T14:47:57.289Z</time>
      </trkpt>
      <trkpt lat="44.06612" lon="0.58764">
        <ele>127</ele>
        <time>2025-07-24T14:47:58.289Z</time>
      </trkpt>
      <trkpt lat="44.06612" lon="0.58765">
        <ele>127</ele>
        <time>2025-07-24T14:47:59.289Z</time>
      </trkpt>
      <trkpt lat="44.06611" lon="0.58767">
        <ele>126</ele>
        <time>2025-07-24T14:48:00.289Z</time>
      </trkpt>
      <trkpt lat="44.06611" lon="0.58769">
        <ele>126</ele>
        <time>2025-07-24T14:48:01.289Z</time>
      </trkpt>
      <trkpt lat="44.0661" lon="0.5877">
        <ele>126</ele>
        <time>2025-07-24T14:48:02.289Z</time>
      </trkpt>
      <trkpt lat="44.06609" lon="0.58771">
        <ele>125</ele>
        <time>2025-07-24T14:48:03.289Z</time>
      </trkpt>
      <trkpt lat="44.06608" lon="0.58772">
        <ele>125</ele>
        <time>2025-07-24T14:48:04.289Z</time>
      </trkpt>
      <trkpt lat="44.06607" lon="0.58774">
        <ele>125</ele>
        <time>2025-07-24T14:48:05.289Z</time>
      </trkpt>
      <trkpt lat="44.06606" lon="0.58775">
        <ele>125</ele>
        <time>2025-07-24T14:48:06.289Z</time>
      </trkpt>
      <trkpt lat="44.06606" lon="0.58776">
        <ele>124</ele>
        <time>2025-07-24T14:48:07.289Z</time>
      </trkpt>
      <trkpt lat="44.06605" lon="0.58777">
        <ele>124</ele>
        <time>2025-07-24T14:48:08.289Z</time>
      </trkpt>
      <trkpt lat="44.06604" lon="0.58778">
        <ele>124</ele>
        <time>2025-07-24T14:48:09.289Z</time>
      </trkpt>
      <trkpt lat="44.06604" lon="0.58779">
        <ele>124</ele>
        <time>2025-07-24T14:48:10.289Z</time>
      </trkpt>
      <trkpt lat="44.06603" lon="0.5878">
        <ele>124</ele>
        <time>2025-07-24T14:48:11.289Z</time>
      </trkpt>
      <trkpt lat="44.06603" lon="0.5878">
        <ele>124</ele>
        <time>2025-07-24T14:48:12.289Z</time>
      </trkpt>
      <trkpt lat="44.06603" lon="0.58781">
        <ele>124</ele>
        <time>2025-07-24T14:48:13.289Z</time>
      </trkpt>
      <trkpt lat="44.06602" lon="0.58782">
        <ele>124</ele>
        <time>2025-07-24T14:48:14.289Z</time>
      </trkpt>
      <trkpt lat="44.06601" lon="0.58782">
        <ele>124</ele>
        <time>2025-07-24T14:48:15.289Z</time>
      </trkpt>
      <trkpt lat="44.06601" lon="0.58783">
        <ele>125</ele>
        <time>2025-07-24T14:48:16.289Z</time>
      </trkpt>
      <trkpt lat="44.066" lon="0.58783">
        <ele>125</ele>
        <time>2025-07-24T14:48:17.289Z</time>
      </trkpt>
      <trkpt lat="44.066" lon="0.58783">
        <ele>125</ele>
        <time>2025-07-24T14:48:18.289Z</time>
      </trkpt>
      <trkpt lat="44.066" lon="0.58784">
        <ele>124</ele>
        <time>2025-07-24T14:48:19.289Z</time>
      </trkpt>
      <trkpt lat="44.066" lon="0.58784">
        <ele>124</ele>
        <time>2025-07-24T14:48:20.289Z</time>
      </trkpt>
      <trkpt lat="44.066" lon="0.58784">
        <ele>124</ele>
        <time>2025-07-24T14:48:21.289Z</time>
      </trkpt>
      <trkpt lat="44.066" lon="0.58784">
        <ele>124</ele>
        <time>2025-07-24T14:48:22.289Z</time>
      </trkpt>
      <trkpt lat="44.066" lon="0.58784">
        <ele>124</ele>
        <time>2025-07-24T14:48:23.289Z</time>
      </trkpt>
      <trkpt lat="44.066" lon="0.58785">
        <ele>123</ele>
        <time>2025-07-24T14:48:24.289Z</time>
      </trkpt>
      <trkpt lat="44.066" lon="0.58785">
        <ele>123</ele>
        <time>2025-07-24T14:48:25.289Z</time>
      </trkpt>
      <trkpt lat="44.066" lon="0.58785">
        <ele>122</ele>
        <time>2025-07-24T14:48:26.289Z</time>
      </trkpt>
      <trkpt lat="44.06599" lon="0.58786">
        <ele>122</ele>
        <time>2025-07-24T14:48:27.289Z</time>
      </trkpt>
      <trkpt lat="44.06599" lon="0.58786">
        <ele>122</ele>
        <time>2025-07-24T14:48:28.289Z</time>
      </trkpt>
      <trkpt lat="44.06598" lon="0.58787">
        <ele>122</ele>
        <time>2025-07-24T14:48:29.289Z</time>
      </trkpt>
      <trkpt lat="44.06597" lon="0.58788">
        <ele>121</ele>
        <time>2025-07-24T14:48:30.289Z</time>
      </trkpt>
      <trkpt lat="44.06596" lon="0.58788">
        <ele>121</ele>
        <time>2025-07-24T14:48:31.289Z</time>
      </trkpt>
      <trkpt lat="44.06595" lon="0.58789">
        <ele>121</ele>
        <time>2025-07-24T14:48:32.289Z</time>
      </trkpt>
      <trkpt lat="44.06594" lon="0.58789">
        <ele>121</ele>
        <time>2025-07-24T14:48:33.289Z</time>
      </trkpt>
      <trkpt lat="44.06592" lon="0.5879">
        <ele>122</ele>
        <time>2025-07-24T14:48:34.289Z</time>
      </trkpt>
      <trkpt lat="44.06591" lon="0.5879">
        <ele>122</ele>
        <time>2025-07-24T14:48:35.289Z</time>
      </trkpt>
      <trkpt lat="44.0659" lon="0.5879">
        <ele>122</ele>
        <time>2025-07-24T14:48:36.289Z</time>
      </trkpt>
      <trkpt lat="44.06588" lon="0.5879">
        <ele>123</ele>
        <time>2025-07-24T14:48:37.289Z</time>
      </trkpt>
      <trkpt lat="44.06587" lon="0.5879">
        <ele>123</ele>
        <time>2025-07-24T14:48:38.289Z</time>
      </trkpt>
      <trkpt lat="44.06586" lon="0.5879">
        <ele>123</ele>
        <time>2025-07-24T14:48:39.289Z</time>
      </trkpt>
      <trkpt lat="44.06585" lon="0.5879">
        <ele>123</ele>
        <time>2025-07-24T14:48:40.289Z</time>
      </trkpt>
      <trkpt lat="44.06584" lon="0.58791">
        <ele>122</ele>
        <time>2025-07-24T14:48:41.289Z</time>
      </trkpt>
      <trkpt lat="44.06582" lon="0.58791">
        <ele>122</ele>
        <time>2025-07-24T14:48:42.289Z</time>
      </trkpt>
      <trkpt lat="44.06581" lon="0.58791">
        <ele>122</ele>
        <time>2025-07-24T14:48:43.289Z</time>
      </trkpt>
      <trkpt lat="44.0658" lon="0.58791">
        <ele>122</ele>
        <time>2025-07-24T14:48:44.289Z</time>
      </trkpt>
      <trkpt lat="44.06579" lon="0.58792">
        <ele>122</ele>
        <time>2025-07-24T14:48:45.289Z</time>
      </trkpt>
      <trkpt lat="44.06578" lon="0.58792">
        <ele>122</ele>
        <time>2025-07-24T14:48:46.289Z</time>
      </trkpt>
      <trkpt lat="44.06577" lon="0.58793">
        <ele>122</ele>
        <time>2025-07-24T14:48:47.289Z</time>
      </trkpt>
      <trkpt lat="44.06576" lon="0.58794">
        <ele>122</ele>
        <time>2025-07-24T14:48:48.289Z</time>
      </trkpt>
      <trkpt lat="44.06574" lon="0.58794">
        <ele>122</ele>
        <time>2025-07-24T14:48:49.289Z</time>
      </trkpt>
      <trkpt lat="44.06573" lon="0.58795">
        <ele>122</ele>
        <time>2025-07-24T14:48:50.289Z</time>
      </trkpt>
      <trkpt lat="44.06572" lon="0.58796">
        <ele>122</ele>
        <time>2025-07-24T14:48:51.289Z</time>
      </trkpt>
      <trkpt lat="44.06571" lon="0.58796">
        <ele>122</ele>
        <time>2025-07-24T14:48:52.289Z</time>
      </trkpt>
      <trkpt lat="44.0657" lon="0.58797">
        <ele>123</ele>
        <time>2025-07-24T14:48:53.289Z</time>
      </trkpt>
      <trkpt lat="44.06569" lon="0.58796">
        <ele>123</ele>
        <time>2025-07-24T14:48:54.289Z</time>
      </trkpt>
      <trkpt lat="44.06568" lon="0.58796">
        <ele>123</ele>
        <time>2025-07-24T14:48:55.289Z</time>
      </trkpt>
      <trkpt lat="44.06567" lon="0.58797">
        <ele>123</ele>
        <time>2025-07-24T14:48:56.289Z</time>
      </trkpt>
      <trkpt lat="44.06566" lon="0.58797">
        <ele>123</ele>
        <time>2025-07-24T14:48:57.289Z</time>
      </trkpt>
      <trkpt lat="44.06565" lon="0.58798">
        <ele>123</ele>
        <time>2025-07-24T14:48:58.289Z</time>
      </trkpt>
      <trkpt lat="44.06563" lon="0.58799">
        <ele>122</ele>
        <time>2025-07-24T14:48:59.289Z</time>
      </trkpt>
      <trkpt lat="44.06562" lon="0.588">
        <ele>122</ele>
        <time>2025-07-24T14:49:00.289Z</time>
      </trkpt>
      <trkpt lat="44.06561" lon="0.588">
        <ele>122</ele>
        <time>2025-07-24T14:49:01.289Z</time>
      </trkpt>
      <trkpt lat="44.06559" lon="0.58801">
        <ele>121</ele>
        <time>2025-07-24T14:49:02.289Z</time>
      </trkpt>
      <trkpt lat="44.06558" lon="0.58802">
        <ele>121</ele>
        <time>2025-07-24T14:49:03.289Z</time>
      </trkpt>
      <trkpt lat="44.06557" lon="0.58803">
        <ele>121</ele>
        <time>2025-07-24T14:49:04.289Z</time>
      </trkpt>
      <trkpt lat="44.06555" lon="0.58804">
        <ele>121</ele>
        <time>2025-07-24T14:49:05.289Z</time>
      </trkpt>
      <trkpt lat="44.06555" lon="0.58804">
        <ele>122</ele>
        <time>2025-07-24T14:49:06.289Z</time>
      </trkpt>
      <trkpt lat="44.06554" lon="0.58805">
        <ele>122</ele>
        <time>2025-07-24T14:49:07.289Z</time>
      </trkpt>
      <trkpt lat="44.06553" lon="0.58806">
        <ele>122</ele>
        <time>2025-07-24T14:49:08.289Z</time>
      </trkpt>
      <trkpt lat="44.06552" lon="0.58806">
        <ele>122</ele>
        <time>2025-07-24T14:49:09.289Z</time>
      </trkpt>
      <trkpt lat="44.06551" lon="0.58808">
        <ele>122</ele>
        <time>2025-07-24T14:49:10.289Z</time>
      </trkpt>
      <trkpt lat="44.0655" lon="0.58808">
        <ele>122</ele>
        <time>2025-07-24T14:49:11.289Z</time>
      </trkpt>
      <trkpt lat="44.0655" lon="0.58809">
        <ele>122</ele>
        <time>2025-07-24T14:49:12.289Z</time>
      </trkpt>
      <trkpt lat="44.06549" lon="0.5881">
        <ele>122</ele>
        <time>2025-07-24T14:49:13.289Z</time>
      </trkpt>
      <trkpt lat="44.06548" lon="0.58811">
        <ele>122</ele>
        <time>2025-07-24T14:49:14.289Z</time>
      </trkpt>
      <trkpt lat="44.06547" lon="0.58812">
        <ele>122</ele>
        <time>2025-07-24T14:49:15.289Z</time>
      </trkpt>
      <trkpt lat="44.06546" lon="0.58814">
        <ele>122</ele>
        <time>2025-07-24T14:49:16.289Z</time>
      </trkpt>
      <trkpt lat="44.06545" lon="0.58815">
        <ele>122</ele>
        <time>2025-07-24T14:49:17.289Z</time>
      </trkpt>
      <trkpt lat="44.06544" lon="0.58816">
        <ele>122</ele>
        <time>2025-07-24T14:49:18.289Z</time>
      </trkpt>
      <trkpt lat="44.06543" lon="0.58816">
        <ele>122</ele>
        <time>2025-07-24T14:49:19.289Z</time>
      </trkpt>
      <trkpt lat="44.06542" lon="0.58817">
        <ele>122</ele>
        <time>2025-07-24T14:49:20.289Z</time>
      </trkpt>
      <trkpt lat="44.06541" lon="0.58818">
        <ele>121</ele>
        <time>2025-07-24T14:49:21.289Z</time>
      </trkpt>
      <trkpt lat="44.0654" lon="0.58818">
        <ele>121</ele>
        <time>2025-07-24T14:49:22.289Z</time>
      </trkpt>
      <trkpt lat="44.06539" lon="0.58819">
        <ele>121</ele>
        <time>2025-07-24T14:49:23.289Z</time>
      </trkpt>
      <trkpt lat="44.06538" lon="0.5882">
        <ele>121</ele>
        <time>2025-07-24T14:49:24.289Z</time>
      </trkpt>
      <trkpt lat="44.06537" lon="0.5882">
        <ele>121</ele>
        <time>2025-07-24T14:49:25.289Z</time>
      </trkpt>
      <trkpt lat="44.06536" lon="0.58821">
        <ele>121</ele>
        <time>2025-07-24T14:49:26.289Z</time>
      </trkpt>
      <trkpt lat="44.06535" lon="0.58821">
        <ele>121</ele>
        <time>2025-07-24T14:49:27.289Z</time>
      </trkpt>
      <trkpt lat="44.06534" lon="0.58821">
        <ele>121</ele>
        <time>2025-07-24T14:49:28.289Z</time>
      </trkpt>
      <trkpt lat="44.06533" lon="0.58822">
        <ele>121</ele>
        <time>2025-07-24T14:49:29.289Z</time>
      </trkpt>
      <trkpt lat="44.06533" lon="0.58823">
        <ele>121</ele>
        <time>2025-07-24T14:49:30.289Z</time>
      </trkpt>
      <trkpt lat="44.06532" lon="0.58824">
        <ele>121</ele>
        <time>2025-07-24T14:49:31.289Z</time>
      </trkpt>
      <trkpt lat="44.06531" lon="0.58825">
        <ele>121</ele>
        <time>2025-07-24T14:49:32.289Z</time>
      </trkpt>
      <trkpt lat="44.0653" lon="0.58826">
        <ele>120</ele>
        <time>2025-07-24T14:49:33.289Z</time>
      </trkpt>
      <trkpt lat="44.06529" lon="0.58826">
        <ele>120</ele>
        <time>2025-07-24T14:49:34.289Z</time>
      </trkpt>
      <trkpt lat="44.06527" lon="0.58827">
        <ele>120</ele>
        <time>2025-07-24T14:49:35.289Z</time>
      </trkpt>
      <trkpt lat="44.06526" lon="0.58828">
        <ele>120</ele>
        <time>2025-07-24T14:49:36.289Z</time>
      </trkpt>
      <trkpt lat="44.06525" lon="0.58828">
        <ele>120</ele>
        <time>2025-07-24T14:49:37.289Z</time>
      </trkpt>
      <trkpt lat="44.06524" lon="0.58829">
        <ele>120</ele>
        <time>2025-07-24T14:49:38.289Z</time>
      </trkpt>
      <trkpt lat="44.06523" lon="0.5883">
        <ele>120</ele>
        <time>2025-07-24T14:49:39.289Z</time>
      </trkpt>
      <trkpt lat="44.06522" lon="0.5883">
        <ele>120</ele>
        <time>2025-07-24T14:49:40.289Z</time>
      </trkpt>
      <trkpt lat="44.06521" lon="0.58831">
        <ele>120</ele>
        <time>2025-07-24T14:49:41.289Z</time>
      </trkpt>
      <trkpt lat="44.0652" lon="0.58832">
        <ele>120</ele>
        <time>2025-07-24T14:49:42.289Z</time>
      </trkpt>
      <trkpt lat="44.06519" lon="0.58833">
        <ele>120</ele>
        <time>2025-07-24T14:49:43.289Z</time>
      </trkpt>
      <trkpt lat="44.06518" lon="0.58833">
        <ele>120</ele>
        <time>2025-07-24T14:49:44.289Z</time>
      </trkpt>
      <trkpt lat="44.06517" lon="0.58834">
        <ele>119</ele>
        <time>2025-07-24T14:49:45.289Z</time>
      </trkpt>
      <trkpt lat="44.06516" lon="0.58834">
        <ele>119</ele>
        <time>2025-07-24T14:49:46.289Z</time>
      </trkpt>
      <trkpt lat="44.06515" lon="0.58835">
        <ele>118</ele>
        <time>2025-07-24T14:49:47.289Z</time>
      </trkpt>
      <trkpt lat="44.06513" lon="0.58835">
        <ele>118</ele>
        <time>2025-07-24T14:49:48.289Z</time>
      </trkpt>
      <trkpt lat="44.06512" lon="0.58836">
        <ele>117</ele>
        <time>2025-07-24T14:49:49.289Z</time>
      </trkpt>
      <trkpt lat="44.06511" lon="0.58837">
        <ele>117</ele>
        <time>2025-07-24T14:49:50.289Z</time>
      </trkpt>
      <trkpt lat="44.0651" lon="0.58837">
        <ele>117</ele>
        <time>2025-07-24T14:49:51.289Z</time>
      </trkpt>
      <trkpt lat="44.06509" lon="0.58837">
        <ele>117</ele>
        <time>2025-07-24T14:49:52.289Z</time>
      </trkpt>
      <trkpt lat="44.06507" lon="0.58838">
        <ele>117</ele>
        <time>2025-07-24T14:49:53.289Z</time>
      </trkpt>
      <trkpt lat="44.06506" lon="0.58838">
        <ele>117</ele>
        <time>2025-07-24T14:49:54.289Z</time>
      </trkpt>
      <trkpt lat="44.06505" lon="0.58839">
        <ele>117</ele>
        <time>2025-07-24T14:49:55.289Z</time>
      </trkpt>
      <trkpt lat="44.06503" lon="0.58839">
        <ele>117</ele>
        <time>2025-07-24T14:49:56.289Z</time>
      </trkpt>
      <trkpt lat="44.06502" lon="0.58839">
        <ele>117</ele>
        <time>2025-07-24T14:49:57.289Z</time>
      </trkpt>
      <trkpt lat="44.06501" lon="0.58839">
        <ele>117</ele>
        <time>2025-07-24T14:49:58.289Z</time>
      </trkpt>
      <trkpt lat="44.065" lon="0.58839">
        <ele>117</ele>
        <time>2025-07-24T14:49:59.289Z</time>
      </trkpt>
      <trkpt lat="44.06499" lon="0.5884">
        <ele>116</ele>
        <time>2025-07-24T14:50:00.289Z</time>
      </trkpt>
      <trkpt lat="44.06498" lon="0.5884">
        <ele>116</ele>
        <time>2025-07-24T14:50:01.289Z</time>
      </trkpt>
      <trkpt lat="44.06497" lon="0.5884">
        <ele>116</ele>
        <time>2025-07-24T14:50:02.289Z</time>
      </trkpt>
      <trkpt lat="44.06496" lon="0.58841">
        <ele>116</ele>
        <time>2025-07-24T14:50:03.289Z</time>
      </trkpt>
      <trkpt lat="44.06494" lon="0.58841">
        <ele>115</ele>
        <time>2025-07-24T14:50:04.289Z</time>
      </trkpt>
      <trkpt lat="44.06493" lon="0.58841">
        <ele>115</ele>
        <time>2025-07-24T14:50:05.289Z</time>
      </trkpt>
      <trkpt lat="44.06492" lon="0.58841">
        <ele>115</ele>
        <time>2025-07-24T14:50:06.289Z</time>
      </trkpt>
      <trkpt lat="44.06491" lon="0.58841">
        <ele>114</ele>
        <time>2025-07-24T14:50:07.289Z</time>
      </trkpt>
      <trkpt lat="44.0649" lon="0.58841">
        <ele>114</ele>
        <time>2025-07-24T14:50:08.289Z</time>
      </trkpt>
      <trkpt lat="44.06489" lon="0.5884">
        <ele>113</ele>
        <time>2025-07-24T14:50:09.289Z</time>
      </trkpt>
      <trkpt lat="44.06487" lon="0.5884">
        <ele>113</ele>
        <time>2025-07-24T14:50:10.289Z</time>
      </trkpt>
      <trkpt lat="44.06486" lon="0.5884">
        <ele>113</ele>
        <time>2025-07-24T14:50:11.289Z</time>
      </trkpt>
      <trkpt lat="44.06484" lon="0.5884">
        <ele>113</ele>
        <time>2025-07-24T14:50:12.289Z</time>
      </trkpt>
      <trkpt lat="44.06483" lon="0.5884">
        <ele>113</ele>
        <time>2025-07-24T14:50:13.289Z</time>
      </trkpt>
      <trkpt lat="44.06482" lon="0.5884">
        <ele>112</ele>
        <time>2025-07-24T14:50:14.289Z</time>
      </trkpt>
      <trkpt lat="44.0648" lon="0.58841">
        <ele>112</ele>
        <time>2025-07-24T14:50:15.289Z</time>
      </trkpt>
      <trkpt lat="44.06479" lon="0.58841">
        <ele>112</ele>
        <time>2025-07-24T14:50:16.289Z</time>
      </trkpt>
      <trkpt lat="44.06477" lon="0.58842">
        <ele>112</ele>
        <time>2025-07-24T14:50:17.289Z</time>
      </trkpt>
      <trkpt lat="44.06476" lon="0.58842">
        <ele>111</ele>
        <time>2025-07-24T14:50:18.289Z</time>
      </trkpt>
      <trkpt lat="44.06474" lon="0.58842">
        <ele>111</ele>
        <time>2025-07-24T14:50:19.289Z</time>
      </trkpt>
      <trkpt lat="44.06473" lon="0.58842">
        <ele>111</ele>
        <time>2025-07-24T14:50:20.289Z</time>
      </trkpt>
      <trkpt lat="44.06471" lon="0.58843">
        <ele>111</ele>
        <time>2025-07-24T14:50:21.289Z</time>
      </trkpt>
      <trkpt lat="44.0647" lon="0.58843">
        <ele>110</ele>
        <time>2025-07-24T14:50:22.289Z</time>
      </trkpt>
      <trkpt lat="44.06469" lon="0.58843">
        <ele>110</ele>
        <time>2025-07-24T14:50:23.289Z</time>
      </trkpt>
      <trkpt lat="44.06468" lon="0.58843">
        <ele>110</ele>
        <time>2025-07-24T14:50:24.289Z</time>
      </trkpt>
      <trkpt lat="44.06467" lon="0.58843">
        <ele>110</ele>
        <time>2025-07-24T14:50:25.289Z</time>
      </trkpt>
      <trkpt lat="44.06466" lon="0.58843">
        <ele>110</ele>
        <time>2025-07-24T14:50:26.289Z</time>
      </trkpt>
      <trkpt lat="44.06464" lon="0.58843">
        <ele>110</ele>
        <time>2025-07-24T14:50:27.289Z</time>
      </trkpt>
      <trkpt lat="44.06463" lon="0.58842">
        <ele>109</ele>
        <time>2025-07-24T14:50:28.289Z</time>
      </trkpt>
      <trkpt lat="44.06462" lon="0.58842">
        <ele>109</ele>
        <time>2025-07-24T14:50:29.289Z</time>
      </trkpt>
      <trkpt lat="44.06461" lon="0.58842">
        <ele>109</ele>
        <time>2025-07-24T14:50:30.289Z</time>
      </trkpt>
      <trkpt lat="44.06459" lon="0.58842">
        <ele>109</ele>
        <time>2025-07-24T14:50:31.290Z</time>
      </trkpt>
      <trkpt lat="44.06458" lon="0.58842">
        <ele>109</ele>
        <time>2025-07-24T14:50:32.289Z</time>
      </trkpt>
      <trkpt lat="44.06457" lon="0.58842">
        <ele>109</ele>
        <time>2025-07-24T14:50:33.289Z</time>
      </trkpt>
      <trkpt lat="44.06456" lon="0.58842">
        <ele>109</ele>
        <time>2025-07-24T14:50:34.289Z</time>
      </trkpt>
      <trkpt lat="44.06455" lon="0.58842">
        <ele>109</ele>
        <time>2025-07-24T14:50:35.289Z</time>
      </trkpt>
      <trkpt lat="44.06453" lon="0.58843">
        <ele>109</ele>
        <time>2025-07-24T14:50:36.289Z</time>
      </trkpt>
      <trkpt lat="44.06452" lon="0.58843">
        <ele>109</ele>
        <time>2025-07-24T14:50:37.289Z</time>
      </trkpt>
      <trkpt lat="44.0645" lon="0.58843">
        <ele>109</ele>
        <time>2025-07-24T14:50:38.289Z</time>
      </trkpt>
      <trkpt lat="44.06449" lon="0.58844">
        <ele>108</ele>
        <time>2025-07-24T14:50:39.289Z</time>
      </trkpt>
      <trkpt lat="44.06448" lon="0.58844">
        <ele>108</ele>
        <time>2025-07-24T14:50:40.289Z</time>
      </trkpt>
      <trkpt lat="44.06447" lon="0.58844">
        <ele>108</ele>
        <time>2025-07-24T14:50:41.289Z</time>
      </trkpt>
      <trkpt lat="44.06446" lon="0.58844">
        <ele>108</ele>
        <time>2025-07-24T14:50:42.289Z</time>
      </trkpt>
      <trkpt lat="44.06444" lon="0.58844">
        <ele>109</ele>
        <time>2025-07-24T14:50:43.289Z</time>
      </trkpt>
      <trkpt lat="44.06443" lon="0.58844">
        <ele>109</ele>
        <time>2025-07-24T14:50:44.289Z</time>
      </trkpt>
      <trkpt lat="44.06442" lon="0.58844">
        <ele>109</ele>
        <time>2025-07-24T14:50:45.289Z</time>
      </trkpt>
      <trkpt lat="44.0644" lon="0.58844">
        <ele>109</ele>
        <time>2025-07-24T14:50:46.289Z</time>
      </trkpt>
      <trkpt lat="44.06439" lon="0.58844">
        <ele>109</ele>
        <time>2025-07-24T14:50:47.289Z</time>
      </trkpt>
      <trkpt lat="44.06438" lon="0.58844">
        <ele>109</ele>
        <time>2025-07-24T14:50:48.289Z</time>
      </trkpt>
      <trkpt lat="44.06436" lon="0.58844">
        <ele>109</ele>
        <time>2025-07-24T14:50:49.289Z</time>
      </trkpt>
      <trkpt lat="44.06435" lon="0.58845">
        <ele>109</ele>
        <time>2025-07-24T14:50:50.289Z</time>
      </trkpt>
      <trkpt lat="44.06433" lon="0.58845">
        <ele>109</ele>
        <time>2025-07-24T14:50:51.289Z</time>
      </trkpt>
      <trkpt lat="44.06432" lon="0.58845">
        <ele>109</ele>
        <time>2025-07-24T14:50:52.289Z</time>
      </trkpt>
      <trkpt lat="44.06431" lon="0.58845">
        <ele>109</ele>
        <time>2025-07-24T14:50:53.289Z</time>
      </trkpt>
      <trkpt lat="44.0643" lon="0.58845">
        <ele>109</ele>
        <time>2025-07-24T14:50:54.289Z</time>
      </trkpt>
      <trkpt lat="44.06429" lon="0.58845">
        <ele>109</ele>
        <time>2025-07-24T14:50:55.289Z</time>
      </trkpt>
      <trkpt lat="44.06427" lon="0.58845">
        <ele>109</ele>
        <time>2025-07-24T14:50:56.289Z</time>
      </trkpt>
      <trkpt lat="44.06426" lon="0.58845">
        <ele>109</ele>
        <time>2025-07-24T14:50:57.289Z</time>
      </trkpt>
      <trkpt lat="44.06425" lon="0.58846">
        <ele>109</ele>
        <time>2025-07-24T14:50:58.289Z</time>
      </trkpt>
      <trkpt lat="44.06423" lon="0.58846">
        <ele>109</ele>
        <time>2025-07-24T14:50:59.289Z</time>
      </trkpt>
      <trkpt lat="44.06422" lon="0.58846">
        <ele>109</ele>
        <time>2025-07-24T14:51:00.289Z</time>
      </trkpt>
      <trkpt lat="44.06421" lon="0.58846">
        <ele>109</ele>
        <time>2025-07-24T14:51:01.289Z</time>
      </trkpt>
      <trkpt lat="44.06419" lon="0.58846">
        <ele>109</ele>
        <time>2025-07-24T14:51:02.289Z</time>
      </trkpt>
      <trkpt lat="44.06418" lon="0.58846">
        <ele>109</ele>
        <time>2025-07-24T14:51:03.289Z</time>
      </trkpt>
      <trkpt lat="44.06417" lon="0.58847">
        <ele>109</ele>
        <time>2025-07-24T14:51:04.289Z</time>
      </trkpt>
      <trkpt lat="44.06415" lon="0.58847">
        <ele>109</ele>
        <time>2025-07-24T14:51:05.289Z</time>
      </trkpt>
      <trkpt lat="44.06414" lon="0.58847">
        <ele>109</ele>
        <time>2025-07-24T14:51:06.289Z</time>
      </trkpt>
      <trkpt lat="44.06413" lon="0.58847">
        <ele>109</ele>
        <time>2025-07-24T14:51:07.289Z</time>
      </trkpt>
      <trkpt lat="44.06412" lon="0.58847">
        <ele>109</ele>
        <time>2025-07-24T14:51:08.289Z</time>
      </trkpt>
      <trkpt lat="44.06411" lon="0.58847">
        <ele>109</ele>
        <time>2025-07-24T14:51:09.289Z</time>
      </trkpt>
      <trkpt lat="44.0641" lon="0.58847">
        <ele>109</ele>
        <time>2025-07-24T14:51:10.289Z</time>
      </trkpt>
      <trkpt lat="44.06408" lon="0.58847">
        <ele>109</ele>
        <time>2025-07-24T14:51:11.289Z</time>
      </trkpt>
      <trkpt lat="44.06407" lon="0.58848">
        <ele>109</ele>
        <time>2025-07-24T14:51:12.289Z</time>
      </trkpt>
      <trkpt lat="44.06405" lon="0.58848">
        <ele>109</ele>
        <time>2025-07-24T14:51:13.289Z</time>
      </trkpt>
      <trkpt lat="44.06404" lon="0.58848">
        <ele>108</ele>
        <time>2025-07-24T14:51:14.289Z</time>
      </trkpt>
      <trkpt lat="44.06403" lon="0.58849">
        <ele>108</ele>
        <time>2025-07-24T14:51:15.289Z</time>
      </trkpt>
      <trkpt lat="44.06402" lon="0.58849">
        <ele>108</ele>
        <time>2025-07-24T14:51:16.289Z</time>
      </trkpt>
      <trkpt lat="44.06401" lon="0.5885">
        <ele>108</ele>
        <time>2025-07-24T14:51:17.289Z</time>
      </trkpt>
      <trkpt lat="44.064" lon="0.5885">
        <ele>108</ele>
        <time>2025-07-24T14:51:18.289Z</time>
      </trkpt>
      <trkpt lat="44.06399" lon="0.58851">
        <ele>107</ele>
        <time>2025-07-24T14:51:19.289Z</time>
      </trkpt>
      <trkpt lat="44.06398" lon="0.58851">
        <ele>107</ele>
        <time>2025-07-24T14:51:20.289Z</time>
      </trkpt>
      <trkpt lat="44.06396" lon="0.58852">
        <ele>107</ele>
        <time>2025-07-24T14:51:21.289Z</time>
      </trkpt>
      <trkpt lat="44.06395" lon="0.58853">
        <ele>106</ele>
        <time>2025-07-24T14:51:22.289Z</time>
      </trkpt>
      <trkpt lat="44.06394" lon="0.58854">
        <ele>106</ele>
        <time>2025-07-24T14:51:23.289Z</time>
      </trkpt>
      <trkpt lat="44.06393" lon="0.58855">
        <ele>107</ele>
        <time>2025-07-24T14:51:24.289Z</time>
      </trkpt>
      <trkpt lat="44.06392" lon="0.58855">
        <ele>107</ele>
        <time>2025-07-24T14:51:25.289Z</time>
      </trkpt>
      <trkpt lat="44.06391" lon="0.58855">
        <ele>107</ele>
        <time>2025-07-24T14:51:26.289Z</time>
      </trkpt>
      <trkpt lat="44.0639" lon="0.58855">
        <ele>107</ele>
        <time>2025-07-24T14:51:27.289Z</time>
      </trkpt>
      <trkpt lat="44.06389" lon="0.58856">
        <ele>107</ele>
        <time>2025-07-24T14:51:28.289Z</time>
      </trkpt>
      <trkpt lat="44.06388" lon="0.58856">
        <ele>107</ele>
        <time>2025-07-24T14:51:29.289Z</time>
      </trkpt>
      <trkpt lat="44.06386" lon="0.58857">
        <ele>107</ele>
        <time>2025-07-24T14:51:30.289Z</time>
      </trkpt>
      <trkpt lat="44.06385" lon="0.58857">
        <ele>107</ele>
        <time>2025-07-24T14:51:31.289Z</time>
      </trkpt>
      <trkpt lat="44.06384" lon="0.58858">
        <ele>107</ele>
        <time>2025-07-24T14:51:32.289Z</time>
      </trkpt>
      <trkpt lat="44.06384" lon="0.58858">
        <ele>107</ele>
        <time>2025-07-24T14:51:33.289Z</time>
      </trkpt>
      <trkpt lat="44.06383" lon="0.58858">
        <ele>107</ele>
        <time>2025-07-24T14:51:34.289Z</time>
      </trkpt>
      <trkpt lat="44.06382" lon="0.58859">
        <ele>107</ele>
        <time>2025-07-24T14:51:35.289Z</time>
      </trkpt>
      <trkpt lat="44.06381" lon="0.58859">
        <ele>108</ele>
        <time>2025-07-24T14:51:36.289Z</time>
      </trkpt>
      <trkpt lat="44.06379" lon="0.5886">
        <ele>108</ele>
        <time>2025-07-24T14:51:37.289Z</time>
      </trkpt>
      <trkpt lat="44.06378" lon="0.5886">
        <ele>108</ele>
        <time>2025-07-24T14:51:38.289Z</time>
      </trkpt>
      <trkpt lat="44.06377" lon="0.5886">
        <ele>108</ele>
        <time>2025-07-24T14:51:39.289Z</time>
      </trkpt>
      <trkpt lat="44.06376" lon="0.58861">
        <ele>108</ele>
        <time>2025-07-24T14:51:40.289Z</time>
      </trkpt>
      <trkpt lat="44.06375" lon="0.58862">
        <ele>108</ele>
        <time>2025-07-24T14:51:41.289Z</time>
      </trkpt>
      <trkpt lat="44.06374" lon="0.58862">
        <ele>108</ele>
        <time>2025-07-24T14:51:42.289Z</time>
      </trkpt>
      <trkpt lat="44.06372" lon="0.58862">
        <ele>108</ele>
        <time>2025-07-24T14:51:43.289Z</time>
      </trkpt>
      <trkpt lat="44.06371" lon="0.58863">
        <ele>108</ele>
        <time>2025-07-24T14:51:44.289Z</time>
      </trkpt>
      <trkpt lat="44.0637" lon="0.58863">
        <ele>108</ele>
        <time>2025-07-24T14:51:45.289Z</time>
      </trkpt>
      <trkpt lat="44.06369" lon="0.58863">
        <ele>108</ele>
        <time>2025-07-24T14:51:46.289Z</time>
      </trkpt>
      <trkpt lat="44.06368" lon="0.58863">
        <ele>108</ele>
        <time>2025-07-24T14:51:47.289Z</time>
      </trkpt>
      <trkpt lat="44.06367" lon="0.58864">
        <ele>108</ele>
        <time>2025-07-24T14:51:48.289Z</time>
      </trkpt>
      <trkpt lat="44.06366" lon="0.58864">
        <ele>107</ele>
        <time>2025-07-24T14:51:49.289Z</time>
      </trkpt>
      <trkpt lat="44.06364" lon="0.58864">
        <ele>107</ele>
        <time>2025-07-24T14:51:50.289Z</time>
      </trkpt>
      <trkpt lat="44.06363" lon="0.58864">
        <ele>106</ele>
        <time>2025-07-24T14:51:51.289Z</time>
      </trkpt>
      <trkpt lat="44.06362" lon="0.58864">
        <ele>106</ele>
        <time>2025-07-24T14:51:52.289Z</time>
      </trkpt>
      <trkpt lat="44.06361" lon="0.58865">
        <ele>106</ele>
        <time>2025-07-24T14:51:53.289Z</time>
      </trkpt>
      <trkpt lat="44.0636" lon="0.58865">
        <ele>107</ele>
        <time>2025-07-24T14:51:54.289Z</time>
      </trkpt>
      <trkpt lat="44.06359" lon="0.58865">
        <ele>107</ele>
        <time>2025-07-24T14:51:55.289Z</time>
      </trkpt>
      <trkpt lat="44.06358" lon="0.58865">
        <ele>107</ele>
        <time>2025-07-24T14:51:56.289Z</time>
      </trkpt>
      <trkpt lat="44.06357" lon="0.58865">
        <ele>107</ele>
        <time>2025-07-24T14:51:57.289Z</time>
      </trkpt>
      <trkpt lat="44.06356" lon="0.58865">
        <ele>107</ele>
        <time>2025-07-24T14:51:58.289Z</time>
      </trkpt>
      <trkpt lat="44.06354" lon="0.58865">
        <ele>107</ele>
        <time>2025-07-24T14:51:59.289Z</time>
      </trkpt>
      <trkpt lat="44.06353" lon="0.58865">
        <ele>107</ele>
        <time>2025-07-24T14:52:00.289Z</time>
      </trkpt>
      <trkpt lat="44.06352" lon="0.58865">
        <ele>107</ele>
        <time>2025-07-24T14:52:01.289Z</time>
      </trkpt>
      <trkpt lat="44.06351" lon="0.58866">
        <ele>107</ele>
        <time>2025-07-24T14:52:02.289Z</time>
      </trkpt>
      <trkpt lat="44.0635" lon="0.58866">
        <ele>107</ele>
        <time>2025-07-24T14:52:03.289Z</time>
      </trkpt>
      <trkpt lat="44.06349" lon="0.58867">
        <ele>107</ele>
        <time>2025-07-24T14:52:04.289Z</time>
      </trkpt>
      <trkpt lat="44.06347" lon="0.58867">
        <ele>107</ele>
        <time>2025-07-24T14:52:05.289Z</time>
      </trkpt>
      <trkpt lat="44.06346" lon="0.58867">
        <ele>107</ele>
        <time>2025-07-24T14:52:06.289Z</time>
      </trkpt>
      <trkpt lat="44.06345" lon="0.58868">
        <ele>107</ele>
        <time>2025-07-24T14:52:07.289Z</time>
      </trkpt>
      <trkpt lat="44.06343" lon="0.58868">
        <ele>108</ele>
        <time>2025-07-24T14:52:08.289Z</time>
      </trkpt>
      <trkpt lat="44.06342" lon="0.58869">
        <ele>108</ele>
        <time>2025-07-24T14:52:09.289Z</time>
      </trkpt>
      <trkpt lat="44.06341" lon="0.58869">
        <ele>107</ele>
        <time>2025-07-24T14:52:10.289Z</time>
      </trkpt>
      <trkpt lat="44.06339" lon="0.58869">
        <ele>107</ele>
        <time>2025-07-24T14:52:11.289Z</time>
      </trkpt>
      <trkpt lat="44.06338" lon="0.58869">
        <ele>107</ele>
        <time>2025-07-24T14:52:12.289Z</time>
      </trkpt>
      <trkpt lat="44.06337" lon="0.58869">
        <ele>107</ele>
        <time>2025-07-24T14:52:13.289Z</time>
      </trkpt>
      <trkpt lat="44.06336" lon="0.58869">
        <ele>107</ele>
        <time>2025-07-24T14:52:14.290Z</time>
      </trkpt>
      <trkpt lat="44.06335" lon="0.58869">
        <ele>107</ele>
        <time>2025-07-24T14:52:15.289Z</time>
      </trkpt>
      <trkpt lat="44.06333" lon="0.58869">
        <ele>107</ele>
        <time>2025-07-24T14:52:16.289Z</time>
      </trkpt>
      <trkpt lat="44.06332" lon="0.5887">
        <ele>107</ele>
        <time>2025-07-24T14:52:17.289Z</time>
      </trkpt>
      <trkpt lat="44.0633" lon="0.5887">
        <ele>107</ele>
        <time>2025-07-24T14:52:18.289Z</time>
      </trkpt>
      <trkpt lat="44.06329" lon="0.5887">
        <ele>107</ele>
        <time>2025-07-24T14:52:19.289Z</time>
      </trkpt>
      <trkpt lat="44.06328" lon="0.5887">
        <ele>107</ele>
        <time>2025-07-24T14:52:20.289Z</time>
      </trkpt>
      <trkpt lat="44.06326" lon="0.5887">
        <ele>107</ele>
        <time>2025-07-24T14:52:21.289Z</time>
      </trkpt>
      <trkpt lat="44.06325" lon="0.5887">
        <ele>107</ele>
        <time>2025-07-24T14:52:22.289Z</time>
      </trkpt>
      <trkpt lat="44.06324" lon="0.5887">
        <ele>107</ele>
        <time>2025-07-24T14:52:23.289Z</time>
      </trkpt>
      <trkpt lat="44.06323" lon="0.5887">
        <ele>107</ele>
        <time>2025-07-24T14:52:24.289Z</time>
      </trkpt>
      <trkpt lat="44.06322" lon="0.5887">
        <ele>107</ele>
        <time>2025-07-24T14:52:25.289Z</time>
      </trkpt>
      <trkpt lat="44.06321" lon="0.5887">
        <ele>107</ele>
        <time>2025-07-24T14:52:26.289Z</time>
      </trkpt>
      <trkpt lat="44.06319" lon="0.5887">
        <ele>107</ele>
        <time>2025-07-24T14:52:27.289Z</time>
      </trkpt>
      <trkpt lat="44.06318" lon="0.5887">
        <ele>107</ele>
        <time>2025-07-24T14:52:28.289Z</time>
      </trkpt>
      <trkpt lat="44.06316" lon="0.5887">
        <ele>106</ele>
        <time>2025-07-24T14:52:29.289Z</time>
      </trkpt>
      <trkpt lat="44.06315" lon="0.5887">
        <ele>106</ele>
        <time>2025-07-24T14:52:30.289Z</time>
      </trkpt>
      <trkpt lat="44.06314" lon="0.5887">
        <ele>106</ele>
        <time>2025-07-24T14:52:31.289Z</time>
      </trkpt>
      <trkpt lat="44.06312" lon="0.5887">
        <ele>106</ele>
        <time>2025-07-24T14:52:32.289Z</time>
      </trkpt>
      <trkpt lat="44.06311" lon="0.58871">
        <ele>106</ele>
        <time>2025-07-24T14:52:33.289Z</time>
      </trkpt>
      <trkpt lat="44.0631" lon="0.58871">
        <ele>106</ele>
        <time>2025-07-24T14:52:34.289Z</time>
      </trkpt>
      <trkpt lat="44.06309" lon="0.5887">
        <ele>106</ele>
        <time>2025-07-24T14:52:35.289Z</time>
      </trkpt>
      <trkpt lat="44.06307" lon="0.5887">
        <ele>106</ele>
        <time>2025-07-24T14:52:36.289Z</time>
      </trkpt>
      <trkpt lat="44.06306" lon="0.5887">
        <ele>106</ele>
        <time>2025-07-24T14:52:37.289Z</time>
      </trkpt>
      <trkpt lat="44.06305" lon="0.5887">
        <ele>106</ele>
        <time>2025-07-24T14:52:38.289Z</time>
      </trkpt>
      <trkpt lat="44.06304" lon="0.5887">
        <ele>106</ele>
        <time>2025-07-24T14:52:39.289Z</time>
      </trkpt>
      <trkpt lat="44.06303" lon="0.58869">
        <ele>106</ele>
        <time>2025-07-24T14:52:40.289Z</time>
      </trkpt>
      <trkpt lat="44.06301" lon="0.58869">
        <ele>106</ele>
        <time>2025-07-24T14:52:41.289Z</time>
      </trkpt>
      <trkpt lat="44.063" lon="0.58869">
        <ele>106</ele>
        <time>2025-07-24T14:52:42.289Z</time>
      </trkpt>
      <trkpt lat="44.06298" lon="0.58869">
        <ele>106</ele>
        <time>2025-07-24T14:52:43.289Z</time>
      </trkpt>
      <trkpt lat="44.06297" lon="0.58869">
        <ele>106</ele>
        <time>2025-07-24T14:52:44.289Z</time>
      </trkpt>
      <trkpt lat="44.06295" lon="0.58869">
        <ele>106</ele>
        <time>2025-07-24T14:52:45.289Z</time>
      </trkpt>
      <trkpt lat="44.06294" lon="0.58869">
        <ele>107</ele>
        <time>2025-07-24T14:52:46.289Z</time>
      </trkpt>
      <trkpt lat="44.06293" lon="0.58869">
        <ele>107</ele>
        <time>2025-07-24T14:52:47.289Z</time>
      </trkpt>
      <trkpt lat="44.06291" lon="0.58869">
        <ele>106</ele>
        <time>2025-07-24T14:52:48.289Z</time>
      </trkpt>
      <trkpt lat="44.0629" lon="0.58869">
        <ele>106</ele>
        <time>2025-07-24T14:52:49.289Z</time>
      </trkpt>
      <trkpt lat="44.06289" lon="0.58869">
        <ele>106</ele>
        <time>2025-07-24T14:52:50.289Z</time>
      </trkpt>
      <trkpt lat="44.06288" lon="0.58868">
        <ele>106</ele>
        <time>2025-07-24T14:52:51.289Z</time>
      </trkpt>
      <trkpt lat="44.06287" lon="0.58868">
        <ele>106</ele>
        <time>2025-07-24T14:52:52.289Z</time>
      </trkpt>
      <trkpt lat="44.06286" lon="0.58868">
        <ele>106</ele>
        <time>2025-07-24T14:52:53.289Z</time>
      </trkpt>
      <trkpt lat="44.06284" lon="0.58868">
        <ele>106</ele>
        <time>2025-07-24T14:52:54.289Z</time>
      </trkpt>
      <trkpt lat="44.06283" lon="0.58868">
        <ele>106</ele>
        <time>2025-07-24T14:52:55.289Z</time>
      </trkpt>
      <trkpt lat="44.06282" lon="0.58867">
        <ele>107</ele>
        <time>2025-07-24T14:52:56.289Z</time>
      </trkpt>
      <trkpt lat="44.0628" lon="0.58867">
        <ele>107</ele>
        <time>2025-07-24T14:52:57.289Z</time>
      </trkpt>
      <trkpt lat="44.06279" lon="0.58867">
        <ele>107</ele>
        <time>2025-07-24T14:52:58.289Z</time>
      </trkpt>
      <trkpt lat="44.06278" lon="0.58867">
        <ele>107</ele>
        <time>2025-07-24T14:52:59.289Z</time>
      </trkpt>
      <trkpt lat="44.06277" lon="0.58866">
        <ele>107</ele>
        <time>2025-07-24T14:53:00.289Z</time>
      </trkpt>
      <trkpt lat="44.06276" lon="0.58866">
        <ele>107</ele>
        <time>2025-07-24T14:53:01.289Z</time>
      </trkpt>
      <trkpt lat="44.06275" lon="0.58866">
        <ele>107</ele>
        <time>2025-07-24T14:53:02.289Z</time>
      </trkpt>
      <trkpt lat="44.06273" lon="0.58866">
        <ele>108</ele>
        <time>2025-07-24T14:53:03.289Z</time>
      </trkpt>
      <trkpt lat="44.06272" lon="0.58866">
        <ele>108</ele>
        <time>2025-07-24T14:53:04.289Z</time>
      </trkpt>
      <trkpt lat="44.06271" lon="0.58866">
        <ele>108</ele>
        <time>2025-07-24T14:53:05.289Z</time>
      </trkpt>
      <trkpt lat="44.0627" lon="0.58866">
        <ele>109</ele>
        <time>2025-07-24T14:53:06.289Z</time>
      </trkpt>
      <trkpt lat="44.06268" lon="0.58866">
        <ele>109</ele>
        <time>2025-07-24T14:53:07.289Z</time>
      </trkpt>
      <trkpt lat="44.06267" lon="0.58866">
        <ele>109</ele>
        <time>2025-07-24T14:53:08.289Z</time>
      </trkpt>
      <trkpt lat="44.06266" lon="0.58867">
        <ele>108</ele>
        <time>2025-07-24T14:53:09.289Z</time>
      </trkpt>
      <trkpt lat="44.06265" lon="0.58867">
        <ele>108</ele>
        <time>2025-07-24T14:53:10.289Z</time>
      </trkpt>
      <trkpt lat="44.06263" lon="0.58867">
        <ele>108</ele>
        <time>2025-07-24T14:53:11.289Z</time>
      </trkpt>
      <trkpt lat="44.06262" lon="0.58867">
        <ele>108</ele>
        <time>2025-07-24T14:53:12.289Z</time>
      </trkpt>
      <trkpt lat="44.06261" lon="0.58867">
        <ele>108</ele>
        <time>2025-07-24T14:53:13.289Z</time>
      </trkpt>
      <trkpt lat="44.0626" lon="0.58867">
        <ele>108</ele>
        <time>2025-07-24T14:53:14.289Z</time>
      </trkpt>
      <trkpt lat="44.06258" lon="0.58867">
        <ele>108</ele>
        <time>2025-07-24T14:53:15.289Z</time>
      </trkpt>
      <trkpt lat="44.06257" lon="0.58867">
        <ele>108</ele>
        <time>2025-07-24T14:53:16.289Z</time>
      </trkpt>
      <trkpt lat="44.06255" lon="0.58868">
        <ele>109</ele>
        <time>2025-07-24T14:53:17.289Z</time>
      </trkpt>
      <trkpt lat="44.06254" lon="0.58869">
        <ele>109</ele>
        <time>2025-07-24T14:53:18.289Z</time>
      </trkpt>
      <trkpt lat="44.06253" lon="0.58869">
        <ele>110</ele>
        <time>2025-07-24T14:53:19.289Z</time>
      </trkpt>
      <trkpt lat="44.06252" lon="0.5887">
        <ele>110</ele>
        <time>2025-07-24T14:53:20.289Z</time>
      </trkpt>
      <trkpt lat="44.06251" lon="0.5887">
        <ele>110</ele>
        <time>2025-07-24T14:53:21.289Z</time>
      </trkpt>
      <trkpt lat="44.0625" lon="0.5887">
        <ele>110</ele>
        <time>2025-07-24T14:53:22.289Z</time>
      </trkpt>
      <trkpt lat="44.06248" lon="0.58871">
        <ele>110</ele>
        <time>2025-07-24T14:53:23.289Z</time>
      </trkpt>
      <trkpt lat="44.06247" lon="0.58872">
        <ele>110</ele>
        <time>2025-07-24T14:53:24.289Z</time>
      </trkpt>
      <trkpt lat="44.06245" lon="0.58872">
        <ele>111</ele>
        <time>2025-07-24T14:53:25.289Z</time>
      </trkpt>
      <trkpt lat="44.06244" lon="0.58872">
        <ele>111</ele>
        <time>2025-07-24T14:53:26.289Z</time>
      </trkpt>
      <trkpt lat="44.06243" lon="0.58872">
        <ele>111</ele>
        <time>2025-07-24T14:53:27.289Z</time>
      </trkpt>
      <trkpt lat="44.06243" lon="0.58872">
        <ele>111</ele>
        <time>2025-07-24T14:53:28.289Z</time>
      </trkpt>
      <trkpt lat="44.06242" lon="0.58873">
        <ele>112</ele>
        <time>2025-07-24T14:53:29.289Z</time>
      </trkpt>
      <trkpt lat="44.06241" lon="0.58872">
        <ele>112</ele>
        <time>2025-07-24T14:53:30.289Z</time>
      </trkpt>
      <trkpt lat="44.0624" lon="0.58873">
        <ele>112</ele>
        <time>2025-07-24T14:53:31.289Z</time>
      </trkpt>
      <trkpt lat="44.06238" lon="0.58873">
        <ele>112</ele>
        <time>2025-07-24T14:53:32.289Z</time>
      </trkpt>
      <trkpt lat="44.06237" lon="0.58874">
        <ele>112</ele>
        <time>2025-07-24T14:53:33.289Z</time>
      </trkpt>
      <trkpt lat="44.06236" lon="0.58875">
        <ele>112</ele>
        <time>2025-07-24T14:53:34.289Z</time>
      </trkpt>
      <trkpt lat="44.06235" lon="0.58875">
        <ele>112</ele>
        <time>2025-07-24T14:53:35.289Z</time>
      </trkpt>
      <trkpt lat="44.06233" lon="0.58876">
        <ele>112</ele>
        <time>2025-07-24T14:53:36.289Z</time>
      </trkpt>
      <trkpt lat="44.06233" lon="0.58876">
        <ele>112</ele>
        <time>2025-07-24T14:53:37.289Z</time>
      </trkpt>
      <trkpt lat="44.06232" lon="0.58876">
        <ele>112</ele>
        <time>2025-07-24T14:53:38.289Z</time>
      </trkpt>
      <trkpt lat="44.06231" lon="0.58877">
        <ele>112</ele>
        <time>2025-07-24T14:53:39.289Z</time>
      </trkpt>
      <trkpt lat="44.06229" lon="0.58877">
        <ele>112</ele>
        <time>2025-07-24T14:53:40.289Z</time>
      </trkpt>
      <trkpt lat="44.06228" lon="0.58878">
        <ele>112</ele>
        <time>2025-07-24T14:53:41.289Z</time>
      </trkpt>
      <trkpt lat="44.06227" lon="0.58878">
        <ele>112</ele>
        <time>2025-07-24T14:53:42.289Z</time>
      </trkpt>
      <trkpt lat="44.06226" lon="0.58879">
        <ele>112</ele>
        <time>2025-07-24T14:53:43.289Z</time>
      </trkpt>
      <trkpt lat="44.06224" lon="0.5888">
        <ele>112</ele>
        <time>2025-07-24T14:53:44.289Z</time>
      </trkpt>
      <trkpt lat="44.06224" lon="0.5888">
        <ele>112</ele>
        <time>2025-07-24T14:53:45.289Z</time>
      </trkpt>
      <trkpt lat="44.06223" lon="0.5888">
        <ele>112</ele>
        <time>2025-07-24T14:53:46.289Z</time>
      </trkpt>
      <trkpt lat="44.06222" lon="0.58881">
        <ele>111</ele>
        <time>2025-07-24T14:53:47.289Z</time>
      </trkpt>
      <trkpt lat="44.0622" lon="0.58881">
        <ele>111</ele>
        <time>2025-07-24T14:53:48.289Z</time>
      </trkpt>
      <trkpt lat="44.06219" lon="0.58882">
        <ele>110</ele>
        <time>2025-07-24T14:53:49.289Z</time>
      </trkpt>
      <trkpt lat="44.06218" lon="0.58883">
        <ele>110</ele>
        <time>2025-07-24T14:53:50.289Z</time>
      </trkpt>
      <trkpt lat="44.06216" lon="0.58883">
        <ele>109</ele>
        <time>2025-07-24T14:53:51.289Z</time>
      </trkpt>
      <trkpt lat="44.06215" lon="0.58884">
        <ele>109</ele>
        <time>2025-07-24T14:53:52.289Z</time>
      </trkpt>
      <trkpt lat="44.06214" lon="0.58885">
        <ele>110</ele>
        <time>2025-07-24T14:53:53.289Z</time>
      </trkpt>
      <trkpt lat="44.06213" lon="0.58885">
        <ele>110</ele>
        <time>2025-07-24T14:53:54.289Z</time>
      </trkpt>
      <trkpt lat="44.06212" lon="0.58885">
        <ele>110</ele>
        <time>2025-07-24T14:53:55.289Z</time>
      </trkpt>
      <trkpt lat="44.06211" lon="0.58886">
        <ele>110</ele>
        <time>2025-07-24T14:53:56.289Z</time>
      </trkpt>
      <trkpt lat="44.0621" lon="0.58886">
        <ele>110</ele>
        <time>2025-07-24T14:53:57.289Z</time>
      </trkpt>
      <trkpt lat="44.06208" lon="0.58887">
        <ele>110</ele>
        <time>2025-07-24T14:53:58.289Z</time>
      </trkpt>
      <trkpt lat="44.06207" lon="0.58887">
        <ele>110</ele>
        <time>2025-07-24T14:53:59.289Z</time>
      </trkpt>
      <trkpt lat="44.06206" lon="0.58888">
        <ele>110</ele>
        <time>2025-07-24T14:54:00.289Z</time>
      </trkpt>
      <trkpt lat="44.06205" lon="0.58889">
        <ele>110</ele>
        <time>2025-07-24T14:54:01.289Z</time>
      </trkpt>
      <trkpt lat="44.06204" lon="0.58889">
        <ele>111</ele>
        <time>2025-07-24T14:54:02.289Z</time>
      </trkpt>
      <trkpt lat="44.06203" lon="0.58889">
        <ele>111</ele>
        <time>2025-07-24T14:54:03.289Z</time>
      </trkpt>
      <trkpt lat="44.06202" lon="0.5889">
        <ele>111</ele>
        <time>2025-07-24T14:54:04.289Z</time>
      </trkpt>
      <trkpt lat="44.06201" lon="0.5889">
        <ele>111</ele>
        <time>2025-07-24T14:54:05.289Z</time>
      </trkpt>
      <trkpt lat="44.062" lon="0.58891">
        <ele>111</ele>
        <time>2025-07-24T14:54:06.289Z</time>
      </trkpt>
      <trkpt lat="44.06199" lon="0.58891">
        <ele>112</ele>
        <time>2025-07-24T14:54:07.289Z</time>
      </trkpt>
      <trkpt lat="44.06198" lon="0.58892">
        <ele>112</ele>
        <time>2025-07-24T14:54:08.289Z</time>
      </trkpt>
      <trkpt lat="44.06197" lon="0.58892">
        <ele>112</ele>
        <time>2025-07-24T14:54:09.289Z</time>
      </trkpt>
      <trkpt lat="44.06196" lon="0.58893">
        <ele>112</ele>
        <time>2025-07-24T14:54:10.289Z</time>
      </trkpt>
      <trkpt lat="44.06195" lon="0.58893">
        <ele>113</ele>
        <time>2025-07-24T14:54:11.289Z</time>
      </trkpt>
      <trkpt lat="44.06194" lon="0.58894">
        <ele>113</ele>
        <time>2025-07-24T14:54:12.289Z</time>
      </trkpt>
      <trkpt lat="44.06192" lon="0.58894">
        <ele>113</ele>
        <time>2025-07-24T14:54:13.289Z</time>
      </trkpt>
      <trkpt lat="44.06191" lon="0.58895">
        <ele>114</ele>
        <time>2025-07-24T14:54:14.289Z</time>
      </trkpt>
      <trkpt lat="44.0619" lon="0.58895">
        <ele>114</ele>
        <time>2025-07-24T14:54:15.289Z</time>
      </trkpt>
      <trkpt lat="44.0619" lon="0.58895">
        <ele>114</ele>
        <time>2025-07-24T14:54:16.289Z</time>
      </trkpt>
      <trkpt lat="44.06188" lon="0.58895">
        <ele>114</ele>
        <time>2025-07-24T14:54:17.289Z</time>
      </trkpt>
      <trkpt lat="44.06187" lon="0.58896">
        <ele>115</ele>
        <time>2025-07-24T14:54:18.289Z</time>
      </trkpt>
      <trkpt lat="44.06186" lon="0.58896">
        <ele>115</ele>
        <time>2025-07-24T14:54:19.289Z</time>
      </trkpt>
      <trkpt lat="44.06185" lon="0.58897">
        <ele>115</ele>
        <time>2025-07-24T14:54:20.289Z</time>
      </trkpt>
      <trkpt lat="44.06184" lon="0.58897">
        <ele>115</ele>
        <time>2025-07-24T14:54:21.289Z</time>
      </trkpt>
      <trkpt lat="44.06183" lon="0.58897">
        <ele>114</ele>
        <time>2025-07-24T14:54:22.289Z</time>
      </trkpt>
      <trkpt lat="44.06182" lon="0.58897">
        <ele>114</ele>
        <time>2025-07-24T14:54:23.289Z</time>
      </trkpt>
      <trkpt lat="44.06181" lon="0.58898">
        <ele>114</ele>
        <time>2025-07-24T14:54:24.289Z</time>
      </trkpt>
      <trkpt lat="44.06179" lon="0.58898">
        <ele>115</ele>
        <time>2025-07-24T14:54:25.289Z</time>
      </trkpt>
      <trkpt lat="44.06178" lon="0.58898">
        <ele>115</ele>
        <time>2025-07-24T14:54:26.289Z</time>
      </trkpt>
      <trkpt lat="44.06177" lon="0.58898">
        <ele>115</ele>
        <time>2025-07-24T14:54:27.289Z</time>
      </trkpt>
      <trkpt lat="44.06176" lon="0.58899">
        <ele>115</ele>
        <time>2025-07-24T14:54:28.289Z</time>
      </trkpt>
      <trkpt lat="44.06175" lon="0.58899">
        <ele>116</ele>
        <time>2025-07-24T14:54:29.289Z</time>
      </trkpt>
      <trkpt lat="44.06174" lon="0.58899">
        <ele>116</ele>
        <time>2025-07-24T14:54:30.289Z</time>
      </trkpt>
      <trkpt lat="44.06173" lon="0.58899">
        <ele>116</ele>
        <time>2025-07-24T14:54:31.289Z</time>
      </trkpt>
      <trkpt lat="44.06172" lon="0.58899">
        <ele>116</ele>
        <time>2025-07-24T14:54:32.289Z</time>
      </trkpt>
      <trkpt lat="44.0617" lon="0.58899">
        <ele>116</ele>
        <time>2025-07-24T14:54:33.289Z</time>
      </trkpt>
      <trkpt lat="44.06169" lon="0.589">
        <ele>116</ele>
        <time>2025-07-24T14:54:34.289Z</time>
      </trkpt>
      <trkpt lat="44.06168" lon="0.589">
        <ele>116</ele>
        <time>2025-07-24T14:54:35.289Z</time>
      </trkpt>
      <trkpt lat="44.06167" lon="0.589">
        <ele>116</ele>
        <time>2025-07-24T14:54:36.289Z</time>
      </trkpt>
      <trkpt lat="44.06166" lon="0.589">
        <ele>117</ele>
        <time>2025-07-24T14:54:37.289Z</time>
      </trkpt>
      <trkpt lat="44.06165" lon="0.589">
        <ele>117</ele>
        <time>2025-07-24T14:54:38.289Z</time>
      </trkpt>
      <trkpt lat="44.06164" lon="0.589">
        <ele>118</ele>
        <time>2025-07-24T14:54:39.289Z</time>
      </trkpt>
      <trkpt lat="44.06163" lon="0.589">
        <ele>118</ele>
        <time>2025-07-24T14:54:40.289Z</time>
      </trkpt>
      <trkpt lat="44.06161" lon="0.589">
        <ele>118</ele>
        <time>2025-07-24T14:54:41.289Z</time>
      </trkpt>
      <trkpt lat="44.0616" lon="0.589">
        <ele>119</ele>
        <time>2025-07-24T14:54:42.289Z</time>
      </trkpt>
      <trkpt lat="44.06159" lon="0.58899">
        <ele>119</ele>
        <time>2025-07-24T14:54:43.289Z</time>
      </trkpt>
      <trkpt lat="44.06158" lon="0.58899">
        <ele>119</ele>
        <time>2025-07-24T14:54:44.289Z</time>
      </trkpt>
      <trkpt lat="44.06157" lon="0.58898">
        <ele>119</ele>
        <time>2025-07-24T14:54:45.289Z</time>
      </trkpt>
      <trkpt lat="44.06156" lon="0.58898">
        <ele>119</ele>
        <time>2025-07-24T14:54:46.289Z</time>
      </trkpt>
      <trkpt lat="44.06155" lon="0.58898">
        <ele>119</ele>
        <time>2025-07-24T14:54:47.289Z</time>
      </trkpt>
      <trkpt lat="44.06154" lon="0.58898">
        <ele>119</ele>
        <time>2025-07-24T14:54:48.289Z</time>
      </trkpt>
      <trkpt lat="44.06153" lon="0.58897">
        <ele>119</ele>
        <time>2025-07-24T14:54:49.289Z</time>
      </trkpt>
      <trkpt lat="44.06152" lon="0.58897">
        <ele>119</ele>
        <time>2025-07-24T14:54:50.289Z</time>
      </trkpt>
      <trkpt lat="44.06151" lon="0.58897">
        <ele>119</ele>
        <time>2025-07-24T14:54:51.289Z</time>
      </trkpt>
      <trkpt lat="44.0615" lon="0.58897">
        <ele>119</ele>
        <time>2025-07-24T14:54:52.289Z</time>
      </trkpt>
      <trkpt lat="44.06149" lon="0.58896">
        <ele>119</ele>
        <time>2025-07-24T14:54:53.289Z</time>
      </trkpt>
      <trkpt lat="44.06148" lon="0.58896">
        <ele>119</ele>
        <time>2025-07-24T14:54:54.289Z</time>
      </trkpt>
      <trkpt lat="44.06147" lon="0.58896">
        <ele>119</ele>
        <time>2025-07-24T14:54:55.289Z</time>
      </trkpt>
      <trkpt lat="44.06145" lon="0.58895">
        <ele>119</ele>
        <time>2025-07-24T14:54:56.289Z</time>
      </trkpt>
      <trkpt lat="44.06144" lon="0.58895">
        <ele>119</ele>
        <time>2025-07-24T14:54:57.289Z</time>
      </trkpt>
      <trkpt lat="44.06143" lon="0.58895">
        <ele>119</ele>
        <time>2025-07-24T14:54:58.289Z</time>
      </trkpt>
      <trkpt lat="44.06142" lon="0.58895">
        <ele>119</ele>
        <time>2025-07-24T14:54:59.289Z</time>
      </trkpt>
      <trkpt lat="44.06141" lon="0.58894">
        <ele>119</ele>
        <time>2025-07-24T14:55:00.289Z</time>
      </trkpt>
      <trkpt lat="44.0614" lon="0.58894">
        <ele>119</ele>
        <time>2025-07-24T14:55:01.289Z</time>
      </trkpt>
      <trkpt lat="44.06139" lon="0.58894">
        <ele>119</ele>
        <time>2025-07-24T14:55:02.289Z</time>
      </trkpt>
      <trkpt lat="44.06138" lon="0.58893">
        <ele>119</ele>
        <time>2025-07-24T14:55:03.289Z</time>
      </trkpt>
      <trkpt lat="44.06137" lon="0.58894">
        <ele>120</ele>
        <time>2025-07-24T14:55:04.289Z</time>
      </trkpt>
      <trkpt lat="44.06136" lon="0.58894">
        <ele>120</ele>
        <time>2025-07-24T14:55:05.289Z</time>
      </trkpt>
      <trkpt lat="44.06135" lon="0.58894">
        <ele>121</ele>
        <time>2025-07-24T14:55:06.289Z</time>
      </trkpt>
      <trkpt lat="44.06134" lon="0.58893">
        <ele>121</ele>
        <time>2025-07-24T14:55:07.289Z</time>
      </trkpt>
      <trkpt lat="44.06132" lon="0.58892">
        <ele>121</ele>
        <time>2025-07-24T14:55:08.289Z</time>
      </trkpt>
      <trkpt lat="44.06131" lon="0.58892">
        <ele>122</ele>
        <time>2025-07-24T14:55:09.289Z</time>
      </trkpt>
      <trkpt lat="44.06131" lon="0.58892">
        <ele>122</ele>
        <time>2025-07-24T14:55:10.289Z</time>
      </trkpt>
      <trkpt lat="44.0613" lon="0.58891">
        <ele>122</ele>
        <time>2025-07-24T14:55:11.289Z</time>
      </trkpt>
      <trkpt lat="44.06128" lon="0.58891">
        <ele>122</ele>
        <time>2025-07-24T14:55:12.289Z</time>
      </trkpt>
      <trkpt lat="44.06128" lon="0.5889">
        <ele>122</ele>
        <time>2025-07-24T14:55:13.289Z</time>
      </trkpt>
      <trkpt lat="44.06127" lon="0.58889">
        <ele>122</ele>
        <time>2025-07-24T14:55:14.289Z</time>
      </trkpt>
      <trkpt lat="44.06126" lon="0.58889">
        <ele>122</ele>
        <time>2025-07-24T14:55:15.289Z</time>
      </trkpt>
      <trkpt lat="44.06125" lon="0.58888">
        <ele>122</ele>
        <time>2025-07-24T14:55:16.289Z</time>
      </trkpt>
      <trkpt lat="44.06124" lon="0.58888">
        <ele>123</ele>
        <time>2025-07-24T14:55:17.289Z</time>
      </trkpt>
      <trkpt lat="44.06123" lon="0.58888">
        <ele>123</ele>
        <time>2025-07-24T14:55:18.289Z</time>
      </trkpt>
      <trkpt lat="44.06122" lon="0.58887">
        <ele>123</ele>
        <time>2025-07-24T14:55:19.289Z</time>
      </trkpt>
      <trkpt lat="44.06121" lon="0.58887">
        <ele>123</ele>
        <time>2025-07-24T14:55:20.289Z</time>
      </trkpt>
      <trkpt lat="44.0612" lon="0.58887">
        <ele>124</ele>
        <time>2025-07-24T14:55:21.289Z</time>
      </trkpt>
      <trkpt lat="44.06119" lon="0.58887">
        <ele>124</ele>
        <time>2025-07-24T14:55:22.289Z</time>
      </trkpt>
      <trkpt lat="44.06118" lon="0.58886">
        <ele>124</ele>
        <time>2025-07-24T14:55:23.289Z</time>
      </trkpt>
      <trkpt lat="44.06117" lon="0.58886">
        <ele>124</ele>
        <time>2025-07-24T14:55:24.289Z</time>
      </trkpt>
      <trkpt lat="44.06116" lon="0.58886">
        <ele>124</ele>
        <time>2025-07-24T14:55:25.289Z</time>
      </trkpt>
      <trkpt lat="44.06115" lon="0.58885">
        <ele>124</ele>
        <time>2025-07-24T14:55:26.289Z</time>
      </trkpt>
      <trkpt lat="44.06114" lon="0.58885">
        <ele>124</ele>
        <time>2025-07-24T14:55:27.289Z</time>
      </trkpt>
      <trkpt lat="44.06113" lon="0.58885">
        <ele>124</ele>
        <time>2025-07-24T14:55:28.289Z</time>
      </trkpt>
      <trkpt lat="44.06112" lon="0.58884">
        <ele>123</ele>
        <time>2025-07-24T14:55:29.289Z</time>
      </trkpt>
      <trkpt lat="44.06111" lon="0.58884">
        <ele>123</ele>
        <time>2025-07-24T14:55:30.289Z</time>
      </trkpt>
      <trkpt lat="44.06111" lon="0.58883">
        <ele>123</ele>
        <time>2025-07-24T14:55:31.289Z</time>
      </trkpt>
      <trkpt lat="44.06109" lon="0.58883">
        <ele>123</ele>
        <time>2025-07-24T14:55:32.289Z</time>
      </trkpt>
      <trkpt lat="44.06108" lon="0.58882">
        <ele>123</ele>
        <time>2025-07-24T14:55:33.289Z</time>
      </trkpt>
      <trkpt lat="44.06107" lon="0.58882">
        <ele>123</ele>
        <time>2025-07-24T14:55:34.289Z</time>
      </trkpt>
      <trkpt lat="44.06106" lon="0.58882">
        <ele>123</ele>
        <time>2025-07-24T14:55:35.289Z</time>
      </trkpt>
      <trkpt lat="44.06105" lon="0.58882">
        <ele>123</ele>
        <time>2025-07-24T14:55:36.289Z</time>
      </trkpt>
      <trkpt lat="44.06104" lon="0.58882">
        <ele>123</ele>
        <time>2025-07-24T14:55:37.289Z</time>
      </trkpt>
      <trkpt lat="44.06103" lon="0.58882">
        <ele>124</ele>
        <time>2025-07-24T14:55:38.289Z</time>
      </trkpt>
      <trkpt lat="44.06102" lon="0.58881">
        <ele>124</ele>
        <time>2025-07-24T14:55:39.289Z</time>
      </trkpt>
      <trkpt lat="44.06101" lon="0.58881">
        <ele>124</ele>
        <time>2025-07-24T14:55:40.289Z</time>
      </trkpt>
      <trkpt lat="44.061" lon="0.58881">
        <ele>124</ele>
        <time>2025-07-24T14:55:41.289Z</time>
      </trkpt>
      <trkpt lat="44.061" lon="0.5888">
        <ele>124</ele>
        <time>2025-07-24T14:55:42.289Z</time>
      </trkpt>
      <trkpt lat="44.06099" lon="0.58879">
        <ele>124</ele>
        <time>2025-07-24T14:55:43.289Z</time>
      </trkpt>
      <trkpt lat="44.06098" lon="0.5888">
        <ele>124</ele>
        <time>2025-07-24T14:55:44.289Z</time>
      </trkpt>
      <trkpt lat="44.06096" lon="0.5888">
        <ele>124</ele>
        <time>2025-07-24T14:55:45.289Z</time>
      </trkpt>
      <trkpt lat="44.06095" lon="0.5888">
        <ele>124</ele>
        <time>2025-07-24T14:55:46.289Z</time>
      </trkpt>
      <trkpt lat="44.06094" lon="0.5888">
        <ele>125</ele>
        <time>2025-07-24T14:55:47.289Z</time>
      </trkpt>
      <trkpt lat="44.06093" lon="0.5888">
        <ele>124</ele>
        <time>2025-07-24T14:55:48.289Z</time>
      </trkpt>
      <trkpt lat="44.06092" lon="0.5888">
        <ele>124</ele>
        <time>2025-07-24T14:55:49.289Z</time>
      </trkpt>
      <trkpt lat="44.06091" lon="0.58879">
        <ele>125</ele>
        <time>2025-07-24T14:55:50.289Z</time>
      </trkpt>
      <trkpt lat="44.0609" lon="0.58879">
        <ele>125</ele>
        <time>2025-07-24T14:55:51.289Z</time>
      </trkpt>
      <trkpt lat="44.06089" lon="0.58878">
        <ele>125</ele>
        <time>2025-07-24T14:55:52.289Z</time>
      </trkpt>
      <trkpt lat="44.06088" lon="0.58878">
        <ele>125</ele>
        <time>2025-07-24T14:55:53.289Z</time>
      </trkpt>
      <trkpt lat="44.06087" lon="0.58878">
        <ele>126</ele>
        <time>2025-07-24T14:55:54.289Z</time>
      </trkpt>
      <trkpt lat="44.06086" lon="0.58878">
        <ele>126</ele>
        <time>2025-07-24T14:55:55.289Z</time>
      </trkpt>
      <trkpt lat="44.06085" lon="0.58878">
        <ele>126</ele>
        <time>2025-07-24T14:55:56.289Z</time>
      </trkpt>
      <trkpt lat="44.06084" lon="0.58878">
        <ele>126</ele>
        <time>2025-07-24T14:55:57.289Z</time>
      </trkpt>
      <trkpt lat="44.06083" lon="0.58878">
        <ele>126</ele>
        <time>2025-07-24T14:55:58.289Z</time>
      </trkpt>
      <trkpt lat="44.06082" lon="0.58878">
        <ele>126</ele>
        <time>2025-07-24T14:55:59.289Z</time>
      </trkpt>
      <trkpt lat="44.06081" lon="0.58878">
        <ele>126</ele>
        <time>2025-07-24T14:56:00.289Z</time>
      </trkpt>
      <trkpt lat="44.0608" lon="0.58878">
        <ele>126</ele>
        <time>2025-07-24T14:56:01.289Z</time>
      </trkpt>
      <trkpt lat="44.06079" lon="0.58878">
        <ele>126</ele>
        <time>2025-07-24T14:56:02.289Z</time>
      </trkpt>
      <trkpt lat="44.06078" lon="0.58878">
        <ele>126</ele>
        <time>2025-07-24T14:56:03.289Z</time>
      </trkpt>
      <trkpt lat="44.06077" lon="0.58878">
        <ele>125</ele>
        <time>2025-07-24T14:56:04.289Z</time>
      </trkpt>
      <trkpt lat="44.06076" lon="0.58878">
        <ele>125</ele>
        <time>2025-07-24T14:56:05.289Z</time>
      </trkpt>
      <trkpt lat="44.06075" lon="0.58878">
        <ele>125</ele>
        <time>2025-07-24T14:56:06.289Z</time>
      </trkpt>
      <trkpt lat="44.06074" lon="0.58878">
        <ele>125</ele>
        <time>2025-07-24T14:56:07.289Z</time>
      </trkpt>
      <trkpt lat="44.06073" lon="0.58878">
        <ele>126</ele>
        <time>2025-07-24T14:56:08.289Z</time>
      </trkpt>
      <trkpt lat="44.06072" lon="0.58878">
        <ele>126</ele>
        <time>2025-07-24T14:56:09.289Z</time>
      </trkpt>
      <trkpt lat="44.06071" lon="0.58878">
        <ele>127</ele>
        <time>2025-07-24T14:56:10.289Z</time>
      </trkpt>
      <trkpt lat="44.0607" lon="0.58878">
        <ele>127</ele>
        <time>2025-07-24T14:56:11.289Z</time>
      </trkpt>
      <trkpt lat="44.06069" lon="0.58878">
        <ele>127</ele>
        <time>2025-07-24T14:56:12.289Z</time>
      </trkpt>
      <trkpt lat="44.06068" lon="0.58878">
        <ele>127</ele>
        <time>2025-07-24T14:56:13.289Z</time>
      </trkpt>
      <trkpt lat="44.06067" lon="0.58879">
        <ele>128</ele>
        <time>2025-07-24T14:56:14.289Z</time>
      </trkpt>
      <trkpt lat="44.06066" lon="0.58879">
        <ele>128</ele>
        <time>2025-07-24T14:56:15.289Z</time>
      </trkpt>
      <trkpt lat="44.06065" lon="0.58879">
        <ele>128</ele>
        <time>2025-07-24T14:56:16.289Z</time>
      </trkpt>
      <trkpt lat="44.06064" lon="0.58879">
        <ele>128</ele>
        <time>2025-07-24T14:56:17.289Z</time>
      </trkpt>
      <trkpt lat="44.06063" lon="0.58879">
        <ele>129</ele>
        <time>2025-07-24T14:56:18.289Z</time>
      </trkpt>
      <trkpt lat="44.06062" lon="0.58879">
        <ele>129</ele>
        <time>2025-07-24T14:56:19.289Z</time>
      </trkpt>
      <trkpt lat="44.06061" lon="0.5888">
        <ele>129</ele>
        <time>2025-07-24T14:56:20.289Z</time>
      </trkpt>
      <trkpt lat="44.0606" lon="0.5888">
        <ele>129</ele>
        <time>2025-07-24T14:56:21.289Z</time>
      </trkpt>
      <trkpt lat="44.06059" lon="0.5888">
        <ele>129</ele>
        <time>2025-07-24T14:56:22.289Z</time>
      </trkpt>
      <trkpt lat="44.06057" lon="0.5888">
        <ele>129</ele>
        <time>2025-07-24T14:56:23.289Z</time>
      </trkpt>
      <trkpt lat="44.06057" lon="0.5888">
        <ele>129</ele>
        <time>2025-07-24T14:56:24.289Z</time>
      </trkpt>
      <trkpt lat="44.06056" lon="0.58881">
        <ele>129</ele>
        <time>2025-07-24T14:56:25.289Z</time>
      </trkpt>
      <trkpt lat="44.06055" lon="0.58881">
        <ele>129</ele>
        <time>2025-07-24T14:56:26.289Z</time>
      </trkpt>
      <trkpt lat="44.06054" lon="0.58881">
        <ele>129</ele>
        <time>2025-07-24T14:56:27.290Z</time>
      </trkpt>
      <trkpt lat="44.06053" lon="0.5888">
        <ele>130</ele>
        <time>2025-07-24T14:56:28.289Z</time>
      </trkpt>
      <trkpt lat="44.06052" lon="0.5888">
        <ele>130</ele>
        <time>2025-07-24T14:56:29.289Z</time>
      </trkpt>
      <trkpt lat="44.06051" lon="0.5888">
        <ele>130</ele>
        <time>2025-07-24T14:56:30.289Z</time>
      </trkpt>
      <trkpt lat="44.0605" lon="0.5888">
        <ele>130</ele>
        <time>2025-07-24T14:56:31.289Z</time>
      </trkpt>
      <trkpt lat="44.06049" lon="0.5888">
        <ele>131</ele>
        <time>2025-07-24T14:56:32.289Z</time>
      </trkpt>
      <trkpt lat="44.06048" lon="0.5888">
        <ele>131</ele>
        <time>2025-07-24T14:56:33.289Z</time>
      </trkpt>
      <trkpt lat="44.06047" lon="0.5888">
        <ele>131</ele>
        <time>2025-07-24T14:56:34.289Z</time>
      </trkpt>
      <trkpt lat="44.06046" lon="0.5888">
        <ele>131</ele>
        <time>2025-07-24T14:56:35.289Z</time>
      </trkpt>
      <trkpt lat="44.06045" lon="0.5888">
        <ele>131</ele>
        <time>2025-07-24T14:56:36.289Z</time>
      </trkpt>
      <trkpt lat="44.06044" lon="0.58881">
        <ele>131</ele>
        <time>2025-07-24T14:56:37.289Z</time>
      </trkpt>
      <trkpt lat="44.06043" lon="0.5888">
        <ele>131</ele>
        <time>2025-07-24T14:56:38.289Z</time>
      </trkpt>
      <trkpt lat="44.06042" lon="0.5888">
        <ele>132</ele>
        <time>2025-07-24T14:56:39.289Z</time>
      </trkpt>
      <trkpt lat="44.06041" lon="0.5888">
        <ele>132</ele>
        <time>2025-07-24T14:56:40.289Z</time>
      </trkpt>
      <trkpt lat="44.0604" lon="0.5888">
        <ele>132</ele>
        <time>2025-07-24T14:56:41.289Z</time>
      </trkpt>
      <trkpt lat="44.06039" lon="0.5888">
        <ele>132</ele>
        <time>2025-07-24T14:56:42.289Z</time>
      </trkpt>
      <trkpt lat="44.06038" lon="0.5888">
        <ele>132</ele>
        <time>2025-07-24T14:56:43.289Z</time>
      </trkpt>
      <trkpt lat="44.06037" lon="0.58879">
        <ele>133</ele>
        <time>2025-07-24T14:56:44.289Z</time>
      </trkpt>
      <trkpt lat="44.06036" lon="0.58879">
        <ele>133</ele>
        <time>2025-07-24T14:56:45.289Z</time>
      </trkpt>
      <trkpt lat="44.06035" lon="0.58879">
        <ele>133</ele>
        <time>2025-07-24T14:56:46.289Z</time>
      </trkpt>
      <trkpt lat="44.06034" lon="0.58879">
        <ele>133</ele>
        <time>2025-07-24T14:56:47.289Z</time>
      </trkpt>
      <trkpt lat="44.06033" lon="0.58879">
        <ele>133</ele>
        <time>2025-07-24T14:56:48.289Z</time>
      </trkpt>
      <trkpt lat="44.06032" lon="0.58878">
        <ele>133</ele>
        <time>2025-07-24T14:56:49.289Z</time>
      </trkpt>
      <trkpt lat="44.06031" lon="0.58878">
        <ele>133</ele>
        <time>2025-07-24T14:56:50.289Z</time>
      </trkpt>
      <trkpt lat="44.0603" lon="0.58878">
        <ele>133</ele>
        <time>2025-07-24T14:56:51.289Z</time>
      </trkpt>
      <trkpt lat="44.0603" lon="0.58878">
        <ele>133</ele>
        <time>2025-07-24T14:56:52.289Z</time>
      </trkpt>
      <trkpt lat="44.06029" lon="0.58877">
        <ele>133</ele>
        <time>2025-07-24T14:56:53.289Z</time>
      </trkpt>
      <trkpt lat="44.06028" lon="0.58877">
        <ele>133</ele>
        <time>2025-07-24T14:56:54.289Z</time>
      </trkpt>
      <trkpt lat="44.06026" lon="0.58878">
        <ele>133</ele>
        <time>2025-07-24T14:56:55.289Z</time>
      </trkpt>
      <trkpt lat="44.06025" lon="0.58877">
        <ele>133</ele>
        <time>2025-07-24T14:56:56.289Z</time>
      </trkpt>
      <trkpt lat="44.06024" lon="0.58877">
        <ele>133</ele>
        <time>2025-07-24T14:56:57.289Z</time>
      </trkpt>
      <trkpt lat="44.06023" lon="0.58877">
        <ele>133</ele>
        <time>2025-07-24T14:56:58.289Z</time>
      </trkpt>
      <trkpt lat="44.06022" lon="0.58877">
        <ele>133</ele>
        <time>2025-07-24T14:56:59.289Z</time>
      </trkpt>
      <trkpt lat="44.06021" lon="0.58877">
        <ele>132</ele>
        <time>2025-07-24T14:57:00.289Z</time>
      </trkpt>
      <trkpt lat="44.0602" lon="0.58877">
        <ele>133</ele>
        <time>2025-07-24T14:57:01.289Z</time>
      </trkpt>
      <trkpt lat="44.06019" lon="0.58876">
        <ele>133</ele>
        <time>2025-07-24T14:57:02.289Z</time>
      </trkpt>
      <trkpt lat="44.06018" lon="0.58876">
        <ele>133</ele>
        <time>2025-07-24T14:57:03.289Z</time>
      </trkpt>
      <trkpt lat="44.06017" lon="0.58875">
        <ele>134</ele>
        <time>2025-07-24T14:57:04.289Z</time>
      </trkpt>
      <trkpt lat="44.06016" lon="0.58875">
        <ele>134</ele>
        <time>2025-07-24T14:57:05.289Z</time>
      </trkpt>
      <trkpt lat="44.06015" lon="0.58874">
        <ele>135</ele>
        <time>2025-07-24T14:57:06.289Z</time>
      </trkpt>
      <trkpt lat="44.06014" lon="0.58874">
        <ele>135</ele>
        <time>2025-07-24T14:57:07.289Z</time>
      </trkpt>
      <trkpt lat="44.06013" lon="0.58874">
        <ele>136</ele>
        <time>2025-07-24T14:57:08.289Z</time>
      </trkpt>
      <trkpt lat="44.06011" lon="0.58873">
        <ele>136</ele>
        <time>2025-07-24T14:57:09.289Z</time>
      </trkpt>
      <trkpt lat="44.0601" lon="0.58873">
        <ele>136</ele>
        <time>2025-07-24T14:57:10.289Z</time>
      </trkpt>
      <trkpt lat="44.06009" lon="0.58872">
        <ele>137</ele>
        <time>2025-07-24T14:57:11.289Z</time>
      </trkpt>
      <trkpt lat="44.06008" lon="0.58872">
        <ele>137</ele>
        <time>2025-07-24T14:57:12.289Z</time>
      </trkpt>
      <trkpt lat="44.06007" lon="0.58871">
        <ele>137</ele>
        <time>2025-07-24T14:57:13.289Z</time>
      </trkpt>
      <trkpt lat="44.06006" lon="0.58871">
        <ele>137</ele>
        <time>2025-07-24T14:57:14.289Z</time>
      </trkpt>
      <trkpt lat="44.06005" lon="0.58871">
        <ele>138</ele>
        <time>2025-07-24T14:57:15.289Z</time>
      </trkpt>
      <trkpt lat="44.06004" lon="0.5887">
        <ele>138</ele>
        <time>2025-07-24T14:57:16.289Z</time>
      </trkpt>
      <trkpt lat="44.06003" lon="0.5887">
        <ele>138</ele>
        <time>2025-07-24T14:57:17.289Z</time>
      </trkpt>
      <trkpt lat="44.06002" lon="0.58869">
        <ele>138</ele>
        <time>2025-07-24T14:57:18.289Z</time>
      </trkpt>
      <trkpt lat="44.06001" lon="0.58869">
        <ele>138</ele>
        <time>2025-07-24T14:57:19.289Z</time>
      </trkpt>
      <trkpt lat="44.06" lon="0.58868">
        <ele>139</ele>
        <time>2025-07-24T14:57:20.289Z</time>
      </trkpt>
      <trkpt lat="44.05999" lon="0.58867">
        <ele>139</ele>
        <time>2025-07-24T14:57:21.289Z</time>
      </trkpt>
      <trkpt lat="44.05998" lon="0.58866">
        <ele>138</ele>
        <time>2025-07-24T14:57:22.289Z</time>
      </trkpt>
      <trkpt lat="44.05997" lon="0.58865">
        <ele>138</ele>
        <time>2025-07-24T14:57:23.289Z</time>
      </trkpt>
      <trkpt lat="44.05996" lon="0.58864">
        <ele>139</ele>
        <time>2025-07-24T14:57:24.289Z</time>
      </trkpt>
      <trkpt lat="44.05995" lon="0.58863">
        <ele>139</ele>
        <time>2025-07-24T14:57:25.289Z</time>
      </trkpt>
      <trkpt lat="44.05995" lon="0.58862">
        <ele>140</ele>
        <time>2025-07-24T14:57:26.289Z</time>
      </trkpt>
      <trkpt lat="44.05994" lon="0.58861">
        <ele>141</ele>
        <time>2025-07-24T14:57:27.289Z</time>
      </trkpt>
      <trkpt lat="44.05993" lon="0.5886">
        <ele>141</ele>
        <time>2025-07-24T14:57:28.289Z</time>
      </trkpt>
      <trkpt lat="44.05992" lon="0.58859">
        <ele>141</ele>
        <time>2025-07-24T14:57:29.289Z</time>
      </trkpt>
      <trkpt lat="44.05991" lon="0.58858">
        <ele>142</ele>
        <time>2025-07-24T14:57:30.289Z</time>
      </trkpt>
      <trkpt lat="44.05991" lon="0.58857">
        <ele>142</ele>
        <time>2025-07-24T14:57:31.289Z</time>
      </trkpt>
      <trkpt lat="44.0599" lon="0.58856">
        <ele>141</ele>
        <time>2025-07-24T14:57:32.289Z</time>
      </trkpt>
      <trkpt lat="44.05989" lon="0.58855">
        <ele>141</ele>
        <time>2025-07-24T14:57:33.289Z</time>
      </trkpt>
      <trkpt lat="44.05988" lon="0.58854">
        <ele>141</ele>
        <time>2025-07-24T14:57:34.289Z</time>
      </trkpt>
      <trkpt lat="44.05987" lon="0.58853">
        <ele>141</ele>
        <time>2025-07-24T14:57:35.289Z</time>
      </trkpt>
      <trkpt lat="44.05987" lon="0.58852">
        <ele>141</ele>
        <time>2025-07-24T14:57:36.289Z</time>
      </trkpt>
      <trkpt lat="44.05986" lon="0.58851">
        <ele>141</ele>
        <time>2025-07-24T14:57:37.289Z</time>
      </trkpt>
      <trkpt lat="44.05985" lon="0.5885">
        <ele>141</ele>
        <time>2025-07-24T14:57:38.289Z</time>
      </trkpt>
      <trkpt lat="44.05985" lon="0.58849">
        <ele>141</ele>
        <time>2025-07-24T14:57:39.289Z</time>
      </trkpt>
      <trkpt lat="44.05984" lon="0.58848">
        <ele>141</ele>
        <time>2025-07-24T14:57:40.289Z</time>
      </trkpt>
      <trkpt lat="44.05983" lon="0.58846">
        <ele>141</ele>
        <time>2025-07-24T14:57:41.289Z</time>
      </trkpt>
      <trkpt lat="44.05983" lon="0.58845">
        <ele>141</ele>
        <time>2025-07-24T14:57:42.289Z</time>
      </trkpt>
      <trkpt lat="44.05982" lon="0.58844">
        <ele>141</ele>
        <time>2025-07-24T14:57:43.289Z</time>
      </trkpt>
      <trkpt lat="44.05981" lon="0.58843">
        <ele>141</ele>
        <time>2025-07-24T14:57:44.289Z</time>
      </trkpt>
      <trkpt lat="44.05981" lon="0.58842">
        <ele>142</ele>
        <time>2025-07-24T14:57:45.289Z</time>
      </trkpt>
      <trkpt lat="44.0598" lon="0.5884">
        <ele>142</ele>
        <time>2025-07-24T14:57:46.289Z</time>
      </trkpt>
      <trkpt lat="44.05979" lon="0.58839">
        <ele>142</ele>
        <time>2025-07-24T14:57:47.289Z</time>
      </trkpt>
      <trkpt lat="44.05979" lon="0.58837">
        <ele>142</ele>
        <time>2025-07-24T14:57:48.289Z</time>
      </trkpt>
      <trkpt lat="44.05978" lon="0.58836">
        <ele>142</ele>
        <time>2025-07-24T14:57:49.289Z</time>
      </trkpt>
      <trkpt lat="44.05978" lon="0.58835">
        <ele>142</ele>
        <time>2025-07-24T14:57:50.289Z</time>
      </trkpt>
      <trkpt lat="44.05977" lon="0.58834">
        <ele>142</ele>
        <time>2025-07-24T14:57:51.289Z</time>
      </trkpt>
      <trkpt lat="44.05976" lon="0.58832">
        <ele>142</ele>
        <time>2025-07-24T14:57:52.289Z</time>
      </trkpt>
      <trkpt lat="44.05975" lon="0.58831">
        <ele>143</ele>
        <time>2025-07-24T14:57:53.290Z</time>
      </trkpt>
      <trkpt lat="44.05975" lon="0.5883">
        <ele>142</ele>
        <time>2025-07-24T14:57:54.289Z</time>
      </trkpt>
      <trkpt lat="44.05974" lon="0.58829">
        <ele>143</ele>
        <time>2025-07-24T14:57:55.289Z</time>
      </trkpt>
      <trkpt lat="44.05974" lon="0.58828">
        <ele>143</ele>
        <time>2025-07-24T14:57:56.289Z</time>
      </trkpt>
      <trkpt lat="44.05973" lon="0.58827">
        <ele>143</ele>
        <time>2025-07-24T14:57:57.289Z</time>
      </trkpt>
      <trkpt lat="44.05972" lon="0.58826">
        <ele>143</ele>
        <time>2025-07-24T14:57:58.289Z</time>
      </trkpt>
      <trkpt lat="44.05971" lon="0.58824">
        <ele>143</ele>
        <time>2025-07-24T14:57:59.289Z</time>
      </trkpt>
      <trkpt lat="44.05971" lon="0.58823">
        <ele>143</ele>
        <time>2025-07-24T14:58:00.289Z</time>
      </trkpt>
      <trkpt lat="44.0597" lon="0.58822">
        <ele>143</ele>
        <time>2025-07-24T14:58:01.289Z</time>
      </trkpt>
      <trkpt lat="44.05969" lon="0.58821">
        <ele>143</ele>
        <time>2025-07-24T14:58:02.289Z</time>
      </trkpt>
      <trkpt lat="44.05968" lon="0.5882">
        <ele>142</ele>
        <time>2025-07-24T14:58:03.289Z</time>
      </trkpt>
      <trkpt lat="44.05968" lon="0.58818">
        <ele>143</ele>
        <time>2025-07-24T14:58:04.289Z</time>
      </trkpt>
      <trkpt lat="44.05967" lon="0.58817">
        <ele>143</ele>
        <time>2025-07-24T14:58:05.289Z</time>
      </trkpt>
      <trkpt lat="44.05967" lon="0.58816">
        <ele>143</ele>
        <time>2025-07-24T14:58:06.289Z</time>
      </trkpt>
      <trkpt lat="44.05966" lon="0.58815">
        <ele>143</ele>
        <time>2025-07-24T14:58:07.289Z</time>
      </trkpt>
      <trkpt lat="44.05966" lon="0.58814">
        <ele>143</ele>
        <time>2025-07-24T14:58:08.289Z</time>
      </trkpt>
      <trkpt lat="44.05965" lon="0.58813">
        <ele>143</ele>
        <time>2025-07-24T14:58:09.289Z</time>
      </trkpt>
      <trkpt lat="44.05964" lon="0.58812">
        <ele>144</ele>
        <time>2025-07-24T14:58:10.289Z</time>
      </trkpt>
      <trkpt lat="44.05964" lon="0.58811">
        <ele>144</ele>
        <time>2025-07-24T14:58:11.289Z</time>
      </trkpt>
      <trkpt lat="44.05963" lon="0.5881">
        <ele>144</ele>
        <time>2025-07-24T14:58:12.289Z</time>
      </trkpt>
      <trkpt lat="44.05963" lon="0.58808">
        <ele>144</ele>
        <time>2025-07-24T14:58:13.289Z</time>
      </trkpt>
      <trkpt lat="44.05962" lon="0.58807">
        <ele>144</ele>
        <time>2025-07-24T14:58:14.289Z</time>
      </trkpt>
      <trkpt lat="44.05961" lon="0.58806">
        <ele>144</ele>
        <time>2025-07-24T14:58:15.289Z</time>
      </trkpt>
      <trkpt lat="44.05961" lon="0.58804">
        <ele>144</ele>
        <time>2025-07-24T14:58:16.289Z</time>
      </trkpt>
      <trkpt lat="44.0596" lon="0.58803">
        <ele>144</ele>
        <time>2025-07-24T14:58:17.289Z</time>
      </trkpt>
      <trkpt lat="44.05959" lon="0.58802">
        <ele>144</ele>
        <time>2025-07-24T14:58:18.289Z</time>
      </trkpt>
      <trkpt lat="44.05958" lon="0.58801">
        <ele>144</ele>
        <time>2025-07-24T14:58:19.289Z</time>
      </trkpt>
      <trkpt lat="44.05958" lon="0.588">
        <ele>144</ele>
        <time>2025-07-24T14:58:20.289Z</time>
      </trkpt>
      <trkpt lat="44.05957" lon="0.58799">
        <ele>144</ele>
        <time>2025-07-24T14:58:21.289Z</time>
      </trkpt>
      <trkpt lat="44.05956" lon="0.58798">
        <ele>145</ele>
        <time>2025-07-24T14:58:22.289Z</time>
      </trkpt>
      <trkpt lat="44.05955" lon="0.58797">
        <ele>145</ele>
        <time>2025-07-24T14:58:23.289Z</time>
      </trkpt>
      <trkpt lat="44.05955" lon="0.58796">
        <ele>146</ele>
        <time>2025-07-24T14:58:24.289Z</time>
      </trkpt>
      <trkpt lat="44.05954" lon="0.58794">
        <ele>146</ele>
        <time>2025-07-24T14:58:25.289Z</time>
      </trkpt>
      <trkpt lat="44.05953" lon="0.58793">
        <ele>146</ele>
        <time>2025-07-24T14:58:26.289Z</time>
      </trkpt>
      <trkpt lat="44.05952" lon="0.58792">
        <ele>146</ele>
        <time>2025-07-24T14:58:27.289Z</time>
      </trkpt>
      <trkpt lat="44.05951" lon="0.58791">
        <ele>145</ele>
        <time>2025-07-24T14:58:28.289Z</time>
      </trkpt>
      <trkpt lat="44.05951" lon="0.5879">
        <ele>145</ele>
        <time>2025-07-24T14:58:29.289Z</time>
      </trkpt>
      <trkpt lat="44.0595" lon="0.58789">
        <ele>145</ele>
        <time>2025-07-24T14:58:30.289Z</time>
      </trkpt>
      <trkpt lat="44.0595" lon="0.58788">
        <ele>145</ele>
        <time>2025-07-24T14:58:31.289Z</time>
      </trkpt>
      <trkpt lat="44.05949" lon="0.58787">
        <ele>145</ele>
        <time>2025-07-24T14:58:32.289Z</time>
      </trkpt>
      <trkpt lat="44.05949" lon="0.58786">
        <ele>146</ele>
        <time>2025-07-24T14:58:33.289Z</time>
      </trkpt>
      <trkpt lat="44.05949" lon="0.58785">
        <ele>146</ele>
        <time>2025-07-24T14:58:34.289Z</time>
      </trkpt>
      <trkpt lat="44.05948" lon="0.58784">
        <ele>146</ele>
        <time>2025-07-24T14:58:35.289Z</time>
      </trkpt>
      <trkpt lat="44.05947" lon="0.58783">
        <ele>147</ele>
        <time>2025-07-24T14:58:36.289Z</time>
      </trkpt>
      <trkpt lat="44.05946" lon="0.58782">
        <ele>147</ele>
        <time>2025-07-24T14:58:37.289Z</time>
      </trkpt>
      <trkpt lat="44.05945" lon="0.58781">
        <ele>147</ele>
        <time>2025-07-24T14:58:38.289Z</time>
      </trkpt>
      <trkpt lat="44.05945" lon="0.5878">
        <ele>147</ele>
        <time>2025-07-24T14:58:39.289Z</time>
      </trkpt>
      <trkpt lat="44.05944" lon="0.58779">
        <ele>147</ele>
        <time>2025-07-24T14:58:40.289Z</time>
      </trkpt>
      <trkpt lat="44.05944" lon="0.58778">
        <ele>147</ele>
        <time>2025-07-24T14:58:41.289Z</time>
      </trkpt>
      <trkpt lat="44.05943" lon="0.58777">
        <ele>147</ele>
        <time>2025-07-24T14:58:42.289Z</time>
      </trkpt>
      <trkpt lat="44.05943" lon="0.58776">
        <ele>147</ele>
        <time>2025-07-24T14:58:43.289Z</time>
      </trkpt>
      <trkpt lat="44.05943" lon="0.58776">
        <ele>147</ele>
        <time>2025-07-24T14:58:44.289Z</time>
      </trkpt>
      <trkpt lat="44.05943" lon="0.58776">
        <ele>147</ele>
        <time>2025-07-24T14:58:45.289Z</time>
      </trkpt>
      <trkpt lat="44.05943" lon="0.58776">
        <ele>147</ele>
        <time>2025-07-24T14:58:46.289Z</time>
      </trkpt>
      <trkpt lat="44.05943" lon="0.58776">
        <ele>148</ele>
        <time>2025-07-24T14:58:47.289Z</time>
      </trkpt>
      <trkpt lat="44.05943" lon="0.58775">
        <ele>148</ele>
        <time>2025-07-24T14:58:48.289Z</time>
      </trkpt>
      <trkpt lat="44.05943" lon="0.58775">
        <ele>149</ele>
        <time>2025-07-24T14:58:49.289Z</time>
      </trkpt>
      <trkpt lat="44.05943" lon="0.58774">
        <ele>149</ele>
        <time>2025-07-24T14:58:50.289Z</time>
      </trkpt>
      <trkpt lat="44.05942" lon="0.58773">
        <ele>150</ele>
        <time>2025-07-24T14:58:51.289Z</time>
      </trkpt>
      <trkpt lat="44.05942" lon="0.58772">
        <ele>150</ele>
        <time>2025-07-24T14:58:52.289Z</time>
      </trkpt>
      <trkpt lat="44.05942" lon="0.58771">
        <ele>150</ele>
        <time>2025-07-24T14:58:53.289Z</time>
      </trkpt>
      <trkpt lat="44.05941" lon="0.58771">
        <ele>151</ele>
        <time>2025-07-24T14:58:54.289Z</time>
      </trkpt>
      <trkpt lat="44.0594" lon="0.5877">
        <ele>151</ele>
        <time>2025-07-24T14:58:55.289Z</time>
      </trkpt>
      <trkpt lat="44.0594" lon="0.58769">
        <ele>150</ele>
        <time>2025-07-24T14:58:56.289Z</time>
      </trkpt>
      <trkpt lat="44.05939" lon="0.58769">
        <ele>150</ele>
        <time>2025-07-24T14:58:57.289Z</time>
      </trkpt>
      <trkpt lat="44.05938" lon="0.58768">
        <ele>151</ele>
        <time>2025-07-24T14:58:58.289Z</time>
      </trkpt>
      <trkpt lat="44.05936" lon="0.58767">
        <ele>151</ele>
        <time>2025-07-24T14:58:59.289Z</time>
      </trkpt>
      <trkpt lat="44.05935" lon="0.58766">
        <ele>151</ele>
        <time>2025-07-24T14:59:00.289Z</time>
      </trkpt>
      <trkpt lat="44.05935" lon="0.58766">
        <ele>151</ele>
        <time>2025-07-24T14:59:01.289Z</time>
      </trkpt>
      <trkpt lat="44.05934" lon="0.58765">
        <ele>151</ele>
        <time>2025-07-24T14:59:02.289Z</time>
      </trkpt>
      <trkpt lat="44.05934" lon="0.58764">
        <ele>151</ele>
        <time>2025-07-24T14:59:03.289Z</time>
      </trkpt>
      <trkpt lat="44.05933" lon="0.58762">
        <ele>151</ele>
        <time>2025-07-24T14:59:04.289Z</time>
      </trkpt>
      <trkpt lat="44.05932" lon="0.58761">
        <ele>150</ele>
        <time>2025-07-24T14:59:05.289Z</time>
      </trkpt>
      <trkpt lat="44.05931" lon="0.58761">
        <ele>150</ele>
        <time>2025-07-24T14:59:06.289Z</time>
      </trkpt>
      <trkpt lat="44.05931" lon="0.5876">
        <ele>150</ele>
        <time>2025-07-24T14:59:07.289Z</time>
      </trkpt>
      <trkpt lat="44.0593" lon="0.58759">
        <ele>151</ele>
        <time>2025-07-24T14:59:08.289Z</time>
      </trkpt>
      <trkpt lat="44.05929" lon="0.58758">
        <ele>151</ele>
        <time>2025-07-24T14:59:09.289Z</time>
      </trkpt>
      <trkpt lat="44.05927" lon="0.58757">
        <ele>152</ele>
        <time>2025-07-24T14:59:10.289Z</time>
      </trkpt>
      <trkpt lat="44.05926" lon="0.58756">
        <ele>153</ele>
        <time>2025-07-24T14:59:11.289Z</time>
      </trkpt>
      <trkpt lat="44.05925" lon="0.58755">
        <ele>153</ele>
        <time>2025-07-24T14:59:12.289Z</time>
      </trkpt>
      <trkpt lat="44.05924" lon="0.58755">
        <ele>154</ele>
        <time>2025-07-24T14:59:13.289Z</time>
      </trkpt>
      <trkpt lat="44.05923" lon="0.58754">
        <ele>154</ele>
        <time>2025-07-24T14:59:14.289Z</time>
      </trkpt>
      <trkpt lat="44.05922" lon="0.58753">
        <ele>155</ele>
        <time>2025-07-24T14:59:15.289Z</time>
      </trkpt>
      <trkpt lat="44.05921" lon="0.58752">
        <ele>155</ele>
        <time>2025-07-24T14:59:16.289Z</time>
      </trkpt>
      <trkpt lat="44.05921" lon="0.58751">
        <ele>155</ele>
        <time>2025-07-24T14:59:17.289Z</time>
      </trkpt>
      <trkpt lat="44.0592" lon="0.5875">
        <ele>156</ele>
        <time>2025-07-24T14:59:18.289Z</time>
      </trkpt>
      <trkpt lat="44.0592" lon="0.58749">
        <ele>156</ele>
        <time>2025-07-24T14:59:19.289Z</time>
      </trkpt>
      <trkpt lat="44.05919" lon="0.58748">
        <ele>157</ele>
        <time>2025-07-24T14:59:20.289Z</time>
      </trkpt>
      <trkpt lat="44.05918" lon="0.58746">
        <ele>157</ele>
        <time>2025-07-24T14:59:21.289Z</time>
      </trkpt>
      <trkpt lat="44.05917" lon="0.58745">
        <ele>157</ele>
        <time>2025-07-24T14:59:22.289Z</time>
      </trkpt>
      <trkpt lat="44.05917" lon="0.58744">
        <ele>158</ele>
        <time>2025-07-24T14:59:23.289Z</time>
      </trkpt>
      <trkpt lat="44.05916" lon="0.58743">
        <ele>158</ele>
        <time>2025-07-24T14:59:24.289Z</time>
      </trkpt>
      <trkpt lat="44.05915" lon="0.58742">
        <ele>158</ele>
        <time>2025-07-24T14:59:25.289Z</time>
      </trkpt>
      <trkpt lat="44.05914" lon="0.58741">
        <ele>158</ele>
        <time>2025-07-24T14:59:26.289Z</time>
      </trkpt>
      <trkpt lat="44.05913" lon="0.5874">
        <ele>158</ele>
        <time>2025-07-24T14:59:27.289Z</time>
      </trkpt>
      <trkpt lat="44.05913" lon="0.58739">
        <ele>158</ele>
        <time>2025-07-24T14:59:28.289Z</time>
      </trkpt>
      <trkpt lat="44.05912" lon="0.58737">
        <ele>158</ele>
        <time>2025-07-24T14:59:29.289Z</time>
      </trkpt>
      <trkpt lat="44.05911" lon="0.58736">
        <ele>157</ele>
        <time>2025-07-24T14:59:30.289Z</time>
      </trkpt>
      <trkpt lat="44.0591" lon="0.58735">
        <ele>157</ele>
        <time>2025-07-24T14:59:31.289Z</time>
      </trkpt>
      <trkpt lat="44.05909" lon="0.58734">
        <ele>156</ele>
        <time>2025-07-24T14:59:32.289Z</time>
      </trkpt>
      <trkpt lat="44.05909" lon="0.58733">
        <ele>156</ele>
        <time>2025-07-24T14:59:33.289Z</time>
      </trkpt>
      <trkpt lat="44.05908" lon="0.58732">
        <ele>156</ele>
        <time>2025-07-24T14:59:34.289Z</time>
      </trkpt>
      <trkpt lat="44.05907" lon="0.5873">
        <ele>156</ele>
        <time>2025-07-24T14:59:35.289Z</time>
      </trkpt>
      <trkpt lat="44.05906" lon="0.58729">
        <ele>155</ele>
        <time>2025-07-24T14:59:36.289Z</time>
      </trkpt>
      <trkpt lat="44.05905" lon="0.58728">
        <ele>155</ele>
        <time>2025-07-24T14:59:37.289Z</time>
      </trkpt>
      <trkpt lat="44.05904" lon="0.58727">
        <ele>155</ele>
        <time>2025-07-24T14:59:38.289Z</time>
      </trkpt>
      <trkpt lat="44.05903" lon="0.58726">
        <ele>155</ele>
        <time>2025-07-24T14:59:39.289Z</time>
      </trkpt>
      <trkpt lat="44.05902" lon="0.58725">
        <ele>154</ele>
        <time>2025-07-24T14:59:40.289Z</time>
      </trkpt>
      <trkpt lat="44.05902" lon="0.58724">
        <ele>154</ele>
        <time>2025-07-24T14:59:41.289Z</time>
      </trkpt>
      <trkpt lat="44.05901" lon="0.58723">
        <ele>154</ele>
        <time>2025-07-24T14:59:42.289Z</time>
      </trkpt>
      <trkpt lat="44.059" lon="0.58722">
        <ele>155</ele>
        <time>2025-07-24T14:59:43.289Z</time>
      </trkpt>
      <trkpt lat="44.05899" lon="0.58721">
        <ele>154</ele>
        <time>2025-07-24T14:59:44.289Z</time>
      </trkpt>
      <trkpt lat="44.05898" lon="0.5872">
        <ele>154</ele>
        <time>2025-07-24T14:59:45.289Z</time>
      </trkpt>
      <trkpt lat="44.05897" lon="0.58719">
        <ele>154</ele>
        <time>2025-07-24T14:59:46.289Z</time>
      </trkpt>
      <trkpt lat="44.05896" lon="0.58718">
        <ele>154</ele>
        <time>2025-07-24T14:59:47.289Z</time>
      </trkpt>
      <trkpt lat="44.05896" lon="0.58717">
        <ele>153</ele>
        <time>2025-07-24T14:59:48.289Z</time>
      </trkpt>
      <trkpt lat="44.05895" lon="0.58716">
        <ele>153</ele>
        <time>2025-07-24T14:59:49.289Z</time>
      </trkpt>
      <trkpt lat="44.05894" lon="0.58715">
        <ele>153</ele>
        <time>2025-07-24T14:59:50.289Z</time>
      </trkpt>
      <trkpt lat="44.05893" lon="0.58714">
        <ele>154</ele>
        <time>2025-07-24T14:59:51.289Z</time>
      </trkpt>
      <trkpt lat="44.05892" lon="0.58712">
        <ele>154</ele>
        <time>2025-07-24T14:59:52.289Z</time>
      </trkpt>
      <trkpt lat="44.05892" lon="0.58711">
        <ele>154</ele>
        <time>2025-07-24T14:59:53.289Z</time>
      </trkpt>
      <trkpt lat="44.05891" lon="0.5871">
        <ele>154</ele>
        <time>2025-07-24T14:59:54.289Z</time>
      </trkpt>
      <trkpt lat="44.0589" lon="0.58709">
        <ele>154</ele>
        <time>2025-07-24T14:59:55.289Z</time>
      </trkpt>
      <trkpt lat="44.05889" lon="0.58708">
        <ele>154</ele>
        <time>2025-07-24T14:59:56.289Z</time>
      </trkpt>
      <trkpt lat="44.05888" lon="0.58708">
        <ele>154</ele>
        <time>2025-07-24T14:59:57.289Z</time>
      </trkpt>
      <trkpt lat="44.05887" lon="0.58707">
        <ele>154</ele>
        <time>2025-07-24T14:59:58.289Z</time>
      </trkpt>
      <trkpt lat="44.05886" lon="0.58707">
        <ele>154</ele>
        <time>2025-07-24T14:59:59.289Z</time>
      </trkpt>
      <trkpt lat="44.05885" lon="0.58706">
        <ele>154</ele>
        <time>2025-07-24T15:00:00.289Z</time>
      </trkpt>
      <trkpt lat="44.05884" lon="0.58706">
        <ele>154</ele>
        <time>2025-07-24T15:00:01.289Z</time>
      </trkpt>
      <trkpt lat="44.05883" lon="0.58705">
        <ele>154</ele>
        <time>2025-07-24T15:00:02.289Z</time>
      </trkpt>
      <trkpt lat="44.05882" lon="0.58704">
        <ele>154</ele>
        <time>2025-07-24T15:00:03.289Z</time>
      </trkpt>
      <trkpt lat="44.05881" lon="0.58704">
        <ele>153</ele>
        <time>2025-07-24T15:00:04.289Z</time>
      </trkpt>
      <trkpt lat="44.0588" lon="0.58704">
        <ele>153</ele>
        <time>2025-07-24T15:00:05.289Z</time>
      </trkpt>
      <trkpt lat="44.05879" lon="0.58704">
        <ele>153</ele>
        <time>2025-07-24T15:00:06.289Z</time>
      </trkpt>
      <trkpt lat="44.05878" lon="0.58704">
        <ele>153</ele>
        <time>2025-07-24T15:00:07.289Z</time>
      </trkpt>
      <trkpt lat="44.05877" lon="0.58705">
        <ele>153</ele>
        <time>2025-07-24T15:00:08.289Z</time>
      </trkpt>
      <trkpt lat="44.05877" lon="0.58705">
        <ele>152</ele>
        <time>2025-07-24T15:00:09.289Z</time>
      </trkpt>
      <trkpt lat="44.05876" lon="0.58706">
        <ele>152</ele>
        <time>2025-07-24T15:00:10.289Z</time>
      </trkpt>
      <trkpt lat="44.05875" lon="0.58707">
        <ele>153</ele>
        <time>2025-07-24T15:00:11.289Z</time>
      </trkpt>
      <trkpt lat="44.05875" lon="0.58708">
        <ele>153</ele>
        <time>2025-07-24T15:00:12.289Z</time>
      </trkpt>
      <trkpt lat="44.05874" lon="0.58709">
        <ele>154</ele>
        <time>2025-07-24T15:00:13.289Z</time>
      </trkpt>
      <trkpt lat="44.05874" lon="0.5871">
        <ele>155</ele>
        <time>2025-07-24T15:00:14.289Z</time>
      </trkpt>
      <trkpt lat="44.05873" lon="0.58711">
        <ele>156</ele>
        <time>2025-07-24T15:00:15.289Z</time>
      </trkpt>
      <trkpt lat="44.05873" lon="0.58712">
        <ele>157</ele>
        <time>2025-07-24T15:00:16.289Z</time>
      </trkpt>
      <trkpt lat="44.05872" lon="0.58713">
        <ele>158</ele>
        <time>2025-07-24T15:00:17.289Z</time>
      </trkpt>
      <trkpt lat="44.05872" lon="0.58714">
        <ele>159</ele>
        <time>2025-07-24T15:00:18.289Z</time>
      </trkpt>
      <trkpt lat="44.05872" lon="0.58715">
        <ele>160</ele>
        <time>2025-07-24T15:00:19.289Z</time>
      </trkpt>
      <trkpt lat="44.05871" lon="0.58716">
        <ele>160</ele>
        <time>2025-07-24T15:00:20.289Z</time>
      </trkpt>
      <trkpt lat="44.05871" lon="0.58717">
        <ele>161</ele>
        <time>2025-07-24T15:00:21.289Z</time>
      </trkpt>
      <trkpt lat="44.05871" lon="0.58718">
        <ele>162</ele>
        <time>2025-07-24T15:00:22.289Z</time>
      </trkpt>
      <trkpt lat="44.0587" lon="0.58719">
        <ele>163</ele>
        <time>2025-07-24T15:00:23.289Z</time>
      </trkpt>
      <trkpt lat="44.0587" lon="0.58719">
        <ele>163</ele>
        <time>2025-07-24T15:00:24.289Z</time>
      </trkpt>
      <trkpt lat="44.05869" lon="0.5872">
        <ele>163</ele>
        <time>2025-07-24T15:00:25.289Z</time>
      </trkpt>
      <trkpt lat="44.05869" lon="0.58721">
        <ele>162</ele>
        <time>2025-07-24T15:00:26.289Z</time>
      </trkpt>
      <trkpt lat="44.05868" lon="0.58722">
        <ele>162</ele>
        <time>2025-07-24T15:00:27.289Z</time>
      </trkpt>
      <trkpt lat="44.05868" lon="0.58723">
        <ele>161</ele>
        <time>2025-07-24T15:00:28.289Z</time>
      </trkpt>
      <trkpt lat="44.05867" lon="0.58723">
        <ele>160</ele>
        <time>2025-07-24T15:00:29.289Z</time>
      </trkpt>
      <trkpt lat="44.05866" lon="0.58724">
        <ele>159</ele>
        <time>2025-07-24T15:00:30.289Z</time>
      </trkpt>
      <trkpt lat="44.05866" lon="0.58724">
        <ele>158</ele>
        <time>2025-07-24T15:00:31.289Z</time>
      </trkpt>
      <trkpt lat="44.05866" lon="0.58725">
        <ele>158</ele>
        <time>2025-07-24T15:00:32.289Z</time>
      </trkpt>
      <trkpt lat="44.05866" lon="0.58725">
        <ele>158</ele>
        <time>2025-07-24T15:00:33.289Z</time>
      </trkpt>
      <trkpt lat="44.05865" lon="0.58726">
        <ele>157</ele>
        <time>2025-07-24T15:00:34.289Z</time>
      </trkpt>
      <trkpt lat="44.05864" lon="0.58726">
        <ele>157</ele>
        <time>2025-07-24T15:00:35.289Z</time>
      </trkpt>
      <trkpt lat="44.05863" lon="0.58727">
        <ele>156</ele>
        <time>2025-07-24T15:00:36.289Z</time>
      </trkpt>
      <trkpt lat="44.05863" lon="0.58727">
        <ele>156</ele>
        <time>2025-07-24T15:00:37.289Z</time>
      </trkpt>
      <trkpt lat="44.05862" lon="0.58728">
        <ele>156</ele>
        <time>2025-07-24T15:00:38.289Z</time>
      </trkpt>
      <trkpt lat="44.05861" lon="0.58728">
        <ele>156</ele>
        <time>2025-07-24T15:00:39.289Z</time>
      </trkpt>
      <trkpt lat="44.0586" lon="0.58729">
        <ele>155</ele>
        <time>2025-07-24T15:00:40.289Z</time>
      </trkpt>
      <trkpt lat="44.05859" lon="0.5873">
        <ele>156</ele>
        <time>2025-07-24T15:00:41.289Z</time>
      </trkpt>
      <trkpt lat="44.05858" lon="0.5873">
        <ele>156</ele>
        <time>2025-07-24T15:00:42.289Z</time>
      </trkpt>
      <trkpt lat="44.05857" lon="0.58731">
        <ele>156</ele>
        <time>2025-07-24T15:00:43.289Z</time>
      </trkpt>
      <trkpt lat="44.05856" lon="0.58731">
        <ele>156</ele>
        <time>2025-07-24T15:00:44.289Z</time>
      </trkpt>
      <trkpt lat="44.05855" lon="0.58732">
        <ele>156</ele>
        <time>2025-07-24T15:00:45.289Z</time>
      </trkpt>
      <trkpt lat="44.05855" lon="0.58732">
        <ele>156</ele>
        <time>2025-07-24T15:00:46.289Z</time>
      </trkpt>
      <trkpt lat="44.05854" lon="0.58733">
        <ele>156</ele>
        <time>2025-07-24T15:00:47.289Z</time>
      </trkpt>
      <trkpt lat="44.05853" lon="0.58733">
        <ele>156</ele>
        <time>2025-07-24T15:00:48.289Z</time>
      </trkpt>
      <trkpt lat="44.05853" lon="0.58733">
        <ele>155</ele>
        <time>2025-07-24T15:00:49.289Z</time>
      </trkpt>
      <trkpt lat="44.05852" lon="0.58734">
        <ele>155</ele>
        <time>2025-07-24T15:00:50.289Z</time>
      </trkpt>
      <trkpt lat="44.05852" lon="0.58735">
        <ele>155</ele>
        <time>2025-07-24T15:00:51.289Z</time>
      </trkpt>
      <trkpt lat="44.05852" lon="0.58736">
        <ele>155</ele>
        <time>2025-07-24T15:00:52.289Z</time>
      </trkpt>
      <trkpt lat="44.05851" lon="0.58737">
        <ele>155</ele>
        <time>2025-07-24T15:00:53.289Z</time>
      </trkpt>
      <trkpt lat="44.05851" lon="0.58737">
        <ele>155</ele>
        <time>2025-07-24T15:00:54.289Z</time>
      </trkpt>
      <trkpt lat="44.05851" lon="0.58738">
        <ele>155</ele>
        <time>2025-07-24T15:00:55.289Z</time>
      </trkpt>
      <trkpt lat="44.05851" lon="0.58738">
        <ele>155</ele>
        <time>2025-07-24T15:00:56.289Z</time>
      </trkpt>
      <trkpt lat="44.05851" lon="0.58738">
        <ele>155</ele>
        <time>2025-07-24T15:00:57.289Z</time>
      </trkpt>
      <trkpt lat="44.05851" lon="0.58739">
        <ele>155</ele>
        <time>2025-07-24T15:00:58.289Z</time>
      </trkpt>
      <trkpt lat="44.05851" lon="0.58739">
        <ele>155</ele>
        <time>2025-07-24T15:00:59.289Z</time>
      </trkpt>
      <trkpt lat="44.05851" lon="0.58739">
        <ele>156</ele>
        <time>2025-07-24T15:01:00.289Z</time>
      </trkpt>
      <trkpt lat="44.05852" lon="0.5874">
        <ele>156</ele>
        <time>2025-07-24T15:01:01.289Z</time>
      </trkpt>
      <trkpt lat="44.05852" lon="0.5874">
        <ele>156</ele>
        <time>2025-07-24T15:01:02.289Z</time>
      </trkpt>
      <trkpt lat="44.05851" lon="0.58741">
        <ele>157</ele>
        <time>2025-07-24T15:01:03.289Z</time>
      </trkpt>
      <trkpt lat="44.0585" lon="0.58741">
        <ele>157</ele>
        <time>2025-07-24T15:01:04.289Z</time>
      </trkpt>
      <trkpt lat="44.0585" lon="0.58742">
        <ele>157</ele>
        <time>2025-07-24T15:01:05.289Z</time>
      </trkpt>
      <trkpt lat="44.05849" lon="0.58742">
        <ele>158</ele>
        <time>2025-07-24T15:01:06.289Z</time>
      </trkpt>
      <trkpt lat="44.05849" lon="0.58742">
        <ele>158</ele>
        <time>2025-07-24T15:01:07.289Z</time>
      </trkpt>
      <trkpt lat="44.05849" lon="0.58742">
        <ele>158</ele>
        <time>2025-07-24T15:01:08.289Z</time>
      </trkpt>
      <trkpt lat="44.05849" lon="0.58742">
        <ele>158</ele>
        <time>2025-07-24T15:01:09.289Z</time>
      </trkpt>
      <trkpt lat="44.05849" lon="0.58743">
        <ele>158</ele>
        <time>2025-07-24T15:01:10.289Z</time>
      </trkpt>
      <trkpt lat="44.05848" lon="0.58743">
        <ele>158</ele>
        <time>2025-07-24T15:01:11.289Z</time>
      </trkpt>
      <trkpt lat="44.05848" lon="0.58744">
        <ele>159</ele>
        <time>2025-07-24T15:01:12.289Z</time>
      </trkpt>
      <trkpt lat="44.05848" lon="0.58744">
        <ele>159</ele>
        <time>2025-07-24T15:01:13.289Z</time>
      </trkpt>
      <trkpt lat="44.05848" lon="0.58745">
        <ele>160</ele>
        <time>2025-07-24T15:01:14.289Z</time>
      </trkpt>
      <trkpt lat="44.05847" lon="0.58745">
        <ele>160</ele>
        <time>2025-07-24T15:01:15.289Z</time>
      </trkpt>
      <trkpt lat="44.05847" lon="0.58746">
        <ele>160</ele>
        <time>2025-07-24T15:01:16.289Z</time>
      </trkpt>
      <trkpt lat="44.05848" lon="0.58747">
        <ele>160</ele>
        <time>2025-07-24T15:01:17.289Z</time>
      </trkpt>
      <trkpt lat="44.05848" lon="0.58747">
        <ele>161</ele>
        <time>2025-07-24T15:01:18.289Z</time>
      </trkpt>
      <trkpt lat="44.05848" lon="0.58747">
        <ele>161</ele>
        <time>2025-07-24T15:01:19.289Z</time>
      </trkpt>
      <trkpt lat="44.05848" lon="0.58748">
        <ele>162</ele>
        <time>2025-07-24T15:01:20.289Z</time>
      </trkpt>
      <trkpt lat="44.05848" lon="0.58749">
        <ele>163</ele>
        <time>2025-07-24T15:01:21.289Z</time>
      </trkpt>
      <trkpt lat="44.05847" lon="0.58749">
        <ele>163</ele>
        <time>2025-07-24T15:01:22.289Z</time>
      </trkpt>
      <trkpt lat="44.05847" lon="0.5875">
        <ele>164</ele>
        <time>2025-07-24T15:01:23.289Z</time>
      </trkpt>
      <trkpt lat="44.05847" lon="0.5875">
        <ele>164</ele>
        <time>2025-07-24T15:01:24.289Z</time>
      </trkpt>
      <trkpt lat="44.05847" lon="0.5875">
        <ele>165</ele>
        <time>2025-07-24T15:01:25.289Z</time>
      </trkpt>
      <trkpt lat="44.05847" lon="0.5875">
        <ele>165</ele>
        <time>2025-07-24T15:01:26.289Z</time>
      </trkpt>
      <trkpt lat="44.05847" lon="0.5875">
        <ele>165</ele>
        <time>2025-07-24T15:01:27.289Z</time>
      </trkpt>
      <trkpt lat="44.05847" lon="0.5875">
        <ele>165</ele>
        <time>2025-07-24T15:01:28.289Z</time>
      </trkpt>
      <trkpt lat="44.05847" lon="0.58749">
        <ele>165</ele>
        <time>2025-07-24T15:01:29.289Z</time>
      </trkpt>
      <trkpt lat="44.05847" lon="0.58749">
        <ele>165</ele>
        <time>2025-07-24T15:01:30.289Z</time>
      </trkpt>
      <trkpt lat="44.05847" lon="0.58747">
        <ele>165</ele>
        <time>2025-07-24T15:01:31.289Z</time>
      </trkpt>
      <trkpt lat="44.05847" lon="0.58747">
        <ele>166</ele>
        <time>2025-07-24T15:01:32.289Z</time>
      </trkpt>
      <trkpt lat="44.05847" lon="0.58747">
        <ele>166</ele>
        <time>2025-07-24T15:01:33.289Z</time>
      </trkpt>
      <trkpt lat="44.05847" lon="0.58746">
        <ele>166</ele>
        <time>2025-07-24T15:01:34.289Z</time>
      </trkpt>
      <trkpt lat="44.05847" lon="0.58746">
        <ele>167</ele>
        <time>2025-07-24T15:01:35.289Z</time>
      </trkpt>
    </trkseg>
  </trk>
</gpx>